<?xml version='1.0' encoding='UTF-8'?><gpx version="1.1" creator="JPX - https://github.com/jenetics/jpx" xmlns="http://www.topografix.com/GPX/1/1"><trk><trkseg><trkpt lat="43.45838404534854" lon="11.901066735682448"><ele>269.0</ele><time>2026-03-29T07:14:48.713Z</time></trkpt><trkpt lat="43.458417473699484" lon="11.901193000300962"><ele>269.0</ele><time>2026-03-29T07:14:49.365Z</time></trkpt><trkpt lat="43.45779736167843" lon="11.902721188688599"><ele>272.0</ele><time>2026-03-29T07:14:55.262Z</time></trkpt><trkpt lat="43.45754384186223" lon="11.903262974786756"><ele>272.0</ele><time>2026-03-29T07:15:01.277Z</time></trkpt><trkpt lat="43.45740096988444" lon="11.903247817638782"><ele>272.0</ele><time>2026-03-29T07:15:08.924Z</time></trkpt><trkpt lat="43.45677158461175" lon="11.902268733399843"><ele>269.0</ele><time>2026-03-29T07:15:15.247Z</time></trkpt><trkpt lat="43.45629729584385" lon="11.902504973929512"><ele>268.0</ele><time>2026-03-29T07:15:21.241Z</time></trkpt><trkpt lat="43.45584020022625" lon="11.903469432156443"><ele>268.0</ele><time>2026-03-29T07:15:22.348Z</time></trkpt><trkpt lat="43.45570692796582" lon="11.903499858464956"><ele>268.0</ele><time>2026-03-29T07:15:23.341Z</time></trkpt><trkpt lat="43.45561191909337" lon="11.90362759866929"><ele>268.0</ele><time>2026-03-29T07:15:24.351Z</time></trkpt><trkpt lat="43.455536314326764" lon="11.903690211485982"><ele>268.0</ele><time>2026-03-29T07:15:25.35Z</time></trkpt><trkpt lat="43.45549105204964" lon="11.903761373843908"><ele>268.0</ele><time>2026-03-29T07:15:26.351Z</time></trkpt><trkpt lat="43.45540442508036" lon="11.903860280301332"><ele>268.0</ele><time>2026-03-29T07:15:27Z</time></trkpt><trkpt lat="43.45540086277151" lon="11.903743604209184"><ele>268.0</ele><time>2026-03-29T07:15:30Z</time></trkpt><trkpt lat="43.455430896909725" lon="11.903615098829858"><ele>268.0</ele><time>2026-03-29T07:15:32Z</time></trkpt><trkpt lat="43.4554570818028" lon="11.903510932831129"><ele>268.0</ele><time>2026-03-29T07:15:34Z</time></trkpt><trkpt lat="43.455415555197234" lon="11.90341618541122"><ele>268.0</ele><time>2026-03-29T07:15:37Z</time></trkpt><trkpt lat="43.45538227810277" lon="11.903288488727355"><ele>268.0</ele><time>2026-03-29T07:15:39Z</time></trkpt><trkpt lat="43.45533368875216" lon="11.90316722443334"><ele>268.8571428571429</ele><time>2026-03-29T07:15:41Z</time></trkpt><trkpt lat="43.455274781726544" lon="11.903130192261036"><ele>269.7142857142857</ele><time>2026-03-29T07:15:43Z</time></trkpt><trkpt lat="43.4552040442849" lon="11.903120361903161"><ele>270.57142857142856</ele><time>2026-03-29T07:15:47Z</time></trkpt><trkpt lat="43.455122269752316" lon="11.903151741036366"><ele>271.42857142857144</ele><time>2026-03-29T07:15:50Z</time></trkpt><trkpt lat="43.45505404139981" lon="11.90319363677384"><ele>272.2857142857143</ele><time>2026-03-29T07:15:51Z</time></trkpt><trkpt lat="43.45499368970162" lon="11.903240773298757"><ele>273.14285714285717</ele><time>2026-03-29T07:15:52Z</time></trkpt><trkpt lat="43.45491409654121" lon="11.903207337043911"><ele>274.0</ele><time>2026-03-29T07:15:54Z</time></trkpt><trkpt lat="43.454866760705684" lon="11.903138373277253"><ele>274.0</ele><time>2026-03-29T07:15:55Z</time></trkpt><trkpt lat="43.45481816675952" lon="11.903078002112238"><ele>274.0</ele><time>2026-03-29T07:15:56Z</time></trkpt><trkpt lat="43.4547703506379" lon="11.902995988036182"><ele>274.0</ele><time>2026-03-29T07:15:58Z</time></trkpt><trkpt lat="43.45471300214527" lon="11.902915879127201"><ele>274.0</ele><time>2026-03-29T07:16:00Z</time></trkpt><trkpt lat="43.454637478122315" lon="11.902785757907566"><ele>274.0</ele><time>2026-03-29T07:16:02Z</time></trkpt><trkpt lat="43.454601922777144" lon="11.902696407799567"><ele>274.0</ele><time>2026-03-29T07:16:03Z</time></trkpt><trkpt lat="43.454572483281574" lon="11.902606938763897"><ele>278.66666666666663</ele><time>2026-03-29T07:16:04Z</time></trkpt><trkpt lat="43.45452181897138" lon="11.902431996614691"><ele>283.3333333333333</ele><time>2026-03-29T07:16:06Z</time></trkpt><trkpt lat="43.45448400810866" lon="11.902340756170034"><ele>288.0</ele><time>2026-03-29T07:16:07Z</time></trkpt><trkpt lat="43.45444757939261" lon="11.90226057204426"><ele>292.6666666666667</ele><time>2026-03-29T07:16:08Z</time></trkpt><trkpt lat="43.45441459036656" lon="11.902168769097065"><ele>297.33333333333337</ele><time>2026-03-29T07:16:09Z</time></trkpt><trkpt lat="43.454388890079045" lon="11.902074257715729"><ele>302.0</ele><time>2026-03-29T07:16:10Z</time></trkpt><trkpt lat="43.45436443939642" lon="11.901990253724472"><ele>302.0</ele><time>2026-03-29T07:16:11Z</time></trkpt><trkpt lat="43.454309979715624" lon="11.901921085177813"><ele>302.0</ele><time>2026-03-29T07:16:12.999Z</time></trkpt><trkpt lat="43.45428019208439" lon="11.902019069752813"><ele>302.0</ele><time>2026-03-29T07:16:14.999Z</time></trkpt><trkpt lat="43.45423466358611" lon="11.902142524838995"><ele>302.0</ele><time>2026-03-29T07:16:16.999Z</time></trkpt><trkpt lat="43.45416880018288" lon="11.902155197619072"><ele>302.0</ele><time>2026-03-29T07:16:18.999Z</time></trkpt><trkpt lat="43.45412555360399" lon="11.902046626364934"><ele>302.0</ele><time>2026-03-29T07:16:20.999Z</time></trkpt><trkpt lat="43.45406493485058" lon="11.901983369943867"><ele>302.0</ele><time>2026-03-29T07:16:22.999Z</time></trkpt><trkpt lat="43.45400513384796" lon="11.901866500798391"><ele>302.0</ele><time>2026-03-29T07:16:24.999Z</time></trkpt><trkpt lat="43.453964335014106" lon="11.901799683755621"><ele>302.0</ele><time>2026-03-29T07:16:25.999Z</time></trkpt><trkpt lat="43.45387278391634" lon="11.901694142671902"><ele>302.0</ele><time>2026-03-29T07:16:27.999Z</time></trkpt><trkpt lat="43.45381669907229" lon="11.901647997613164"><ele>302.0</ele><time>2026-03-29T07:16:28.999Z</time></trkpt><trkpt lat="43.45370230018136" lon="11.90157510529167"><ele>306.1666666666667</ele><time>2026-03-29T07:16:30.999Z</time></trkpt><trkpt lat="43.45363535718949" lon="11.901532595217938"><ele>310.33333333333337</ele><time>2026-03-29T07:16:31.999Z</time></trkpt><trkpt lat="43.45357121011705" lon="11.901492658420663"><ele>314.5</ele><time>2026-03-29T07:16:32.999Z</time></trkpt><trkpt lat="43.45348307090955" lon="11.901452539586215"><ele>318.6666666666667</ele><time>2026-03-29T07:16:34.999Z</time></trkpt><trkpt lat="43.45344031586619" lon="11.901539498116971"><ele>322.8333333333333</ele><time>2026-03-29T07:17:41Z</time></trkpt><trkpt lat="43.45337711313529" lon="11.901459114144117"><ele>327.0</ele><time>2026-03-29T07:17:46Z</time></trkpt><trkpt lat="43.453262634424796" lon="11.901414646318969"><ele>327.0</ele><time>2026-03-29T07:17:48Z</time></trkpt><trkpt lat="43.45317548942794" lon="11.901374359338826"><ele>327.0</ele><time>2026-03-29T07:17:49Z</time></trkpt><trkpt lat="43.45310285306112" lon="11.90135127363373"><ele>327.0</ele><time>2026-03-29T07:17:50Z</time></trkpt><trkpt lat="43.453038757391575" lon="11.901336646286206"><ele>327.0</ele><time>2026-03-29T07:17:51Z</time></trkpt><trkpt lat="43.45297221684698" lon="11.90132649288575"><ele>327.0</ele><time>2026-03-29T07:17:52Z</time></trkpt><trkpt lat="43.45291550887757" lon="11.901373621933034"><ele>327.0</ele><time>2026-03-29T07:17:54Z</time></trkpt><trkpt lat="43.4528717863544" lon="11.901481691356782"><ele>330.20000000000005</ele><time>2026-03-29T07:17:56Z</time></trkpt><trkpt lat="43.452806642170884" lon="11.901628895700446"><ele>333.4</ele><time>2026-03-29T07:17:58Z</time></trkpt><trkpt lat="43.452730582289" lon="11.90174674471003"><ele>336.6</ele><time>2026-03-29T07:18:00Z</time></trkpt><trkpt lat="43.45264621559641" lon="11.901694645621474"><ele>339.79999999999995</ele><time>2026-03-29T07:18:03Z</time></trkpt><trkpt lat="43.452600663548196" lon="11.901625610954468"><ele>343.0</ele><time>2026-03-29T07:18:04Z</time></trkpt><trkpt lat="43.45253955599725" lon="11.901565074677839"><ele>343.0</ele><time>2026-03-29T07:18:05Z</time></trkpt><trkpt lat="43.452464854676855" lon="11.90145515597857"><ele>343.0</ele><time>2026-03-29T07:18:07Z</time></trkpt><trkpt lat="43.45238002909724" lon="11.901455469570879"><ele>343.0</ele><time>2026-03-29T07:18:09Z</time></trkpt><trkpt lat="43.45229994539658" lon="11.901565703792548"><ele>343.0</ele><time>2026-03-29T07:18:11Z</time></trkpt><trkpt lat="43.45224728441863" lon="11.901635519107217"><ele>343.0</ele><time>2026-03-29T07:18:13Z</time></trkpt><trkpt lat="43.452157605512596" lon="11.901683495915837"><ele>344.4</ele><time>2026-03-29T07:18:16Z</time></trkpt><trkpt lat="43.45210496065439" lon="11.901795232689109"><ele>345.79999999999995</ele><time>2026-03-29T07:18:18Z</time></trkpt><trkpt lat="43.452076323027526" lon="11.90189731923425"><ele>347.2</ele><time>2026-03-29T07:18:20Z</time></trkpt><trkpt lat="43.45201186741764" lon="11.902040094860963"><ele>348.6</ele><time>2026-03-29T07:18:22Z</time></trkpt><trkpt lat="43.451971155856306" lon="11.90214078939626"><ele>350.0</ele><time>2026-03-29T07:18:24Z</time></trkpt><trkpt lat="43.45190585592908" lon="11.902211147584683"><ele>350.0</ele><time>2026-03-29T07:18:26Z</time></trkpt><trkpt lat="43.451845650912944" lon="11.902175913470021"><ele>350.0</ele><time>2026-03-29T07:18:28.999Z</time></trkpt><trkpt lat="43.45179078074106" lon="11.901993223822227"><ele>350.0</ele><time>2026-03-29T07:18:30.999Z</time></trkpt><trkpt lat="43.45175959156993" lon="11.90188253525662"><ele>350.0</ele><time>2026-03-29T07:18:32.999Z</time></trkpt><trkpt lat="43.45166631876544" lon="11.901826339731272"><ele>350.0</ele><time>2026-03-29T07:18:34.999Z</time></trkpt><trkpt lat="43.451628005371845" lon="11.901916653586541"><ele>350.0</ele><time>2026-03-29T07:18:36.999Z</time></trkpt><trkpt lat="43.4516278208702" lon="11.9020863144388"><ele>350.0</ele><time>2026-03-29T07:18:38.999Z</time></trkpt><trkpt lat="43.45158698081686" lon="11.902163707097948"><ele>350.0</ele><time>2026-03-29T07:18:39.999Z</time></trkpt><trkpt lat="43.45154834218179" lon="11.902280917176963"><ele>350.0</ele><time>2026-03-29T07:18:41.999Z</time></trkpt><trkpt lat="43.45147994585945" lon="11.90234158609043"><ele>350.0</ele><time>2026-03-29T07:18:43.999Z</time></trkpt><trkpt lat="43.45140998404426" lon="11.9023427107109"><ele>350.0</ele><time>2026-03-29T07:18:45.999Z</time></trkpt><trkpt lat="43.45129188364881" lon="11.90231905636816"><ele>351.33333333333337</ele><time>2026-03-29T07:18:47.999Z</time></trkpt><trkpt lat="43.45122297919989" lon="11.90235318208784"><ele>352.6666666666667</ele><time>2026-03-29T07:18:49.999Z</time></trkpt><trkpt lat="43.45113517469522" lon="11.902319438586964"><ele>354.0</ele><time>2026-03-29T07:18:51.999Z</time></trkpt><trkpt lat="43.451024556370335" lon="11.90233286359184"><ele>355.3333333333333</ele><time>2026-03-29T07:18:53.999Z</time></trkpt><trkpt lat="43.45101322946321" lon="11.902238809660782"><ele>356.66666666666663</ele><time>2026-03-29T07:18:55.999Z</time></trkpt><trkpt lat="43.45102126569936" lon="11.902130483900878"><ele>358.0</ele><time>2026-03-29T07:18:57.999Z</time></trkpt><trkpt lat="43.450928802503974" lon="11.902083587093847"><ele>358.0</ele><time>2026-03-29T07:18:59.999Z</time></trkpt><trkpt lat="43.45085782876402" lon="11.90210584355"><ele>358.0</ele><time>2026-03-29T07:19:00.999Z</time></trkpt><trkpt lat="43.45078279963854" lon="11.902107516793038"><ele>358.0</ele><time>2026-03-29T07:19:01.999Z</time></trkpt><trkpt lat="43.45071990210724" lon="11.902086069877763"><ele>358.0</ele><time>2026-03-29T07:19:02.999Z</time></trkpt><trkpt lat="43.45060321128094" lon="11.902092035088154"><ele>358.0</ele><time>2026-03-29T07:19:04.999Z</time></trkpt><trkpt lat="43.45052285647001" lon="11.902080945559776"><ele>358.0</ele><time>2026-03-29T07:19:05.999Z</time></trkpt><trkpt lat="43.45045037489231" lon="11.902073491927164"><ele>359.59999999999997</ele><time>2026-03-29T07:19:06.999Z</time></trkpt><trkpt lat="43.45037669973245" lon="11.902071084170858"><ele>361.2</ele><time>2026-03-29T07:19:07.999Z</time></trkpt><trkpt lat="43.45028159222827" lon="11.902065941477687"><ele>362.8</ele><time>2026-03-29T07:19:08.999Z</time></trkpt><trkpt lat="43.450182389438645" lon="11.902061181573416"><ele>364.4</ele><time>2026-03-29T07:19:09.999Z</time></trkpt><trkpt lat="43.45008095288302" lon="11.902048933478081"><ele>366.0</ele><time>2026-03-29T07:19:10.999Z</time></trkpt><trkpt lat="43.44998030738441" lon="11.902049196249704"><ele>366.0</ele><time>2026-03-29T07:19:11.999Z</time></trkpt><trkpt lat="43.449867603682414" lon="11.902045004828576"><ele>366.0</ele><time>2026-03-29T07:19:13.999Z</time></trkpt><trkpt lat="43.44978412845768" lon="11.902047579628162"><ele>366.0</ele><time>2026-03-29T07:19:15.999Z</time></trkpt><trkpt lat="43.449702411690474" lon="11.902048866561069"><ele>366.0</ele><time>2026-03-29T07:19:17.999Z</time></trkpt><trkpt lat="43.44964672924179" lon="11.901988030193232"><ele>366.0</ele><time>2026-03-29T07:19:22.999Z</time></trkpt><trkpt lat="43.44956854676956" lon="11.901996608316892"><ele>366.0</ele><time>2026-03-29T07:19:26.999Z</time></trkpt><trkpt lat="43.449482706667084" lon="11.902000177858584"><ele>368.1666666666667</ele><time>2026-03-29T07:19:28.999Z</time></trkpt><trkpt lat="43.449406711894234" lon="11.901984621521363"><ele>370.3333333333333</ele><time>2026-03-29T07:19:32.999Z</time></trkpt><trkpt lat="43.44934032335847" lon="11.901981499010754"><ele>372.5</ele><time>2026-03-29T07:19:37Z</time></trkpt><trkpt lat="43.44926287915113" lon="11.901922093688764"><ele>374.66666666666663</ele><time>2026-03-29T07:19:41Z</time></trkpt><trkpt lat="43.449205003007236" lon="11.90186217419819"><ele>376.8333333333333</ele><time>2026-03-29T07:23:57Z</time></trkpt><trkpt lat="43.44921446844538" lon="11.901756243045464"><ele>379.0</ele><time>2026-03-29T07:24:31Z</time></trkpt><trkpt lat="43.4491617076832" lon="11.901686789722712"><ele>379.0</ele><time>2026-03-29T07:24:33Z</time></trkpt><trkpt lat="43.44909634091383" lon="11.901762249896562"><ele>379.0</ele><time>2026-03-29T07:24:35Z</time></trkpt><trkpt lat="43.449039729629185" lon="11.901835121112228"><ele>379.0</ele><time>2026-03-29T07:24:37Z</time></trkpt><trkpt lat="43.44892032047086" lon="11.901801583632492"><ele>379.0</ele><time>2026-03-29T07:24:39Z</time></trkpt><trkpt lat="43.448860291895215" lon="11.901764596068706"><ele>379.0</ele><time>2026-03-29T07:24:40Z</time></trkpt><trkpt lat="43.44873099439015" lon="11.90176213938428"><ele>382.0</ele><time>2026-03-29T07:24:41.999Z</time></trkpt><trkpt lat="43.44864179893084" lon="11.901729444189353"><ele>385.0</ele><time>2026-03-29T07:24:42.999Z</time></trkpt><trkpt lat="43.44857043558341" lon="11.901682968060166"><ele>388.0</ele><time>2026-03-29T07:24:43.999Z</time></trkpt><trkpt lat="43.44846571239613" lon="11.901687629451407"><ele>391.0</ele><time>2026-03-29T07:24:45.999Z</time></trkpt><trkpt lat="43.44840453070491" lon="11.901716376879016"><ele>394.00000000000006</ele><time>2026-03-29T07:24:46.999Z</time></trkpt><trkpt lat="43.448332212409376" lon="11.90174367967081"><ele>397.0</ele><time>2026-03-29T07:24:47.999Z</time></trkpt><trkpt lat="43.448291549483244" lon="11.90184481245029"><ele>397.0</ele><time>2026-03-29T07:24:49.999Z</time></trkpt><trkpt lat="43.44827189706722" lon="11.90196286049625"><ele>397.0</ele><time>2026-03-29T07:24:51.999Z</time></trkpt><trkpt lat="43.44817849306657" lon="11.902024287173628"><ele>397.0</ele><time>2026-03-29T07:24:54.999Z</time></trkpt><trkpt lat="43.448114814809784" lon="11.902041427186887"><ele>397.0</ele><time>2026-03-29T07:24:55.999Z</time></trkpt><trkpt lat="43.447981436980854" lon="11.902030270097075"><ele>397.0</ele><time>2026-03-29T07:24:57.999Z</time></trkpt><trkpt lat="43.44791127346613" lon="11.902044054039713"><ele>397.83333333333337</ele><time>2026-03-29T07:24:58.999Z</time></trkpt><trkpt lat="43.44784319575531" lon="11.902067563367645"><ele>398.6666666666667</ele><time>2026-03-29T07:24:59.999Z</time></trkpt><trkpt lat="43.44777350805632" lon="11.902076933464134"><ele>399.5</ele><time>2026-03-29T07:25:00.999Z</time></trkpt><trkpt lat="43.4477015213058" lon="11.902078122794629"><ele>400.33333333333337</ele><time>2026-03-29T07:25:01.999Z</time></trkpt><trkpt lat="43.44758878368385" lon="11.902085038199901"><ele>401.1666666666667</ele><time>2026-03-29T07:25:03.999Z</time></trkpt><trkpt lat="43.447486742609364" lon="11.902084300978567"><ele>402.0</ele><time>2026-03-29T07:25:05.999Z</time></trkpt><trkpt lat="43.44736762620909" lon="11.902053750361734"><ele>402.0</ele><time>2026-03-29T07:25:07.999Z</time></trkpt><trkpt lat="43.447301733222055" lon="11.902073932931259"><ele>402.0</ele><time>2026-03-29T07:25:09.999Z</time></trkpt><trkpt lat="43.447250624515576" lon="11.902125732082371"><ele>402.0</ele><time>2026-03-29T07:25:11.999Z</time></trkpt><trkpt lat="43.44714426543169" lon="11.902138358348447"><ele>402.0</ele><time>2026-03-29T07:25:13.999Z</time></trkpt><trkpt lat="43.44703479739971" lon="11.902149897623266"><ele>402.0</ele><time>2026-03-29T07:25:15.999Z</time></trkpt><trkpt lat="43.4469383796862" lon="11.902193390152751"><ele>402.0</ele><time>2026-03-29T07:25:17.999Z</time></trkpt><trkpt lat="43.446836599785286" lon="11.902243941840583"><ele>402.0</ele><time>2026-03-29T07:25:19.999Z</time></trkpt><trkpt lat="43.446719648757885" lon="11.902312739917797"><ele>402.0</ele><time>2026-03-29T07:25:21.999Z</time></trkpt><trkpt lat="43.44666176212458" lon="11.902347425016254"><ele>402.0</ele><time>2026-03-29T07:25:22.999Z</time></trkpt><trkpt lat="43.446600684267445" lon="11.902383870945643"><ele>402.0</ele><time>2026-03-29T07:25:23.999Z</time></trkpt><trkpt lat="43.44653260809598" lon="11.902417924628715"><ele>402.0</ele><time>2026-03-29T07:25:24.999Z</time></trkpt><trkpt lat="43.44645536263816" lon="11.90245391395986"><ele>402.0</ele><time>2026-03-29T07:25:25.999Z</time></trkpt><trkpt lat="43.44636728758422" lon="11.90248421827249"><ele>401.40000000000003</ele><time>2026-03-29T07:25:26.999Z</time></trkpt><trkpt lat="43.44626988627094" lon="11.902508474698259"><ele>400.8</ele><time>2026-03-29T07:25:27.999Z</time></trkpt><trkpt lat="43.44616334294163" lon="11.90253928843213"><ele>400.2</ele><time>2026-03-29T07:25:28.999Z</time></trkpt><trkpt lat="43.446053310102286" lon="11.902564356448371"><ele>399.6</ele><time>2026-03-29T07:25:29.999Z</time></trkpt><trkpt lat="43.445943712695446" lon="11.90259422279736"><ele>399.0</ele><time>2026-03-29T07:25:30.999Z</time></trkpt><trkpt lat="43.44584078149274" lon="11.902621039681785"><ele>399.0</ele><time>2026-03-29T07:25:31.999Z</time></trkpt><trkpt lat="43.44574418912835" lon="11.902649438364618"><ele>399.0</ele><time>2026-03-29T07:25:32.999Z</time></trkpt><trkpt lat="43.44565261793352" lon="11.902676648749122"><ele>399.0</ele><time>2026-03-29T07:25:33.999Z</time></trkpt><trkpt lat="43.445560144958705" lon="11.902697103056521"><ele>399.0</ele><time>2026-03-29T07:25:34.999Z</time></trkpt><trkpt lat="43.4454771170454" lon="11.902706372663888"><ele>399.0</ele><time>2026-03-29T07:25:35.999Z</time></trkpt><trkpt lat="43.44539008366382" lon="11.902710246237104"><ele>400.6666666666667</ele><time>2026-03-29T07:25:36.999Z</time></trkpt><trkpt lat="43.445298126015324" lon="11.902699933761724"><ele>402.33333333333337</ele><time>2026-03-29T07:25:37.999Z</time></trkpt><trkpt lat="43.445201413616374" lon="11.902682148660668"><ele>404.0</ele><time>2026-03-29T07:25:38.999Z</time></trkpt><trkpt lat="43.44511553833718" lon="11.90267188502394"><ele>405.6666666666667</ele><time>2026-03-29T07:25:39.999Z</time></trkpt><trkpt lat="43.44504346600962" lon="11.902664532370324"><ele>407.33333333333337</ele><time>2026-03-29T07:25:40.999Z</time></trkpt><trkpt lat="43.444981850834836" lon="11.90263800867083"><ele>409.0</ele><time>2026-03-29T07:25:41.999Z</time></trkpt><trkpt lat="43.444913682985536" lon="11.90249745880108"><ele>409.33333333333337</ele><time>2026-03-29T07:25:43.999Z</time></trkpt><trkpt lat="43.444883787730916" lon="11.902418226603992"><ele>409.6666666666667</ele><time>2026-03-29T07:25:44.999Z</time></trkpt><trkpt lat="43.4447590156282" lon="11.902390862384431"><ele>410.0</ele><time>2026-03-29T07:25:46.999Z</time></trkpt><trkpt lat="43.44467533591985" lon="11.902422583890397"><ele>410.33333333333337</ele><time>2026-03-29T07:25:47.999Z</time></trkpt><trkpt lat="43.444601331718715" lon="11.90245616124111"><ele>410.6666666666667</ele><time>2026-03-29T07:25:48.999Z</time></trkpt><trkpt lat="43.44452594856117" lon="11.902464575353967"><ele>411.0</ele><time>2026-03-29T07:25:49.999Z</time></trkpt><trkpt lat="43.44444917301947" lon="11.902447747136698"><ele>410.1666666666667</ele><time>2026-03-29T07:25:50.999Z</time></trkpt><trkpt lat="43.44438425738212" lon="11.902425842275928"><ele>409.33333333333337</ele><time>2026-03-29T07:25:51.999Z</time></trkpt><trkpt lat="43.444311563095674" lon="11.902391121692492"><ele>408.5</ele><time>2026-03-29T07:25:52.999Z</time></trkpt><trkpt lat="43.44424323195124" lon="11.902352419241465"><ele>407.6666666666667</ele><time>2026-03-29T07:25:53.999Z</time></trkpt><trkpt lat="43.44417653655058" lon="11.902311402838059"><ele>406.83333333333337</ele><time>2026-03-29T07:25:55Z</time></trkpt><trkpt lat="43.444106180867024" lon="11.902250261043005"><ele>406.0</ele><time>2026-03-29T07:25:56Z</time></trkpt><trkpt lat="43.44402748724664" lon="11.902171217651292"><ele>406.0</ele><time>2026-03-29T07:25:57Z</time></trkpt><trkpt lat="43.44395509371329" lon="11.902085648215696"><ele>406.0</ele><time>2026-03-29T07:25:58Z</time></trkpt><trkpt lat="43.44388178981209" lon="11.901999316612287"><ele>406.0</ele><time>2026-03-29T07:25:59Z</time></trkpt><trkpt lat="43.44381040293689" lon="11.901920639908095"><ele>406.0</ele><time>2026-03-29T07:26:00Z</time></trkpt><trkpt lat="43.44373627397805" lon="11.901845846512183"><ele>406.0</ele><time>2026-03-29T07:26:01Z</time></trkpt><trkpt lat="43.44366630393274" lon="11.90176750323078"><ele>403.0</ele><time>2026-03-29T07:26:02Z</time></trkpt><trkpt lat="43.443584880683076" lon="11.901679436686427"><ele>400.0</ele><time>2026-03-29T07:26:03Z</time></trkpt><trkpt lat="43.4435048756817" lon="11.901595924809039"><ele>397.0</ele><time>2026-03-29T07:26:04Z</time></trkpt><trkpt lat="43.4434258276604" lon="11.901507797505312"><ele>394.0</ele><time>2026-03-29T07:26:05Z</time></trkpt><trkpt lat="43.44336304499451" lon="11.901435826803745"><ele>391.0</ele><time>2026-03-29T07:26:06Z</time></trkpt><trkpt lat="43.44329996273787" lon="11.90136176664265"><ele>391.0</ele><time>2026-03-29T07:26:07Z</time></trkpt><trkpt lat="43.443224621120834" lon="11.901299075138137"><ele>391.0</ele><time>2026-03-29T07:26:08Z</time></trkpt><trkpt lat="43.443145364367446" lon="11.901241639989316"><ele>391.0</ele><time>2026-03-29T07:26:09Z</time></trkpt><trkpt lat="43.44305911247228" lon="11.901197677591446"><ele>391.0</ele><time>2026-03-29T07:26:10Z</time></trkpt><trkpt lat="43.442963576143185" lon="11.901182114593677"><ele>391.0</ele><time>2026-03-29T07:26:11Z</time></trkpt><trkpt lat="43.4428647857822" lon="11.90118621768967"><ele>391.1666666666667</ele><time>2026-03-29T07:26:12Z</time></trkpt><trkpt lat="43.442773387678514" lon="11.901177850254973"><ele>391.33333333333337</ele><time>2026-03-29T07:26:13Z</time></trkpt><trkpt lat="43.44268980156645" lon="11.90116161129009"><ele>391.5</ele><time>2026-03-29T07:26:14Z</time></trkpt><trkpt lat="43.442611528057746" lon="11.901135917300017"><ele>391.66666666666663</ele><time>2026-03-29T07:26:15Z</time></trkpt><trkpt lat="43.44252678305988" lon="11.901119923133594"><ele>391.8333333333333</ele><time>2026-03-29T07:26:16Z</time></trkpt><trkpt lat="43.442452996655305" lon="11.901123719552084"><ele>392.0</ele><time>2026-03-29T07:26:17Z</time></trkpt><trkpt lat="43.442378835016626" lon="11.901135931439498"><ele>391.99999999999994</ele><time>2026-03-29T07:26:18Z</time></trkpt><trkpt lat="43.44230792116186" lon="11.901154419550386"><ele>392.0</ele><time>2026-03-29T07:26:19Z</time></trkpt><trkpt lat="43.44223698238921" lon="11.901158649779362"><ele>392.0</ele><time>2026-03-29T07:26:20Z</time></trkpt><trkpt lat="43.44216112795721" lon="11.90114773729805"><ele>392.0</ele><time>2026-03-29T07:26:21Z</time></trkpt><trkpt lat="43.442082022165884" lon="11.90112311005378"><ele>391.99999999999994</ele><time>2026-03-29T07:26:22Z</time></trkpt><trkpt lat="43.44200016119066" lon="11.901052716885214"><ele>392.0</ele><time>2026-03-29T07:26:23Z</time></trkpt><trkpt lat="43.44193486627855" lon="11.900957275668008"><ele>387.49999999999994</ele><time>2026-03-29T07:26:24Z</time></trkpt><trkpt lat="43.441880734294365" lon="11.90085912073139"><ele>383.0</ele><time>2026-03-29T07:26:25Z</time></trkpt><trkpt lat="43.44182272248236" lon="11.900781804832844"><ele>378.5</ele><time>2026-03-29T07:26:26Z</time></trkpt><trkpt lat="43.44176034094159" lon="11.900726655124593"><ele>374.0</ele><time>2026-03-29T07:26:27Z</time></trkpt><trkpt lat="43.44168851038361" lon="11.900715226370094"><ele>369.5</ele><time>2026-03-29T07:26:28Z</time></trkpt><trkpt lat="43.4416205206306" lon="11.900729939009636"><ele>365.0</ele><time>2026-03-29T07:26:29Z</time></trkpt><trkpt lat="43.44156178984616" lon="11.900787379276926"><ele>365.0</ele><time>2026-03-29T07:26:30Z</time></trkpt><trkpt lat="43.441502126047745" lon="11.90087178166204"><ele>365.0</ele><time>2026-03-29T07:26:31Z</time></trkpt><trkpt lat="43.44146000697755" lon="11.900963411512931"><ele>365.0</ele><time>2026-03-29T07:26:32Z</time></trkpt><trkpt lat="43.44141391939203" lon="11.901036394521652"><ele>365.0</ele><time>2026-03-29T07:26:33Z</time></trkpt><trkpt lat="43.44135077195088" lon="11.901082379138634"><ele>365.0</ele><time>2026-03-29T07:26:34Z</time></trkpt><trkpt lat="43.44127379879561" lon="11.901091590037392"><ele>365.0</ele><time>2026-03-29T07:26:35Z</time></trkpt><trkpt lat="43.441201836204904" lon="11.90104718216366"><ele>364.1666666666667</ele><time>2026-03-29T07:26:36Z</time></trkpt><trkpt lat="43.441137213951684" lon="11.900968633927942"><ele>363.33333333333337</ele><time>2026-03-29T07:26:37Z</time></trkpt><trkpt lat="43.441101249700225" lon="11.900866228456529"><ele>362.5</ele><time>2026-03-29T07:26:38Z</time></trkpt><trkpt lat="43.441086392213606" lon="11.90073295037188"><ele>361.6666666666667</ele><time>2026-03-29T07:26:39Z</time></trkpt><trkpt lat="43.441126927676834" lon="11.90062663709112"><ele>360.8333333333333</ele><time>2026-03-29T07:26:40Z</time></trkpt><trkpt lat="43.44116708348063" lon="11.900517223264838"><ele>360.0</ele><time>2026-03-29T07:26:41Z</time></trkpt><trkpt lat="43.44119190145683" lon="11.900404420283492"><ele>360.0</ele><time>2026-03-29T07:26:42Z</time></trkpt><trkpt lat="43.4412117561766" lon="11.90029207483404"><ele>360.0</ele><time>2026-03-29T07:26:43Z</time></trkpt><trkpt lat="43.44122622946575" lon="11.900185622820558"><ele>360.0</ele><time>2026-03-29T07:26:44Z</time></trkpt><trkpt lat="43.44124225862315" lon="11.900085845780927"><ele>360.0</ele><time>2026-03-29T07:26:45Z</time></trkpt><trkpt lat="43.441253999300244" lon="11.89998054212306"><ele>360.0</ele><time>2026-03-29T07:26:46Z</time></trkpt><trkpt lat="43.4412782202416" lon="11.899863591098104"><ele>360.0</ele><time>2026-03-29T07:26:47Z</time></trkpt><trkpt lat="43.44132844857922" lon="11.899753342636208"><ele>356.8</ele><time>2026-03-29T07:26:48Z</time></trkpt><trkpt lat="43.441399695975235" lon="11.89968361708766"><ele>353.6</ele><time>2026-03-29T07:26:49Z</time></trkpt><trkpt lat="43.441477814655364" lon="11.899647950332444"><ele>350.4</ele><time>2026-03-29T07:26:50Z</time></trkpt><trkpt lat="43.44157377902001" lon="11.899657622711244"><ele>347.2</ele><time>2026-03-29T07:26:51Z</time></trkpt><trkpt lat="43.44167059836375" lon="11.899714657597437"><ele>344.0</ele><time>2026-03-29T07:26:52Z</time></trkpt><trkpt lat="43.441770654330846" lon="11.899793688490648"><ele>344.0</ele><time>2026-03-29T07:26:53Z</time></trkpt><trkpt lat="43.44184516248766" lon="11.899865754852739"><ele>344.0</ele><time>2026-03-29T07:26:53.999Z</time></trkpt><trkpt lat="43.441911244245276" lon="11.89992264778646"><ele>344.0</ele><time>2026-03-29T07:26:54.999Z</time></trkpt><trkpt lat="43.44197105878632" lon="11.899968952464707"><ele>344.0</ele><time>2026-03-29T07:26:55.999Z</time></trkpt><trkpt lat="43.44204299615458" lon="11.900001390212063"><ele>344.0</ele><time>2026-03-29T07:26:56.999Z</time></trkpt><trkpt lat="43.442115217933654" lon="11.900007759003271"><ele>344.0</ele><time>2026-03-29T07:26:57.999Z</time></trkpt><trkpt lat="43.44219089190861" lon="11.899966095126608"><ele>343.6666666666667</ele><time>2026-03-29T07:26:58.999Z</time></trkpt><trkpt lat="43.44224943924892" lon="11.899913141105689"><ele>343.33333333333337</ele><time>2026-03-29T07:26:59.999Z</time></trkpt><trkpt lat="43.44231023809307" lon="11.899839108055485"><ele>343.0</ele><time>2026-03-29T07:27:00.999Z</time></trkpt><trkpt lat="43.44235590206158" lon="11.899749567705047"><ele>342.6666666666667</ele><time>2026-03-29T07:27:01.999Z</time></trkpt><trkpt lat="43.442376916399766" lon="11.89964693784694"><ele>342.3333333333333</ele><time>2026-03-29T07:27:02.999Z</time></trkpt><trkpt lat="43.442367904017786" lon="11.899540630012352"><ele>342.0</ele><time>2026-03-29T07:27:03.999Z</time></trkpt><trkpt lat="43.442343059069835" lon="11.899425525696238"><ele>342.0</ele><time>2026-03-29T07:27:04.999Z</time></trkpt><trkpt lat="43.442298556933245" lon="11.899313613369948"><ele>342.0</ele><time>2026-03-29T07:27:05.999Z</time></trkpt><trkpt lat="43.442255996473165" lon="11.899210492992626"><ele>342.0</ele><time>2026-03-29T07:27:06.999Z</time></trkpt><trkpt lat="43.442217440997716" lon="11.899106806374864"><ele>342.0</ele><time>2026-03-29T07:27:07.999Z</time></trkpt><trkpt lat="43.44217940580445" lon="11.89899891481946"><ele>342.0</ele><time>2026-03-29T07:27:08.999Z</time></trkpt><trkpt lat="43.442145923018074" lon="11.898896677281128"><ele>342.0</ele><time>2026-03-29T07:27:09.999Z</time></trkpt><trkpt lat="43.44210854002083" lon="11.898794853962599"><ele>339.1666666666667</ele><time>2026-03-29T07:27:10.999Z</time></trkpt><trkpt lat="43.442074341947" lon="11.898698725813635"><ele>336.3333333333333</ele><time>2026-03-29T07:27:11.999Z</time></trkpt><trkpt lat="43.44203824917734" lon="11.89860576475314"><ele>333.5</ele><time>2026-03-29T07:27:12.999Z</time></trkpt><trkpt lat="43.44199937845761" lon="11.898513569022285"><ele>330.66666666666663</ele><time>2026-03-29T07:27:13.999Z</time></trkpt><trkpt lat="43.44194366477477" lon="11.898386423205713"><ele>327.8333333333333</ele><time>2026-03-29T07:27:15.999Z</time></trkpt><trkpt lat="43.44187469231714" lon="11.89830895854935"><ele>325.0</ele><time>2026-03-29T07:27:18.999Z</time></trkpt><trkpt lat="43.441768430815856" lon="11.898366261899442"><ele>325.0</ele><time>2026-03-29T07:27:20.999Z</time></trkpt><trkpt lat="43.441717783001415" lon="11.89844374144391"><ele>325.0</ele><time>2026-03-29T07:27:21.999Z</time></trkpt><trkpt lat="43.44165923596183" lon="11.898509395555061"><ele>325.0</ele><time>2026-03-29T07:27:22.999Z</time></trkpt><trkpt lat="43.44159235164481" lon="11.89857173718373"><ele>325.0</ele><time>2026-03-29T07:27:23.999Z</time></trkpt><trkpt lat="43.441528547114096" lon="11.89861399050444"><ele>325.0</ele><time>2026-03-29T07:27:24.999Z</time></trkpt><trkpt lat="43.441415148134624" lon="11.898581388806084"><ele>325.0</ele><time>2026-03-29T07:27:26.999Z</time></trkpt><trkpt lat="43.44134005169287" lon="11.898531810936399"><ele>325.0</ele><time>2026-03-29T07:27:27.999Z</time></trkpt><trkpt lat="43.44126264405079" lon="11.898483984910856"><ele>325.0</ele><time>2026-03-29T07:27:28.999Z</time></trkpt><trkpt lat="43.44116015393548" lon="11.898441689135318"><ele>325.0</ele><time>2026-03-29T07:27:29.999Z</time></trkpt><trkpt lat="43.44106002584314" lon="11.898411275563193"><ele>325.0</ele><time>2026-03-29T07:27:30.999Z</time></trkpt><trkpt lat="43.44096952944579" lon="11.898384721199047"><ele>325.0</ele><time>2026-03-29T07:27:31.999Z</time></trkpt><trkpt lat="43.44090347117293" lon="11.898370217503658"><ele>322.16666666666663</ele><time>2026-03-29T07:27:32.999Z</time></trkpt><trkpt lat="43.44083203925045" lon="11.89833422657878"><ele>319.3333333333333</ele><time>2026-03-29T07:27:33.999Z</time></trkpt><trkpt lat="43.44076785873914" lon="11.89828051398397"><ele>316.5</ele><time>2026-03-29T07:27:34.999Z</time></trkpt><trkpt lat="43.440731450801344" lon="11.89820362705487"><ele>313.6666666666667</ele><time>2026-03-29T07:27:35.999Z</time></trkpt><trkpt lat="43.44072253090136" lon="11.898023844335661"><ele>310.83333333333337</ele><time>2026-03-29T07:27:37.999Z</time></trkpt><trkpt lat="43.44071687111435" lon="11.897910371971824"><ele>308.0</ele><time>2026-03-29T07:27:38.999Z</time></trkpt><trkpt lat="43.44073389098062" lon="11.897786138020663"><ele>308.0</ele><time>2026-03-29T07:27:39.999Z</time></trkpt><trkpt lat="43.4407448035697" lon="11.897651554817921"><ele>308.0</ele><time>2026-03-29T07:27:40.999Z</time></trkpt><trkpt lat="43.44074069027781" lon="11.897541752656181"><ele>308.0</ele><time>2026-03-29T07:27:41.999Z</time></trkpt><trkpt lat="43.44073372736763" lon="11.897431204288562"><ele>308.0</ele><time>2026-03-29T07:27:42.999Z</time></trkpt><trkpt lat="43.440722417644885" lon="11.897327929219854"><ele>308.0</ele><time>2026-03-29T07:27:43.999Z</time></trkpt><trkpt lat="43.440709693675934" lon="11.897229839925457"><ele>308.0</ele><time>2026-03-29T07:27:44.999Z</time></trkpt><trkpt lat="43.440710650437104" lon="11.897129388878252"><ele>306.1666666666667</ele><time>2026-03-29T07:27:45.999Z</time></trkpt><trkpt lat="43.44070548766225" lon="11.897035832312948"><ele>304.33333333333337</ele><time>2026-03-29T07:27:46.999Z</time></trkpt><trkpt lat="43.44070037990144" lon="11.896926938924697"><ele>302.5</ele><time>2026-03-29T07:27:47.999Z</time></trkpt><trkpt lat="43.440699439516216" lon="11.896819254532517"><ele>300.6666666666667</ele><time>2026-03-29T07:27:48.999Z</time></trkpt><trkpt lat="43.44069165007306" lon="11.896705885067583"><ele>298.8333333333333</ele><time>2026-03-29T07:27:49.999Z</time></trkpt><trkpt lat="43.4406765058187" lon="11.89659926797448"><ele>297.0</ele><time>2026-03-29T07:27:50.999Z</time></trkpt><trkpt lat="43.44064742746628" lon="11.896497450419778"><ele>296.1666666666667</ele><time>2026-03-29T07:27:51.999Z</time></trkpt><trkpt lat="43.44061913047316" lon="11.89639053879686"><ele>295.3333333333333</ele><time>2026-03-29T07:27:52.999Z</time></trkpt><trkpt lat="43.440585169415186" lon="11.896277420568369"><ele>294.5</ele><time>2026-03-29T07:27:53.999Z</time></trkpt><trkpt lat="43.44054246733137" lon="11.896169276713549"><ele>293.66666666666663</ele><time>2026-03-29T07:27:54.999Z</time></trkpt><trkpt lat="43.44050618833748" lon="11.896052099318158"><ele>292.8333333333333</ele><time>2026-03-29T07:27:55.999Z</time></trkpt><trkpt lat="43.44047453762706" lon="11.895933385972429"><ele>292.0</ele><time>2026-03-29T07:27:56.999Z</time></trkpt><trkpt lat="43.44043344349569" lon="11.895815004491192"><ele>290.6</ele><time>2026-03-29T07:27:57.999Z</time></trkpt><trkpt lat="43.440392001179454" lon="11.89569342712606"><ele>289.2</ele><time>2026-03-29T07:27:58.999Z</time></trkpt><trkpt lat="43.44035253850805" lon="11.895570590006018"><ele>287.8</ele><time>2026-03-29T07:27:59.999Z</time></trkpt><trkpt lat="43.440308842434156" lon="11.89544937243003"><ele>286.4</ele><time>2026-03-29T07:28:01Z</time></trkpt><trkpt lat="43.4402659339746" lon="11.895329152672485"><ele>285.0</ele><time>2026-03-29T07:28:02Z</time></trkpt><trkpt lat="43.440227679070155" lon="11.89520514819023"><ele>284.2</ele><time>2026-03-29T07:28:03Z</time></trkpt><trkpt lat="43.44019184274904" lon="11.89508306461825"><ele>283.4</ele><time>2026-03-29T07:28:04Z</time></trkpt><trkpt lat="43.440153116870945" lon="11.894961035692393"><ele>282.6</ele><time>2026-03-29T07:28:05Z</time></trkpt><trkpt lat="43.44011434687109" lon="11.894838427604583"><ele>281.8</ele><time>2026-03-29T07:28:06Z</time></trkpt><trkpt lat="43.440075786319994" lon="11.894717657215129"><ele>281.0</ele><time>2026-03-29T07:28:07Z</time></trkpt><trkpt lat="43.440033631183915" lon="11.89458334808958"><ele>281.0</ele><time>2026-03-29T07:28:08Z</time></trkpt><trkpt lat="43.43998620976953" lon="11.89444101157147"><ele>281.0</ele><time>2026-03-29T07:28:09Z</time></trkpt><trkpt lat="43.43994451030955" lon="11.894305365677159"><ele>281.0</ele><time>2026-03-29T07:28:10Z</time></trkpt><trkpt lat="43.43991937872095" lon="11.894174333813384"><ele>281.0</ele><time>2026-03-29T07:28:11Z</time></trkpt><trkpt lat="43.439873821448586" lon="11.894049476977294"><ele>281.0</ele><time>2026-03-29T07:28:12Z</time></trkpt><trkpt lat="43.43983679004548" lon="11.89394713512657"><ele>280.6666666666667</ele><time>2026-03-29T07:28:13Z</time></trkpt><trkpt lat="43.43979622338316" lon="11.89384485996067"><ele>280.33333333333337</ele><time>2026-03-29T07:28:14Z</time></trkpt><trkpt lat="43.439761490956975" lon="11.893745343089202"><ele>280.0</ele><time>2026-03-29T07:28:15Z</time></trkpt><trkpt lat="43.43973528812339" lon="11.893660576920572"><ele>279.6666666666667</ele><time>2026-03-29T07:28:16Z</time></trkpt><trkpt lat="43.43970557494673" lon="11.89355298194511"><ele>279.3333333333333</ele><time>2026-03-29T07:28:18Z</time></trkpt><trkpt lat="43.439660871128524" lon="11.893490289059795"><ele>279.0</ele><time>2026-03-29T07:29:04.999Z</time></trkpt><trkpt lat="43.43958397275274" lon="11.893479685220456"><ele>278.6666666666667</ele><time>2026-03-29T07:29:06.999Z</time></trkpt><trkpt lat="43.439509764205475" lon="11.893493466408204"><ele>278.3333333333333</ele><time>2026-03-29T07:29:07.999Z</time></trkpt><trkpt lat="43.43942595499904" lon="11.893506859817904"><ele>278.0</ele><time>2026-03-29T07:29:08.999Z</time></trkpt><trkpt lat="43.439340696394474" lon="11.893528148007977"><ele>277.66666666666663</ele><time>2026-03-29T07:29:09.999Z</time></trkpt><trkpt lat="43.439239760242145" lon="11.89354580788963"><ele>277.3333333333333</ele><time>2026-03-29T07:29:10.999Z</time></trkpt><trkpt lat="43.43913875884935" lon="11.893558252396149"><ele>277.0</ele><time>2026-03-29T07:29:11.999Z</time></trkpt><trkpt lat="43.439041430748105" lon="11.893563241348373"><ele>277.0</ele><time>2026-03-29T07:29:12.999Z</time></trkpt><trkpt lat="43.43893502252649" lon="11.893563353509434"><ele>277.0</ele><time>2026-03-29T07:29:13.999Z</time></trkpt><trkpt lat="43.43883146356727" lon="11.893562242567993"><ele>277.0</ele><time>2026-03-29T07:29:14.999Z</time></trkpt><trkpt lat="43.43872831185632" lon="11.893563361589399"><ele>277.0</ele><time>2026-03-29T07:29:15.999Z</time></trkpt><trkpt lat="43.438617966638944" lon="11.893575836136547"><ele>277.0</ele><time>2026-03-29T07:29:16.999Z</time></trkpt><trkpt lat="43.438501259282596" lon="11.89359396269919"><ele>276.8</ele><time>2026-03-29T07:29:17.999Z</time></trkpt><trkpt lat="43.43838399105652" lon="11.893606660205592"><ele>276.6</ele><time>2026-03-29T07:29:18.999Z</time></trkpt><trkpt lat="43.43827124794546" lon="11.893618690524214"><ele>276.40000000000003</ele><time>2026-03-29T07:29:19.999Z</time></trkpt><trkpt lat="43.43817175989191" lon="11.893630623793712"><ele>276.2</ele><time>2026-03-29T07:29:20.999Z</time></trkpt><trkpt lat="43.438071484315095" lon="11.893635608700643"><ele>276.0</ele><time>2026-03-29T07:29:21.999Z</time></trkpt><trkpt lat="43.43797568811996" lon="11.893630491620538"><ele>276.8</ele><time>2026-03-29T07:29:22.999Z</time></trkpt><trkpt lat="43.43787849063172" lon="11.893614150838415"><ele>277.6</ele><time>2026-03-29T07:29:23.999Z</time></trkpt><trkpt lat="43.43777534819899" lon="11.893574254870085"><ele>278.4</ele><time>2026-03-29T07:29:24.999Z</time></trkpt><trkpt lat="43.43767398162938" lon="11.893531152534786"><ele>279.2</ele><time>2026-03-29T07:29:25.999Z</time></trkpt><trkpt lat="43.43757492669846" lon="11.893479806354692"><ele>280.0</ele><time>2026-03-29T07:29:26.999Z</time></trkpt><trkpt lat="43.43748535923555" lon="11.893428230974063"><ele>279.0</ele><time>2026-03-29T07:29:27.999Z</time></trkpt><trkpt lat="43.43738791092909" lon="11.893382922616869"><ele>278.0</ele><time>2026-03-29T07:29:28.999Z</time></trkpt><trkpt lat="43.437286438250545" lon="11.893338145785973"><ele>277.0</ele><time>2026-03-29T07:29:29.999Z</time></trkpt><trkpt lat="43.43718421265889" lon="11.893299217389748"><ele>276.0</ele><time>2026-03-29T07:29:30.999Z</time></trkpt><trkpt lat="43.43708094972987" lon="11.893270731011734"><ele>275.0</ele><time>2026-03-29T07:29:31.999Z</time></trkpt><trkpt lat="43.43696448233594" lon="11.893246960923202"><ele>275.0</ele><time>2026-03-29T07:29:32.999Z</time></trkpt><trkpt lat="43.436842163534735" lon="11.8932419820683"><ele>275.0</ele><time>2026-03-29T07:29:33.999Z</time></trkpt><trkpt lat="43.43671450498357" lon="11.893235428566836"><ele>275.0</ele><time>2026-03-29T07:29:34.999Z</time></trkpt><trkpt lat="43.43658497907178" lon="11.893215229735098"><ele>275.0</ele><time>2026-03-29T07:29:35.999Z</time></trkpt><trkpt lat="43.43646040533613" lon="11.89318660011661"><ele>275.0</ele><time>2026-03-29T07:29:36.999Z</time></trkpt><trkpt lat="43.43633587682115" lon="11.89315223624456"><ele>275.0</ele><time>2026-03-29T07:29:37.999Z</time></trkpt><trkpt lat="43.43622777818375" lon="11.893109133227188"><ele>275.0</ele><time>2026-03-29T07:29:38.999Z</time></trkpt><trkpt lat="43.43611828242784" lon="11.893064432733851"><ele>275.0</ele><time>2026-03-29T07:29:39.999Z</time></trkpt><trkpt lat="43.436006839500465" lon="11.89302229902353"><ele>274.75</ele><time>2026-03-29T07:29:40.999Z</time></trkpt><trkpt lat="43.435895014692676" lon="11.892976191106753"><ele>274.5</ele><time>2026-03-29T07:29:41.999Z</time></trkpt><trkpt lat="43.43577977079957" lon="11.89292653987198"><ele>274.25</ele><time>2026-03-29T07:29:42.999Z</time></trkpt><trkpt lat="43.43565776199833" lon="11.892878328435309"><ele>274.0</ele><time>2026-03-29T07:29:43.999Z</time></trkpt><trkpt lat="43.43553044933304" lon="11.892834783101144"><ele>274.25</ele><time>2026-03-29T07:29:44.999Z</time></trkpt><trkpt lat="43.43540656150649" lon="11.892786258186685"><ele>274.5</ele><time>2026-03-29T07:29:45.999Z</time></trkpt><trkpt lat="43.435284969475624" lon="11.89273982248668"><ele>274.75</ele><time>2026-03-29T07:29:46.999Z</time></trkpt><trkpt lat="43.43516397634191" lon="11.892707907613246"><ele>275.0</ele><time>2026-03-29T07:29:47.999Z</time></trkpt><trkpt lat="43.43507045355397" lon="11.892679992130905"><ele>275.0</ele><time>2026-03-29T07:29:48.999Z</time></trkpt><trkpt lat="43.43496816996817" lon="11.892640985652356"><ele>275.0</ele><time>2026-03-29T07:29:49.999Z</time></trkpt><trkpt lat="43.43487519122315" lon="11.892605480455366"><ele>275.0</ele><time>2026-03-29T07:29:50.999Z</time></trkpt><trkpt lat="43.434801378662705" lon="11.892583557188633"><ele>275.0</ele><time>2026-03-29T07:29:51.999Z</time></trkpt><trkpt lat="43.43473784530188" lon="11.892559579208516"><ele>275.0</ele><time>2026-03-29T07:29:52.999Z</time></trkpt><trkpt lat="43.43466164275668" lon="11.892486595436326"><ele>275.0</ele><time>2026-03-29T07:29:54.999Z</time></trkpt><trkpt lat="43.43470567092038" lon="11.892398723782916"><ele>274.83333333333337</ele><time>2026-03-29T07:29:57.999Z</time></trkpt><trkpt lat="43.43477732333426" lon="11.892295927747726"><ele>274.6666666666667</ele><time>2026-03-29T07:29:59.999Z</time></trkpt><trkpt lat="43.43474267538871" lon="11.892219455682199"><ele>274.5</ele><time>2026-03-29T07:30:00.999Z</time></trkpt><trkpt lat="43.4346881401051" lon="11.892153698551503"><ele>274.3333333333333</ele><time>2026-03-29T07:30:01.999Z</time></trkpt><trkpt lat="43.43460380319176" lon="11.8920930516122"><ele>274.16666666666663</ele><time>2026-03-29T07:30:02.999Z</time></trkpt><trkpt lat="43.43451066919243" lon="11.892016006456663"><ele>274.0</ele><time>2026-03-29T07:30:03.999Z</time></trkpt><trkpt lat="43.434405497430966" lon="11.891943740242827"><ele>274.5</ele><time>2026-03-29T07:30:04.998Z</time></trkpt><trkpt lat="43.434304128306835" lon="11.89185935807674"><ele>275.0</ele><time>2026-03-29T07:30:05.998Z</time></trkpt><trkpt lat="43.43419563924466" lon="11.891774582597074"><ele>275.5</ele><time>2026-03-29T07:30:07Z</time></trkpt><trkpt lat="43.43408895505585" lon="11.891683412964015"><ele>276.0</ele><time>2026-03-29T07:30:08Z</time></trkpt><trkpt lat="43.43398267793753" lon="11.891582089670196"><ele>276.0</ele><time>2026-03-29T07:30:09Z</time></trkpt><trkpt lat="43.43387091414224" lon="11.891480138225301"><ele>276.0</ele><time>2026-03-29T07:30:10Z</time></trkpt><trkpt lat="43.433761883263514" lon="11.891393809306843"><ele>276.0</ele><time>2026-03-29T07:30:11Z</time></trkpt><trkpt lat="43.43366034028798" lon="11.891277563306657"><ele>276.0</ele><time>2026-03-29T07:30:12Z</time></trkpt><trkpt lat="43.433554705525964" lon="11.891170122626958"><ele>276.25</ele><time>2026-03-29T07:30:13Z</time></trkpt><trkpt lat="43.43345291346258" lon="11.891058317272492"><ele>276.5</ele><time>2026-03-29T07:30:14Z</time></trkpt><trkpt lat="43.43334891641886" lon="11.890933826056827"><ele>276.75</ele><time>2026-03-29T07:30:15Z</time></trkpt><trkpt lat="43.433240105383554" lon="11.890813681649782"><ele>277.0</ele><time>2026-03-29T07:30:16Z</time></trkpt><trkpt lat="43.43312487962679" lon="11.890694056678166"><ele>277.5</ele><time>2026-03-29T07:30:17Z</time></trkpt><trkpt lat="43.43302596254848" lon="11.89058827438925"><ele>278.0</ele><time>2026-03-29T07:30:18Z</time></trkpt><trkpt lat="43.43293730846576" lon="11.890491867907498"><ele>278.5</ele><time>2026-03-29T07:30:19Z</time></trkpt><trkpt lat="43.432843486839715" lon="11.89039896467113"><ele>279.0</ele><time>2026-03-29T07:30:20Z</time></trkpt><trkpt lat="43.43274523635902" lon="11.890315562766306"><ele>279.2</ele><time>2026-03-29T07:30:21Z</time></trkpt><trkpt lat="43.43265052068377" lon="11.890243526612412"><ele>279.4</ele><time>2026-03-29T07:30:22Z</time></trkpt><trkpt lat="43.43256420364444" lon="11.890186170473328"><ele>279.6</ele><time>2026-03-29T07:30:23Z</time></trkpt><trkpt lat="43.43248298296419" lon="11.8901314781553"><ele>279.8</ele><time>2026-03-29T07:30:24Z</time></trkpt><trkpt lat="43.43240933356711" lon="11.890071476976741"><ele>280.0</ele><time>2026-03-29T07:30:25Z</time></trkpt><trkpt lat="43.4323359836235" lon="11.890006161809763"><ele>280.0</ele><time>2026-03-29T07:30:26Z</time></trkpt><trkpt lat="43.43226463685002" lon="11.889935649199568"><ele>280.0</ele><time>2026-03-29T07:30:27Z</time></trkpt><trkpt lat="43.43218510103871" lon="11.889853985039633"><ele>280.0</ele><time>2026-03-29T07:30:28Z</time></trkpt><trkpt lat="43.43210906312098" lon="11.88978609118924"><ele>280.0</ele><time>2026-03-29T07:30:29Z</time></trkpt><trkpt lat="43.43203886785915" lon="11.889728057976944"><ele>280.0</ele><time>2026-03-29T07:30:30Z</time></trkpt><trkpt lat="43.43197932875611" lon="11.889680212864388"><ele>280.0</ele><time>2026-03-29T07:30:31Z</time></trkpt><trkpt lat="43.43189435540672" lon="11.889576411948827"><ele>279.8</ele><time>2026-03-29T07:30:33Z</time></trkpt><trkpt lat="43.4318963784196" lon="11.889459392806138"><ele>279.6</ele><time>2026-03-29T07:30:34Z</time></trkpt><trkpt lat="43.431928659860304" lon="11.88931411221954"><ele>279.4</ele><time>2026-03-29T07:30:35Z</time></trkpt><trkpt lat="43.431958414333415" lon="11.889166576541271"><ele>279.2</ele><time>2026-03-29T07:30:36Z</time></trkpt><trkpt lat="43.43198245318893" lon="11.888997146305323"><ele>279.0</ele><time>2026-03-29T07:30:37Z</time></trkpt><trkpt lat="43.432018953036035" lon="11.888829978290685"><ele>279.0</ele><time>2026-03-29T07:30:38Z</time></trkpt><trkpt lat="43.4320621673603" lon="11.88866910207985"><ele>279.0</ele><time>2026-03-29T07:30:39Z</time></trkpt><trkpt lat="43.432103480635405" lon="11.888492448158212"><ele>279.0</ele><time>2026-03-29T07:30:40Z</time></trkpt><trkpt lat="43.432147316458284" lon="11.88831465673327"><ele>279.0</ele><time>2026-03-29T07:30:41Z</time></trkpt><trkpt lat="43.432185203817774" lon="11.888128282280732"><ele>278.0</ele><time>2026-03-29T07:30:42Z</time></trkpt><trkpt lat="43.4322243876408" lon="11.887944064523774"><ele>277.0</ele><time>2026-03-29T07:30:43Z</time></trkpt><trkpt lat="43.432261323450774" lon="11.887753520505962"><ele>276.0</ele><time>2026-03-29T07:30:44Z</time></trkpt><trkpt lat="43.43228592455848" lon="11.887585590919327"><ele>275.0</ele><time>2026-03-29T07:30:45Z</time></trkpt><trkpt lat="43.432299515063406" lon="11.887420633015294"><ele>275.0</ele><time>2026-03-29T07:30:46Z</time></trkpt><trkpt lat="43.43230835666503" lon="11.887259441504682"><ele>275.0</ele><time>2026-03-29T07:30:47Z</time></trkpt><trkpt lat="43.432314003040595" lon="11.887095025525824"><ele>275.0</ele><time>2026-03-29T07:30:48Z</time></trkpt><trkpt lat="43.4323193382842" lon="11.886926209614565"><ele>275.0</ele><time>2026-03-29T07:30:49Z</time></trkpt><trkpt lat="43.43232690388625" lon="11.886755328167128"><ele>275.0</ele><time>2026-03-29T07:30:50Z</time></trkpt><trkpt lat="43.4323431358084" lon="11.886597480785946"><ele>275.0</ele><time>2026-03-29T07:30:51Z</time></trkpt><trkpt lat="43.43239697518477" lon="11.886459579350552"><ele>275.0</ele><time>2026-03-29T07:30:52Z</time></trkpt><trkpt lat="43.4324627211351" lon="11.88632409508156"><ele>275.0</ele><time>2026-03-29T07:30:53Z</time></trkpt><trkpt lat="43.43253398528571" lon="11.886191717686746"><ele>275.0</ele><time>2026-03-29T07:30:54Z</time></trkpt><trkpt lat="43.432612714648855" lon="11.886060906487554"><ele>275.0</ele><time>2026-03-29T07:30:55Z</time></trkpt><trkpt lat="43.43269309867822" lon="11.88592610038158"><ele>275.0</ele><time>2026-03-29T07:30:56Z</time></trkpt><trkpt lat="43.43276976170246" lon="11.885785018640231"><ele>275.0</ele><time>2026-03-29T07:30:57Z</time></trkpt><trkpt lat="43.4328345186413" lon="11.885645519734323"><ele>275.25</ele><time>2026-03-29T07:30:58Z</time></trkpt><trkpt lat="43.43290938843037" lon="11.885485282335674"><ele>275.5</ele><time>2026-03-29T07:30:59Z</time></trkpt><trkpt lat="43.432992106738176" lon="11.885330243776071"><ele>275.75</ele><time>2026-03-29T07:30:59.999Z</time></trkpt><trkpt lat="43.43306989058487" lon="11.88515394325038"><ele>276.0</ele><time>2026-03-29T07:31:00.999Z</time></trkpt><trkpt lat="43.43312503949543" lon="11.884957517932735"><ele>275.3333333333333</ele><time>2026-03-29T07:31:01.999Z</time></trkpt><trkpt lat="43.43315046545594" lon="11.884739594241996"><ele>274.66666666666663</ele><time>2026-03-29T07:31:02.999Z</time></trkpt><trkpt lat="43.433180101356584" lon="11.88452066538589"><ele>274.0</ele><time>2026-03-29T07:31:03.999Z</time></trkpt><trkpt lat="43.433231773371354" lon="11.884359999457995"><ele>273.75</ele><time>2026-03-29T07:31:04.999Z</time></trkpt><trkpt lat="43.43329123251527" lon="11.88422263595842"><ele>273.5</ele><time>2026-03-29T07:31:05.999Z</time></trkpt><trkpt lat="43.433338588986345" lon="11.884086409034735"><ele>273.25</ele><time>2026-03-29T07:31:06.999Z</time></trkpt><trkpt lat="43.433382608523495" lon="11.88392570930658"><ele>273.0</ele><time>2026-03-29T07:31:07.999Z</time></trkpt><trkpt lat="43.433428259165034" lon="11.88377100869716"><ele>273.0</ele><time>2026-03-29T07:31:08.999Z</time></trkpt><trkpt lat="43.4334666727759" lon="11.883639119844451"><ele>273.0</ele><time>2026-03-29T07:31:09.999Z</time></trkpt><trkpt lat="43.43350010750526" lon="11.88352656243384"><ele>273.0</ele><time>2026-03-29T07:31:10.999Z</time></trkpt><trkpt lat="43.43353230057801" lon="11.883416077944752"><ele>273.0</ele><time>2026-03-29T07:31:11.999Z</time></trkpt><trkpt lat="43.43356204594259" lon="11.883322737626397"><ele>273.0</ele><time>2026-03-29T07:31:12.999Z</time></trkpt><trkpt lat="43.43359626447663" lon="11.883235638419135"><ele>273.0</ele><time>2026-03-29T07:31:13.999Z</time></trkpt><trkpt lat="43.433636497734085" lon="11.883148789999266"><ele>272.85714285714283</ele><time>2026-03-29T07:31:14.999Z</time></trkpt><trkpt lat="43.433678290361456" lon="11.883053623891385"><ele>272.7142857142857</ele><time>2026-03-29T07:31:15.999Z</time></trkpt><trkpt lat="43.433716536763086" lon="11.882965527624954"><ele>272.57142857142856</ele><time>2026-03-29T07:31:16.999Z</time></trkpt><trkpt lat="43.43374817222918" lon="11.88287263971026"><ele>272.42857142857144</ele><time>2026-03-29T07:31:17.999Z</time></trkpt><trkpt lat="43.43378101928249" lon="11.882779801222496"><ele>272.2857142857143</ele><time>2026-03-29T07:31:18.999Z</time></trkpt><trkpt lat="43.43381795390735" lon="11.882699199407057"><ele>272.1428571428571</ele><time>2026-03-29T07:31:19.999Z</time></trkpt><trkpt lat="43.43385091241569" lon="11.882624146133733"><ele>272.0</ele><time>2026-03-29T07:31:20.999Z</time></trkpt><trkpt lat="43.43388285130914" lon="11.88254707851645"><ele>271.4</ele><time>2026-03-29T07:31:21.999Z</time></trkpt><trkpt lat="43.43390728475328" lon="11.882444310922406"><ele>270.79999999999995</ele><time>2026-03-29T07:31:22.999Z</time></trkpt><trkpt lat="43.4339266057293" lon="11.88231807289446"><ele>270.2</ele><time>2026-03-29T07:31:23.999Z</time></trkpt><trkpt lat="43.43393026731314" lon="11.882184327817836"><ele>269.59999999999997</ele><time>2026-03-29T07:31:24.999Z</time></trkpt><trkpt lat="43.433936749708224" lon="11.88203941862966"><ele>269.0</ele><time>2026-03-29T07:31:25.999Z</time></trkpt><trkpt lat="43.43394375690063" lon="11.88190257988997"><ele>269.0</ele><time>2026-03-29T07:31:26.999Z</time></trkpt><trkpt lat="43.43395526112565" lon="11.88178302398663"><ele>269.0</ele><time>2026-03-29T07:31:27.999Z</time></trkpt><trkpt lat="43.433974276984756" lon="11.881661108567387"><ele>269.0</ele><time>2026-03-29T07:31:28.999Z</time></trkpt><trkpt lat="43.43399699850427" lon="11.881551231048066"><ele>269.0</ele><time>2026-03-29T07:31:29.999Z</time></trkpt><trkpt lat="43.434018805815434" lon="11.881442421203015"><ele>269.0</ele><time>2026-03-29T07:31:30.999Z</time></trkpt><trkpt lat="43.43404396515864" lon="11.881322542314205"><ele>269.0</ele><time>2026-03-29T07:31:31.999Z</time></trkpt><trkpt lat="43.434074865044906" lon="11.881204898824723"><ele>269.0</ele><time>2026-03-29T07:31:32.999Z</time></trkpt><trkpt lat="43.43410320756377" lon="11.881120015044678"><ele>269.0</ele><time>2026-03-29T07:31:33.999Z</time></trkpt><trkpt lat="43.434143639344406" lon="11.88097589589539"><ele>269.0</ele><time>2026-03-29T07:31:35.999Z</time></trkpt><trkpt lat="43.434169771372275" lon="11.880861096538622"><ele>269.0</ele><time>2026-03-29T07:31:37.999Z</time></trkpt><trkpt lat="43.434209845197955" lon="11.88075166333604"><ele>269.0</ele><time>2026-03-29T07:31:39.999Z</time></trkpt><trkpt lat="43.43425959769046" lon="11.880634391508167"><ele>269.0</ele><time>2026-03-29T07:31:41.999Z</time></trkpt><trkpt lat="43.43434544761285" lon="11.880512681295457"><ele>269.0</ele><time>2026-03-29T07:31:43.999Z</time></trkpt><trkpt lat="43.43439618498101" lon="11.88043301643296"><ele>269.0</ele><time>2026-03-29T07:31:44.999Z</time></trkpt><trkpt lat="43.434440482762625" lon="11.880365472079587"><ele>269.0</ele><time>2026-03-29T07:31:45.999Z</time></trkpt><trkpt lat="43.43449784379197" lon="11.880253652626944"><ele>269.0</ele><time>2026-03-29T07:31:47.999Z</time></trkpt><trkpt lat="43.43451073529257" lon="11.880161477666661"><ele>269.0</ele><time>2026-03-29T07:31:49.999Z</time></trkpt><trkpt lat="43.4345254064022" lon="11.880046047032321"><ele>269.6666666666667</ele><time>2026-03-29T07:31:51.999Z</time></trkpt><trkpt lat="43.434539375215" lon="11.87992266088077"><ele>270.33333333333337</ele><time>2026-03-29T07:31:53.999Z</time></trkpt><trkpt lat="43.434548794709514" lon="11.879792009537017"><ele>271.0</ele><time>2026-03-29T07:31:55.999Z</time></trkpt><trkpt lat="43.43455506268557" lon="11.879639038302033"><ele>271.6666666666667</ele><time>2026-03-29T07:31:57.999Z</time></trkpt><trkpt lat="43.434551980851026" lon="11.87954349830186"><ele>272.3333333333333</ele><time>2026-03-29T07:31:58.999Z</time></trkpt><trkpt lat="43.434548718735876" lon="11.879446168697502"><ele>273.0</ele><time>2026-03-29T07:31:59.999Z</time></trkpt><trkpt lat="43.43454011730208" lon="11.879330469948961"><ele>274.8</ele><time>2026-03-29T07:32:00.999Z</time></trkpt><trkpt lat="43.43452225305749" lon="11.879199776716453"><ele>276.6</ele><time>2026-03-29T07:32:01.999Z</time></trkpt><trkpt lat="43.434497156454086" lon="11.87906643765332"><ele>278.4</ele><time>2026-03-29T07:32:02.999Z</time></trkpt><trkpt lat="43.434472045414424" lon="11.878948409859328"><ele>280.2</ele><time>2026-03-29T07:32:03.999Z</time></trkpt><trkpt lat="43.43445872388343" lon="11.87882470512208"><ele>282.0</ele><time>2026-03-29T07:32:04.999Z</time></trkpt><trkpt lat="43.434446291921475" lon="11.87869652614065"><ele>282.0</ele><time>2026-03-29T07:32:05.999Z</time></trkpt><trkpt lat="43.43445026682549" lon="11.87857339719805"><ele>282.0</ele><time>2026-03-29T07:32:06.999Z</time></trkpt><trkpt lat="43.43447774675905" lon="11.878468844605583"><ele>282.0</ele><time>2026-03-29T07:32:07.998Z</time></trkpt><trkpt lat="43.43450393989063" lon="11.87835650840108"><ele>282.0</ele><time>2026-03-29T07:32:08.998Z</time></trkpt><trkpt lat="43.434516704593854" lon="11.878233163521966"><ele>282.0</ele><time>2026-03-29T07:32:09.998Z</time></trkpt><trkpt lat="43.43449087994952" lon="11.878093982834173"><ele>282.8</ele><time>2026-03-29T07:32:10.998Z</time></trkpt><trkpt lat="43.434463050684535" lon="11.877964756524392"><ele>283.6</ele><time>2026-03-29T07:32:11.998Z</time></trkpt><trkpt lat="43.43444240929862" lon="11.877824322236462"><ele>284.40000000000003</ele><time>2026-03-29T07:32:13Z</time></trkpt><trkpt lat="43.434433582776414" lon="11.877694126078467"><ele>285.2</ele><time>2026-03-29T07:32:14Z</time></trkpt><trkpt lat="43.434415371968456" lon="11.877583852178248"><ele>286.0</ele><time>2026-03-29T07:32:15Z</time></trkpt><trkpt lat="43.434395234262645" lon="11.877458228033387"><ele>286.6</ele><time>2026-03-29T07:32:16Z</time></trkpt><trkpt lat="43.43437458860906" lon="11.87735854467304"><ele>287.20000000000005</ele><time>2026-03-29T07:32:17Z</time></trkpt><trkpt lat="43.434365672123384" lon="11.87724800149763"><ele>287.79999999999995</ele><time>2026-03-29T07:32:18Z</time></trkpt><trkpt lat="43.43436314337631" lon="11.877116768122201"><ele>288.4</ele><time>2026-03-29T07:32:19Z</time></trkpt><trkpt lat="43.43438662207215" lon="11.876983698028951"><ele>289.0</ele><time>2026-03-29T07:32:20Z</time></trkpt><trkpt lat="43.43443545154348" lon="11.87684948978184"><ele>289.66666666666663</ele><time>2026-03-29T07:32:21Z</time></trkpt><trkpt lat="43.43449263486142" lon="11.876732798527252"><ele>290.3333333333333</ele><time>2026-03-29T07:32:22Z</time></trkpt><trkpt lat="43.434541395884615" lon="11.876609273836747"><ele>291.0</ele><time>2026-03-29T07:32:23Z</time></trkpt><trkpt lat="43.43457468897917" lon="11.876518027325966"><ele>291.6666666666667</ele><time>2026-03-29T07:32:24Z</time></trkpt><trkpt lat="43.43458773886017" lon="11.876417122551185"><ele>292.33333333333337</ele><time>2026-03-29T07:32:26Z</time></trkpt><trkpt lat="43.434527965571554" lon="11.87635887659083"><ele>293.0</ele><time>2026-03-29T07:32:40Z</time></trkpt><trkpt lat="43.434467376400704" lon="11.876316480207539"><ele>293.0</ele><time>2026-03-29T07:32:43Z</time></trkpt><trkpt lat="43.434394977263196" lon="11.876268717576995"><ele>293.0</ele><time>2026-03-29T07:32:46Z</time></trkpt><trkpt lat="43.43431554491662" lon="11.876209093325448"><ele>293.0</ele><time>2026-03-29T07:32:49Z</time></trkpt><trkpt lat="43.43426692449546" lon="11.876142891231147"><ele>293.0</ele><time>2026-03-29T07:32:51Z</time></trkpt><trkpt lat="43.43421901793807" lon="11.876039230811985"><ele>293.0</ele><time>2026-03-29T07:32:53Z</time></trkpt><trkpt lat="43.43416434546819" lon="11.875890866885662"><ele>293.0</ele><time>2026-03-29T07:32:55Z</time></trkpt><trkpt lat="43.43411310817992" lon="11.875816843514563"><ele>293.2857142857143</ele><time>2026-03-29T07:32:56Z</time></trkpt><trkpt lat="43.43407124235613" lon="11.875742951975072"><ele>293.57142857142856</ele><time>2026-03-29T07:32:57Z</time></trkpt><trkpt lat="43.43402583047729" lon="11.875669874455937"><ele>293.8571428571429</ele><time>2026-03-29T07:32:58Z</time></trkpt><trkpt lat="43.43397906460634" lon="11.87560439187647"><ele>294.1428571428571</ele><time>2026-03-29T07:32:59Z</time></trkpt><trkpt lat="43.43392895381299" lon="11.875534756559457"><ele>294.42857142857144</ele><time>2026-03-29T07:33:00Z</time></trkpt><trkpt lat="43.43387879389817" lon="11.87545918157969"><ele>294.7142857142857</ele><time>2026-03-29T07:33:01Z</time></trkpt><trkpt lat="43.433817730316804" lon="11.875387162517962"><ele>295.0</ele><time>2026-03-29T07:33:02Z</time></trkpt><trkpt lat="43.433750428964544" lon="11.875311384926086"><ele>293.8333333333333</ele><time>2026-03-29T07:33:02.999Z</time></trkpt><trkpt lat="43.43369591678737" lon="11.87523855561872"><ele>292.66666666666663</ele><time>2026-03-29T07:33:03.999Z</time></trkpt><trkpt lat="43.43364919846877" lon="11.875171089289685"><ele>291.5</ele><time>2026-03-29T07:33:04.999Z</time></trkpt><trkpt lat="43.433599349777246" lon="11.875114251416178"><ele>290.3333333333333</ele><time>2026-03-29T07:33:05.999Z</time></trkpt><trkpt lat="43.43348731812484" lon="11.875026796720665"><ele>289.1666666666667</ele><time>2026-03-29T07:33:07.999Z</time></trkpt><trkpt lat="43.43342301062729" lon="11.874989978383965"><ele>288.0</ele><time>2026-03-29T07:33:08.999Z</time></trkpt><trkpt lat="43.43334827513678" lon="11.87496174667406"><ele>288.0</ele><time>2026-03-29T07:33:09.999Z</time></trkpt><trkpt lat="43.43328025500904" lon="11.874937174752151"><ele>288.0</ele><time>2026-03-29T07:33:10.999Z</time></trkpt><trkpt lat="43.43321205959353" lon="11.874895779470249"><ele>288.0</ele><time>2026-03-29T07:33:11.999Z</time></trkpt><trkpt lat="43.43314414882378" lon="11.874847322684598"><ele>288.0</ele><time>2026-03-29T07:33:12.999Z</time></trkpt><trkpt lat="43.433066999312835" lon="11.874812776184612"><ele>288.0</ele><time>2026-03-29T07:33:13.999Z</time></trkpt><trkpt lat="43.432992991494636" lon="11.874783694612542"><ele>288.0</ele><time>2026-03-29T07:33:14.999Z</time></trkpt><trkpt lat="43.43292038566398" lon="11.874749042300438"><ele>287.8333333333333</ele><time>2026-03-29T07:33:15.999Z</time></trkpt><trkpt lat="43.432849897114274" lon="11.874688858767856"><ele>287.6666666666667</ele><time>2026-03-29T07:33:16.999Z</time></trkpt><trkpt lat="43.432788729323434" lon="11.874612538114992"><ele>287.5</ele><time>2026-03-29T07:33:17.999Z</time></trkpt><trkpt lat="43.432735018449605" lon="11.874524320927035"><ele>287.33333333333337</ele><time>2026-03-29T07:33:18.999Z</time></trkpt><trkpt lat="43.43268136482674" lon="11.874439755077635"><ele>287.1666666666667</ele><time>2026-03-29T07:33:19.999Z</time></trkpt><trkpt lat="43.43262112007893" lon="11.874359413194927"><ele>287.0</ele><time>2026-03-29T07:33:20.999Z</time></trkpt><trkpt lat="43.432558783221516" lon="11.874274366067208"><ele>285.8</ele><time>2026-03-29T07:33:21.999Z</time></trkpt><trkpt lat="43.432497983710924" lon="11.874181653943735"><ele>284.6</ele><time>2026-03-29T07:33:22.999Z</time></trkpt><trkpt lat="43.43244014653435" lon="11.87407421993621"><ele>283.40000000000003</ele><time>2026-03-29T07:33:23.999Z</time></trkpt><trkpt lat="43.43237944838224" lon="11.873956131452633"><ele>282.2</ele><time>2026-03-29T07:33:24.999Z</time></trkpt><trkpt lat="43.432321954474006" lon="11.873828339189096"><ele>281.0</ele><time>2026-03-29T07:33:25.999Z</time></trkpt><trkpt lat="43.43226496351623" lon="11.873704361353445"><ele>281.0</ele><time>2026-03-29T07:33:26.999Z</time></trkpt><trkpt lat="43.43220995929229" lon="11.873578248880992"><ele>281.0</ele><time>2026-03-29T07:33:27.999Z</time></trkpt><trkpt lat="43.43215701414545" lon="11.873454744146779"><ele>281.0</ele><time>2026-03-29T07:33:28.999Z</time></trkpt><trkpt lat="43.43210322074042" lon="11.873328389086444"><ele>281.0</ele><time>2026-03-29T07:33:29.999Z</time></trkpt><trkpt lat="43.43206017700556" lon="11.873192271073842"><ele>281.0</ele><time>2026-03-29T07:33:30.999Z</time></trkpt><trkpt lat="43.432047082020624" lon="11.873046559679503"><ele>281.8</ele><time>2026-03-29T07:33:31.999Z</time></trkpt><trkpt lat="43.432046953579274" lon="11.872893219254914"><ele>282.6</ele><time>2026-03-29T07:33:32.999Z</time></trkpt><trkpt lat="43.432058443738086" lon="11.872746258621369"><ele>283.4</ele><time>2026-03-29T07:33:33.999Z</time></trkpt><trkpt lat="43.43207477807819" lon="11.872599750142895"><ele>284.2</ele><time>2026-03-29T07:33:34.999Z</time></trkpt><trkpt lat="43.432104895033326" lon="11.87245579831968"><ele>285.0</ele><time>2026-03-29T07:33:35.999Z</time></trkpt><trkpt lat="43.432134086975026" lon="11.87229982848374"><ele>285.0</ele><time>2026-03-29T07:33:36.999Z</time></trkpt><trkpt lat="43.43215784553324" lon="11.87213251309586"><ele>285.0</ele><time>2026-03-29T07:33:37.999Z</time></trkpt><trkpt lat="43.43218034771455" lon="11.871971056536502"><ele>285.0</ele><time>2026-03-29T07:33:38.999Z</time></trkpt><trkpt lat="43.4322005404074" lon="11.871811880553095"><ele>285.0</ele><time>2026-03-29T07:33:39.999Z</time></trkpt><trkpt lat="43.43220909504471" lon="11.871656048213596"><ele>285.0</ele><time>2026-03-29T07:33:40.999Z</time></trkpt><trkpt lat="43.4322288017189" lon="11.871512067959747"><ele>285.0</ele><time>2026-03-29T07:33:41.999Z</time></trkpt><trkpt lat="43.43228104655248" lon="11.871377589996898"><ele>285.0</ele><time>2026-03-29T07:33:42.999Z</time></trkpt><trkpt lat="43.43236761680326" lon="11.871247291915067"><ele>285.0</ele><time>2026-03-29T07:33:43.999Z</time></trkpt><trkpt lat="43.432469633020546" lon="11.871151748569227"><ele>285.0</ele><time>2026-03-29T07:33:44.999Z</time></trkpt><trkpt lat="43.432565358132045" lon="11.871069848475576"><ele>285.0</ele><time>2026-03-29T07:33:45.999Z</time></trkpt><trkpt lat="43.432656142351384" lon="11.870996312154938"><ele>285.0</ele><time>2026-03-29T07:33:46.999Z</time></trkpt><trkpt lat="43.43274755513721" lon="11.870922653524365"><ele>285.0</ele><time>2026-03-29T07:33:47.999Z</time></trkpt><trkpt lat="43.432833446078185" lon="11.870838566251113"><ele>285.0</ele><time>2026-03-29T07:33:48.999Z</time></trkpt><trkpt lat="43.43291317856115" lon="11.870752512619827"><ele>285.2</ele><time>2026-03-29T07:33:49.999Z</time></trkpt><trkpt lat="43.432977181760755" lon="11.870658462568562"><ele>285.4</ele><time>2026-03-29T07:33:50.999Z</time></trkpt><trkpt lat="43.43301985592279" lon="11.87057164944805"><ele>285.6</ele><time>2026-03-29T07:33:51.999Z</time></trkpt><trkpt lat="43.4330142024742" lon="11.870433257584756"><ele>285.8</ele><time>2026-03-29T07:33:53.999Z</time></trkpt><trkpt lat="43.43289868559415" lon="11.870367509514416"><ele>286.0</ele><time>2026-03-29T07:33:55.999Z</time></trkpt><trkpt lat="43.43282626909769" lon="11.870329408526954"><ele>287.40000000000003</ele><time>2026-03-29T07:33:56.999Z</time></trkpt><trkpt lat="43.432733964084925" lon="11.870280301542254"><ele>288.8</ele><time>2026-03-29T07:33:57.999Z</time></trkpt><trkpt lat="43.43263236184743" lon="11.870223657408928"><ele>290.20000000000005</ele><time>2026-03-29T07:33:58.999Z</time></trkpt><trkpt lat="43.43253074115666" lon="11.870152890073193"><ele>291.6</ele><time>2026-03-29T07:33:59.999Z</time></trkpt><trkpt lat="43.432445234868474" lon="11.870091130015219"><ele>293.0</ele><time>2026-03-29T07:34:00.999Z</time></trkpt><trkpt lat="43.432378488103" lon="11.870018167247649"><ele>294.2</ele><time>2026-03-29T07:34:01.999Z</time></trkpt><trkpt lat="43.43232361973489" lon="11.869936067051638"><ele>295.4</ele><time>2026-03-29T07:34:02.999Z</time></trkpt><trkpt lat="43.43226710756927" lon="11.869866174237291"><ele>296.59999999999997</ele><time>2026-03-29T07:34:03.999Z</time></trkpt><trkpt lat="43.43221403762543" lon="11.869815232923864"><ele>297.8</ele><time>2026-03-29T07:34:04.999Z</time></trkpt><trkpt lat="43.43213681275195" lon="11.869695458237029"><ele>299.0</ele><time>2026-03-29T07:34:06.999Z</time></trkpt><trkpt lat="43.43215537820863" lon="11.86953254576342"><ele>299.0</ele><time>2026-03-29T07:34:08.999Z</time></trkpt><trkpt lat="43.432213283137465" lon="11.869384246672302"><ele>299.0</ele><time>2026-03-29T07:34:10.999Z</time></trkpt><trkpt lat="43.43225430315635" lon="11.869235433780954"><ele>299.0</ele><time>2026-03-29T07:34:12.998Z</time></trkpt><trkpt lat="43.43228748371237" lon="11.869093662351242"><ele>299.0</ele><time>2026-03-29T07:34:14.998Z</time></trkpt><trkpt lat="43.432309596999524" lon="11.869012239326244"><ele>299.0</ele><time>2026-03-29T07:34:15.998Z</time></trkpt><trkpt lat="43.43233599343748" lon="11.868914402988786"><ele>299.2</ele><time>2026-03-29T07:34:16.998Z</time></trkpt><trkpt lat="43.43236442581847" lon="11.868815846039258"><ele>299.4</ele><time>2026-03-29T07:34:17.998Z</time></trkpt><trkpt lat="43.43239503158827" lon="11.868699416387265"><ele>299.6</ele><time>2026-03-29T07:34:19Z</time></trkpt><trkpt lat="43.43243292846891" lon="11.86857972740732"><ele>299.8</ele><time>2026-03-29T07:34:20Z</time></trkpt><trkpt lat="43.43247720521034" lon="11.868443808798752"><ele>300.0</ele><time>2026-03-29T07:34:21Z</time></trkpt><trkpt lat="43.43254219430409" lon="11.868307331831717"><ele>300.0</ele><time>2026-03-29T07:34:22Z</time></trkpt><trkpt lat="43.43260262122404" lon="11.868167806293869"><ele>300.0</ele><time>2026-03-29T07:34:23Z</time></trkpt><trkpt lat="43.43264911950608" lon="11.868057987634065"><ele>300.0</ele><time>2026-03-29T07:34:24Z</time></trkpt><trkpt lat="43.43267823690331" lon="11.867941144151319"><ele>300.0</ele><time>2026-03-29T07:34:25Z</time></trkpt><trkpt lat="43.43269735381097" lon="11.867807376770477"><ele>300.0</ele><time>2026-03-29T07:34:26Z</time></trkpt><trkpt lat="43.43270243763646" lon="11.867647969872289"><ele>301.5</ele><time>2026-03-29T07:34:27Z</time></trkpt><trkpt lat="43.4326883106264" lon="11.86747474369683"><ele>303.0</ele><time>2026-03-29T07:34:28Z</time></trkpt><trkpt lat="43.432655744475696" lon="11.86729978664892"><ele>304.5</ele><time>2026-03-29T07:34:29Z</time></trkpt><trkpt lat="43.43260805804187" lon="11.867137268869145"><ele>306.0</ele><time>2026-03-29T07:34:30Z</time></trkpt><trkpt lat="43.43254158578655" lon="11.867005424120078"><ele>306.0</ele><time>2026-03-29T07:34:31Z</time></trkpt><trkpt lat="43.43248210238528" lon="11.866880396908789"><ele>306.0</ele><time>2026-03-29T07:34:32Z</time></trkpt><trkpt lat="43.43244757959808" lon="11.866740219398372"><ele>306.0</ele><time>2026-03-29T07:34:33Z</time></trkpt><trkpt lat="43.43244750797477" lon="11.866582906194562"><ele>306.0</ele><time>2026-03-29T07:34:34Z</time></trkpt><trkpt lat="43.43248283793432" lon="11.86644105995365"><ele>306.0</ele><time>2026-03-29T07:34:35Z</time></trkpt><trkpt lat="43.4325514614619" lon="11.866327336806574"><ele>305.5</ele><time>2026-03-29T07:34:36Z</time></trkpt><trkpt lat="43.43265051153426" lon="11.866228149244984"><ele>305.0</ele><time>2026-03-29T07:34:37Z</time></trkpt><trkpt lat="43.43275484534741" lon="11.866133869317848"><ele>304.5</ele><time>2026-03-29T07:34:38Z</time></trkpt><trkpt lat="43.432849383947115" lon="11.866027544399813"><ele>304.0</ele><time>2026-03-29T07:34:39Z</time></trkpt><trkpt lat="43.43293980516815" lon="11.865917623777218"><ele>302.59999999999997</ele><time>2026-03-29T07:34:40Z</time></trkpt><trkpt lat="43.43300891514087" lon="11.865814685161782"><ele>301.2</ele><time>2026-03-29T07:34:41Z</time></trkpt><trkpt lat="43.43305991262116" lon="11.865704642078624"><ele>299.79999999999995</ele><time>2026-03-29T07:34:42Z</time></trkpt><trkpt lat="43.4330950802758" lon="11.865569651398324"><ele>298.4</ele><time>2026-03-29T07:34:43Z</time></trkpt><trkpt lat="43.43313128443386" lon="11.865424257686952"><ele>297.0</ele><time>2026-03-29T07:34:44Z</time></trkpt><trkpt lat="43.43317634822171" lon="11.865290352075851"><ele>297.0</ele><time>2026-03-29T07:34:45Z</time></trkpt><trkpt lat="43.43322576246622" lon="11.865184544670678"><ele>297.0</ele><time>2026-03-29T07:34:46Z</time></trkpt><trkpt lat="43.433283987524206" lon="11.865104515268452"><ele>297.0</ele><time>2026-03-29T07:34:47Z</time></trkpt><trkpt lat="43.43334861624911" lon="11.86504167099532"><ele>297.0</ele><time>2026-03-29T07:34:48Z</time></trkpt><trkpt lat="43.433405846242586" lon="11.86499616901529"><ele>297.0</ele><time>2026-03-29T07:34:49Z</time></trkpt><trkpt lat="43.43348534325108" lon="11.864951866774964"><ele>297.0</ele><time>2026-03-29T07:34:51Z</time></trkpt><trkpt lat="43.433542317234355" lon="11.864896474555131"><ele>298.1666666666667</ele><time>2026-03-29T07:34:54Z</time></trkpt><trkpt lat="43.433582992851505" lon="11.86482997515727"><ele>299.3333333333333</ele><time>2026-03-29T07:35:29.999Z</time></trkpt><trkpt lat="43.433532218112106" lon="11.86476958500577"><ele>300.5</ele><time>2026-03-29T07:35:32.999Z</time></trkpt><trkpt lat="43.4334830764892" lon="11.86470484777867"><ele>301.66666666666663</ele><time>2026-03-29T07:35:54.999Z</time></trkpt><trkpt lat="43.43343813913274" lon="11.86460571493284"><ele>302.8333333333333</ele><time>2026-03-29T07:35:55.999Z</time></trkpt><trkpt lat="43.433362938180395" lon="11.864494459072098"><ele>304.0</ele><time>2026-03-29T07:35:57.999Z</time></trkpt><trkpt lat="43.43334366910043" lon="11.86438068850531"><ele>304.0</ele><time>2026-03-29T07:35:59.999Z</time></trkpt><trkpt lat="43.433408934048785" lon="11.864455497606984"><ele>304.0</ele><time>2026-03-29T07:36:00.999Z</time></trkpt><trkpt lat="43.43339441538464" lon="11.864319303636337"><ele>304.0</ele><time>2026-03-29T07:36:04.999Z</time></trkpt><trkpt lat="43.4333510274235" lon="11.864244069850557"><ele>304.0</ele><time>2026-03-29T07:36:06.999Z</time></trkpt><trkpt lat="43.433429436841465" lon="11.864164935952358"><ele>304.0</ele><time>2026-03-29T07:36:10.999Z</time></trkpt><trkpt lat="43.43345668735923" lon="11.864081383984107"><ele>304.0</ele><time>2026-03-29T07:36:12.999Z</time></trkpt><trkpt lat="43.433380250324625" lon="11.864019420719787"><ele>305.85714285714283</ele><time>2026-03-29T07:36:15.999Z</time></trkpt><trkpt lat="43.43330877729969" lon="11.863979272142725"><ele>307.7142857142857</ele><time>2026-03-29T07:36:17.998Z</time></trkpt><trkpt lat="43.43333101668954" lon="11.863882366269234"><ele>309.57142857142856</ele><time>2026-03-29T07:36:21.998Z</time></trkpt><trkpt lat="43.43338661202748" lon="11.863832130237855"><ele>311.42857142857144</ele><time>2026-03-29T07:36:23.998Z</time></trkpt><trkpt lat="43.43339577374708" lon="11.863731625056603"><ele>313.2857142857143</ele><time>2026-03-29T07:36:27Z</time></trkpt><trkpt lat="43.43337866580262" lon="11.86363416009596"><ele>315.14285714285717</ele><time>2026-03-29T07:36:40Z</time></trkpt><trkpt lat="43.43336520027884" lon="11.86353850417777"><ele>317.0</ele><time>2026-03-29T07:36:42Z</time></trkpt><trkpt lat="43.43332316132835" lon="11.863428007932479"><ele>319.6666666666667</ele><time>2026-03-29T07:36:44Z</time></trkpt><trkpt lat="43.43328095802006" lon="11.863265536582905"><ele>322.33333333333337</ele><time>2026-03-29T07:36:46Z</time></trkpt><trkpt lat="43.433246330721595" lon="11.86318195223773"><ele>325.0</ele><time>2026-03-29T07:36:47Z</time></trkpt><trkpt lat="43.43324666806789" lon="11.863051059452616"><ele>327.6666666666667</ele><time>2026-03-29T07:36:49Z</time></trkpt><trkpt lat="43.43326557650929" lon="11.862967992871448"><ele>330.3333333333333</ele><time>2026-03-29T07:36:51Z</time></trkpt><trkpt lat="43.43327098884755" lon="11.86287563509325"><ele>333.0</ele><time>2026-03-29T07:36:57Z</time></trkpt><trkpt lat="43.43325608565668" lon="11.862788135335931"><ele>333.0</ele><time>2026-03-29T07:36:58Z</time></trkpt><trkpt lat="43.433255940224036" lon="11.862685751875732"><ele>333.0</ele><time>2026-03-29T07:36:59Z</time></trkpt><trkpt lat="43.43324668207503" lon="11.862586995474134"><ele>333.0</ele><time>2026-03-29T07:37:00Z</time></trkpt><trkpt lat="43.4332315897361" lon="11.862495680245798"><ele>333.0</ele><time>2026-03-29T07:37:01Z</time></trkpt><trkpt lat="43.43322819930766" lon="11.86240720417586"><ele>333.0</ele><time>2026-03-29T07:37:03Z</time></trkpt><trkpt lat="43.43321905663275" lon="11.862289543340996"><ele>333.0</ele><time>2026-03-29T07:37:05Z</time></trkpt><trkpt lat="43.433216930499704" lon="11.862184022676962"><ele>333.0</ele><time>2026-03-29T07:37:08Z</time></trkpt><trkpt lat="43.43320616575687" lon="11.8620673348896"><ele>334.6666666666667</ele><time>2026-03-29T07:37:12Z</time></trkpt><trkpt lat="43.43320214744542" lon="11.861969310340562"><ele>336.3333333333333</ele><time>2026-03-29T07:37:13.999Z</time></trkpt><trkpt lat="43.43319756186818" lon="11.861851319532642"><ele>338.0</ele><time>2026-03-29T07:37:15.999Z</time></trkpt><trkpt lat="43.43318971334512" lon="11.861758418324401"><ele>339.66666666666663</ele><time>2026-03-29T07:37:17.999Z</time></trkpt><trkpt lat="43.43318941605509" lon="11.861653361271665"><ele>341.3333333333333</ele><time>2026-03-29T07:37:19.999Z</time></trkpt><trkpt lat="43.43319524674464" lon="11.861554377071037"><ele>343.0</ele><time>2026-03-29T07:37:21.999Z</time></trkpt><trkpt lat="43.433226046013395" lon="11.861438501487797"><ele>344.5</ele><time>2026-03-29T07:37:23.999Z</time></trkpt><trkpt lat="43.43321365121516" lon="11.861310158106757"><ele>346.0</ele><time>2026-03-29T07:37:25.999Z</time></trkpt><trkpt lat="43.43320874901969" lon="11.861205338095022"><ele>347.5</ele><time>2026-03-29T07:37:27.999Z</time></trkpt><trkpt lat="43.43319203536062" lon="11.861118498008532"><ele>349.0</ele><time>2026-03-29T07:37:28.999Z</time></trkpt><trkpt lat="43.43315774704115" lon="11.860966358336578"><ele>350.5</ele><time>2026-03-29T07:37:30.999Z</time></trkpt><trkpt lat="43.43310693214806" lon="11.86085830619949"><ele>352.0</ele><time>2026-03-29T07:37:32.999Z</time></trkpt><trkpt lat="43.43308734365237" lon="11.860769836028046"><ele>353.0</ele><time>2026-03-29T07:37:34.999Z</time></trkpt><trkpt lat="43.43300900220214" lon="11.860650901767169"><ele>354.0</ele><time>2026-03-29T07:37:36.999Z</time></trkpt><trkpt lat="43.43297129229415" lon="11.8605812592454"><ele>355.0</ele><time>2026-03-29T07:37:37.999Z</time></trkpt><trkpt lat="43.43292951819107" lon="11.860470686032258"><ele>356.0</ele><time>2026-03-29T07:37:40.999Z</time></trkpt><trkpt lat="43.43295506413229" lon="11.860378778611226"><ele>357.0</ele><time>2026-03-29T07:37:42.999Z</time></trkpt><trkpt lat="43.43296381723662" lon="11.860269959676858"><ele>358.0</ele><time>2026-03-29T07:39:05Z</time></trkpt><trkpt lat="43.4328567190933" lon="11.860231924419047"><ele>359.8333333333333</ele><time>2026-03-29T07:39:07Z</time></trkpt><trkpt lat="43.432786679302446" lon="11.860221136378838"><ele>361.66666666666663</ele><time>2026-03-29T07:39:08Z</time></trkpt><trkpt lat="43.432712446093674" lon="11.86020374058113"><ele>363.5</ele><time>2026-03-29T07:39:09Z</time></trkpt><trkpt lat="43.43262429568792" lon="11.860180408543494"><ele>365.3333333333333</ele><time>2026-03-29T07:39:10Z</time></trkpt><trkpt lat="43.43253734827159" lon="11.860154484889755"><ele>367.1666666666667</ele><time>2026-03-29T07:39:11Z</time></trkpt><trkpt lat="43.432444876079494" lon="11.860128829015787"><ele>369.0</ele><time>2026-03-29T07:39:12Z</time></trkpt><trkpt lat="43.432345749668166" lon="11.860095717839341"><ele>369.0</ele><time>2026-03-29T07:39:13Z</time></trkpt><trkpt lat="43.432248378627044" lon="11.860074680163201"><ele>369.0</ele><time>2026-03-29T07:39:14Z</time></trkpt><trkpt lat="43.43215411889513" lon="11.860047431778646"><ele>369.0</ele><time>2026-03-29T07:39:15Z</time></trkpt><trkpt lat="43.43206153313407" lon="11.860017872430381"><ele>369.0</ele><time>2026-03-29T07:39:16Z</time></trkpt><trkpt lat="43.4319722717112" lon="11.859985982875415"><ele>369.0</ele><time>2026-03-29T07:39:17Z</time></trkpt><trkpt lat="43.43188884889516" lon="11.859930345662827"><ele>371.4</ele><time>2026-03-29T07:39:18Z</time></trkpt><trkpt lat="43.4318054644992" lon="11.859863692752882"><ele>373.79999999999995</ele><time>2026-03-29T07:39:19Z</time></trkpt><trkpt lat="43.43172608249226" lon="11.859795000101135"><ele>376.20000000000005</ele><time>2026-03-29T07:39:20Z</time></trkpt><trkpt lat="43.43164031808012" lon="11.859727291656583"><ele>378.6</ele><time>2026-03-29T07:39:21Z</time></trkpt><trkpt lat="43.431551821764636" lon="11.859673320890524"><ele>381.0</ele><time>2026-03-29T07:39:22Z</time></trkpt><trkpt lat="43.431468652269444" lon="11.859625596846016"><ele>381.0</ele><time>2026-03-29T07:39:22.999Z</time></trkpt><trkpt lat="43.43138586299725" lon="11.8595751299402"><ele>381.0</ele><time>2026-03-29T07:39:23.999Z</time></trkpt><trkpt lat="43.43128318511568" lon="11.85955239216372"><ele>381.0</ele><time>2026-03-29T07:39:24.999Z</time></trkpt><trkpt lat="43.43117487214992" lon="11.859544249110233"><ele>381.0</ele><time>2026-03-29T07:39:25.999Z</time></trkpt><trkpt lat="43.43107686198922" lon="11.85954158353402"><ele>381.0</ele><time>2026-03-29T07:39:26.999Z</time></trkpt><trkpt lat="43.430971669472456" lon="11.859526751615448"><ele>383.3333333333333</ele><time>2026-03-29T07:39:27.999Z</time></trkpt><trkpt lat="43.430888138355705" lon="11.859473527720024"><ele>385.66666666666663</ele><time>2026-03-29T07:39:28.999Z</time></trkpt><trkpt lat="43.430818582882125" lon="11.859395126250531"><ele>388.0</ele><time>2026-03-29T07:39:29.999Z</time></trkpt><trkpt lat="43.43075544250736" lon="11.859328372122432"><ele>390.3333333333333</ele><time>2026-03-29T07:39:30.999Z</time></trkpt><trkpt lat="43.43066480836481" lon="11.859346737956594"><ele>392.66666666666663</ele><time>2026-03-29T07:39:32.999Z</time></trkpt><trkpt lat="43.430696973710404" lon="11.85947165646765"><ele>395.0</ele><time>2026-03-29T07:39:34.999Z</time></trkpt><trkpt lat="43.43075539058562" lon="11.859552236009264"><ele>395.0</ele><time>2026-03-29T07:39:35.999Z</time></trkpt><trkpt lat="43.43081581918876" lon="11.859637481562093"><ele>395.0</ele><time>2026-03-29T07:39:36.999Z</time></trkpt><trkpt lat="43.43088541295366" lon="11.859738406008995"><ele>395.0</ele><time>2026-03-29T07:39:37.999Z</time></trkpt><trkpt lat="43.43095123329284" lon="11.85984366002438"><ele>395.0</ele><time>2026-03-29T07:39:38.999Z</time></trkpt><trkpt lat="43.43101529070275" lon="11.859955137614008"><ele>395.0</ele><time>2026-03-29T07:39:39.999Z</time></trkpt><trkpt lat="43.431082266336865" lon="11.860063070433672"><ele>395.4</ele><time>2026-03-29T07:39:40.999Z</time></trkpt><trkpt lat="43.43115461271759" lon="11.860170234625317"><ele>395.8</ele><time>2026-03-29T07:39:41.999Z</time></trkpt><trkpt lat="43.4312182325222" lon="11.86027594268083"><ele>396.20000000000005</ele><time>2026-03-29T07:39:42.999Z</time></trkpt><trkpt lat="43.43128059671845" lon="11.860393592479735"><ele>396.6</ele><time>2026-03-29T07:39:43.999Z</time></trkpt><trkpt lat="43.43134082901554" lon="11.860484478161672"><ele>397.0</ele><time>2026-03-29T07:39:44.999Z</time></trkpt><trkpt lat="43.431421864783395" lon="11.860562179962395"><ele>397.00000000000006</ele><time>2026-03-29T07:39:45.999Z</time></trkpt><trkpt lat="43.43150473869114" lon="11.86062686391253"><ele>397.0</ele><time>2026-03-29T07:39:46.999Z</time></trkpt><trkpt lat="43.431576804867454" lon="11.860692617927324"><ele>397.0</ele><time>2026-03-29T07:39:47.999Z</time></trkpt><trkpt lat="43.43164687590324" lon="11.86075726758305"><ele>397.0</ele><time>2026-03-29T07:39:48.999Z</time></trkpt><trkpt lat="43.43172663163147" lon="11.860808386601441"><ele>397.00000000000006</ele><time>2026-03-29T07:39:49.999Z</time></trkpt><trkpt lat="43.43180914957457" lon="11.860856139550954"><ele>397.0</ele><time>2026-03-29T07:39:50.999Z</time></trkpt><trkpt lat="43.431884217917805" lon="11.86090259106792"><ele>398.1666666666667</ele><time>2026-03-29T07:39:51.999Z</time></trkpt><trkpt lat="43.43194322351886" lon="11.860966614655355"><ele>399.33333333333337</ele><time>2026-03-29T07:39:52.999Z</time></trkpt><trkpt lat="43.43198520986399" lon="11.861061688728434"><ele>400.5</ele><time>2026-03-29T07:39:53.999Z</time></trkpt><trkpt lat="43.431998192846386" lon="11.86117754826879"><ele>401.66666666666663</ele><time>2026-03-29T07:39:54.999Z</time></trkpt><trkpt lat="43.431985350305176" lon="11.861263275404333"><ele>402.8333333333333</ele><time>2026-03-29T07:39:55.999Z</time></trkpt><trkpt lat="43.431865284569895" lon="11.86129614580753"><ele>404.0</ele><time>2026-03-29T07:39:57.999Z</time></trkpt><trkpt lat="43.4317952380596" lon="11.861276920975744"><ele>403.99999999999994</ele><time>2026-03-29T07:39:58.999Z</time></trkpt><trkpt lat="43.431726562653026" lon="11.86127932931271"><ele>404.0</ele><time>2026-03-29T07:39:59.999Z</time></trkpt><trkpt lat="43.431662098296975" lon="11.861335758695292"><ele>404.0</ele><time>2026-03-29T07:40:00.999Z</time></trkpt><trkpt lat="43.431601144030154" lon="11.8614271340187"><ele>404.0</ele><time>2026-03-29T07:40:01.999Z</time></trkpt><trkpt lat="43.43155960471641" lon="11.861517875370394"><ele>403.99999999999994</ele><time>2026-03-29T07:40:02.999Z</time></trkpt><trkpt lat="43.43150980421394" lon="11.861600707516333"><ele>404.0</ele><time>2026-03-29T07:40:03.999Z</time></trkpt><trkpt lat="43.431453485488326" lon="11.861676368873608"><ele>403.99999999999994</ele><time>2026-03-29T07:40:04.999Z</time></trkpt><trkpt lat="43.4313940752247" lon="11.861765508434614"><ele>404.0</ele><time>2026-03-29T07:40:05.999Z</time></trkpt><trkpt lat="43.43133533917668" lon="11.861853179862937"><ele>404.0</ele><time>2026-03-29T07:40:06.999Z</time></trkpt><trkpt lat="43.43128310207386" lon="11.861931878288935"><ele>404.0</ele><time>2026-03-29T07:40:07.999Z</time></trkpt><trkpt lat="43.43121696004612" lon="11.861997611412306"><ele>403.99999999999994</ele><time>2026-03-29T07:40:08.999Z</time></trkpt><trkpt lat="43.43114401725732" lon="11.862066046381006"><ele>404.0</ele><time>2026-03-29T07:40:09.999Z</time></trkpt><trkpt lat="43.431061989854626" lon="11.862115591611483"><ele>405.4</ele><time>2026-03-29T07:40:10.999Z</time></trkpt><trkpt lat="43.43098223190219" lon="11.862156447235723"><ele>406.79999999999995</ele><time>2026-03-29T07:40:11.999Z</time></trkpt><trkpt lat="43.430905880138106" lon="11.862196053428727"><ele>408.20000000000005</ele><time>2026-03-29T07:40:12.999Z</time></trkpt><trkpt lat="43.4308155353377" lon="11.862242781219551"><ele>409.6</ele><time>2026-03-29T07:40:13.999Z</time></trkpt><trkpt lat="43.43071864708539" lon="11.86228413901229"><ele>411.0</ele><time>2026-03-29T07:40:14.999Z</time></trkpt><trkpt lat="43.430620441121164" lon="11.86231789889541"><ele>411.0</ele><time>2026-03-29T07:40:15.999Z</time></trkpt><trkpt lat="43.43052686051875" lon="11.862351318297893"><ele>411.0</ele><time>2026-03-29T07:40:16.999Z</time></trkpt><trkpt lat="43.4304225144568" lon="11.86236511757676"><ele>411.0</ele><time>2026-03-29T07:40:17.999Z</time></trkpt><trkpt lat="43.430326328189906" lon="11.862363662321462"><ele>411.0</ele><time>2026-03-29T07:40:18.999Z</time></trkpt><trkpt lat="43.43021317094754" lon="11.862372642078324"><ele>411.0</ele><time>2026-03-29T07:40:19.999Z</time></trkpt><trkpt lat="43.43010871115185" lon="11.862401844713142"><ele>410.0</ele><time>2026-03-29T07:40:20.999Z</time></trkpt><trkpt lat="43.43001203018532" lon="11.862429429947777"><ele>409.0</ele><time>2026-03-29T07:40:21.999Z</time></trkpt><trkpt lat="43.42994611673905" lon="11.862456330304102"><ele>408.0</ele><time>2026-03-29T07:40:22.999Z</time></trkpt><trkpt lat="43.42988250246226" lon="11.862508503533567"><ele>407.0</ele><time>2026-03-29T07:40:23.999Z</time></trkpt><trkpt lat="43.429808503047134" lon="11.862537690372362"><ele>406.0</ele><time>2026-03-29T07:40:24.999Z</time></trkpt><trkpt lat="43.42973387045892" lon="11.862602091798431"><ele>405.0</ele><time>2026-03-29T07:40:25.999Z</time></trkpt><trkpt lat="43.42965344782239" lon="11.862645106370637"><ele>408.2</ele><time>2026-03-29T07:40:26.999Z</time></trkpt><trkpt lat="43.42956617717569" lon="11.862681864400729"><ele>411.4</ele><time>2026-03-29T07:40:27.999Z</time></trkpt><trkpt lat="43.42946133509319" lon="11.862663703425165"><ele>414.6</ele><time>2026-03-29T07:40:28.999Z</time></trkpt><trkpt lat="43.42935984185364" lon="11.862620946019545"><ele>417.8</ele><time>2026-03-29T07:40:29.999Z</time></trkpt><trkpt lat="43.429265364428325" lon="11.862559626328599"><ele>421.0</ele><time>2026-03-29T07:40:30.999Z</time></trkpt><trkpt lat="43.42914074244524" lon="11.862516964819129"><ele>425.0</ele><time>2026-03-29T07:40:31.998Z</time></trkpt><trkpt lat="43.42901178539867" lon="11.862491761476807"><ele>429.0</ele><time>2026-03-29T07:40:32.998Z</time></trkpt><trkpt lat="43.428893698016616" lon="11.862472665783303"><ele>433.0</ele><time>2026-03-29T07:40:33.998Z</time></trkpt><trkpt lat="43.428791694790434" lon="11.862450596086228"><ele>437.0</ele><time>2026-03-29T07:40:34.998Z</time></trkpt><trkpt lat="43.428695343661516" lon="11.862425102819387"><ele>438.6</ele><time>2026-03-29T07:40:35.998Z</time></trkpt><trkpt lat="43.428604218282345" lon="11.862404336918011"><ele>440.20000000000005</ele><time>2026-03-29T07:40:37Z</time></trkpt><trkpt lat="43.42850557999773" lon="11.862384280904923"><ele>441.8</ele><time>2026-03-29T07:40:38Z</time></trkpt><trkpt lat="43.42840287858462" lon="11.86238503735202"><ele>443.4</ele><time>2026-03-29T07:40:39Z</time></trkpt><trkpt lat="43.428298530722245" lon="11.862407804526844"><ele>445.0</ele><time>2026-03-29T07:40:40Z</time></trkpt><trkpt lat="43.428200079722544" lon="11.862442366722433"><ele>445.0</ele><time>2026-03-29T07:40:41Z</time></trkpt><trkpt lat="43.428098174088795" lon="11.862494778733497"><ele>445.0</ele><time>2026-03-29T07:40:42Z</time></trkpt><trkpt lat="43.42800963207903" lon="11.862579753468818"><ele>445.0</ele><time>2026-03-29T07:40:43Z</time></trkpt><trkpt lat="43.42793809689874" lon="11.862679250802875"><ele>445.0</ele><time>2026-03-29T07:40:44Z</time></trkpt><trkpt lat="43.42787357060591" lon="11.862776832879943"><ele>445.0</ele><time>2026-03-29T07:40:45Z</time></trkpt><trkpt lat="43.4278042236721" lon="11.86287270828178"><ele>447.0</ele><time>2026-03-29T07:40:46Z</time></trkpt><trkpt lat="43.4277160160603" lon="11.862945580014701"><ele>449.0</ele><time>2026-03-29T07:40:47Z</time></trkpt><trkpt lat="43.4276111416638" lon="11.862985500571378"><ele>451.0</ele><time>2026-03-29T07:40:48Z</time></trkpt><trkpt lat="43.42751797335174" lon="11.863047718746007"><ele>453.0</ele><time>2026-03-29T07:40:49Z</time></trkpt><trkpt lat="43.427446365068064" lon="11.86315936023202"><ele>455.0</ele><time>2026-03-29T07:40:50Z</time></trkpt><trkpt lat="43.42737949446591" lon="11.863278539036711"><ele>455.0</ele><time>2026-03-29T07:40:51Z</time></trkpt><trkpt lat="43.42731103122075" lon="11.863392601124644"><ele>455.0</ele><time>2026-03-29T07:40:52Z</time></trkpt><trkpt lat="43.427244762688574" lon="11.863488874567729"><ele>455.0</ele><time>2026-03-29T07:40:53Z</time></trkpt><trkpt lat="43.42717365056584" lon="11.863583156540809"><ele>455.0</ele><time>2026-03-29T07:40:54Z</time></trkpt><trkpt lat="43.42710592466952" lon="11.863665135775785"><ele>455.0</ele><time>2026-03-29T07:40:55Z</time></trkpt><trkpt lat="43.42703323184478" lon="11.863749297193227"><ele>456.6</ele><time>2026-03-29T07:40:56Z</time></trkpt><trkpt lat="43.4269543969023" lon="11.863804314165478"><ele>458.2</ele><time>2026-03-29T07:40:57Z</time></trkpt><trkpt lat="43.42684853218367" lon="11.863811745870384"><ele>459.79999999999995</ele><time>2026-03-29T07:40:58Z</time></trkpt><trkpt lat="43.42674824028706" lon="11.863792526463833"><ele>461.4</ele><time>2026-03-29T07:40:59Z</time></trkpt><trkpt lat="43.42666110358985" lon="11.863794929247993"><ele>463.0</ele><time>2026-03-29T07:41:00Z</time></trkpt><trkpt lat="43.426551165608885" lon="11.863871293505856"><ele>463.00000000000006</ele><time>2026-03-29T07:41:02Z</time></trkpt><trkpt lat="43.42651336006951" lon="11.863952761629836"><ele>463.0</ele><time>2026-03-29T07:41:03Z</time></trkpt><trkpt lat="43.4264903386767" lon="11.864055935541524"><ele>463.0</ele><time>2026-03-29T07:41:04Z</time></trkpt><trkpt lat="43.42647325075725" lon="11.86418403596841"><ele>463.0</ele><time>2026-03-29T07:41:05Z</time></trkpt><trkpt lat="43.42645861181036" lon="11.864291260407015"><ele>463.00000000000006</ele><time>2026-03-29T07:41:06Z</time></trkpt><trkpt lat="43.426441910844765" lon="11.864404965747582"><ele>463.0</ele><time>2026-03-29T07:41:07Z</time></trkpt><trkpt lat="43.426420751249154" lon="11.86451191767141"><ele>463.83333333333337</ele><time>2026-03-29T07:41:08Z</time></trkpt><trkpt lat="43.42639938065036" lon="11.86459925090136"><ele>464.6666666666667</ele><time>2026-03-29T07:41:09Z</time></trkpt><trkpt lat="43.42636255985307" lon="11.864682353531355"><ele>465.5</ele><time>2026-03-29T07:41:10Z</time></trkpt><trkpt lat="43.42630730045926" lon="11.864776556504559"><ele>466.33333333333337</ele><time>2026-03-29T07:41:11Z</time></trkpt><trkpt lat="43.42624459548983" lon="11.864860817493588"><ele>467.1666666666667</ele><time>2026-03-29T07:41:12Z</time></trkpt><trkpt lat="43.42616630866009" lon="11.864934805058864"><ele>468.0</ele><time>2026-03-29T07:41:13Z</time></trkpt><trkpt lat="43.4260797574333" lon="11.8649772701877"><ele>468.0</ele><time>2026-03-29T07:41:14Z</time></trkpt><trkpt lat="43.42599311086742" lon="11.86501746449112"><ele>467.99999999999994</ele><time>2026-03-29T07:41:15Z</time></trkpt><trkpt lat="43.4259036989786" lon="11.865063207881239"><ele>467.99999999999994</ele><time>2026-03-29T07:41:16Z</time></trkpt><trkpt lat="43.42581555960069" lon="11.865112503868623"><ele>468.0</ele><time>2026-03-29T07:41:17Z</time></trkpt><trkpt lat="43.425728307042036" lon="11.865172086495795"><ele>468.0</ele><time>2026-03-29T07:41:18Z</time></trkpt><trkpt lat="43.42566242773947" lon="11.865242894679053"><ele>469.79999999999995</ele><time>2026-03-29T07:41:19Z</time></trkpt><trkpt lat="43.42561000638574" lon="11.865331451575495"><ele>471.59999999999997</ele><time>2026-03-29T07:41:20Z</time></trkpt><trkpt lat="43.42558685184461" lon="11.865481760432505"><ele>473.40000000000003</ele><time>2026-03-29T07:41:22Z</time></trkpt><trkpt lat="43.425609978538795" lon="11.865572379920302"><ele>475.20000000000005</ele><time>2026-03-29T07:41:23Z</time></trkpt><trkpt lat="43.42565463855406" lon="11.865719803345272"><ele>477.0</ele><time>2026-03-29T07:41:24.999Z</time></trkpt><trkpt lat="43.42559051130881" lon="11.8658684295745"><ele>477.0</ele><time>2026-03-29T07:41:26.999Z</time></trkpt><trkpt lat="43.42550990498598" lon="11.865915483535757"><ele>477.0</ele><time>2026-03-29T07:41:27.999Z</time></trkpt><trkpt lat="43.425406648969194" lon="11.865958225780275"><ele>477.0</ele><time>2026-03-29T07:41:28.999Z</time></trkpt><trkpt lat="43.42532915276247" lon="11.866004027232389"><ele>477.0</ele><time>2026-03-29T07:41:29.999Z</time></trkpt><trkpt lat="43.4252632127749" lon="11.866053923410934"><ele>477.0</ele><time>2026-03-29T07:41:30.999Z</time></trkpt><trkpt lat="43.42519030799407" lon="11.866117314516686"><ele>477.0</ele><time>2026-03-29T07:41:31.999Z</time></trkpt><trkpt lat="43.425141516393396" lon="11.866210251812635"><ele>477.6666666666667</ele><time>2026-03-29T07:41:32.999Z</time></trkpt><trkpt lat="43.42511944549261" lon="11.866326579342156"><ele>478.33333333333337</ele><time>2026-03-29T07:41:33.999Z</time></trkpt><trkpt lat="43.42510341233313" lon="11.866448524972178"><ele>479.0</ele><time>2026-03-29T07:41:34.999Z</time></trkpt><trkpt lat="43.425066968918365" lon="11.866547986092712"><ele>479.6666666666667</ele><time>2026-03-29T07:41:35.999Z</time></trkpt><trkpt lat="43.425020077043925" lon="11.866653085521545"><ele>480.33333333333337</ele><time>2026-03-29T07:41:36.999Z</time></trkpt><trkpt lat="43.42496817509557" lon="11.866752701307345"><ele>481.0</ele><time>2026-03-29T07:41:37.999Z</time></trkpt><trkpt lat="43.42490736091432" lon="11.866843940832926"><ele>482.0</ele><time>2026-03-29T07:41:38.999Z</time></trkpt><trkpt lat="43.424827345738585" lon="11.866917265556278"><ele>483.0</ele><time>2026-03-29T07:41:39.999Z</time></trkpt><trkpt lat="43.42473371702313" lon="11.866967592686578"><ele>484.0</ele><time>2026-03-29T07:41:40.999Z</time></trkpt><trkpt lat="43.42463035859977" lon="11.866990820920444"><ele>485.0</ele><time>2026-03-29T07:41:41.999Z</time></trkpt><trkpt lat="43.424521865829355" lon="11.867004835839401"><ele>486.0</ele><time>2026-03-29T07:41:42.999Z</time></trkpt><trkpt lat="43.42442145304087" lon="11.867040492960733"><ele>486.0</ele><time>2026-03-29T07:41:43.999Z</time></trkpt><trkpt lat="43.42432833529558" lon="11.867091550918113"><ele>486.0</ele><time>2026-03-29T07:41:44.999Z</time></trkpt><trkpt lat="43.424215563958256" lon="11.867154041921543"><ele>486.0</ele><time>2026-03-29T07:41:45.999Z</time></trkpt><trkpt lat="43.42410831374664" lon="11.867219265308451"><ele>486.0</ele><time>2026-03-29T07:41:46.999Z</time></trkpt><trkpt lat="43.423996501479664" lon="11.86729606185388"><ele>486.0</ele><time>2026-03-29T07:41:47.999Z</time></trkpt><trkpt lat="43.42389824529887" lon="11.867385308601799"><ele>486.0</ele><time>2026-03-29T07:41:48.999Z</time></trkpt><trkpt lat="43.42380166043083" lon="11.867486224866841"><ele>486.0</ele><time>2026-03-29T07:41:49.999Z</time></trkpt><trkpt lat="43.423705643611335" lon="11.867599416550716"><ele>486.0</ele><time>2026-03-29T07:41:50.999Z</time></trkpt><trkpt lat="43.42360614118365" lon="11.867697209786451"><ele>486.4</ele><time>2026-03-29T07:41:51.999Z</time></trkpt><trkpt lat="43.4235163766712" lon="11.867785131335546"><ele>486.8</ele><time>2026-03-29T07:41:52.999Z</time></trkpt><trkpt lat="43.4234327307114" lon="11.867860730100379"><ele>487.19999999999993</ele><time>2026-03-29T07:41:53.999Z</time></trkpt><trkpt lat="43.423360951831675" lon="11.86792138261449"><ele>487.59999999999997</ele><time>2026-03-29T07:41:54.999Z</time></trkpt><trkpt lat="43.42329498500456" lon="11.86796340278474"><ele>488.0</ele><time>2026-03-29T07:41:55.999Z</time></trkpt><trkpt lat="43.423210765010325" lon="11.867985718796263"><ele>487.99999999999994</ele><time>2026-03-29T07:41:56.999Z</time></trkpt><trkpt lat="43.423120672307995" lon="11.867963289263503"><ele>488.0</ele><time>2026-03-29T07:41:57.999Z</time></trkpt><trkpt lat="43.42305263774158" lon="11.867931208535257"><ele>488.0</ele><time>2026-03-29T07:41:58.999Z</time></trkpt><trkpt lat="43.42298820847238" lon="11.867888762791347"><ele>488.0</ele><time>2026-03-29T07:42:00.999Z</time></trkpt><trkpt lat="43.42293846932543" lon="11.868011397922631"><ele>487.99999999999994</ele><time>2026-03-29T07:42:46Z</time></trkpt><trkpt lat="43.422925070449494" lon="11.868153783987461"><ele>488.0</ele><time>2026-03-29T07:42:48Z</time></trkpt><trkpt lat="43.422872732362734" lon="11.868277754403604"><ele>492.4</ele><time>2026-03-29T07:42:50Z</time></trkpt><trkpt lat="43.42282494246886" lon="11.868445616045445"><ele>496.79999999999995</ele><time>2026-03-29T07:42:52Z</time></trkpt><trkpt lat="43.42282096731506" lon="11.868554638712423"><ele>501.2</ele><time>2026-03-29T07:42:53Z</time></trkpt><trkpt lat="43.42278522626848" lon="11.868722894273947"><ele>505.6</ele><time>2026-03-29T07:42:55Z</time></trkpt><trkpt lat="43.422758403893866" lon="11.86881348764812"><ele>510.0</ele><time>2026-03-29T07:42:56Z</time></trkpt><trkpt lat="43.422722564249085" lon="11.868912794889638"><ele>510.0</ele><time>2026-03-29T07:42:57Z</time></trkpt><trkpt lat="43.42269361675579" lon="11.869000068479686"><ele>510.00000000000006</ele><time>2026-03-29T07:42:58Z</time></trkpt><trkpt lat="43.42266367157042" lon="11.869090845445259"><ele>510.0</ele><time>2026-03-29T07:42:59Z</time></trkpt><trkpt lat="43.42264377786684" lon="11.869194225895514"><ele>510.0</ele><time>2026-03-29T07:43:00Z</time></trkpt><trkpt lat="43.422623219999615" lon="11.869303341334101"><ele>510.00000000000006</ele><time>2026-03-29T07:43:01Z</time></trkpt><trkpt lat="43.42259661472812" lon="11.869407938039364"><ele>510.0</ele><time>2026-03-29T07:43:02Z</time></trkpt><trkpt lat="43.422585428567054" lon="11.86949895675332"><ele>510.0</ele><time>2026-03-29T07:43:03Z</time></trkpt><trkpt lat="43.42254213303766" lon="11.86958693994802"><ele>510.1666666666667</ele><time>2026-03-29T07:43:05Z</time></trkpt><trkpt lat="43.42247410573132" lon="11.869695011057855"><ele>510.33333333333337</ele><time>2026-03-29T07:43:06Z</time></trkpt><trkpt lat="43.42242690468369" lon="11.869803640927675"><ele>510.5</ele><time>2026-03-29T07:43:07Z</time></trkpt><trkpt lat="43.422388414324736" lon="11.869892016464554"><ele>510.6666666666667</ele><time>2026-03-29T07:43:08Z</time></trkpt><trkpt lat="43.422372746739796" lon="11.8699879564496"><ele>510.83333333333337</ele><time>2026-03-29T07:43:09Z</time></trkpt><trkpt lat="43.422333342010084" lon="11.870101306507337"><ele>511.0</ele><time>2026-03-29T07:43:10Z</time></trkpt><trkpt lat="43.422255434766065" lon="11.87019589595044"><ele>508.50000000000006</ele><time>2026-03-29T07:43:12Z</time></trkpt><trkpt lat="43.422174937534656" lon="11.87013898888336"><ele>506.0</ele><time>2026-03-29T07:43:14Z</time></trkpt><trkpt lat="43.422087282348656" lon="11.870071552582047"><ele>503.5</ele><time>2026-03-29T07:43:16Z</time></trkpt><trkpt lat="43.42200312572816" lon="11.87005079515134"><ele>501.0</ele><time>2026-03-29T07:43:18Z</time></trkpt><trkpt lat="43.421909859834564" lon="11.870029865344925"><ele>498.50000000000006</ele><time>2026-03-29T07:43:20Z</time></trkpt><trkpt lat="43.42183712714233" lon="11.870003567349512"><ele>496.0</ele><time>2026-03-29T07:43:21Z</time></trkpt><trkpt lat="43.421769151298186" lon="11.869991867526206"><ele>501.6666666666667</ele><time>2026-03-29T07:43:22Z</time></trkpt><trkpt lat="43.421696899773" lon="11.869966923045553"><ele>507.33333333333337</ele><time>2026-03-29T07:43:23Z</time></trkpt><trkpt lat="43.421642764441636" lon="11.869917113065632"><ele>513.0</ele><time>2026-03-29T07:43:24Z</time></trkpt><trkpt lat="43.42154954884415" lon="11.86988336319368"><ele>518.6666666666666</ele><time>2026-03-29T07:43:26Z</time></trkpt><trkpt lat="43.421510569449616" lon="11.869811784708281"><ele>524.3333333333333</ele><time>2026-03-29T07:43:29.999Z</time></trkpt><trkpt lat="43.42150820451705" lon="11.869659749781496"><ele>530.0</ele><time>2026-03-29T07:43:32.999Z</time></trkpt><trkpt lat="43.421453406755184" lon="11.86956357859249"><ele>529.9999999999999</ele><time>2026-03-29T07:43:34.999Z</time></trkpt><trkpt lat="43.42142826986025" lon="11.86948385250494"><ele>530.0</ele><time>2026-03-29T07:44:06.999Z</time></trkpt><trkpt lat="43.421459618461185" lon="11.86940163008774"><ele>530.0</ele><time>2026-03-29T07:44:20.999Z</time></trkpt><trkpt lat="43.42142532656604" lon="11.869281751078105"><ele>530.0</ele><time>2026-03-29T07:44:25.999Z</time></trkpt><trkpt lat="43.421391413717224" lon="11.86920599693308"><ele>530.0</ele><time>2026-03-29T07:47:41Z</time></trkpt><trkpt lat="43.42144653853957" lon="11.869253621128946"><ele>529.9999999999999</ele><time>2026-03-29T07:48:30.999Z</time></trkpt><trkpt lat="43.42148074839748" lon="11.86933020652935"><ele>530.0</ele><time>2026-03-29T07:48:42.999Z</time></trkpt><trkpt lat="43.421461829853534" lon="11.86942834993956"><ele>530.0</ele><time>2026-03-29T07:48:49.999Z</time></trkpt><trkpt lat="43.42146651655858" lon="11.869521848495795"><ele>530.0</ele><time>2026-03-29T07:48:52.999Z</time></trkpt><trkpt lat="43.42150913284638" lon="11.86961243964236"><ele>530.0</ele><time>2026-03-29T07:48:55.998Z</time></trkpt><trkpt lat="43.42149484334516" lon="11.869724039586677"><ele>530.0</ele><time>2026-03-29T07:48:58.998Z</time></trkpt><trkpt lat="43.421514576926135" lon="11.869819153961936"><ele>530.0</ele><time>2026-03-29T07:49:03Z</time></trkpt><trkpt lat="43.421590966269555" lon="11.869827632239923"><ele>530.0</ele><time>2026-03-29T07:49:05Z</time></trkpt><trkpt lat="43.421656015397986" lon="11.869873208278062"><ele>530.0</ele><time>2026-03-29T07:49:07Z</time></trkpt><trkpt lat="43.42174784563408" lon="11.869934876424937"><ele>530.0</ele><time>2026-03-29T07:49:09Z</time></trkpt><trkpt lat="43.42183001199586" lon="11.86996638403776"><ele>530.0</ele><time>2026-03-29T07:49:11Z</time></trkpt><trkpt lat="43.42191599356316" lon="11.86999804342472"><ele>530.0</ele><time>2026-03-29T07:49:13Z</time></trkpt><trkpt lat="43.42203130047052" lon="11.870043857033718"><ele>530.0</ele><time>2026-03-29T07:49:15Z</time></trkpt><trkpt lat="43.4221147614802" lon="11.870082261141672"><ele>529.8333333333333</ele><time>2026-03-29T07:49:18Z</time></trkpt><trkpt lat="43.422193025556936" lon="11.870136382275744"><ele>529.6666666666666</ele><time>2026-03-29T07:49:21Z</time></trkpt><trkpt lat="43.42217685023934" lon="11.87023897925888"><ele>529.5</ele><time>2026-03-29T07:49:26Z</time></trkpt><trkpt lat="43.422116754890716" lon="11.87026485851275"><ele>529.3333333333334</ele><time>2026-03-29T07:49:28Z</time></trkpt><trkpt lat="43.42201308732299" lon="11.870275769412421"><ele>529.1666666666667</ele><time>2026-03-29T07:49:30Z</time></trkpt><trkpt lat="43.42192599974006" lon="11.870289840800725"><ele>529.0</ele><time>2026-03-29T07:49:32Z</time></trkpt><trkpt lat="43.421829420121675" lon="11.87033133153354"><ele>529.0</ele><time>2026-03-29T07:49:34Z</time></trkpt><trkpt lat="43.421808894996545" lon="11.870469931522194"><ele>529.0</ele><time>2026-03-29T07:49:36Z</time></trkpt><trkpt lat="43.421800740554545" lon="11.870593904369342"><ele>529.0</ele><time>2026-03-29T07:49:37Z</time></trkpt><trkpt lat="43.42181981422397" lon="11.870683169039701"><ele>529.0</ele><time>2026-03-29T07:49:38Z</time></trkpt><trkpt lat="43.42186268651932" lon="11.870824812990666"><ele>529.0</ele><time>2026-03-29T07:49:39Z</time></trkpt><trkpt lat="43.421918208598534" lon="11.870979525568806"><ele>529.0</ele><time>2026-03-29T07:49:40Z</time></trkpt><trkpt lat="43.42195229848144" lon="11.871130032617824"><ele>529.0</ele><time>2026-03-29T07:49:41Z</time></trkpt><trkpt lat="43.42197419509899" lon="11.871246445534094"><ele>529.0</ele><time>2026-03-29T07:49:42Z</time></trkpt><trkpt lat="43.42199073457377" lon="11.871343425725483"><ele>529.0</ele><time>2026-03-29T07:49:43Z</time></trkpt><trkpt lat="43.42198159255308" lon="11.871462182979378"><ele>529.0</ele><time>2026-03-29T07:49:44Z</time></trkpt><trkpt lat="43.42199385633926" lon="11.871558987691605"><ele>529.0</ele><time>2026-03-29T07:49:45Z</time></trkpt><trkpt lat="43.422005236588404" lon="11.871713606969891"><ele>526.8333333333334</ele><time>2026-03-29T07:49:47Z</time></trkpt><trkpt lat="43.42198640665332" lon="11.871800376753558"><ele>524.6666666666667</ele><time>2026-03-29T07:49:48Z</time></trkpt><trkpt lat="43.421954802460014" lon="11.871907316716326"><ele>522.5</ele><time>2026-03-29T07:49:49Z</time></trkpt><trkpt lat="43.421939407964764" lon="11.872027165402258"><ele>520.3333333333334</ele><time>2026-03-29T07:49:50Z</time></trkpt><trkpt lat="43.42195910135189" lon="11.872124154023467"><ele>518.1666666666666</ele><time>2026-03-29T07:49:51Z</time></trkpt><trkpt lat="43.42190850479515" lon="11.872291243996221"><ele>516.0</ele><time>2026-03-29T07:49:52.999Z</time></trkpt><trkpt lat="43.42180518780643" lon="11.872412127209499"><ele>516.0</ele><time>2026-03-29T07:49:54.999Z</time></trkpt><trkpt lat="43.42172176669638" lon="11.872455926185067"><ele>516.0</ele><time>2026-03-29T07:49:55.999Z</time></trkpt><trkpt lat="43.42162753925411" lon="11.872514500974422"><ele>516.0</ele><time>2026-03-29T07:49:56.999Z</time></trkpt><trkpt lat="43.421530105717395" lon="11.872564213148086"><ele>516.0</ele><time>2026-03-29T07:49:57.999Z</time></trkpt><trkpt lat="43.42143223835563" lon="11.87260754270354"><ele>516.0</ele><time>2026-03-29T07:49:58.999Z</time></trkpt><trkpt lat="43.42135544022763" lon="11.872653677139386"><ele>514.5</ele><time>2026-03-29T07:49:59.999Z</time></trkpt><trkpt lat="43.421286748380034" lon="11.87264625119221"><ele>513.0</ele><time>2026-03-29T07:50:00.999Z</time></trkpt><trkpt lat="43.42118746259367" lon="11.872621013653228"><ele>511.5</ele><time>2026-03-29T07:50:02.999Z</time></trkpt><trkpt lat="43.42113106260277" lon="11.872679449306604"><ele>510.0</ele><time>2026-03-29T07:50:03.999Z</time></trkpt><trkpt lat="43.42105101373362" lon="11.872745983148123"><ele>508.5</ele><time>2026-03-29T07:50:04.999Z</time></trkpt><trkpt lat="43.42098194120154" lon="11.872786235415996"><ele>507.0</ele><time>2026-03-29T07:50:05.999Z</time></trkpt><trkpt lat="43.4208986813766" lon="11.87282684962939"><ele>507.0</ele><time>2026-03-29T07:50:07.999Z</time></trkpt><trkpt lat="43.420831769364284" lon="11.872820991905037"><ele>507.0</ele><time>2026-03-29T07:50:09.999Z</time></trkpt><trkpt lat="43.420748177654005" lon="11.872841321857186"><ele>507.0</ele><time>2026-03-29T07:50:10.999Z</time></trkpt><trkpt lat="43.420671908401985" lon="11.872845278789374"><ele>507.0</ele><time>2026-03-29T07:50:11.999Z</time></trkpt><trkpt lat="43.42056803565411" lon="11.872832706997274"><ele>507.0</ele><time>2026-03-29T07:50:13.999Z</time></trkpt><trkpt lat="43.42050563186365" lon="11.87285670493724"><ele>507.0</ele><time>2026-03-29T07:50:19.999Z</time></trkpt><trkpt lat="43.42043111752664" lon="11.872923172050253"><ele>507.40000000000003</ele><time>2026-03-29T07:50:21.999Z</time></trkpt><trkpt lat="43.42035003711733" lon="11.872956203158644"><ele>507.80000000000007</ele><time>2026-03-29T07:50:22.999Z</time></trkpt><trkpt lat="43.42026258090602" lon="11.873032404637081"><ele>508.2</ele><time>2026-03-29T07:50:24.999Z</time></trkpt><trkpt lat="43.42017994855441" lon="11.873082996352718"><ele>508.6</ele><time>2026-03-29T07:50:26.999Z</time></trkpt><trkpt lat="43.420060599265575" lon="11.873108888561493"><ele>509.0</ele><time>2026-03-29T07:50:28.999Z</time></trkpt><trkpt lat="43.41998738724785" lon="11.873144748964862"><ele>508.99999999999994</ele><time>2026-03-29T07:50:29.999Z</time></trkpt><trkpt lat="43.419928267837506" lon="11.873191265141081"><ele>509.0</ele><time>2026-03-29T07:50:30.999Z</time></trkpt><trkpt lat="43.41980423333805" lon="11.87321704687932"><ele>509.0</ele><time>2026-03-29T07:50:32.999Z</time></trkpt><trkpt lat="43.41974255703433" lon="11.873144355186056"><ele>509.0</ele><time>2026-03-29T07:50:33.999Z</time></trkpt><trkpt lat="43.41966160572071" lon="11.873129732738395"><ele>508.99999999999994</ele><time>2026-03-29T07:50:34.999Z</time></trkpt><trkpt lat="43.41958911546128" lon="11.873101128223446"><ele>509.0</ele><time>2026-03-29T07:50:35.999Z</time></trkpt><trkpt lat="43.419470772659245" lon="11.873083771177829"><ele>509.79999999999995</ele><time>2026-03-29T07:50:37.999Z</time></trkpt><trkpt lat="43.41940547923927" lon="11.873141076185576"><ele>510.59999999999997</ele><time>2026-03-29T07:50:38.999Z</time></trkpt><trkpt lat="43.41935363339916" lon="11.873227210664291"><ele>511.4</ele><time>2026-03-29T07:50:39.999Z</time></trkpt><trkpt lat="43.419269917401174" lon="11.873326270890155"><ele>512.1999999999999</ele><time>2026-03-29T07:50:41.999Z</time></trkpt><trkpt lat="43.4192391035115" lon="11.873408834595963"><ele>513.0</ele><time>2026-03-29T07:50:42.999Z</time></trkpt><trkpt lat="43.41912510488614" lon="11.873457171590731"><ele>511.8333333333333</ele><time>2026-03-29T07:50:44.999Z</time></trkpt><trkpt lat="43.41904463885436" lon="11.873458108759891"><ele>510.66666666666663</ele><time>2026-03-29T07:50:45.999Z</time></trkpt><trkpt lat="43.41897306850886" lon="11.873451026610287"><ele>509.5</ele><time>2026-03-29T07:50:46.999Z</time></trkpt><trkpt lat="43.418885776828354" lon="11.87349515832525"><ele>508.3333333333333</ele><time>2026-03-29T07:50:47.999Z</time></trkpt><trkpt lat="43.41882517652272" lon="11.873541516808896"><ele>507.16666666666663</ele><time>2026-03-29T07:50:48.999Z</time></trkpt><trkpt lat="43.418731405572125" lon="11.87355739280961"><ele>506.0</ele><time>2026-03-29T07:50:51.999Z</time></trkpt><trkpt lat="43.41860649618308" lon="11.87352935529814"><ele>506.0</ele><time>2026-03-29T07:50:53.999Z</time></trkpt><trkpt lat="43.418499555077034" lon="11.873493310503369"><ele>506.0</ele><time>2026-03-29T07:50:54.999Z</time></trkpt><trkpt lat="43.41839505736645" lon="11.87347919634641"><ele>506.0</ele><time>2026-03-29T07:50:55.999Z</time></trkpt><trkpt lat="43.418309357197415" lon="11.873467178018737"><ele>506.0</ele><time>2026-03-29T07:50:56.999Z</time></trkpt><trkpt lat="43.41821911185539" lon="11.873458384392842"><ele>506.0</ele><time>2026-03-29T07:50:58.998Z</time></trkpt><trkpt lat="43.41818498384342" lon="11.873549435558157"><ele>505.99999999999994</ele><time>2026-03-29T07:51:01.998Z</time></trkpt><trkpt lat="43.41816146975497" lon="11.87365179818811"><ele>506.0</ele><time>2026-03-29T07:51:02.998Z</time></trkpt><trkpt lat="43.418134751856776" lon="11.87377547378739"><ele>506.0</ele><time>2026-03-29T07:51:03.998Z</time></trkpt><trkpt lat="43.418114383425284" lon="11.873895863783327"><ele>506.0</ele><time>2026-03-29T07:51:04.998Z</time></trkpt><trkpt lat="43.41809738747905" lon="11.874031540588115"><ele>505.99999999999994</ele><time>2026-03-29T07:51:05.998Z</time></trkpt><trkpt lat="43.41810091518123" lon="11.874120545013504"><ele>506.0</ele><time>2026-03-29T07:51:07Z</time></trkpt><trkpt lat="43.418093602527215" lon="11.874216354918493"><ele>506.99999999999994</ele><time>2026-03-29T07:51:08Z</time></trkpt><trkpt lat="43.418062806437504" lon="11.87431045351816"><ele>508.0</ele><time>2026-03-29T07:51:09Z</time></trkpt><trkpt lat="43.418014709418244" lon="11.874453732565188"><ele>509.0</ele><time>2026-03-29T07:51:11Z</time></trkpt><trkpt lat="43.41795912174458" lon="11.874513516852376"><ele>510.0</ele><time>2026-03-29T07:51:12Z</time></trkpt><trkpt lat="43.41788836938107" lon="11.874557795939003"><ele>510.99999999999994</ele><time>2026-03-29T07:51:13Z</time></trkpt><trkpt lat="43.4178040973421" lon="11.874605797852867"><ele>512.0</ele><time>2026-03-29T07:51:14Z</time></trkpt><trkpt lat="43.4177325211716" lon="11.874665820406822"><ele>511.99999999999994</ele><time>2026-03-29T07:51:15Z</time></trkpt><trkpt lat="43.41766741808034" lon="11.874702738148288"><ele>512.0</ele><time>2026-03-29T07:51:16Z</time></trkpt><trkpt lat="43.41760049096669" lon="11.87472202439173"><ele>512.0</ele><time>2026-03-29T07:51:17Z</time></trkpt><trkpt lat="43.417536173931765" lon="11.87474749367305"><ele>512.0</ele><time>2026-03-29T07:51:20Z</time></trkpt><trkpt lat="43.41746709791508" lon="11.87473325693371"><ele>511.99999999999994</ele><time>2026-03-29T07:51:22Z</time></trkpt><trkpt lat="43.41735603478866" lon="11.874708515329683"><ele>512.0</ele><time>2026-03-29T07:51:24Z</time></trkpt><trkpt lat="43.417253835142894" lon="11.874779240383045"><ele>512.0</ele><time>2026-03-29T07:51:26Z</time></trkpt><trkpt lat="43.41717459990794" lon="11.874832377181777"><ele>512.0</ele><time>2026-03-29T07:51:28Z</time></trkpt><trkpt lat="43.417068066616814" lon="11.87477186103048"><ele>512.0</ele><time>2026-03-29T07:51:30Z</time></trkpt><trkpt lat="43.41694671446772" lon="11.874739454390328"><ele>512.0</ele><time>2026-03-29T07:51:32Z</time></trkpt><trkpt lat="43.416824484693564" lon="11.874780959388413"><ele>515.6</ele><time>2026-03-29T07:51:34Z</time></trkpt><trkpt lat="43.41675367348279" lon="11.87480779884322"><ele>519.2</ele><time>2026-03-29T07:51:35Z</time></trkpt><trkpt lat="43.41665490754838" lon="11.87475869623078"><ele>522.8</ele><time>2026-03-29T07:51:37Z</time></trkpt><trkpt lat="43.41657459165859" lon="11.874762236439183"><ele>526.4</ele><time>2026-03-29T07:51:40Z</time></trkpt><trkpt lat="43.41652043147451" lon="11.874922313659223"><ele>530.0</ele><time>2026-03-29T07:51:42Z</time></trkpt><trkpt lat="43.4164756392064" lon="11.874994615494344"><ele>530.0</ele><time>2026-03-29T07:51:43Z</time></trkpt><trkpt lat="43.41636586668195" lon="11.875081056284918"><ele>530.0</ele><time>2026-03-29T07:51:45Z</time></trkpt><trkpt lat="43.41623563203513" lon="11.875021808564435"><ele>530.0</ele><time>2026-03-29T07:51:47Z</time></trkpt><trkpt lat="43.41615571111881" lon="11.87500528794495"><ele>530.0</ele><time>2026-03-29T07:51:48Z</time></trkpt><trkpt lat="43.416070855181886" lon="11.875014743341925"><ele>530.0</ele><time>2026-03-29T07:51:49Z</time></trkpt><trkpt lat="43.41600300690531" lon="11.875028293882497"><ele>530.0</ele><time>2026-03-29T07:51:50Z</time></trkpt><trkpt lat="43.415954628258625" lon="11.875149641743041"><ele>530.0</ele><time>2026-03-29T07:51:52Z</time></trkpt><trkpt lat="43.41590011464078" lon="11.875238474480772"><ele>530.0</ele><time>2026-03-29T07:51:53Z</time></trkpt><trkpt lat="43.41586404777914" lon="11.875335652542974"><ele>530.0</ele><time>2026-03-29T07:51:53.999Z</time></trkpt><trkpt lat="43.41581836494092" lon="11.875413289483237"><ele>530.0</ele><time>2026-03-29T07:51:54.999Z</time></trkpt><trkpt lat="43.41578900886487" lon="11.87549622913622"><ele>530.0</ele><time>2026-03-29T07:51:55.999Z</time></trkpt><trkpt lat="43.41575896530862" lon="11.87557589344894"><ele>530.0</ele><time>2026-03-29T07:51:56.999Z</time></trkpt><trkpt lat="43.41567969935772" lon="11.875705839932692"><ele>530.0</ele><time>2026-03-29T07:51:58.999Z</time></trkpt><trkpt lat="43.41563453170543" lon="11.87580290174794"><ele>530.0</ele><time>2026-03-29T07:52:00.999Z</time></trkpt><trkpt lat="43.41558667533991" lon="11.875921406915563"><ele>530.0</ele><time>2026-03-29T07:52:02.999Z</time></trkpt><trkpt lat="43.41551108471679" lon="11.875998560244573"><ele>530.0</ele><time>2026-03-29T07:52:04.999Z</time></trkpt><trkpt lat="43.41543556495142" lon="11.876016241306793"><ele>533.6666666666666</ele><time>2026-03-29T07:52:05.999Z</time></trkpt><trkpt lat="43.41537097374242" lon="11.876051893135406"><ele>537.3333333333333</ele><time>2026-03-29T07:52:06.999Z</time></trkpt><trkpt lat="43.41531802152891" lon="11.876114835445941"><ele>541.0</ele><time>2026-03-29T07:52:08.999Z</time></trkpt><trkpt lat="43.41521919672205" lon="11.87609883469943"><ele>544.6666666666666</ele><time>2026-03-29T07:52:10.999Z</time></trkpt><trkpt lat="43.415137202522615" lon="11.87607637395776"><ele>548.3333333333334</ele><time>2026-03-29T07:52:11.999Z</time></trkpt><trkpt lat="43.41507154638141" lon="11.876061006517455"><ele>552.0</ele><time>2026-03-29T07:52:12.999Z</time></trkpt><trkpt lat="43.41499519396247" lon="11.87603737979258"><ele>552.0</ele><time>2026-03-29T07:52:14.999Z</time></trkpt><trkpt lat="43.41498002060036" lon="11.876142789145405"><ele>552.0</ele><time>2026-03-29T07:52:19.999Z</time></trkpt><trkpt lat="43.41507118126657" lon="11.876309775003916"><ele>552.0</ele><time>2026-03-29T07:52:22.999Z</time></trkpt><trkpt lat="43.41509630731451" lon="11.87642305296507"><ele>552.0</ele><time>2026-03-29T07:52:23.999Z</time></trkpt><trkpt lat="43.4151393096072" lon="11.876545330008675"><ele>552.0</ele><time>2026-03-29T07:52:24.999Z</time></trkpt><trkpt lat="43.41518375812407" lon="11.876636623832804"><ele>552.0</ele><time>2026-03-29T07:52:25.999Z</time></trkpt><trkpt lat="43.41523782407577" lon="11.876712388473706"><ele>552.0</ele><time>2026-03-29T07:52:26.999Z</time></trkpt><trkpt lat="43.415380446581295" lon="11.876762987253885"><ele>552.0</ele><time>2026-03-29T07:52:28.999Z</time></trkpt><trkpt lat="43.41545995325533" lon="11.876800771243504"><ele>552.0</ele><time>2026-03-29T07:52:29.999Z</time></trkpt><trkpt lat="43.41552657313823" lon="11.876888176477761"><ele>552.0</ele><time>2026-03-29T07:52:30.999Z</time></trkpt><trkpt lat="43.415624538201726" lon="11.876977803786891"><ele>551.8333333333334</ele><time>2026-03-29T07:52:32.999Z</time></trkpt><trkpt lat="43.41566615420656" lon="11.877096540374223"><ele>551.6666666666666</ele><time>2026-03-29T07:52:33.999Z</time></trkpt><trkpt lat="43.41569251773957" lon="11.877203144962115"><ele>551.5</ele><time>2026-03-29T07:52:34.999Z</time></trkpt><trkpt lat="43.415709949772214" lon="11.87729965603099"><ele>551.3333333333333</ele><time>2026-03-29T07:52:35.999Z</time></trkpt><trkpt lat="43.41572362420734" lon="11.877394814459734"><ele>551.1666666666666</ele><time>2026-03-29T07:52:36.999Z</time></trkpt><trkpt lat="43.41576511504612" lon="11.877532592049688"><ele>551.0</ele><time>2026-03-29T07:52:38.999Z</time></trkpt><trkpt lat="43.41582624735805" lon="11.877605800747306"><ele>551.0</ele><time>2026-03-29T07:52:39.999Z</time></trkpt><trkpt lat="43.41589264342294" lon="11.87770132948469"><ele>551.0</ele><time>2026-03-29T07:52:40.999Z</time></trkpt><trkpt lat="43.41597242195929" lon="11.877785398744953"><ele>551.0</ele><time>2026-03-29T07:52:41.999Z</time></trkpt><trkpt lat="43.416035236899" lon="11.877876928657491"><ele>551.0</ele><time>2026-03-29T07:52:42.999Z</time></trkpt><trkpt lat="43.41611538900291" lon="11.877994166591934"><ele>551.0</ele><time>2026-03-29T07:52:43.999Z</time></trkpt><trkpt lat="43.41620742372577" lon="11.878139599161408"><ele>551.0</ele><time>2026-03-29T07:52:44.999Z</time></trkpt><trkpt lat="43.41628769029323" lon="11.87823542221327"><ele>551.0</ele><time>2026-03-29T07:52:45.999Z</time></trkpt><trkpt lat="43.41635237766616" lon="11.878318432075215"><ele>551.0</ele><time>2026-03-29T07:52:46.999Z</time></trkpt><trkpt lat="43.41640485765951" lon="11.878380445554983"><ele>551.0</ele><time>2026-03-29T07:52:47.999Z</time></trkpt><trkpt lat="43.41648024455721" lon="11.878426292783923"><ele>551.0</ele><time>2026-03-29T07:52:48.999Z</time></trkpt><trkpt lat="43.416514717443256" lon="11.87858246193346"><ele>551.3333333333333</ele><time>2026-03-29T07:52:50.999Z</time></trkpt><trkpt lat="43.41649727610468" lon="11.878667379904897"><ele>551.6666666666666</ele><time>2026-03-29T07:52:51.999Z</time></trkpt><trkpt lat="43.41646159400557" lon="11.878766665866138"><ele>552.0</ele><time>2026-03-29T07:52:52.999Z</time></trkpt><trkpt lat="43.41642009899245" lon="11.87887015832362"><ele>552.3333333333334</ele><time>2026-03-29T07:52:53.999Z</time></trkpt><trkpt lat="43.41638129474963" lon="11.878965401160023"><ele>552.6666666666667</ele><time>2026-03-29T07:52:54.999Z</time></trkpt><trkpt lat="43.41633770031156" lon="11.879044672661143"><ele>553.0</ele><time>2026-03-29T07:52:55.999Z</time></trkpt><trkpt lat="43.41623312567576" lon="11.87908160515963"><ele>553.0</ele><time>2026-03-29T07:52:57.999Z</time></trkpt><trkpt lat="43.41616596025507" lon="11.879071779017499"><ele>553.0</ele><time>2026-03-29T07:52:59.998Z</time></trkpt><trkpt lat="43.4161751464104" lon="11.879165838313806"><ele>553.0</ele><time>2026-03-29T07:53:01.998Z</time></trkpt><trkpt lat="43.41623180081778" lon="11.87921833491266"><ele>553.0</ele><time>2026-03-29T07:53:02.998Z</time></trkpt><trkpt lat="43.41629517889421" lon="11.879284239522057"><ele>553.0</ele><time>2026-03-29T07:53:03.998Z</time></trkpt><trkpt lat="43.416363751410024" lon="11.879356313573192"><ele>553.0</ele><time>2026-03-29T07:53:04.998Z</time></trkpt><trkpt lat="43.41635374551272" lon="11.879485275708301"><ele>549.5</ele><time>2026-03-29T07:53:06.998Z</time></trkpt><trkpt lat="43.41633773391236" lon="11.879571442059348"><ele>546.0</ele><time>2026-03-29T07:53:07.998Z</time></trkpt><trkpt lat="43.416360238584225" lon="11.879673873324002"><ele>542.5</ele><time>2026-03-29T07:53:08.998Z</time></trkpt><trkpt lat="43.41638699805287" lon="11.879780627565394"><ele>539.0</ele><time>2026-03-29T07:53:09.998Z</time></trkpt><trkpt lat="43.41645786257007" lon="11.879841950498124"><ele>535.5</ele><time>2026-03-29T07:53:11.998Z</time></trkpt><trkpt lat="43.41655383617108" lon="11.879880390471094"><ele>532.0</ele><time>2026-03-29T07:53:13Z</time></trkpt><trkpt lat="43.41664296775465" lon="11.879889736930737"><ele>532.0</ele><time>2026-03-29T07:53:14Z</time></trkpt><trkpt lat="43.41675050027653" lon="11.879946742894784"><ele>532.0</ele><time>2026-03-29T07:53:15Z</time></trkpt><trkpt lat="43.41683181694997" lon="11.880007944439582"><ele>532.0</ele><time>2026-03-29T07:53:16Z</time></trkpt><trkpt lat="43.416871924957505" lon="11.88009372936083"><ele>532.0</ele><time>2026-03-29T07:53:17Z</time></trkpt><trkpt lat="43.416907778287374" lon="11.880203444389924"><ele>532.0</ele><time>2026-03-29T07:53:18Z</time></trkpt><trkpt lat="43.416966633717344" lon="11.880284397242802"><ele>533.8000000000001</ele><time>2026-03-29T07:53:19Z</time></trkpt><trkpt lat="43.41703518445882" lon="11.880373114160157"><ele>535.6</ele><time>2026-03-29T07:53:20Z</time></trkpt><trkpt lat="43.41707215478169" lon="11.88046666126904"><ele>537.4000000000001</ele><time>2026-03-29T07:53:21Z</time></trkpt><trkpt lat="43.41709246484265" lon="11.880551105122825"><ele>539.2</ele><time>2026-03-29T07:53:22Z</time></trkpt><trkpt lat="43.417099719016946" lon="11.880699681442877"><ele>541.0</ele><time>2026-03-29T07:53:24Z</time></trkpt><trkpt lat="43.41707149355265" lon="11.880848373855457"><ele>541.0</ele><time>2026-03-29T07:53:26Z</time></trkpt><trkpt lat="43.417126418800805" lon="11.880916186506964"><ele>541.0</ele><time>2026-03-29T07:53:27Z</time></trkpt><trkpt lat="43.417180121099264" lon="11.88100488847802"><ele>541.0</ele><time>2026-03-29T07:53:28Z</time></trkpt><trkpt lat="43.4172198824669" lon="11.881120508568952"><ele>541.0</ele><time>2026-03-29T07:53:29Z</time></trkpt><trkpt lat="43.41724568699931" lon="11.881217136061085"><ele>541.0</ele><time>2026-03-29T07:53:30Z</time></trkpt><trkpt lat="43.417269963177645" lon="11.881324685715375"><ele>541.0</ele><time>2026-03-29T07:53:31Z</time></trkpt><trkpt lat="43.4173202461234" lon="11.881409482308763"><ele>538.2</ele><time>2026-03-29T07:53:33Z</time></trkpt><trkpt lat="43.417443244124875" lon="11.881504707421511"><ele>535.4000000000001</ele><time>2026-03-29T07:53:35Z</time></trkpt><trkpt lat="43.41749646950991" lon="11.88162051432021"><ele>532.6</ele><time>2026-03-29T07:53:36Z</time></trkpt><trkpt lat="43.41755445927643" lon="11.88173183477745"><ele>529.8000000000001</ele><time>2026-03-29T07:53:37Z</time></trkpt><trkpt lat="43.4176350414728" lon="11.881821953114587"><ele>527.0</ele><time>2026-03-29T07:53:38Z</time></trkpt><trkpt lat="43.41768243349596" lon="11.881905392550417"><ele>527.0</ele><time>2026-03-29T07:53:39Z</time></trkpt><trkpt lat="43.41773446063924" lon="11.881993385466119"><ele>527.0</ele><time>2026-03-29T07:53:40Z</time></trkpt><trkpt lat="43.41780497606224" lon="11.882074481516213"><ele>527.0</ele><time>2026-03-29T07:53:41Z</time></trkpt><trkpt lat="43.41785230015034" lon="11.882132094528465"><ele>527.0</ele><time>2026-03-29T07:53:42Z</time></trkpt><trkpt lat="43.41788444903382" lon="11.8822220031826"><ele>527.0</ele><time>2026-03-29T07:53:44Z</time></trkpt><trkpt lat="43.41794597216013" lon="11.882365353740393"><ele>527.0</ele><time>2026-03-29T07:53:46Z</time></trkpt><trkpt lat="43.41797449824842" lon="11.882482779293193"><ele>522.6</ele><time>2026-03-29T07:53:47Z</time></trkpt><trkpt lat="43.41803144082563" lon="11.882709842034068"><ele>518.2</ele><time>2026-03-29T07:53:49Z</time></trkpt><trkpt lat="43.41806915697299" lon="11.882792540675862"><ele>513.8</ele><time>2026-03-29T07:53:50Z</time></trkpt><trkpt lat="43.418105942118444" lon="11.882863155417276"><ele>509.4</ele><time>2026-03-29T07:53:51Z</time></trkpt><trkpt lat="43.418135045155736" lon="11.88301454999581"><ele>505.0</ele><time>2026-03-29T07:53:53Z</time></trkpt><trkpt lat="43.41809605478741" lon="11.883175816548581"><ele>505.00000000000006</ele><time>2026-03-29T07:53:55Z</time></trkpt><trkpt lat="43.41804739533952" lon="11.883234330486514"><ele>505.0</ele><time>2026-03-29T07:53:56Z</time></trkpt><trkpt lat="43.417981826853755" lon="11.883255755456958"><ele>505.0</ele><time>2026-03-29T07:53:57Z</time></trkpt><trkpt lat="43.41791012888531" lon="11.883289260505641"><ele>505.0</ele><time>2026-03-29T07:53:58Z</time></trkpt><trkpt lat="43.41783327285995" lon="11.883322642653313"><ele>505.00000000000006</ele><time>2026-03-29T07:53:59Z</time></trkpt><trkpt lat="43.41773842249451" lon="11.883335561930007"><ele>505.0</ele><time>2026-03-29T07:54:00Z</time></trkpt><trkpt lat="43.41764190871463" lon="11.88333254895686"><ele>505.50000000000006</ele><time>2026-03-29T07:54:01Z</time></trkpt><trkpt lat="43.41756319946101" lon="11.883350759429963"><ele>506.0</ele><time>2026-03-29T07:54:01.999Z</time></trkpt><trkpt lat="43.4174893235644" lon="11.883395897630487"><ele>506.5</ele><time>2026-03-29T07:54:02.999Z</time></trkpt><trkpt lat="43.41743741182162" lon="11.88346239474311"><ele>507.0</ele><time>2026-03-29T07:54:03.999Z</time></trkpt><trkpt lat="43.41736008375975" lon="11.883545305230035"><ele>507.50000000000006</ele><time>2026-03-29T07:54:05.999Z</time></trkpt><trkpt lat="43.417305766287186" lon="11.883619263887665"><ele>508.0</ele><time>2026-03-29T07:54:07.999Z</time></trkpt><trkpt lat="43.41726381833334" lon="11.883691603850009"><ele>504.50000000000006</ele><time>2026-03-29T07:54:10.999Z</time></trkpt><trkpt lat="43.41720506023291" lon="11.883762333857927"><ele>501.0</ele><time>2026-03-29T07:54:13.999Z</time></trkpt><trkpt lat="43.41714004401046" lon="11.883762844271725"><ele>497.5</ele><time>2026-03-29T07:54:16.999Z</time></trkpt><trkpt lat="43.41701685725435" lon="11.883726480339588"><ele>494.0</ele><time>2026-03-29T08:04:24Z</time></trkpt><trkpt lat="43.41693189302362" lon="11.883695034818714"><ele>490.50000000000006</ele><time>2026-03-29T08:04:25Z</time></trkpt><trkpt lat="43.416843396809256" lon="11.88366583984318"><ele>487.0</ele><time>2026-03-29T08:04:26Z</time></trkpt><trkpt lat="43.41675063619297" lon="11.883635693605777"><ele>487.0</ele><time>2026-03-29T08:04:27Z</time></trkpt><trkpt lat="43.41666436124206" lon="11.883607203552698"><ele>487.00000000000006</ele><time>2026-03-29T08:04:27.999Z</time></trkpt><trkpt lat="43.41656993019158" lon="11.883577977204585"><ele>487.00000000000006</ele><time>2026-03-29T08:04:28.999Z</time></trkpt><trkpt lat="43.41646056897854" lon="11.883557617414846"><ele>487.0</ele><time>2026-03-29T08:04:29.999Z</time></trkpt><trkpt lat="43.41634532293674" lon="11.88356687609265"><ele>487.0</ele><time>2026-03-29T08:04:30.999Z</time></trkpt><trkpt lat="43.41623128349628" lon="11.883588200152065"><ele>489.8</ele><time>2026-03-29T08:04:31.999Z</time></trkpt><trkpt lat="43.41612845528104" lon="11.883585407764054"><ele>492.6</ele><time>2026-03-29T08:04:32.999Z</time></trkpt><trkpt lat="43.416032681953794" lon="11.883588476852358"><ele>495.40000000000003</ele><time>2026-03-29T08:04:33.999Z</time></trkpt><trkpt lat="43.41594357993724" lon="11.883589819978797"><ele>498.20000000000005</ele><time>2026-03-29T08:04:34.999Z</time></trkpt><trkpt lat="43.41585246701032" lon="11.883587772594048"><ele>501.0</ele><time>2026-03-29T08:04:35.999Z</time></trkpt><trkpt lat="43.415760440084995" lon="11.883585040676376"><ele>501.0</ele><time>2026-03-29T08:04:36.999Z</time></trkpt><trkpt lat="43.415674176648764" lon="11.883589740592349"><ele>501.0</ele><time>2026-03-29T08:04:37.999Z</time></trkpt><trkpt lat="43.41558727010038" lon="11.883609574557692"><ele>501.0</ele><time>2026-03-29T08:04:38.999Z</time></trkpt><trkpt lat="43.41550256955627" lon="11.883650222257009"><ele>501.0</ele><time>2026-03-29T08:04:39.999Z</time></trkpt><trkpt lat="43.41542201426149" lon="11.883723929840578"><ele>501.0</ele><time>2026-03-29T08:04:40.999Z</time></trkpt><trkpt lat="43.41538021268975" lon="11.883815544176333"><ele>501.0</ele><time>2026-03-29T08:04:41.999Z</time></trkpt><trkpt lat="43.41537573251135" lon="11.883912597140702"><ele>501.0</ele><time>2026-03-29T08:04:42.999Z</time></trkpt><trkpt lat="43.41540460242068" lon="11.884004726518176"><ele>501.0</ele><time>2026-03-29T08:04:43.999Z</time></trkpt><trkpt lat="43.41545244250502" lon="11.884105818360045"><ele>501.0</ele><time>2026-03-29T08:04:44.999Z</time></trkpt><trkpt lat="43.41551133202831" lon="11.884214567791437"><ele>501.0</ele><time>2026-03-29T08:04:45.999Z</time></trkpt><trkpt lat="43.41554493467665" lon="11.884317048814383"><ele>501.0</ele><time>2026-03-29T08:04:46.999Z</time></trkpt><trkpt lat="43.41553628790085" lon="11.884423248530666"><ele>501.0</ele><time>2026-03-29T08:04:47.999Z</time></trkpt><trkpt lat="43.41547682397407" lon="11.884495386641246"><ele>502.8</ele><time>2026-03-29T08:04:48.999Z</time></trkpt><trkpt lat="43.415397243099456" lon="11.884526593513721"><ele>504.6</ele><time>2026-03-29T08:04:49.999Z</time></trkpt><trkpt lat="43.41529996633215" lon="11.884546308348845"><ele>506.4</ele><time>2026-03-29T08:04:50.999Z</time></trkpt><trkpt lat="43.415198023036965" lon="11.88458134651888"><ele>508.2</ele><time>2026-03-29T08:04:51.999Z</time></trkpt><trkpt lat="43.415099540089486" lon="11.884607871292987"><ele>510.0</ele><time>2026-03-29T08:04:52.999Z</time></trkpt><trkpt lat="43.415007587566556" lon="11.884594485138638"><ele>510.0</ele><time>2026-03-29T08:04:53.999Z</time></trkpt><trkpt lat="43.41493695037133" lon="11.884544401626686"><ele>510.0</ele><time>2026-03-29T08:04:54.999Z</time></trkpt><trkpt lat="43.414878103943416" lon="11.884502624571603"><ele>510.0</ele><time>2026-03-29T08:04:55.999Z</time></trkpt><trkpt lat="43.414819076400555" lon="11.884461085574426"><ele>510.0</ele><time>2026-03-29T08:04:56.999Z</time></trkpt><trkpt lat="43.41470940954493" lon="11.884408619308331"><ele>510.0</ele><time>2026-03-29T08:04:58.999Z</time></trkpt><trkpt lat="43.41462842914934" lon="11.884473308299189"><ele>510.0</ele><time>2026-03-29T08:05:00.999Z</time></trkpt><trkpt lat="43.41465034034785" lon="11.884657593331841"><ele>510.0</ele><time>2026-03-29T08:05:02.999Z</time></trkpt><trkpt lat="43.41470509186633" lon="11.884750348923228"><ele>510.0</ele><time>2026-03-29T08:05:03.999Z</time></trkpt><trkpt lat="43.41473997170968" lon="11.884856627901518"><ele>510.0</ele><time>2026-03-29T08:05:04.999Z</time></trkpt><trkpt lat="43.41475100899697" lon="11.884956429911977"><ele>510.0</ele><time>2026-03-29T08:05:05.999Z</time></trkpt><trkpt lat="43.4147047585177" lon="11.885088610339233"><ele>510.0</ele><time>2026-03-29T08:05:07.999Z</time></trkpt><trkpt lat="43.4146294134073" lon="11.885183980681461"><ele>512.0</ele><time>2026-03-29T08:05:09.999Z</time></trkpt><trkpt lat="43.41454730589873" lon="11.88530272778458"><ele>514.0</ele><time>2026-03-29T08:05:11.999Z</time></trkpt><trkpt lat="43.41445335427986" lon="11.88542088039387"><ele>516.0</ele><time>2026-03-29T08:05:13.999Z</time></trkpt><trkpt lat="43.41437932748915" lon="11.88546911006428"><ele>518.0</ele><time>2026-03-29T08:05:14.999Z</time></trkpt><trkpt lat="43.41429122795038" lon="11.885517372483298"><ele>520.0</ele><time>2026-03-29T08:05:15.999Z</time></trkpt><trkpt lat="43.41423172650489" lon="11.8856119733413"><ele>520.0</ele><time>2026-03-29T08:05:16.999Z</time></trkpt><trkpt lat="43.41418798081555" lon="11.885716889419644"><ele>520.0</ele><time>2026-03-29T08:05:17.999Z</time></trkpt><trkpt lat="43.414124423793545" lon="11.885811807854191"><ele>520.0</ele><time>2026-03-29T08:05:18.999Z</time></trkpt><trkpt lat="43.41402596309008" lon="11.885879985556109"><ele>520.0</ele><time>2026-03-29T08:05:19.999Z</time></trkpt><trkpt lat="43.413940681828784" lon="11.885974003647627"><ele>520.0</ele><time>2026-03-29T08:05:20.999Z</time></trkpt><trkpt lat="43.41388665791622" lon="11.886085528416082"><ele>517.8333333333334</ele><time>2026-03-29T08:05:21.999Z</time></trkpt><trkpt lat="43.41389087071277" lon="11.886219268112809"><ele>515.6666666666667</ele><time>2026-03-29T08:05:23.999Z</time></trkpt><trkpt lat="43.41394031416562" lon="11.886274579697664"><ele>513.5</ele><time>2026-03-29T08:05:24.999Z</time></trkpt><trkpt lat="43.41395179366624" lon="11.886367388663324"><ele>511.33333333333337</ele><time>2026-03-29T08:05:25.999Z</time></trkpt><trkpt lat="43.41391335273909" lon="11.88646968404158"><ele>509.1666666666667</ele><time>2026-03-29T08:05:26.999Z</time></trkpt><trkpt lat="43.413835159962744" lon="11.886513332756465"><ele>507.0</ele><time>2026-03-29T08:05:27.999Z</time></trkpt><trkpt lat="43.41375688670142" lon="11.886564115896123"><ele>510.8</ele><time>2026-03-29T08:05:28.999Z</time></trkpt><trkpt lat="43.41371729847443" lon="11.886640009896169"><ele>514.6</ele><time>2026-03-29T08:05:29.998Z</time></trkpt><trkpt lat="43.413706275378246" lon="11.886735442494793"><ele>518.4000000000001</ele><time>2026-03-29T08:05:30.998Z</time></trkpt><trkpt lat="43.413639716490366" lon="11.886837158678267"><ele>522.2</ele><time>2026-03-29T08:05:31.998Z</time></trkpt><trkpt lat="43.41355100932145" lon="11.886936980890367"><ele>526.0</ele><time>2026-03-29T08:05:32.998Z</time></trkpt><trkpt lat="43.41343210561592" lon="11.887030892743532"><ele>526.0</ele><time>2026-03-29T08:05:33.998Z</time></trkpt><trkpt lat="43.41333831017413" lon="11.887129939664769"><ele>526.0</ele><time>2026-03-29T08:05:34.998Z</time></trkpt><trkpt lat="43.413253029570974" lon="11.887212231818468"><ele>526.0</ele><time>2026-03-29T08:05:35.998Z</time></trkpt><trkpt lat="43.4131659708434" lon="11.887286110613166"><ele>526.0</ele><time>2026-03-29T08:05:36.998Z</time></trkpt><trkpt lat="43.41308887412226" lon="11.887411367901999"><ele>526.0</ele><time>2026-03-29T08:05:37.998Z</time></trkpt><trkpt lat="43.413025547623064" lon="11.887557500196515"><ele>528.4</ele><time>2026-03-29T08:05:38.998Z</time></trkpt><trkpt lat="43.412941882681814" lon="11.88770905802312"><ele>530.8</ele><time>2026-03-29T08:05:39.998Z</time></trkpt><trkpt lat="43.412861751960534" lon="11.887825624183817"><ele>533.1999999999999</ele><time>2026-03-29T08:05:40.998Z</time></trkpt><trkpt lat="43.412809048830205" lon="11.88794222079806"><ele>535.6</ele><time>2026-03-29T08:05:41.998Z</time></trkpt><trkpt lat="43.412747251536864" lon="11.888026772113982"><ele>538.0</ele><time>2026-03-29T08:05:43.998Z</time></trkpt><trkpt lat="43.41278706835476" lon="11.88813593711324"><ele>538.0</ele><time>2026-03-29T08:05:46.998Z</time></trkpt><trkpt lat="43.41291060607143" lon="11.888139894692248"><ele>538.0</ele><time>2026-03-29T08:05:49Z</time></trkpt><trkpt lat="43.41303104423099" lon="11.888070581109046"><ele>538.0</ele><time>2026-03-29T08:05:51Z</time></trkpt><trkpt lat="43.41309614509204" lon="11.888045563057943"><ele>538.0</ele><time>2026-03-29T08:05:52Z</time></trkpt><trkpt lat="43.413169023342824" lon="11.888091250609689"><ele>538.0</ele><time>2026-03-29T08:05:54Z</time></trkpt><trkpt lat="43.413084754197996" lon="11.888182007226312"><ele>538.0</ele><time>2026-03-29T08:05:56Z</time></trkpt><trkpt lat="43.4130042089663" lon="11.888223861406683"><ele>538.0</ele><time>2026-03-29T08:05:57Z</time></trkpt><trkpt lat="43.41294744698841" lon="11.888282629413201"><ele>538.0</ele><time>2026-03-29T08:05:58Z</time></trkpt><trkpt lat="43.41290373271893" lon="11.888369088054981"><ele>538.0</ele><time>2026-03-29T08:05:59Z</time></trkpt><trkpt lat="43.41277947569811" lon="11.888377176669167"><ele>538.0</ele><time>2026-03-29T08:06:01Z</time></trkpt><trkpt lat="43.41271565386166" lon="11.888343131246124"><ele>538.0</ele><time>2026-03-29T08:06:02Z</time></trkpt><trkpt lat="43.41265236296415" lon="11.888374919677082"><ele>539.1999999999999</ele><time>2026-03-29T08:06:03Z</time></trkpt><trkpt lat="43.41259776500056" lon="11.888443021293735"><ele>540.4</ele><time>2026-03-29T08:06:04Z</time></trkpt><trkpt lat="43.412571459055364" lon="11.888612796120022"><ele>541.5999999999999</ele><time>2026-03-29T08:06:06Z</time></trkpt><trkpt lat="43.41257954378902" lon="11.888744891389452"><ele>542.8</ele><time>2026-03-29T08:06:07Z</time></trkpt><trkpt lat="43.41258978450458" lon="11.888879526500096"><ele>544.0</ele><time>2026-03-29T08:06:08Z</time></trkpt><trkpt lat="43.41259813998963" lon="11.889015281407412"><ele>544.0</ele><time>2026-03-29T08:06:09Z</time></trkpt><trkpt lat="43.41261109081352" lon="11.889192298822213"><ele>544.0</ele><time>2026-03-29T08:06:10Z</time></trkpt><trkpt lat="43.412626841431226" lon="11.889351799123862"><ele>544.0</ele><time>2026-03-29T08:06:11Z</time></trkpt><trkpt lat="43.41263483193161" lon="11.88948261544359"><ele>544.0</ele><time>2026-03-29T08:06:12Z</time></trkpt><trkpt lat="43.412627516011725" lon="11.889577149269094"><ele>544.0</ele><time>2026-03-29T08:06:13Z</time></trkpt><trkpt lat="43.412563163704036" lon="11.889659584841215"><ele>545.3333333333334</ele><time>2026-03-29T08:06:15Z</time></trkpt><trkpt lat="43.412497225616534" lon="11.889676734786459"><ele>546.6666666666667</ele><time>2026-03-29T08:06:16Z</time></trkpt><trkpt lat="43.412417962942655" lon="11.889668602406195"><ele>548.0</ele><time>2026-03-29T08:06:17Z</time></trkpt><trkpt lat="43.412342993501525" lon="11.889663348033105"><ele>549.3333333333334</ele><time>2026-03-29T08:06:18Z</time></trkpt><trkpt lat="43.41229289410121" lon="11.889759692438034"><ele>550.6666666666666</ele><time>2026-03-29T08:06:20Z</time></trkpt><trkpt lat="43.41234497118071" lon="11.889929688554139"><ele>552.0</ele><time>2026-03-29T08:06:22Z</time></trkpt><trkpt lat="43.41241262344641" lon="11.890050620823125"><ele>555.0</ele><time>2026-03-29T08:06:23Z</time></trkpt><trkpt lat="43.41247659057687" lon="11.89017130710325"><ele>558.0</ele><time>2026-03-29T08:06:24Z</time></trkpt><trkpt lat="43.412550272497114" lon="11.890282801412303"><ele>561.0</ele><time>2026-03-29T08:06:25Z</time></trkpt><trkpt lat="43.41260902370513" lon="11.89037218066299"><ele>564.0</ele><time>2026-03-29T08:06:26Z</time></trkpt><trkpt lat="43.41263246557361" lon="11.890499232589082"><ele>567.0</ele><time>2026-03-29T08:06:28Z</time></trkpt><trkpt lat="43.41269606949505" lon="11.890565746775557"><ele>567.0</ele><time>2026-03-29T08:06:30Z</time></trkpt><trkpt lat="43.41276185298024" lon="11.890618117739876"><ele>567.0</ele><time>2026-03-29T08:06:31Z</time></trkpt><trkpt lat="43.41280222038573" lon="11.890715035797475"><ele>567.0</ele><time>2026-03-29T08:06:32Z</time></trkpt><trkpt lat="43.4128336009152" lon="11.890842661504465"><ele>567.0</ele><time>2026-03-29T08:06:33Z</time></trkpt><trkpt lat="43.41285541669547" lon="11.890968261047307"><ele>567.0</ele><time>2026-03-29T08:06:34Z</time></trkpt><trkpt lat="43.4128616631927" lon="11.891057174084485"><ele>567.0</ele><time>2026-03-29T08:06:34.999Z</time></trkpt><trkpt lat="43.41291253875106" lon="11.891179987576066"><ele>567.4</ele><time>2026-03-29T08:06:44.999Z</time></trkpt><trkpt lat="43.412945566229766" lon="11.891302449554859"><ele>567.8000000000001</ele><time>2026-03-29T08:06:48.999Z</time></trkpt><trkpt lat="43.412975584754534" lon="11.891438111324945"><ele>568.2</ele><time>2026-03-29T08:06:50.999Z</time></trkpt><trkpt lat="43.41298322687905" lon="11.891546085184629"><ele>568.6</ele><time>2026-03-29T08:06:52.999Z</time></trkpt><trkpt lat="43.41299357678313" lon="11.891671297628143"><ele>569.0</ele><time>2026-03-29T08:06:54.999Z</time></trkpt><trkpt lat="43.41301822214781" lon="11.891814928807369"><ele>569.0</ele><time>2026-03-29T08:06:56.999Z</time></trkpt><trkpt lat="43.413047260228375" lon="11.89189583749316"><ele>569.0</ele><time>2026-03-29T08:06:58.999Z</time></trkpt><trkpt lat="43.41298464626711" lon="11.891967644637782"><ele>569.0</ele><time>2026-03-29T08:07:01.999Z</time></trkpt><trkpt lat="43.412875250804" lon="11.891954025479482"><ele>569.0</ele><time>2026-03-29T08:07:03.999Z</time></trkpt><trkpt lat="43.41279550141372" lon="11.891927952552686"><ele>569.0</ele><time>2026-03-29T08:07:04.999Z</time></trkpt><trkpt lat="43.41271463912349" lon="11.891897068168973"><ele>569.0</ele><time>2026-03-29T08:07:05.999Z</time></trkpt><trkpt lat="43.41262553608653" lon="11.891886036633592"><ele>574.25</ele><time>2026-03-29T08:07:06.999Z</time></trkpt><trkpt lat="43.412518262920166" lon="11.891879756978827"><ele>579.5</ele><time>2026-03-29T08:07:07.999Z</time></trkpt><trkpt lat="43.41240014773264" lon="11.891862226276382"><ele>584.75</ele><time>2026-03-29T08:07:08.999Z</time></trkpt><trkpt lat="43.412281039522036" lon="11.89181887526067"><ele>590.0</ele><time>2026-03-29T08:07:09.999Z</time></trkpt><trkpt lat="43.412170001446455" lon="11.891781569842514"><ele>591.6666666666666</ele><time>2026-03-29T08:07:10.999Z</time></trkpt><trkpt lat="43.41206107380384" lon="11.89173447741435"><ele>593.3333333333333</ele><time>2026-03-29T08:07:11.999Z</time></trkpt><trkpt lat="43.41196077267181" lon="11.891681169269257"><ele>595.0</ele><time>2026-03-29T08:07:12.999Z</time></trkpt><trkpt lat="43.411886624816695" lon="11.891682280579536"><ele>596.6666666666666</ele><time>2026-03-29T08:07:13.999Z</time></trkpt><trkpt lat="43.411831471871736" lon="11.89173479925378"><ele>598.3333333333334</ele><time>2026-03-29T08:07:14.999Z</time></trkpt><trkpt lat="43.41176336986604" lon="11.891793435569959"><ele>600.0</ele><time>2026-03-29T08:07:15.999Z</time></trkpt><trkpt lat="43.41168449448103" lon="11.891860240431418"><ele>601.5</ele><time>2026-03-29T08:07:16.999Z</time></trkpt><trkpt lat="43.411604743748875" lon="11.891909872537088"><ele>603.0</ele><time>2026-03-29T08:07:17.999Z</time></trkpt><trkpt lat="43.41151269287998" lon="11.891947599524737"><ele>604.5</ele><time>2026-03-29T08:07:18.999Z</time></trkpt><trkpt lat="43.41143455254439" lon="11.891971232220314"><ele>606.0</ele><time>2026-03-29T08:07:19.999Z</time></trkpt><trkpt lat="43.411356922851674" lon="11.892006254841618"><ele>607.5</ele><time>2026-03-29T08:07:20.999Z</time></trkpt><trkpt lat="43.41127589557171" lon="11.892043526451255"><ele>609.0</ele><time>2026-03-29T08:07:21.999Z</time></trkpt><trkpt lat="43.41119248533498" lon="11.892067454335033"><ele>611.0</ele><time>2026-03-29T08:07:22.999Z</time></trkpt><trkpt lat="43.41110974892284" lon="11.892088656875138"><ele>613.0</ele><time>2026-03-29T08:07:23.999Z</time></trkpt><trkpt lat="43.411031855537615" lon="11.892086471365227"><ele>615.0</ele><time>2026-03-29T08:07:24.999Z</time></trkpt><trkpt lat="43.41093751130784" lon="11.892053233726184"><ele>617.0</ele><time>2026-03-29T08:07:25.999Z</time></trkpt><trkpt lat="43.41087686777912" lon="11.892024382859367"><ele>619.0</ele><time>2026-03-29T08:07:26.999Z</time></trkpt><trkpt lat="43.410797258724" lon="11.891989006442724"><ele>621.0</ele><time>2026-03-29T08:07:27.999Z</time></trkpt><trkpt lat="43.41072948837103" lon="11.89196770608942"><ele>620.9999999999999</ele><time>2026-03-29T08:07:28.999Z</time></trkpt><trkpt lat="43.41065757373955" lon="11.891942948343834"><ele>621.0</ele><time>2026-03-29T08:07:29.999Z</time></trkpt><trkpt lat="43.410586015336825" lon="11.891925986376656"><ele>621.0</ele><time>2026-03-29T08:07:30.999Z</time></trkpt><trkpt lat="43.41052291954037" lon="11.89190919132947"><ele>621.0</ele><time>2026-03-29T08:07:32.999Z</time></trkpt><trkpt lat="43.41044290784451" lon="11.89189257614365"><ele>621.0</ele><time>2026-03-29T08:07:35.998Z</time></trkpt><trkpt lat="43.41036050520891" lon="11.891882418049017"><ele>620.9999999999999</ele><time>2026-03-29T08:07:39.998Z</time></trkpt><trkpt lat="43.41029296804974" lon="11.891861818519633"><ele>621.0</ele><time>2026-03-29T08:07:44.998Z</time></trkpt><trkpt lat="43.41022067824292" lon="11.891895364636552"><ele>622.1666666666666</ele><time>2026-03-29T08:07:48.998Z</time></trkpt><trkpt lat="43.41014354933357" lon="11.891924912896584"><ele>623.3333333333334</ele><time>2026-03-29T08:07:50.998Z</time></trkpt><trkpt lat="43.41005688039276" lon="11.891951900264173"><ele>624.5</ele><time>2026-03-29T08:08:49.999Z</time></trkpt><trkpt lat="43.409998469365725" lon="11.891986363110016"><ele>625.6666666666667</ele><time>2026-03-29T08:08:50.999Z</time></trkpt><trkpt lat="43.40993206392268" lon="11.892043838955676"><ele>626.8333333333334</ele><time>2026-03-29T08:08:51.999Z</time></trkpt><trkpt lat="43.409846345922595" lon="11.89208791932047"><ele>628.0</ele><time>2026-03-29T08:08:52.999Z</time></trkpt><trkpt lat="43.409760062843034" lon="11.892149453243457"><ele>628.0</ele><time>2026-03-29T08:08:53.999Z</time></trkpt><trkpt lat="43.40968583428409" lon="11.892192465375388"><ele>628.0</ele><time>2026-03-29T08:08:54.999Z</time></trkpt><trkpt lat="43.40956227882729" lon="11.892190807639272"><ele>628.0</ele><time>2026-03-29T08:08:56.999Z</time></trkpt><trkpt lat="43.40948859218363" lon="11.892156264852922"><ele>628.0</ele><time>2026-03-29T08:08:57.999Z</time></trkpt><trkpt lat="43.40942446720803" lon="11.892156539608004"><ele>628.0</ele><time>2026-03-29T08:08:59.999Z</time></trkpt><trkpt lat="43.40950726898135" lon="11.892239901747985"><ele>628.0</ele><time>2026-03-29T08:09:03.999Z</time></trkpt><trkpt lat="43.40960936610259" lon="11.892277579896508"><ele>628.0</ele><time>2026-03-29T08:09:05.999Z</time></trkpt><trkpt lat="43.40966472947843" lon="11.892366991234576"><ele>628.0</ele><time>2026-03-29T08:09:07.999Z</time></trkpt><trkpt lat="43.40960931530318" lon="11.892457601685201"><ele>628.0</ele><time>2026-03-29T08:09:09.999Z</time></trkpt><trkpt lat="43.40952340404289" lon="11.892528491116941"><ele>628.0</ele><time>2026-03-29T08:09:11.999Z</time></trkpt><trkpt lat="43.40943434106082" lon="11.892555775589324"><ele>628.0</ele><time>2026-03-29T08:09:13.999Z</time></trkpt><trkpt lat="43.40941561057311" lon="11.892667472086885"><ele>628.0</ele><time>2026-03-29T08:09:15.999Z</time></trkpt><trkpt lat="43.409526755148164" lon="11.892685548708942"><ele>629.8</ele><time>2026-03-29T08:09:17.999Z</time></trkpt><trkpt lat="43.409624462017995" lon="11.892697998091126"><ele>631.5999999999999</ele><time>2026-03-29T08:09:19.999Z</time></trkpt><trkpt lat="43.40968514572871" lon="11.892780562688706"><ele>633.4000000000001</ele><time>2026-03-29T08:09:21.999Z</time></trkpt><trkpt lat="43.40977229180451" lon="11.89285825716873"><ele>635.2</ele><time>2026-03-29T08:10:25Z</time></trkpt><trkpt lat="43.4098229497289" lon="11.892961726306485"><ele>637.0</ele><time>2026-03-29T08:10:26Z</time></trkpt><trkpt lat="43.409859839849446" lon="11.89305979913045"><ele>637.0</ele><time>2026-03-29T08:10:27Z</time></trkpt><trkpt lat="43.40991755911063" lon="11.893199438234316"><ele>637.0</ele><time>2026-03-29T08:10:29Z</time></trkpt><trkpt lat="43.40996794452161" lon="11.893354226274806"><ele>637.0</ele><time>2026-03-29T08:10:31Z</time></trkpt><trkpt lat="43.41002050192545" lon="11.8934605796022"><ele>637.0</ele><time>2026-03-29T08:10:32Z</time></trkpt><trkpt lat="43.41010109707761" lon="11.893554511616351"><ele>637.0</ele><time>2026-03-29T08:10:33Z</time></trkpt><trkpt lat="43.41019453186211" lon="11.893642319443504"><ele>638.0</ele><time>2026-03-29T08:10:34Z</time></trkpt><trkpt lat="43.41028411252077" lon="11.893738661980024"><ele>639.0</ele><time>2026-03-29T08:10:35Z</time></trkpt><trkpt lat="43.41033924878483" lon="11.893813772964739"><ele>640.0</ele><time>2026-03-29T08:10:36Z</time></trkpt><trkpt lat="43.41036140579955" lon="11.893903309284967"><ele>641.0</ele><time>2026-03-29T08:10:37Z</time></trkpt><trkpt lat="43.410365603708506" lon="11.894023882586884"><ele>642.0</ele><time>2026-03-29T08:10:38Z</time></trkpt><trkpt lat="43.41037380282733" lon="11.894148298541312"><ele>643.0</ele><time>2026-03-29T08:10:39Z</time></trkpt><trkpt lat="43.410364353159245" lon="11.894250487369165"><ele>642.4</ele><time>2026-03-29T08:10:40Z</time></trkpt><trkpt lat="43.410262767984186" lon="11.894344768308269"><ele>641.8</ele><time>2026-03-29T08:10:42Z</time></trkpt><trkpt lat="43.41019565184852" lon="11.894493087298455"><ele>641.2</ele><time>2026-03-29T08:10:44Z</time></trkpt><trkpt lat="43.41015821387475" lon="11.894563705727167"><ele>640.6</ele><time>2026-03-29T08:10:45Z</time></trkpt><trkpt lat="43.41010725525126" lon="11.894656266078684"><ele>640.0</ele><time>2026-03-29T08:10:47Z</time></trkpt><trkpt lat="43.410160253938386" lon="11.894732650504476"><ele>640.0</ele><time>2026-03-29T08:10:47.999Z</time></trkpt><trkpt lat="43.41023814315944" lon="11.894840515335265"><ele>640.0</ele><time>2026-03-29T08:10:48.999Z</time></trkpt><trkpt lat="43.41028627142944" lon="11.894931377905968"><ele>640.0</ele><time>2026-03-29T08:10:49.999Z</time></trkpt><trkpt lat="43.410304120096676" lon="11.895037268964503"><ele>640.0</ele><time>2026-03-29T08:10:50.999Z</time></trkpt><trkpt lat="43.410288112807926" lon="11.895185016813862"><ele>640.0</ele><time>2026-03-29T08:10:52.999Z</time></trkpt><trkpt lat="43.41034505607445" lon="11.895313116620338"><ele>638.8333333333334</ele><time>2026-03-29T08:10:54.999Z</time></trkpt><trkpt lat="43.41033391116736" lon="11.895419322040631"><ele>637.6666666666667</ele><time>2026-03-29T08:10:55.999Z</time></trkpt><trkpt lat="43.410278854928656" lon="11.895461677362212"><ele>636.5</ele><time>2026-03-29T08:10:56.999Z</time></trkpt><trkpt lat="43.41019608098292" lon="11.89544266424126"><ele>635.3333333333334</ele><time>2026-03-29T08:10:57.999Z</time></trkpt><trkpt lat="43.41009548256607" lon="11.895417711624297"><ele>634.1666666666666</ele><time>2026-03-29T08:10:58.999Z</time></trkpt><trkpt lat="43.41000289649485" lon="11.895443768546192"><ele>633.0</ele><time>2026-03-29T08:10:59.999Z</time></trkpt><trkpt lat="43.40990009425269" lon="11.895494960611323"><ele>633.0</ele><time>2026-03-29T08:11:00.999Z</time></trkpt><trkpt lat="43.409793420359044" lon="11.895506860447588"><ele>633.0</ele><time>2026-03-29T08:11:01.999Z</time></trkpt><trkpt lat="43.40972243349044" lon="11.895453066974722"><ele>633.0</ele><time>2026-03-29T08:11:02.999Z</time></trkpt><trkpt lat="43.40963588558735" lon="11.895434007966772"><ele>633.0</ele><time>2026-03-29T08:11:04.999Z</time></trkpt><trkpt lat="43.409588607298865" lon="11.895527049169248"><ele>633.0</ele><time>2026-03-29T08:11:05.999Z</time></trkpt><trkpt lat="43.4095392122597" lon="11.895668890407615"><ele>633.6</ele><time>2026-03-29T08:11:06.999Z</time></trkpt><trkpt lat="43.40949472948413" lon="11.895772962518395"><ele>634.1999999999999</ele><time>2026-03-29T08:11:07.999Z</time></trkpt><trkpt lat="43.409414924920185" lon="11.895849587332773"><ele>634.8</ele><time>2026-03-29T08:11:08.999Z</time></trkpt><trkpt lat="43.40934735615979" lon="11.895942045223153"><ele>635.4</ele><time>2026-03-29T08:11:09.999Z</time></trkpt><trkpt lat="43.409292079255685" lon="11.896046030995825"><ele>636.0</ele><time>2026-03-29T08:11:10.999Z</time></trkpt><trkpt lat="43.40927108894385" lon="11.896157885670068"><ele>636.0</ele><time>2026-03-29T08:11:11.999Z</time></trkpt><trkpt lat="43.40925466027195" lon="11.896282318826486"><ele>636.0</ele><time>2026-03-29T08:11:12.999Z</time></trkpt><trkpt lat="43.409200796534904" lon="11.896400754711323"><ele>636.0</ele><time>2026-03-29T08:11:13.999Z</time></trkpt><trkpt lat="43.40912306024843" lon="11.896504665445022"><ele>636.0</ele><time>2026-03-29T08:11:14.999Z</time></trkpt><trkpt lat="43.40904263306048" lon="11.896572913018268"><ele>636.0</ele><time>2026-03-29T08:11:15.999Z</time></trkpt><trkpt lat="43.40897067582894" lon="11.896627257877523"><ele>636.0</ele><time>2026-03-29T08:11:16.999Z</time></trkpt><trkpt lat="43.408913180580285" lon="11.896740016431204"><ele>636.0</ele><time>2026-03-29T08:11:17.999Z</time></trkpt><trkpt lat="43.40885650325252" lon="11.896855977667956"><ele>636.0</ele><time>2026-03-29T08:11:18.999Z</time></trkpt><trkpt lat="43.40879168505112" lon="11.89691721704533"><ele>636.0</ele><time>2026-03-29T08:11:19.999Z</time></trkpt><trkpt lat="43.408729875024605" lon="11.897030198285425"><ele>636.0</ele><time>2026-03-29T08:11:20.999Z</time></trkpt><trkpt lat="43.408653126380386" lon="11.897143777399894"><ele>634.6666666666666</ele><time>2026-03-29T08:11:21.999Z</time></trkpt><trkpt lat="43.408574958973055" lon="11.897185150437355"><ele>633.3333333333334</ele><time>2026-03-29T08:11:22.999Z</time></trkpt><trkpt lat="43.4085107539358" lon="11.897210108772356"><ele>632.0</ele><time>2026-03-29T08:11:23.999Z</time></trkpt><trkpt lat="43.40843269580552" lon="11.89725107922503"><ele>630.6666666666667</ele><time>2026-03-29T08:11:24.999Z</time></trkpt><trkpt lat="43.40831032664559" lon="11.897260911835556"><ele>629.3333333333334</ele><time>2026-03-29T08:11:26.999Z</time></trkpt><trkpt lat="43.40824694876681" lon="11.897211883866333"><ele>628.0</ele><time>2026-03-29T08:11:27.999Z</time></trkpt><trkpt lat="43.40813374933306" lon="11.89729979163017"><ele>628.0</ele><time>2026-03-29T08:11:29.999Z</time></trkpt><trkpt lat="43.40805354957161" lon="11.897386416214019"><ele>628.0</ele><time>2026-03-29T08:11:30.999Z</time></trkpt><trkpt lat="43.407970185015614" lon="11.897424603113292"><ele>628.0</ele><time>2026-03-29T08:11:31.999Z</time></trkpt><trkpt lat="43.407866872544005" lon="11.897435143524767"><ele>628.0</ele><time>2026-03-29T08:11:32.999Z</time></trkpt><trkpt lat="43.407779904639796" lon="11.897436980043862"><ele>628.0</ele><time>2026-03-29T08:11:33.999Z</time></trkpt><trkpt lat="43.40770196629054" lon="11.897420000489806"><ele>627.0</ele><time>2026-03-29T08:11:34.999Z</time></trkpt><trkpt lat="43.40762297512098" lon="11.897396866830963"><ele>626.0</ele><time>2026-03-29T08:11:35.999Z</time></trkpt><trkpt lat="43.407557976595285" lon="11.897371335919818"><ele>625.0</ele><time>2026-03-29T08:11:36.999Z</time></trkpt><trkpt lat="43.4074607011891" lon="11.897361552534843"><ele>624.0</ele><time>2026-03-29T08:11:38.999Z</time></trkpt><trkpt lat="43.40743932953876" lon="11.897569419109308"><ele>623.0</ele><time>2026-03-29T08:11:40.999Z</time></trkpt><trkpt lat="43.40744753373569" lon="11.897726141058381"><ele>623.0</ele><time>2026-03-29T08:11:41.999Z</time></trkpt><trkpt lat="43.40745814280491" lon="11.897880136353193"><ele>623.0</ele><time>2026-03-29T08:11:42.999Z</time></trkpt><trkpt lat="43.40745371838524" lon="11.898045485505271"><ele>623.0</ele><time>2026-03-29T08:11:43.999Z</time></trkpt><trkpt lat="43.40744344386102" lon="11.898203356137628"><ele>623.0</ele><time>2026-03-29T08:11:44.999Z</time></trkpt><trkpt lat="43.407416003525114" lon="11.898296307897278"><ele>623.0</ele><time>2026-03-29T08:11:45.999Z</time></trkpt><trkpt lat="43.40728530687815" lon="11.898329491002576"><ele>623.0</ele><time>2026-03-29T08:11:47.999Z</time></trkpt><trkpt lat="43.40716091006215" lon="11.898356827862573"><ele>623.0</ele><time>2026-03-29T08:11:48.999Z</time></trkpt><trkpt lat="43.40701309385974" lon="11.898360791920272"><ele>623.0</ele><time>2026-03-29T08:11:49.998Z</time></trkpt><trkpt lat="43.40688588289132" lon="11.898397253385646"><ele>623.0</ele><time>2026-03-29T08:11:50.998Z</time></trkpt><trkpt lat="43.406794628450086" lon="11.898414701776863"><ele>622.1999999999999</ele><time>2026-03-29T08:11:51.998Z</time></trkpt><trkpt lat="43.40667325441223" lon="11.898411034375771"><ele>621.4</ele><time>2026-03-29T08:11:53.998Z</time></trkpt><trkpt lat="43.4065984819602" lon="11.898492100535114"><ele>620.5999999999999</ele><time>2026-03-29T08:11:54.998Z</time></trkpt><trkpt lat="43.406531077378396" lon="11.898543105130035"><ele>619.8</ele><time>2026-03-29T08:11:55.998Z</time></trkpt><trkpt lat="43.4064535796837" lon="11.898575372264204"><ele>619.0</ele><time>2026-03-29T08:11:56.998Z</time></trkpt><trkpt lat="43.406372165603536" lon="11.898635779031116"><ele>619.2</ele><time>2026-03-29T08:11:57.998Z</time></trkpt><trkpt lat="43.40629314572905" lon="11.8987087367727"><ele>619.4</ele><time>2026-03-29T08:11:58.998Z</time></trkpt><trkpt lat="43.406164470983164" lon="11.898736539462432"><ele>619.6</ele><time>2026-03-29T08:12:00.998Z</time></trkpt><trkpt lat="43.40605922362327" lon="11.898731847572387"><ele>619.8</ele><time>2026-03-29T08:12:01.998Z</time></trkpt><trkpt lat="43.405945489705736" lon="11.898718201730347"><ele>620.0</ele><time>2026-03-29T08:12:02.998Z</time></trkpt><trkpt lat="43.40585980497085" lon="11.898694025964062"><ele>620.0</ele><time>2026-03-29T08:12:03.998Z</time></trkpt><trkpt lat="43.405786299966145" lon="11.898641487936299"><ele>620.0</ele><time>2026-03-29T08:12:04.998Z</time></trkpt><trkpt lat="43.40567643381542" lon="11.898579076499404"><ele>620.0</ele><time>2026-03-29T08:12:07Z</time></trkpt><trkpt lat="43.405618174218105" lon="11.898522343033912"><ele>620.0</ele><time>2026-03-29T08:12:08Z</time></trkpt><trkpt lat="43.40556687276842" lon="11.89845441981302"><ele>620.0</ele><time>2026-03-29T08:12:09Z</time></trkpt><trkpt lat="43.405484419668724" lon="11.89832439848749"><ele>621.4285714285714</ele><time>2026-03-29T08:12:11Z</time></trkpt><trkpt lat="43.405443138962" lon="11.89825274490986"><ele>622.8571428571429</ele><time>2026-03-29T08:12:12Z</time></trkpt><trkpt lat="43.40540804844362" lon="11.898150983650895"><ele>624.2857142857142</ele><time>2026-03-29T08:12:13Z</time></trkpt><trkpt lat="43.40537546464735" lon="11.898057821412573"><ele>625.7142857142858</ele><time>2026-03-29T08:12:14Z</time></trkpt><trkpt lat="43.40533579024328" lon="11.897951851352913"><ele>627.1428571428571</ele><time>2026-03-29T08:12:15Z</time></trkpt><trkpt lat="43.40529555784544" lon="11.897869437005845"><ele>628.5714285714286</ele><time>2026-03-29T08:12:16Z</time></trkpt><trkpt lat="43.405249815364456" lon="11.897804534319489"><ele>630.0</ele><time>2026-03-29T08:12:17Z</time></trkpt><trkpt lat="43.40515087095391" lon="11.897818187322219"><ele>630.0</ele><time>2026-03-29T08:12:19Z</time></trkpt><trkpt lat="43.40509278798611" lon="11.89788110142109"><ele>630.0</ele><time>2026-03-29T08:12:20Z</time></trkpt><trkpt lat="43.40501101525543" lon="11.897918575041745"><ele>630.0</ele><time>2026-03-29T08:12:21Z</time></trkpt><trkpt lat="43.40491552107138" lon="11.897935593984506"><ele>630.0</ele><time>2026-03-29T08:12:22Z</time></trkpt><trkpt lat="43.40481940957314" lon="11.897941943042428"><ele>630.0</ele><time>2026-03-29T08:12:23Z</time></trkpt><trkpt lat="43.40474880727127" lon="11.897904374301026"><ele>630.0</ele><time>2026-03-29T08:12:24Z</time></trkpt><trkpt lat="43.404650925778675" lon="11.897913192443927"><ele>632.0</ele><time>2026-03-29T08:12:26Z</time></trkpt><trkpt lat="43.404642233708856" lon="11.898084543919788"><ele>634.0</ele><time>2026-03-29T08:12:28Z</time></trkpt><trkpt lat="43.40460774764487" lon="11.898176436051001"><ele>636.0</ele><time>2026-03-29T08:12:29Z</time></trkpt><trkpt lat="43.40457505021674" lon="11.898328477020286"><ele>638.0</ele><time>2026-03-29T08:12:30Z</time></trkpt><trkpt lat="43.40454097964921" lon="11.89848479012348"><ele>640.0</ele><time>2026-03-29T08:12:31Z</time></trkpt><trkpt lat="43.404515327286425" lon="11.898582039001083"><ele>640.0</ele><time>2026-03-29T08:12:32Z</time></trkpt><trkpt lat="43.40446127467948" lon="11.89864503014227"><ele>640.0</ele><time>2026-03-29T08:12:33Z</time></trkpt><trkpt lat="43.404391846332295" lon="11.89870777572624"><ele>640.0</ele><time>2026-03-29T08:12:34Z</time></trkpt><trkpt lat="43.40430026635465" lon="11.898744098936561"><ele>640.0</ele><time>2026-03-29T08:12:36Z</time></trkpt><trkpt lat="43.40422132269287" lon="11.89872171089241"><ele>640.0</ele><time>2026-03-29T08:12:37Z</time></trkpt><trkpt lat="43.40414759145928" lon="11.898691983049009"><ele>640.0</ele><time>2026-03-29T08:12:38Z</time></trkpt><trkpt lat="43.404064419468554" lon="11.898616310663277"><ele>640.0</ele><time>2026-03-29T08:12:39Z</time></trkpt><trkpt lat="43.40399556977833" lon="11.898556628984917"><ele>640.0</ele><time>2026-03-29T08:12:40Z</time></trkpt><trkpt lat="43.40393268097423" lon="11.898611393246762"><ele>640.0</ele><time>2026-03-29T08:12:42Z</time></trkpt><trkpt lat="43.403949447182924" lon="11.898766513288338"><ele>640.0</ele><time>2026-03-29T08:12:44Z</time></trkpt><trkpt lat="43.40390116749706" lon="11.898856068497013"><ele>640.0</ele><time>2026-03-29T08:12:46Z</time></trkpt><trkpt lat="43.40377470762454" lon="11.898899278963707"><ele>641.4</ele><time>2026-03-29T08:12:48Z</time></trkpt><trkpt lat="43.40372744130988" lon="11.899005230298174"><ele>642.8</ele><time>2026-03-29T08:12:49Z</time></trkpt><trkpt lat="43.40369686636134" lon="11.899108173530935"><ele>644.2</ele><time>2026-03-29T08:12:50Z</time></trkpt><trkpt lat="43.40357427765098" lon="11.899155587822987"><ele>645.6</ele><time>2026-03-29T08:12:51.999Z</time></trkpt><trkpt lat="43.40347448048212" lon="11.899165307949916"><ele>647.0</ele><time>2026-03-29T08:12:52.999Z</time></trkpt><trkpt lat="43.403377281220926" lon="11.899201227188627"><ele>647.0</ele><time>2026-03-29T08:12:53.999Z</time></trkpt><trkpt lat="43.40330207410149" lon="11.899232212391537"><ele>647.0</ele><time>2026-03-29T08:12:54.999Z</time></trkpt><trkpt lat="43.40322665986158" lon="11.899235555133576"><ele>647.0</ele><time>2026-03-29T08:12:55.999Z</time></trkpt><trkpt lat="43.40316269890609" lon="11.899191492675424"><ele>647.0</ele><time>2026-03-29T08:12:56.999Z</time></trkpt><trkpt lat="43.40309204023683" lon="11.89912098306734"><ele>647.0</ele><time>2026-03-29T08:12:57.999Z</time></trkpt><trkpt lat="43.403025361346835" lon="11.899108487614818"><ele>647.0</ele><time>2026-03-29T08:12:58.999Z</time></trkpt><trkpt lat="43.40294196877036" lon="11.899160990124631"><ele>647.5</ele><time>2026-03-29T08:12:59.999Z</time></trkpt><trkpt lat="43.40285550993366" lon="11.899204435540332"><ele>648.0</ele><time>2026-03-29T08:13:00.999Z</time></trkpt><trkpt lat="43.4027767344481" lon="11.899259447584896"><ele>648.5</ele><time>2026-03-29T08:13:01.999Z</time></trkpt><trkpt lat="43.40270470182091" lon="11.899311166541787"><ele>649.0</ele><time>2026-03-29T08:13:02.999Z</time></trkpt><trkpt lat="43.40264079440337" lon="11.899368861709453"><ele>649.5</ele><time>2026-03-29T08:13:03.999Z</time></trkpt><trkpt lat="43.40258506038611" lon="11.899425193401344"><ele>650.0</ele><time>2026-03-29T08:13:04.999Z</time></trkpt><trkpt lat="43.40247038341593" lon="11.899424466362303"><ele>648.6</ele><time>2026-03-29T08:13:06.999Z</time></trkpt><trkpt lat="43.40235458932924" lon="11.899403125222266"><ele>647.2</ele><time>2026-03-29T08:13:07.999Z</time></trkpt><trkpt lat="43.40226980927604" lon="11.89940214995254"><ele>645.8</ele><time>2026-03-29T08:13:08.999Z</time></trkpt><trkpt lat="43.40219060116832" lon="11.899402205269569"><ele>644.4</ele><time>2026-03-29T08:13:09.999Z</time></trkpt><trkpt lat="43.40213576397858" lon="11.899460327772204"><ele>643.0</ele><time>2026-03-29T08:13:11.999Z</time></trkpt><trkpt lat="43.40216448101619" lon="11.899614556588046"><ele>643.0</ele><time>2026-03-29T08:13:13.999Z</time></trkpt><trkpt lat="43.40220499796439" lon="11.89968912275674"><ele>643.0</ele><time>2026-03-29T08:13:15.999Z</time></trkpt><trkpt lat="43.40226627912925" lon="11.899790521263713"><ele>643.0</ele><time>2026-03-29T08:13:18.999Z</time></trkpt><trkpt lat="43.402311754630475" lon="11.899871546315357"><ele>643.0</ele><time>2026-03-29T08:13:19.999Z</time></trkpt><trkpt lat="43.40238212991809" lon="11.899991837595872"><ele>643.0</ele><time>2026-03-29T08:13:20.999Z</time></trkpt><trkpt lat="43.40242141439218" lon="11.900092028163426"><ele>643.0</ele><time>2026-03-29T08:13:21.999Z</time></trkpt><trkpt lat="43.40242459675547" lon="11.900241917445179"><ele>643.5</ele><time>2026-03-29T08:13:23.999Z</time></trkpt><trkpt lat="43.40239471968469" lon="11.900322913098352"><ele>644.0</ele><time>2026-03-29T08:14:24Z</time></trkpt><trkpt lat="43.40231899247427" lon="11.900314304098483"><ele>644.5</ele><time>2026-03-29T08:14:29Z</time></trkpt><trkpt lat="43.402254008929525" lon="11.90027218967586"><ele>645.0</ele><time>2026-03-29T08:14:33Z</time></trkpt><trkpt lat="43.402183544234596" lon="11.900254078216852"><ele>645.5</ele><time>2026-03-29T08:14:36Z</time></trkpt><trkpt lat="43.402089353986355" lon="11.900307447078182"><ele>646.0</ele><time>2026-03-29T08:14:38Z</time></trkpt><trkpt lat="43.4020637857202" lon="11.900388297375162"><ele>648.6666666666667</ele><time>2026-03-29T08:14:39Z</time></trkpt><trkpt lat="43.40198423313608" lon="11.900495098447973"><ele>651.3333333333334</ele><time>2026-03-29T08:14:41Z</time></trkpt><trkpt lat="43.40192331810318" lon="11.900526008757902"><ele>654.0</ele><time>2026-03-29T08:14:42Z</time></trkpt><trkpt lat="43.40180528270919" lon="11.900581379122423"><ele>656.6666666666666</ele><time>2026-03-29T08:14:44Z</time></trkpt><trkpt lat="43.40174022002812" lon="11.900579220858278"><ele>659.3333333333333</ele><time>2026-03-29T08:14:45Z</time></trkpt><trkpt lat="43.4016707398817" lon="11.900615506281063"><ele>662.0</ele><time>2026-03-29T08:14:46Z</time></trkpt><trkpt lat="43.40158340407327" lon="11.9006767460367"><ele>662.0</ele><time>2026-03-29T08:14:47Z</time></trkpt><trkpt lat="43.4015092136" lon="11.90074776842956"><ele>662.0</ele><time>2026-03-29T08:14:48Z</time></trkpt><trkpt lat="43.40145436053228" lon="11.900828618955702"><ele>662.0</ele><time>2026-03-29T08:14:49Z</time></trkpt><trkpt lat="43.40135491847493" lon="11.900957066494211"><ele>662.0</ele><time>2026-03-29T08:14:51Z</time></trkpt><trkpt lat="43.401296610857784" lon="11.90103130649657"><ele>662.0</ele><time>2026-03-29T08:14:52Z</time></trkpt><trkpt lat="43.401243030702645" lon="11.901118906625744"><ele>666.3333333333333</ele><time>2026-03-29T08:14:53Z</time></trkpt><trkpt lat="43.401209150545526" lon="11.901198476482072"><ele>670.6666666666666</ele><time>2026-03-29T08:14:54Z</time></trkpt><trkpt lat="43.40119857018134" lon="11.901289178104161"><ele>675.0</ele><time>2026-03-29T08:14:55Z</time></trkpt><trkpt lat="43.401201783216635" lon="11.90138682305495"><ele>679.3333333333334</ele><time>2026-03-29T08:14:56Z</time></trkpt><trkpt lat="43.40121787155492" lon="11.901526258190348"><ele>683.6666666666667</ele><time>2026-03-29T08:14:56.999Z</time></trkpt><trkpt lat="43.401216426387656" lon="11.901656228098014"><ele>688.0</ele><time>2026-03-29T08:14:57.999Z</time></trkpt><trkpt lat="43.401223306268285" lon="11.90175332514479"><ele>688.0</ele><time>2026-03-29T08:14:59.999Z</time></trkpt><trkpt lat="43.4012627895687" lon="11.90185712980362"><ele>688.0</ele><time>2026-03-29T08:15:01.999Z</time></trkpt><trkpt lat="43.40132029598025" lon="11.90196168405406"><ele>688.0</ele><time>2026-03-29T08:15:02.999Z</time></trkpt><trkpt lat="43.40138682351736" lon="11.902059987573438"><ele>688.0</ele><time>2026-03-29T08:15:03.999Z</time></trkpt><trkpt lat="43.401431488721364" lon="11.902131195652512"><ele>688.0</ele><time>2026-03-29T08:15:04.999Z</time></trkpt><trkpt lat="43.401461759682505" lon="11.902207174578018"><ele>688.0</ele><time>2026-03-29T08:15:05.999Z</time></trkpt><trkpt lat="43.40150879977044" lon="11.902267839235412"><ele>683.4</ele><time>2026-03-29T08:15:06.999Z</time></trkpt><trkpt lat="43.40159416162698" lon="11.90230694798579"><ele>678.8</ele><time>2026-03-29T08:15:07.999Z</time></trkpt><trkpt lat="43.401692283075214" lon="11.902354179210816"><ele>674.2</ele><time>2026-03-29T08:15:08.999Z</time></trkpt><trkpt lat="43.40175534204126" lon="11.902394820201634"><ele>669.6</ele><time>2026-03-29T08:15:09.999Z</time></trkpt><trkpt lat="43.40180868009835" lon="11.902499539049606"><ele>665.0</ele><time>2026-03-29T08:15:11.999Z</time></trkpt><trkpt lat="43.401703914420175" lon="11.90259263493344"><ele>666.0</ele><time>2026-03-29T08:15:13.999Z</time></trkpt><trkpt lat="43.40161508301961" lon="11.902613470149907"><ele>667.0</ele><time>2026-03-29T08:15:14.999Z</time></trkpt><trkpt lat="43.40155224262371" lon="11.902638639907847"><ele>668.0</ele><time>2026-03-29T08:15:15.999Z</time></trkpt><trkpt lat="43.401488223537655" lon="11.9026885067516"><ele>669.0</ele><time>2026-03-29T08:15:16.999Z</time></trkpt><trkpt lat="43.40142127275723" lon="11.90272366982638"><ele>670.0</ele><time>2026-03-29T08:15:17.999Z</time></trkpt><trkpt lat="43.40134609932369" lon="11.902756073881125"><ele>671.0</ele><time>2026-03-29T08:15:18.999Z</time></trkpt><trkpt lat="43.40126541972736" lon="11.90279379151701"><ele>671.0</ele><time>2026-03-29T08:15:19.999Z</time></trkpt><trkpt lat="43.40117735930291" lon="11.902843999432829"><ele>671.0</ele><time>2026-03-29T08:15:20.999Z</time></trkpt><trkpt lat="43.40108334086869" lon="11.9028995244154"><ele>671.0</ele><time>2026-03-29T08:15:21.999Z</time></trkpt><trkpt lat="43.400983684778616" lon="11.902965482179694"><ele>671.0</ele><time>2026-03-29T08:15:22.999Z</time></trkpt><trkpt lat="43.40088868121454" lon="11.903040437058243"><ele>671.0</ele><time>2026-03-29T08:15:23.999Z</time></trkpt><trkpt lat="43.400799419670655" lon="11.903125809107879"><ele>671.0</ele><time>2026-03-29T08:15:24.999Z</time></trkpt><trkpt lat="43.40072484509351" lon="11.903221813451996"><ele>671.0</ele><time>2026-03-29T08:15:25.999Z</time></trkpt><trkpt lat="43.40065650203872" lon="11.903323812658275"><ele>671.0</ele><time>2026-03-29T08:15:26.999Z</time></trkpt><trkpt lat="43.40059513972627" lon="11.903425068872668"><ele>671.0</ele><time>2026-03-29T08:15:27.999Z</time></trkpt><trkpt lat="43.40051806696822" lon="11.903499548734565"><ele>671.0</ele><time>2026-03-29T08:15:28.999Z</time></trkpt><trkpt lat="43.40043430875906" lon="11.903520439477537"><ele>671.25</ele><time>2026-03-29T08:15:29.999Z</time></trkpt><trkpt lat="43.40034185055135" lon="11.903462428302491"><ele>671.5</ele><time>2026-03-29T08:15:30.999Z</time></trkpt><trkpt lat="43.40024602699191" lon="11.903372910560275"><ele>671.75</ele><time>2026-03-29T08:15:31.999Z</time></trkpt><trkpt lat="43.40016439727952" lon="11.903261506677884"><ele>672.0</ele><time>2026-03-29T08:15:32.999Z</time></trkpt><trkpt lat="43.400069940838236" lon="11.903160726516704"><ele>675.0</ele><time>2026-03-29T08:15:33.999Z</time></trkpt><trkpt lat="43.39997646707314" lon="11.903079546677958"><ele>678.0</ele><time>2026-03-29T08:15:34.999Z</time></trkpt><trkpt lat="43.39988406600738" lon="11.903009348026822"><ele>681.0</ele><time>2026-03-29T08:15:35.999Z</time></trkpt><trkpt lat="43.399787246040674" lon="11.902976598865628"><ele>684.0</ele><time>2026-03-29T08:15:36.999Z</time></trkpt><trkpt lat="43.399690786208595" lon="11.902988011952894"><ele>687.0</ele><time>2026-03-29T08:15:37.999Z</time></trkpt><trkpt lat="43.39959442722902" lon="11.903037380291247"><ele>689.2</ele><time>2026-03-29T08:15:38.999Z</time></trkpt><trkpt lat="43.3995101427969" lon="11.903142435609407"><ele>691.4000000000001</ele><time>2026-03-29T08:15:39.999Z</time></trkpt><trkpt lat="43.399436327261284" lon="11.903265085035528"><ele>693.5999999999999</ele><time>2026-03-29T08:15:40.999Z</time></trkpt><trkpt lat="43.399365009647845" lon="11.903357988690377"><ele>695.8</ele><time>2026-03-29T08:15:41.999Z</time></trkpt><trkpt lat="43.39927053817003" lon="11.903432887184964"><ele>698.0</ele><time>2026-03-29T08:15:42.999Z</time></trkpt><trkpt lat="43.39916281928435" lon="11.90347686829635"><ele>698.0</ele><time>2026-03-29T08:15:43.999Z</time></trkpt><trkpt lat="43.399066910780256" lon="11.90351275213793"><ele>698.0</ele><time>2026-03-29T08:15:44.999Z</time></trkpt><trkpt lat="43.39900258395948" lon="11.903586594490639"><ele>698.0</ele><time>2026-03-29T08:15:45.999Z</time></trkpt><trkpt lat="43.398977178780946" lon="11.903703453193383"><ele>698.0</ele><time>2026-03-29T08:15:46.999Z</time></trkpt><trkpt lat="43.39897984404329" lon="11.9038334515764"><ele>698.0</ele><time>2026-03-29T08:15:47.999Z</time></trkpt><trkpt lat="43.39897233839387" lon="11.903927633222624"><ele>698.0</ele><time>2026-03-29T08:15:48.999Z</time></trkpt><trkpt lat="43.3988926615521" lon="11.903937396377417"><ele>702.2</ele><time>2026-03-29T08:15:50.999Z</time></trkpt><trkpt lat="43.39881459993791" lon="11.903783588815319"><ele>706.4</ele><time>2026-03-29T08:15:52.999Z</time></trkpt><trkpt lat="43.39879796679621" lon="11.903653137135485"><ele>710.6</ele><time>2026-03-29T08:15:53.999Z</time></trkpt><trkpt lat="43.398775892576396" lon="11.903512423685736"><ele>714.8000000000001</ele><time>2026-03-29T08:15:54.999Z</time></trkpt><trkpt lat="43.39871291008047" lon="11.903408935858598"><ele>719.0</ele><time>2026-03-29T08:15:55.999Z</time></trkpt><trkpt lat="43.398619905221615" lon="11.903360285533305"><ele>720.0</ele><time>2026-03-29T08:15:56.999Z</time></trkpt><trkpt lat="43.39852842856621" lon="11.903342225804096"><ele>721.0</ele><time>2026-03-29T08:15:57.999Z</time></trkpt><trkpt lat="43.39842625053891" lon="11.903320206960002"><ele>722.0</ele><time>2026-03-29T08:15:58.998Z</time></trkpt><trkpt lat="43.398331215846824" lon="11.903275330554353"><ele>723.0</ele><time>2026-03-29T08:15:59.998Z</time></trkpt><trkpt lat="43.398231734236106" lon="11.903210349821558"><ele>724.0</ele><time>2026-03-29T08:16:00.998Z</time></trkpt><trkpt lat="43.39813802384746" lon="11.903168115284851"><ele>724.0</ele><time>2026-03-29T08:16:01.998Z</time></trkpt><trkpt lat="43.39805228310788" lon="11.903155552492954"><ele>724.0</ele><time>2026-03-29T08:16:02.998Z</time></trkpt><trkpt lat="43.397985023814876" lon="11.903155161822978"><ele>724.0</ele><time>2026-03-29T08:16:03.998Z</time></trkpt><trkpt lat="43.39791798233394" lon="11.903178822687517"><ele>724.0</ele><time>2026-03-29T08:16:04.998Z</time></trkpt><trkpt lat="43.39785852825275" lon="11.903336875660182"><ele>724.0</ele><time>2026-03-29T08:16:06.998Z</time></trkpt><trkpt lat="43.397832405682045" lon="11.903470314145514"><ele>724.6</ele><time>2026-03-29T08:16:07.998Z</time></trkpt><trkpt lat="43.39778338687701" lon="11.903618263504994"><ele>725.2</ele><time>2026-03-29T08:16:08.998Z</time></trkpt><trkpt lat="43.39773510796574" lon="11.903725168179223"><ele>725.8000000000001</ele><time>2026-03-29T08:16:09.998Z</time></trkpt><trkpt lat="43.397691463758456" lon="11.90384611259929"><ele>726.4000000000001</ele><time>2026-03-29T08:16:10.998Z</time></trkpt><trkpt lat="43.39765157290802" lon="11.903969747808903"><ele>727.0</ele><time>2026-03-29T08:16:12.998Z</time></trkpt><trkpt lat="43.397590419215064" lon="11.904026998103342"><ele>727.0</ele><time>2026-03-29T08:16:15.998Z</time></trkpt><trkpt lat="43.397516741919056" lon="11.90407355039439"><ele>727.0</ele><time>2026-03-29T08:18:49Z</time></trkpt><trkpt lat="43.39746784639904" lon="11.904196750771645"><ele>727.0</ele><time>2026-03-29T08:18:51Z</time></trkpt><trkpt lat="43.397470454691415" lon="11.904289977474267"><ele>727.0</ele><time>2026-03-29T08:18:52Z</time></trkpt><trkpt lat="43.39748595828664" lon="11.904381589300435"><ele>727.0</ele><time>2026-03-29T08:18:53Z</time></trkpt><trkpt lat="43.3975131014172" lon="11.90446291812922"><ele>727.0</ele><time>2026-03-29T08:18:54Z</time></trkpt><trkpt lat="43.397560105450744" lon="11.904554290599245"><ele>726.6</ele><time>2026-03-29T08:18:55Z</time></trkpt><trkpt lat="43.397576656342245" lon="11.904646194693466"><ele>726.2</ele><time>2026-03-29T08:18:56Z</time></trkpt><trkpt lat="43.39758312323471" lon="11.904735151227003"><ele>725.8</ele><time>2026-03-29T08:18:57Z</time></trkpt><trkpt lat="43.397590293355286" lon="11.90489272314665"><ele>725.4</ele><time>2026-03-29T08:18:59Z</time></trkpt><trkpt lat="43.39759368079565" lon="11.905043861711837"><ele>725.0</ele><time>2026-03-29T08:19:01Z</time></trkpt><trkpt lat="43.397541366322336" lon="11.90516283683453"><ele>725.8333333333333</ele><time>2026-03-29T08:19:03Z</time></trkpt><trkpt lat="43.39743107212924" lon="11.905267457709371"><ele>726.6666666666666</ele><time>2026-03-29T08:19:05Z</time></trkpt><trkpt lat="43.397362310256" lon="11.905320288152012"><ele>727.5</ele><time>2026-03-29T08:19:06Z</time></trkpt><trkpt lat="43.39730011012" lon="11.9053369325722"><ele>728.3333333333334</ele><time>2026-03-29T08:19:07Z</time></trkpt><trkpt lat="43.39723518852396" lon="11.905365728029162"><ele>729.1666666666667</ele><time>2026-03-29T08:19:11.999Z</time></trkpt><trkpt lat="43.39718283869178" lon="11.905416971438603"><ele>730.0</ele><time>2026-03-29T08:19:17.999Z</time></trkpt><trkpt lat="43.39709864600633" lon="11.905447689472727"><ele>730.0</ele><time>2026-03-29T08:19:19.999Z</time></trkpt><trkpt lat="43.39696068744426" lon="11.905472907897098"><ele>730.0</ele><time>2026-03-29T08:19:21.999Z</time></trkpt><trkpt lat="43.396861127949116" lon="11.905501341912554"><ele>730.0</ele><time>2026-03-29T08:19:22.999Z</time></trkpt><trkpt lat="43.39675426245742" lon="11.90553971437945"><ele>730.0</ele><time>2026-03-29T08:19:23.999Z</time></trkpt><trkpt lat="43.396646539526074" lon="11.905589746846436"><ele>730.0</ele><time>2026-03-29T08:19:24.999Z</time></trkpt><trkpt lat="43.39653441865066" lon="11.905634308845581"><ele>730.0</ele><time>2026-03-29T08:19:25.999Z</time></trkpt><trkpt lat="43.39645380483922" lon="11.905663547929123"><ele>730.0</ele><time>2026-03-29T08:19:26.999Z</time></trkpt><trkpt lat="43.39638026891533" lon="11.90569127847913"><ele>730.0</ele><time>2026-03-29T08:19:27.999Z</time></trkpt><trkpt lat="43.39633885544749" lon="11.905834769965555"><ele>730.0</ele><time>2026-03-29T08:19:29.999Z</time></trkpt><trkpt lat="43.39637338075097" lon="11.905917943390687"><ele>730.4</ele><time>2026-03-29T08:19:30.999Z</time></trkpt><trkpt lat="43.396433413553424" lon="11.906023295535435"><ele>730.8</ele><time>2026-03-29T08:19:31.999Z</time></trkpt><trkpt lat="43.39651463059471" lon="11.906095369694345"><ele>731.2</ele><time>2026-03-29T08:19:32.999Z</time></trkpt><trkpt lat="43.39658362181235" lon="11.906220262986146"><ele>731.6</ele><time>2026-03-29T08:19:33.999Z</time></trkpt><trkpt lat="43.39664533719402" lon="11.90635582114458"><ele>732.0</ele><time>2026-03-29T08:19:34.999Z</time></trkpt><trkpt lat="43.396699449307356" lon="11.90645415516553"><ele>732.0</ele><time>2026-03-29T08:19:35.999Z</time></trkpt><trkpt lat="43.396708337218634" lon="11.90654092271368"><ele>732.0</ele><time>2026-03-29T08:19:36.999Z</time></trkpt><trkpt lat="43.39668178434933" lon="11.906623797604269"><ele>732.0</ele><time>2026-03-29T08:19:37.999Z</time></trkpt><trkpt lat="43.396645691192845" lon="11.906719954174989"><ele>732.0</ele><time>2026-03-29T08:19:38.999Z</time></trkpt><trkpt lat="43.39660342580805" lon="11.90684948256988"><ele>732.0</ele><time>2026-03-29T08:19:39.999Z</time></trkpt><trkpt lat="43.39658519165964" lon="11.906988643891399"><ele>732.0</ele><time>2026-03-29T08:19:40.999Z</time></trkpt><trkpt lat="43.396584434589826" lon="11.907127955819227"><ele>731.0</ele><time>2026-03-29T08:19:41.999Z</time></trkpt><trkpt lat="43.39657202470355" lon="11.907254685413037"><ele>730.0</ele><time>2026-03-29T08:19:42.999Z</time></trkpt><trkpt lat="43.39655493693998" lon="11.907355641785536"><ele>729.0</ele><time>2026-03-29T08:19:43.999Z</time></trkpt><trkpt lat="43.396515276802354" lon="11.907433663461699"><ele>728.0</ele><time>2026-03-29T08:19:44.999Z</time></trkpt><trkpt lat="43.39638313659945" lon="11.907525874927595"><ele>727.0</ele><time>2026-03-29T08:19:46.999Z</time></trkpt><trkpt lat="43.39631339599295" lon="11.907551812230599"><ele>728.6</ele><time>2026-03-29T08:19:47.999Z</time></trkpt><trkpt lat="43.39624659106528" lon="11.907641269460301"><ele>730.2</ele><time>2026-03-29T08:19:48.999Z</time></trkpt><trkpt lat="43.39618015883631" lon="11.907744736424368"><ele>731.8</ele><time>2026-03-29T08:19:49.999Z</time></trkpt><trkpt lat="43.396066099053904" lon="11.907831260552122"><ele>733.4</ele><time>2026-03-29T08:19:51.999Z</time></trkpt><trkpt lat="43.39598739716579" lon="11.907885920485693"><ele>735.0</ele><time>2026-03-29T08:19:53.999Z</time></trkpt><trkpt lat="43.39592640713512" lon="11.907944751363946"><ele>735.0</ele><time>2026-03-29T08:19:55.999Z</time></trkpt><trkpt lat="43.39585001186075" lon="11.908084935450189"><ele>735.0</ele><time>2026-03-29T08:19:57.999Z</time></trkpt><trkpt lat="43.3958002382215" lon="11.908171401822814"><ele>735.0</ele><time>2026-03-29T08:19:58.999Z</time></trkpt><trkpt lat="43.395732832784" lon="11.908264774209476"><ele>735.0</ele><time>2026-03-29T08:19:59.999Z</time></trkpt><trkpt lat="43.39568294726677" lon="11.90838773095836"><ele>735.0</ele><time>2026-03-29T08:20:00.999Z</time></trkpt><trkpt lat="43.39563167075808" lon="11.908483888519573"><ele>731.0</ele><time>2026-03-29T08:20:01.999Z</time></trkpt><trkpt lat="43.39556610359792" lon="11.908544543065814"><ele>727.0</ele><time>2026-03-29T08:20:02.999Z</time></trkpt><trkpt lat="43.39549555163292" lon="11.908591422228959"><ele>723.0</ele><time>2026-03-29T08:20:03.999Z</time></trkpt><trkpt lat="43.395414302598375" lon="11.908615524361275"><ele>719.0</ele><time>2026-03-29T08:20:04.999Z</time></trkpt><trkpt lat="43.39530863044653" lon="11.908631577621044"><ele>715.0</ele><time>2026-03-29T08:20:05.999Z</time></trkpt><trkpt lat="43.395192858685604" lon="11.908628821484466"><ele>715.0</ele><time>2026-03-29T08:20:06.999Z</time></trkpt><trkpt lat="43.395082246247476" lon="11.908612730630374"><ele>715.0</ele><time>2026-03-29T08:20:07.999Z</time></trkpt><trkpt lat="43.394973333416196" lon="11.908602057479307"><ele>715.0</ele><time>2026-03-29T08:20:08.999Z</time></trkpt><trkpt lat="43.394869855998884" lon="11.908615207979778"><ele>715.0</ele><time>2026-03-29T08:20:09.999Z</time></trkpt><trkpt lat="43.39476835513683" lon="11.908635915567245"><ele>715.0</ele><time>2026-03-29T08:20:10.999Z</time></trkpt><trkpt lat="43.39468715424194" lon="11.908641201904596"><ele>715.1666666666667</ele><time>2026-03-29T08:20:11.999Z</time></trkpt><trkpt lat="43.39459805242376" lon="11.908645012875866"><ele>715.3333333333334</ele><time>2026-03-29T08:20:12.999Z</time></trkpt><trkpt lat="43.39450714677494" lon="11.90862675408424"><ele>715.5</ele><time>2026-03-29T08:20:13.998Z</time></trkpt><trkpt lat="43.3944296446483" lon="11.908646357690149"><ele>715.6666666666666</ele><time>2026-03-29T08:20:14.998Z</time></trkpt><trkpt lat="43.39435553083953" lon="11.908641400941528"><ele>715.8333333333333</ele><time>2026-03-29T08:20:15.998Z</time></trkpt><trkpt lat="43.394262891221366" lon="11.908583478703793"><ele>716.0</ele><time>2026-03-29T08:20:17.998Z</time></trkpt><trkpt lat="43.39416785024887" lon="11.908463968154512"><ele>719.6666666666666</ele><time>2026-03-29T08:20:19.998Z</time></trkpt><trkpt lat="43.39411955727688" lon="11.908366273910625"><ele>723.3333333333333</ele><time>2026-03-29T08:20:20.998Z</time></trkpt><trkpt lat="43.39408228121793" lon="11.908289235591834"><ele>727.0</ele><time>2026-03-29T08:20:21.998Z</time></trkpt><trkpt lat="43.39405812559681" lon="11.908205566845085"><ele>730.6666666666666</ele><time>2026-03-29T08:20:22.998Z</time></trkpt><trkpt lat="43.3940494733795" lon="11.908071863616774"><ele>734.3333333333334</ele><time>2026-03-29T08:20:24.998Z</time></trkpt><trkpt lat="43.3939997514417" lon="11.9079797956038"><ele>738.0</ele><time>2026-03-29T08:20:26.998Z</time></trkpt><trkpt lat="43.39386791546748" lon="11.90796586402585"><ele>739.0</ele><time>2026-03-29T08:20:28.998Z</time></trkpt><trkpt lat="43.393779453468504" lon="11.907955737632122"><ele>740.0</ele><time>2026-03-29T08:20:29.998Z</time></trkpt><trkpt lat="43.39368649421238" lon="11.907973660762693"><ele>741.0</ele><time>2026-03-29T08:20:31Z</time></trkpt><trkpt lat="43.39358748990697" lon="11.907927544188839"><ele>742.0</ele><time>2026-03-29T08:20:33Z</time></trkpt><trkpt lat="43.39350882832791" lon="11.907916172157716"><ele>743.0</ele><time>2026-03-29T08:20:35Z</time></trkpt><trkpt lat="43.3934416735052" lon="11.907948107144442"><ele>744.0</ele><time>2026-03-29T08:20:37Z</time></trkpt><trkpt lat="43.39340595136068" lon="11.90805992228678"><ele>744.0</ele><time>2026-03-29T08:20:39Z</time></trkpt><trkpt lat="43.39340791310854" lon="11.908190137138547"><ele>744.0</ele><time>2026-03-29T08:20:40Z</time></trkpt><trkpt lat="43.39346197136345" lon="11.908341326478858"><ele>744.0</ele><time>2026-03-29T08:20:41Z</time></trkpt><trkpt lat="43.39353311816862" lon="11.908448180897713"><ele>744.0</ele><time>2026-03-29T08:20:42Z</time></trkpt><trkpt lat="43.39352826224887" lon="11.908624231216756"><ele>743.0</ele><time>2026-03-29T08:20:44Z</time></trkpt><trkpt lat="43.3934915991657" lon="11.908760398408212"><ele>742.0</ele><time>2026-03-29T08:20:45Z</time></trkpt><trkpt lat="43.393439739321515" lon="11.908885675247758"><ele>741.0</ele><time>2026-03-29T08:20:46Z</time></trkpt><trkpt lat="43.39338360049434" lon="11.908995473338056"><ele>740.0</ele><time>2026-03-29T08:20:47Z</time></trkpt><trkpt lat="43.3933274691293" lon="11.909113376338226"><ele>739.0</ele><time>2026-03-29T08:20:49Z</time></trkpt><trkpt lat="43.39326647341163" lon="11.909203596825563"><ele>739.6666666666667</ele><time>2026-03-29T08:20:50Z</time></trkpt><trkpt lat="43.39317677929983" lon="11.909295571198657"><ele>740.3333333333334</ele><time>2026-03-29T08:20:51Z</time></trkpt><trkpt lat="43.393104311835934" lon="11.909375637562482"><ele>741.0</ele><time>2026-03-29T08:20:52Z</time></trkpt><trkpt lat="43.3930629449238" lon="11.909456297881004"><ele>741.6666666666666</ele><time>2026-03-29T08:20:53Z</time></trkpt><trkpt lat="43.39304044026647" lon="11.909537426404249"><ele>742.3333333333333</ele><time>2026-03-29T08:20:54Z</time></trkpt><trkpt lat="43.392986484335665" lon="11.909638621413237"><ele>743.0</ele><time>2026-03-29T08:20:55Z</time></trkpt><trkpt lat="43.392913350595265" lon="11.90968666474582"><ele>743.0</ele><time>2026-03-29T08:20:56Z</time></trkpt><trkpt lat="43.39283450547471" lon="11.909724382960565"><ele>743.0</ele><time>2026-03-29T08:20:57Z</time></trkpt><trkpt lat="43.39273375064603" lon="11.909785814244191"><ele>743.0</ele><time>2026-03-29T08:20:58Z</time></trkpt><trkpt lat="43.39265194056666" lon="11.909809388693269"><ele>743.0</ele><time>2026-03-29T08:20:59Z</time></trkpt><trkpt lat="43.392582799340325" lon="11.90983123970797"><ele>743.0</ele><time>2026-03-29T08:21:00Z</time></trkpt><trkpt lat="43.39249471644032" lon="11.909908295524216"><ele>743.0</ele><time>2026-03-29T08:21:02Z</time></trkpt><trkpt lat="43.39246455576062" lon="11.909989039508043"><ele>743.0</ele><time>2026-03-29T08:21:04Z</time></trkpt><trkpt lat="43.39253600469808" lon="11.910082552683248"><ele>743.0</ele><time>2026-03-29T08:21:06Z</time></trkpt><trkpt lat="43.39260773010736" lon="11.910050017228905"><ele>743.0</ele><time>2026-03-29T08:21:07Z</time></trkpt><trkpt lat="43.392679560293224" lon="11.910037703881049"><ele>743.0</ele><time>2026-03-29T08:21:08Z</time></trkpt><trkpt lat="43.392767376298046" lon="11.910043723152926"><ele>743.0</ele><time>2026-03-29T08:21:09Z</time></trkpt><trkpt lat="43.392837649138826" lon="11.910052586881301"><ele>743.8</ele><time>2026-03-29T08:21:10Z</time></trkpt><trkpt lat="43.39293979962828" lon="11.910104357708441"><ele>744.5999999999999</ele><time>2026-03-29T08:21:11Z</time></trkpt><trkpt lat="43.39303102070297" lon="11.910146831466369"><ele>745.4000000000001</ele><time>2026-03-29T08:21:12Z</time></trkpt><trkpt lat="43.393124651674896" lon="11.91019205203994"><ele>746.2</ele><time>2026-03-29T08:21:14Z</time></trkpt><trkpt lat="43.39322469216021" lon="11.910265903144312"><ele>747.0</ele><time>2026-03-29T08:21:15.999Z</time></trkpt><trkpt lat="43.39327497130255" lon="11.910325693236214"><ele>744.6666666666666</ele><time>2026-03-29T08:21:16.999Z</time></trkpt><trkpt lat="43.393315576073014" lon="11.910456175422386"><ele>742.3333333333334</ele><time>2026-03-29T08:21:17.999Z</time></trkpt><trkpt lat="43.39334037159814" lon="11.9105463494204"><ele>740.0</ele><time>2026-03-29T08:21:18.999Z</time></trkpt><trkpt lat="43.39333343907364" lon="11.910666219074741"><ele>737.6666666666667</ele><time>2026-03-29T08:21:19.999Z</time></trkpt><trkpt lat="43.39331274552865" lon="11.91079170997103"><ele>735.3333333333334</ele><time>2026-03-29T08:21:20.999Z</time></trkpt><trkpt lat="43.39330079685033" lon="11.910911330125822"><ele>733.0</ele><time>2026-03-29T08:21:21.999Z</time></trkpt><trkpt lat="43.39330590442557" lon="11.911008528860144"><ele>733.0</ele><time>2026-03-29T08:21:22.999Z</time></trkpt><trkpt lat="43.39330018706558" lon="11.911177516318359"><ele>733.0</ele><time>2026-03-29T08:21:24.999Z</time></trkpt><trkpt lat="43.39328329814423" lon="11.911315237349898"><ele>733.0</ele><time>2026-03-29T08:21:26.999Z</time></trkpt><trkpt lat="43.39332128718862" lon="11.91140285265383"><ele>733.0</ele><time>2026-03-29T08:21:28.999Z</time></trkpt><trkpt lat="43.393429715828105" lon="11.911403295549416"><ele>733.0</ele><time>2026-03-29T08:21:30.999Z</time></trkpt><trkpt lat="43.393486110128876" lon="11.911357103035511"><ele>733.0</ele><time>2026-03-29T08:21:31.999Z</time></trkpt><trkpt lat="43.39355625651889" lon="11.911273086482117"><ele>733.0</ele><time>2026-03-29T08:21:32.999Z</time></trkpt><trkpt lat="43.39363341660914" lon="11.911266384420761"><ele>733.0</ele><time>2026-03-29T08:21:33.999Z</time></trkpt><trkpt lat="43.39371390302165" lon="11.911362009622986"><ele>733.0</ele><time>2026-03-29T08:21:35.999Z</time></trkpt><trkpt lat="43.39371844137317" lon="11.911473421046317"><ele>733.0</ele><time>2026-03-29T08:21:36.999Z</time></trkpt><trkpt lat="43.39370453235583" lon="11.911601997873307"><ele>733.0</ele><time>2026-03-29T08:21:37.999Z</time></trkpt><trkpt lat="43.393684339267836" lon="11.911706270579568"><ele>733.0</ele><time>2026-03-29T08:21:38.999Z</time></trkpt><trkpt lat="43.39370361570713" lon="11.911797588188339"><ele>733.0</ele><time>2026-03-29T08:21:39.999Z</time></trkpt><trkpt lat="43.39371423025162" lon="11.91190363079402"><ele>733.0</ele><time>2026-03-29T08:21:40.999Z</time></trkpt><trkpt lat="43.39373705136276" lon="11.912023215654635"><ele>733.0</ele><time>2026-03-29T08:21:41.999Z</time></trkpt><trkpt lat="43.39380138598533" lon="11.912099488176269"><ele>733.0</ele><time>2026-03-29T08:21:42.999Z</time></trkpt><trkpt lat="43.39385348831517" lon="11.912164834445788"><ele>734.3333333333334</ele><time>2026-03-29T08:21:44.999Z</time></trkpt><trkpt lat="43.39391356390619" lon="11.912309868424005"><ele>735.6666666666667</ele><time>2026-03-29T08:21:46.999Z</time></trkpt><trkpt lat="43.39393000664563" lon="11.912425622817576"><ele>737.0</ele><time>2026-03-29T08:21:47.999Z</time></trkpt><trkpt lat="43.393965960219205" lon="11.912522908142384"><ele>738.3333333333334</ele><time>2026-03-29T08:21:48.999Z</time></trkpt><trkpt lat="43.39398232467211" lon="11.912613366051644"><ele>739.6666666666666</ele><time>2026-03-29T08:21:49.999Z</time></trkpt><trkpt lat="43.39399254231344" lon="11.912711329329992"><ele>741.0</ele><time>2026-03-29T08:21:51.999Z</time></trkpt><trkpt lat="43.39386792670163" lon="11.912737666265148"><ele>741.5999999999999</ele><time>2026-03-29T08:21:53.999Z</time></trkpt><trkpt lat="43.39379808601887" lon="11.912722297508596"><ele>742.2</ele><time>2026-03-29T08:21:54.999Z</time></trkpt><trkpt lat="43.39371604350335" lon="11.91269415105643"><ele>742.8</ele><time>2026-03-29T08:21:55.999Z</time></trkpt><trkpt lat="43.3936103136079" lon="11.912625941700579"><ele>743.4000000000001</ele><time>2026-03-29T08:21:56.999Z</time></trkpt><trkpt lat="43.393471141239836" lon="11.912541901957034"><ele>744.0</ele><time>2026-03-29T08:21:58.999Z</time></trkpt><trkpt lat="43.393397078833495" lon="11.91253425717838"><ele>744.0</ele><time>2026-03-29T08:21:59.999Z</time></trkpt><trkpt lat="43.39332866993865" lon="11.91251487934785"><ele>744.0</ele><time>2026-03-29T08:22:00.999Z</time></trkpt><trkpt lat="43.39323188191501" lon="11.912509307289879"><ele>744.0</ele><time>2026-03-29T08:22:01.999Z</time></trkpt><trkpt lat="43.39314148487193" lon="11.912468458120781"><ele>744.0</ele><time>2026-03-29T08:22:02.999Z</time></trkpt><trkpt lat="43.39307979067618" lon="11.912423369161957"><ele>744.0</ele><time>2026-03-29T08:22:03.999Z</time></trkpt><trkpt lat="43.39301036678082" lon="11.912443950391358"><ele>744.0</ele><time>2026-03-29T08:22:05.999Z</time></trkpt><trkpt lat="43.392932748567155" lon="11.912331863098323"><ele>748.5</ele><time>2026-03-29T08:22:09.999Z</time></trkpt><trkpt lat="43.39290878030533" lon="11.912224713520382"><ele>753.0</ele><time>2026-03-29T08:22:10.999Z</time></trkpt><trkpt lat="43.39287835670183" lon="11.912140377223803"><ele>757.5</ele><time>2026-03-29T08:22:11.999Z</time></trkpt><trkpt lat="43.39276652079171" lon="11.912124170135282"><ele>762.0</ele><time>2026-03-29T08:22:13.999Z</time></trkpt><trkpt lat="43.39270863038563" lon="11.912191014188576"><ele>766.5</ele><time>2026-03-29T08:22:14.999Z</time></trkpt><trkpt lat="43.39264534568591" lon="11.912233479346774"><ele>771.0</ele><time>2026-03-29T08:22:15.999Z</time></trkpt><trkpt lat="43.39256956117558" lon="11.912195290219852"><ele>771.0</ele><time>2026-03-29T08:22:16.999Z</time></trkpt><trkpt lat="43.39249187704049" lon="11.912127702426645"><ele>771.0</ele><time>2026-03-29T08:22:17.999Z</time></trkpt><trkpt lat="43.392426807803744" lon="11.912011925422025"><ele>771.0</ele><time>2026-03-29T08:22:18.999Z</time></trkpt><trkpt lat="43.39232189038957" lon="11.911906132431263"><ele>771.0</ele><time>2026-03-29T08:22:19.998Z</time></trkpt><trkpt lat="43.39208276710928" lon="11.9118100138663"><ele>774.1999999999999</ele><time>2026-03-29T08:22:22.998Z</time></trkpt><trkpt lat="43.3920073524841" lon="11.91178768016546"><ele>777.4</ele><time>2026-03-29T08:22:23.998Z</time></trkpt><trkpt lat="43.39194342935635" lon="11.911762777249745"><ele>780.6</ele><time>2026-03-29T08:22:24.998Z</time></trkpt><trkpt lat="43.39189452533658" lon="11.91164888329283"><ele>783.8</ele><time>2026-03-29T08:22:26.998Z</time></trkpt><trkpt lat="43.39196078269189" lon="11.911492257829849"><ele>787.0</ele><time>2026-03-29T08:22:28.998Z</time></trkpt><trkpt lat="43.39203106853779" lon="11.911380254772576"><ele>787.0</ele><time>2026-03-29T08:22:29.998Z</time></trkpt><trkpt lat="43.392060214041805" lon="11.911288392705233"><ele>787.0</ele><time>2026-03-29T08:22:30.998Z</time></trkpt><trkpt lat="43.39204533693522" lon="11.911161534398758"><ele>787.0</ele><time>2026-03-29T08:22:32.998Z</time></trkpt><trkpt lat="43.39195084905701" lon="11.9110888690021"><ele>787.0</ele><time>2026-03-29T08:22:34.998Z</time></trkpt><trkpt lat="43.39188860268695" lon="11.911045616774695"><ele>787.0</ele><time>2026-03-29T08:22:35.998Z</time></trkpt><trkpt lat="43.39175778450672" lon="11.911037999644746"><ele>786.9999999999999</ele><time>2026-03-29T08:22:38Z</time></trkpt><trkpt lat="43.39167946098652" lon="11.911037233455112"><ele>787.0</ele><time>2026-03-29T08:22:39Z</time></trkpt><trkpt lat="43.39159144670951" lon="11.911033341591018"><ele>787.0</ele><time>2026-03-29T08:22:40Z</time></trkpt><trkpt lat="43.39152619996717" lon="11.911034402087907"><ele>787.0</ele><time>2026-03-29T08:22:41Z</time></trkpt><trkpt lat="43.39142997011215" lon="11.911063603936059"><ele>786.9999999999999</ele><time>2026-03-29T08:22:43Z</time></trkpt><trkpt lat="43.391342835912255" lon="11.911077458720117"><ele>787.0</ele><time>2026-03-29T08:22:44Z</time></trkpt><trkpt lat="43.39124286982973" lon="11.911082345349165"><ele>790.4000000000001</ele><time>2026-03-29T08:22:45Z</time></trkpt><trkpt lat="43.39115606766791" lon="11.91109455810848"><ele>793.8000000000001</ele><time>2026-03-29T08:22:46Z</time></trkpt><trkpt lat="43.3910773171104" lon="11.911114651162908"><ele>797.2</ele><time>2026-03-29T08:22:47Z</time></trkpt><trkpt lat="43.39098493221778" lon="11.91110905483626"><ele>800.6</ele><time>2026-03-29T08:22:48Z</time></trkpt><trkpt lat="43.39087466959562" lon="11.911122431461248"><ele>804.0</ele><time>2026-03-29T08:22:49Z</time></trkpt><trkpt lat="43.39077451243044" lon="11.911145772376054"><ele>804.0</ele><time>2026-03-29T08:22:50Z</time></trkpt><trkpt lat="43.390653441203355" lon="11.911162456831907"><ele>804.0</ele><time>2026-03-29T08:22:51Z</time></trkpt><trkpt lat="43.3905349612193" lon="11.911158383387363"><ele>804.0</ele><time>2026-03-29T08:22:52Z</time></trkpt><trkpt lat="43.39041696332654" lon="11.911163092393505"><ele>804.0</ele><time>2026-03-29T08:22:53Z</time></trkpt><trkpt lat="43.390323702157346" lon="11.911200051959609"><ele>806.8333333333334</ele><time>2026-03-29T08:22:54Z</time></trkpt><trkpt lat="43.390233913695816" lon="11.911223160272511"><ele>809.6666666666667</ele><time>2026-03-29T08:22:55Z</time></trkpt><trkpt lat="43.39015402446019" lon="11.911234402052173"><ele>812.5</ele><time>2026-03-29T08:22:56Z</time></trkpt><trkpt lat="43.390073403143745" lon="11.911199071759707"><ele>815.3333333333334</ele><time>2026-03-29T08:22:57Z</time></trkpt><trkpt lat="43.39000185112137" lon="11.91112461182535"><ele>818.1666666666667</ele><time>2026-03-29T08:22:58Z</time></trkpt><trkpt lat="43.389938223224455" lon="11.911025995778663"><ele>821.0</ele><time>2026-03-29T08:22:59Z</time></trkpt><trkpt lat="43.38988800846629" lon="11.910926949940846"><ele>821.5999999999999</ele><time>2026-03-29T08:23:00Z</time></trkpt><trkpt lat="43.38983360656665" lon="11.910848669649956"><ele>822.2</ele><time>2026-03-29T08:23:01Z</time></trkpt><trkpt lat="43.389702634029206" lon="11.91077256191809"><ele>822.8</ele><time>2026-03-29T08:23:03Z</time></trkpt><trkpt lat="43.38962683596239" lon="11.910787413267233"><ele>823.4000000000001</ele><time>2026-03-29T08:23:05Z</time></trkpt><trkpt lat="43.38962552054656" lon="11.910880533985571"><ele>824.0</ele><time>2026-03-29T08:23:31.999Z</time></trkpt><trkpt lat="43.38962734642407" lon="11.911066468579802"><ele>824.0</ele><time>2026-03-29T08:23:33.999Z</time></trkpt><trkpt lat="43.38961905495284" lon="11.911172948972268"><ele>824.0</ele><time>2026-03-29T08:23:34.999Z</time></trkpt><trkpt lat="43.38958172513184" lon="11.911273583618176"><ele>824.0</ele><time>2026-03-29T08:23:35.999Z</time></trkpt><trkpt lat="43.38955161202504" lon="11.911417247997516"><ele>824.0</ele><time>2026-03-29T08:23:37.999Z</time></trkpt><trkpt lat="43.38958243101534" lon="11.911594357550623"><ele>824.0</ele><time>2026-03-29T08:23:39.999Z</time></trkpt><trkpt lat="43.38960417560152" lon="11.911708680755243"><ele>825.1666666666667</ele><time>2026-03-29T08:23:40.999Z</time></trkpt><trkpt lat="43.38964330223369" lon="11.911792963519774"><ele>826.3333333333334</ele><time>2026-03-29T08:23:41.999Z</time></trkpt><trkpt lat="43.389683074396785" lon="11.91187082811312"><ele>827.5</ele><time>2026-03-29T08:23:42.999Z</time></trkpt><trkpt lat="43.38975518371307" lon="11.91197730494187"><ele>828.6666666666667</ele><time>2026-03-29T08:23:43.999Z</time></trkpt><trkpt lat="43.38978756944249" lon="11.91206004036559"><ele>829.8333333333334</ele><time>2026-03-29T08:23:44.999Z</time></trkpt><trkpt lat="43.38984404262961" lon="11.912138819411838"><ele>831.0</ele><time>2026-03-29T08:23:45.999Z</time></trkpt><trkpt lat="43.38993396628763" lon="11.912187475794825"><ele>831.0</ele><time>2026-03-29T08:23:46.999Z</time></trkpt><trkpt lat="43.38999898923035" lon="11.912213612890497"><ele>831.0</ele><time>2026-03-29T08:23:47.999Z</time></trkpt><trkpt lat="43.3900837289412" lon="11.912335039618931"><ele>831.0</ele><time>2026-03-29T08:23:49.999Z</time></trkpt><trkpt lat="43.390097577886934" lon="11.912458699448974"><ele>831.0</ele><time>2026-03-29T08:23:50.999Z</time></trkpt><trkpt lat="43.390122516782775" lon="11.912590638800332"><ele>831.0</ele><time>2026-03-29T08:23:51.999Z</time></trkpt><trkpt lat="43.39014378193048" lon="11.912700822325675"><ele>833.1999999999999</ele><time>2026-03-29T08:23:52.999Z</time></trkpt><trkpt lat="43.39016318600823" lon="11.912805425763331"><ele>835.4</ele><time>2026-03-29T08:23:53.999Z</time></trkpt><trkpt lat="43.39017874121738" lon="11.912942555071412"><ele>837.6</ele><time>2026-03-29T08:23:54.999Z</time></trkpt><trkpt lat="43.39019876495096" lon="11.913078390199903"><ele>839.8</ele><time>2026-03-29T08:23:55.999Z</time></trkpt><trkpt lat="43.39022080512068" lon="11.913195206853132"><ele>842.0</ele><time>2026-03-29T08:23:56.999Z</time></trkpt><trkpt lat="43.39024023192121" lon="11.913322296315874"><ele>842.6</ele><time>2026-03-29T08:23:57.999Z</time></trkpt><trkpt lat="43.39022926444642" lon="11.913466361457932"><ele>843.2</ele><time>2026-03-29T08:23:58.999Z</time></trkpt><trkpt lat="43.39023709052378" lon="11.913625126679896"><ele>843.8</ele><time>2026-03-29T08:23:59.999Z</time></trkpt><trkpt lat="43.390232740302785" lon="11.913773431042346"><ele>844.4</ele><time>2026-03-29T08:24:00.999Z</time></trkpt><trkpt lat="43.390240872276024" lon="11.913872189687792"><ele>845.0</ele><time>2026-03-29T08:24:01.999Z</time></trkpt><trkpt lat="43.390263329205546" lon="11.913956684297426"><ele>845.0000000000001</ele><time>2026-03-29T08:24:03.999Z</time></trkpt><trkpt lat="43.390321460095855" lon="11.914032711067629"><ele>845.0</ele><time>2026-03-29T08:24:05.999Z</time></trkpt><trkpt lat="43.39028810791721" lon="11.914116494423643"><ele>845.0</ele><time>2026-03-29T08:24:07.999Z</time></trkpt><trkpt lat="43.3902411054881" lon="11.914177311693242"><ele>845.0</ele><time>2026-03-29T08:24:08.999Z</time></trkpt><trkpt lat="43.390173003062266" lon="11.91433850106945"><ele>845.0000000000001</ele><time>2026-03-29T08:24:10.999Z</time></trkpt><trkpt lat="43.39009454966543" lon="11.91434279502102"><ele>845.0</ele><time>2026-03-29T08:24:12.999Z</time></trkpt><trkpt lat="43.390040264299394" lon="11.914269445904843"><ele>845.0</ele><time>2026-03-29T08:24:13.999Z</time></trkpt><trkpt lat="43.38997479116412" lon="11.91419461555911"><ele>845.0</ele><time>2026-03-29T08:24:14.999Z</time></trkpt><trkpt lat="43.38989018893334" lon="11.914225058742149"><ele>845.0</ele><time>2026-03-29T08:24:16.999Z</time></trkpt><trkpt lat="43.389823323674335" lon="11.914310005175185"><ele>845.0</ele><time>2026-03-29T08:24:17.999Z</time></trkpt><trkpt lat="43.3897441552714" lon="11.914418850449861"><ele>845.0</ele><time>2026-03-29T08:24:18.999Z</time></trkpt><trkpt lat="43.389645376006115" lon="11.914532678215071"><ele>842.2</ele><time>2026-03-29T08:24:19.999Z</time></trkpt><trkpt lat="43.389557283194996" lon="11.914615998541947"><ele>839.4</ele><time>2026-03-29T08:24:20.999Z</time></trkpt><trkpt lat="43.389463162381254" lon="11.91471213101983"><ele>836.5999999999999</ele><time>2026-03-29T08:24:21.999Z</time></trkpt><trkpt lat="43.38939521717338" lon="11.914807003707617"><ele>833.8</ele><time>2026-03-29T08:24:22.999Z</time></trkpt><trkpt lat="43.38931336641899" lon="11.91490507422506"><ele>831.0</ele><time>2026-03-29T08:24:24.998Z</time></trkpt><trkpt lat="43.38924567634732" lon="11.9149224191584"><ele>831.0</ele><time>2026-03-29T08:24:25.998Z</time></trkpt><trkpt lat="43.38918182953466" lon="11.914938380774878"><ele>831.0</ele><time>2026-03-29T08:24:26.998Z</time></trkpt><trkpt lat="43.389114945662584" lon="11.915016000348668"><ele>831.0</ele><time>2026-03-29T08:24:27.998Z</time></trkpt><trkpt lat="43.38902404695025" lon="11.915070768643973"><ele>831.0</ele><time>2026-03-29T08:24:29.998Z</time></trkpt><trkpt lat="43.38892229988034" lon="11.915124791017035"><ele>831.0</ele><time>2026-03-29T08:24:31.998Z</time></trkpt><trkpt lat="43.38885487295649" lon="11.915157885524678"><ele>831.0</ele><time>2026-03-29T08:24:32.998Z</time></trkpt><trkpt lat="43.3887888487804" lon="11.915212752684695"><ele>827.8333333333334</ele><time>2026-03-29T08:24:33.998Z</time></trkpt><trkpt lat="43.388736726633255" lon="11.91528638860321"><ele>824.6666666666667</ele><time>2026-03-29T08:24:34.998Z</time></trkpt><trkpt lat="43.388681480823074" lon="11.915356667931302"><ele>821.5</ele><time>2026-03-29T08:24:35.998Z</time></trkpt><trkpt lat="43.38856314739317" lon="11.915406143956915"><ele>818.3333333333334</ele><time>2026-03-29T08:24:37.998Z</time></trkpt><trkpt lat="43.38851181124753" lon="11.91546036216626"><ele>815.1666666666667</ele><time>2026-03-29T08:24:38.998Z</time></trkpt><trkpt lat="43.38845036730718" lon="11.915522039042411"><ele>812.0</ele><time>2026-03-29T08:24:39.998Z</time></trkpt><trkpt lat="43.38838574836887" lon="11.915560963884177"><ele>812.0</ele><time>2026-03-29T08:24:40.998Z</time></trkpt><trkpt lat="43.3883280009534" lon="11.91560268216264"><ele>812.0</ele><time>2026-03-29T08:24:41.998Z</time></trkpt><trkpt lat="43.38820609967253" lon="11.91564424571285"><ele>812.0</ele><time>2026-03-29T08:24:44Z</time></trkpt><trkpt lat="43.388100810227485" lon="11.915721053246356"><ele>812.0</ele><time>2026-03-29T08:24:46Z</time></trkpt><trkpt lat="43.38802684074439" lon="11.915750774027845"><ele>812.0</ele><time>2026-03-29T08:24:47Z</time></trkpt><trkpt lat="43.38796747719509" lon="11.915787503826342"><ele>809.0</ele><time>2026-03-29T08:24:48Z</time></trkpt><trkpt lat="43.38787604791548" lon="11.915824538917049"><ele>806.0</ele><time>2026-03-29T08:24:50Z</time></trkpt><trkpt lat="43.38778454851156" lon="11.915854835566845"><ele>803.0</ele><time>2026-03-29T08:24:52Z</time></trkpt><trkpt lat="43.387662556451524" lon="11.91598197967757"><ele>800.0</ele><time>2026-03-29T08:24:54Z</time></trkpt><trkpt lat="43.38760056535466" lon="11.916051758964679"><ele>797.0</ele><time>2026-03-29T08:24:55Z</time></trkpt><trkpt lat="43.38753333251717" lon="11.91612542756866"><ele>796.8333333333334</ele><time>2026-03-29T08:24:56Z</time></trkpt><trkpt lat="43.38746873444355" lon="11.916220435218278"><ele>796.6666666666667</ele><time>2026-03-29T08:24:57Z</time></trkpt><trkpt lat="43.38739770746703" lon="11.916227897143118"><ele>796.5</ele><time>2026-03-29T08:24:58Z</time></trkpt><trkpt lat="43.38731220091402" lon="11.916279386994283"><ele>796.3333333333333</ele><time>2026-03-29T08:24:59Z</time></trkpt><trkpt lat="43.38724997546144" lon="11.91630561225425"><ele>796.1666666666666</ele><time>2026-03-29T08:25:00Z</time></trkpt><trkpt lat="43.38716147081721" lon="11.916391608796038"><ele>796.0</ele><time>2026-03-29T08:25:02Z</time></trkpt><trkpt lat="43.38710514638432" lon="11.916469981030293"><ele>795.5999999999999</ele><time>2026-03-29T08:25:03Z</time></trkpt><trkpt lat="43.387004054250625" lon="11.916528565415545"><ele>795.2</ele><time>2026-03-29T08:25:04Z</time></trkpt><trkpt lat="43.386924605270494" lon="11.916590599747018"><ele>794.8</ele><time>2026-03-29T08:25:05Z</time></trkpt><trkpt lat="43.38686178645378" lon="11.916680592457105"><ele>794.4000000000001</ele><time>2026-03-29T08:25:06Z</time></trkpt><trkpt lat="43.38680602015015" lon="11.91682330799424"><ele>794.0</ele><time>2026-03-29T08:25:07Z</time></trkpt><trkpt lat="43.386735492081854" lon="11.916874270195331"><ele>794.0000000000001</ele><time>2026-03-29T08:25:08Z</time></trkpt><trkpt lat="43.38665709093354" lon="11.916902059344604"><ele>794.0</ele><time>2026-03-29T08:25:09Z</time></trkpt><trkpt lat="43.38657238327296" lon="11.916947478182534"><ele>794.0</ele><time>2026-03-29T08:25:11Z</time></trkpt><trkpt lat="43.38651317638434" lon="11.917030312691457"><ele>794.0</ele><time>2026-03-29T08:25:13Z</time></trkpt><trkpt lat="43.38649648941359" lon="11.917176175633717"><ele>794.0000000000001</ele><time>2026-03-29T08:25:15Z</time></trkpt><trkpt lat="43.38645026158207" lon="11.917251328006488"><ele>794.0</ele><time>2026-03-29T08:25:16Z</time></trkpt><trkpt lat="43.38635557557871" lon="11.917285684398326"><ele>793.8000000000001</ele><time>2026-03-29T08:25:18Z</time></trkpt><trkpt lat="43.38624972592205" lon="11.917401172228471"><ele>793.6</ele><time>2026-03-29T08:25:59.999Z</time></trkpt><trkpt lat="43.3861869124048" lon="11.917461831252174"><ele>793.4</ele><time>2026-03-29T08:26:00.999Z</time></trkpt><trkpt lat="43.38612591543755" lon="11.917539761254915"><ele>793.2</ele><time>2026-03-29T08:26:01.999Z</time></trkpt><trkpt lat="43.386056752861165" lon="11.917623829346562"><ele>793.0</ele><time>2026-03-29T08:26:02.999Z</time></trkpt><trkpt lat="43.385984669229934" lon="11.91768156258255"><ele>794.1666666666666</ele><time>2026-03-29T08:26:03.999Z</time></trkpt><trkpt lat="43.38591290111263" lon="11.917724597999968"><ele>795.3333333333333</ele><time>2026-03-29T08:26:04.999Z</time></trkpt><trkpt lat="43.38584572599198" lon="11.917785477933561"><ele>796.5</ele><time>2026-03-29T08:26:05.999Z</time></trkpt><trkpt lat="43.385784289018275" lon="11.91787623190862"><ele>797.6666666666667</ele><time>2026-03-29T08:26:06.999Z</time></trkpt><trkpt lat="43.38571929571969" lon="11.917979281258532"><ele>798.8333333333334</ele><time>2026-03-29T08:26:07.999Z</time></trkpt><trkpt lat="43.3856656449795" lon="11.91806129038192"><ele>800.0</ele><time>2026-03-29T08:26:08.999Z</time></trkpt><trkpt lat="43.385614811494854" lon="11.918136287984566"><ele>800.0000000000001</ele><time>2026-03-29T08:26:09.999Z</time></trkpt><trkpt lat="43.385553889408854" lon="11.918206981358676"><ele>800.0</ele><time>2026-03-29T08:26:10.999Z</time></trkpt><trkpt lat="43.38548049900492" lon="11.918254042100298"><ele>800.0</ele><time>2026-03-29T08:26:11.999Z</time></trkpt><trkpt lat="43.385396978477004" lon="11.918252061624596"><ele>800.0</ele><time>2026-03-29T08:26:12.999Z</time></trkpt><trkpt lat="43.385297635370684" lon="11.918249615025056"><ele>800.0000000000001</ele><time>2026-03-29T08:26:13.999Z</time></trkpt><trkpt lat="43.38520037172228" lon="11.918277608424237"><ele>800.0</ele><time>2026-03-29T08:26:14.999Z</time></trkpt><trkpt lat="43.38511411851133" lon="11.918320896060697"><ele>800.6</ele><time>2026-03-29T08:26:15.999Z</time></trkpt><trkpt lat="43.385020176489135" lon="11.918322785371213"><ele>801.2</ele><time>2026-03-29T08:26:16.999Z</time></trkpt><trkpt lat="43.384927739279654" lon="11.918329731021958"><ele>801.8</ele><time>2026-03-29T08:26:17.999Z</time></trkpt><trkpt lat="43.38481962728008" lon="11.91835761698096"><ele>802.4</ele><time>2026-03-29T08:26:18.999Z</time></trkpt><trkpt lat="43.38471047022481" lon="11.91839353682969"><ele>803.0</ele><time>2026-03-29T08:26:19.999Z</time></trkpt><trkpt lat="43.38460187752132" lon="11.918426996655384"><ele>806.8</ele><time>2026-03-29T08:26:20.999Z</time></trkpt><trkpt lat="43.38448911047421" lon="11.91845958695863"><ele>810.5999999999999</ele><time>2026-03-29T08:26:21.999Z</time></trkpt><trkpt lat="43.38438230790478" lon="11.918458630793092"><ele>814.4000000000001</ele><time>2026-03-29T08:26:22.999Z</time></trkpt><trkpt lat="43.384280544950435" lon="11.91845118440525"><ele>818.2</ele><time>2026-03-29T08:26:23.999Z</time></trkpt><trkpt lat="43.38417840833839" lon="11.91844518975928"><ele>822.0</ele><time>2026-03-29T08:26:24.999Z</time></trkpt><trkpt lat="43.384091727801" lon="11.918432073653415"><ele>821.3333333333334</ele><time>2026-03-29T08:26:25.999Z</time></trkpt><trkpt lat="43.383998364385306" lon="11.91839554691903"><ele>820.6666666666667</ele><time>2026-03-29T08:26:26.999Z</time></trkpt><trkpt lat="43.38391637766293" lon="11.918364914947894"><ele>820.0</ele><time>2026-03-29T08:26:27.999Z</time></trkpt><trkpt lat="43.38385093370819" lon="11.918341583433914"><ele>819.3333333333334</ele><time>2026-03-29T08:26:28.999Z</time></trkpt><trkpt lat="43.38378421896003" lon="11.918340108126523"><ele>818.6666666666667</ele><time>2026-03-29T08:26:29.999Z</time></trkpt><trkpt lat="43.38369977003676" lon="11.918364647838798"><ele>818.0</ele><time>2026-03-29T08:26:30.999Z</time></trkpt><trkpt lat="43.38361550329269" lon="11.918410859051512"><ele>818.0</ele><time>2026-03-29T08:26:31.999Z</time></trkpt><trkpt lat="43.383545138069984" lon="11.918489616663258"><ele>818.0</ele><time>2026-03-29T08:26:32.999Z</time></trkpt><trkpt lat="43.383471410472794" lon="11.918586897217144"><ele>818.0</ele><time>2026-03-29T08:26:33.999Z</time></trkpt><trkpt lat="43.38339197896398" lon="11.918668585499951"><ele>818.0</ele><time>2026-03-29T08:26:34.999Z</time></trkpt><trkpt lat="43.38330059039591" lon="11.918759188308389"><ele>818.0</ele><time>2026-03-29T08:26:35.998Z</time></trkpt><trkpt lat="43.383205538139194" lon="11.918832627926989"><ele>818.0000000000001</ele><time>2026-03-29T08:26:36.998Z</time></trkpt><trkpt lat="43.38312523586571" lon="11.918899284275623"><ele>818.0</ele><time>2026-03-29T08:26:37.998Z</time></trkpt><trkpt lat="43.38307781749359" lon="11.918974099479225"><ele>818.0</ele><time>2026-03-29T08:26:38.998Z</time></trkpt><trkpt lat="43.38304295282581" lon="11.919074350087026"><ele>818.0</ele><time>2026-03-29T08:26:39.998Z</time></trkpt><trkpt lat="43.38302753853415" lon="11.919206281907309"><ele>818.0000000000001</ele><time>2026-03-29T08:26:40.998Z</time></trkpt><trkpt lat="43.38301875882106" lon="11.919340876827642"><ele>818.0</ele><time>2026-03-29T08:26:41.998Z</time></trkpt><trkpt lat="43.38301565685425" lon="11.919456533128292"><ele>811.8</ele><time>2026-03-29T08:26:42.998Z</time></trkpt><trkpt lat="43.38300340983271" lon="11.919590064833347"><ele>805.5999999999999</ele><time>2026-03-29T08:26:43.998Z</time></trkpt><trkpt lat="43.382996830441364" lon="11.919716221022385"><ele>799.4000000000001</ele><time>2026-03-29T08:26:44.998Z</time></trkpt><trkpt lat="43.38299010617319" lon="11.919829536524963"><ele>793.2</ele><time>2026-03-29T08:26:45.998Z</time></trkpt><trkpt lat="43.382973916302475" lon="11.919967637942394"><ele>787.0</ele><time>2026-03-29T08:26:46.998Z</time></trkpt><trkpt lat="43.38294282303255" lon="11.920074137415414"><ele>786.9999999999999</ele><time>2026-03-29T08:26:47.998Z</time></trkpt><trkpt lat="43.38293220641538" lon="11.920181327098582"><ele>787.0</ele><time>2026-03-29T08:26:49Z</time></trkpt><trkpt lat="43.38292418429752" lon="11.920270205900383"><ele>787.0</ele><time>2026-03-29T08:26:50Z</time></trkpt><trkpt lat="43.382916394411396" lon="11.920406070630118"><ele>787.0</ele><time>2026-03-29T08:26:51Z</time></trkpt><trkpt lat="43.38292504030731" lon="11.920535392202982"><ele>786.9999999999999</ele><time>2026-03-29T08:26:52Z</time></trkpt><trkpt lat="43.38294206462739" lon="11.92063882923446"><ele>787.0</ele><time>2026-03-29T08:26:53Z</time></trkpt><trkpt lat="43.38294668742168" lon="11.92075343947846"><ele>787.0</ele><time>2026-03-29T08:26:54Z</time></trkpt><trkpt lat="43.382938596871476" lon="11.92088487591106"><ele>787.0</ele><time>2026-03-29T08:26:55Z</time></trkpt><trkpt lat="43.38292134229183" lon="11.920999890516795"><ele>787.0</ele><time>2026-03-29T08:26:56Z</time></trkpt><trkpt lat="43.382891728071456" lon="11.921129252146539"><ele>787.0</ele><time>2026-03-29T08:26:57Z</time></trkpt><trkpt lat="43.38288771410845" lon="11.921248965326285"><ele>787.0</ele><time>2026-03-29T08:26:58Z</time></trkpt><trkpt lat="43.38287812245484" lon="11.921367919847624"><ele>787.6666666666666</ele><time>2026-03-29T08:26:59Z</time></trkpt><trkpt lat="43.382868070174844" lon="11.921485943596991"><ele>788.3333333333333</ele><time>2026-03-29T08:27:00Z</time></trkpt><trkpt lat="43.382869955123084" lon="11.921594664039043"><ele>789.0</ele><time>2026-03-29T08:27:01Z</time></trkpt><trkpt lat="43.382853982372104" lon="11.921695126256452"><ele>789.6666666666667</ele><time>2026-03-29T08:27:02Z</time></trkpt><trkpt lat="43.38283260804552" lon="11.921790763242196"><ele>790.3333333333334</ele><time>2026-03-29T08:27:03Z</time></trkpt><trkpt lat="43.382807770990304" lon="11.921887095051801"><ele>791.0</ele><time>2026-03-29T08:27:04Z</time></trkpt><trkpt lat="43.38279217333548" lon="11.921987367305178"><ele>793.0</ele><time>2026-03-29T08:27:05Z</time></trkpt><trkpt lat="43.382756445090756" lon="11.922094870859459"><ele>795.0</ele><time>2026-03-29T08:27:06Z</time></trkpt><trkpt lat="43.382677219024906" lon="11.922179758474938"><ele>797.0</ele><time>2026-03-29T08:27:07Z</time></trkpt><trkpt lat="43.382570865906224" lon="11.922239051749484"><ele>799.0</ele><time>2026-03-29T08:27:08Z</time></trkpt><trkpt lat="43.38248326041268" lon="11.922269204103827"><ele>801.0</ele><time>2026-03-29T08:27:09Z</time></trkpt><trkpt lat="43.382425585827384" lon="11.922333545086786"><ele>801.0</ele><time>2026-03-29T08:27:10Z</time></trkpt><trkpt lat="43.382355916235866" lon="11.92237901307306"><ele>801.0</ele><time>2026-03-29T08:27:12Z</time></trkpt><trkpt lat="43.382289577490944" lon="11.922438940580788"><ele>801.0</ele><time>2026-03-29T08:27:13Z</time></trkpt><trkpt lat="43.38221227569541" lon="11.92250055634401"><ele>801.0</ele><time>2026-03-29T08:27:14Z</time></trkpt><trkpt lat="43.3821112966647" lon="11.922556729636256"><ele>801.0</ele><time>2026-03-29T08:27:15Z</time></trkpt><trkpt lat="43.38201054534724" lon="11.922617932002122"><ele>803.1999999999999</ele><time>2026-03-29T08:27:16Z</time></trkpt><trkpt lat="43.38193395987428" lon="11.922693781647993"><ele>805.4</ele><time>2026-03-29T08:27:17Z</time></trkpt><trkpt lat="43.381861202695326" lon="11.922796623036021"><ele>807.6</ele><time>2026-03-29T08:27:18Z</time></trkpt><trkpt lat="43.381801551397814" lon="11.922877961571317"><ele>809.8</ele><time>2026-03-29T08:27:19Z</time></trkpt><trkpt lat="43.38173031430876" lon="11.922970647571116"><ele>812.0</ele><time>2026-03-29T08:27:20Z</time></trkpt><trkpt lat="43.381679914512304" lon="11.923042214854993"><ele>812.0000000000001</ele><time>2026-03-29T08:27:21Z</time></trkpt><trkpt lat="43.38163335660155" lon="11.923111906586026"><ele>812.0</ele><time>2026-03-29T08:27:22Z</time></trkpt><trkpt lat="43.381598375200895" lon="11.923196708552103"><ele>812.0</ele><time>2026-03-29T08:27:23Z</time></trkpt><trkpt lat="43.381537909785905" lon="11.923276247503486"><ele>812.0</ele><time>2026-03-29T08:27:24Z</time></trkpt><trkpt lat="43.38146396495879" lon="11.923369500019176"><ele>812.0000000000001</ele><time>2026-03-29T08:27:25Z</time></trkpt><trkpt lat="43.381400894236236" lon="11.923483778640737"><ele>812.0</ele><time>2026-03-29T08:27:26Z</time></trkpt><trkpt lat="43.38136408034122" lon="11.923605012051986"><ele>813.0000000000001</ele><time>2026-03-29T08:27:27Z</time></trkpt><trkpt lat="43.38132637576502" lon="11.92369555683948"><ele>814.0</ele><time>2026-03-29T08:27:28Z</time></trkpt><trkpt lat="43.38125562144708" lon="11.923747161344995"><ele>815.0</ele><time>2026-03-29T08:27:29Z</time></trkpt><trkpt lat="43.381195993542" lon="11.923814220937212"><ele>816.0</ele><time>2026-03-29T08:27:30Z</time></trkpt><trkpt lat="43.38113585970763" lon="11.923899932140223"><ele>817.0000000000001</ele><time>2026-03-29T08:27:31Z</time></trkpt><trkpt lat="43.381101096456845" lon="11.923990980572174"><ele>818.0</ele><time>2026-03-29T08:27:32Z</time></trkpt><trkpt lat="43.38106769277619" lon="11.924080392189836"><ele>818.0</ele><time>2026-03-29T08:27:32.999Z</time></trkpt><trkpt lat="43.381016639052845" lon="11.924177466175216"><ele>818.0</ele><time>2026-03-29T08:27:33.999Z</time></trkpt><trkpt lat="43.38095468824893" lon="11.924272441859141"><ele>818.0</ele><time>2026-03-29T08:27:34.999Z</time></trkpt><trkpt lat="43.380882164885094" lon="11.924375663468094"><ele>818.0</ele><time>2026-03-29T08:27:35.999Z</time></trkpt><trkpt lat="43.380806659112004" lon="11.924497215224429"><ele>818.0</ele><time>2026-03-29T08:27:36.999Z</time></trkpt><trkpt lat="43.380725192744244" lon="11.924627300652245"><ele>820.4</ele><time>2026-03-29T08:27:37.999Z</time></trkpt><trkpt lat="43.38064242251061" lon="11.92472301825549"><ele>822.8</ele><time>2026-03-29T08:27:38.999Z</time></trkpt><trkpt lat="43.380548889808125" lon="11.924789182229208"><ele>825.2</ele><time>2026-03-29T08:27:39.999Z</time></trkpt><trkpt lat="43.380449642273874" lon="11.924853268875397"><ele>827.6</ele><time>2026-03-29T08:27:40.999Z</time></trkpt><trkpt lat="43.38036572807927" lon="11.924908332197056"><ele>830.0</ele><time>2026-03-29T08:27:41.999Z</time></trkpt><trkpt lat="43.380292911047505" lon="11.924954993854167"><ele>830.0000000000001</ele><time>2026-03-29T08:27:42.999Z</time></trkpt><trkpt lat="43.38022610372323" lon="11.925006989433214"><ele>830.0</ele><time>2026-03-29T08:27:43.999Z</time></trkpt><trkpt lat="43.380164011938774" lon="11.925043257632264"><ele>830.0</ele><time>2026-03-29T08:27:44.999Z</time></trkpt><trkpt lat="43.38009372629597" lon="11.92507618504924"><ele>830.0</ele><time>2026-03-29T08:27:45.999Z</time></trkpt><trkpt lat="43.380003098495514" lon="11.925107949307995"><ele>830.0000000000001</ele><time>2026-03-29T08:27:46.999Z</time></trkpt><trkpt lat="43.37990785809303" lon="11.925123065867313"><ele>830.0</ele><time>2026-03-29T08:27:47.999Z</time></trkpt><trkpt lat="43.379799011573894" lon="11.92517088315738"><ele>830.1666666666667</ele><time>2026-03-29T08:27:48.999Z</time></trkpt><trkpt lat="43.37971785095468" lon="11.925217105076294"><ele>830.3333333333334</ele><time>2026-03-29T08:27:49.999Z</time></trkpt><trkpt lat="43.379639169204665" lon="11.925251675016902"><ele>830.5</ele><time>2026-03-29T08:27:50.999Z</time></trkpt><trkpt lat="43.379546864047526" lon="11.925274281047482"><ele>830.6666666666667</ele><time>2026-03-29T08:27:51.999Z</time></trkpt><trkpt lat="43.37944952292681" lon="11.925300370678023"><ele>830.8333333333334</ele><time>2026-03-29T08:27:52.999Z</time></trkpt><trkpt lat="43.379367432145486" lon="11.925298638005328"><ele>831.0</ele><time>2026-03-29T08:27:53.999Z</time></trkpt><trkpt lat="43.37929553484923" lon="11.925298490697516"><ele>831.0</ele><time>2026-03-29T08:27:54.999Z</time></trkpt><trkpt lat="43.379215665807706" lon="11.925360179326196"><ele>831.0</ele><time>2026-03-29T08:27:56.999Z</time></trkpt><trkpt lat="43.37916306873221" lon="11.925456578026347"><ele>831.0</ele><time>2026-03-29T08:27:58.999Z</time></trkpt><trkpt lat="43.37913930147696" lon="11.925538761637624"><ele>831.0</ele><time>2026-03-29T08:28:00.999Z</time></trkpt><trkpt lat="43.37911045585721" lon="11.925652907067567"><ele>831.0</ele><time>2026-03-29T08:28:03.999Z</time></trkpt><trkpt lat="43.37908464977617" lon="11.925755100239778"><ele>831.0</ele><time>2026-03-29T08:28:05.999Z</time></trkpt><trkpt lat="43.37905785754299" lon="11.925862540252641"><ele>830.5</ele><time>2026-03-29T08:28:07.999Z</time></trkpt><trkpt lat="43.37902544133563" lon="11.925965205386474"><ele>830.0</ele><time>2026-03-29T08:28:09.999Z</time></trkpt><trkpt lat="43.379008002177464" lon="11.926090039912534"><ele>829.5</ele><time>2026-03-29T08:28:11.999Z</time></trkpt><trkpt lat="43.3789978095742" lon="11.926178313662119"><ele>829.0</ele><time>2026-03-29T08:28:12.999Z</time></trkpt><trkpt lat="43.379004942515316" lon="11.926291829219304"><ele>828.5</ele><time>2026-03-29T08:28:14.999Z</time></trkpt><trkpt lat="43.37902028014841" lon="11.926399690046289"><ele>828.0</ele><time>2026-03-29T08:28:16.999Z</time></trkpt><trkpt lat="43.37902416122064" lon="11.926516765915483"><ele>828.0</ele><time>2026-03-29T08:28:18.999Z</time></trkpt><trkpt lat="43.37904336449136" lon="11.926665415705541"><ele>828.0</ele><time>2026-03-29T08:28:20.999Z</time></trkpt><trkpt lat="43.37903603888574" lon="11.926785601895412"><ele>828.0</ele><time>2026-03-29T08:28:22.999Z</time></trkpt><trkpt lat="43.37904941583077" lon="11.926881120559917"><ele>828.0</ele><time>2026-03-29T08:28:24.999Z</time></trkpt><trkpt lat="43.3790488250027" lon="11.926999986092957"><ele>828.0</ele><time>2026-03-29T08:28:26.999Z</time></trkpt><trkpt lat="43.37901915279603" lon="11.927101188236879"><ele>828.0</ele><time>2026-03-29T08:28:28.999Z</time></trkpt><trkpt lat="43.37901375460505" lon="11.927218961875067"><ele>826.0000000000001</ele><time>2026-03-29T08:28:31.999Z</time></trkpt><trkpt lat="43.37904162607321" lon="11.927299615842603"><ele>824.0</ele><time>2026-03-29T08:28:33.999Z</time></trkpt><trkpt lat="43.37905003825439" lon="11.927417014665316"><ele>822.0</ele><time>2026-03-29T08:28:36.999Z</time></trkpt><trkpt lat="43.37902337307775" lon="11.927521690527096"><ele>820.0</ele><time>2026-03-29T08:28:39.998Z</time></trkpt><trkpt lat="43.3790217545618" lon="11.927614807067563"><ele>818.0</ele><time>2026-03-29T08:29:25Z</time></trkpt><trkpt lat="43.37897436372538" lon="11.9276730135826"><ele>816.0000000000001</ele><time>2026-03-29T08:29:29Z</time></trkpt><trkpt lat="43.37892716448203" lon="11.927739456167188"><ele>814.0</ele><time>2026-03-29T08:29:34Z</time></trkpt><trkpt lat="43.37888768274108" lon="11.927815509081595"><ele>811.5714285714287</ele><time>2026-03-29T08:29:36Z</time></trkpt><trkpt lat="43.37885397709896" lon="11.927890847811042"><ele>809.1428571428571</ele><time>2026-03-29T08:29:38Z</time></trkpt><trkpt lat="43.378771839423514" lon="11.927903329827409"><ele>806.7142857142858</ele><time>2026-03-29T08:29:41.999Z</time></trkpt><trkpt lat="43.37869348617612" lon="11.92790789521811"><ele>804.2857142857143</ele><time>2026-03-29T08:30:01.999Z</time></trkpt><trkpt lat="43.37867440942262" lon="11.927999140869263"><ele>801.8571428571429</ele><time>2026-03-29T08:30:09.999Z</time></trkpt><trkpt lat="43.37861582259895" lon="11.928053551539021"><ele>799.4285714285714</ele><time>2026-03-29T08:30:25.999Z</time></trkpt><trkpt lat="43.37855171160538" lon="11.928110368303628"><ele>797.0</ele><time>2026-03-29T08:30:28.999Z</time></trkpt><trkpt lat="43.37851907849763" lon="11.928215963767702"><ele>793.8</ele><time>2026-03-29T08:30:30.999Z</time></trkpt><trkpt lat="43.37846863239885" lon="11.92831285588483"><ele>790.6</ele><time>2026-03-29T08:30:32.999Z</time></trkpt><trkpt lat="43.378443602267176" lon="11.928460843739526"><ele>787.4</ele><time>2026-03-29T08:30:34.999Z</time></trkpt><trkpt lat="43.378418962797404" lon="11.92860824218351"><ele>784.1999999999999</ele><time>2026-03-29T08:30:36.999Z</time></trkpt><trkpt lat="43.378401305359816" lon="11.928707270655726"><ele>781.0</ele><time>2026-03-29T08:30:38.999Z</time></trkpt><trkpt lat="43.378424091169606" lon="11.928801180072028"><ele>779.4999999999999</ele><time>2026-03-29T08:30:40.999Z</time></trkpt><trkpt lat="43.37841289695662" lon="11.928895285214324"><ele>778.0</ele><time>2026-03-29T08:31:02Z</time></trkpt><trkpt lat="43.378388763487926" lon="11.928982625711093"><ele>776.5</ele><time>2026-03-29T08:31:04Z</time></trkpt><trkpt lat="43.378391366653766" lon="11.929101122933075"><ele>775.0</ele><time>2026-03-29T08:31:06Z</time></trkpt><trkpt lat="43.37839566089249" lon="11.929266071127339"><ele>773.4999999999999</ele><time>2026-03-29T08:31:08Z</time></trkpt><trkpt lat="43.37839554883103" lon="11.929373107580671"><ele>772.0</ele><time>2026-03-29T08:31:09Z</time></trkpt><trkpt lat="43.378396189394834" lon="11.929462721603704"><ele>770.8</ele><time>2026-03-29T08:31:10Z</time></trkpt><trkpt lat="43.37840035432191" lon="11.929615765178575"><ele>769.6</ele><time>2026-03-29T08:31:12Z</time></trkpt><trkpt lat="43.378427124927974" lon="11.929711216568172"><ele>768.4</ele><time>2026-03-29T08:31:14Z</time></trkpt><trkpt lat="43.37843003138129" lon="11.929807776130602"><ele>767.1999999999999</ele><time>2026-03-29T08:31:17Z</time></trkpt><trkpt lat="43.37837895078821" lon="11.929963826018502"><ele>766.0</ele><time>2026-03-29T08:31:19Z</time></trkpt><trkpt lat="43.378395699042635" lon="11.93006953412297"><ele>765.0</ele><time>2026-03-29T08:31:20Z</time></trkpt><trkpt lat="43.378415404246105" lon="11.930186244443206"><ele>764.0</ele><time>2026-03-29T08:31:21Z</time></trkpt><trkpt lat="43.37844029520568" lon="11.930293517139614"><ele>763.0</ele><time>2026-03-29T08:31:22Z</time></trkpt><trkpt lat="43.378445332602745" lon="11.93044430626027"><ele>762.0</ele><time>2026-03-29T08:31:24Z</time></trkpt><trkpt lat="43.37845356084527" lon="11.930535921549485"><ele>761.0</ele><time>2026-03-29T08:31:26Z</time></trkpt><trkpt lat="43.37846235944551" lon="11.930644232358969"><ele>760.0</ele><time>2026-03-29T08:31:28Z</time></trkpt><trkpt lat="43.378482179432886" lon="11.930750327592355"><ele>760.0</ele><time>2026-03-29T08:31:29Z</time></trkpt><trkpt lat="43.378522274921" lon="11.930827654658863"><ele>760.0</ele><time>2026-03-29T08:31:30Z</time></trkpt><trkpt lat="43.378562193047664" lon="11.930965988071463"><ele>760.0</ele><time>2026-03-29T08:31:32Z</time></trkpt><trkpt lat="43.378596053630204" lon="11.931071932407956"><ele>760.0</ele><time>2026-03-29T08:31:34Z</time></trkpt><trkpt lat="43.378662226130835" lon="11.931176774120292"><ele>760.0</ele><time>2026-03-29T08:31:36Z</time></trkpt><trkpt lat="43.37870814723444" lon="11.93124804125316"><ele>760.0</ele><time>2026-03-29T08:31:38Z</time></trkpt><trkpt lat="43.37875006842476" lon="11.931338912423344"><ele>757.8</ele><time>2026-03-29T08:31:41Z</time></trkpt><trkpt lat="43.37873998782094" lon="11.931440937160698"><ele>755.6</ele><time>2026-03-29T08:31:43Z</time></trkpt><trkpt lat="43.37876292367223" lon="11.931552813051947"><ele>753.4000000000001</ele><time>2026-03-29T08:31:46Z</time></trkpt><trkpt lat="43.378798221010655" lon="11.931654444631205"><ele>751.2</ele><time>2026-03-29T08:31:48Z</time></trkpt><trkpt lat="43.378849892874264" lon="11.931788015581882"><ele>749.0</ele><time>2026-03-29T08:31:50Z</time></trkpt><trkpt lat="43.378902122477626" lon="11.931915230955811"><ele>749.0</ele><time>2026-03-29T08:31:51.999Z</time></trkpt><trkpt lat="43.37895988439617" lon="11.93208613451259"><ele>749.0</ele><time>2026-03-29T08:31:53.999Z</time></trkpt><trkpt lat="43.378996479525284" lon="11.93223377692497"><ele>749.0</ele><time>2026-03-29T08:31:54.999Z</time></trkpt><trkpt lat="43.37904403021027" lon="11.932393501305139"><ele>749.0</ele><time>2026-03-29T08:31:56.999Z</time></trkpt><trkpt lat="43.37905585577199" lon="11.932491386915613"><ele>749.0</ele><time>2026-03-29T08:31:57.999Z</time></trkpt><trkpt lat="43.37905437858923" lon="11.932579904705033"><ele>750.8000000000001</ele><time>2026-03-29T08:31:58.999Z</time></trkpt><trkpt lat="43.37903920862829" lon="11.932746854045334"><ele>752.6</ele><time>2026-03-29T08:32:00.999Z</time></trkpt><trkpt lat="43.37902651297442" lon="11.932908894009564"><ele>754.4</ele><time>2026-03-29T08:32:02.999Z</time></trkpt><trkpt lat="43.37901499497349" lon="11.933005861538586"><ele>756.2</ele><time>2026-03-29T08:32:04.999Z</time></trkpt><trkpt lat="43.3790251516899" lon="11.933147328443235"><ele>758.0</ele><time>2026-03-29T08:32:06.999Z</time></trkpt><trkpt lat="43.37907099639181" lon="11.93330993220495"><ele>759.5</ele><time>2026-03-29T08:32:08.999Z</time></trkpt><trkpt lat="43.37909403809041" lon="11.933392359305671"><ele>761.0</ele><time>2026-03-29T08:32:09.999Z</time></trkpt><trkpt lat="43.379095397722296" lon="11.933480723101821"><ele>762.5</ele><time>2026-03-29T08:32:10.999Z</time></trkpt><trkpt lat="43.379103557580216" lon="11.933572761865143"><ele>764.0</ele><time>2026-03-29T08:32:11.999Z</time></trkpt><trkpt lat="43.37911673547951" lon="11.933660708189919"><ele>765.5</ele><time>2026-03-29T08:32:12.999Z</time></trkpt><trkpt lat="43.37913155665455" lon="11.933752584061867"><ele>767.0</ele><time>2026-03-29T08:32:13.999Z</time></trkpt><trkpt lat="43.37916470816178" lon="11.933937690232044"><ele>767.0</ele><time>2026-03-29T08:32:15.999Z</time></trkpt><trkpt lat="43.37916681019829" lon="11.93405817430269"><ele>767.0</ele><time>2026-03-29T08:32:16.999Z</time></trkpt><trkpt lat="43.37915071965619" lon="11.934169637292051"><ele>767.0</ele><time>2026-03-29T08:32:17.999Z</time></trkpt><trkpt lat="43.37914102536063" lon="11.934311434000875"><ele>767.0</ele><time>2026-03-29T08:32:19.999Z</time></trkpt><trkpt lat="43.379120272068825" lon="11.9344490696348"><ele>767.0</ele><time>2026-03-29T08:32:21.999Z</time></trkpt><trkpt lat="43.37915485629375" lon="11.934531069047779"><ele>767.0</ele><time>2026-03-29T08:32:23.999Z</time></trkpt><trkpt lat="43.379214486893176" lon="11.934605617351162"><ele>767.6</ele><time>2026-03-29T08:32:26.999Z</time></trkpt><trkpt lat="43.3792871208379" lon="11.934771254206296"><ele>768.2</ele><time>2026-03-29T08:32:28.999Z</time></trkpt><trkpt lat="43.37929914983343" lon="11.934895286291912"><ele>768.8</ele><time>2026-03-29T08:32:29.999Z</time></trkpt><trkpt lat="43.379295947116674" lon="11.934990106089762"><ele>769.4</ele><time>2026-03-29T08:32:30.999Z</time></trkpt><trkpt lat="43.37929956796221" lon="11.935120355588568"><ele>770.0</ele><time>2026-03-29T08:32:32.999Z</time></trkpt><trkpt lat="43.37931924858864" lon="11.935386938378329"><ele>770.4</ele><time>2026-03-29T08:32:35.999Z</time></trkpt><trkpt lat="43.37938816014921" lon="11.935483930369934"><ele>770.8</ele><time>2026-03-29T08:32:36.999Z</time></trkpt><trkpt lat="43.37942824627097" lon="11.935582046007463"><ele>771.2</ele><time>2026-03-29T08:32:37.999Z</time></trkpt><trkpt lat="43.379416183147924" lon="11.935726208762562"><ele>771.6</ele><time>2026-03-29T08:32:39.999Z</time></trkpt><trkpt lat="43.37943220922932" lon="11.935833691486991"><ele>772.0</ele><time>2026-03-29T08:32:41.999Z</time></trkpt><trkpt lat="43.37943851645337" lon="11.935978131760493"><ele>773.8333333333333</ele><time>2026-03-29T08:32:43.999Z</time></trkpt><trkpt lat="43.37949401508634" lon="11.936101904399015"><ele>775.6666666666666</ele><time>2026-03-29T08:32:45.999Z</time></trkpt><trkpt lat="43.3795254199858" lon="11.93620280327979"><ele>777.5</ele><time>2026-03-29T08:32:46.999Z</time></trkpt><trkpt lat="43.37953347701986" lon="11.936307614494803"><ele>779.3333333333333</ele><time>2026-03-29T08:32:47.999Z</time></trkpt><trkpt lat="43.37955529856038" lon="11.936392464957319"><ele>781.1666666666666</ele><time>2026-03-29T08:32:48.999Z</time></trkpt><trkpt lat="43.37957463625786" lon="11.936509140491983"><ele>783.0</ele><time>2026-03-29T08:32:50.999Z</time></trkpt><trkpt lat="43.3795721590768" lon="11.936609378980622"><ele>783.0</ele><time>2026-03-29T08:32:52.999Z</time></trkpt><trkpt lat="43.37950289672735" lon="11.936636171943528"><ele>783.0</ele><time>2026-03-29T08:32:53.999Z</time></trkpt><trkpt lat="43.379411998625415" lon="11.93667614384841"><ele>783.0</ele><time>2026-03-29T08:32:55.999Z</time></trkpt><trkpt lat="43.3793462714644" lon="11.936693640553889"><ele>783.0</ele><time>2026-03-29T08:32:56.998Z</time></trkpt><trkpt lat="43.379287282451244" lon="11.936728329821491"><ele>783.0</ele><time>2026-03-29T08:32:57.998Z</time></trkpt><trkpt lat="43.37922605197522" lon="11.936764117331357"><ele>783.0</ele><time>2026-03-29T08:32:58.998Z</time></trkpt><trkpt lat="43.379161575096184" lon="11.936796396756481"><ele>783.0</ele><time>2026-03-29T08:32:59.998Z</time></trkpt><trkpt lat="43.379083013979745" lon="11.936832559353288"><ele>784.2</ele><time>2026-03-29T08:33:00.998Z</time></trkpt><trkpt lat="43.37901546938618" lon="11.93686342566197"><ele>785.4</ele><time>2026-03-29T08:33:01.998Z</time></trkpt><trkpt lat="43.37894128091716" lon="11.936956293372054"><ele>786.6</ele><time>2026-03-29T08:33:03.998Z</time></trkpt><trkpt lat="43.378884207550044" lon="11.937040483327268"><ele>787.8000000000001</ele><time>2026-03-29T08:33:05.998Z</time></trkpt><trkpt lat="43.378850317031954" lon="11.937144133794241"><ele>789.0</ele><time>2026-03-29T08:33:08Z</time></trkpt><trkpt lat="43.37882373220534" lon="11.937294567985598"><ele>789.0</ele><time>2026-03-29T08:33:10Z</time></trkpt><trkpt lat="43.37882784308253" lon="11.937381871328927"><ele>789.0</ele><time>2026-03-29T08:33:11Z</time></trkpt><trkpt lat="43.37885405324765" lon="11.937464680496397"><ele>789.0</ele><time>2026-03-29T08:33:12Z</time></trkpt><trkpt lat="43.37891727114404" lon="11.93747881298903"><ele>789.0</ele><time>2026-03-29T08:33:14Z</time></trkpt><trkpt lat="43.37898940675365" lon="11.937546765213302"><ele>789.0</ele><time>2026-03-29T08:33:36Z</time></trkpt><trkpt lat="43.37890542122552" lon="11.937512856153537"><ele>789.0</ele><time>2026-03-29T08:33:45Z</time></trkpt><trkpt lat="43.37881927571155" lon="11.937498693270868"><ele>789.0</ele><time>2026-03-29T08:33:47Z</time></trkpt><trkpt lat="43.37875957815303" lon="11.937544956741823"><ele>789.0</ele><time>2026-03-29T08:33:49Z</time></trkpt><trkpt lat="43.37868481614336" lon="11.93755094058528"><ele>789.0</ele><time>2026-03-29T08:33:51Z</time></trkpt><trkpt lat="43.378610876338" lon="11.937522686625964"><ele>789.0</ele><time>2026-03-29T08:33:53Z</time></trkpt><trkpt lat="43.378506691065056" lon="11.93748857437054"><ele>789.0</ele><time>2026-03-29T08:33:55Z</time></trkpt><trkpt lat="43.378432427939316" lon="11.93744782797651"><ele>789.0</ele><time>2026-03-29T08:33:56.999Z</time></trkpt><trkpt lat="43.37834377066726" lon="11.93748511223233"><ele>789.0</ele><time>2026-03-29T08:33:58.999Z</time></trkpt><trkpt lat="43.37827442037836" lon="11.937491969583167"><ele>789.0</ele><time>2026-03-29T08:34:00.999Z</time></trkpt><trkpt lat="43.37816106392435" lon="11.937508171347094"><ele>789.0</ele><time>2026-03-29T08:34:02.999Z</time></trkpt><trkpt lat="43.37809799096741" lon="11.937528999507032"><ele>789.0</ele><time>2026-03-29T08:34:03.999Z</time></trkpt><trkpt lat="43.37804316824227" lon="11.937575294455947"><ele>789.0</ele><time>2026-03-29T08:34:04.999Z</time></trkpt><trkpt lat="43.37798350200177" lon="11.93762234409229"><ele>789.0</ele><time>2026-03-29T08:34:05.999Z</time></trkpt><trkpt lat="43.37791556199151" lon="11.93766661993845"><ele>785.8000000000001</ele><time>2026-03-29T08:34:06.999Z</time></trkpt><trkpt lat="43.37776975032621" lon="11.937734000811199"><ele>782.6</ele><time>2026-03-29T08:34:07.999Z</time></trkpt><trkpt lat="43.377681963684445" lon="11.937782091983012"><ele>779.4</ele><time>2026-03-29T08:34:08.999Z</time></trkpt><trkpt lat="43.37761614372634" lon="11.937874666884689"><ele>776.2</ele><time>2026-03-29T08:34:09.999Z</time></trkpt><trkpt lat="43.37753924054615" lon="11.937950162591363"><ele>773.0</ele><time>2026-03-29T08:34:10.999Z</time></trkpt><trkpt lat="43.377455778230576" lon="11.937974663831467"><ele>773.0000000000001</ele><time>2026-03-29T08:34:11.999Z</time></trkpt><trkpt lat="43.37739296245673" lon="11.937912633077424"><ele>773.0</ele><time>2026-03-29T08:34:12.999Z</time></trkpt><trkpt lat="43.377333568082484" lon="11.937972787212201"><ele>773.0</ele><time>2026-03-29T08:34:13.999Z</time></trkpt><trkpt lat="43.37728940981229" lon="11.938045155665609"><ele>773.0</ele><time>2026-03-29T08:34:14.999Z</time></trkpt><trkpt lat="43.377231553377186" lon="11.938104993070741"><ele>773.0000000000001</ele><time>2026-03-29T08:34:15.999Z</time></trkpt><trkpt lat="43.377166863967005" lon="11.938124396775741"><ele>773.0</ele><time>2026-03-29T08:34:16.999Z</time></trkpt><trkpt lat="43.377089224896906" lon="11.938194689979085"><ele>771.8</ele><time>2026-03-29T08:34:18.999Z</time></trkpt><trkpt lat="43.37696357882834" lon="11.938217658763444"><ele>770.5999999999999</ele><time>2026-03-29T08:34:20.999Z</time></trkpt><trkpt lat="43.37684949029112" lon="11.93828370635373"><ele>769.4000000000001</ele><time>2026-03-29T08:34:21.999Z</time></trkpt><trkpt lat="43.37675997177213" lon="11.938368406700997"><ele>768.2</ele><time>2026-03-29T08:34:22.999Z</time></trkpt><trkpt lat="43.376672547953824" lon="11.938382600285237"><ele>767.0</ele><time>2026-03-29T08:34:23.999Z</time></trkpt><trkpt lat="43.37658159870885" lon="11.938430435187833"><ele>766.0</ele><time>2026-03-29T08:34:25.999Z</time></trkpt><trkpt lat="43.376519573958724" lon="11.9384664448755"><ele>765.0</ele><time>2026-03-29T08:34:27.999Z</time></trkpt><trkpt lat="43.37639482910327" lon="11.938469496398898"><ele>764.0</ele><time>2026-03-29T08:34:29.999Z</time></trkpt><trkpt lat="43.37630862000959" lon="11.938500918405943"><ele>763.0</ele><time>2026-03-29T08:34:30.999Z</time></trkpt><trkpt lat="43.3762508248353" lon="11.938557409800575"><ele>762.0</ele><time>2026-03-29T08:34:31.999Z</time></trkpt><trkpt lat="43.37617406862151" lon="11.938577916137522"><ele>761.0</ele><time>2026-03-29T08:34:32.999Z</time></trkpt><trkpt lat="43.376106450226985" lon="11.93860086722956"><ele>759.25</ele><time>2026-03-29T08:34:33.999Z</time></trkpt><trkpt lat="43.37603411469261" lon="11.93866631627508"><ele>757.5</ele><time>2026-03-29T08:34:34.999Z</time></trkpt><trkpt lat="43.375939584405415" lon="11.938729678689189"><ele>755.75</ele><time>2026-03-29T08:34:35.999Z</time></trkpt><trkpt lat="43.37582095661035" lon="11.938795461387919"><ele>754.0</ele><time>2026-03-29T08:34:36.999Z</time></trkpt><trkpt lat="43.37569925206098" lon="11.938869363520988"><ele>754.0</ele><time>2026-03-29T08:34:37.999Z</time></trkpt><trkpt lat="43.37556934974176" lon="11.938942100505852"><ele>754.0</ele><time>2026-03-29T08:34:38.999Z</time></trkpt><trkpt lat="43.375476571486004" lon="11.939010887958375"><ele>754.0</ele><time>2026-03-29T08:34:39.999Z</time></trkpt><trkpt lat="43.37539783345573" lon="11.93903229485836"><ele>754.0</ele><time>2026-03-29T08:34:40.999Z</time></trkpt><trkpt lat="43.37532291731661" lon="11.93903426171484"><ele>754.0</ele><time>2026-03-29T08:34:41.999Z</time></trkpt><trkpt lat="43.375275469618884" lon="11.939099911312494"><ele>755.5</ele><time>2026-03-29T08:34:42.999Z</time></trkpt><trkpt lat="43.37525933417187" lon="11.939190190790166"><ele>757.0</ele><time>2026-03-29T08:34:43.999Z</time></trkpt><trkpt lat="43.375251628793336" lon="11.939306786678483"><ele>758.5</ele><time>2026-03-29T08:34:44.999Z</time></trkpt><trkpt lat="43.375201681733266" lon="11.939394957059259"><ele>760.0</ele><time>2026-03-29T08:34:45.999Z</time></trkpt><trkpt lat="43.375115748456196" lon="11.939466214200795"><ele>761.5</ele><time>2026-03-29T08:34:46.999Z</time></trkpt><trkpt lat="43.37503261929288" lon="11.939526516293753"><ele>763.0</ele><time>2026-03-29T08:34:47.999Z</time></trkpt><trkpt lat="43.37495714580887" lon="11.939557657579106"><ele>763.4</ele><time>2026-03-29T08:34:48.999Z</time></trkpt><trkpt lat="43.3748722919014" lon="11.9395454966578"><ele>763.8</ele><time>2026-03-29T08:34:49.999Z</time></trkpt><trkpt lat="43.37478841433109" lon="11.939533043943495"><ele>764.2</ele><time>2026-03-29T08:34:50.999Z</time></trkpt><trkpt lat="43.37467080103189" lon="11.939621327704803"><ele>764.6</ele><time>2026-03-29T08:34:52.999Z</time></trkpt><trkpt lat="43.37464675251604" lon="11.939706577125563"><ele>765.0</ele><time>2026-03-29T08:34:53.999Z</time></trkpt><trkpt lat="43.37456688470912" lon="11.939705421576244"><ele>764.2</ele><time>2026-03-29T08:34:55.999Z</time></trkpt><trkpt lat="43.374491040490035" lon="11.93962298722149"><ele>763.4</ele><time>2026-03-29T08:34:56.999Z</time></trkpt><trkpt lat="43.374412688889024" lon="11.939538382131376"><ele>762.5999999999999</ele><time>2026-03-29T08:34:57.999Z</time></trkpt><trkpt lat="43.374322890938714" lon="11.93953457022857"><ele>761.8</ele><time>2026-03-29T08:34:58.999Z</time></trkpt><trkpt lat="43.37426206826307" lon="11.939479991923937"><ele>761.0</ele><time>2026-03-29T08:35:00.998Z</time></trkpt><trkpt lat="43.3742551192617" lon="11.939343746696936"><ele>761.0</ele><time>2026-03-29T08:35:02.998Z</time></trkpt><trkpt lat="43.374182974383636" lon="11.939299677896013"><ele>761.0</ele><time>2026-03-29T08:35:04.998Z</time></trkpt><trkpt lat="43.37407195484406" lon="11.939294874643892"><ele>761.0</ele><time>2026-03-29T08:35:06.998Z</time></trkpt><trkpt lat="43.37398002823305" lon="11.939272795058912"><ele>761.0</ele><time>2026-03-29T08:35:08.998Z</time></trkpt><trkpt lat="43.3738893977756" lon="11.93924056357895"><ele>761.0</ele><time>2026-03-29T08:35:10.998Z</time></trkpt><trkpt lat="43.373803436573276" lon="11.93918072957353"><ele>759.4</ele><time>2026-03-29T08:35:11.998Z</time></trkpt><trkpt lat="43.37371862132343" lon="11.939138510900172"><ele>757.8</ele><time>2026-03-29T08:35:13Z</time></trkpt><trkpt lat="43.37362752667815" lon="11.939128153782915"><ele>756.1999999999999</ele><time>2026-03-29T08:35:14Z</time></trkpt><trkpt lat="43.37352914384638" lon="11.939133355519726"><ele>754.5999999999999</ele><time>2026-03-29T08:35:15Z</time></trkpt><trkpt lat="43.37344189765925" lon="11.939131518244123"><ele>753.0</ele><time>2026-03-29T08:35:16Z</time></trkpt><trkpt lat="43.37335710221796" lon="11.939124629252376"><ele>753.0</ele><time>2026-03-29T08:35:17Z</time></trkpt><trkpt lat="43.373281343826534" lon="11.939090798168401"><ele>753.0</ele><time>2026-03-29T08:35:18Z</time></trkpt><trkpt lat="43.37322843764495" lon="11.939037769993648"><ele>753.0</ele><time>2026-03-29T08:35:19Z</time></trkpt><trkpt lat="43.37319199195394" lon="11.938892780466112"><ele>753.0</ele><time>2026-03-29T08:35:21Z</time></trkpt><trkpt lat="43.373177972469776" lon="11.938777372793732"><ele>753.0</ele><time>2026-03-29T08:35:22Z</time></trkpt><trkpt lat="43.373146190202235" lon="11.938651953623863"><ele>753.0</ele><time>2026-03-29T08:35:23Z</time></trkpt><trkpt lat="43.37312468729861" lon="11.93854844471347"><ele>753.0</ele><time>2026-03-29T08:35:24Z</time></trkpt><trkpt lat="43.373083766422226" lon="11.93847921848146"><ele>753.0</ele><time>2026-03-29T08:35:25Z</time></trkpt><trkpt lat="43.37301906606237" lon="11.938418917290965"><ele>753.0</ele><time>2026-03-29T08:35:26Z</time></trkpt><trkpt lat="43.37293399106003" lon="11.938282325505817"><ele>753.0</ele><time>2026-03-29T08:35:28Z</time></trkpt><trkpt lat="43.3728348459995" lon="11.938216867286412"><ele>753.0</ele><time>2026-03-29T08:35:30Z</time></trkpt><trkpt lat="43.372762365120735" lon="11.938222661853235"><ele>750.0</ele><time>2026-03-29T08:35:31Z</time></trkpt><trkpt lat="43.372656450554004" lon="11.938156735319755"><ele>747.0</ele><time>2026-03-29T08:35:33Z</time></trkpt><trkpt lat="43.372592180721746" lon="11.938106062608414"><ele>744.0</ele><time>2026-03-29T08:35:34Z</time></trkpt><trkpt lat="43.3725287831098" lon="11.938040997904213"><ele>741.0</ele><time>2026-03-29T08:35:35Z</time></trkpt><trkpt lat="43.37242664276702" lon="11.937969010445348"><ele>738.0</ele><time>2026-03-29T08:35:37Z</time></trkpt><trkpt lat="43.37231301767258" lon="11.937977943333895"><ele>738.0</ele><time>2026-03-29T08:35:39Z</time></trkpt><trkpt lat="43.37224137656753" lon="11.938000845231976"><ele>738.0</ele><time>2026-03-29T08:35:40Z</time></trkpt><trkpt lat="43.372171370104226" lon="11.938037090454909"><ele>738.0</ele><time>2026-03-29T08:35:41Z</time></trkpt><trkpt lat="43.37210383201298" lon="11.938062843082825"><ele>738.0</ele><time>2026-03-29T08:35:42Z</time></trkpt><trkpt lat="43.37201378601818" lon="11.938060559882285"><ele>738.0</ele><time>2026-03-29T08:35:43Z</time></trkpt><trkpt lat="43.37192756606259" lon="11.938040724117474"><ele>738.0</ele><time>2026-03-29T08:35:44Z</time></trkpt><trkpt lat="43.37185500258631" lon="11.938039962880849"><ele>735.1666666666666</ele><time>2026-03-29T08:35:45Z</time></trkpt><trkpt lat="43.37179774036398" lon="11.938084022804974"><ele>732.3333333333334</ele><time>2026-03-29T08:35:46Z</time></trkpt><trkpt lat="43.371718254945876" lon="11.938171220876288"><ele>729.5</ele><time>2026-03-29T08:35:48Z</time></trkpt><trkpt lat="43.37164325250623" lon="11.93818920914305"><ele>726.6666666666667</ele><time>2026-03-29T08:35:50Z</time></trkpt><trkpt lat="43.37157042181611" lon="11.938230231974458"><ele>723.8333333333334</ele><time>2026-03-29T08:35:52Z</time></trkpt><trkpt lat="43.37148368622486" lon="11.938278713152867"><ele>721.0</ele><time>2026-03-29T08:35:54Z</time></trkpt><trkpt lat="43.371509378936686" lon="11.938366679382924"><ele>721.0</ele><time>2026-03-29T08:35:56Z</time></trkpt><trkpt lat="43.37158662353014" lon="11.938408638805083"><ele>721.0</ele><time>2026-03-29T08:46:40.999Z</time></trkpt><trkpt lat="43.37165555133846" lon="11.938461168685347"><ele>721.0</ele><time>2026-03-29T08:46:42.999Z</time></trkpt><trkpt lat="43.37175086274308" lon="11.938463581740477"><ele>721.0</ele><time>2026-03-29T08:46:44.999Z</time></trkpt><trkpt lat="43.371810030438986" lon="11.938392640034955"><ele>721.0</ele><time>2026-03-29T08:46:46.999Z</time></trkpt><trkpt lat="43.371868469771336" lon="11.938346098447601"><ele>721.0</ele><time>2026-03-29T08:46:48.999Z</time></trkpt><trkpt lat="43.371784647931165" lon="11.938265096847617"><ele>721.0</ele><time>2026-03-29T08:46:52.999Z</time></trkpt><trkpt lat="43.371688681470204" lon="11.938203421858297"><ele>721.0</ele><time>2026-03-29T08:46:54.999Z</time></trkpt><trkpt lat="43.37162204006622" lon="11.938257293161087"><ele>721.0</ele><time>2026-03-29T08:46:56.999Z</time></trkpt><trkpt lat="43.37155247772625" lon="11.93827895677121"><ele>721.0</ele><time>2026-03-29T08:47:54Z</time></trkpt><trkpt lat="43.37148431409078" lon="11.93829522047432"><ele>721.0</ele><time>2026-03-29T08:47:55Z</time></trkpt><trkpt lat="43.371409153226764" lon="11.938318281850238"><ele>721.0</ele><time>2026-03-29T08:47:56Z</time></trkpt><trkpt lat="43.37133779947341" lon="11.938340587821278"><ele>721.1999999999999</ele><time>2026-03-29T08:47:57Z</time></trkpt><trkpt lat="43.37125015384399" lon="11.938384410760728"><ele>721.4</ele><time>2026-03-29T08:47:59Z</time></trkpt><trkpt lat="43.37115193630951" lon="11.938463596783015"><ele>721.6</ele><time>2026-03-29T08:48:01Z</time></trkpt><trkpt lat="43.371096995289044" lon="11.938532333356312"><ele>721.8</ele><time>2026-03-29T08:48:02Z</time></trkpt><trkpt lat="43.37104954868589" lon="11.938616196576236"><ele>722.0</ele><time>2026-03-29T08:48:03Z</time></trkpt><trkpt lat="43.37101322598225" lon="11.938805044000745"><ele>722.0</ele><time>2026-03-29T08:48:05Z</time></trkpt><trkpt lat="43.37096432125778" lon="11.938984152182178"><ele>722.0</ele><time>2026-03-29T08:48:07Z</time></trkpt><trkpt lat="43.37094323145171" lon="11.939075046796598"><ele>722.0</ele><time>2026-03-29T08:48:08Z</time></trkpt><trkpt lat="43.37087343107088" lon="11.939207771520163"><ele>722.0</ele><time>2026-03-29T08:48:10Z</time></trkpt><trkpt lat="43.37082895399076" lon="11.939272522810676"><ele>722.0</ele><time>2026-03-29T08:48:12Z</time></trkpt><trkpt lat="43.37081122862657" lon="11.939430024191664"><ele>721.6</ele><time>2026-03-29T08:48:15Z</time></trkpt><trkpt lat="43.370779174466996" lon="11.939529170556224"><ele>721.2</ele><time>2026-03-29T08:48:16Z</time></trkpt><trkpt lat="43.370760792353494" lon="11.939624814739862"><ele>720.8</ele><time>2026-03-29T08:48:17Z</time></trkpt><trkpt lat="43.370676995063526" lon="11.939721290027922"><ele>720.4</ele><time>2026-03-29T08:48:19Z</time></trkpt><trkpt lat="43.370606003549206" lon="11.9397468154222"><ele>720.0</ele><time>2026-03-29T08:48:20Z</time></trkpt><trkpt lat="43.370465133022016" lon="11.939726949905195"><ele>720.0</ele><time>2026-03-29T08:48:22Z</time></trkpt><trkpt lat="43.3703998277372" lon="11.939708223288584"><ele>720.0</ele><time>2026-03-29T08:48:23Z</time></trkpt><trkpt lat="43.37032167445759" lon="11.939649082050098"><ele>720.0</ele><time>2026-03-29T08:48:24Z</time></trkpt><trkpt lat="43.37025087930477" lon="11.93959662213892"><ele>720.0</ele><time>2026-03-29T08:48:25Z</time></trkpt><trkpt lat="43.370174358507654" lon="11.939549842967892"><ele>720.0</ele><time>2026-03-29T08:48:26Z</time></trkpt><trkpt lat="43.37013251351279" lon="11.93947810402763"><ele>720.0</ele><time>2026-03-29T08:48:27Z</time></trkpt><trkpt lat="43.3700846434373" lon="11.939409489527048"><ele>720.0</ele><time>2026-03-29T08:48:28Z</time></trkpt><trkpt lat="43.370026808494394" lon="11.939447675364558"><ele>720.0</ele><time>2026-03-29T08:48:30Z</time></trkpt><trkpt lat="43.369966708052004" lon="11.939521754706158"><ele>720.0</ele><time>2026-03-29T08:48:31Z</time></trkpt><trkpt lat="43.369907141630684" lon="11.939592620037349"><ele>720.0</ele><time>2026-03-29T08:48:31.999Z</time></trkpt><trkpt lat="43.36983893627202" lon="11.939641239293431"><ele>720.0</ele><time>2026-03-29T08:48:32.999Z</time></trkpt><trkpt lat="43.36976387291811" lon="11.939766635649567"><ele>720.0</ele><time>2026-03-29T08:48:34.999Z</time></trkpt><trkpt lat="43.36973109871768" lon="11.939843493471018"><ele>721.0</ele><time>2026-03-29T08:48:35.999Z</time></trkpt><trkpt lat="43.36968375078648" lon="11.939946501134475"><ele>722.0</ele><time>2026-03-29T08:48:36.999Z</time></trkpt><trkpt lat="43.369642903825074" lon="11.940019752234178"><ele>723.0</ele><time>2026-03-29T08:48:37.999Z</time></trkpt><trkpt lat="43.3696055672198" lon="11.940094279558284"><ele>724.0</ele><time>2026-03-29T08:48:38.999Z</time></trkpt><trkpt lat="43.369542440055184" lon="11.940187352933147"><ele>725.0</ele><time>2026-03-29T08:48:40.999Z</time></trkpt><trkpt lat="43.36946580500739" lon="11.94020591244081"><ele>726.0</ele><time>2026-03-29T08:48:41.999Z</time></trkpt><trkpt lat="43.36937620955876" lon="11.940230075339382"><ele>726.0</ele><time>2026-03-29T08:48:42.999Z</time></trkpt><trkpt lat="43.36929239232113" lon="11.940228823586123"><ele>726.0</ele><time>2026-03-29T08:48:43.999Z</time></trkpt><trkpt lat="43.36923872176521" lon="11.94017751653553"><ele>726.0</ele><time>2026-03-29T08:48:45.999Z</time></trkpt><trkpt lat="43.3691743824453" lon="11.940024635692279"><ele>726.0</ele><time>2026-03-29T08:48:47.999Z</time></trkpt><trkpt lat="43.36906721432265" lon="11.939818880255917"><ele>726.0</ele><time>2026-03-29T08:48:48.999Z</time></trkpt><trkpt lat="43.369005505293494" lon="11.939726913011857"><ele>726.0</ele><time>2026-03-29T08:48:49.999Z</time></trkpt><trkpt lat="43.36891330604432" lon="11.939682853626081"><ele>726.0</ele><time>2026-03-29T08:48:50.999Z</time></trkpt><trkpt lat="43.368844562444714" lon="11.939630783385873"><ele>726.0</ele><time>2026-03-29T08:48:51.999Z</time></trkpt><trkpt lat="43.368802504104636" lon="11.939552241810954"><ele>726.0</ele><time>2026-03-29T08:48:52.999Z</time></trkpt><trkpt lat="43.36875162828686" lon="11.939485106594985"><ele>726.0</ele><time>2026-03-29T08:48:53.999Z</time></trkpt><trkpt lat="43.36879703265565" lon="11.939398665657565"><ele>725.5999999999999</ele><time>2026-03-29T08:48:54.999Z</time></trkpt><trkpt lat="43.368728271883526" lon="11.939408808039195"><ele>725.2</ele><time>2026-03-29T08:48:55.999Z</time></trkpt><trkpt lat="43.368519475942044" lon="11.939321169392995"><ele>724.8</ele><time>2026-03-29T08:48:57.999Z</time></trkpt><trkpt lat="43.36845282359475" lon="11.939254876515715"><ele>724.4000000000001</ele><time>2026-03-29T08:48:58.999Z</time></trkpt><trkpt lat="43.368386605219314" lon="11.939235852456187"><ele>724.0</ele><time>2026-03-29T08:48:59.999Z</time></trkpt><trkpt lat="43.368317760269306" lon="11.939245505346204"><ele>724.0</ele><time>2026-03-29T08:49:00.999Z</time></trkpt><trkpt lat="43.36829542600553" lon="11.939344066248598"><ele>724.0</ele><time>2026-03-29T08:49:01.999Z</time></trkpt><trkpt lat="43.3682448996969" lon="11.939424667963136"><ele>724.0</ele><time>2026-03-29T08:49:03.999Z</time></trkpt><trkpt lat="43.3681790346848" lon="11.939553214528312"><ele>724.0</ele><time>2026-03-29T08:49:05.999Z</time></trkpt><trkpt lat="43.3680963389657" lon="11.939630294635807"><ele>724.0</ele><time>2026-03-29T08:49:07.999Z</time></trkpt><trkpt lat="43.36801419171915" lon="11.939693531549079"><ele>726.6</ele><time>2026-03-29T08:49:09.999Z</time></trkpt><trkpt lat="43.36796351373096" lon="11.939844199778246"><ele>729.2</ele><time>2026-03-29T08:49:11.999Z</time></trkpt><trkpt lat="43.367913289451586" lon="11.939916020045018"><ele>731.8000000000001</ele><time>2026-03-29T08:49:12.999Z</time></trkpt><trkpt lat="43.36786127361539" lon="11.939973075103971"><ele>734.4000000000001</ele><time>2026-03-29T08:49:13.999Z</time></trkpt><trkpt lat="43.36774414747002" lon="11.939956506516332"><ele>737.0</ele><time>2026-03-29T08:49:15.999Z</time></trkpt><trkpt lat="43.36767152195411" lon="11.939970667571789"><ele>737.0</ele><time>2026-03-29T08:49:16.999Z</time></trkpt><trkpt lat="43.36759222612676" lon="11.940002258147054"><ele>737.0</ele><time>2026-03-29T08:49:17.999Z</time></trkpt><trkpt lat="43.367506723386846" lon="11.940011409811932"><ele>737.0</ele><time>2026-03-29T08:49:18.999Z</time></trkpt><trkpt lat="43.36741143159663" lon="11.939998251608763"><ele>737.0</ele><time>2026-03-29T08:49:19.999Z</time></trkpt><trkpt lat="43.36732402229878" lon="11.939962146493594"><ele>737.0</ele><time>2026-03-29T08:49:20.999Z</time></trkpt><trkpt lat="43.36722733637391" lon="11.939940432428418"><ele>736.4000000000001</ele><time>2026-03-29T08:49:21.999Z</time></trkpt><trkpt lat="43.36713042203135" lon="11.939935131620118"><ele>735.8000000000001</ele><time>2026-03-29T08:49:22.999Z</time></trkpt><trkpt lat="43.36703984533484" lon="11.939906411852082"><ele>735.2</ele><time>2026-03-29T08:49:23.999Z</time></trkpt><trkpt lat="43.36697370234018" lon="11.939890966141164"><ele>734.6</ele><time>2026-03-29T08:49:24.999Z</time></trkpt><trkpt lat="43.36685127366276" lon="11.939951182794012"><ele>734.0</ele><time>2026-03-29T08:49:26.999Z</time></trkpt><trkpt lat="43.366789561430636" lon="11.939931373917654"><ele>734.0</ele><time>2026-03-29T08:49:27.999Z</time></trkpt><trkpt lat="43.36672613152722" lon="11.93988936485993"><ele>734.0</ele><time>2026-03-29T08:49:28.999Z</time></trkpt><trkpt lat="43.3666045791559" lon="11.939904736294578"><ele>734.0</ele><time>2026-03-29T08:49:30.999Z</time></trkpt><trkpt lat="43.366508929923484" lon="11.939952320256042"><ele>734.0</ele><time>2026-03-29T08:49:32.999Z</time></trkpt><trkpt lat="43.36642811170547" lon="11.940031427708366"><ele>734.0</ele><time>2026-03-29T08:49:34.999Z</time></trkpt><trkpt lat="43.3664416738282" lon="11.940131739062412"><ele>733.1428571428571</ele><time>2026-03-29T08:49:35.999Z</time></trkpt><trkpt lat="43.36642984781485" lon="11.940230252265678"><ele>732.2857142857143</ele><time>2026-03-29T08:49:36.999Z</time></trkpt><trkpt lat="43.36639976275099" lon="11.940325306170926"><ele>731.4285714285714</ele><time>2026-03-29T08:49:37.999Z</time></trkpt><trkpt lat="43.36637392950551" lon="11.940406741039135"><ele>730.5714285714286</ele><time>2026-03-29T08:49:38.998Z</time></trkpt><trkpt lat="43.36640234367689" lon="11.940504747047877"><ele>729.7142857142858</ele><time>2026-03-29T08:49:40.998Z</time></trkpt><trkpt lat="43.366418837683845" lon="11.940626483299376"><ele>728.8571428571429</ele><time>2026-03-29T08:49:42.998Z</time></trkpt><trkpt lat="43.36641953220487" lon="11.940717000496774"><ele>728.0</ele><time>2026-03-29T08:49:43.998Z</time></trkpt><trkpt lat="43.36643213736747" lon="11.940856893324131"><ele>729.0</ele><time>2026-03-29T08:49:45.998Z</time></trkpt><trkpt lat="43.36637943922726" lon="11.940993715410277"><ele>730.0</ele><time>2026-03-29T08:49:47.998Z</time></trkpt><trkpt lat="43.36640629262279" lon="11.941090379236163"><ele>731.0</ele><time>2026-03-29T08:49:48.998Z</time></trkpt><trkpt lat="43.36638098477395" lon="11.941180897356404"><ele>732.0</ele><time>2026-03-29T08:49:49.998Z</time></trkpt><trkpt lat="43.36637885629942" lon="11.941277626186968"><ele>733.0</ele><time>2026-03-29T08:49:50.998Z</time></trkpt><trkpt lat="43.36633498445025" lon="11.941363900633762"><ele>734.0</ele><time>2026-03-29T08:49:51.998Z</time></trkpt><trkpt lat="43.36631653136997" lon="11.941470928677044"><ele>733.8333333333333</ele><time>2026-03-29T08:49:52.998Z</time></trkpt><trkpt lat="43.36632484192699" lon="11.941557958023994"><ele>733.6666666666666</ele><time>2026-03-29T08:49:53.998Z</time></trkpt><trkpt lat="43.36632051762324" lon="11.941657222957199"><ele>733.5</ele><time>2026-03-29T08:49:57Z</time></trkpt><trkpt lat="43.36627457226383" lon="11.941741401727327"><ele>733.3333333333334</ele><time>2026-03-29T08:49:59Z</time></trkpt><trkpt lat="43.366225716178064" lon="11.941809565642785"><ele>733.1666666666667</ele><time>2026-03-29T08:50:32Z</time></trkpt><trkpt lat="43.36613344220225" lon="11.941886816675071"><ele>733.0</ele><time>2026-03-29T08:50:35Z</time></trkpt><trkpt lat="43.366069798513934" lon="11.941937467417713"><ele>733.0</ele><time>2026-03-29T08:50:36Z</time></trkpt><trkpt lat="43.36598429878805" lon="11.94200228670488"><ele>733.0</ele><time>2026-03-29T08:50:37Z</time></trkpt><trkpt lat="43.36593928014434" lon="11.942070393102139"><ele>733.0</ele><time>2026-03-29T08:50:37.999Z</time></trkpt><trkpt lat="43.36590012523785" lon="11.942165163101157"><ele>733.0</ele><time>2026-03-29T08:50:38.999Z</time></trkpt><trkpt lat="43.36587908809854" lon="11.942314477516799"><ele>733.0</ele><time>2026-03-29T08:50:40.999Z</time></trkpt><trkpt lat="43.365875064397535" lon="11.942407042253132"><ele>733.0</ele><time>2026-03-29T08:50:44.999Z</time></trkpt><trkpt lat="43.36586033981215" lon="11.942507609396792"><ele>730.5999999999999</ele><time>2026-03-29T08:50:47.999Z</time></trkpt><trkpt lat="43.36581902084467" lon="11.942613447574734"><ele>728.1999999999999</ele><time>2026-03-29T08:50:49.999Z</time></trkpt><trkpt lat="43.36578855207345" lon="11.942734084334763"><ele>725.8</ele><time>2026-03-29T08:50:51.999Z</time></trkpt><trkpt lat="43.36575251993547" lon="11.942818199882922"><ele>723.4</ele><time>2026-03-29T08:50:52.999Z</time></trkpt><trkpt lat="43.36563292379884" lon="11.942891485175076"><ele>721.0</ele><time>2026-03-29T08:50:54.999Z</time></trkpt><trkpt lat="43.36554206778496" lon="11.9429142966416"><ele>720.8333333333334</ele><time>2026-03-29T08:50:55.999Z</time></trkpt><trkpt lat="43.3654656604371" lon="11.942966660763611"><ele>720.6666666666667</ele><time>2026-03-29T08:50:56.999Z</time></trkpt><trkpt lat="43.36541842020413" lon="11.94304771100681"><ele>720.5</ele><time>2026-03-29T08:50:57.999Z</time></trkpt><trkpt lat="43.36537070047357" lon="11.943153529678467"><ele>720.3333333333334</ele><time>2026-03-29T08:50:58.999Z</time></trkpt><trkpt lat="43.36531195005598" lon="11.9432627812944"><ele>720.1666666666666</ele><time>2026-03-29T08:50:59.999Z</time></trkpt><trkpt lat="43.36524941703141" lon="11.943346028167957"><ele>720.0</ele><time>2026-03-29T08:51:00.999Z</time></trkpt><trkpt lat="43.36519444417864" lon="11.94340410473622"><ele>720.0</ele><time>2026-03-29T08:51:01.999Z</time></trkpt><trkpt lat="43.365128650150616" lon="11.943457418112583"><ele>720.0</ele><time>2026-03-29T08:51:02.999Z</time></trkpt><trkpt lat="43.36507015679773" lon="11.943498961401485"><ele>720.0</ele><time>2026-03-29T08:51:03.999Z</time></trkpt><trkpt lat="43.36501711028415" lon="11.943548802791529"><ele>720.0</ele><time>2026-03-29T08:51:04.999Z</time></trkpt><trkpt lat="43.36491549487136" lon="11.94363054450055"><ele>720.0</ele><time>2026-03-29T08:51:06.999Z</time></trkpt><trkpt lat="43.36485875030336" lon="11.943692980637524"><ele>720.0</ele><time>2026-03-29T08:51:08.999Z</time></trkpt><trkpt lat="43.36484291268042" lon="11.943795389574579"><ele>720.0</ele><time>2026-03-29T08:51:10.999Z</time></trkpt><trkpt lat="43.36484514961334" lon="11.943922269335971"><ele>720.0</ele><time>2026-03-29T08:51:12.999Z</time></trkpt><trkpt lat="43.36480898655246" lon="11.944071239382117"><ele>720.0</ele><time>2026-03-29T08:51:14.999Z</time></trkpt><trkpt lat="43.36483624237562" lon="11.94416060884476"><ele>720.0</ele><time>2026-03-29T08:51:16.999Z</time></trkpt><trkpt lat="43.364911458842286" lon="11.944155272476445"><ele>720.0</ele><time>2026-03-29T08:51:18.999Z</time></trkpt><trkpt lat="43.36496552828536" lon="11.944098026312219"><ele>720.0</ele><time>2026-03-29T08:51:20.999Z</time></trkpt><trkpt lat="43.36493059643417" lon="11.943985994449765"><ele>720.0</ele><time>2026-03-29T08:51:33.999Z</time></trkpt><trkpt lat="43.36490631463301" lon="11.943894413095093"><ele>720.0</ele><time>2026-03-29T08:51:35.999Z</time></trkpt><trkpt lat="43.364938941498124" lon="11.943813631265558"><ele>720.0</ele><time>2026-03-29T08:51:38.999Z</time></trkpt><trkpt lat="43.36487659462884" lon="11.943849076610533"><ele>720.0</ele><time>2026-03-29T08:51:43.999Z</time></trkpt><trkpt lat="43.364825355142536" lon="11.943946798489835"><ele>720.0</ele><time>2026-03-29T08:51:47.998Z</time></trkpt><trkpt lat="43.3648039458595" lon="11.944097533571686"><ele>720.0</ele><time>2026-03-29T08:51:49.998Z</time></trkpt><trkpt lat="43.36484441098321" lon="11.944192639884447"><ele>719.5</ele><time>2026-03-29T08:51:52.998Z</time></trkpt><trkpt lat="43.36486343842066" lon="11.944279544433387"><ele>719.0</ele><time>2026-03-29T08:52:01Z</time></trkpt><trkpt lat="43.36495544303001" lon="11.944363922955242"><ele>718.5</ele><time>2026-03-29T08:52:03Z</time></trkpt><trkpt lat="43.36502575237178" lon="11.944435593507437"><ele>718.0</ele><time>2026-03-29T08:52:04Z</time></trkpt><trkpt lat="43.36509202693691" lon="11.944487901689127"><ele>717.5</ele><time>2026-03-29T08:52:05Z</time></trkpt><trkpt lat="43.36517182357007" lon="11.944569035427875"><ele>717.0</ele><time>2026-03-29T08:52:07Z</time></trkpt><trkpt lat="43.36523301795186" lon="11.944537467712712"><ele>717.0</ele><time>2026-03-29T08:52:09Z</time></trkpt><trkpt lat="43.36529424273683" lon="11.94446339713457"><ele>717.0</ele><time>2026-03-29T08:52:12Z</time></trkpt><trkpt lat="43.365356582475336" lon="11.944518310633763"><ele>717.0</ele><time>2026-03-29T08:52:15Z</time></trkpt><trkpt lat="43.36543423653059" lon="11.944620615262496"><ele>717.0</ele><time>2026-03-29T08:52:34Z</time></trkpt><trkpt lat="43.365497293838224" lon="11.944721180117313"><ele>717.0</ele><time>2026-03-29T08:52:36Z</time></trkpt><trkpt lat="43.365569540426186" lon="11.944795372817126"><ele>715.3333333333334</ele><time>2026-03-29T08:52:38Z</time></trkpt><trkpt lat="43.36562685596324" lon="11.944876824681282"><ele>713.6666666666666</ele><time>2026-03-29T08:52:40Z</time></trkpt><trkpt lat="43.365662222127035" lon="11.94496498624505"><ele>712.0</ele><time>2026-03-29T08:52:42Z</time></trkpt><trkpt lat="43.36569083626041" lon="11.945075742588386"><ele>710.3333333333333</ele><time>2026-03-29T08:52:43.999Z</time></trkpt><trkpt lat="43.36578011003505" lon="11.945219428331725"><ele>708.6666666666666</ele><time>2026-03-29T08:52:45.999Z</time></trkpt><trkpt lat="43.36581787529101" lon="11.94528936301796"><ele>707.0</ele><time>2026-03-29T08:52:46.999Z</time></trkpt><trkpt lat="43.365860227807914" lon="11.94542875298311"><ele>705.4000000000001</ele><time>2026-03-29T08:52:48.999Z</time></trkpt><trkpt lat="43.3659079994502" lon="11.94556958195401"><ele>703.8000000000001</ele><time>2026-03-29T08:52:50.999Z</time></trkpt><trkpt lat="43.36594232465588" lon="11.945719839034835"><ele>702.2</ele><time>2026-03-29T08:52:52.999Z</time></trkpt><trkpt lat="43.36595380944245" lon="11.945874796320915"><ele>700.6</ele><time>2026-03-29T08:52:54.999Z</time></trkpt><trkpt lat="43.36596233925805" lon="11.94597020533335"><ele>699.0</ele><time>2026-03-29T08:52:55.999Z</time></trkpt><trkpt lat="43.36596847225953" lon="11.946079790600983"><ele>694.4000000000001</ele><time>2026-03-29T08:52:56.999Z</time></trkpt><trkpt lat="43.36596271178003" lon="11.946174768118533"><ele>689.8</ele><time>2026-03-29T08:52:57.999Z</time></trkpt><trkpt lat="43.365977839292505" lon="11.946281384643934"><ele>685.2</ele><time>2026-03-29T08:52:58.999Z</time></trkpt><trkpt lat="43.36598953435996" lon="11.946437393866615"><ele>680.5999999999999</ele><time>2026-03-29T08:53:00.999Z</time></trkpt><trkpt lat="43.366012390214784" lon="11.946584171858452"><ele>676.0</ele><time>2026-03-29T08:53:02.999Z</time></trkpt><trkpt lat="43.36603620471636" lon="11.94670400478149"><ele>672.8333333333334</ele><time>2026-03-29T08:53:04.999Z</time></trkpt><trkpt lat="43.3660205454272" lon="11.94686610386579"><ele>669.6666666666667</ele><time>2026-03-29T08:53:06.999Z</time></trkpt><trkpt lat="43.36603247890654" lon="11.946962700634769"><ele>666.5</ele><time>2026-03-29T08:53:07.999Z</time></trkpt><trkpt lat="43.36604602595696" lon="11.9470528929144"><ele>663.3333333333334</ele><time>2026-03-29T08:53:08.999Z</time></trkpt><trkpt lat="43.366060149148915" lon="11.947141213307999"><ele>660.1666666666666</ele><time>2026-03-29T08:53:09.999Z</time></trkpt><trkpt lat="43.36606565848571" lon="11.947246660719117"><ele>657.0</ele><time>2026-03-29T08:53:10.999Z</time></trkpt><trkpt lat="43.36606062447847" lon="11.94733463717073"><ele>657.0</ele><time>2026-03-29T08:53:11.999Z</time></trkpt><trkpt lat="43.366058150751485" lon="11.947427522184423"><ele>657.0</ele><time>2026-03-29T08:53:12.999Z</time></trkpt><trkpt lat="43.36605775212614" lon="11.947528099659209"><ele>657.0</ele><time>2026-03-29T08:53:13.999Z</time></trkpt><trkpt lat="43.36606533849199" lon="11.947618872056745"><ele>657.0</ele><time>2026-03-29T08:53:14.999Z</time></trkpt><trkpt lat="43.3661534805998" lon="11.947588311137464"><ele>657.0</ele><time>2026-03-29T08:53:37.999Z</time></trkpt><trkpt lat="43.36622718371646" lon="11.947548335272531"><ele>657.0</ele><time>2026-03-29T08:53:39.999Z</time></trkpt><trkpt lat="43.36629368771438" lon="11.947409507465078"><ele>657.0</ele><time>2026-03-29T08:53:41.999Z</time></trkpt><trkpt lat="43.36633847760482" lon="11.94724204899988"><ele>657.0</ele><time>2026-03-29T08:53:43.999Z</time></trkpt><trkpt lat="43.366380318070156" lon="11.947135795938516"><ele>657.0</ele><time>2026-03-29T08:53:44.999Z</time></trkpt><trkpt lat="43.366410811654056" lon="11.947053399331248"><ele>657.0</ele><time>2026-03-29T08:53:45.999Z</time></trkpt><trkpt lat="43.36645471396873" lon="11.946962294121032"><ele>657.0</ele><time>2026-03-29T08:53:46.999Z</time></trkpt><trkpt lat="43.36647984240785" lon="11.94686391714606"><ele>657.0</ele><time>2026-03-29T08:53:47.999Z</time></trkpt><trkpt lat="43.36651262733969" lon="11.946779323192116"><ele>656.8333333333334</ele><time>2026-03-29T08:53:48.999Z</time></trkpt><trkpt lat="43.36657032940439" lon="11.946666099426778"><ele>656.6666666666666</ele><time>2026-03-29T08:53:50.999Z</time></trkpt><trkpt lat="43.36664780306001" lon="11.946627571340317"><ele>656.5</ele><time>2026-03-29T08:53:52.999Z</time></trkpt><trkpt lat="43.36671473853859" lon="11.94667344124198"><ele>656.3333333333333</ele><time>2026-03-29T08:53:53.998Z</time></trkpt><trkpt lat="43.36682282870317" lon="11.946750086512836"><ele>656.1666666666666</ele><time>2026-03-29T08:53:55.998Z</time></trkpt><trkpt lat="43.36688864381965" lon="11.946783247646904"><ele>656.0</ele><time>2026-03-29T08:53:56.998Z</time></trkpt><trkpt lat="43.36698716198078" lon="11.946795069855396"><ele>656.0</ele><time>2026-03-29T08:53:58.998Z</time></trkpt><trkpt lat="43.367094022293664" lon="11.946734939165859"><ele>656.0</ele><time>2026-03-29T08:54:00.998Z</time></trkpt><trkpt lat="43.367159803540815" lon="11.946675554128417"><ele>656.0</ele><time>2026-03-29T08:54:01.998Z</time></trkpt><trkpt lat="43.36722768267529" lon="11.94658366122943"><ele>656.0</ele><time>2026-03-29T08:54:02.998Z</time></trkpt><trkpt lat="43.36729290632023" lon="11.946480618231067"><ele>656.0</ele><time>2026-03-29T08:54:03.998Z</time></trkpt><trkpt lat="43.367343080740504" lon="11.946397431379905"><ele>650.1428571428571</ele><time>2026-03-29T08:54:04.998Z</time></trkpt><trkpt lat="43.36740225689518" lon="11.946327540527767"><ele>644.2857142857142</ele><time>2026-03-29T08:54:05.998Z</time></trkpt><trkpt lat="43.367471174180466" lon="11.946278801606827"><ele>638.4285714285713</ele><time>2026-03-29T08:54:07Z</time></trkpt><trkpt lat="43.36752617916852" lon="11.946221372902098"><ele>632.5714285714286</ele><time>2026-03-29T08:54:08Z</time></trkpt><trkpt lat="43.367603355980975" lon="11.946187523953265"><ele>626.7142857142858</ele><time>2026-03-29T08:54:09Z</time></trkpt><trkpt lat="43.3676684660883" lon="11.946162056200988"><ele>620.8571428571428</ele><time>2026-03-29T08:54:10Z</time></trkpt><trkpt lat="43.36774032042107" lon="11.946139196837882"><ele>615.0</ele><time>2026-03-29T08:54:11Z</time></trkpt><trkpt lat="43.36781062599382" lon="11.94614350073629"><ele>615.0</ele><time>2026-03-29T08:54:12Z</time></trkpt><trkpt lat="43.36787766663803" lon="11.946121156005454"><ele>615.0</ele><time>2026-03-29T08:54:14Z</time></trkpt><trkpt lat="43.36792544054556" lon="11.946020207185267"><ele>615.0</ele><time>2026-03-29T08:54:16Z</time></trkpt><trkpt lat="43.36799237766572" lon="11.94594797430006"><ele>615.0</ele><time>2026-03-29T08:54:19Z</time></trkpt><trkpt lat="43.368042765645846" lon="11.946021597628134"><ele>615.0</ele><time>2026-03-29T08:54:21Z</time></trkpt><trkpt lat="43.36803748148779" lon="11.946112432743131"><ele>615.0</ele><time>2026-03-29T08:54:23Z</time></trkpt><trkpt lat="43.36802610513067" lon="11.94622027428269"><ele>615.0</ele><time>2026-03-29T08:54:26Z</time></trkpt><trkpt lat="43.36800962349978" lon="11.94634041419197"><ele>615.0</ele><time>2026-03-29T08:54:29Z</time></trkpt><trkpt lat="43.36801752909603" lon="11.946437017548396"><ele>615.0</ele><time>2026-03-29T08:54:32Z</time></trkpt><trkpt lat="43.36809149213297" lon="11.946476445819465"><ele>615.0</ele><time>2026-03-29T08:54:34Z</time></trkpt><trkpt lat="43.368176849473336" lon="11.946453855561009"><ele>615.0</ele><time>2026-03-29T08:54:36Z</time></trkpt><trkpt lat="43.368266009218786" lon="11.9464443894791"><ele>615.0</ele><time>2026-03-29T08:54:39Z</time></trkpt><trkpt lat="43.368339234907765" lon="11.946448014237573"><ele>612.3333333333334</ele><time>2026-03-29T08:54:41Z</time></trkpt><trkpt lat="43.36841345406247" lon="11.94644011116639"><ele>609.6666666666666</ele><time>2026-03-29T08:54:43Z</time></trkpt><trkpt lat="43.3684542265136" lon="11.94652226949845"><ele>607.0</ele><time>2026-03-29T08:55:37.999Z</time></trkpt><trkpt lat="43.368404525446095" lon="11.946578873085752"><ele>604.3333333333333</ele><time>2026-03-29T08:55:49.999Z</time></trkpt><trkpt lat="43.368365609973985" lon="11.946647351600788"><ele>601.6666666666666</ele><time>2026-03-29T08:56:04.998Z</time></trkpt><trkpt lat="43.36831523675075" lon="11.946708441843404"><ele>599.0</ele><time>2026-03-29T08:56:05.998Z</time></trkpt><trkpt lat="43.36821863587097" lon="11.946779183264743"><ele>599.0</ele><time>2026-03-29T08:56:06.998Z</time></trkpt><trkpt lat="43.36812432048678" lon="11.94683482048558"><ele>599.0</ele><time>2026-03-29T08:56:07.998Z</time></trkpt><trkpt lat="43.36804314559135" lon="11.94688765310584"><ele>599.0</ele><time>2026-03-29T08:56:08.998Z</time></trkpt><trkpt lat="43.3679592719487" lon="11.946946255995652"><ele>599.0</ele><time>2026-03-29T08:56:09.998Z</time></trkpt><trkpt lat="43.367889051626804" lon="11.94700795156167"><ele>599.0</ele><time>2026-03-29T08:56:10.998Z</time></trkpt><trkpt lat="43.367823775582345" lon="11.947096458942616"><ele>598.2</ele><time>2026-03-29T08:56:11.998Z</time></trkpt><trkpt lat="43.36775481959817" lon="11.947206662427863"><ele>597.4</ele><time>2026-03-29T08:56:13Z</time></trkpt><trkpt lat="43.36769954461617" lon="11.947328311767956"><ele>596.6</ele><time>2026-03-29T08:56:14Z</time></trkpt><trkpt lat="43.367662964474334" lon="11.947460857216276"><ele>595.8</ele><time>2026-03-29T08:56:15Z</time></trkpt><trkpt lat="43.3676306371889" lon="11.94759028674657"><ele>595.0</ele><time>2026-03-29T08:56:16Z</time></trkpt><trkpt lat="43.36760333181813" lon="11.947718716812059"><ele>593.4</ele><time>2026-03-29T08:56:17Z</time></trkpt><trkpt lat="43.36758196027119" lon="11.947841865095771"><ele>591.8</ele><time>2026-03-29T08:56:18Z</time></trkpt><trkpt lat="43.36757240480217" lon="11.947965848999461"><ele>590.2</ele><time>2026-03-29T08:56:19Z</time></trkpt><trkpt lat="43.367570828076325" lon="11.948102516021308"><ele>588.6</ele><time>2026-03-29T08:56:20Z</time></trkpt><trkpt lat="43.36757444275704" lon="11.948231411376298"><ele>587.0</ele><time>2026-03-29T08:56:21Z</time></trkpt><trkpt lat="43.367582794244335" lon="11.94835834122389"><ele>586.0</ele><time>2026-03-29T08:56:22Z</time></trkpt><trkpt lat="43.36759206069679" lon="11.94847876376878"><ele>585.0</ele><time>2026-03-29T08:56:23Z</time></trkpt><trkpt lat="43.36759634600499" lon="11.948600451039951"><ele>584.0</ele><time>2026-03-29T08:56:24Z</time></trkpt><trkpt lat="43.36760679100854" lon="11.948732515959556"><ele>583.0</ele><time>2026-03-29T08:56:25Z</time></trkpt><trkpt lat="43.36760509120872" lon="11.9488535800214"><ele>582.0</ele><time>2026-03-29T08:56:26Z</time></trkpt><trkpt lat="43.3676136471531" lon="11.948975502366109"><ele>582.0</ele><time>2026-03-29T08:56:27Z</time></trkpt><trkpt lat="43.36762611286692" lon="11.949086806075545"><ele>582.0</ele><time>2026-03-29T08:56:28Z</time></trkpt><trkpt lat="43.36762400137838" lon="11.949185977271586"><ele>582.0</ele><time>2026-03-29T08:56:29Z</time></trkpt><trkpt lat="43.36763050692227" lon="11.949344836615726"><ele>582.0</ele><time>2026-03-29T08:56:31Z</time></trkpt><trkpt lat="43.367642922493964" lon="11.949498163156145"><ele>582.0</ele><time>2026-03-29T08:56:33Z</time></trkpt><trkpt lat="43.36763736436867" lon="11.949640340594547"><ele>581.5</ele><time>2026-03-29T08:56:35Z</time></trkpt><trkpt lat="43.36764054854516" lon="11.94973956717117"><ele>581.0</ele><time>2026-03-29T08:56:36Z</time></trkpt><trkpt lat="43.36764557023924" lon="11.949848095713467"><ele>580.5</ele><time>2026-03-29T08:56:37Z</time></trkpt><trkpt lat="43.3676483791889" lon="11.949961022913934"><ele>580.0</ele><time>2026-03-29T08:56:38Z</time></trkpt><trkpt lat="43.36762781933821" lon="11.950087239947868"><ele>579.5</ele><time>2026-03-29T08:56:39Z</time></trkpt><trkpt lat="43.36760660193829" lon="11.950185204904638"><ele>579.0</ele><time>2026-03-29T08:56:40Z</time></trkpt><trkpt lat="43.36761194580151" lon="11.950328384432163"><ele>579.0</ele><time>2026-03-29T08:56:42Z</time></trkpt><trkpt lat="43.36764684083867" lon="11.950455950291522"><ele>579.0</ele><time>2026-03-29T08:56:47Z</time></trkpt><trkpt lat="43.367704527320235" lon="11.950523562018459"><ele>579.0</ele><time>2026-03-29T08:56:48Z</time></trkpt><trkpt lat="43.36775020007516" lon="11.950619737266347"><ele>579.0</ele><time>2026-03-29T08:56:49Z</time></trkpt><trkpt lat="43.367792772942366" lon="11.950736191191735"><ele>579.0</ele><time>2026-03-29T08:56:50Z</time></trkpt><trkpt lat="43.367830105012615" lon="11.950876287187885"><ele>579.5</ele><time>2026-03-29T08:56:51Z</time></trkpt><trkpt lat="43.367840158285006" lon="11.951019926940935"><ele>580.0</ele><time>2026-03-29T08:56:52Z</time></trkpt><trkpt lat="43.36783415090479" lon="11.951295952130836"><ele>580.5</ele><time>2026-03-29T08:56:54Z</time></trkpt><trkpt lat="43.367825441166225" lon="11.951416452929408"><ele>581.0</ele><time>2026-03-29T08:56:55Z</time></trkpt><trkpt lat="43.367803841060265" lon="11.951532533513967"><ele>581.0</ele><time>2026-03-29T08:56:56Z</time></trkpt><trkpt lat="43.367765362115875" lon="11.951616949248221"><ele>581.0</ele><time>2026-03-29T08:56:57Z</time></trkpt><trkpt lat="43.36772890232454" lon="11.951693988810241"><ele>581.0</ele><time>2026-03-29T08:56:58Z</time></trkpt><trkpt lat="43.367641734798546" lon="11.951812052128021"><ele>581.0</ele><time>2026-03-29T08:57:00Z</time></trkpt><trkpt lat="43.367579124767445" lon="11.951909763870429"><ele>581.0</ele><time>2026-03-29T08:57:02Z</time></trkpt><trkpt lat="43.3675577647407" lon="11.952068199470755"><ele>578.75</ele><time>2026-03-29T08:57:04Z</time></trkpt><trkpt lat="43.367557341560236" lon="11.952201328478923"><ele>576.5</ele><time>2026-03-29T08:57:05.999Z</time></trkpt><trkpt lat="43.36757717157394" lon="11.952357903447975"><ele>574.25</ele><time>2026-03-29T08:57:07.999Z</time></trkpt><trkpt lat="43.36759502143045" lon="11.952528774165986"><ele>572.0</ele><time>2026-03-29T08:57:09.999Z</time></trkpt><trkpt lat="43.36759648037946" lon="11.952689798020993"><ele>571.8333333333333</ele><time>2026-03-29T08:57:11.999Z</time></trkpt><trkpt lat="43.367590739749424" lon="11.952785979716634"><ele>571.6666666666666</ele><time>2026-03-29T08:57:12.999Z</time></trkpt><trkpt lat="43.367577859409515" lon="11.952881129861249"><ele>571.5</ele><time>2026-03-29T08:57:13.999Z</time></trkpt><trkpt lat="43.36756369384045" lon="11.953027143253887"><ele>571.3333333333334</ele><time>2026-03-29T08:57:15.999Z</time></trkpt><trkpt lat="43.367570025219045" lon="11.953120556835954"><ele>571.1666666666667</ele><time>2026-03-29T08:57:16.999Z</time></trkpt><trkpt lat="43.367579456300874" lon="11.953222387979816"><ele>571.0</ele><time>2026-03-29T08:57:17.999Z</time></trkpt><trkpt lat="43.367589366054666" lon="11.953324801290522"><ele>570.1666666666667</ele><time>2026-03-29T08:57:18.999Z</time></trkpt><trkpt lat="43.36759642786891" lon="11.953437878638622"><ele>569.3333333333334</ele><time>2026-03-29T08:57:19.999Z</time></trkpt><trkpt lat="43.367607070131044" lon="11.953559405062034"><ele>568.5</ele><time>2026-03-29T08:57:20.999Z</time></trkpt><trkpt lat="43.367614265164455" lon="11.953684380198752"><ele>567.6666666666666</ele><time>2026-03-29T08:57:21.999Z</time></trkpt><trkpt lat="43.3676227749976" lon="11.953807863919904"><ele>566.8333333333333</ele><time>2026-03-29T08:57:22.999Z</time></trkpt><trkpt lat="43.36763127049566" lon="11.95391140308838"><ele>566.0</ele><time>2026-03-29T08:57:23.999Z</time></trkpt><trkpt lat="43.36765888794759" lon="11.953992421171371"><ele>566.0</ele><time>2026-03-29T08:57:24.999Z</time></trkpt><trkpt lat="43.367720916438884" lon="11.954064799618768"><ele>566.0</ele><time>2026-03-29T08:57:25.999Z</time></trkpt><trkpt lat="43.36779533661161" lon="11.954110022889664"><ele>566.0</ele><time>2026-03-29T08:57:26.999Z</time></trkpt><trkpt lat="43.36787133745213" lon="11.954130930014273"><ele>566.0</ele><time>2026-03-29T08:57:27.999Z</time></trkpt><trkpt lat="43.36795459921136" lon="11.954136190061526"><ele>566.0</ele><time>2026-03-29T08:57:28.999Z</time></trkpt><trkpt lat="43.36804102431716" lon="11.954142843288958"><ele>566.0</ele><time>2026-03-29T08:57:29.999Z</time></trkpt><trkpt lat="43.368124106977135" lon="11.954147655207606"><ele>567.0</ele><time>2026-03-29T08:57:30.999Z</time></trkpt><trkpt lat="43.3682020146247" lon="11.954170167267948"><ele>568.0</ele><time>2026-03-29T08:57:31.999Z</time></trkpt><trkpt lat="43.36828105326479" lon="11.954193569593428"><ele>569.0</ele><time>2026-03-29T08:57:32.999Z</time></trkpt><trkpt lat="43.36835871827381" lon="11.95422338770748"><ele>570.0</ele><time>2026-03-29T08:57:33.999Z</time></trkpt><trkpt lat="43.36844370295033" lon="11.954267305936412"><ele>571.0</ele><time>2026-03-29T08:57:34.999Z</time></trkpt><trkpt lat="43.36852860952676" lon="11.954308268254705"><ele>572.0</ele><time>2026-03-29T08:57:35.999Z</time></trkpt><trkpt lat="43.36860979639029" lon="11.954372111064867"><ele>572.0</ele><time>2026-03-29T08:57:36.999Z</time></trkpt><trkpt lat="43.368684216849736" lon="11.954439521977656"><ele>572.0</ele><time>2026-03-29T08:57:37.999Z</time></trkpt><trkpt lat="43.36876823318295" lon="11.954513668439407"><ele>572.0</ele><time>2026-03-29T08:57:38.999Z</time></trkpt><trkpt lat="43.368852600846814" lon="11.954576317456842"><ele>572.0</ele><time>2026-03-29T08:57:39.999Z</time></trkpt><trkpt lat="43.36894163308738" lon="11.954641118769121"><ele>572.0</ele><time>2026-03-29T08:57:40.999Z</time></trkpt><trkpt lat="43.3690372605242" lon="11.954693121856495"><ele>576.8000000000001</ele><time>2026-03-29T08:57:41.999Z</time></trkpt><trkpt lat="43.36913470152873" lon="11.954732368120357"><ele>581.6</ele><time>2026-03-29T08:57:42.999Z</time></trkpt><trkpt lat="43.36921299007768" lon="11.954791616113958"><ele>586.4000000000001</ele><time>2026-03-29T08:57:43.999Z</time></trkpt><trkpt lat="43.36926719690777" lon="11.95489837502209"><ele>591.2</ele><time>2026-03-29T08:57:44.999Z</time></trkpt><trkpt lat="43.36929299116488" lon="11.955030610120758"><ele>596.0</ele><time>2026-03-29T08:57:45.999Z</time></trkpt><trkpt lat="43.36931272673359" lon="11.955169518797254"><ele>597.2</ele><time>2026-03-29T08:57:46.999Z</time></trkpt><trkpt lat="43.36931554828062" lon="11.955314486979129"><ele>598.4000000000001</ele><time>2026-03-29T08:57:47.999Z</time></trkpt><trkpt lat="43.369289887790444" lon="11.955461995384399"><ele>599.6</ele><time>2026-03-29T08:57:48.999Z</time></trkpt><trkpt lat="43.36923565913905" lon="11.955594865933389"><ele>600.8000000000001</ele><time>2026-03-29T08:57:49.999Z</time></trkpt><trkpt lat="43.36918338885047" lon="11.955705610007719"><ele>602.0</ele><time>2026-03-29T08:57:50.999Z</time></trkpt><trkpt lat="43.369139023694146" lon="11.955796627815356"><ele>602.1666666666666</ele><time>2026-03-29T08:57:51.999Z</time></trkpt><trkpt lat="43.36908748548604" lon="11.955962093109324"><ele>602.3333333333333</ele><time>2026-03-29T08:57:53.999Z</time></trkpt><trkpt lat="43.36907203475518" lon="11.95605898730368"><ele>602.5</ele><time>2026-03-29T08:57:54.999Z</time></trkpt><trkpt lat="43.36906983973032" lon="11.956147200204812"><ele>602.6666666666666</ele><time>2026-03-29T08:57:55.999Z</time></trkpt><trkpt lat="43.3690779363294" lon="11.956241140282778"><ele>602.8333333333334</ele><time>2026-03-29T08:57:56.999Z</time></trkpt><trkpt lat="43.36910031693132" lon="11.956337773288437"><ele>603.0</ele><time>2026-03-29T08:57:57.999Z</time></trkpt><trkpt lat="43.36913449803873" lon="11.956431784457799"><ele>603.0</ele><time>2026-03-29T08:57:58.999Z</time></trkpt><trkpt lat="43.36918767124417" lon="11.956531293646469"><ele>603.0</ele><time>2026-03-29T08:57:59.999Z</time></trkpt><trkpt lat="43.369251127155096" lon="11.956634305357518"><ele>603.0</ele><time>2026-03-29T08:58:00.999Z</time></trkpt><trkpt lat="43.369320984370546" lon="11.956748839816456"><ele>603.0</ele><time>2026-03-29T08:58:01.999Z</time></trkpt><trkpt lat="43.369388504722025" lon="11.956876317466651"><ele>603.0</ele><time>2026-03-29T08:58:02.999Z</time></trkpt><trkpt lat="43.36945313629512" lon="11.957006956659303"><ele>604.8</ele><time>2026-03-29T08:58:03.999Z</time></trkpt><trkpt lat="43.3695136474223" lon="11.957134119190018"><ele>606.5999999999999</ele><time>2026-03-29T08:58:04.999Z</time></trkpt><trkpt lat="43.369573679381766" lon="11.957263875386435"><ele>608.4000000000001</ele><time>2026-03-29T08:58:05.999Z</time></trkpt><trkpt lat="43.36963180140209" lon="11.95738769195583"><ele>610.2</ele><time>2026-03-29T08:58:06.999Z</time></trkpt><trkpt lat="43.36969254375956" lon="11.957515305305881"><ele>612.0</ele><time>2026-03-29T08:58:07.999Z</time></trkpt><trkpt lat="43.369756054025366" lon="11.957643155415349"><ele>612.0</ele><time>2026-03-29T08:58:08.999Z</time></trkpt><trkpt lat="43.36981563582119" lon="11.957768367308878"><ele>612.0</ele><time>2026-03-29T08:58:09.999Z</time></trkpt><trkpt lat="43.36987419608105" lon="11.957904637198439"><ele>612.0</ele><time>2026-03-29T08:58:10.999Z</time></trkpt><trkpt lat="43.369941276967694" lon="11.958051473890027"><ele>612.0</ele><time>2026-03-29T08:58:11.999Z</time></trkpt><trkpt lat="43.37001065704921" lon="11.958194676279852"><ele>612.0</ele><time>2026-03-29T08:58:12.999Z</time></trkpt><trkpt lat="43.37007724880017" lon="11.958318449735756"><ele>612.0</ele><time>2026-03-29T08:58:13.998Z</time></trkpt><trkpt lat="43.370140474190315" lon="11.95842446110116"><ele>612.0</ele><time>2026-03-29T08:58:14.998Z</time></trkpt><trkpt lat="43.370195317112696" lon="11.958535851616995"><ele>612.0</ele><time>2026-03-29T08:58:15.998Z</time></trkpt><trkpt lat="43.370214718817714" lon="11.95865308398751"><ele>612.0</ele><time>2026-03-29T08:58:16.998Z</time></trkpt><trkpt lat="43.37019792628068" lon="11.958774310652062"><ele>611.8000000000001</ele><time>2026-03-29T08:58:17.998Z</time></trkpt><trkpt lat="43.370146923446676" lon="11.958911573606064"><ele>611.6</ele><time>2026-03-29T08:58:19Z</time></trkpt><trkpt lat="43.370086262124715" lon="11.959026396986776"><ele>611.4000000000001</ele><time>2026-03-29T08:58:20Z</time></trkpt><trkpt lat="43.370020370851854" lon="11.959125638468773"><ele>611.2</ele><time>2026-03-29T08:58:21Z</time></trkpt><trkpt lat="43.36998297869125" lon="11.959217281148941"><ele>611.0</ele><time>2026-03-29T08:58:22Z</time></trkpt><trkpt lat="43.36996398560398" lon="11.959327170047011"><ele>611.0</ele><time>2026-03-29T08:58:23Z</time></trkpt><trkpt lat="43.36997006534457" lon="11.959450958909835"><ele>611.0</ele><time>2026-03-29T08:58:24Z</time></trkpt><trkpt lat="43.36999395717356" lon="11.959572786022997"><ele>611.0</ele><time>2026-03-29T08:58:25Z</time></trkpt><trkpt lat="43.370037764112475" lon="11.959709097197395"><ele>611.0</ele><time>2026-03-29T08:58:26Z</time></trkpt><trkpt lat="43.370095847787645" lon="11.959841608028283"><ele>611.0</ele><time>2026-03-29T08:58:27Z</time></trkpt><trkpt lat="43.37016172710417" lon="11.959966750930862"><ele>610.2</ele><time>2026-03-29T08:58:28Z</time></trkpt><trkpt lat="43.370225921139145" lon="11.960077973283209"><ele>609.4000000000001</ele><time>2026-03-29T08:58:29Z</time></trkpt><trkpt lat="43.37029386468253" lon="11.960185212168463"><ele>608.6</ele><time>2026-03-29T08:58:30Z</time></trkpt><trkpt lat="43.37036022739003" lon="11.96029594329578"><ele>607.8000000000001</ele><time>2026-03-29T08:58:31Z</time></trkpt><trkpt lat="43.37042015680342" lon="11.960415898539907"><ele>607.0</ele><time>2026-03-29T08:58:32Z</time></trkpt><trkpt lat="43.370464392028424" lon="11.960540198110467"><ele>607.0</ele><time>2026-03-29T08:58:33Z</time></trkpt><trkpt lat="43.370457007871984" lon="11.960669117427422"><ele>607.0</ele><time>2026-03-29T08:58:34Z</time></trkpt><trkpt lat="43.37041086111025" lon="11.960788087848726"><ele>607.0</ele><time>2026-03-29T08:58:35Z</time></trkpt><trkpt lat="43.37035726523591" lon="11.960900663500441"><ele>607.0</ele><time>2026-03-29T08:58:36Z</time></trkpt><trkpt lat="43.37032400818164" lon="11.9610326155645"><ele>607.0</ele><time>2026-03-29T08:58:37Z</time></trkpt><trkpt lat="43.370316170881075" lon="11.961189088442692"><ele>607.2</ele><time>2026-03-29T08:58:38Z</time></trkpt><trkpt lat="43.37032250525315" lon="11.961350601965076"><ele>607.4000000000001</ele><time>2026-03-29T08:58:39Z</time></trkpt><trkpt lat="43.370344371255946" lon="11.96150070531955"><ele>607.5999999999999</ele><time>2026-03-29T08:58:40Z</time></trkpt><trkpt lat="43.370371876447244" lon="11.961649808379077"><ele>607.8</ele><time>2026-03-29T08:58:41Z</time></trkpt><trkpt lat="43.37040521235112" lon="11.961790494156556"><ele>608.0</ele><time>2026-03-29T08:58:42Z</time></trkpt><trkpt lat="43.37043283619562" lon="11.961916285238697"><ele>607.1666666666666</ele><time>2026-03-29T08:58:43Z</time></trkpt><trkpt lat="43.37046173147991" lon="11.962025586952224"><ele>606.3333333333333</ele><time>2026-03-29T08:58:44Z</time></trkpt><trkpt lat="43.37050297534479" lon="11.962129048239579"><ele>605.5</ele><time>2026-03-29T08:58:45Z</time></trkpt><trkpt lat="43.37056072962939" lon="11.962211736527031"><ele>604.6666666666666</ele><time>2026-03-29T08:58:46Z</time></trkpt><trkpt lat="43.37062756612846" lon="11.96227920234098"><ele>603.8333333333334</ele><time>2026-03-29T08:58:47Z</time></trkpt><trkpt lat="43.37070418096093" lon="11.962319844376848"><ele>603.0</ele><time>2026-03-29T08:58:48Z</time></trkpt><trkpt lat="43.37078698445843" lon="11.962363050280057"><ele>600.8</ele><time>2026-03-29T08:58:49Z</time></trkpt><trkpt lat="43.370871071064464" lon="11.962416362111027"><ele>598.5999999999999</ele><time>2026-03-29T08:58:50Z</time></trkpt><trkpt lat="43.37095404740492" lon="11.962490828780915"><ele>596.4000000000001</ele><time>2026-03-29T08:58:51Z</time></trkpt><trkpt lat="43.37104202597134" lon="11.962558461205095"><ele>594.2</ele><time>2026-03-29T08:58:52Z</time></trkpt><trkpt lat="43.371135953834255" lon="11.96260034880054"><ele>592.0</ele><time>2026-03-29T08:58:53Z</time></trkpt><trkpt lat="43.37124248472842" lon="11.962617430760323"><ele>592.0</ele><time>2026-03-29T08:58:54Z</time></trkpt><trkpt lat="43.37135186535356" lon="11.962611841102353"><ele>592.0</ele><time>2026-03-29T08:58:55Z</time></trkpt><trkpt lat="43.37146032221231" lon="11.962606163286193"><ele>592.0</ele><time>2026-03-29T08:58:56Z</time></trkpt><trkpt lat="43.37155815822552" lon="11.96261439612094"><ele>592.0</ele><time>2026-03-29T08:58:57Z</time></trkpt><trkpt lat="43.37164412453062" lon="11.962676950440171"><ele>592.0</ele><time>2026-03-29T08:58:58Z</time></trkpt><trkpt lat="43.37170997775173" lon="11.962787315365192"><ele>597.0</ele><time>2026-03-29T08:58:59Z</time></trkpt><trkpt lat="43.3717729205015" lon="11.962915429609414"><ele>602.0</ele><time>2026-03-29T08:59:00Z</time></trkpt><trkpt lat="43.3718489512974" lon="11.963035848790627"><ele>607.0</ele><time>2026-03-29T08:59:01Z</time></trkpt><trkpt lat="43.37193147884994" lon="11.963155358614994"><ele>612.0</ele><time>2026-03-29T08:59:02Z</time></trkpt><trkpt lat="43.372021681979675" lon="11.963263372624894"><ele>612.0</ele><time>2026-03-29T08:59:03Z</time></trkpt><trkpt lat="43.372109929558825" lon="11.96335221583255"><ele>612.0</ele><time>2026-03-29T08:59:04Z</time></trkpt><trkpt lat="43.372178540274916" lon="11.963455132580146"><ele>612.0</ele><time>2026-03-29T08:59:05Z</time></trkpt><trkpt lat="43.37221167512432" lon="11.96358325568931"><ele>612.0</ele><time>2026-03-29T08:59:06Z</time></trkpt><trkpt lat="43.37221636160505" lon="11.96373778419798"><ele>612.0</ele><time>2026-03-29T08:59:07Z</time></trkpt><trkpt lat="43.37222364929534" lon="11.963892696141667"><ele>614.75</ele><time>2026-03-29T08:59:07.999Z</time></trkpt><trkpt lat="43.372250486436215" lon="11.964048082893566"><ele>617.5</ele><time>2026-03-29T08:59:08.999Z</time></trkpt><trkpt lat="43.37228314131808" lon="11.964202696983575"><ele>620.25</ele><time>2026-03-29T08:59:09.999Z</time></trkpt><trkpt lat="43.37231203212055" lon="11.964356203366032"><ele>623.0</ele><time>2026-03-29T08:59:10.999Z</time></trkpt><trkpt lat="43.37234787179235" lon="11.964501578986102"><ele>623.0</ele><time>2026-03-29T08:59:11.999Z</time></trkpt><trkpt lat="43.372398346690716" lon="11.964637963108176"><ele>623.0</ele><time>2026-03-29T08:59:12.999Z</time></trkpt><trkpt lat="43.37245761113634" lon="11.96477562541387"><ele>623.0</ele><time>2026-03-29T08:59:13.999Z</time></trkpt><trkpt lat="43.372511934174355" lon="11.96491220357019"><ele>623.0</ele><time>2026-03-29T08:59:14.999Z</time></trkpt><trkpt lat="43.37256528897261" lon="11.96503921267661"><ele>623.0</ele><time>2026-03-29T08:59:15.999Z</time></trkpt><trkpt lat="43.37261550863965" lon="11.965164155842324"><ele>620.8</ele><time>2026-03-29T08:59:16.999Z</time></trkpt><trkpt lat="43.37267384347861" lon="11.965280591453515"><ele>618.5999999999999</ele><time>2026-03-29T08:59:17.999Z</time></trkpt><trkpt lat="43.37274216192769" lon="11.96539736931381"><ele>616.4000000000001</ele><time>2026-03-29T08:59:18.999Z</time></trkpt><trkpt lat="43.372814306047395" lon="11.965521874110099"><ele>614.2</ele><time>2026-03-29T08:59:19.999Z</time></trkpt><trkpt lat="43.37289668587861" lon="11.96562291988123"><ele>612.0</ele><time>2026-03-29T08:59:20.999Z</time></trkpt><trkpt lat="43.37298586760809" lon="11.965713400170435"><ele>614.0</ele><time>2026-03-29T08:59:21.999Z</time></trkpt><trkpt lat="43.373081298594315" lon="11.965791437592245"><ele>616.0</ele><time>2026-03-29T08:59:22.999Z</time></trkpt><trkpt lat="43.373185522495035" lon="11.965856925067952"><ele>618.0</ele><time>2026-03-29T08:59:23.999Z</time></trkpt><trkpt lat="43.373290931183305" lon="11.965934399427349"><ele>620.0</ele><time>2026-03-29T08:59:24.999Z</time></trkpt><trkpt lat="43.37336045916403" lon="11.966037880969498"><ele>622.0</ele><time>2026-03-29T08:59:25.999Z</time></trkpt><trkpt lat="43.37339640720461" lon="11.96615831752687"><ele>622.0</ele><time>2026-03-29T08:59:26.999Z</time></trkpt><trkpt lat="43.37340064449004" lon="11.966278643447422"><ele>622.0</ele><time>2026-03-29T08:59:27.999Z</time></trkpt><trkpt lat="43.3733840663558" lon="11.966409852309138"><ele>622.0</ele><time>2026-03-29T08:59:28.999Z</time></trkpt><trkpt lat="43.373357125380245" lon="11.966544501764842"><ele>622.0</ele><time>2026-03-29T08:59:29.999Z</time></trkpt><trkpt lat="43.37334028133753" lon="11.966688351116414"><ele>622.0</ele><time>2026-03-29T08:59:30.999Z</time></trkpt><trkpt lat="43.37334451657968" lon="11.966838162021281"><ele>620.2</ele><time>2026-03-29T08:59:31.999Z</time></trkpt><trkpt lat="43.373376634410306" lon="11.966970993281238"><ele>618.4000000000001</ele><time>2026-03-29T08:59:32.999Z</time></trkpt><trkpt lat="43.37342722420726" lon="11.967089028156794"><ele>616.5999999999999</ele><time>2026-03-29T08:59:33.999Z</time></trkpt><trkpt lat="43.3734839941248" lon="11.96720416155321"><ele>614.8</ele><time>2026-03-29T08:59:34.999Z</time></trkpt><trkpt lat="43.37354974828607" lon="11.96731667227493"><ele>613.0</ele><time>2026-03-29T08:59:35.999Z</time></trkpt><trkpt lat="43.37361971959781" lon="11.96740870362521"><ele>613.0</ele><time>2026-03-29T08:59:36.999Z</time></trkpt><trkpt lat="43.37369777790763" lon="11.967482802879326"><ele>613.0</ele><time>2026-03-29T08:59:37.999Z</time></trkpt><trkpt lat="43.373790684526" lon="11.967566046088901"><ele>613.0</ele><time>2026-03-29T08:59:38.999Z</time></trkpt><trkpt lat="43.37388624964794" lon="11.96764712739465"><ele>613.0</ele><time>2026-03-29T08:59:39.999Z</time></trkpt><trkpt lat="43.3739568693144" lon="11.967734286669993"><ele>613.0</ele><time>2026-03-29T08:59:40.999Z</time></trkpt><trkpt lat="43.37398565684658" lon="11.967863060249302"><ele>616.6</ele><time>2026-03-29T08:59:41.999Z</time></trkpt><trkpt lat="43.3739945768662" lon="11.9680032615056"><ele>620.1999999999999</ele><time>2026-03-29T08:59:42.999Z</time></trkpt><trkpt lat="43.373982692996364" lon="11.968144324234881"><ele>623.8</ele><time>2026-03-29T08:59:43.999Z</time></trkpt><trkpt lat="43.37397247707906" lon="11.96829707552643"><ele>627.4</ele><time>2026-03-29T08:59:44.999Z</time></trkpt><trkpt lat="43.373953871854035" lon="11.968449014625772"><ele>631.0</ele><time>2026-03-29T08:59:45.999Z</time></trkpt><trkpt lat="43.373931826842956" lon="11.968584101448432"><ele>631.0</ele><time>2026-03-29T08:59:46.999Z</time></trkpt><trkpt lat="43.373905834362155" lon="11.968688468116762"><ele>631.0</ele><time>2026-03-29T08:59:47.999Z</time></trkpt><trkpt lat="43.373876090831445" lon="11.968779925911827"><ele>631.0</ele><time>2026-03-29T08:59:48.999Z</time></trkpt><trkpt lat="43.37382354206048" lon="11.968928765246163"><ele>631.0</ele><time>2026-03-29T08:59:50.999Z</time></trkpt><trkpt lat="43.37378527251846" lon="11.96900631447805"><ele>631.0</ele><time>2026-03-29T08:59:51.999Z</time></trkpt><trkpt lat="43.3737494751813" lon="11.96909031961445"><ele>631.0</ele><time>2026-03-29T08:59:52.999Z</time></trkpt><trkpt lat="43.37370902550338" lon="11.969171975684397"><ele>628.0</ele><time>2026-03-29T08:59:53.999Z</time></trkpt><trkpt lat="43.37368656082843" lon="11.969278881852588"><ele>625.0</ele><time>2026-03-29T08:59:54.999Z</time></trkpt><trkpt lat="43.373667044177765" lon="11.969396316801342"><ele>622.0</ele><time>2026-03-29T08:59:55.999Z</time></trkpt><trkpt lat="43.37362990123387" lon="11.969520973509594"><ele>619.0</ele><time>2026-03-29T08:59:56.999Z</time></trkpt><trkpt lat="43.373590533773466" lon="11.969662673469568"><ele>616.0</ele><time>2026-03-29T08:59:57.999Z</time></trkpt><trkpt lat="43.3735489269093" lon="11.96980621816256"><ele>616.0</ele><time>2026-03-29T08:59:58.999Z</time></trkpt><trkpt lat="43.37350435520307" lon="11.969949331853371"><ele>616.0</ele><time>2026-03-29T08:59:59.999Z</time></trkpt><trkpt lat="43.37345804011708" lon="11.97008982746662"><ele>616.0</ele><time>2026-03-29T09:00:00.999Z</time></trkpt><trkpt lat="43.37341119408024" lon="11.97022034709167"><ele>616.0</ele><time>2026-03-29T09:00:01.999Z</time></trkpt><trkpt lat="43.373374517041526" lon="11.970328033673526"><ele>616.0</ele><time>2026-03-29T09:00:02.999Z</time></trkpt><trkpt lat="43.373332282380666" lon="11.970439165635828"><ele>616.1666666666667</ele><time>2026-03-29T09:00:04.999Z</time></trkpt><trkpt lat="43.3733611121569" lon="11.970517120850312"><ele>616.3333333333334</ele><time>2026-03-29T09:00:07.999Z</time></trkpt><trkpt lat="43.373436760632494" lon="11.970484707721726"><ele>616.5</ele><time>2026-03-29T09:00:10.999Z</time></trkpt><trkpt lat="43.37355793921953" lon="11.970439051029215"><ele>616.6666666666666</ele><time>2026-03-29T09:00:12.999Z</time></trkpt><trkpt lat="43.37362169199976" lon="11.97038551979497"><ele>616.8333333333333</ele><time>2026-03-29T09:00:13.998Z</time></trkpt><trkpt lat="43.37367490794523" lon="11.970314141071182"><ele>617.0</ele><time>2026-03-29T09:00:14.998Z</time></trkpt><trkpt lat="43.373742570549304" lon="11.970273345122607"><ele>619.0</ele><time>2026-03-29T09:00:15.998Z</time></trkpt><trkpt lat="43.373856083433836" lon="11.97022294789663"><ele>621.0</ele><time>2026-03-29T09:00:17.998Z</time></trkpt><trkpt lat="43.37391657419513" lon="11.970197849171798"><ele>623.0</ele><time>2026-03-29T09:00:18.998Z</time></trkpt><trkpt lat="43.374005214794394" lon="11.97026306574676"><ele>625.0</ele><time>2026-03-29T09:00:20.998Z</time></trkpt><trkpt lat="43.374053162939305" lon="11.970342295482936"><ele>627.0</ele><time>2026-03-29T09:00:21.998Z</time></trkpt><trkpt lat="43.37410343011497" lon="11.970436665366256"><ele>629.0</ele><time>2026-03-29T09:00:22.998Z</time></trkpt><trkpt lat="43.37415631066532" lon="11.970486944509767"><ele>629.0</ele><time>2026-03-29T09:00:23.998Z</time></trkpt><trkpt lat="43.374209801890935" lon="11.97053987004944"><ele>629.0</ele><time>2026-03-29T09:00:25Z</time></trkpt><trkpt lat="43.374261079152475" lon="11.97061667126946"><ele>629.0</ele><time>2026-03-29T09:00:26Z</time></trkpt><trkpt lat="43.37432367774541" lon="11.970685609953168"><ele>629.0</ele><time>2026-03-29T09:00:27Z</time></trkpt><trkpt lat="43.37443560516823" lon="11.97072099357601"><ele>629.0</ele><time>2026-03-29T09:00:29Z</time></trkpt><trkpt lat="43.37450404577267" lon="11.9707287116425"><ele>629.0</ele><time>2026-03-29T09:00:30Z</time></trkpt><trkpt lat="43.374578536982774" lon="11.970737991083933"><ele>629.0</ele><time>2026-03-29T09:00:31Z</time></trkpt><trkpt lat="43.37464694660455" lon="11.970758736140832"><ele>629.0</ele><time>2026-03-29T09:00:32Z</time></trkpt><trkpt lat="43.37472484587379" lon="11.970795535177624"><ele>629.0</ele><time>2026-03-29T09:00:33Z</time></trkpt><trkpt lat="43.37478567232711" lon="11.970830635923999"><ele>629.0</ele><time>2026-03-29T09:00:34Z</time></trkpt><trkpt lat="43.374877382166176" lon="11.97086870733281"><ele>629.0</ele><time>2026-03-29T09:00:36Z</time></trkpt><trkpt lat="43.37493647176366" lon="11.970910941666553"><ele>629.0</ele><time>2026-03-29T09:00:37Z</time></trkpt><trkpt lat="43.37503922316159" lon="11.970912998005769"><ele>632.6</ele><time>2026-03-29T09:00:39Z</time></trkpt><trkpt lat="43.37511514360534" lon="11.970886605938235"><ele>636.2</ele><time>2026-03-29T09:00:50Z</time></trkpt><trkpt lat="43.37524068762364" lon="11.97083662962196"><ele>639.8000000000001</ele><time>2026-03-29T09:00:52Z</time></trkpt><trkpt lat="43.375355454687764" lon="11.970848342502439"><ele>643.4</ele><time>2026-03-29T09:00:54Z</time></trkpt><trkpt lat="43.37541797287598" lon="11.970868806179185"><ele>647.0</ele><time>2026-03-29T09:00:55Z</time></trkpt><trkpt lat="43.37548238552401" lon="11.97086237940491"><ele>649.8</ele><time>2026-03-29T09:00:56Z</time></trkpt><trkpt lat="43.375567951586824" lon="11.97081588813352"><ele>652.6</ele><time>2026-03-29T09:00:58Z</time></trkpt><trkpt lat="43.37566306643607" lon="11.97072224342596"><ele>655.4</ele><time>2026-03-29T09:01:00Z</time></trkpt><trkpt lat="43.375728564765" lon="11.970672357734506"><ele>658.1999999999999</ele><time>2026-03-29T09:01:01Z</time></trkpt><trkpt lat="43.37579422874596" lon="11.970720131676229"><ele>661.0</ele><time>2026-03-29T09:01:03Z</time></trkpt><trkpt lat="43.37581990073142" lon="11.970873669442275"><ele>661.5</ele><time>2026-03-29T09:01:05Z</time></trkpt><trkpt lat="43.37582010990778" lon="11.970963160054819"><ele>662.0</ele><time>2026-03-29T09:01:06Z</time></trkpt><trkpt lat="43.37585336234712" lon="11.971051743290799"><ele>662.5</ele><time>2026-03-29T09:01:08Z</time></trkpt><trkpt lat="43.37588452551536" lon="11.971160039649918"><ele>663.0</ele><time>2026-03-29T09:01:10.999Z</time></trkpt><trkpt lat="43.37587604581948" lon="11.9712806857213"><ele>663.5</ele><time>2026-03-29T09:01:13.999Z</time></trkpt><trkpt lat="43.37587765821892" lon="11.971436182244299"><ele>664.0</ele><time>2026-03-29T09:01:15.999Z</time></trkpt><trkpt lat="43.37587497359855" lon="11.971523132119955"><ele>664.0</ele><time>2026-03-29T09:01:16.999Z</time></trkpt><trkpt lat="43.37586131552156" lon="11.971625808185607"><ele>664.0</ele><time>2026-03-29T09:01:17.999Z</time></trkpt><trkpt lat="43.375868098519696" lon="11.971801779565453"><ele>664.0</ele><time>2026-03-29T09:01:19.999Z</time></trkpt><trkpt lat="43.37585492637639" lon="11.971900517982624"><ele>664.0</ele><time>2026-03-29T09:01:20.999Z</time></trkpt><trkpt lat="43.375826463054864" lon="11.971993214137866"><ele>664.0</ele><time>2026-03-29T09:01:21.999Z</time></trkpt><trkpt lat="43.37579073358856" lon="11.972082949634805"><ele>664.0</ele><time>2026-03-29T09:01:22.999Z</time></trkpt><trkpt lat="43.375756320964165" lon="11.972207830326552"><ele>664.8000000000001</ele><time>2026-03-29T09:01:23.999Z</time></trkpt><trkpt lat="43.37572718664686" lon="11.972353163652652"><ele>665.6</ele><time>2026-03-29T09:01:24.999Z</time></trkpt><trkpt lat="43.375697936854735" lon="11.972486515333967"><ele>666.4</ele><time>2026-03-29T09:01:25.999Z</time></trkpt><trkpt lat="43.375672473608155" lon="11.97260655951504"><ele>667.2</ele><time>2026-03-29T09:01:26.999Z</time></trkpt><trkpt lat="43.375657682369344" lon="11.972751304887522"><ele>668.0</ele><time>2026-03-29T09:01:27.999Z</time></trkpt><trkpt lat="43.375664214698936" lon="11.972902254809119"><ele>668.1428571428571</ele><time>2026-03-29T09:01:28.999Z</time></trkpt><trkpt lat="43.37568458569821" lon="11.973021954823436"><ele>668.2857142857143</ele><time>2026-03-29T09:01:29.999Z</time></trkpt><trkpt lat="43.375701273164026" lon="11.973114940279409"><ele>668.4285714285714</ele><time>2026-03-29T09:01:30.999Z</time></trkpt><trkpt lat="43.37570055328399" lon="11.973216528297385"><ele>668.5714285714286</ele><time>2026-03-29T09:01:31.999Z</time></trkpt><trkpt lat="43.37570658170213" lon="11.973319733129168"><ele>668.7142857142857</ele><time>2026-03-29T09:01:32.999Z</time></trkpt><trkpt lat="43.37571788448759" lon="11.973410010251516"><ele>668.8571428571429</ele><time>2026-03-29T09:01:33.999Z</time></trkpt><trkpt lat="43.3757146437372" lon="11.973501269988205"><ele>669.0</ele><time>2026-03-29T09:01:34.999Z</time></trkpt><trkpt lat="43.37570016483492" lon="11.973641654897996"><ele>669.0</ele><time>2026-03-29T09:01:36.999Z</time></trkpt><trkpt lat="43.375712693111666" lon="11.973758878631989"><ele>669.0</ele><time>2026-03-29T09:01:38.999Z</time></trkpt><trkpt lat="43.375716203857294" lon="11.973885675390331"><ele>669.0</ele><time>2026-03-29T09:01:43.999Z</time></trkpt><trkpt lat="43.375718836245625" lon="11.9740330337876"><ele>669.0</ele><time>2026-03-29T09:01:45.999Z</time></trkpt><trkpt lat="43.37572794366709" lon="11.974145001751662"><ele>669.0</ele><time>2026-03-29T09:01:46.999Z</time></trkpt><trkpt lat="43.3757469758339" lon="11.974250523618881"><ele>669.0</ele><time>2026-03-29T09:01:47.999Z</time></trkpt><trkpt lat="43.375781737666074" lon="11.974411420728245"><ele>669.2</ele><time>2026-03-29T09:01:49.999Z</time></trkpt><trkpt lat="43.375801655902414" lon="11.974533667600525"><ele>669.4000000000001</ele><time>2026-03-29T09:01:51.999Z</time></trkpt><trkpt lat="43.3758034086672" lon="11.974678279134935"><ele>669.6</ele><time>2026-03-29T09:01:53.999Z</time></trkpt><trkpt lat="43.37574183319045" lon="11.974784679860814"><ele>669.8</ele><time>2026-03-29T09:01:55.999Z</time></trkpt><trkpt lat="43.375705791334454" lon="11.974885299859938"><ele>670.0</ele><time>2026-03-29T09:01:57.999Z</time></trkpt><trkpt lat="43.37569722161314" lon="11.974992189905898"><ele>668.8</ele><time>2026-03-29T09:01:58.999Z</time></trkpt><trkpt lat="43.37567297343839" lon="11.975121402158335"><ele>667.6</ele><time>2026-03-29T09:01:59.999Z</time></trkpt><trkpt lat="43.37562277721223" lon="11.975242866900011"><ele>666.4000000000001</ele><time>2026-03-29T09:02:00.999Z</time></trkpt><trkpt lat="43.37556702530882" lon="11.97537646388355"><ele>665.2</ele><time>2026-03-29T09:02:01.999Z</time></trkpt><trkpt lat="43.375522684805084" lon="11.975456256467368"><ele>664.0</ele><time>2026-03-29T09:02:02.999Z</time></trkpt><trkpt lat="43.375519997010265" lon="11.975618839475407"><ele>664.0</ele><time>2026-03-29T09:02:04.999Z</time></trkpt><trkpt lat="43.37551924264927" lon="11.975795860822126"><ele>664.0</ele><time>2026-03-29T09:02:06.999Z</time></trkpt><trkpt lat="43.37548138311564" lon="11.975907450477166"><ele>664.0</ele><time>2026-03-29T09:02:07.999Z</time></trkpt><trkpt lat="43.375460610264994" lon="11.976039101999898"><ele>664.0</ele><time>2026-03-29T09:02:08.999Z</time></trkpt><trkpt lat="43.3754576964777" lon="11.97617618104051"><ele>664.0</ele><time>2026-03-29T09:02:09.999Z</time></trkpt><trkpt lat="43.37546346023259" lon="11.976324611693252"><ele>664.6</ele><time>2026-03-29T09:02:10.999Z</time></trkpt><trkpt lat="43.375460274201885" lon="11.976480349943532"><ele>665.2</ele><time>2026-03-29T09:02:11.999Z</time></trkpt><trkpt lat="43.37546724542026" lon="11.976615559045712"><ele>665.8000000000001</ele><time>2026-03-29T09:02:12.999Z</time></trkpt><trkpt lat="43.3754831969225" lon="11.97675999190821"><ele>666.4000000000001</ele><time>2026-03-29T09:02:13.999Z</time></trkpt><trkpt lat="43.375485931970594" lon="11.976901006474264"><ele>667.0</ele><time>2026-03-29T09:02:14.999Z</time></trkpt><trkpt lat="43.3754896351565" lon="11.97704235086978"><ele>668.0</ele><time>2026-03-29T09:02:15.999Z</time></trkpt><trkpt lat="43.37551579618033" lon="11.97717369922765"><ele>669.0</ele><time>2026-03-29T09:02:16.999Z</time></trkpt><trkpt lat="43.37552192262142" lon="11.977309666691404"><ele>670.0</ele><time>2026-03-29T09:02:17.998Z</time></trkpt><trkpt lat="43.37553872783621" lon="11.977447788222273"><ele>671.0</ele><time>2026-03-29T09:02:18.998Z</time></trkpt><trkpt lat="43.37555456479477" lon="11.977583007233234"><ele>672.0</ele><time>2026-03-29T09:02:19.998Z</time></trkpt><trkpt lat="43.37555473814464" lon="11.977721325899447"><ele>675.0</ele><time>2026-03-29T09:02:20.998Z</time></trkpt><trkpt lat="43.37554688248211" lon="11.977850828325176"><ele>678.0</ele><time>2026-03-29T09:02:21.998Z</time></trkpt><trkpt lat="43.37554429879596" lon="11.977970768457036"><ele>681.0</ele><time>2026-03-29T09:02:22.998Z</time></trkpt><trkpt lat="43.37556472835727" lon="11.978074671953367"><ele>684.0</ele><time>2026-03-29T09:02:23.998Z</time></trkpt><trkpt lat="43.37559358393136" lon="11.978164709861133"><ele>687.0</ele><time>2026-03-29T09:02:24.998Z</time></trkpt><trkpt lat="43.37561594717723" lon="11.978246176485257"><ele>690.0</ele><time>2026-03-29T09:02:25.998Z</time></trkpt><trkpt lat="43.37564646303971" lon="11.97833167870073"><ele>687.8333333333334</ele><time>2026-03-29T09:02:26.998Z</time></trkpt><trkpt lat="43.375674851145064" lon="11.978415292073414"><ele>685.6666666666666</ele><time>2026-03-29T09:02:27.998Z</time></trkpt><trkpt lat="43.37571927318322" lon="11.978490507345466"><ele>683.5</ele><time>2026-03-29T09:02:28.998Z</time></trkpt><trkpt lat="43.375765035253025" lon="11.978599570883857"><ele>681.3333333333333</ele><time>2026-03-29T09:02:31Z</time></trkpt><trkpt lat="43.37585068111663" lon="11.978715762492115"><ele>679.1666666666666</ele><time>2026-03-29T09:02:33Z</time></trkpt><trkpt lat="43.3759207317327" lon="11.9787866430494"><ele>677.0</ele><time>2026-03-29T09:02:34Z</time></trkpt><trkpt lat="43.375994966533675" lon="11.97885525663839"><ele>677.0</ele><time>2026-03-29T09:02:35Z</time></trkpt><trkpt lat="43.37607438063521" lon="11.978954118305003"><ele>677.0</ele><time>2026-03-29T09:02:36Z</time></trkpt><trkpt lat="43.37614443593501" lon="11.979049241603654"><ele>677.0</ele><time>2026-03-29T09:02:37Z</time></trkpt><trkpt lat="43.376206828206534" lon="11.979117651308634"><ele>677.0</ele><time>2026-03-29T09:02:38Z</time></trkpt><trkpt lat="43.37625674886178" lon="11.979189141594244"><ele>677.0</ele><time>2026-03-29T09:02:39Z</time></trkpt><trkpt lat="43.37633329888696" lon="11.979299303995218"><ele>678.2</ele><time>2026-03-29T09:02:41Z</time></trkpt><trkpt lat="43.376382096785086" lon="11.97937571971886"><ele>679.4000000000001</ele><time>2026-03-29T09:02:44Z</time></trkpt><trkpt lat="43.37638235445745" lon="11.97952047087999"><ele>680.5999999999999</ele><time>2026-03-29T09:02:46Z</time></trkpt><trkpt lat="43.3764261336498" lon="11.979629339301374"><ele>681.8</ele><time>2026-03-29T09:02:47Z</time></trkpt><trkpt lat="43.376483797019326" lon="11.979748839536766"><ele>683.0</ele><time>2026-03-29T09:02:48Z</time></trkpt><trkpt lat="43.376541931349486" lon="11.979881150609389"><ele>685.8</ele><time>2026-03-29T09:02:49Z</time></trkpt><trkpt lat="43.376604344056815" lon="11.980020293385266"><ele>688.5999999999999</ele><time>2026-03-29T09:02:50Z</time></trkpt><trkpt lat="43.37667199121301" lon="11.980147883861907"><ele>691.4000000000001</ele><time>2026-03-29T09:02:51Z</time></trkpt><trkpt lat="43.376708546499934" lon="11.980285951856246"><ele>694.2</ele><time>2026-03-29T09:02:52Z</time></trkpt><trkpt lat="43.37670795787704" lon="11.980396929000605"><ele>697.0</ele><time>2026-03-29T09:02:53Z</time></trkpt><trkpt lat="43.37666152654088" lon="11.98049347049188"><ele>697.0</ele><time>2026-03-29T09:02:54Z</time></trkpt><trkpt lat="43.3765891735843" lon="11.980590829379642"><ele>697.0</ele><time>2026-03-29T09:02:55Z</time></trkpt><trkpt lat="43.37652604539651" lon="11.980696886469687"><ele>697.0</ele><time>2026-03-29T09:02:56Z</time></trkpt><trkpt lat="43.37648634209733" lon="11.98079660105259"><ele>697.0</ele><time>2026-03-29T09:02:57Z</time></trkpt><trkpt lat="43.37645966302592" lon="11.980906121674305"><ele>697.0</ele><time>2026-03-29T09:02:58Z</time></trkpt><trkpt lat="43.376434065965256" lon="11.98102640412962"><ele>697.5</ele><time>2026-03-29T09:02:59Z</time></trkpt><trkpt lat="43.37640569741342" lon="11.981155516549295"><ele>698.0</ele><time>2026-03-29T09:03:00Z</time></trkpt><trkpt lat="43.376388548370095" lon="11.981243774527693"><ele>698.5</ele><time>2026-03-29T09:03:01Z</time></trkpt><trkpt lat="43.376385207552445" lon="11.981345008027603"><ele>699.0</ele><time>2026-03-29T09:03:02Z</time></trkpt><trkpt lat="43.37647728851294" lon="11.98141799951081"><ele>699.5</ele><time>2026-03-29T09:03:04Z</time></trkpt><trkpt lat="43.37655102032479" lon="11.981424561294778"><ele>700.0</ele><time>2026-03-29T09:03:05Z</time></trkpt><trkpt lat="43.37663096771691" lon="11.981412707998736"><ele>700.0</ele><time>2026-03-29T09:03:06Z</time></trkpt><trkpt lat="43.376706856655794" lon="11.981415269916186"><ele>700.0</ele><time>2026-03-29T09:03:07Z</time></trkpt><trkpt lat="43.3767906802081" lon="11.981412694121968"><ele>700.0</ele><time>2026-03-29T09:03:08Z</time></trkpt><trkpt lat="43.376883757449775" lon="11.981373170148329"><ele>700.0</ele><time>2026-03-29T09:03:09Z</time></trkpt><trkpt lat="43.37696698902594" lon="11.98135245400993"><ele>700.0</ele><time>2026-03-29T09:03:10Z</time></trkpt><trkpt lat="43.37707916547367" lon="11.981341213355124"><ele>701.25</ele><time>2026-03-29T09:03:11Z</time></trkpt><trkpt lat="43.377196609809005" lon="11.981354899591363"><ele>702.5</ele><time>2026-03-29T09:03:12Z</time></trkpt><trkpt lat="43.377322667053654" lon="11.981354172968691"><ele>703.75</ele><time>2026-03-29T09:03:13Z</time></trkpt><trkpt lat="43.37745510486995" lon="11.981322676418218"><ele>705.0</ele><time>2026-03-29T09:03:14Z</time></trkpt><trkpt lat="43.37756950957198" lon="11.981285981282664"><ele>705.0</ele><time>2026-03-29T09:03:15Z</time></trkpt><trkpt lat="43.377673562877945" lon="11.981277002936135"><ele>705.0</ele><time>2026-03-29T09:03:16Z</time></trkpt><trkpt lat="43.377770974428316" lon="11.98128503155611"><ele>705.0</ele><time>2026-03-29T09:03:17Z</time></trkpt><trkpt lat="43.377884332465506" lon="11.981270900172204"><ele>705.0</ele><time>2026-03-29T09:03:18Z</time></trkpt><trkpt lat="43.37798841548891" lon="11.98124838781146"><ele>705.0</ele><time>2026-03-29T09:03:19Z</time></trkpt><trkpt lat="43.37807298879633" lon="11.981288324711722"><ele>706.8</ele><time>2026-03-29T09:03:19.999Z</time></trkpt><trkpt lat="43.37812896336249" lon="11.981350068107332"><ele>708.6</ele><time>2026-03-29T09:03:20.999Z</time></trkpt><trkpt lat="43.3782049806815" lon="11.981415669790676"><ele>710.4000000000001</ele><time>2026-03-29T09:03:22.999Z</time></trkpt><trkpt lat="43.378285352636745" lon="11.981455793931332"><ele>712.2</ele><time>2026-03-29T09:03:23.999Z</time></trkpt><trkpt lat="43.37837317701838" lon="11.981547020873888"><ele>714.0</ele><time>2026-03-29T09:03:24.999Z</time></trkpt><trkpt lat="43.378441046511035" lon="11.981642347273755"><ele>711.3333333333334</ele><time>2026-03-29T09:03:25.999Z</time></trkpt><trkpt lat="43.37850160347761" lon="11.981703306152681"><ele>708.6666666666666</ele><time>2026-03-29T09:03:26.999Z</time></trkpt><trkpt lat="43.378560956711006" lon="11.981749150227946"><ele>706.0</ele><time>2026-03-29T09:03:27.999Z</time></trkpt><trkpt lat="43.378616674014026" lon="11.9818060998416"><ele>703.3333333333333</ele><time>2026-03-29T09:03:28.999Z</time></trkpt><trkpt lat="43.37866791699483" lon="11.981909696701974"><ele>700.6666666666666</ele><time>2026-03-29T09:03:30.999Z</time></trkpt><trkpt lat="43.378715059040196" lon="11.981980574937898"><ele>698.0</ele><time>2026-03-29T09:03:33.999Z</time></trkpt><trkpt lat="43.378758887437556" lon="11.982066581350775"><ele>698.0</ele><time>2026-03-29T09:03:37.999Z</time></trkpt><trkpt lat="43.37882178538179" lon="11.982135456890214"><ele>698.0</ele><time>2026-03-29T09:03:39.999Z</time></trkpt><trkpt lat="43.378861052154555" lon="11.98220458597097"><ele>698.0</ele><time>2026-03-29T09:03:40.999Z</time></trkpt><trkpt lat="43.378900294711364" lon="11.98228868309703"><ele>698.0</ele><time>2026-03-29T09:03:41.999Z</time></trkpt><trkpt lat="43.37894132060771" lon="11.982386271168231"><ele>698.0</ele><time>2026-03-29T09:03:42.999Z</time></trkpt><trkpt lat="43.378980074028796" lon="11.982505015484033"><ele>698.0</ele><time>2026-03-29T09:03:43.999Z</time></trkpt><trkpt lat="43.379009345126605" lon="11.982615381697936"><ele>701.5</ele><time>2026-03-29T09:03:44.999Z</time></trkpt><trkpt lat="43.37903341497022" lon="11.98273685202098"><ele>705.0</ele><time>2026-03-29T09:03:45.999Z</time></trkpt><trkpt lat="43.3790346327231" lon="11.982835562315387"><ele>708.5</ele><time>2026-03-29T09:03:46.999Z</time></trkpt><trkpt lat="43.379020390573096" lon="11.982925557792427"><ele>712.0</ele><time>2026-03-29T09:03:47.999Z</time></trkpt><trkpt lat="43.37901255414534" lon="11.983014953221357"><ele>715.5</ele><time>2026-03-29T09:03:48.999Z</time></trkpt><trkpt lat="43.378983207611846" lon="11.983151411485036"><ele>719.0</ele><time>2026-03-29T09:03:50.999Z</time></trkpt><trkpt lat="43.378954642052314" lon="11.983358510522553"><ele>719.0</ele><time>2026-03-29T09:03:52.999Z</time></trkpt><trkpt lat="43.37894030714985" lon="11.983485460026275"><ele>719.0</ele><time>2026-03-29T09:03:53.999Z</time></trkpt><trkpt lat="43.37893110867676" lon="11.983597574719848"><ele>719.0</ele><time>2026-03-29T09:03:54.999Z</time></trkpt><trkpt lat="43.378937168804775" lon="11.983715155824804"><ele>719.0</ele><time>2026-03-29T09:03:55.999Z</time></trkpt><trkpt lat="43.37896043118504" lon="11.983849422786205"><ele>719.0</ele><time>2026-03-29T09:03:56.999Z</time></trkpt><trkpt lat="43.379005896661376" lon="11.983983211325889"><ele>719.0</ele><time>2026-03-29T09:03:57.999Z</time></trkpt><trkpt lat="43.37905241810443" lon="11.984132557319695"><ele>719.0</ele><time>2026-03-29T09:03:58.999Z</time></trkpt><trkpt lat="43.37908968446197" lon="11.984252222165535"><ele>719.0</ele><time>2026-03-29T09:03:59.999Z</time></trkpt><trkpt lat="43.379131907673674" lon="11.984354221507452"><ele>719.0</ele><time>2026-03-29T09:04:00.999Z</time></trkpt><trkpt lat="43.3791823775841" lon="11.98443089723823"><ele>719.0</ele><time>2026-03-29T09:04:01.999Z</time></trkpt><trkpt lat="43.37924627171241" lon="11.984478309710436"><ele>719.0</ele><time>2026-03-29T09:04:02.999Z</time></trkpt><trkpt lat="43.3793150346169" lon="11.984543118355766"><ele>717.8000000000001</ele><time>2026-03-29T09:04:04.999Z</time></trkpt><trkpt lat="43.37932391699546" lon="11.98464852287369"><ele>716.6</ele><time>2026-03-29T09:04:09.999Z</time></trkpt><trkpt lat="43.379384721606684" lon="11.984757910534045"><ele>715.4</ele><time>2026-03-29T09:04:45Z</time></trkpt><trkpt lat="43.37941723294348" lon="11.984902434644146"><ele>714.2</ele><time>2026-03-29T09:04:47Z</time></trkpt><trkpt lat="43.379435734879344" lon="11.984987306356105"><ele>713.0</ele><time>2026-03-29T09:04:48Z</time></trkpt><trkpt lat="43.37946784451477" lon="11.985144746946505"><ele>713.0</ele><time>2026-03-29T09:04:50Z</time></trkpt><trkpt lat="43.37950555520606" lon="11.985219915960393"><ele>713.0</ele><time>2026-03-29T09:04:51Z</time></trkpt><trkpt lat="43.37954869630138" lon="11.985298252931688"><ele>713.0</ele><time>2026-03-29T09:04:52Z</time></trkpt><trkpt lat="43.37959524269511" lon="11.985394174421343"><ele>713.0</ele><time>2026-03-29T09:04:53Z</time></trkpt><trkpt lat="43.37962759859278" lon="11.985479193251969"><ele>713.0</ele><time>2026-03-29T09:04:54Z</time></trkpt><trkpt lat="43.379665924863964" lon="11.985550196255984"><ele>713.0</ele><time>2026-03-29T09:04:55Z</time></trkpt><trkpt lat="43.37970875641059" lon="11.985623009177422"><ele>713.0</ele><time>2026-03-29T09:04:56Z</time></trkpt><trkpt lat="43.37978708175672" lon="11.985674860031649"><ele>713.0</ele><time>2026-03-29T09:04:58Z</time></trkpt><trkpt lat="43.379858539831446" lon="11.985740735638673"><ele>713.0</ele><time>2026-03-29T09:05:02Z</time></trkpt><trkpt lat="43.379951591621975" lon="11.985773236837533"><ele>713.0</ele><time>2026-03-29T09:05:04Z</time></trkpt><trkpt lat="43.38008711352485" lon="11.985835352277515"><ele>713.0</ele><time>2026-03-29T09:05:06Z</time></trkpt><trkpt lat="43.38016380525434" lon="11.985829506628098"><ele>713.0</ele><time>2026-03-29T09:05:07Z</time></trkpt><trkpt lat="43.380238100376715" lon="11.985770976731217"><ele>713.0</ele><time>2026-03-29T09:05:08Z</time></trkpt><trkpt lat="43.38030846310514" lon="11.98570374023526"><ele>713.0</ele><time>2026-03-29T09:05:09Z</time></trkpt><trkpt lat="43.38037548376539" lon="11.985684774523271"><ele>713.0</ele><time>2026-03-29T09:05:10Z</time></trkpt><trkpt lat="43.380498113312214" lon="11.985701805809951"><ele>713.0</ele><time>2026-03-29T09:05:12Z</time></trkpt><trkpt lat="43.380556102586475" lon="11.985770358365295"><ele>713.0</ele><time>2026-03-29T09:05:13Z</time></trkpt><trkpt lat="43.380591841183" lon="11.985875289606753"><ele>713.0</ele><time>2026-03-29T09:05:14Z</time></trkpt><trkpt lat="43.380621275235875" lon="11.985973354507088"><ele>715.4</ele><time>2026-03-29T09:05:15Z</time></trkpt><trkpt lat="43.38070269908313" lon="11.986107721965354"><ele>717.8</ele><time>2026-03-29T09:05:17Z</time></trkpt><trkpt lat="43.380789159879896" lon="11.986113108087752"><ele>720.2</ele><time>2026-03-29T09:05:18Z</time></trkpt><trkpt lat="43.3808559911239" lon="11.986110396853977"><ele>722.6</ele><time>2026-03-29T09:05:19Z</time></trkpt><trkpt lat="43.38091604377682" lon="11.986228773133002"><ele>725.0</ele><time>2026-03-29T09:05:21Z</time></trkpt><trkpt lat="43.38099984727635" lon="11.986353995537492"><ele>725.0</ele><time>2026-03-29T09:05:23Z</time></trkpt><trkpt lat="43.38106558205582" lon="11.986348490252624"><ele>725.0</ele><time>2026-03-29T09:05:24Z</time></trkpt><trkpt lat="43.38113865176413" lon="11.986313928669363"><ele>725.0</ele><time>2026-03-29T09:05:24.999Z</time></trkpt><trkpt lat="43.3812064534091" lon="11.986281889999292"><ele>725.0</ele><time>2026-03-29T09:05:25.999Z</time></trkpt><trkpt lat="43.38128723971317" lon="11.9862108434844"><ele>725.0</ele><time>2026-03-29T09:05:26.999Z</time></trkpt><trkpt lat="43.38135830005745" lon="11.98614459524549"><ele>725.0</ele><time>2026-03-29T09:05:27.999Z</time></trkpt><trkpt lat="43.381440569622775" lon="11.98611556147587"><ele>724.5</ele><time>2026-03-29T09:05:28.999Z</time></trkpt><trkpt lat="43.38151625649562" lon="11.986106971781972"><ele>724.0</ele><time>2026-03-29T09:05:29.999Z</time></trkpt><trkpt lat="43.38159260611322" lon="11.986117081317548"><ele>723.5</ele><time>2026-03-29T09:05:30.999Z</time></trkpt><trkpt lat="43.38166334534577" lon="11.986146867513991"><ele>723.0</ele><time>2026-03-29T09:05:31.999Z</time></trkpt><trkpt lat="43.38175920277265" lon="11.986095009198733"><ele>722.5</ele><time>2026-03-29T09:05:33.999Z</time></trkpt><trkpt lat="43.381818983865216" lon="11.986030617309247"><ele>722.0</ele><time>2026-03-29T09:05:34.999Z</time></trkpt><trkpt lat="43.38189488764284" lon="11.985990082061429"><ele>722.0</ele><time>2026-03-29T09:05:35.999Z</time></trkpt><trkpt lat="43.381978012954384" lon="11.985980528626929"><ele>722.0</ele><time>2026-03-29T09:05:36.999Z</time></trkpt><trkpt lat="43.38205164444224" lon="11.985972519247007"><ele>722.0</ele><time>2026-03-29T09:05:37.999Z</time></trkpt><trkpt lat="43.38216818034782" lon="11.985966856909316"><ele>722.0</ele><time>2026-03-29T09:05:39.999Z</time></trkpt><trkpt lat="43.38225568588353" lon="11.985834145221933"><ele>722.0</ele><time>2026-03-29T09:05:41.999Z</time></trkpt><trkpt lat="43.382305188664496" lon="11.985751021370502"><ele>720.2</ele><time>2026-03-29T09:05:42.999Z</time></trkpt><trkpt lat="43.38237034285896" lon="11.985666422697465"><ele>718.4000000000001</ele><time>2026-03-29T09:05:43.999Z</time></trkpt><trkpt lat="43.382462135805326" lon="11.985595251145186"><ele>716.5999999999999</ele><time>2026-03-29T09:05:44.999Z</time></trkpt><trkpt lat="43.382565692277915" lon="11.985543443053345"><ele>714.8</ele><time>2026-03-29T09:05:45.999Z</time></trkpt><trkpt lat="43.3826814417929" lon="11.985475363499592"><ele>713.0</ele><time>2026-03-29T09:05:46.999Z</time></trkpt><trkpt lat="43.382771894605376" lon="11.985409070320658"><ele>713.0</ele><time>2026-03-29T09:05:47.999Z</time></trkpt><trkpt lat="43.38284212658462" lon="11.98534268817111"><ele>713.0</ele><time>2026-03-29T09:05:48.999Z</time></trkpt><trkpt lat="43.38291391854614" lon="11.985296583408594"><ele>713.0</ele><time>2026-03-29T09:05:49.999Z</time></trkpt><trkpt lat="43.38297312896318" lon="11.98526171613422"><ele>713.0</ele><time>2026-03-29T09:05:50.999Z</time></trkpt><trkpt lat="43.38304242696425" lon="11.9852138830072"><ele>713.0</ele><time>2026-03-29T09:05:51.999Z</time></trkpt><trkpt lat="43.383109568725445" lon="11.985157315112534"><ele>713.0</ele><time>2026-03-29T09:05:52.999Z</time></trkpt><trkpt lat="43.38317925056082" lon="11.985142515226958"><ele>713.3333333333333</ele><time>2026-03-29T09:05:53.999Z</time></trkpt><trkpt lat="43.38326365915966" lon="11.985094126127889"><ele>713.6666666666666</ele><time>2026-03-29T09:05:54.999Z</time></trkpt><trkpt lat="43.383341718400445" lon="11.985010968017589"><ele>714.0</ele><time>2026-03-29T09:05:55.999Z</time></trkpt><trkpt lat="43.38342622573583" lon="11.984932165722828"><ele>714.3333333333334</ele><time>2026-03-29T09:05:56.999Z</time></trkpt><trkpt lat="43.38348343861794" lon="11.984851941101384"><ele>714.6666666666667</ele><time>2026-03-29T09:05:57.999Z</time></trkpt><trkpt lat="43.383544933" lon="11.984808811706722"><ele>715.0</ele><time>2026-03-29T09:05:58.999Z</time></trkpt><trkpt lat="43.38361088867264" lon="11.984804855489974"><ele>713.1666666666667</ele><time>2026-03-29T09:05:59.999Z</time></trkpt><trkpt lat="43.383726838257815" lon="11.984785253788125"><ele>711.3333333333334</ele><time>2026-03-29T09:06:01.999Z</time></trkpt><trkpt lat="43.38378389227132" lon="11.984735775646396"><ele>709.5</ele><time>2026-03-29T09:06:02.999Z</time></trkpt><trkpt lat="43.38383873172752" lon="11.984691812319053"><ele>707.6666666666666</ele><time>2026-03-29T09:06:03.999Z</time></trkpt><trkpt lat="43.38390969311528" lon="11.98464345620351"><ele>705.8333333333333</ele><time>2026-03-29T09:06:04.999Z</time></trkpt><trkpt lat="43.383982902624865" lon="11.984621138654452"><ele>704.0</ele><time>2026-03-29T09:06:05.999Z</time></trkpt><trkpt lat="43.38405399467194" lon="11.984593450888854"><ele>701.8000000000001</ele><time>2026-03-29T09:06:06.999Z</time></trkpt><trkpt lat="43.38412462994185" lon="11.984543173055352"><ele>699.6</ele><time>2026-03-29T09:06:07.999Z</time></trkpt><trkpt lat="43.38424562332279" lon="11.984450123746923"><ele>697.4</ele><time>2026-03-29T09:06:09.999Z</time></trkpt><trkpt lat="43.38430213694529" lon="11.984398213915883"><ele>695.2</ele><time>2026-03-29T09:06:10.999Z</time></trkpt><trkpt lat="43.38436089458361" lon="11.984315753450089"><ele>693.0</ele><time>2026-03-29T09:06:11.999Z</time></trkpt><trkpt lat="43.38440765444363" lon="11.984181544558165"><ele>691.25</ele><time>2026-03-29T09:06:12.999Z</time></trkpt><trkpt lat="43.384458707762704" lon="11.984011490469861"><ele>689.5</ele><time>2026-03-29T09:06:13.999Z</time></trkpt><trkpt lat="43.38451051079437" lon="11.983859014789235"><ele>687.75</ele><time>2026-03-29T09:06:14.999Z</time></trkpt><trkpt lat="43.38455696697392" lon="11.98371494667168"><ele>686.0</ele><time>2026-03-29T09:06:15.999Z</time></trkpt><trkpt lat="43.384589544973934" lon="11.983559037104996"><ele>686.0</ele><time>2026-03-29T09:06:16.999Z</time></trkpt><trkpt lat="43.38462645289676" lon="11.983409884850417"><ele>686.0</ele><time>2026-03-29T09:06:17.999Z</time></trkpt><trkpt lat="43.3846687761585" lon="11.98331187725326"><ele>686.0</ele><time>2026-03-29T09:06:18.999Z</time></trkpt><trkpt lat="43.384737577111025" lon="11.983259631279909"><ele>686.0</ele><time>2026-03-29T09:06:19.999Z</time></trkpt><trkpt lat="43.38481604294298" lon="11.983234160664255"><ele>686.0</ele><time>2026-03-29T09:06:20.999Z</time></trkpt><trkpt lat="43.38487952178093" lon="11.983199214343506"><ele>686.0</ele><time>2026-03-29T09:06:21.999Z</time></trkpt><trkpt lat="43.38494747479174" lon="11.983195780387106"><ele>686.0</ele><time>2026-03-29T09:06:22.999Z</time></trkpt><trkpt lat="43.38503645725766" lon="11.983189722588797"><ele>686.0</ele><time>2026-03-29T09:06:23.999Z</time></trkpt><trkpt lat="43.38509923427021" lon="11.983162961251901"><ele>686.0</ele><time>2026-03-29T09:06:24.999Z</time></trkpt><trkpt lat="43.3851787065866" lon="11.983141087004979"><ele>686.0</ele><time>2026-03-29T09:06:25.999Z</time></trkpt><trkpt lat="43.38525428262041" lon="11.983131302795808"><ele>686.0</ele><time>2026-03-29T09:06:26.999Z</time></trkpt><trkpt lat="43.38535186282533" lon="11.983122912524939"><ele>686.0</ele><time>2026-03-29T09:06:27.999Z</time></trkpt><trkpt lat="43.385449398894046" lon="11.983116557794242"><ele>687.4</ele><time>2026-03-29T09:06:28.998Z</time></trkpt><trkpt lat="43.38555968228211" lon="11.983104790526951"><ele>688.8</ele><time>2026-03-29T09:06:29.998Z</time></trkpt><trkpt lat="43.38566909723452" lon="11.98308814123698"><ele>690.1999999999999</ele><time>2026-03-29T09:06:30.998Z</time></trkpt><trkpt lat="43.385780566384106" lon="11.983079974371625"><ele>691.5999999999999</ele><time>2026-03-29T09:06:31.998Z</time></trkpt><trkpt lat="43.38587417498975" lon="11.983101156787075"><ele>693.0</ele><time>2026-03-29T09:06:32.998Z</time></trkpt><trkpt lat="43.385966044407766" lon="11.98315397611673"><ele>693.0</ele><time>2026-03-29T09:06:33.998Z</time></trkpt><trkpt lat="43.38602987874234" lon="11.983225385571897"><ele>693.0</ele><time>2026-03-29T09:06:34.998Z</time></trkpt><trkpt lat="43.386096036193365" lon="11.983251740904986"><ele>693.0</ele><time>2026-03-29T09:06:35.998Z</time></trkpt><trkpt lat="43.38617960867997" lon="11.983248960522848"><ele>693.0</ele><time>2026-03-29T09:06:36.998Z</time></trkpt><trkpt lat="43.386285945365316" lon="11.983232269125256"><ele>693.0</ele><time>2026-03-29T09:06:37.998Z</time></trkpt><trkpt lat="43.38635780040509" lon="11.983177590503733"><ele>693.0</ele><time>2026-03-29T09:06:38.998Z</time></trkpt><trkpt lat="43.38640873160072" lon="11.98308669591672"><ele>693.4</ele><time>2026-03-29T09:06:39.998Z</time></trkpt><trkpt lat="43.386440244198305" lon="11.982976700798359"><ele>693.8</ele><time>2026-03-29T09:06:40.998Z</time></trkpt><trkpt lat="43.38644998382893" lon="11.982846030668755"><ele>694.2</ele><time>2026-03-29T09:06:41.998Z</time></trkpt><trkpt lat="43.38645158656519" lon="11.982692583249195"><ele>694.6</ele><time>2026-03-29T09:06:43Z</time></trkpt><trkpt lat="43.38645842898576" lon="11.982546023735647"><ele>695.0</ele><time>2026-03-29T09:06:44Z</time></trkpt><trkpt lat="43.38648387301883" lon="11.982398339257701"><ele>697.0</ele><time>2026-03-29T09:06:45Z</time></trkpt><trkpt lat="43.38652845739137" lon="11.982267230133564"><ele>699.0</ele><time>2026-03-29T09:06:46Z</time></trkpt><trkpt lat="43.386572892150085" lon="11.982183397963642"><ele>701.0</ele><time>2026-03-29T09:06:47Z</time></trkpt><trkpt lat="43.3866511499732" lon="11.982130852762843"><ele>703.0</ele><time>2026-03-29T09:06:48Z</time></trkpt><trkpt lat="43.386758031371414" lon="11.982084291933456"><ele>705.0</ele><time>2026-03-29T09:06:49Z</time></trkpt><trkpt lat="43.38688136213812" lon="11.982024998442318"><ele>705.0</ele><time>2026-03-29T09:06:50Z</time></trkpt><trkpt lat="43.387009604744556" lon="11.981958140376214"><ele>705.0</ele><time>2026-03-29T09:06:51Z</time></trkpt><trkpt lat="43.38712237272124" lon="11.9818908434185"><ele>705.0</ele><time>2026-03-29T09:06:52Z</time></trkpt><trkpt lat="43.38721342141941" lon="11.981822227496705"><ele>705.0</ele><time>2026-03-29T09:06:53Z</time></trkpt><trkpt lat="43.38728588053944" lon="11.981746521142592"><ele>705.8333333333334</ele><time>2026-03-29T09:06:54Z</time></trkpt><trkpt lat="43.38735192345017" lon="11.981637337745607"><ele>706.6666666666666</ele><time>2026-03-29T09:06:55Z</time></trkpt><trkpt lat="43.38738178485047" lon="11.981534268394151"><ele>707.5</ele><time>2026-03-29T09:06:56Z</time></trkpt><trkpt lat="43.38736265335694" lon="11.981449677178508"><ele>708.3333333333333</ele><time>2026-03-29T09:06:57Z</time></trkpt><trkpt lat="43.38731679269275" lon="11.981360269733369"><ele>709.1666666666666</ele><time>2026-03-29T09:06:58Z</time></trkpt><trkpt lat="43.38725752007616" lon="11.981302966737129"><ele>710.0</ele><time>2026-03-29T09:06:59Z</time></trkpt><trkpt lat="43.387193987844206" lon="11.981236735611844"><ele>710.8</ele><time>2026-03-29T09:07:00Z</time></trkpt><trkpt lat="43.38714629794522" lon="11.981088473131594"><ele>711.6</ele><time>2026-03-29T09:07:02Z</time></trkpt><trkpt lat="43.387140406966246" lon="11.98093772355903"><ele>712.4000000000001</ele><time>2026-03-29T09:07:04Z</time></trkpt><trkpt lat="43.387055580541286" lon="11.980791324653305"><ele>713.2</ele><time>2026-03-29T09:07:06Z</time></trkpt><trkpt lat="43.387020853663095" lon="11.980717835223517"><ele>714.0</ele><time>2026-03-29T09:07:07Z</time></trkpt><trkpt lat="43.38696331465486" lon="11.980622996869124"><ele>714.6</ele><time>2026-03-29T09:07:09Z</time></trkpt><trkpt lat="43.38688701245694" lon="11.980555777773162"><ele>715.2</ele><time>2026-03-29T09:07:11Z</time></trkpt><trkpt lat="43.386788179309875" lon="11.980511868371009"><ele>715.8000000000001</ele><time>2026-03-29T09:07:13Z</time></trkpt><trkpt lat="43.38668191654524" lon="11.980512309061476"><ele>716.4000000000001</ele><time>2026-03-29T09:07:15Z</time></trkpt><trkpt lat="43.386659967354" lon="11.980406705891307"><ele>717.0</ele><time>2026-03-29T09:07:17Z</time></trkpt><trkpt lat="43.386724703591995" lon="11.980272583184838"><ele>717.0</ele><time>2026-03-29T09:07:19Z</time></trkpt><trkpt lat="43.38679166081568" lon="11.980186075268847"><ele>717.0</ele><time>2026-03-29T09:07:20Z</time></trkpt><trkpt lat="43.38686422780784" lon="11.980111990471913"><ele>717.0</ele><time>2026-03-29T09:07:21Z</time></trkpt><trkpt lat="43.38694848825429" lon="11.980024189171754"><ele>717.0</ele><time>2026-03-29T09:07:22Z</time></trkpt><trkpt lat="43.387022601182906" lon="11.979922289699314"><ele>717.0</ele><time>2026-03-29T09:07:23Z</time></trkpt><trkpt lat="43.38707203120252" lon="11.979810244300044"><ele>715.4000000000001</ele><time>2026-03-29T09:07:24Z</time></trkpt><trkpt lat="43.387087340312554" lon="11.979691157764309"><ele>713.8000000000001</ele><time>2026-03-29T09:07:25Z</time></trkpt><trkpt lat="43.3870783391527" lon="11.97955716750198"><ele>712.2</ele><time>2026-03-29T09:07:26Z</time></trkpt><trkpt lat="43.3870567957196" lon="11.979411691633045"><ele>710.6</ele><time>2026-03-29T09:07:27Z</time></trkpt><trkpt lat="43.38703257541192" lon="11.979265328725614"><ele>709.0</ele><time>2026-03-29T09:07:28Z</time></trkpt><trkpt lat="43.38702348338736" lon="11.979134946244656"><ele>711.4000000000001</ele><time>2026-03-29T09:07:29Z</time></trkpt><trkpt lat="43.387042296248396" lon="11.979022441070997"><ele>713.8</ele><time>2026-03-29T09:07:29.999Z</time></trkpt><trkpt lat="43.38707890972067" lon="11.978911718142664"><ele>716.2</ele><time>2026-03-29T09:07:30.999Z</time></trkpt><trkpt lat="43.387139173180564" lon="11.978817251767007"><ele>718.5999999999999</ele><time>2026-03-29T09:07:31.999Z</time></trkpt><trkpt lat="43.387210853249094" lon="11.978726447049926"><ele>721.0</ele><time>2026-03-29T09:07:32.999Z</time></trkpt><trkpt lat="43.38728913800251" lon="11.978631251046957"><ele>721.0</ele><time>2026-03-29T09:07:33.999Z</time></trkpt><trkpt lat="43.38736569310038" lon="11.978527448200442"><ele>721.0</ele><time>2026-03-29T09:07:34.999Z</time></trkpt><trkpt lat="43.38744555053212" lon="11.978403254453553"><ele>721.0</ele><time>2026-03-29T09:07:35.999Z</time></trkpt><trkpt lat="43.3875500342103" lon="11.978263442785329"><ele>721.0</ele><time>2026-03-29T09:07:36.999Z</time></trkpt><trkpt lat="43.38762763313559" lon="11.978143941414118"><ele>718.1999999999999</ele><time>2026-03-29T09:07:37.999Z</time></trkpt><trkpt lat="43.38769844787129" lon="11.978039675197296"><ele>715.4</ele><time>2026-03-29T09:07:38.999Z</time></trkpt><trkpt lat="43.387754947923476" lon="11.97794399855378"><ele>712.6</ele><time>2026-03-29T09:07:39.999Z</time></trkpt><trkpt lat="43.387792389486414" lon="11.977834329887296"><ele>709.8</ele><time>2026-03-29T09:07:40.999Z</time></trkpt><trkpt lat="43.38779054977609" lon="11.977712149522146"><ele>707.0</ele><time>2026-03-29T09:07:41.999Z</time></trkpt><trkpt lat="43.38775886872445" lon="11.977579366933304"><ele>706.1666666666666</ele><time>2026-03-29T09:07:42.999Z</time></trkpt><trkpt lat="43.38769556339531" lon="11.977481346669036"><ele>705.3333333333333</ele><time>2026-03-29T09:07:43.999Z</time></trkpt><trkpt lat="43.387637846347715" lon="11.977374355943008"><ele>704.5</ele><time>2026-03-29T09:07:44.999Z</time></trkpt><trkpt lat="43.38760679063797" lon="11.97727000910502"><ele>703.6666666666666</ele><time>2026-03-29T09:07:45.999Z</time></trkpt><trkpt lat="43.387606063450335" lon="11.977176025182874"><ele>702.8333333333334</ele><time>2026-03-29T09:07:46.999Z</time></trkpt><trkpt lat="43.387643866235344" lon="11.977099017024607"><ele>702.0</ele><time>2026-03-29T09:07:47.999Z</time></trkpt><trkpt lat="43.387706200621714" lon="11.977015102459962"><ele>702.0</ele><time>2026-03-29T09:07:48.999Z</time></trkpt><trkpt lat="43.387785762960185" lon="11.976954424971703"><ele>702.0</ele><time>2026-03-29T09:07:49.999Z</time></trkpt><trkpt lat="43.38787405665053" lon="11.97689011549409"><ele>702.0</ele><time>2026-03-29T09:07:50.999Z</time></trkpt><trkpt lat="43.387967681581145" lon="11.976821947547286"><ele>702.0</ele><time>2026-03-29T09:07:51.999Z</time></trkpt><trkpt lat="43.38807382211028" lon="11.976754597670123"><ele>702.0</ele><time>2026-03-29T09:07:52.999Z</time></trkpt><trkpt lat="43.38816735560202" lon="11.976689819683177"><ele>703.4000000000001</ele><time>2026-03-29T09:07:53.999Z</time></trkpt><trkpt lat="43.38824696183821" lon="11.976629135766839"><ele>704.8000000000001</ele><time>2026-03-29T09:07:54.999Z</time></trkpt><trkpt lat="43.38832668591906" lon="11.97656996416016"><ele>706.2</ele><time>2026-03-29T09:07:55.999Z</time></trkpt><trkpt lat="43.38840896158661" lon="11.976513377165567"><ele>707.6</ele><time>2026-03-29T09:07:56.999Z</time></trkpt><trkpt lat="43.38849431755717" lon="11.976452580108496"><ele>709.0</ele><time>2026-03-29T09:07:57.999Z</time></trkpt><trkpt lat="43.38857543439895" lon="11.97639255604884"><ele>709.0</ele><time>2026-03-29T09:07:58.999Z</time></trkpt><trkpt lat="43.388665420572636" lon="11.976355220022164"><ele>709.0</ele><time>2026-03-29T09:07:59.999Z</time></trkpt><trkpt lat="43.38876436111358" lon="11.97633954853673"><ele>709.0</ele><time>2026-03-29T09:08:00.999Z</time></trkpt><trkpt lat="43.38886251550922" lon="11.976330381827081"><ele>709.0</ele><time>2026-03-29T09:08:01.999Z</time></trkpt><trkpt lat="43.388971733962926" lon="11.976321234235497"><ele>709.0</ele><time>2026-03-29T09:08:02.999Z</time></trkpt><trkpt lat="43.389078922689066" lon="11.976308202998846"><ele>711.0</ele><time>2026-03-29T09:08:03.999Z</time></trkpt><trkpt lat="43.38917731436029" lon="11.976271433196054"><ele>713.0</ele><time>2026-03-29T09:08:04.999Z</time></trkpt><trkpt lat="43.389268262942295" lon="11.976202351298253"><ele>715.0</ele><time>2026-03-29T09:08:05.999Z</time></trkpt><trkpt lat="43.38936416134914" lon="11.976094775789058"><ele>717.0</ele><time>2026-03-29T09:08:06.999Z</time></trkpt><trkpt lat="43.389456679593614" lon="11.975961311875698"><ele>715.5</ele><time>2026-03-29T09:08:07.999Z</time></trkpt><trkpt lat="43.38955359809067" lon="11.975836356571454"><ele>714.0</ele><time>2026-03-29T09:08:08.999Z</time></trkpt><trkpt lat="43.389648402111966" lon="11.975746062677297"><ele>712.5</ele><time>2026-03-29T09:08:09.999Z</time></trkpt><trkpt lat="43.38975007347342" lon="11.975694907334956"><ele>711.0</ele><time>2026-03-29T09:08:10.999Z</time></trkpt><trkpt lat="43.38985621747283" lon="11.975659999972834"><ele>711.0</ele><time>2026-03-29T09:08:11.999Z</time></trkpt><trkpt lat="43.38996587241911" lon="11.975649778498466"><ele>711.0</ele><time>2026-03-29T09:08:12.999Z</time></trkpt><trkpt lat="43.39008141832313" lon="11.975657481253572"><ele>711.0</ele><time>2026-03-29T09:08:13.999Z</time></trkpt><trkpt lat="43.39019512292446" lon="11.975654176224912"><ele>711.0</ele><time>2026-03-29T09:08:14.999Z</time></trkpt><trkpt lat="43.39030800811757" lon="11.975617833522707"><ele>711.0</ele><time>2026-03-29T09:08:15.999Z</time></trkpt><trkpt lat="43.39041906915399" lon="11.975545601324301"><ele>711.0</ele><time>2026-03-29T09:08:16.999Z</time></trkpt><trkpt lat="43.390520564829416" lon="11.975443261392256"><ele>711.0</ele><time>2026-03-29T09:08:17.999Z</time></trkpt><trkpt lat="43.390598624728575" lon="11.975295879182445"><ele>711.0</ele><time>2026-03-29T09:08:18.999Z</time></trkpt><trkpt lat="43.39065710625528" lon="11.975145029279668"><ele>711.4</ele><time>2026-03-29T09:08:19.999Z</time></trkpt><trkpt lat="43.39069367654094" lon="11.975005323819001"><ele>711.8</ele><time>2026-03-29T09:08:20.999Z</time></trkpt><trkpt lat="43.39073792735227" lon="11.974860191055333"><ele>712.1999999999999</ele><time>2026-03-29T09:08:21.999Z</time></trkpt><trkpt lat="43.39078498125895" lon="11.974727833778774"><ele>712.5999999999999</ele><time>2026-03-29T09:08:22.999Z</time></trkpt><trkpt lat="43.39082969637688" lon="11.974599459335453"><ele>713.0</ele><time>2026-03-29T09:08:23.999Z</time></trkpt><trkpt lat="43.39086720228816" lon="11.974452647039092"><ele>713.0</ele><time>2026-03-29T09:08:24.999Z</time></trkpt><trkpt lat="43.39090431841238" lon="11.974323344580483"><ele>713.0</ele><time>2026-03-29T09:08:25.999Z</time></trkpt><trkpt lat="43.39095585802423" lon="11.974195527658937"><ele>713.0</ele><time>2026-03-29T09:08:26.999Z</time></trkpt><trkpt lat="43.39103060075837" lon="11.974081067603954"><ele>713.0</ele><time>2026-03-29T09:08:27.999Z</time></trkpt><trkpt lat="43.39110893178185" lon="11.973982512794565"><ele>713.0</ele><time>2026-03-29T09:08:28.999Z</time></trkpt><trkpt lat="43.39117225730546" lon="11.973888799299955"><ele>709.75</ele><time>2026-03-29T09:08:29.999Z</time></trkpt><trkpt lat="43.39121435241464" lon="11.97375698343898"><ele>706.5</ele><time>2026-03-29T09:08:30.999Z</time></trkpt><trkpt lat="43.39123693063691" lon="11.973600191831993"><ele>703.25</ele><time>2026-03-29T09:08:31.999Z</time></trkpt><trkpt lat="43.3912467568029" lon="11.973422765551472"><ele>700.0</ele><time>2026-03-29T09:08:32.999Z</time></trkpt><trkpt lat="43.391251959111116" lon="11.973253118281121"><ele>697.6</ele><time>2026-03-29T09:08:33.998Z</time></trkpt><trkpt lat="43.39126686314354" lon="11.97309942033083"><ele>695.2</ele><time>2026-03-29T09:08:34.998Z</time></trkpt><trkpt lat="43.39131079326735" lon="11.972952920393896"><ele>692.8</ele><time>2026-03-29T09:08:35.998Z</time></trkpt><trkpt lat="43.39138445282892" lon="11.97284588082862"><ele>690.4</ele><time>2026-03-29T09:08:36.998Z</time></trkpt><trkpt lat="43.3914808623231" lon="11.97278187501597"><ele>688.0</ele><time>2026-03-29T09:08:37.998Z</time></trkpt><trkpt lat="43.3915781038118" lon="11.972716292774376"><ele>691.25</ele><time>2026-03-29T09:08:38.998Z</time></trkpt><trkpt lat="43.39164363651643" lon="11.972614083900945"><ele>694.5</ele><time>2026-03-29T09:08:39.998Z</time></trkpt><trkpt lat="43.39168109582581" lon="11.972470595313881"><ele>697.75</ele><time>2026-03-29T09:08:40.998Z</time></trkpt><trkpt lat="43.39171236135974" lon="11.972316670974887"><ele>701.0</ele><time>2026-03-29T09:08:41.998Z</time></trkpt><trkpt lat="43.391718835691506" lon="11.972140472685942"><ele>701.0</ele><time>2026-03-29T09:08:42.998Z</time></trkpt><trkpt lat="43.39172185495289" lon="11.971977190359548"><ele>701.0</ele><time>2026-03-29T09:08:43.998Z</time></trkpt><trkpt lat="43.391746283041016" lon="11.971848483538523"><ele>701.0</ele><time>2026-03-29T09:08:44.998Z</time></trkpt><trkpt lat="43.391790804081445" lon="11.971725380692314"><ele>701.0</ele><time>2026-03-29T09:08:45.998Z</time></trkpt><trkpt lat="43.3918498437116" lon="11.971623515995372"><ele>701.0</ele><time>2026-03-29T09:08:46.998Z</time></trkpt><trkpt lat="43.39190804051466" lon="11.97153748911347"><ele>702.5</ele><time>2026-03-29T09:08:47.998Z</time></trkpt><trkpt lat="43.39196047481991" lon="11.971460703986802"><ele>704.0</ele><time>2026-03-29T09:08:49Z</time></trkpt><trkpt lat="43.39201153874627" lon="11.971383593812947"><ele>705.5</ele><time>2026-03-29T09:08:50Z</time></trkpt><trkpt lat="43.39207296013272" lon="11.971301074042913"><ele>707.0</ele><time>2026-03-29T09:08:51Z</time></trkpt><trkpt lat="43.39214283412748" lon="11.971217244619003"><ele>708.5</ele><time>2026-03-29T09:08:52Z</time></trkpt><trkpt lat="43.39221413987813" lon="11.971138707900176"><ele>710.0</ele><time>2026-03-29T09:08:53Z</time></trkpt><trkpt lat="43.392275291167195" lon="11.97107128773673"><ele>710.0</ele><time>2026-03-29T09:08:54Z</time></trkpt><trkpt lat="43.39233490874528" lon="11.971008083472649"><ele>710.0</ele><time>2026-03-29T09:08:55Z</time></trkpt><trkpt lat="43.39239222225887" lon="11.970939107060097"><ele>710.0</ele><time>2026-03-29T09:08:56Z</time></trkpt><trkpt lat="43.39244565996738" lon="11.970878694464997"><ele>710.0</ele><time>2026-03-29T09:08:57Z</time></trkpt><trkpt lat="43.39248953869781" lon="11.970809893836432"><ele>710.0</ele><time>2026-03-29T09:08:58Z</time></trkpt><trkpt lat="43.39257311462741" lon="11.970709812424028"><ele>710.0</ele><time>2026-03-29T09:09:00Z</time></trkpt><trkpt lat="43.39266040770531" lon="11.970617144172508"><ele>706.2</ele><time>2026-03-29T09:09:02Z</time></trkpt><trkpt lat="43.3927296165714" lon="11.97053886926346"><ele>702.4</ele><time>2026-03-29T09:09:04Z</time></trkpt><trkpt lat="43.392717714324355" lon="11.970448639619018"><ele>698.5999999999999</ele><time>2026-03-29T09:09:07Z</time></trkpt><trkpt lat="43.392626023504974" lon="11.970390786610281"><ele>694.8</ele><time>2026-03-29T09:09:26Z</time></trkpt><trkpt lat="43.39251313515576" lon="11.970316076675063"><ele>691.0</ele><time>2026-03-29T09:09:28Z</time></trkpt><trkpt lat="43.39243545933595" lon="11.970198609240498"><ele>690.9999999999999</ele><time>2026-03-29T09:09:30Z</time></trkpt><trkpt lat="43.392405180604264" lon="11.970115738229879"><ele>691.0</ele><time>2026-03-29T09:09:31Z</time></trkpt><trkpt lat="43.392368453375546" lon="11.97001809112208"><ele>691.0</ele><time>2026-03-29T09:09:32Z</time></trkpt><trkpt lat="43.39233339173366" lon="11.969932064671712"><ele>691.0</ele><time>2026-03-29T09:09:33Z</time></trkpt><trkpt lat="43.39229248718953" lon="11.96984914926593"><ele>691.0</ele><time>2026-03-29T09:09:34Z</time></trkpt><trkpt lat="43.392248638193074" lon="11.969772000206618"><ele>690.9999999999999</ele><time>2026-03-29T09:09:35Z</time></trkpt><trkpt lat="43.39220840436421" lon="11.969697971072755"><ele>691.0</ele><time>2026-03-29T09:09:36Z</time></trkpt><trkpt lat="43.392159838192654" lon="11.969608663551437"><ele>687.0</ele><time>2026-03-29T09:09:36.999Z</time></trkpt><trkpt lat="43.39209570643336" lon="11.969520562651772"><ele>683.0</ele><time>2026-03-29T09:09:37.999Z</time></trkpt><trkpt lat="43.392012594254815" lon="11.969423601036329"><ele>679.0</ele><time>2026-03-29T09:09:38.999Z</time></trkpt><trkpt lat="43.39191793740223" lon="11.969314189426214"><ele>675.0</ele><time>2026-03-29T09:09:39.999Z</time></trkpt><trkpt lat="43.39183529356619" lon="11.969257608491516"><ele>671.0</ele><time>2026-03-29T09:09:40.999Z</time></trkpt><trkpt lat="43.391733245657775" lon="11.969220818288512"><ele>671.0</ele><time>2026-03-29T09:09:41.999Z</time></trkpt><trkpt lat="43.39161573118919" lon="11.969200519857266"><ele>671.0</ele><time>2026-03-29T09:09:42.999Z</time></trkpt><trkpt lat="43.39149785068381" lon="11.969176183121887"><ele>671.0</ele><time>2026-03-29T09:09:43.999Z</time></trkpt><trkpt lat="43.391385916309325" lon="11.969151992476892"><ele>671.0</ele><time>2026-03-29T09:09:44.999Z</time></trkpt><trkpt lat="43.391291213834755" lon="11.969122979101863"><ele>671.0</ele><time>2026-03-29T09:09:45.999Z</time></trkpt><trkpt lat="43.39119857781314" lon="11.969075804557525"><ele>670.8333333333333</ele><time>2026-03-29T09:09:46.999Z</time></trkpt><trkpt lat="43.39111196424398" lon="11.969020573560874"><ele>670.6666666666666</ele><time>2026-03-29T09:09:47.999Z</time></trkpt><trkpt lat="43.39103853817252" lon="11.968978713805454"><ele>670.5</ele><time>2026-03-29T09:09:48.999Z</time></trkpt><trkpt lat="43.39095525793919" lon="11.968911296041153"><ele>670.3333333333334</ele><time>2026-03-29T09:09:49.999Z</time></trkpt><trkpt lat="43.39089088077232" lon="11.968868791229342"><ele>670.1666666666667</ele><time>2026-03-29T09:09:50.999Z</time></trkpt><trkpt lat="43.3908271195605" lon="11.968852301555893"><ele>670.0</ele><time>2026-03-29T09:09:51.999Z</time></trkpt><trkpt lat="43.39076125989181" lon="11.968816658645144"><ele>670.0</ele><time>2026-03-29T09:09:52.999Z</time></trkpt><trkpt lat="43.39069203630586" lon="11.968726320691411"><ele>670.0</ele><time>2026-03-29T09:09:53.999Z</time></trkpt><trkpt lat="43.39062368294908" lon="11.9686391631851"><ele>670.0</ele><time>2026-03-29T09:09:54.999Z</time></trkpt><trkpt lat="43.39058893187081" lon="11.96855371960043"><ele>670.0</ele><time>2026-03-29T09:09:55.999Z</time></trkpt><trkpt lat="43.390469769814764" lon="11.968553646358034"><ele>670.0</ele><time>2026-03-29T09:09:57.999Z</time></trkpt><trkpt lat="43.39038332024773" lon="11.968572768735063"><ele>672.75</ele><time>2026-03-29T09:09:58.999Z</time></trkpt><trkpt lat="43.39028198782798" lon="11.968524161599875"><ele>675.5</ele><time>2026-03-29T09:09:59.999Z</time></trkpt><trkpt lat="43.390176339599684" lon="11.968431572829648"><ele>678.25</ele><time>2026-03-29T09:10:00.999Z</time></trkpt><trkpt lat="43.390067863860324" lon="11.96834415959324"><ele>681.0</ele><time>2026-03-29T09:10:01.999Z</time></trkpt><trkpt lat="43.38994412321129" lon="11.968277017821237"><ele>681.0</ele><time>2026-03-29T09:10:02.999Z</time></trkpt><trkpt lat="43.38984357778782" lon="11.968244388375245"><ele>681.0</ele><time>2026-03-29T09:10:03.999Z</time></trkpt><trkpt lat="43.389752151394816" lon="11.96817673069006"><ele>681.0</ele><time>2026-03-29T09:10:04.999Z</time></trkpt><trkpt lat="43.389648453473484" lon="11.968124493451"><ele>681.0</ele><time>2026-03-29T09:10:05.999Z</time></trkpt><trkpt lat="43.38954239567012" lon="11.9680458835562"><ele>681.0</ele><time>2026-03-29T09:10:06.999Z</time></trkpt><trkpt lat="43.38942999279042" lon="11.967977480322876"><ele>681.6666666666666</ele><time>2026-03-29T09:10:07.999Z</time></trkpt><trkpt lat="43.38932834245002" lon="11.967931819763923"><ele>682.3333333333334</ele><time>2026-03-29T09:10:08.999Z</time></trkpt><trkpt lat="43.38925076959835" lon="11.967904174201662"><ele>683.0</ele><time>2026-03-29T09:10:09.999Z</time></trkpt><trkpt lat="43.389174062708726" lon="11.967874910753334"><ele>683.6666666666667</ele><time>2026-03-29T09:10:10.999Z</time></trkpt><trkpt lat="43.38909776478014" lon="11.967822301644"><ele>684.3333333333334</ele><time>2026-03-29T09:10:11.999Z</time></trkpt><trkpt lat="43.38902506027594" lon="11.967746437526538"><ele>685.0</ele><time>2026-03-29T09:10:12.999Z</time></trkpt><trkpt lat="43.388957979858674" lon="11.967665298155245"><ele>685.0</ele><time>2026-03-29T09:10:13.999Z</time></trkpt><trkpt lat="43.38889516418855" lon="11.96760414285281"><ele>685.0</ele><time>2026-03-29T09:10:14.999Z</time></trkpt><trkpt lat="43.388813381860444" lon="11.967573704930098"><ele>685.0</ele><time>2026-03-29T09:10:15.999Z</time></trkpt><trkpt lat="43.388717098853455" lon="11.967592772201387"><ele>685.0</ele><time>2026-03-29T09:10:16.999Z</time></trkpt><trkpt lat="43.38861014794784" lon="11.967632204120306"><ele>685.0</ele><time>2026-03-29T09:10:17.999Z</time></trkpt><trkpt lat="43.38850830856211" lon="11.967649258925032"><ele>683.6</ele><time>2026-03-29T09:10:18.999Z</time></trkpt><trkpt lat="43.388404543384276" lon="11.96765022056761"><ele>682.2</ele><time>2026-03-29T09:10:19.999Z</time></trkpt><trkpt lat="43.38831836194387" lon="11.967652049214133"><ele>680.8</ele><time>2026-03-29T09:10:20.999Z</time></trkpt><trkpt lat="43.388229442754245" lon="11.967616853625575"><ele>679.4</ele><time>2026-03-29T09:10:21.999Z</time></trkpt><trkpt lat="43.38813596427395" lon="11.967553025487259"><ele>678.0</ele><time>2026-03-29T09:10:22.999Z</time></trkpt><trkpt lat="43.38803833912714" lon="11.967486005811681"><ele>680.5</ele><time>2026-03-29T09:10:23.999Z</time></trkpt><trkpt lat="43.38793133236338" lon="11.967399013571384"><ele>683.0</ele><time>2026-03-29T09:10:24.999Z</time></trkpt><trkpt lat="43.38783221164459" lon="11.967336902623975"><ele>685.5</ele><time>2026-03-29T09:10:25.999Z</time></trkpt><trkpt lat="43.387723480733705" lon="11.967261631164785"><ele>688.0</ele><time>2026-03-29T09:10:26.999Z</time></trkpt><trkpt lat="43.38762044291239" lon="11.967185554931353"><ele>688.0</ele><time>2026-03-29T09:10:27.999Z</time></trkpt><trkpt lat="43.387532680369986" lon="11.96708483694197"><ele>688.0</ele><time>2026-03-29T09:10:28.999Z</time></trkpt><trkpt lat="43.38744399392877" lon="11.96697696583349"><ele>688.0</ele><time>2026-03-29T09:10:29.999Z</time></trkpt><trkpt lat="43.387362171449986" lon="11.966867177247877"><ele>688.0</ele><time>2026-03-29T09:10:30.999Z</time></trkpt><trkpt lat="43.38729126794293" lon="11.966775778560907"><ele>688.0</ele><time>2026-03-29T09:10:31.999Z</time></trkpt><trkpt lat="43.387228333789814" lon="11.96670098094907"><ele>687.5</ele><time>2026-03-29T09:10:32.999Z</time></trkpt><trkpt lat="43.38715196857134" lon="11.96665333336209"><ele>687.0</ele><time>2026-03-29T09:10:33.999Z</time></trkpt><trkpt lat="43.38706906072813" lon="11.966589766254128"><ele>686.5</ele><time>2026-03-29T09:10:34.999Z</time></trkpt><trkpt lat="43.38697937968482" lon="11.966524634923108"><ele>686.0</ele><time>2026-03-29T09:10:35.999Z</time></trkpt><trkpt lat="43.386907783364315" lon="11.966460786702733"><ele>685.5</ele><time>2026-03-29T09:10:36.999Z</time></trkpt><trkpt lat="43.3868522079505" lon="11.966387837478711"><ele>685.0</ele><time>2026-03-29T09:10:37.999Z</time></trkpt><trkpt lat="43.386841539384356" lon="11.966214064937784"><ele>685.0</ele><time>2026-03-29T09:10:39.999Z</time></trkpt><trkpt lat="43.386828982503815" lon="11.966128192825135"><ele>685.0</ele><time>2026-03-29T09:10:40.998Z</time></trkpt><trkpt lat="43.386763052955935" lon="11.966015765489606"><ele>685.0</ele><time>2026-03-29T09:10:41.998Z</time></trkpt><trkpt lat="43.386687250617406" lon="11.965933402196882"><ele>685.0</ele><time>2026-03-29T09:10:42.998Z</time></trkpt><trkpt lat="43.38661437780873" lon="11.96581554113536"><ele>685.0</ele><time>2026-03-29T09:10:43.998Z</time></trkpt><trkpt lat="43.386548456348386" lon="11.965751134234539"><ele>684.8</ele><time>2026-03-29T09:10:44.998Z</time></trkpt><trkpt lat="43.38648183320706" lon="11.965705129538895"><ele>684.6</ele><time>2026-03-29T09:10:45.998Z</time></trkpt><trkpt lat="43.38638286882261" lon="11.96560352186863"><ele>684.4000000000001</ele><time>2026-03-29T09:10:47.998Z</time></trkpt><trkpt lat="43.386316086157905" lon="11.965600740910737"><ele>684.2</ele><time>2026-03-29T09:10:48.998Z</time></trkpt><trkpt lat="43.38623018223279" lon="11.965613397549806"><ele>684.0</ele><time>2026-03-29T09:10:49.998Z</time></trkpt><trkpt lat="43.3861249463316" lon="11.965658085176868"><ele>684.0</ele><time>2026-03-29T09:10:50.998Z</time></trkpt><trkpt lat="43.38601256360812" lon="11.965705701861292"><ele>684.0</ele><time>2026-03-29T09:10:51.998Z</time></trkpt><trkpt lat="43.38590882067186" lon="11.96574589031571"><ele>684.0</ele><time>2026-03-29T09:10:52.998Z</time></trkpt><trkpt lat="43.385808150979365" lon="11.965772563185403"><ele>684.0</ele><time>2026-03-29T09:10:53.998Z</time></trkpt><trkpt lat="43.385715286460396" lon="11.965787824874454"><ele>684.0</ele><time>2026-03-29T09:10:55Z</time></trkpt><trkpt lat="43.38561397760256" lon="11.965804091742742"><ele>684.0</ele><time>2026-03-29T09:10:56Z</time></trkpt><trkpt lat="43.38552260968739" lon="11.965812203285726"><ele>684.0</ele><time>2026-03-29T09:10:57Z</time></trkpt><trkpt lat="43.38543383433286" lon="11.965802705524615"><ele>684.0</ele><time>2026-03-29T09:10:58Z</time></trkpt><trkpt lat="43.38535355704564" lon="11.96580549461574"><ele>684.0</ele><time>2026-03-29T09:10:59Z</time></trkpt><trkpt lat="43.38526574235" lon="11.965822746968097"><ele>684.0</ele><time>2026-03-29T09:11:00Z</time></trkpt><trkpt lat="43.38518651774067" lon="11.965820529014465"><ele>684.0</ele><time>2026-03-29T09:11:01Z</time></trkpt><trkpt lat="43.385105755923604" lon="11.96578800040052"><ele>682.8000000000001</ele><time>2026-03-29T09:11:02Z</time></trkpt><trkpt lat="43.38500620942808" lon="11.965714397068556"><ele>681.6</ele><time>2026-03-29T09:11:03Z</time></trkpt><trkpt lat="43.38492901862712" lon="11.965644554558349"><ele>680.4</ele><time>2026-03-29T09:11:04Z</time></trkpt><trkpt lat="43.3848726774301" lon="11.965598068772104"><ele>679.2</ele><time>2026-03-29T09:11:05Z</time></trkpt><trkpt lat="43.38481288027157" lon="11.965476330759488"><ele>678.0</ele><time>2026-03-29T09:11:07Z</time></trkpt><trkpt lat="43.38473572987264" lon="11.965563659943246"><ele>678.0</ele><time>2026-03-29T09:11:09Z</time></trkpt><trkpt lat="43.38473591127648" lon="11.965668313137419"><ele>678.0</ele><time>2026-03-29T09:11:10Z</time></trkpt><trkpt lat="43.38475212231971" lon="11.96582843075906"><ele>678.0</ele><time>2026-03-29T09:11:11Z</time></trkpt><trkpt lat="43.384789773503456" lon="11.965938634796226"><ele>678.0</ele><time>2026-03-29T09:11:12Z</time></trkpt><trkpt lat="43.384830393686435" lon="11.966012624678754"><ele>678.0</ele><time>2026-03-29T09:11:13Z</time></trkpt><trkpt lat="43.3848904969232" lon="11.96608518731785"><ele>678.0</ele><time>2026-03-29T09:11:14Z</time></trkpt><trkpt lat="43.38496135309114" lon="11.966189310815631"><ele>675.5999999999999</ele><time>2026-03-29T09:11:16Z</time></trkpt><trkpt lat="43.38500037982179" lon="11.966332076442807"><ele>673.1999999999999</ele><time>2026-03-29T09:11:18Z</time></trkpt><trkpt lat="43.38508970933987" lon="11.966420068961105"><ele>670.8</ele><time>2026-03-29T09:11:20Z</time></trkpt><trkpt lat="43.385055422257075" lon="11.966533445074734"><ele>668.4</ele><time>2026-03-29T09:11:23Z</time></trkpt><trkpt lat="43.38494027911351" lon="11.966524416599768"><ele>666.0</ele><time>2026-03-29T09:11:25Z</time></trkpt><trkpt lat="43.384858155130594" lon="11.966503980164692"><ele>666.0</ele><time>2026-03-29T09:11:26Z</time></trkpt><trkpt lat="43.384782740484674" lon="11.966494615463217"><ele>666.0</ele><time>2026-03-29T09:11:27Z</time></trkpt><trkpt lat="43.38471748167864" lon="11.966469496758656"><ele>666.0</ele><time>2026-03-29T09:11:28Z</time></trkpt><trkpt lat="43.38465842897441" lon="11.966438765892947"><ele>666.0</ele><time>2026-03-29T09:11:29Z</time></trkpt><trkpt lat="43.38459161544889" lon="11.966404959930026"><ele>666.0</ele><time>2026-03-29T09:11:30Z</time></trkpt><trkpt lat="43.38452413163849" lon="11.96637564986441"><ele>666.0</ele><time>2026-03-29T09:11:31Z</time></trkpt><trkpt lat="43.384453242396496" lon="11.966325511325667"><ele>666.0</ele><time>2026-03-29T09:11:32Z</time></trkpt><trkpt lat="43.38438123094279" lon="11.966271063456094"><ele>664.8571428571429</ele><time>2026-03-29T09:11:33Z</time></trkpt><trkpt lat="43.38431126535875" lon="11.96621214169439"><ele>663.7142857142857</ele><time>2026-03-29T09:11:34Z</time></trkpt><trkpt lat="43.38424895214137" lon="11.966143561051899"><ele>662.5714285714286</ele><time>2026-03-29T09:11:35Z</time></trkpt><trkpt lat="43.38420861229338" lon="11.966068795096643"><ele>661.4285714285714</ele><time>2026-03-29T09:11:36Z</time></trkpt><trkpt lat="43.384174576913" lon="11.965989613889851"><ele>660.2857142857142</ele><time>2026-03-29T09:11:37Z</time></trkpt><trkpt lat="43.38414065262009" lon="11.96590573357686"><ele>659.1428571428571</ele><time>2026-03-29T09:11:38Z</time></trkpt><trkpt lat="43.384111674981476" lon="11.965824784563512"><ele>658.0</ele><time>2026-03-29T09:11:39Z</time></trkpt><trkpt lat="43.384075757996676" lon="11.965729066682615"><ele>658.0</ele><time>2026-03-29T09:11:40Z</time></trkpt><trkpt lat="43.384055508388194" lon="11.965619488709972"><ele>658.0</ele><time>2026-03-29T09:11:40.999Z</time></trkpt><trkpt lat="43.38400576570781" lon="11.965564839027753"><ele>658.0</ele><time>2026-03-29T09:11:41.999Z</time></trkpt><trkpt lat="43.383917530527455" lon="11.965470478750436"><ele>658.0</ele><time>2026-03-29T09:11:43.999Z</time></trkpt><trkpt lat="43.383900109320784" lon="11.965377062578733"><ele>658.0</ele><time>2026-03-29T09:11:44.999Z</time></trkpt><trkpt lat="43.383877143751754" lon="11.965256504395313"><ele>658.0</ele><time>2026-03-29T09:11:45.999Z</time></trkpt><trkpt lat="43.38386239692036" lon="11.965127196384998"><ele>657.3333333333334</ele><time>2026-03-29T09:11:46.999Z</time></trkpt><trkpt lat="43.38385318303515" lon="11.964989311474445"><ele>656.6666666666667</ele><time>2026-03-29T09:11:47.999Z</time></trkpt><trkpt lat="43.383844760354144" lon="11.964894353407265"><ele>656.0</ele><time>2026-03-29T09:11:48.999Z</time></trkpt><trkpt lat="43.383841042369596" lon="11.964800160297779"><ele>655.3333333333334</ele><time>2026-03-29T09:11:49.999Z</time></trkpt><trkpt lat="43.383864325827396" lon="11.964710630026179"><ele>654.6666666666666</ele><time>2026-03-29T09:11:50.999Z</time></trkpt><trkpt lat="43.38391123790669" lon="11.964618045632903"><ele>654.0</ele><time>2026-03-29T09:11:51.999Z</time></trkpt><trkpt lat="43.38395268352203" lon="11.964507698811447"><ele>654.0</ele><time>2026-03-29T09:11:52.999Z</time></trkpt><trkpt lat="43.383987456058506" lon="11.964423107973323"><ele>654.0</ele><time>2026-03-29T09:11:53.999Z</time></trkpt><trkpt lat="43.384017371563075" lon="11.964329958425678"><ele>654.0</ele><time>2026-03-29T09:11:54.999Z</time></trkpt><trkpt lat="43.38402244161758" lon="11.964240289844584"><ele>654.0</ele><time>2026-03-29T09:11:55.999Z</time></trkpt><trkpt lat="43.38402488229036" lon="11.964142352491724"><ele>654.0</ele><time>2026-03-29T09:11:56.999Z</time></trkpt><trkpt lat="43.3840195390601" lon="11.964015493613351"><ele>654.0</ele><time>2026-03-29T09:11:58.999Z</time></trkpt><trkpt lat="43.384047953172285" lon="11.9638776780617"><ele>651.2</ele><time>2026-03-29T09:12:00.999Z</time></trkpt><trkpt lat="43.38401048836124" lon="11.963742637080959"><ele>648.4000000000001</ele><time>2026-03-29T09:12:02.999Z</time></trkpt><trkpt lat="43.383913015284456" lon="11.963666793807702"><ele>645.6</ele><time>2026-03-29T09:12:04.999Z</time></trkpt><trkpt lat="43.38381260436953" lon="11.963679142082428"><ele>642.8</ele><time>2026-03-29T09:12:06.999Z</time></trkpt><trkpt lat="43.38374558521719" lon="11.963770222154837"><ele>640.0</ele><time>2026-03-29T09:12:08.999Z</time></trkpt><trkpt lat="43.383738735454095" lon="11.963928286071361"><ele>637.8333333333334</ele><time>2026-03-29T09:12:10.999Z</time></trkpt><trkpt lat="43.38370138706191" lon="11.964004121771882"><ele>635.6666666666667</ele><time>2026-03-29T09:12:11.999Z</time></trkpt><trkpt lat="43.38362348379255" lon="11.964061367075706"><ele>633.5</ele><time>2026-03-29T09:12:12.999Z</time></trkpt><trkpt lat="43.38351907596006" lon="11.964098429161918"><ele>631.3333333333334</ele><time>2026-03-29T09:12:13.999Z</time></trkpt><trkpt lat="43.38343538037717" lon="11.964134898713782"><ele>629.1666666666666</ele><time>2026-03-29T09:12:14.999Z</time></trkpt><trkpt lat="43.383373579964534" lon="11.964183236939357"><ele>627.0</ele><time>2026-03-29T09:12:15.999Z</time></trkpt><trkpt lat="43.38331287829177" lon="11.964237574182297"><ele>627.0</ele><time>2026-03-29T09:12:16.999Z</time></trkpt><trkpt lat="43.38324855998083" lon="11.964303113526181"><ele>627.0</ele><time>2026-03-29T09:12:17.999Z</time></trkpt><trkpt lat="43.38319046828812" lon="11.964387486697136"><ele>627.0</ele><time>2026-03-29T09:12:18.999Z</time></trkpt><trkpt lat="43.3831768941163" lon="11.964479168910598"><ele>627.0</ele><time>2026-03-29T09:12:19.999Z</time></trkpt><trkpt lat="43.38318618124474" lon="11.964564870376622"><ele>627.0</ele><time>2026-03-29T09:12:20.999Z</time></trkpt><trkpt lat="43.38322135539724" lon="11.964642115475835"><ele>627.0</ele><time>2026-03-29T09:12:21.999Z</time></trkpt><trkpt lat="43.38324213361811" lon="11.964770621495108"><ele>627.0</ele><time>2026-03-29T09:12:23.999Z</time></trkpt><trkpt lat="43.383190330654436" lon="11.964820515109428"><ele>627.0</ele><time>2026-03-29T09:12:24.999Z</time></trkpt><trkpt lat="43.38310278053766" lon="11.964880556143767"><ele>627.0</ele><time>2026-03-29T09:12:25.999Z</time></trkpt><trkpt lat="43.383026837473004" lon="11.96492218042048"><ele>627.0</ele><time>2026-03-29T09:12:26.999Z</time></trkpt><trkpt lat="43.38295374291798" lon="11.964965903432544"><ele>627.0</ele><time>2026-03-29T09:12:27.999Z</time></trkpt><trkpt lat="43.38285111853419" lon="11.965095064299543"><ele>622.5</ele><time>2026-03-29T09:12:29.999Z</time></trkpt><trkpt lat="43.3828045329148" lon="11.965203281009643"><ele>618.0</ele><time>2026-03-29T09:12:30.999Z</time></trkpt><trkpt lat="43.38278249605488" lon="11.965285403749428"><ele>613.5</ele><time>2026-03-29T09:12:31.999Z</time></trkpt><trkpt lat="43.38280273294618" lon="11.965446342704405"><ele>609.0</ele><time>2026-03-29T09:12:33.999Z</time></trkpt><trkpt lat="43.382829924744854" lon="11.965526659032474"><ele>604.5</ele><time>2026-03-29T09:12:34.999Z</time></trkpt><trkpt lat="43.382811684662045" lon="11.965624597142066"><ele>600.0</ele><time>2026-03-29T09:12:35.999Z</time></trkpt><trkpt lat="43.38274465672931" lon="11.965711169341814"><ele>600.0</ele><time>2026-03-29T09:12:36.999Z</time></trkpt><trkpt lat="43.38268438402204" lon="11.96576122784481"><ele>600.0</ele><time>2026-03-29T09:12:37.999Z</time></trkpt><trkpt lat="43.38264661344599" lon="11.965850139157343"><ele>600.0</ele><time>2026-03-29T09:12:38.999Z</time></trkpt><trkpt lat="43.38260560691929" lon="11.965922521634157"><ele>600.0</ele><time>2026-03-29T09:12:39.999Z</time></trkpt><trkpt lat="43.38253956616815" lon="11.966002524020782"><ele>600.0</ele><time>2026-03-29T09:12:40.999Z</time></trkpt><trkpt lat="43.38243830879382" lon="11.966128170555294"><ele>600.0</ele><time>2026-03-29T09:12:42.999Z</time></trkpt><trkpt lat="43.38240510514665" lon="11.966210847101658"><ele>600.1666666666666</ele><time>2026-03-29T09:12:43.998Z</time></trkpt><trkpt lat="43.38238350645455" lon="11.966303069007417"><ele>600.3333333333334</ele><time>2026-03-29T09:12:44.998Z</time></trkpt><trkpt lat="43.38236961189004" lon="11.966396854112778"><ele>600.5</ele><time>2026-03-29T09:12:45.998Z</time></trkpt><trkpt lat="43.38240603872609" lon="11.96651739592274"><ele>600.6666666666667</ele><time>2026-03-29T09:12:47.998Z</time></trkpt><trkpt lat="43.38249009296522" lon="11.966622291580606"><ele>600.8333333333334</ele><time>2026-03-29T09:12:49.998Z</time></trkpt><trkpt lat="43.38255826925331" lon="11.96671410833175"><ele>601.0</ele><time>2026-03-29T09:12:51.998Z</time></trkpt><trkpt lat="43.38246098070711" lon="11.96681361000314"><ele>601.1666666666667</ele><time>2026-03-29T09:12:53.998Z</time></trkpt><trkpt lat="43.382355539815734" lon="11.96676596234298"><ele>601.3333333333334</ele><time>2026-03-29T09:12:55.998Z</time></trkpt><trkpt lat="43.38228142867217" lon="11.96677162156128"><ele>601.5</ele><time>2026-03-29T09:12:56.998Z</time></trkpt><trkpt lat="43.38220697050423" lon="11.966821403962756"><ele>601.6666666666666</ele><time>2026-03-29T09:12:57.998Z</time></trkpt><trkpt lat="43.382142484307735" lon="11.96688944206622"><ele>601.8333333333333</ele><time>2026-03-29T09:12:58.998Z</time></trkpt><trkpt lat="43.38208731790106" lon="11.966974004851892"><ele>602.0</ele><time>2026-03-29T09:12:59.998Z</time></trkpt><trkpt lat="43.38204899152721" lon="11.967073162337948"><ele>597.3333333333333</ele><time>2026-03-29T09:13:01Z</time></trkpt><trkpt lat="43.38202674522872" lon="11.96719159859435"><ele>592.6666666666666</ele><time>2026-03-29T09:13:02Z</time></trkpt><trkpt lat="43.38199793897072" lon="11.967293442063355"><ele>588.0</ele><time>2026-03-29T09:13:03Z</time></trkpt><trkpt lat="43.38200350559918" lon="11.967395738131806"><ele>583.3333333333334</ele><time>2026-03-29T09:13:04Z</time></trkpt><trkpt lat="43.38201505933662" lon="11.967508773925436"><ele>578.6666666666667</ele><time>2026-03-29T09:13:05Z</time></trkpt><trkpt lat="43.382026866821704" lon="11.96761155116047"><ele>574.0</ele><time>2026-03-29T09:13:06Z</time></trkpt><trkpt lat="43.382008844364144" lon="11.967712845325364"><ele>573.2857142857143</ele><time>2026-03-29T09:13:07Z</time></trkpt><trkpt lat="43.38196856261037" lon="11.967800911646924"><ele>572.5714285714286</ele><time>2026-03-29T09:13:08Z</time></trkpt><trkpt lat="43.38191771225914" lon="11.967883623536336"><ele>571.8571428571429</ele><time>2026-03-29T09:13:09Z</time></trkpt><trkpt lat="43.38189682180384" lon="11.967973092764456"><ele>571.1428571428571</ele><time>2026-03-29T09:13:10Z</time></trkpt><trkpt lat="43.38185710764129" lon="11.968045248739728"><ele>570.4285714285714</ele><time>2026-03-29T09:13:12Z</time></trkpt><trkpt lat="43.38184038234152" lon="11.968135741943943"><ele>569.7142857142858</ele><time>2026-03-29T09:13:14Z</time></trkpt><trkpt lat="43.381788443324396" lon="11.968202547650401"><ele>569.0</ele><time>2026-03-29T09:13:18Z</time></trkpt><trkpt lat="43.3817283753865" lon="11.9680736672826"><ele>569.0</ele><time>2026-03-29T09:13:50.999Z</time></trkpt><trkpt lat="43.38172870815716" lon="11.96797861006923"><ele>569.0</ele><time>2026-03-29T09:13:52.999Z</time></trkpt><trkpt lat="43.38176041661947" lon="11.967877904956078"><ele>569.0</ele><time>2026-03-29T09:13:54.999Z</time></trkpt><trkpt lat="43.38177413947604" lon="11.967770135309365"><ele>569.0</ele><time>2026-03-29T09:13:56.999Z</time></trkpt><trkpt lat="43.38177346758964" lon="11.967673374190491"><ele>569.0</ele><time>2026-03-29T09:13:58.999Z</time></trkpt><trkpt lat="43.38175605979938" lon="11.967506548604364"><ele>569.0</ele><time>2026-03-29T09:14:00.999Z</time></trkpt><trkpt lat="43.38173055154565" lon="11.96741935966635"><ele>570.0</ele><time>2026-03-29T09:14:01.999Z</time></trkpt><trkpt lat="43.38168910166665" lon="11.967287585822804"><ele>571.0</ele><time>2026-03-29T09:14:03.999Z</time></trkpt><trkpt lat="43.381677267172854" lon="11.967163087138374"><ele>572.0</ele><time>2026-03-29T09:14:05.999Z</time></trkpt><trkpt lat="43.381664157680824" lon="11.967027533244726"><ele>573.0</ele><time>2026-03-29T09:14:07.999Z</time></trkpt><trkpt lat="43.38151670993399" lon="11.966987608539448"><ele>574.0</ele><time>2026-03-29T09:14:09.999Z</time></trkpt><trkpt lat="43.38143003932033" lon="11.966992876593483"><ele>574.0</ele><time>2026-03-29T09:14:10.999Z</time></trkpt><trkpt lat="43.38134932230926" lon="11.966956791740795"><ele>574.0</ele><time>2026-03-29T09:14:11.999Z</time></trkpt><trkpt lat="43.38130043982818" lon="11.966891764403524"><ele>574.0</ele><time>2026-03-29T09:14:12.999Z</time></trkpt><trkpt lat="43.38129079115777" lon="11.966794686151278"><ele>574.0</ele><time>2026-03-29T09:14:13.999Z</time></trkpt><trkpt lat="43.38130522035178" lon="11.966656275116357"><ele>574.0</ele><time>2026-03-29T09:14:14.999Z</time></trkpt><trkpt lat="43.381303492932844" lon="11.96650001230029"><ele>574.0</ele><time>2026-03-29T09:14:15.999Z</time></trkpt><trkpt lat="43.38131424820073" lon="11.966383996000584"><ele>574.0</ele><time>2026-03-29T09:14:16.999Z</time></trkpt><trkpt lat="43.38135641443677" lon="11.966261979449454"><ele>574.0</ele><time>2026-03-29T09:14:17.999Z</time></trkpt><trkpt lat="43.38142738155596" lon="11.966132857919554"><ele>574.0</ele><time>2026-03-29T09:14:18.999Z</time></trkpt><trkpt lat="43.381506630290296" lon="11.966016293517155"><ele>574.0</ele><time>2026-03-29T09:14:19.999Z</time></trkpt><trkpt lat="43.381552871957865" lon="11.96590192180171"><ele>574.0</ele><time>2026-03-29T09:14:20.999Z</time></trkpt><trkpt lat="43.38158324461837" lon="11.965804825827693"><ele>574.0</ele><time>2026-03-29T09:14:21.999Z</time></trkpt><trkpt lat="43.381613883409294" lon="11.965721969316364"><ele>574.0</ele><time>2026-03-29T09:14:22.999Z</time></trkpt><trkpt lat="43.38163983443297" lon="11.965622775291559"><ele>574.0</ele><time>2026-03-29T09:14:24.999Z</time></trkpt><trkpt lat="43.38151954824428" lon="11.96558027011823"><ele>574.0</ele><time>2026-03-29T09:14:26.999Z</time></trkpt><trkpt lat="43.38141708093694" lon="11.965608620372924"><ele>574.0</ele><time>2026-03-29T09:14:27.999Z</time></trkpt><trkpt lat="43.381313922636494" lon="11.965636768435738"><ele>569.5</ele><time>2026-03-29T09:14:28.999Z</time></trkpt><trkpt lat="43.38120159187742" lon="11.96565807271237"><ele>565.0</ele><time>2026-03-29T09:14:29.999Z</time></trkpt><trkpt lat="43.3811060518086" lon="11.965653922496733"><ele>560.5</ele><time>2026-03-29T09:14:30.999Z</time></trkpt><trkpt lat="43.3810195434734" lon="11.965649209797428"><ele>556.0</ele><time>2026-03-29T09:14:31.999Z</time></trkpt><trkpt lat="43.38095373142521" lon="11.965642320355158"><ele>551.5</ele><time>2026-03-29T09:14:32.999Z</time></trkpt><trkpt lat="43.380892093181195" lon="11.965600958096465"><ele>547.0</ele><time>2026-03-29T09:14:33.999Z</time></trkpt><trkpt lat="43.38082577835625" lon="11.965532588939327"><ele>547.0</ele><time>2026-03-29T09:14:34.999Z</time></trkpt><trkpt lat="43.38074708695977" lon="11.965456588140086"><ele>547.0</ele><time>2026-03-29T09:14:35.999Z</time></trkpt><trkpt lat="43.38069277091353" lon="11.965389299905947"><ele>547.0</ele><time>2026-03-29T09:14:36.999Z</time></trkpt><trkpt lat="43.38063906771478" lon="11.965306760795091"><ele>547.0</ele><time>2026-03-29T09:14:37.999Z</time></trkpt><trkpt lat="43.38060498366426" lon="11.965226745918823"><ele>547.0</ele><time>2026-03-29T09:14:38.999Z</time></trkpt><trkpt lat="43.38059034346145" lon="11.96512632265239"><ele>547.0</ele><time>2026-03-29T09:14:39.999Z</time></trkpt><trkpt lat="43.380586778654425" lon="11.96502289777032"><ele>547.8333333333334</ele><time>2026-03-29T09:14:40.999Z</time></trkpt><trkpt lat="43.38059101664045" lon="11.964899235622068"><ele>548.6666666666667</ele><time>2026-03-29T09:14:41.999Z</time></trkpt><trkpt lat="43.380605687806835" lon="11.964804295508397"><ele>549.5</ele><time>2026-03-29T09:14:42.999Z</time></trkpt><trkpt lat="43.38060552478167" lon="11.964691078878026"><ele>550.3333333333334</ele><time>2026-03-29T09:14:43.999Z</time></trkpt><trkpt lat="43.38059399567687" lon="11.964576083763635"><ele>551.1666666666666</ele><time>2026-03-29T09:14:44.999Z</time></trkpt><trkpt lat="43.38060197441971" lon="11.964455531492446"><ele>552.0</ele><time>2026-03-29T09:14:45.999Z</time></trkpt><trkpt lat="43.38060815799972" lon="11.964349140911455"><ele>552.0</ele><time>2026-03-29T09:14:46.999Z</time></trkpt><trkpt lat="43.3806365351494" lon="11.964253241464878"><ele>552.0</ele><time>2026-03-29T09:14:47.999Z</time></trkpt><trkpt lat="43.38069550482969" lon="11.96417837190927"><ele>552.0</ele><time>2026-03-29T09:14:48.998Z</time></trkpt><trkpt lat="43.380781127300146" lon="11.964116599382285"><ele>552.0</ele><time>2026-03-29T09:14:49.998Z</time></trkpt><trkpt lat="43.38086853371717" lon="11.964078195616516"><ele>552.0</ele><time>2026-03-29T09:14:50.998Z</time></trkpt><trkpt lat="43.38094956438175" lon="11.964047179827565"><ele>552.0</ele><time>2026-03-29T09:14:51.998Z</time></trkpt><trkpt lat="43.381011163498215" lon="11.96402916320967"><ele>549.6</ele><time>2026-03-29T09:14:52.998Z</time></trkpt><trkpt lat="43.3810782698596" lon="11.964000985243954"><ele>547.2</ele><time>2026-03-29T09:14:53.998Z</time></trkpt><trkpt lat="43.38111427549166" lon="11.963925941463865"><ele>544.8</ele><time>2026-03-29T09:14:55.998Z</time></trkpt><trkpt lat="43.381013119767864" lon="11.96380479748971"><ele>542.4</ele><time>2026-03-29T09:14:57.998Z</time></trkpt><trkpt lat="43.38091999384932" lon="11.963735894623662"><ele>540.0</ele><time>2026-03-29T09:14:58.998Z</time></trkpt><trkpt lat="43.380834979510276" lon="11.963654716166873"><ele>540.0</ele><time>2026-03-29T09:14:59.998Z</time></trkpt><trkpt lat="43.380769340111414" lon="11.963581808924792"><ele>540.0</ele><time>2026-03-29T09:15:00.998Z</time></trkpt><trkpt lat="43.38071644850158" lon="11.963503532004083"><ele>540.0</ele><time>2026-03-29T09:15:01.998Z</time></trkpt><trkpt lat="43.38069442472371" lon="11.963343879578536"><ele>540.0</ele><time>2026-03-29T09:15:03.998Z</time></trkpt><trkpt lat="43.380732215386686" lon="11.96326801203482"><ele>540.0</ele><time>2026-03-29T09:15:04.998Z</time></trkpt><trkpt lat="43.38077653149224" lon="11.963166794366046"><ele>540.0</ele><time>2026-03-29T09:15:05.998Z</time></trkpt><trkpt lat="43.3808300221297" lon="11.963068093816416"><ele>538.5</ele><time>2026-03-29T09:15:07Z</time></trkpt><trkpt lat="43.3808677584795" lon="11.962990575878022"><ele>537.0</ele><time>2026-03-29T09:15:08Z</time></trkpt><trkpt lat="43.38090650618522" lon="11.962921738203471"><ele>535.5</ele><time>2026-03-29T09:15:09Z</time></trkpt><trkpt lat="43.380895517690334" lon="11.962806626195642"><ele>534.0</ele><time>2026-03-29T09:15:11Z</time></trkpt><trkpt lat="43.380772131076164" lon="11.962772337392458"><ele>532.5</ele><time>2026-03-29T09:15:13Z</time></trkpt><trkpt lat="43.38070374233298" lon="11.96277312108971"><ele>531.0</ele><time>2026-03-29T09:15:14Z</time></trkpt><trkpt lat="43.38063619856379" lon="11.962749253350756"><ele>531.0</ele><time>2026-03-29T09:15:15Z</time></trkpt><trkpt lat="43.380553041805605" lon="11.962690014444705"><ele>531.0</ele><time>2026-03-29T09:15:17Z</time></trkpt><trkpt lat="43.38053235854507" lon="11.962595818429401"><ele>531.0</ele><time>2026-03-29T09:15:26Z</time></trkpt><trkpt lat="43.38054494755457" lon="11.962504678771323"><ele>531.0</ele><time>2026-03-29T09:15:30Z</time></trkpt><trkpt lat="43.38059588554389" lon="11.962448180714494"><ele>531.0</ele><time>2026-03-29T09:15:36Z</time></trkpt><trkpt lat="43.38062790294421" lon="11.962350358500792"><ele>531.0</ele><time>2026-03-29T09:15:37Z</time></trkpt><trkpt lat="43.38064728205373" lon="11.962205560924506"><ele>530.3333333333334</ele><time>2026-03-29T09:15:38Z</time></trkpt><trkpt lat="43.380647242370124" lon="11.962087681967501"><ele>529.6666666666666</ele><time>2026-03-29T09:15:39Z</time></trkpt><trkpt lat="43.38061167564678" lon="11.961996715424391"><ele>529.0</ele><time>2026-03-29T09:15:40Z</time></trkpt><trkpt lat="43.38058503666971" lon="11.961899153504827"><ele>528.3333333333333</ele><time>2026-03-29T09:15:41Z</time></trkpt><trkpt lat="43.38061579658866" lon="11.961745784539117"><ele>527.6666666666666</ele><time>2026-03-29T09:15:43Z</time></trkpt><trkpt lat="43.38059494301008" lon="11.961640697267645"><ele>527.0</ele><time>2026-03-29T09:15:44Z</time></trkpt><trkpt lat="43.38054352851378" lon="11.961499841470513"><ele>521.8000000000001</ele><time>2026-03-29T09:15:45Z</time></trkpt><trkpt lat="43.38051002838991" lon="11.961400284406361"><ele>516.6</ele><time>2026-03-29T09:15:46Z</time></trkpt><trkpt lat="43.38045465766877" lon="11.961328890357876"><ele>511.40000000000003</ele><time>2026-03-29T09:15:47Z</time></trkpt><trkpt lat="43.38040592326674" lon="11.96127168225074"><ele>506.20000000000005</ele><time>2026-03-29T09:15:48Z</time></trkpt><trkpt lat="43.38040546163306" lon="11.961074863346873"><ele>501.0</ele><time>2026-03-29T09:15:50Z</time></trkpt><trkpt lat="43.38039952633084" lon="11.960949305282986"><ele>500.6</ele><time>2026-03-29T09:15:51Z</time></trkpt><trkpt lat="43.38038597511827" lon="11.960806304167637"><ele>500.20000000000005</ele><time>2026-03-29T09:15:52Z</time></trkpt><trkpt lat="43.380404149784866" lon="11.960659489602959"><ele>499.79999999999995</ele><time>2026-03-29T09:15:53Z</time></trkpt><trkpt lat="43.38040846580791" lon="11.960521594088233"><ele>499.4</ele><time>2026-03-29T09:15:53.999Z</time></trkpt><trkpt lat="43.38038472693992" lon="11.960362125559792"><ele>499.0</ele><time>2026-03-29T09:15:54.999Z</time></trkpt><trkpt lat="43.38035415506048" lon="11.960218256890057"><ele>499.00000000000006</ele><time>2026-03-29T09:15:55.999Z</time></trkpt><trkpt lat="43.380328842606474" lon="11.960100710939455"><ele>499.0</ele><time>2026-03-29T09:15:56.999Z</time></trkpt><trkpt lat="43.380330811888754" lon="11.959984344123454"><ele>499.0</ele><time>2026-03-29T09:15:57.999Z</time></trkpt><trkpt lat="43.380343884864374" lon="11.959885504201491"><ele>499.0</ele><time>2026-03-29T09:15:58.999Z</time></trkpt><trkpt lat="43.380347607969426" lon="11.959791399917135"><ele>499.00000000000006</ele><time>2026-03-29T09:15:59.999Z</time></trkpt><trkpt lat="43.380389557946856" lon="11.959646409115171"><ele>499.0</ele><time>2026-03-29T09:16:01.999Z</time></trkpt><trkpt lat="43.38036907781203" lon="11.959515325229672"><ele>498.4</ele><time>2026-03-29T09:16:03.999Z</time></trkpt><trkpt lat="43.380249762236545" lon="11.959395266165304"><ele>497.79999999999995</ele><time>2026-03-29T09:16:05.999Z</time></trkpt><trkpt lat="43.38019362362109" lon="11.959302449473201"><ele>497.20000000000005</ele><time>2026-03-29T09:16:06.999Z</time></trkpt><trkpt lat="43.38015747125514" lon="11.959202440482002"><ele>496.6</ele><time>2026-03-29T09:16:07.999Z</time></trkpt><trkpt lat="43.38013490581651" lon="11.959106177106143"><ele>496.0</ele><time>2026-03-29T09:16:08.999Z</time></trkpt><trkpt lat="43.380132970980114" lon="11.95900014696795"><ele>496.0</ele><time>2026-03-29T09:16:09.999Z</time></trkpt><trkpt lat="43.38013116293931" lon="11.958895795243102"><ele>496.0</ele><time>2026-03-29T09:16:10.999Z</time></trkpt><trkpt lat="43.380139606000675" lon="11.958792858025278"><ele>496.0</ele><time>2026-03-29T09:16:11.999Z</time></trkpt><trkpt lat="43.380150392651" lon="11.958636510794877"><ele>496.0</ele><time>2026-03-29T09:16:13.999Z</time></trkpt><trkpt lat="43.38016202916998" lon="11.958496296520764"><ele>496.0</ele><time>2026-03-29T09:16:15.999Z</time></trkpt><trkpt lat="43.38022224176247" lon="11.958349773914275"><ele>495.6666666666667</ele><time>2026-03-29T09:16:17.999Z</time></trkpt><trkpt lat="43.38029387231196" lon="11.958256717224188"><ele>495.33333333333337</ele><time>2026-03-29T09:16:19.999Z</time></trkpt><trkpt lat="43.380324237545096" lon="11.958161521600498"><ele>495.0</ele><time>2026-03-29T09:16:20.999Z</time></trkpt><trkpt lat="43.380319322237725" lon="11.958073058078165"><ele>494.66666666666663</ele><time>2026-03-29T09:16:23.999Z</time></trkpt><trkpt lat="43.380318911642206" lon="11.957936115443603"><ele>494.3333333333333</ele><time>2026-03-29T09:17:25Z</time></trkpt><trkpt lat="43.380366245920605" lon="11.957845909714315"><ele>494.0</ele><time>2026-03-29T09:17:26Z</time></trkpt><trkpt lat="43.380417834253215" lon="11.957759618253206"><ele>493.99999999999994</ele><time>2026-03-29T09:17:27Z</time></trkpt><trkpt lat="43.380475110128806" lon="11.95771184775301"><ele>494.0</ele><time>2026-03-29T09:17:28Z</time></trkpt><trkpt lat="43.38053161372412" lon="11.957667516927154"><ele>494.0</ele><time>2026-03-29T09:17:29Z</time></trkpt><trkpt lat="43.3806096655264" lon="11.957619287105912"><ele>494.0</ele><time>2026-03-29T09:17:30Z</time></trkpt><trkpt lat="43.38069475310266" lon="11.957590021892225"><ele>493.99999999999994</ele><time>2026-03-29T09:17:31Z</time></trkpt><trkpt lat="43.380771902943" lon="11.957551535169141"><ele>494.0</ele><time>2026-03-29T09:17:32Z</time></trkpt><trkpt lat="43.38086453353893" lon="11.95750773994871"><ele>494.99999999999994</ele><time>2026-03-29T09:17:33Z</time></trkpt><trkpt lat="43.38095164217617" lon="11.957478935200305"><ele>496.0</ele><time>2026-03-29T09:17:34Z</time></trkpt><trkpt lat="43.381036270341376" lon="11.95743831390479"><ele>497.0</ele><time>2026-03-29T09:17:35Z</time></trkpt><trkpt lat="43.38111345858577" lon="11.95740121565484"><ele>498.0</ele><time>2026-03-29T09:17:36Z</time></trkpt><trkpt lat="43.38118748186967" lon="11.957366146822059"><ele>498.99999999999994</ele><time>2026-03-29T09:17:37Z</time></trkpt><trkpt lat="43.38125570748828" lon="11.95732508643708"><ele>500.0</ele><time>2026-03-29T09:17:38Z</time></trkpt><trkpt lat="43.38133391288818" lon="11.95728312457508"><ele>498.2</ele><time>2026-03-29T09:17:39Z</time></trkpt><trkpt lat="43.381426680614986" lon="11.957262098658427"><ele>496.4</ele><time>2026-03-29T09:17:40Z</time></trkpt><trkpt lat="43.38152401193235" lon="11.957227844456728"><ele>494.6</ele><time>2026-03-29T09:17:41Z</time></trkpt><trkpt lat="43.381620104580904" lon="11.957199849654266"><ele>492.8</ele><time>2026-03-29T09:17:42Z</time></trkpt><trkpt lat="43.381713167639255" lon="11.957172170124037"><ele>491.0</ele><time>2026-03-29T09:17:43Z</time></trkpt><trkpt lat="43.38180701227342" lon="11.957146749247139"><ele>491.0</ele><time>2026-03-29T09:17:44Z</time></trkpt><trkpt lat="43.38190593324206" lon="11.95712254220645"><ele>491.0</ele><time>2026-03-29T09:17:45Z</time></trkpt><trkpt lat="43.38199648852243" lon="11.95709080084603"><ele>491.0</ele><time>2026-03-29T09:17:46Z</time></trkpt><trkpt lat="43.38208710442756" lon="11.957054928217337"><ele>491.0</ele><time>2026-03-29T09:17:47Z</time></trkpt><trkpt lat="43.38217857081136" lon="11.957017510141279"><ele>491.0</ele><time>2026-03-29T09:17:48Z</time></trkpt><trkpt lat="43.382268177812314" lon="11.956979453596666"><ele>490.4</ele><time>2026-03-29T09:17:49Z</time></trkpt><trkpt lat="43.38235645837414" lon="11.95693176682984"><ele>489.8</ele><time>2026-03-29T09:17:50Z</time></trkpt><trkpt lat="43.38244997801247" lon="11.956886109633766"><ele>489.19999999999993</ele><time>2026-03-29T09:17:51Z</time></trkpt><trkpt lat="43.382551795669485" lon="11.956834632297701"><ele>488.59999999999997</ele><time>2026-03-29T09:17:52Z</time></trkpt><trkpt lat="43.38266071080921" lon="11.956780430749344"><ele>488.0</ele><time>2026-03-29T09:17:53Z</time></trkpt><trkpt lat="43.382772339336626" lon="11.956725957738733"><ele>488.25</ele><time>2026-03-29T09:17:54Z</time></trkpt><trkpt lat="43.382888569709614" lon="11.956679354042674"><ele>488.5</ele><time>2026-03-29T09:17:55Z</time></trkpt><trkpt lat="43.38300691832206" lon="11.956635731114483"><ele>488.75</ele><time>2026-03-29T09:17:56Z</time></trkpt><trkpt lat="43.383124301364305" lon="11.95658619742999"><ele>489.0</ele><time>2026-03-29T09:17:57Z</time></trkpt><trkpt lat="43.38323472485305" lon="11.956529477743906"><ele>487.75</ele><time>2026-03-29T09:17:58Z</time></trkpt><trkpt lat="43.38335018290641" lon="11.956464119415875"><ele>486.5</ele><time>2026-03-29T09:17:59Z</time></trkpt><trkpt lat="43.38346515885578" lon="11.956392539938259"><ele>485.25</ele><time>2026-03-29T09:18:00Z</time></trkpt><trkpt lat="43.38358256544819" lon="11.956309087827472"><ele>484.0</ele><time>2026-03-29T09:18:01Z</time></trkpt><trkpt lat="43.38370202448832" lon="11.956220301574062"><ele>484.0</ele><time>2026-03-29T09:18:01.999Z</time></trkpt><trkpt lat="43.383822989950154" lon="11.956137714766761"><ele>484.0</ele><time>2026-03-29T09:18:02.999Z</time></trkpt><trkpt lat="43.38395265573123" lon="11.956062710955774"><ele>484.0</ele><time>2026-03-29T09:18:03.999Z</time></trkpt><trkpt lat="43.38408644526662" lon="11.955988284670527"><ele>484.0</ele><time>2026-03-29T09:18:04.999Z</time></trkpt><trkpt lat="43.384217466383916" lon="11.955915371189242"><ele>484.0</ele><time>2026-03-29T09:18:05.999Z</time></trkpt><trkpt lat="43.384347866408284" lon="11.955833173686553"><ele>484.0</ele><time>2026-03-29T09:18:06.999Z</time></trkpt><trkpt lat="43.38447796906821" lon="11.955748764401235"><ele>484.0</ele><time>2026-03-29T09:18:07.999Z</time></trkpt><trkpt lat="43.38460269014782" lon="11.9556653442015"><ele>484.0</ele><time>2026-03-29T09:18:08.999Z</time></trkpt><trkpt lat="43.384726997948185" lon="11.95558725399144"><ele>483.25</ele><time>2026-03-29T09:18:09.999Z</time></trkpt><trkpt lat="43.38485572558671" lon="11.955508919885348"><ele>482.5</ele><time>2026-03-29T09:18:10.999Z</time></trkpt><trkpt lat="43.384983198812776" lon="11.9554167183449"><ele>481.75</ele><time>2026-03-29T09:18:11.999Z</time></trkpt><trkpt lat="43.38510580711013" lon="11.955313460609455"><ele>481.0</ele><time>2026-03-29T09:18:12.999Z</time></trkpt><trkpt lat="43.38522084782683" lon="11.955180619441194"><ele>479.33333333333337</ele><time>2026-03-29T09:18:13.999Z</time></trkpt><trkpt lat="43.38533555801929" lon="11.95502764855245"><ele>477.66666666666663</ele><time>2026-03-29T09:18:14.999Z</time></trkpt><trkpt lat="43.38545341120641" lon="11.954873503400583"><ele>476.0</ele><time>2026-03-29T09:18:15.999Z</time></trkpt><trkpt lat="43.385572665410706" lon="11.954745107138955"><ele>476.0</ele><time>2026-03-29T09:18:16.999Z</time></trkpt><trkpt lat="43.38571150894153" lon="11.954629177839012"><ele>476.0</ele><time>2026-03-29T09:18:17.999Z</time></trkpt><trkpt lat="43.38585328129114" lon="11.954553943269183"><ele>476.0</ele><time>2026-03-29T09:18:18.999Z</time></trkpt><trkpt lat="43.38600639812373" lon="11.954488354960638"><ele>476.0</ele><time>2026-03-29T09:18:19.999Z</time></trkpt><trkpt lat="43.386160596455795" lon="11.954450246051248"><ele>476.0</ele><time>2026-03-29T09:18:20.999Z</time></trkpt><trkpt lat="43.38632088602433" lon="11.954407678890671"><ele>476.0</ele><time>2026-03-29T09:18:21.999Z</time></trkpt><trkpt lat="43.386477640832304" lon="11.954368399768521"><ele>477.3333333333333</ele><time>2026-03-29T09:18:22.999Z</time></trkpt><trkpt lat="43.386637597221316" lon="11.954329044401767"><ele>478.66666666666663</ele><time>2026-03-29T09:18:23.999Z</time></trkpt><trkpt lat="43.38678885336391" lon="11.954295740631212"><ele>480.0</ele><time>2026-03-29T09:18:24.999Z</time></trkpt><trkpt lat="43.386940712212755" lon="11.954269789974042"><ele>480.0</ele><time>2026-03-29T09:18:25.999Z</time></trkpt><trkpt lat="43.387075090046054" lon="11.954249283977408"><ele>480.0</ele><time>2026-03-29T09:18:26.999Z</time></trkpt><trkpt lat="43.387207658898845" lon="11.95420871077292"><ele>480.0</ele><time>2026-03-29T09:18:27.999Z</time></trkpt><trkpt lat="43.38734231500802" lon="11.954130023615445"><ele>480.0</ele><time>2026-03-29T09:18:28.999Z</time></trkpt><trkpt lat="43.387470768662645" lon="11.9540143162416"><ele>477.66666666666663</ele><time>2026-03-29T09:18:29.999Z</time></trkpt><trkpt lat="43.38758991808196" lon="11.953884194088948"><ele>475.3333333333333</ele><time>2026-03-29T09:18:30.999Z</time></trkpt><trkpt lat="43.38771459870552" lon="11.953765234437025"><ele>473.0</ele><time>2026-03-29T09:18:31.999Z</time></trkpt><trkpt lat="43.38785288192458" lon="11.95369346804572"><ele>473.0</ele><time>2026-03-29T09:18:32.999Z</time></trkpt><trkpt lat="43.38800642991044" lon="11.953657903048311"><ele>473.0</ele><time>2026-03-29T09:18:33.999Z</time></trkpt><trkpt lat="43.38816685373692" lon="11.953651718017852"><ele>473.0</ele><time>2026-03-29T09:18:34.999Z</time></trkpt><trkpt lat="43.388322533620745" lon="11.953682811342427"><ele>472.25</ele><time>2026-03-29T09:18:35.999Z</time></trkpt><trkpt lat="43.388459500926366" lon="11.953720987053472"><ele>471.5</ele><time>2026-03-29T09:18:36.999Z</time></trkpt><trkpt lat="43.388589429847386" lon="11.953762115909603"><ele>470.75</ele><time>2026-03-29T09:18:37.999Z</time></trkpt><trkpt lat="43.3887098900868" lon="11.953840669419849"><ele>470.0</ele><time>2026-03-29T09:18:38.999Z</time></trkpt><trkpt lat="43.38881338017031" lon="11.953933122465529"><ele>469.8</ele><time>2026-03-29T09:18:39.999Z</time></trkpt><trkpt lat="43.38891223632208" lon="11.954013277955635"><ele>469.6</ele><time>2026-03-29T09:18:40.999Z</time></trkpt><trkpt lat="43.38900888103271" lon="11.954083687464959"><ele>469.4</ele><time>2026-03-29T09:18:41.999Z</time></trkpt><trkpt lat="43.38909640358535" lon="11.954116620750138"><ele>469.2</ele><time>2026-03-29T09:18:42.999Z</time></trkpt><trkpt lat="43.38917542866096" lon="11.954126265028531"><ele>469.0</ele><time>2026-03-29T09:18:43.999Z</time></trkpt><trkpt lat="43.38925353284" lon="11.95411336489717"><ele>469.00000000000006</ele><time>2026-03-29T09:18:45.999Z</time></trkpt><trkpt lat="43.389228255523264" lon="11.954197311295998"><ele>469.0</ele><time>2026-03-29T09:18:48.999Z</time></trkpt><trkpt lat="43.38911049824291" lon="11.954218444423976"><ele>469.0</ele><time>2026-03-29T09:18:50.999Z</time></trkpt><trkpt lat="43.389029593781245" lon="11.954212734480729"><ele>469.0</ele><time>2026-03-29T09:18:51.999Z</time></trkpt><trkpt lat="43.388932668212085" lon="11.954212485638827"><ele>469.00000000000006</ele><time>2026-03-29T09:18:53.999Z</time></trkpt><trkpt lat="43.38886589333781" lon="11.954250766908464"><ele>469.0</ele><time>2026-03-29T09:18:54.999Z</time></trkpt><trkpt lat="43.388801553825196" lon="11.954272718588076"><ele>472.1666666666667</ele><time>2026-03-29T09:18:55.999Z</time></trkpt><trkpt lat="43.38871612027612" lon="11.954292515312032"><ele>475.33333333333337</ele><time>2026-03-29T09:18:56.999Z</time></trkpt><trkpt lat="43.38864336579622" lon="11.954333278312678"><ele>478.5</ele><time>2026-03-29T09:18:57.999Z</time></trkpt><trkpt lat="43.38858316023666" lon="11.954400089255046"><ele>481.66666666666663</ele><time>2026-03-29T09:18:58.999Z</time></trkpt><trkpt lat="43.38855028439991" lon="11.954515021006074"><ele>484.8333333333333</ele><time>2026-03-29T09:19:00.999Z</time></trkpt><trkpt lat="43.3886226057434" lon="11.95455121457922"><ele>488.0</ele><time>2026-03-29T09:19:32Z</time></trkpt><trkpt lat="43.38875905349328" lon="11.954584528498096"><ele>487.3333333333333</ele><time>2026-03-29T09:19:34Z</time></trkpt><trkpt lat="43.38884477791456" lon="11.95458582148339"><ele>486.66666666666663</ele><time>2026-03-29T09:19:35Z</time></trkpt><trkpt lat="43.388939755033086" lon="11.954604155467957"><ele>486.0</ele><time>2026-03-29T09:19:36Z</time></trkpt><trkpt lat="43.389033072513314" lon="11.954640367105418"><ele>485.33333333333337</ele><time>2026-03-29T09:19:37Z</time></trkpt><trkpt lat="43.389109307613694" lon="11.954691856282434"><ele>484.6666666666667</ele><time>2026-03-29T09:19:38Z</time></trkpt><trkpt lat="43.3891771265748" lon="11.954757297894604"><ele>484.0</ele><time>2026-03-29T09:19:39Z</time></trkpt><trkpt lat="43.389247817509485" lon="11.954788796270263"><ele>484.00000000000006</ele><time>2026-03-29T09:19:40Z</time></trkpt><trkpt lat="43.38932998953543" lon="11.954818757591593"><ele>484.0</ele><time>2026-03-29T09:19:41Z</time></trkpt><trkpt lat="43.389409746976526" lon="11.95483765884977"><ele>484.0</ele><time>2026-03-29T09:19:42Z</time></trkpt><trkpt lat="43.389489085816585" lon="11.954825270113783"><ele>484.0</ele><time>2026-03-29T09:19:43Z</time></trkpt><trkpt lat="43.389572020782104" lon="11.954805437968933"><ele>484.00000000000006</ele><time>2026-03-29T09:19:44Z</time></trkpt><trkpt lat="43.389659279965954" lon="11.954807253871293"><ele>484.0</ele><time>2026-03-29T09:19:45Z</time></trkpt><trkpt lat="43.389734792824015" lon="11.954822133564678"><ele>482.50000000000006</ele><time>2026-03-29T09:19:46Z</time></trkpt><trkpt lat="43.38980980609891" lon="11.954908013604587"><ele>481.0</ele><time>2026-03-29T09:19:48Z</time></trkpt><trkpt lat="43.389829898745376" lon="11.954993844023917"><ele>479.5</ele><time>2026-03-29T09:19:49Z</time></trkpt><trkpt lat="43.3898739938611" lon="11.955118591694166"><ele>478.0</ele><time>2026-03-29T09:19:51Z</time></trkpt><trkpt lat="43.389945243382336" lon="11.95511892192706"><ele>476.50000000000006</ele><time>2026-03-29T09:19:52Z</time></trkpt><trkpt lat="43.39003034843425" lon="11.955100816770607"><ele>475.0</ele><time>2026-03-29T09:19:53Z</time></trkpt><trkpt lat="43.39013448556286" lon="11.95507988231631"><ele>478.4</ele><time>2026-03-29T09:19:54Z</time></trkpt><trkpt lat="43.39022063185446" lon="11.95506150699263"><ele>481.8</ele><time>2026-03-29T09:19:55Z</time></trkpt><trkpt lat="43.39030342817899" lon="11.95507865093074"><ele>485.20000000000005</ele><time>2026-03-29T09:19:56Z</time></trkpt><trkpt lat="43.390402977573146" lon="11.955128279436817"><ele>488.6</ele><time>2026-03-29T09:19:57Z</time></trkpt><trkpt lat="43.390502648552776" lon="11.955180361648532"><ele>492.0</ele><time>2026-03-29T09:19:58Z</time></trkpt><trkpt lat="43.39060864710316" lon="11.955237282534222"><ele>492.0</ele><time>2026-03-29T09:19:59Z</time></trkpt><trkpt lat="43.39070624107112" lon="11.955301171386093"><ele>492.00000000000006</ele><time>2026-03-29T09:20:00Z</time></trkpt><trkpt lat="43.39080400245197" lon="11.95538568449909"><ele>492.00000000000006</ele><time>2026-03-29T09:20:01Z</time></trkpt><trkpt lat="43.390891090244324" lon="11.955464858899228"><ele>492.0</ele><time>2026-03-29T09:20:02Z</time></trkpt><trkpt lat="43.390948922100876" lon="11.955530772817799"><ele>492.0</ele><time>2026-03-29T09:20:03Z</time></trkpt><trkpt lat="43.390991602114" lon="11.955614221088293"><ele>492.0</ele><time>2026-03-29T09:20:04Z</time></trkpt><trkpt lat="43.39101015946442" lon="11.955709563769217"><ele>492.0</ele><time>2026-03-29T09:20:04.999Z</time></trkpt><trkpt lat="43.390997383886265" lon="11.955816477151542"><ele>492.0</ele><time>2026-03-29T09:20:05.999Z</time></trkpt><trkpt lat="43.390970799017275" lon="11.955942009139138"><ele>492.0</ele><time>2026-03-29T09:20:06.999Z</time></trkpt><trkpt lat="43.39095423530672" lon="11.956038656976306"><ele>492.0</ele><time>2026-03-29T09:20:07.999Z</time></trkpt><trkpt lat="43.39097199946717" lon="11.956157617305044"><ele>492.0</ele><time>2026-03-29T09:20:09.999Z</time></trkpt><trkpt lat="43.39103675752864" lon="11.956200528940256"><ele>495.6</ele><time>2026-03-29T09:20:11.999Z</time></trkpt><trkpt lat="43.391157667961046" lon="11.956166396864724"><ele>499.20000000000005</ele><time>2026-03-29T09:20:13.999Z</time></trkpt><trkpt lat="43.39121932333229" lon="11.95610527089386"><ele>502.8</ele><time>2026-03-29T09:20:14.999Z</time></trkpt><trkpt lat="43.39128140157749" lon="11.956028534968826"><ele>506.4</ele><time>2026-03-29T09:20:15.999Z</time></trkpt><trkpt lat="43.39136938718602" lon="11.955979559414269"><ele>510.0</ele><time>2026-03-29T09:20:17.999Z</time></trkpt><trkpt lat="43.391444969001014" lon="11.955981613196265"><ele>510.8333333333333</ele><time>2026-03-29T09:20:18.999Z</time></trkpt><trkpt lat="43.391528100167825" lon="11.955992749680895"><ele>511.66666666666663</ele><time>2026-03-29T09:20:19.999Z</time></trkpt><trkpt lat="43.391612740618385" lon="11.955988763824637"><ele>512.5</ele><time>2026-03-29T09:20:20.999Z</time></trkpt><trkpt lat="43.391684762006285" lon="11.955971879771155"><ele>513.3333333333333</ele><time>2026-03-29T09:20:21.999Z</time></trkpt><trkpt lat="43.391781307087044" lon="11.956015554526278"><ele>514.1666666666666</ele><time>2026-03-29T09:20:23.999Z</time></trkpt><trkpt lat="43.39184313276083" lon="11.956080817487612"><ele>515.0</ele><time>2026-03-29T09:20:24.999Z</time></trkpt><trkpt lat="43.39190266957573" lon="11.956156669959595"><ele>515.0</ele><time>2026-03-29T09:20:25.999Z</time></trkpt><trkpt lat="43.391950182440155" lon="11.956232120861761"><ele>515.0</ele><time>2026-03-29T09:20:26.999Z</time></trkpt><trkpt lat="43.39203480746386" lon="11.956339106401096"><ele>515.0</ele><time>2026-03-29T09:20:28.999Z</time></trkpt><trkpt lat="43.39208407930122" lon="11.956402551659362"><ele>515.0</ele><time>2026-03-29T09:20:29.999Z</time></trkpt><trkpt lat="43.39213864491413" lon="11.956469273045158"><ele>515.0</ele><time>2026-03-29T09:20:30.999Z</time></trkpt><trkpt lat="43.39218965161068" lon="11.9565577203469"><ele>515.0</ele><time>2026-03-29T09:20:31.999Z</time></trkpt><trkpt lat="43.392245470360805" lon="11.956665213295144"><ele>516.1666666666666</ele><time>2026-03-29T09:20:32.999Z</time></trkpt><trkpt lat="43.392298229733385" lon="11.956781914397148"><ele>517.3333333333333</ele><time>2026-03-29T09:20:33.999Z</time></trkpt><trkpt lat="43.392350180487526" lon="11.956902494470755"><ele>518.5</ele><time>2026-03-29T09:20:34.999Z</time></trkpt><trkpt lat="43.39238754346624" lon="11.956992568315348"><ele>519.6666666666666</ele><time>2026-03-29T09:20:35.999Z</time></trkpt><trkpt lat="43.392402961577424" lon="11.957105726846406"><ele>520.8333333333334</ele><time>2026-03-29T09:20:36.999Z</time></trkpt><trkpt lat="43.392398793202624" lon="11.957201521168585"><ele>522.0</ele><time>2026-03-29T09:20:37.999Z</time></trkpt><trkpt lat="43.39239816648801" lon="11.957306259001989"><ele>522.0</ele><time>2026-03-29T09:20:38.999Z</time></trkpt><trkpt lat="43.392374033713054" lon="11.957388132748601"><ele>522.0</ele><time>2026-03-29T09:20:39.999Z</time></trkpt><trkpt lat="43.3923116442373" lon="11.957575130804619"><ele>522.0</ele><time>2026-03-29T09:20:41.999Z</time></trkpt><trkpt lat="43.39229049860079" lon="11.957710364440526"><ele>522.0</ele><time>2026-03-29T09:20:42.999Z</time></trkpt><trkpt lat="43.392262776773144" lon="11.957822006475045"><ele>522.0</ele><time>2026-03-29T09:20:43.999Z</time></trkpt><trkpt lat="43.392165945779766" lon="11.957962728632255"><ele>527.5</ele><time>2026-03-29T09:20:45.999Z</time></trkpt><trkpt lat="43.392118068974106" lon="11.958032768414244"><ele>533.0</ele><time>2026-03-29T09:20:46.999Z</time></trkpt><trkpt lat="43.39207730087075" lon="11.958124582648162"><ele>538.5</ele><time>2026-03-29T09:20:47.999Z</time></trkpt><trkpt lat="43.39205700772307" lon="11.958215636248934"><ele>544.0</ele><time>2026-03-29T09:20:48.999Z</time></trkpt><trkpt lat="43.39210995497253" lon="11.958412183067454"><ele>549.5</ele><time>2026-03-29T09:20:50.999Z</time></trkpt><trkpt lat="43.39216141243505" lon="11.958488569201922"><ele>555.0</ele><time>2026-03-29T09:20:51.999Z</time></trkpt><trkpt lat="43.39212858599635" lon="11.958595412396424"><ele>555.6</ele><time>2026-03-29T09:20:53.999Z</time></trkpt><trkpt lat="43.3920614142041" lon="11.958727768868014"><ele>556.2</ele><time>2026-03-29T09:20:55.999Z</time></trkpt><trkpt lat="43.39196364425279" lon="11.958843343773058"><ele>556.8</ele><time>2026-03-29T09:20:57.999Z</time></trkpt><trkpt lat="43.391900358119976" lon="11.958925949343651"><ele>557.4</ele><time>2026-03-29T09:20:58.999Z</time></trkpt><trkpt lat="43.39184604161053" lon="11.959001454053906"><ele>558.0</ele><time>2026-03-29T09:20:59.999Z</time></trkpt><trkpt lat="43.39179198204964" lon="11.959072641160045"><ele>558.0</ele><time>2026-03-29T09:21:00.999Z</time></trkpt><trkpt lat="43.3917340266357" lon="11.959127881052915"><ele>558.0</ele><time>2026-03-29T09:21:01.999Z</time></trkpt><trkpt lat="43.391659601312725" lon="11.959200710045884"><ele>558.0</ele><time>2026-03-29T09:21:02.999Z</time></trkpt><trkpt lat="43.391578536057544" lon="11.959254422608087"><ele>558.0</ele><time>2026-03-29T09:21:03.999Z</time></trkpt><trkpt lat="43.39149591417588" lon="11.959282388057076"><ele>558.0</ele><time>2026-03-29T09:21:04.999Z</time></trkpt><trkpt lat="43.39142295299555" lon="11.959318746672963"><ele>558.0</ele><time>2026-03-29T09:21:05.999Z</time></trkpt><trkpt lat="43.39136195383784" lon="11.9593636847501"><ele>558.4</ele><time>2026-03-29T09:21:06.998Z</time></trkpt><trkpt lat="43.39132405022987" lon="11.959523301048295"><ele>558.8</ele><time>2026-03-29T09:21:08.998Z</time></trkpt><trkpt lat="43.391309387551075" lon="11.959703914059775"><ele>559.2</ele><time>2026-03-29T09:21:10.998Z</time></trkpt><trkpt lat="43.39132826935718" lon="11.959789579217635"><ele>559.6</ele><time>2026-03-29T09:21:11.998Z</time></trkpt><trkpt lat="43.39141887491161" lon="11.959907859119566"><ele>560.0</ele><time>2026-03-29T09:21:13.998Z</time></trkpt><trkpt lat="43.391441884311384" lon="11.96002918866369"><ele>561.8</ele><time>2026-03-29T09:21:15.998Z</time></trkpt><trkpt lat="43.39138520112317" lon="11.960150412292533"><ele>563.6</ele><time>2026-03-29T09:21:17.998Z</time></trkpt><trkpt lat="43.391312298171584" lon="11.960226396314036"><ele>565.4</ele><time>2026-03-29T09:21:18.998Z</time></trkpt><trkpt lat="43.39123686135931" lon="11.960313916514401"><ele>567.2</ele><time>2026-03-29T09:21:19.998Z</time></trkpt><trkpt lat="43.39115586155282" lon="11.960411508874705"><ele>569.0</ele><time>2026-03-29T09:21:20.998Z</time></trkpt><trkpt lat="43.391087546738746" lon="11.960494701728765"><ele>573.6</ele><time>2026-03-29T09:21:21.998Z</time></trkpt><trkpt lat="43.391045814884" lon="11.960631756396403"><ele>578.2</ele><time>2026-03-29T09:21:23.998Z</time></trkpt><trkpt lat="43.3910397838771" lon="11.960736158742957"><ele>582.8000000000001</ele><time>2026-03-29T09:21:25Z</time></trkpt><trkpt lat="43.39102205301229" lon="11.960849632470124"><ele>587.4</ele><time>2026-03-29T09:21:26Z</time></trkpt><trkpt lat="43.39100588472966" lon="11.96098492281584"><ele>592.0</ele><time>2026-03-29T09:21:27Z</time></trkpt><trkpt lat="43.39100171905627" lon="11.96111910604414"><ele>594.0</ele><time>2026-03-29T09:21:29Z</time></trkpt><trkpt lat="43.391112601916106" lon="11.96118381733269"><ele>596.0</ele><time>2026-03-29T09:21:31Z</time></trkpt><trkpt lat="43.391187315992696" lon="11.9611916404115"><ele>598.0</ele><time>2026-03-29T09:21:32Z</time></trkpt><trkpt lat="43.39125966930506" lon="11.96121069246334"><ele>600.0</ele><time>2026-03-29T09:21:33Z</time></trkpt><trkpt lat="43.39135741742772" lon="11.961260214286307"><ele>602.0</ele><time>2026-03-29T09:21:34Z</time></trkpt><trkpt lat="43.391456039790484" lon="11.96129058978077"><ele>598.6666666666666</ele><time>2026-03-29T09:21:35Z</time></trkpt><trkpt lat="43.39155097073263" lon="11.961303151852613"><ele>595.3333333333333</ele><time>2026-03-29T09:21:36Z</time></trkpt><trkpt lat="43.391643056906844" lon="11.961323142884462"><ele>592.0</ele><time>2026-03-29T09:21:37Z</time></trkpt><trkpt lat="43.39170270193565" lon="11.96138160102937"><ele>588.6666666666666</ele><time>2026-03-29T09:21:38Z</time></trkpt><trkpt lat="43.391732508344695" lon="11.9614597361994"><ele>585.3333333333334</ele><time>2026-03-29T09:21:39Z</time></trkpt><trkpt lat="43.391744456797525" lon="11.961576702374087"><ele>582.0</ele><time>2026-03-29T09:21:40Z</time></trkpt><trkpt lat="43.391767479416075" lon="11.961719671937246"><ele>582.0</ele><time>2026-03-29T09:21:41Z</time></trkpt><trkpt lat="43.3917829096348" lon="11.961827149150796"><ele>582.0</ele><time>2026-03-29T09:21:42Z</time></trkpt><trkpt lat="43.391764084685924" lon="11.961948921360959"><ele>582.0</ele><time>2026-03-29T09:21:43Z</time></trkpt><trkpt lat="43.39172483416141" lon="11.962078159711504"><ele>582.0</ele><time>2026-03-29T09:21:44Z</time></trkpt><trkpt lat="43.391682692845244" lon="11.96223439973151"><ele>582.0</ele><time>2026-03-29T09:21:45Z</time></trkpt><trkpt lat="43.391638723487105" lon="11.962365534039776"><ele>582.0</ele><time>2026-03-29T09:21:46Z</time></trkpt><trkpt lat="43.391584144702925" lon="11.962481295492157"><ele>582.0</ele><time>2026-03-29T09:21:47Z</time></trkpt><trkpt lat="43.39154170329788" lon="11.962594201246082"><ele>582.0</ele><time>2026-03-29T09:21:48Z</time></trkpt><trkpt lat="43.39148528729659" lon="11.962708351520924"><ele>582.0</ele><time>2026-03-29T09:21:49Z</time></trkpt><trkpt lat="43.39143747582206" lon="11.962818391323287"><ele>582.0</ele><time>2026-03-29T09:21:50Z</time></trkpt><trkpt lat="43.39140662212056" lon="11.962930482342788"><ele>583.8333333333334</ele><time>2026-03-29T09:21:51Z</time></trkpt><trkpt lat="43.39138643470011" lon="11.963015803912414"><ele>585.6666666666666</ele><time>2026-03-29T09:21:52Z</time></trkpt><trkpt lat="43.391415856593945" lon="11.963125700336265"><ele>587.5</ele><time>2026-03-29T09:21:54Z</time></trkpt><trkpt lat="43.39155669392729" lon="11.963135811963635"><ele>589.3333333333333</ele><time>2026-03-29T09:21:56Z</time></trkpt><trkpt lat="43.39164202102386" lon="11.963146848150204"><ele>591.1666666666666</ele><time>2026-03-29T09:21:57Z</time></trkpt><trkpt lat="43.39171116254766" lon="11.96316425635926"><ele>593.0</ele><time>2026-03-29T09:21:58Z</time></trkpt><trkpt lat="43.391785498609096" lon="11.96319339725365"><ele>593.0</ele><time>2026-03-29T09:21:59Z</time></trkpt><trkpt lat="43.39187189643604" lon="11.963225248775805"><ele>593.0</ele><time>2026-03-29T09:22:00Z</time></trkpt><trkpt lat="43.3919509613496" lon="11.96326807860898"><ele>593.0</ele><time>2026-03-29T09:22:01Z</time></trkpt><trkpt lat="43.39204615716603" lon="11.963397389266351"><ele>593.0</ele><time>2026-03-29T09:22:03Z</time></trkpt><trkpt lat="43.3920806061014" lon="11.963513148293126"><ele>593.0</ele><time>2026-03-29T09:22:04Z</time></trkpt><trkpt lat="43.39212017484997" lon="11.963640557451939"><ele>591.6</ele><time>2026-03-29T09:22:05Z</time></trkpt><trkpt lat="43.39215023370403" lon="11.963753394339413"><ele>590.1999999999999</ele><time>2026-03-29T09:22:06Z</time></trkpt><trkpt lat="43.39217463208605" lon="11.963873405460381"><ele>588.8</ele><time>2026-03-29T09:22:07Z</time></trkpt><trkpt lat="43.39217323929148" lon="11.96399815168139"><ele>587.4</ele><time>2026-03-29T09:22:08Z</time></trkpt><trkpt lat="43.3921720417388" lon="11.96412049987991"><ele>586.0</ele><time>2026-03-29T09:22:08.999Z</time></trkpt><trkpt lat="43.39219618697115" lon="11.964331756930633"><ele>586.0</ele><time>2026-03-29T09:22:10.999Z</time></trkpt><trkpt lat="43.39219123219647" lon="11.964456048180947"><ele>586.0</ele><time>2026-03-29T09:22:11.999Z</time></trkpt><trkpt lat="43.392178141093844" lon="11.964588773306408"><ele>586.0</ele><time>2026-03-29T09:22:12.999Z</time></trkpt><trkpt lat="43.39220473534989" lon="11.964695571201194"><ele>586.0</ele><time>2026-03-29T09:22:13.999Z</time></trkpt><trkpt lat="43.392228659815025" lon="11.964789086868768"><ele>586.0</ele><time>2026-03-29T09:22:14.999Z</time></trkpt><trkpt lat="43.39227140231401" lon="11.964862478260628"><ele>586.0</ele><time>2026-03-29T09:22:15.999Z</time></trkpt><trkpt lat="43.392363549398674" lon="11.964880333576284"><ele>586.0</ele><time>2026-03-29T09:22:17.999Z</time></trkpt><trkpt lat="43.3924203644058" lon="11.964808334869202"><ele>586.0</ele><time>2026-03-29T09:22:18.999Z</time></trkpt><trkpt lat="43.392470838570034" lon="11.964703894974653"><ele>586.0</ele><time>2026-03-29T09:22:19.999Z</time></trkpt><trkpt lat="43.39251508834804" lon="11.964579452507259"><ele>586.0</ele><time>2026-03-29T09:22:20.999Z</time></trkpt><trkpt lat="43.39259777910843" lon="11.964369826502175"><ele>586.0</ele><time>2026-03-29T09:22:22.999Z</time></trkpt><trkpt lat="43.39266194378694" lon="11.964259168836408"><ele>584.1666666666667</ele><time>2026-03-29T09:22:23.999Z</time></trkpt><trkpt lat="43.39271585470584" lon="11.96416687114694"><ele>582.3333333333334</ele><time>2026-03-29T09:22:24.999Z</time></trkpt><trkpt lat="43.39278674380658" lon="11.964081748893774"><ele>580.5</ele><time>2026-03-29T09:22:25.999Z</time></trkpt><trkpt lat="43.392847222852744" lon="11.963979913923112"><ele>578.6666666666666</ele><time>2026-03-29T09:22:26.999Z</time></trkpt><trkpt lat="43.392888236174315" lon="11.963893064261105"><ele>576.8333333333333</ele><time>2026-03-29T09:22:27.999Z</time></trkpt><trkpt lat="43.39296375081786" lon="11.963814259118662"><ele>575.0</ele><time>2026-03-29T09:22:29.999Z</time></trkpt><trkpt lat="43.39310154938948" lon="11.963878744458333"><ele>575.0</ele><time>2026-03-29T09:22:31.999Z</time></trkpt><trkpt lat="43.39316896516573" lon="11.963915650684232"><ele>575.0</ele><time>2026-03-29T09:22:32.999Z</time></trkpt><trkpt lat="43.39325007933081" lon="11.96389503210134"><ele>575.0</ele><time>2026-03-29T09:22:34.999Z</time></trkpt><trkpt lat="43.39329746244891" lon="11.96378961603454"><ele>575.0</ele><time>2026-03-29T09:22:36.999Z</time></trkpt><trkpt lat="43.393328737766225" lon="11.963687331942817"><ele>575.0</ele><time>2026-03-29T09:22:37.999Z</time></trkpt><trkpt lat="43.393361522316056" lon="11.96358654354058"><ele>575.0</ele><time>2026-03-29T09:22:38.999Z</time></trkpt><trkpt lat="43.393420458815804" lon="11.96348833104725"><ele>575.0</ele><time>2026-03-29T09:22:39.999Z</time></trkpt><trkpt lat="43.39348597222343" lon="11.963395620282377"><ele>575.0</ele><time>2026-03-29T09:22:40.999Z</time></trkpt><trkpt lat="43.39351998332132" lon="11.963262304897691"><ele>575.0</ele><time>2026-03-29T09:22:41.999Z</time></trkpt><trkpt lat="43.39354827538177" lon="11.963137272522706"><ele>575.0</ele><time>2026-03-29T09:22:42.999Z</time></trkpt><trkpt lat="43.39357467646844" lon="11.963012060592138"><ele>575.0</ele><time>2026-03-29T09:22:43.999Z</time></trkpt><trkpt lat="43.393600640043005" lon="11.962876684222122"><ele>577.3333333333333</ele><time>2026-03-29T09:22:44.999Z</time></trkpt><trkpt lat="43.393637968317385" lon="11.962774633337105"><ele>579.6666666666666</ele><time>2026-03-29T09:22:45.999Z</time></trkpt><trkpt lat="43.39369251913875" lon="11.962716799293466"><ele>582.0</ele><time>2026-03-29T09:22:46.999Z</time></trkpt><trkpt lat="43.393758682011786" lon="11.962638692334249"><ele>584.3333333333334</ele><time>2026-03-29T09:22:47.999Z</time></trkpt><trkpt lat="43.39382539710477" lon="11.962591758249909"><ele>586.6666666666667</ele><time>2026-03-29T09:22:48.999Z</time></trkpt><trkpt lat="43.3938926601213" lon="11.962557541776626"><ele>589.0</ele><time>2026-03-29T09:22:49.999Z</time></trkpt><trkpt lat="43.394006188307294" lon="11.962567358631539"><ele>589.0</ele><time>2026-03-29T09:22:51.999Z</time></trkpt><trkpt lat="43.39407706259118" lon="11.962593873914825"><ele>589.0</ele><time>2026-03-29T09:22:52.999Z</time></trkpt><trkpt lat="43.394168520795546" lon="11.962642195391965"><ele>589.0</ele><time>2026-03-29T09:22:53.999Z</time></trkpt><trkpt lat="43.39427906918511" lon="11.962708402571941"><ele>589.0</ele><time>2026-03-29T09:22:54.999Z</time></trkpt><trkpt lat="43.39437095593093" lon="11.962736039882572"><ele>589.0</ele><time>2026-03-29T09:22:55.999Z</time></trkpt><trkpt lat="43.3944413114251" lon="11.962723943607863"><ele>589.0</ele><time>2026-03-29T09:22:56.999Z</time></trkpt><trkpt lat="43.39452059825381" lon="11.96268412565319"><ele>589.0</ele><time>2026-03-29T09:22:57.999Z</time></trkpt><trkpt lat="43.39458719141861" lon="11.96263710723215"><ele>589.0</ele><time>2026-03-29T09:22:58.999Z</time></trkpt><trkpt lat="43.39465197429044" lon="11.962568683562438"><ele>589.0</ele><time>2026-03-29T09:22:59.999Z</time></trkpt><trkpt lat="43.394717003908546" lon="11.962478533687158"><ele>589.0</ele><time>2026-03-29T09:23:00.999Z</time></trkpt><trkpt lat="43.39474093335646" lon="11.96236336252054"><ele>589.0</ele><time>2026-03-29T09:23:01.999Z</time></trkpt><trkpt lat="43.394832399986186" lon="11.962274963972744"><ele>589.2</ele><time>2026-03-29T09:23:03.999Z</time></trkpt><trkpt lat="43.394897264299914" lon="11.962293120453252"><ele>589.4</ele><time>2026-03-29T09:23:04.999Z</time></trkpt><trkpt lat="43.39495065223807" lon="11.962344968948287"><ele>589.6</ele><time>2026-03-29T09:23:05.999Z</time></trkpt><trkpt lat="43.39502776217443" lon="11.962431899882949"><ele>589.8</ele><time>2026-03-29T09:23:06.999Z</time></trkpt><trkpt lat="43.39511850877125" lon="11.962530047527435"><ele>590.0</ele><time>2026-03-29T09:23:07.999Z</time></trkpt><trkpt lat="43.395215389019505" lon="11.962639820350459"><ele>590.0</ele><time>2026-03-29T09:23:08.999Z</time></trkpt><trkpt lat="43.395296498976045" lon="11.96273572179797"><ele>590.0</ele><time>2026-03-29T09:23:09.999Z</time></trkpt><trkpt lat="43.39539685716403" lon="11.962813788827562"><ele>590.0</ele><time>2026-03-29T09:23:10.998Z</time></trkpt><trkpt lat="43.395508462374664" lon="11.962876707620238"><ele>590.0</ele><time>2026-03-29T09:23:11.998Z</time></trkpt><trkpt lat="43.395608066160264" lon="11.962928670356591"><ele>590.0</ele><time>2026-03-29T09:23:12.998Z</time></trkpt><trkpt lat="43.395676440942" lon="11.962969740496971"><ele>588.0</ele><time>2026-03-29T09:23:13.998Z</time></trkpt><trkpt lat="43.395753094669224" lon="11.963001017733902"><ele>586.0</ele><time>2026-03-29T09:23:14.998Z</time></trkpt><trkpt lat="43.39582830690577" lon="11.963004752617191"><ele>584.0</ele><time>2026-03-29T09:23:15.998Z</time></trkpt><trkpt lat="43.39587683386817" lon="11.963062166757584"><ele>582.0</ele><time>2026-03-29T09:23:17.998Z</time></trkpt><trkpt lat="43.3958211290389" lon="11.96315868239665"><ele>580.0</ele><time>2026-03-29T09:23:19.998Z</time></trkpt><trkpt lat="43.395755092786644" lon="11.963216273250524"><ele>578.0</ele><time>2026-03-29T09:23:20.998Z</time></trkpt><trkpt lat="43.39567419874352" lon="11.963284796722784"><ele>578.0</ele><time>2026-03-29T09:23:21.998Z</time></trkpt><trkpt lat="43.395565060909064" lon="11.963339756018083"><ele>578.0</ele><time>2026-03-29T09:23:22.998Z</time></trkpt><trkpt lat="43.39546179207162" lon="11.963416684624553"><ele>578.0</ele><time>2026-03-29T09:23:23.998Z</time></trkpt><trkpt lat="43.395383779403964" lon="11.963522990691503"><ele>578.0</ele><time>2026-03-29T09:23:24.998Z</time></trkpt><trkpt lat="43.39534172306868" lon="11.963602965903641"><ele>578.0</ele><time>2026-03-29T09:23:25.998Z</time></trkpt><trkpt lat="43.39527691601288" lon="11.963631742897771"><ele>580.8</ele><time>2026-03-29T09:23:27.998Z</time></trkpt><trkpt lat="43.39515187454037" lon="11.96369075690014"><ele>583.5999999999999</ele><time>2026-03-29T09:23:29.998Z</time></trkpt><trkpt lat="43.395094238758" lon="11.963771370857557"><ele>586.4000000000001</ele><time>2026-03-29T09:23:31Z</time></trkpt><trkpt lat="43.395059440308614" lon="11.963862171189968"><ele>589.2</ele><time>2026-03-29T09:23:32Z</time></trkpt><trkpt lat="43.39502240399041" lon="11.963976087778788"><ele>592.0</ele><time>2026-03-29T09:23:33Z</time></trkpt><trkpt lat="43.39496861372907" lon="11.964106111327945"><ele>592.6</ele><time>2026-03-29T09:23:34Z</time></trkpt><trkpt lat="43.39491526846388" lon="11.964211856290076"><ele>593.2</ele><time>2026-03-29T09:23:35Z</time></trkpt><trkpt lat="43.39485975875005" lon="11.964287506637222"><ele>593.8</ele><time>2026-03-29T09:23:36Z</time></trkpt><trkpt lat="43.394778954929876" lon="11.964342055206863"><ele>594.4</ele><time>2026-03-29T09:23:37Z</time></trkpt><trkpt lat="43.39469783712285" lon="11.964404028367845"><ele>595.0</ele><time>2026-03-29T09:23:38Z</time></trkpt><trkpt lat="43.39461204130913" lon="11.96447301857773"><ele>595.0</ele><time>2026-03-29T09:23:39Z</time></trkpt><trkpt lat="43.39455130949856" lon="11.964543132295503"><ele>595.0</ele><time>2026-03-29T09:23:40Z</time></trkpt><trkpt lat="43.394485768779504" lon="11.96462577766705"><ele>595.0</ele><time>2026-03-29T09:23:41Z</time></trkpt><trkpt lat="43.39440611396528" lon="11.964709068841707"><ele>595.0</ele><time>2026-03-29T09:23:42Z</time></trkpt><trkpt lat="43.39434303839544" lon="11.964797869863522"><ele>595.0</ele><time>2026-03-29T09:23:43Z</time></trkpt><trkpt lat="43.39426960936256" lon="11.964873833828928"><ele>595.0</ele><time>2026-03-29T09:23:44Z</time></trkpt><trkpt lat="43.39419168682293" lon="11.964909608962236"><ele>595.0</ele><time>2026-03-29T09:23:45Z</time></trkpt><trkpt lat="43.394117077927554" lon="11.964983864431288"><ele>595.0</ele><time>2026-03-29T09:23:47Z</time></trkpt><trkpt lat="43.39410605466886" lon="11.965099465615358"><ele>595.0</ele><time>2026-03-29T09:23:48Z</time></trkpt><trkpt lat="43.39408202428576" lon="11.965277073379204"><ele>595.0</ele><time>2026-03-29T09:23:49Z</time></trkpt><trkpt lat="43.394032482808285" lon="11.965436388790842"><ele>596.3333333333334</ele><time>2026-03-29T09:23:50Z</time></trkpt><trkpt lat="43.393987999042196" lon="11.965552420888914"><ele>597.6666666666667</ele><time>2026-03-29T09:23:51Z</time></trkpt><trkpt lat="43.39400154220852" lon="11.965683279321677"><ele>599.0</ele><time>2026-03-29T09:23:53Z</time></trkpt><trkpt lat="43.39406209878317" lon="11.965748568110977"><ele>600.3333333333334</ele><time>2026-03-29T09:23:54Z</time></trkpt><trkpt lat="43.394109769773365" lon="11.965806669401516"><ele>601.6666666666666</ele><time>2026-03-29T09:23:55Z</time></trkpt><trkpt lat="43.39406697420767" lon="11.965931173608118"><ele>603.0</ele><time>2026-03-29T09:23:57Z</time></trkpt><trkpt lat="43.393978915499545" lon="11.965993933448534"><ele>606.0</ele><time>2026-03-29T09:23:58Z</time></trkpt><trkpt lat="43.39388953434606" lon="11.966027946445896"><ele>609.0</ele><time>2026-03-29T09:23:59Z</time></trkpt><trkpt lat="43.39380763267118" lon="11.966078716602185"><ele>612.0</ele><time>2026-03-29T09:24:00Z</time></trkpt><trkpt lat="43.39374941998628" lon="11.966164462939135"><ele>615.0</ele><time>2026-03-29T09:24:01Z</time></trkpt><trkpt lat="43.39369390926707" lon="11.966267222105312"><ele>618.0</ele><time>2026-03-29T09:24:02Z</time></trkpt><trkpt lat="43.3936602748922" lon="11.966345135697322"><ele>621.0</ele><time>2026-03-29T09:24:03Z</time></trkpt><trkpt lat="43.39372686295391" lon="11.966475547431838"><ele>620.9999999999999</ele><time>2026-03-29T09:24:05Z</time></trkpt><trkpt lat="43.39379520586826" lon="11.966454270476031"><ele>621.0</ele><time>2026-03-29T09:24:06Z</time></trkpt><trkpt lat="43.39385911313064" lon="11.966400812552003"><ele>621.0</ele><time>2026-03-29T09:24:07Z</time></trkpt><trkpt lat="43.393917273179" lon="11.966351745259887"><ele>621.0</ele><time>2026-03-29T09:24:08Z</time></trkpt><trkpt lat="43.393956538499836" lon="11.966431992540773"><ele>621.0</ele><time>2026-03-29T09:24:10Z</time></trkpt><trkpt lat="43.39392406129119" lon="11.966518618569118"><ele>620.9999999999999</ele><time>2026-03-29T09:24:11Z</time></trkpt><trkpt lat="43.393888447483114" lon="11.966593222758071"><ele>621.0</ele><time>2026-03-29T09:24:12Z</time></trkpt><trkpt lat="43.39384644251576" lon="11.9666610706971"><ele>622.5</ele><time>2026-03-29T09:24:13Z</time></trkpt><trkpt lat="43.393788422481" lon="11.96669996041823"><ele>624.0</ele><time>2026-03-29T09:24:13.999Z</time></trkpt><trkpt lat="43.393726679029115" lon="11.966768699925042"><ele>625.5</ele><time>2026-03-29T09:24:14.999Z</time></trkpt><trkpt lat="43.39372125378736" lon="11.966863255854886"><ele>627.0</ele><time>2026-03-29T09:24:16.999Z</time></trkpt><trkpt lat="43.393824107133476" lon="11.966964356728676"><ele>628.5</ele><time>2026-03-29T09:24:18.999Z</time></trkpt><trkpt lat="43.39388437970806" lon="11.96705542549715"><ele>630.0</ele><time>2026-03-29T09:24:19.999Z</time></trkpt><trkpt lat="43.39394152861896" lon="11.967165853794482"><ele>630.0</ele><time>2026-03-29T09:24:20.999Z</time></trkpt><trkpt lat="43.393959404814574" lon="11.967276779123184"><ele>630.0</ele><time>2026-03-29T09:24:21.999Z</time></trkpt><trkpt lat="43.39392988415739" lon="11.967370259802488"><ele>630.0</ele><time>2026-03-29T09:24:22.999Z</time></trkpt><trkpt lat="43.39381225563613" lon="11.967378541293138"><ele>630.0</ele><time>2026-03-29T09:24:24.999Z</time></trkpt><trkpt lat="43.39369395304543" lon="11.967331305845526"><ele>630.0</ele><time>2026-03-29T09:24:26.999Z</time></trkpt><trkpt lat="43.39365335132865" lon="11.96744199233895"><ele>634.6666666666666</ele><time>2026-03-29T09:24:28.999Z</time></trkpt><trkpt lat="43.393667775935405" lon="11.967537879214916"><ele>639.3333333333334</ele><time>2026-03-29T09:24:29.999Z</time></trkpt><trkpt lat="43.39367679425891" lon="11.967636323871869"><ele>644.0</ele><time>2026-03-29T09:24:30.999Z</time></trkpt><trkpt lat="43.3936254915892" lon="11.967801564302782"><ele>648.6666666666667</ele><time>2026-03-29T09:24:32.999Z</time></trkpt><trkpt lat="43.39356535972299" lon="11.967866494345923"><ele>653.3333333333334</ele><time>2026-03-29T09:24:33.999Z</time></trkpt><trkpt lat="43.39351412136717" lon="11.967979321067963"><ele>658.0</ele><time>2026-03-29T09:24:34.999Z</time></trkpt><trkpt lat="43.39348096247962" lon="11.968100299385634"><ele>658.0</ele><time>2026-03-29T09:24:35.999Z</time></trkpt><trkpt lat="43.393444811893424" lon="11.968225705644695"><ele>658.0</ele><time>2026-03-29T09:24:36.999Z</time></trkpt><trkpt lat="43.39341428833763" lon="11.968356214803253"><ele>658.0</ele><time>2026-03-29T09:24:37.999Z</time></trkpt><trkpt lat="43.39338550111656" lon="11.968502125978937"><ele>658.0</ele><time>2026-03-29T09:24:38.999Z</time></trkpt><trkpt lat="43.39333947457918" lon="11.968658535954011"><ele>658.0</ele><time>2026-03-29T09:24:39.999Z</time></trkpt><trkpt lat="43.39329524091964" lon="11.968781839151738"><ele>660.0</ele><time>2026-03-29T09:24:40.999Z</time></trkpt><trkpt lat="43.39326484321169" lon="11.96887181747232"><ele>662.0</ele><time>2026-03-29T09:24:41.999Z</time></trkpt><trkpt lat="43.393258575255764" lon="11.968987553799456"><ele>664.0</ele><time>2026-03-29T09:24:42.999Z</time></trkpt><trkpt lat="43.39327655945243" lon="11.969140290928582"><ele>666.0</ele><time>2026-03-29T09:24:43.999Z</time></trkpt><trkpt lat="43.39331715842002" lon="11.969265784982799"><ele>668.0</ele><time>2026-03-29T09:24:44.999Z</time></trkpt><trkpt lat="43.393366851109604" lon="11.96934235165265"><ele>670.0</ele><time>2026-03-29T09:24:45.999Z</time></trkpt><trkpt lat="43.39342203251301" lon="11.96942839359925"><ele>671.3333333333334</ele><time>2026-03-29T09:24:46.999Z</time></trkpt><trkpt lat="43.393475507884006" lon="11.969536792817777"><ele>672.6666666666667</ele><time>2026-03-29T09:24:47.999Z</time></trkpt><trkpt lat="43.393526455738275" lon="11.969651213769685"><ele>674.0</ele><time>2026-03-29T09:24:48.999Z</time></trkpt><trkpt lat="43.393553414054146" lon="11.969745043774058"><ele>675.3333333333334</ele><time>2026-03-29T09:24:49.999Z</time></trkpt><trkpt lat="43.393559009984905" lon="11.969837502332508"><ele>676.6666666666666</ele><time>2026-03-29T09:24:50.999Z</time></trkpt><trkpt lat="43.393541056028326" lon="11.969944441655013"><ele>678.0</ele><time>2026-03-29T09:24:51.999Z</time></trkpt><trkpt lat="43.39349590505038" lon="11.970035861820108"><ele>679.5999999999999</ele><time>2026-03-29T09:24:52.999Z</time></trkpt><trkpt lat="43.3934445847633" lon="11.970126842772151"><ele>681.1999999999999</ele><time>2026-03-29T09:24:53.999Z</time></trkpt><trkpt lat="43.393376885972906" lon="11.97017738413647"><ele>682.8</ele><time>2026-03-29T09:24:54.999Z</time></trkpt><trkpt lat="43.39327888688922" lon="11.970226409386267"><ele>684.4</ele><time>2026-03-29T09:24:55.999Z</time></trkpt><trkpt lat="43.39317382514085" lon="11.97029699790923"><ele>686.0</ele><time>2026-03-29T09:24:56.999Z</time></trkpt><trkpt lat="43.393066113573504" lon="11.970369494320458"><ele>686.0</ele><time>2026-03-29T09:24:57.999Z</time></trkpt><trkpt lat="43.39297443691492" lon="11.970425388733238"><ele>686.0</ele><time>2026-03-29T09:24:59.999Z</time></trkpt><trkpt lat="43.39298160833864" lon="11.970527698672962"><ele>686.0</ele><time>2026-03-29T09:26:40.999Z</time></trkpt><trkpt lat="43.393020296920696" lon="11.970596643428232"><ele>686.0</ele><time>2026-03-29T09:26:41.999Z</time></trkpt><trkpt lat="43.39307188128012" lon="11.970662569360668"><ele>686.0</ele><time>2026-03-29T09:26:42.999Z</time></trkpt><trkpt lat="43.393123294007054" lon="11.97073701733118"><ele>686.0</ele><time>2026-03-29T09:26:43.999Z</time></trkpt><trkpt lat="43.39316770860646" lon="11.970822671407879"><ele>690.4</ele><time>2026-03-29T09:26:44.999Z</time></trkpt><trkpt lat="43.39321078144818" lon="11.970912339251615"><ele>694.8</ele><time>2026-03-29T09:26:45.999Z</time></trkpt><trkpt lat="43.39326912190944" lon="11.970985582260841"><ele>699.1999999999999</ele><time>2026-03-29T09:26:46.999Z</time></trkpt><trkpt lat="43.39334620857426" lon="11.971061142867692"><ele>703.5999999999999</ele><time>2026-03-29T09:26:47.999Z</time></trkpt><trkpt lat="43.393438618305765" lon="11.97112742505123"><ele>708.0</ele><time>2026-03-29T09:26:48.999Z</time></trkpt><trkpt lat="43.3935371841415" lon="11.971151876648628"><ele>708.0</ele><time>2026-03-29T09:26:49.999Z</time></trkpt><trkpt lat="43.39364135920302" lon="11.971169776880357"><ele>708.0</ele><time>2026-03-29T09:26:50.999Z</time></trkpt><trkpt lat="43.393741679447956" lon="11.971193476674967"><ele>708.0</ele><time>2026-03-29T09:26:51.999Z</time></trkpt><trkpt lat="43.39383415683937" lon="11.971239895412902"><ele>708.0</ele><time>2026-03-29T09:26:52.999Z</time></trkpt><trkpt lat="43.393923937070234" lon="11.971314092097378"><ele>708.0</ele><time>2026-03-29T09:26:53.999Z</time></trkpt><trkpt lat="43.394005748879046" lon="11.971407879913857"><ele>706.5999999999999</ele><time>2026-03-29T09:26:54.999Z</time></trkpt><trkpt lat="43.39407290607152" lon="11.971499116901326"><ele>705.1999999999999</ele><time>2026-03-29T09:26:55.999Z</time></trkpt><trkpt lat="43.394156462914694" lon="11.971582958423316"><ele>703.8</ele><time>2026-03-29T09:26:56.999Z</time></trkpt><trkpt lat="43.39424388350222" lon="11.971635101080077"><ele>702.4</ele><time>2026-03-29T09:26:57.999Z</time></trkpt><trkpt lat="43.39433082624367" lon="11.971678193858997"><ele>701.0</ele><time>2026-03-29T09:26:58.999Z</time></trkpt><trkpt lat="43.39442663425355" lon="11.971704697372218"><ele>701.0</ele><time>2026-03-29T09:26:59.999Z</time></trkpt><trkpt lat="43.39452839381986" lon="11.97174353192061"><ele>701.0</ele><time>2026-03-29T09:27:00.999Z</time></trkpt><trkpt lat="43.39462053229694" lon="11.97180441731418"><ele>701.0</ele><time>2026-03-29T09:27:01.999Z</time></trkpt><trkpt lat="43.39470832087228" lon="11.971880835695933"><ele>701.0</ele><time>2026-03-29T09:27:02.999Z</time></trkpt><trkpt lat="43.3948125223396" lon="11.971978337142625"><ele>701.0</ele><time>2026-03-29T09:27:03.999Z</time></trkpt><trkpt lat="43.39490692338197" lon="11.97206085951893"><ele>696.1999999999999</ele><time>2026-03-29T09:27:04.999Z</time></trkpt><trkpt lat="43.39499085506974" lon="11.972139803330498"><ele>691.4</ele><time>2026-03-29T09:27:05.999Z</time></trkpt><trkpt lat="43.39506612012279" lon="11.972222591572814"><ele>686.6</ele><time>2026-03-29T09:27:06.999Z</time></trkpt><trkpt lat="43.39513361283515" lon="11.97230710872574"><ele>681.8</ele><time>2026-03-29T09:27:07.999Z</time></trkpt><trkpt lat="43.39520874146901" lon="11.972404889157502"><ele>677.0</ele><time>2026-03-29T09:27:08.999Z</time></trkpt><trkpt lat="43.39528362454218" lon="11.9725179550856"><ele>675.75</ele><time>2026-03-29T09:27:09.999Z</time></trkpt><trkpt lat="43.39536557466799" lon="11.972638673078597"><ele>674.5</ele><time>2026-03-29T09:27:10.999Z</time></trkpt><trkpt lat="43.39544257252658" lon="11.972749800211144"><ele>673.25</ele><time>2026-03-29T09:27:11.999Z</time></trkpt><trkpt lat="43.39551488481429" lon="11.972857865850605"><ele>672.0</ele><time>2026-03-29T09:27:12.999Z</time></trkpt><trkpt lat="43.395589199660094" lon="11.97297504994664"><ele>669.5</ele><time>2026-03-29T09:27:13.999Z</time></trkpt><trkpt lat="43.395673200103815" lon="11.973097139421796"><ele>667.0</ele><time>2026-03-29T09:27:14.999Z</time></trkpt><trkpt lat="43.395752352042386" lon="11.973201904621328"><ele>664.5</ele><time>2026-03-29T09:27:15.999Z</time></trkpt><trkpt lat="43.39584347742733" lon="11.973283276582737"><ele>662.0</ele><time>2026-03-29T09:27:16.999Z</time></trkpt><trkpt lat="43.39595492067185" lon="11.973340534204358"><ele>658.75</ele><time>2026-03-29T09:27:17.999Z</time></trkpt><trkpt lat="43.39607739738089" lon="11.973378068760773"><ele>655.5</ele><time>2026-03-29T09:27:18.999Z</time></trkpt><trkpt lat="43.39618717181699" lon="11.973406374311779"><ele>652.25</ele><time>2026-03-29T09:27:19.999Z</time></trkpt><trkpt lat="43.39629231421528" lon="11.973449111539058"><ele>649.0</ele><time>2026-03-29T09:27:20.999Z</time></trkpt><trkpt lat="43.396389212823806" lon="11.973522982197533"><ele>648.75</ele><time>2026-03-29T09:27:21.998Z</time></trkpt><trkpt lat="43.3964794284041" lon="11.973631937326262"><ele>648.5</ele><time>2026-03-29T09:27:22.998Z</time></trkpt><trkpt lat="43.39655139042636" lon="11.973758774863299"><ele>648.25</ele><time>2026-03-29T09:27:23.998Z</time></trkpt><trkpt lat="43.396613868901845" lon="11.973882843033252"><ele>648.0</ele><time>2026-03-29T09:27:24.998Z</time></trkpt><trkpt lat="43.396681286252466" lon="11.973998368788767"><ele>648.0</ele><time>2026-03-29T09:27:25.998Z</time></trkpt><trkpt lat="43.39675366734109" lon="11.974091773466208"><ele>648.0</ele><time>2026-03-29T09:27:26.998Z</time></trkpt><trkpt lat="43.396838257894416" lon="11.974155486753943"><ele>648.0</ele><time>2026-03-29T09:27:27.998Z</time></trkpt><trkpt lat="43.39693430956926" lon="11.974202226254095"><ele>648.0</ele><time>2026-03-29T09:27:28.998Z</time></trkpt><trkpt lat="43.397015999585626" lon="11.974211751373158"><ele>648.0</ele><time>2026-03-29T09:27:29.998Z</time></trkpt><trkpt lat="43.39708757580384" lon="11.974177899484573"><ele>648.0</ele><time>2026-03-29T09:27:30.998Z</time></trkpt><trkpt lat="43.39716730137144" lon="11.974104932484513"><ele>648.0</ele><time>2026-03-29T09:27:31.998Z</time></trkpt><trkpt lat="43.39724055580556" lon="11.974019644121476"><ele>648.0</ele><time>2026-03-29T09:27:32.998Z</time></trkpt><trkpt lat="43.397317078566445" lon="11.97396412502474"><ele>648.0</ele><time>2026-03-29T09:27:33.998Z</time></trkpt><trkpt lat="43.39741565095964" lon="11.973940320079377"><ele>648.0</ele><time>2026-03-29T09:27:34.998Z</time></trkpt><trkpt lat="43.397508631942245" lon="11.973976329545524"><ele>647.2</ele><time>2026-03-29T09:27:35.998Z</time></trkpt><trkpt lat="43.39759054038534" lon="11.974058243344883"><ele>646.4</ele><time>2026-03-29T09:27:36.998Z</time></trkpt><trkpt lat="43.39762579756299" lon="11.974162306201872"><ele>645.6</ele><time>2026-03-29T09:27:37.998Z</time></trkpt><trkpt lat="43.39764603920607" lon="11.974280883955585"><ele>644.8000000000001</ele><time>2026-03-29T09:27:38.998Z</time></trkpt><trkpt lat="43.397693257722224" lon="11.974393884770857"><ele>644.0</ele><time>2026-03-29T09:27:39.998Z</time></trkpt><trkpt lat="43.39776917958215" lon="11.97448625964857"><ele>643.2</ele><time>2026-03-29T09:27:40.998Z</time></trkpt><trkpt lat="43.397858383506964" lon="11.974550277289337"><ele>642.4000000000001</ele><time>2026-03-29T09:27:41.998Z</time></trkpt><trkpt lat="43.39795945442984" lon="11.974596412946187"><ele>641.6</ele><time>2026-03-29T09:27:43Z</time></trkpt><trkpt lat="43.39806547484108" lon="11.974630119737652"><ele>640.8</ele><time>2026-03-29T09:27:44Z</time></trkpt><trkpt lat="43.398166461350776" lon="11.974669401105913"><ele>640.0</ele><time>2026-03-29T09:27:45Z</time></trkpt><trkpt lat="43.39826118348203" lon="11.974720453211884"><ele>640.0</ele><time>2026-03-29T09:27:46Z</time></trkpt><trkpt lat="43.39835645831425" lon="11.974772665167707"><ele>640.0</ele><time>2026-03-29T09:27:47Z</time></trkpt><trkpt lat="43.39844618166469" lon="11.974846658815716"><ele>640.0</ele><time>2026-03-29T09:27:48Z</time></trkpt><trkpt lat="43.398527698048994" lon="11.974942009851507"><ele>640.0</ele><time>2026-03-29T09:27:49Z</time></trkpt><trkpt lat="43.39859873431804" lon="11.975068970379768"><ele>640.0</ele><time>2026-03-29T09:27:50Z</time></trkpt><trkpt lat="43.398645971755876" lon="11.975216480021091"><ele>639.2</ele><time>2026-03-29T09:27:51Z</time></trkpt><trkpt lat="43.39869126705261" lon="11.975368253019116"><ele>638.4</ele><time>2026-03-29T09:27:52Z</time></trkpt><trkpt lat="43.398721269629256" lon="11.975501440248742"><ele>637.6</ele><time>2026-03-29T09:27:53Z</time></trkpt><trkpt lat="43.39875925904517" lon="11.975639456489498"><ele>636.8</ele><time>2026-03-29T09:27:54Z</time></trkpt><trkpt lat="43.398781678220715" lon="11.975773914322492"><ele>636.0</ele><time>2026-03-29T09:27:55Z</time></trkpt><trkpt lat="43.39876958711686" lon="11.975895928615508"><ele>636.0</ele><time>2026-03-29T09:27:56Z</time></trkpt><trkpt lat="43.39872514667396" lon="11.976018610718455"><ele>636.0</ele><time>2026-03-29T09:27:57Z</time></trkpt><trkpt lat="43.3986532685652" lon="11.976134603863178"><ele>636.0</ele><time>2026-03-29T09:27:58Z</time></trkpt><trkpt lat="43.39856825304105" lon="11.976187178919073"><ele>636.0</ele><time>2026-03-29T09:27:59Z</time></trkpt><trkpt lat="43.398502641882146" lon="11.976257099883004"><ele>636.0</ele><time>2026-03-29T09:28:00Z</time></trkpt><trkpt lat="43.398464266174585" lon="11.976337002675493"><ele>636.0</ele><time>2026-03-29T09:28:01Z</time></trkpt><trkpt lat="43.3984347048347" lon="11.976432334647425"><ele>636.0</ele><time>2026-03-29T09:28:02Z</time></trkpt><trkpt lat="43.3984273388692" lon="11.976545108633687"><ele>636.0</ele><time>2026-03-29T09:28:03Z</time></trkpt><trkpt lat="43.398446505363445" lon="11.976689025619766"><ele>636.0</ele><time>2026-03-29T09:28:04Z</time></trkpt><trkpt lat="43.3985051779444" lon="11.97682792560813"><ele>636.0</ele><time>2026-03-29T09:28:05Z</time></trkpt><trkpt lat="43.39858296166665" lon="11.976956773638827"><ele>635.8</ele><time>2026-03-29T09:28:06Z</time></trkpt><trkpt lat="43.39866325302026" lon="11.97706612830696"><ele>635.6</ele><time>2026-03-29T09:28:07Z</time></trkpt><trkpt lat="43.398736291435924" lon="11.977155719364337"><ele>635.4</ele><time>2026-03-29T09:28:08Z</time></trkpt><trkpt lat="43.39880498390353" lon="11.9772330781146"><ele>635.2</ele><time>2026-03-29T09:28:09Z</time></trkpt><trkpt lat="43.39887950881133" lon="11.97729093508585"><ele>635.0</ele><time>2026-03-29T09:28:10Z</time></trkpt><trkpt lat="43.39897059775081" lon="11.977349714235887"><ele>635.0</ele><time>2026-03-29T09:28:11Z</time></trkpt><trkpt lat="43.39906758388975" lon="11.9774065055299"><ele>635.0</ele><time>2026-03-29T09:28:12Z</time></trkpt><trkpt lat="43.39914698119486" lon="11.977470729238224"><ele>635.0</ele><time>2026-03-29T09:28:13Z</time></trkpt><trkpt lat="43.39920132984681" lon="11.977565172616142"><ele>635.0</ele><time>2026-03-29T09:28:14Z</time></trkpt><trkpt lat="43.39922260647068" lon="11.977692268762251"><ele>635.0</ele><time>2026-03-29T09:28:15Z</time></trkpt><trkpt lat="43.39923691933449" lon="11.977828582906758"><ele>632.0</ele><time>2026-03-29T09:28:16Z</time></trkpt><trkpt lat="43.39924343715106" lon="11.977949597927623"><ele>629.0</ele><time>2026-03-29T09:28:17Z</time></trkpt><trkpt lat="43.39926505966282" lon="11.978050759702926"><ele>626.0</ele><time>2026-03-29T09:28:18Z</time></trkpt><trkpt lat="43.39931959063783" lon="11.978124520171761"><ele>623.0</ele><time>2026-03-29T09:28:19Z</time></trkpt><trkpt lat="43.39939087949682" lon="11.978162603300094"><ele>620.0</ele><time>2026-03-29T09:28:20Z</time></trkpt><trkpt lat="43.39948557457939" lon="11.978183882862242"><ele>617.0</ele><time>2026-03-29T09:28:21Z</time></trkpt><trkpt lat="43.399586266318146" lon="11.97819709470288"><ele>617.75</ele><time>2026-03-29T09:28:22Z</time></trkpt><trkpt lat="43.3996942686459" lon="11.978172198823179"><ele>618.5</ele><time>2026-03-29T09:28:23Z</time></trkpt><trkpt lat="43.39979631977803" lon="11.97809165836668"><ele>619.25</ele><time>2026-03-29T09:28:24Z</time></trkpt><trkpt lat="43.399877491434786" lon="11.977968030056084"><ele>620.0</ele><time>2026-03-29T09:28:25Z</time></trkpt><trkpt lat="43.399966181647414" lon="11.977833372152855"><ele>620.0</ele><time>2026-03-29T09:28:26Z</time></trkpt><trkpt lat="43.40003802581605" lon="11.977747062696919"><ele>620.0</ele><time>2026-03-29T09:28:27Z</time></trkpt><trkpt lat="43.40012250781598" lon="11.977672618444286"><ele>620.0</ele><time>2026-03-29T09:28:27.999Z</time></trkpt><trkpt lat="43.40020575249707" lon="11.97762293638414"><ele>620.0</ele><time>2026-03-29T09:28:28.999Z</time></trkpt><trkpt lat="43.400288792724545" lon="11.977588096268448"><ele>620.0</ele><time>2026-03-29T09:28:29.999Z</time></trkpt><trkpt lat="43.4003752138798" lon="11.977561485633265"><ele>620.0</ele><time>2026-03-29T09:28:30.999Z</time></trkpt><trkpt lat="43.40047532215991" lon="11.977529446888298"><ele>620.0</ele><time>2026-03-29T09:28:31.999Z</time></trkpt><trkpt lat="43.40057737183788" lon="11.97752942193041"><ele>620.0</ele><time>2026-03-29T09:28:32.999Z</time></trkpt><trkpt lat="43.4006644280338" lon="11.977605475395274"><ele>620.0</ele><time>2026-03-29T09:28:33.999Z</time></trkpt><trkpt lat="43.40073544964198" lon="11.977734478372026"><ele>620.0</ele><time>2026-03-29T09:28:34.999Z</time></trkpt><trkpt lat="43.400798452094826" lon="11.977868099100572"><ele>616.6</ele><time>2026-03-29T09:28:35.999Z</time></trkpt><trkpt lat="43.40086347170745" lon="11.977974446635907"><ele>613.2</ele><time>2026-03-29T09:28:36.999Z</time></trkpt><trkpt lat="43.40094048926767" lon="11.978059613109682"><ele>609.8</ele><time>2026-03-29T09:28:37.999Z</time></trkpt><trkpt lat="43.40101489033734" lon="11.978139164935904"><ele>606.4</ele><time>2026-03-29T09:28:38.999Z</time></trkpt><trkpt lat="43.401113449612005" lon="11.97821196998388"><ele>603.0</ele><time>2026-03-29T09:28:39.999Z</time></trkpt><trkpt lat="43.40122677297727" lon="11.978274759874846"><ele>603.4</ele><time>2026-03-29T09:28:40.999Z</time></trkpt><trkpt lat="43.40134130349573" lon="11.978309266241714"><ele>603.8</ele><time>2026-03-29T09:28:41.999Z</time></trkpt><trkpt lat="43.40144227612202" lon="11.978330124445954"><ele>604.2</ele><time>2026-03-29T09:28:42.999Z</time></trkpt><trkpt lat="43.40154992570982" lon="11.978352970478376"><ele>604.6</ele><time>2026-03-29T09:28:43.999Z</time></trkpt><trkpt lat="43.40164778473012" lon="11.978358575848176"><ele>605.0</ele><time>2026-03-29T09:28:44.999Z</time></trkpt><trkpt lat="43.40174361360539" lon="11.97833525825359"><ele>605.0</ele><time>2026-03-29T09:28:45.999Z</time></trkpt><trkpt lat="43.40183090824673" lon="11.978268256590939"><ele>605.0</ele><time>2026-03-29T09:28:46.999Z</time></trkpt><trkpt lat="43.40192398957774" lon="11.978230651347864"><ele>605.0</ele><time>2026-03-29T09:28:47.999Z</time></trkpt><trkpt lat="43.40201503298213" lon="11.978266096803852"><ele>605.0</ele><time>2026-03-29T09:28:48.999Z</time></trkpt><trkpt lat="43.40209614501943" lon="11.978361263870374"><ele>605.0</ele><time>2026-03-29T09:28:49.999Z</time></trkpt><trkpt lat="43.40217889515162" lon="11.978491149913058"><ele>600.8</ele><time>2026-03-29T09:28:50.999Z</time></trkpt><trkpt lat="43.402252346690936" lon="11.978609090058391"><ele>596.6</ele><time>2026-03-29T09:28:51.999Z</time></trkpt><trkpt lat="43.40232162874511" lon="11.978728844429442"><ele>592.4</ele><time>2026-03-29T09:28:52.999Z</time></trkpt><trkpt lat="43.40237381989977" lon="11.978828830356777"><ele>588.2</ele><time>2026-03-29T09:28:53.999Z</time></trkpt><trkpt lat="43.402423526865064" lon="11.978886327673516"><ele>584.0</ele><time>2026-03-29T09:28:54.999Z</time></trkpt><trkpt lat="43.40250290133669" lon="11.978911426906778"><ele>584.0</ele><time>2026-03-29T09:28:55.999Z</time></trkpt><trkpt lat="43.40257813046525" lon="11.978891847264281"><ele>584.0</ele><time>2026-03-29T09:28:56.999Z</time></trkpt><trkpt lat="43.40266463935431" lon="11.978861811722131"><ele>584.0</ele><time>2026-03-29T09:28:57.999Z</time></trkpt><trkpt lat="43.402765495024674" lon="11.978809867690408"><ele>584.0</ele><time>2026-03-29T09:28:58.999Z</time></trkpt><trkpt lat="43.40286986894391" lon="11.978768784161547"><ele>584.0</ele><time>2026-03-29T09:28:59.999Z</time></trkpt><trkpt lat="43.40295491758197" lon="11.978734740429088"><ele>583.8333333333333</ele><time>2026-03-29T09:29:00.999Z</time></trkpt><trkpt lat="43.40303589111297" lon="11.97870039484458"><ele>583.6666666666666</ele><time>2026-03-29T09:29:01.999Z</time></trkpt><trkpt lat="43.40313077518905" lon="11.978675572327523"><ele>583.5</ele><time>2026-03-29T09:29:02.999Z</time></trkpt><trkpt lat="43.40321025066167" lon="11.97864293615641"><ele>583.3333333333334</ele><time>2026-03-29T09:29:03.999Z</time></trkpt><trkpt lat="43.403283864019755" lon="11.978649127333334"><ele>583.1666666666667</ele><time>2026-03-29T09:29:04.999Z</time></trkpt><trkpt lat="43.40335383808101" lon="11.978658598388229"><ele>583.0</ele><time>2026-03-29T09:29:05.999Z</time></trkpt><trkpt lat="43.4034581282995" lon="11.978580754314931"><ele>583.0</ele><time>2026-03-29T09:29:07.999Z</time></trkpt><trkpt lat="43.40347931726688" lon="11.978478995931962"><ele>583.0</ele><time>2026-03-29T09:29:08.999Z</time></trkpt><trkpt lat="43.40346993831808" lon="11.978364381822535"><ele>583.0</ele><time>2026-03-29T09:29:09.999Z</time></trkpt><trkpt lat="43.4034360422003" lon="11.978235758141237"><ele>583.0</ele><time>2026-03-29T09:29:10.999Z</time></trkpt><trkpt lat="43.403449785995676" lon="11.97811641461175"><ele>583.0</ele><time>2026-03-29T09:29:11.999Z</time></trkpt><trkpt lat="43.40350491685" lon="11.978029206346651"><ele>583.0</ele><time>2026-03-29T09:29:12.999Z</time></trkpt><trkpt lat="43.403587853761536" lon="11.977975276783297"><ele>584.0</ele><time>2026-03-29T09:29:13.999Z</time></trkpt><trkpt lat="43.40368593122214" lon="11.977938051277484"><ele>585.0</ele><time>2026-03-29T09:29:14.999Z</time></trkpt><trkpt lat="43.40378782663093" lon="11.977885684710902"><ele>586.0</ele><time>2026-03-29T09:29:15.999Z</time></trkpt><trkpt lat="43.403887627918465" lon="11.97781869592735"><ele>587.0</ele><time>2026-03-29T09:29:16.999Z</time></trkpt><trkpt lat="43.403968383457695" lon="11.977750123711246"><ele>588.0</ele><time>2026-03-29T09:29:17.999Z</time></trkpt><trkpt lat="43.40404650889798" lon="11.977703412271907"><ele>585.6</ele><time>2026-03-29T09:29:18.999Z</time></trkpt><trkpt lat="43.40412065101055" lon="11.977654959875476"><ele>583.1999999999999</ele><time>2026-03-29T09:29:19.999Z</time></trkpt><trkpt lat="43.40420067971591" lon="11.977598133813105"><ele>580.8</ele><time>2026-03-29T09:29:20.999Z</time></trkpt><trkpt lat="43.404294307614286" lon="11.977531556155226"><ele>578.4</ele><time>2026-03-29T09:29:21.999Z</time></trkpt><trkpt lat="43.404368073795496" lon="11.977463608418446"><ele>576.0</ele><time>2026-03-29T09:29:22.999Z</time></trkpt><trkpt lat="43.404426738918616" lon="11.977368612562866"><ele>576.0</ele><time>2026-03-29T09:29:23.999Z</time></trkpt><trkpt lat="43.40448847890242" lon="11.977267063978871"><ele>576.0</ele><time>2026-03-29T09:29:24.999Z</time></trkpt><trkpt lat="43.40454213894592" lon="11.977147401058323"><ele>576.0</ele><time>2026-03-29T09:29:25.999Z</time></trkpt><trkpt lat="43.40459852070069" lon="11.977022021162387"><ele>576.0</ele><time>2026-03-29T09:29:26.999Z</time></trkpt><trkpt lat="43.404657592229825" lon="11.976887431735733"><ele>576.0</ele><time>2026-03-29T09:29:27.999Z</time></trkpt><trkpt lat="43.40470776518733" lon="11.976745791458217"><ele>573.4</ele><time>2026-03-29T09:29:28.999Z</time></trkpt><trkpt lat="43.4047493198404" lon="11.97660383805815"><ele>570.8</ele><time>2026-03-29T09:29:29.998Z</time></trkpt><trkpt lat="43.40476510961234" lon="11.976472502866828"><ele>568.1999999999999</ele><time>2026-03-29T09:29:30.998Z</time></trkpt><trkpt lat="43.404783526856306" lon="11.976356144820665"><ele>565.6</ele><time>2026-03-29T09:29:31.998Z</time></trkpt><trkpt lat="43.404827904401884" lon="11.976254576474325"><ele>563.0</ele><time>2026-03-29T09:29:32.998Z</time></trkpt><trkpt lat="43.40490409137939" lon="11.97619836031832"><ele>563.0</ele><time>2026-03-29T09:29:33.998Z</time></trkpt><trkpt lat="43.40497604480973" lon="11.976187005697525"><ele>563.0</ele><time>2026-03-29T09:29:34.998Z</time></trkpt><trkpt lat="43.40504034439491" lon="11.976238419578381"><ele>563.0</ele><time>2026-03-29T09:29:35.998Z</time></trkpt><trkpt lat="43.40510648181133" lon="11.976291391596872"><ele>563.0</ele><time>2026-03-29T09:29:36.998Z</time></trkpt><trkpt lat="43.40517682087692" lon="11.976361316638386"><ele>563.0</ele><time>2026-03-29T09:29:37.998Z</time></trkpt><trkpt lat="43.405249710572434" lon="11.976382498096461"><ele>563.0</ele><time>2026-03-29T09:29:38.998Z</time></trkpt><trkpt lat="43.405316775957566" lon="11.97637815967084"><ele>563.0</ele><time>2026-03-29T09:29:39.998Z</time></trkpt><trkpt lat="43.40539360083093" lon="11.976327701497416"><ele>563.0</ele><time>2026-03-29T09:29:40.998Z</time></trkpt><trkpt lat="43.40547925621725" lon="11.97624073307255"><ele>563.0</ele><time>2026-03-29T09:29:41.998Z</time></trkpt><trkpt lat="43.405545251411105" lon="11.976118247934162"><ele>563.0</ele><time>2026-03-29T09:29:42.998Z</time></trkpt><trkpt lat="43.40559372684129" lon="11.975998579007918"><ele>563.0</ele><time>2026-03-29T09:29:43.998Z</time></trkpt><trkpt lat="43.405622372178065" lon="11.975881556197015"><ele>562.0</ele><time>2026-03-29T09:29:44.998Z</time></trkpt><trkpt lat="43.40564261977906" lon="11.975762754190102"><ele>561.0</ele><time>2026-03-29T09:29:45.998Z</time></trkpt><trkpt lat="43.40567843726395" lon="11.975650190862497"><ele>560.0</ele><time>2026-03-29T09:29:46.998Z</time></trkpt><trkpt lat="43.405743327835566" lon="11.975564959255784"><ele>559.0</ele><time>2026-03-29T09:29:47.998Z</time></trkpt><trkpt lat="43.40583969881559" lon="11.975496674489701"><ele>558.0</ele><time>2026-03-29T09:29:49Z</time></trkpt><trkpt lat="43.40595095915905" lon="11.975459271201977"><ele>558.0</ele><time>2026-03-29T09:29:50Z</time></trkpt><trkpt lat="43.40608371740445" lon="11.975444002517502"><ele>558.0</ele><time>2026-03-29T09:29:51Z</time></trkpt><trkpt lat="43.40621597551129" lon="11.975424353406336"><ele>558.0</ele><time>2026-03-29T09:29:52Z</time></trkpt><trkpt lat="43.40633603117922" lon="11.975399055198706"><ele>558.0</ele><time>2026-03-29T09:29:53Z</time></trkpt><trkpt lat="43.40644553528615" lon="11.97538270245831"><ele>553.5</ele><time>2026-03-29T09:29:54Z</time></trkpt><trkpt lat="43.40666554694397" lon="11.975364565954509"><ele>549.0</ele><time>2026-03-29T09:29:56Z</time></trkpt><trkpt lat="43.40675586116862" lon="11.975337492579238"><ele>544.5</ele><time>2026-03-29T09:29:57Z</time></trkpt><trkpt lat="43.40685227602525" lon="11.975293484776643"><ele>540.0</ele><time>2026-03-29T09:29:58Z</time></trkpt><trkpt lat="43.40693751806205" lon="11.975228529089376"><ele>540.0</ele><time>2026-03-29T09:29:59Z</time></trkpt><trkpt lat="43.40702345892254" lon="11.97512392858061"><ele>540.0</ele><time>2026-03-29T09:30:00Z</time></trkpt><trkpt lat="43.407098745984165" lon="11.975018000653831"><ele>540.0</ele><time>2026-03-29T09:30:01Z</time></trkpt><trkpt lat="43.40717863239433" lon="11.974950839738817"><ele>540.0</ele><time>2026-03-29T09:30:02Z</time></trkpt><trkpt lat="43.407281643489945" lon="11.974917146851153"><ele>540.0</ele><time>2026-03-29T09:30:03Z</time></trkpt><trkpt lat="43.407393446228696" lon="11.974909966065153"><ele>540.8</ele><time>2026-03-29T09:30:04Z</time></trkpt><trkpt lat="43.40751672257953" lon="11.974936414114675"><ele>541.6</ele><time>2026-03-29T09:30:05Z</time></trkpt><trkpt lat="43.40761853496536" lon="11.974975747392316"><ele>542.4</ele><time>2026-03-29T09:30:06Z</time></trkpt><trkpt lat="43.407720994688965" lon="11.975010896894048"><ele>543.2</ele><time>2026-03-29T09:30:07Z</time></trkpt><trkpt lat="43.40782132120858" lon="11.975064125664229"><ele>544.0</ele><time>2026-03-29T09:30:08Z</time></trkpt><trkpt lat="43.40790425176806" lon="11.9751650403613"><ele>540.2</ele><time>2026-03-29T09:30:09Z</time></trkpt><trkpt lat="43.407967566989264" lon="11.97528791603015"><ele>536.4</ele><time>2026-03-29T09:30:10Z</time></trkpt><trkpt lat="43.40803810726948" lon="11.975349045506885"><ele>532.6</ele><time>2026-03-29T09:30:11Z</time></trkpt><trkpt lat="43.408128284809166" lon="11.975392781830196"><ele>528.8</ele><time>2026-03-29T09:30:12Z</time></trkpt><trkpt lat="43.4082413697779" lon="11.975405871896866"><ele>525.0</ele><time>2026-03-29T09:30:13Z</time></trkpt><trkpt lat="43.40835500315683" lon="11.975365879836591"><ele>523.8</ele><time>2026-03-29T09:30:14Z</time></trkpt><trkpt lat="43.40844543250605" lon="11.975297084130172"><ele>522.6</ele><time>2026-03-29T09:30:15Z</time></trkpt><trkpt lat="43.40853199786677" lon="11.975244169104489"><ele>521.4</ele><time>2026-03-29T09:30:16Z</time></trkpt><trkpt lat="43.40862841489938" lon="11.97523466648206"><ele>520.2</ele><time>2026-03-29T09:30:17Z</time></trkpt><trkpt lat="43.408717542421776" lon="11.975272219609986"><ele>519.0</ele><time>2026-03-29T09:30:18Z</time></trkpt><trkpt lat="43.40879284294511" lon="11.97533665975774"><ele>518.4</ele><time>2026-03-29T09:30:19Z</time></trkpt><trkpt lat="43.4088581139004" lon="11.975424701711395"><ele>517.8</ele><time>2026-03-29T09:30:20Z</time></trkpt><trkpt lat="43.4089109132722" lon="11.975529863658696"><ele>517.2</ele><time>2026-03-29T09:30:21Z</time></trkpt><trkpt lat="43.40897214815646" lon="11.975614990057824"><ele>516.6</ele><time>2026-03-29T09:30:22Z</time></trkpt><trkpt lat="43.409046750589056" lon="11.975722129709947"><ele>516.0</ele><time>2026-03-29T09:30:23Z</time></trkpt><trkpt lat="43.4091348388713" lon="11.97583674959395"><ele>512.4</ele><time>2026-03-29T09:30:24Z</time></trkpt><trkpt lat="43.409224858603054" lon="11.975946612098344"><ele>508.8</ele><time>2026-03-29T09:30:25Z</time></trkpt><trkpt lat="43.409321997518596" lon="11.976025470854054"><ele>505.19999999999993</ele><time>2026-03-29T09:30:26Z</time></trkpt><trkpt lat="43.409416567629464" lon="11.976097043035058"><ele>501.59999999999997</ele><time>2026-03-29T09:30:27Z</time></trkpt><trkpt lat="43.40950704796502" lon="11.97616153152511"><ele>498.0</ele><time>2026-03-29T09:30:28Z</time></trkpt><trkpt lat="43.40959340132941" lon="11.97621112579775"><ele>497.5</ele><time>2026-03-29T09:30:29Z</time></trkpt><trkpt lat="43.409672206802384" lon="11.976251948420193"><ele>497.0</ele><time>2026-03-29T09:30:30Z</time></trkpt><trkpt lat="43.409754879814294" lon="11.976257074587684"><ele>496.5</ele><time>2026-03-29T09:30:31Z</time></trkpt><trkpt lat="43.40983061927812" lon="11.976235648580536"><ele>496.0</ele><time>2026-03-29T09:30:31.999Z</time></trkpt><trkpt lat="43.40991155844819" lon="11.976185390141262"><ele>495.5</ele><time>2026-03-29T09:30:32.999Z</time></trkpt><trkpt lat="43.40997063295094" lon="11.976109336613222"><ele>495.0</ele><time>2026-03-29T09:30:33.999Z</time></trkpt><trkpt lat="43.41004475556451" lon="11.976048142849056"><ele>495.0</ele><time>2026-03-29T09:30:34.999Z</time></trkpt><trkpt lat="43.410139417942396" lon="11.97602797368796"><ele>495.0</ele><time>2026-03-29T09:30:35.999Z</time></trkpt><trkpt lat="43.41025154006225" lon="11.976042255614527"><ele>495.0</ele><time>2026-03-29T09:30:36.999Z</time></trkpt><trkpt lat="43.410347173252475" lon="11.976088045952416"><ele>495.0</ele><time>2026-03-29T09:30:37.999Z</time></trkpt><trkpt lat="43.41043549700443" lon="11.976194228465012"><ele>495.0</ele><time>2026-03-29T09:30:38.999Z</time></trkpt><trkpt lat="43.41052117108564" lon="11.97633117539459"><ele>493.75</ele><time>2026-03-29T09:30:39.999Z</time></trkpt><trkpt lat="43.41059519263227" lon="11.97647459037544"><ele>492.5</ele><time>2026-03-29T09:30:40.999Z</time></trkpt><trkpt lat="43.41066098798832" lon="11.976600443746351"><ele>491.25</ele><time>2026-03-29T09:30:41.999Z</time></trkpt><trkpt lat="43.41072953811429" lon="11.976703710764992"><ele>490.0</ele><time>2026-03-29T09:30:42.999Z</time></trkpt><trkpt lat="43.41081628923564" lon="11.97679580660861"><ele>487.6</ele><time>2026-03-29T09:30:43.999Z</time></trkpt><trkpt lat="43.41090971428226" lon="11.976857722926642"><ele>485.2</ele><time>2026-03-29T09:30:44.999Z</time></trkpt><trkpt lat="43.411001421315504" lon="11.976923782772182"><ele>482.79999999999995</ele><time>2026-03-29T09:30:45.999Z</time></trkpt><trkpt lat="43.41108100621472" lon="11.976995401602917"><ele>480.4</ele><time>2026-03-29T09:30:46.999Z</time></trkpt><trkpt lat="43.41113521854533" lon="11.977086640274704"><ele>478.0</ele><time>2026-03-29T09:30:47.999Z</time></trkpt><trkpt lat="43.41118701114263" lon="11.977184239347224"><ele>478.00000000000006</ele><time>2026-03-29T09:30:48.999Z</time></trkpt><trkpt lat="43.41121872737519" lon="11.977261268360758"><ele>478.0</ele><time>2026-03-29T09:30:49.999Z</time></trkpt><trkpt lat="43.411305323283315" lon="11.977328860693158"><ele>478.0</ele><time>2026-03-29T09:30:51.999Z</time></trkpt><trkpt lat="43.41138725095132" lon="11.97722378469396"><ele>478.0</ele><time>2026-03-29T09:30:53.999Z</time></trkpt><trkpt lat="43.41139370886386" lon="11.9771234770768"><ele>478.00000000000006</ele><time>2026-03-29T09:30:54.999Z</time></trkpt><trkpt lat="43.41138457662623" lon="11.977011795017567"><ele>478.0</ele><time>2026-03-29T09:30:55.999Z</time></trkpt><trkpt lat="43.41136885984072" lon="11.976909687972082"><ele>476.7142857142858</ele><time>2026-03-29T09:30:56.999Z</time></trkpt><trkpt lat="43.41136771325086" lon="11.976810070216953"><ele>475.42857142857144</ele><time>2026-03-29T09:30:57.999Z</time></trkpt><trkpt lat="43.411386835873806" lon="11.976716112942077"><ele>474.14285714285717</ele><time>2026-03-29T09:30:58.999Z</time></trkpt><trkpt lat="43.4114134067256" lon="11.976618708374504"><ele>472.8571428571429</ele><time>2026-03-29T09:30:59.999Z</time></trkpt><trkpt lat="43.411434498981365" lon="11.976518696430649"><ele>471.57142857142856</ele><time>2026-03-29T09:31:00.999Z</time></trkpt><trkpt lat="43.411442878770664" lon="11.976431039559293"><ele>470.2857142857143</ele><time>2026-03-29T09:31:01.999Z</time></trkpt><trkpt lat="43.41144146925489" lon="11.976333907489423"><ele>469.0</ele><time>2026-03-29T09:31:02.999Z</time></trkpt><trkpt lat="43.41142704466195" lon="11.976244243560345"><ele>468.79999999999995</ele><time>2026-03-29T09:31:03.999Z</time></trkpt><trkpt lat="43.4114161026156" lon="11.976079013450647"><ele>468.59999999999997</ele><time>2026-03-29T09:31:05.999Z</time></trkpt><trkpt lat="43.411397033785825" lon="11.975938862847485"><ele>468.4</ele><time>2026-03-29T09:31:07.999Z</time></trkpt><trkpt lat="43.411387502629736" lon="11.975852258255237"><ele>468.2</ele><time>2026-03-29T09:31:08.999Z</time></trkpt><trkpt lat="43.411350347760695" lon="11.97569229302367"><ele>468.0</ele><time>2026-03-29T09:31:10.999Z</time></trkpt><trkpt lat="43.41128147243671" lon="11.975583404653285"><ele>472.0</ele><time>2026-03-29T09:31:11.999Z</time></trkpt><trkpt lat="43.411194906109074" lon="11.975482591292613"><ele>475.99999999999994</ele><time>2026-03-29T09:31:12.999Z</time></trkpt><trkpt lat="43.4111140023955" lon="11.975389606642072"><ele>479.99999999999994</ele><time>2026-03-29T09:31:13.999Z</time></trkpt><trkpt lat="43.41104740774773" lon="11.975288313495762"><ele>484.0</ele><time>2026-03-29T09:31:14.999Z</time></trkpt><trkpt lat="43.41099082435258" lon="11.97520257402894"><ele>488.0</ele><time>2026-03-29T09:31:15.999Z</time></trkpt><trkpt lat="43.4109459130276" lon="11.975098293215721"><ele>485.3333333333333</ele><time>2026-03-29T09:31:16.999Z</time></trkpt><trkpt lat="43.410915983130195" lon="11.975018781066831"><ele>482.66666666666663</ele><time>2026-03-29T09:31:17.999Z</time></trkpt><trkpt lat="43.410916769255735" lon="11.974871813522295"><ele>480.0</ele><time>2026-03-29T09:31:19.999Z</time></trkpt><trkpt lat="43.41095515624824" lon="11.974795368390458"><ele>477.33333333333337</ele><time>2026-03-29T09:31:20.999Z</time></trkpt><trkpt lat="43.41102548726662" lon="11.974769895090795"><ele>474.6666666666667</ele><time>2026-03-29T09:31:21.999Z</time></trkpt><trkpt lat="43.4111092899362" lon="11.974774616459825"><ele>472.0</ele><time>2026-03-29T09:31:22.999Z</time></trkpt><trkpt lat="43.4112044324195" lon="11.974803757559936"><ele>472.0</ele><time>2026-03-29T09:31:23.999Z</time></trkpt><trkpt lat="43.411291009056015" lon="11.974865667115004"><ele>472.00000000000006</ele><time>2026-03-29T09:31:24.999Z</time></trkpt><trkpt lat="43.41137349634434" lon="11.974929394436426"><ele>472.00000000000006</ele><time>2026-03-29T09:31:25.999Z</time></trkpt><trkpt lat="43.41145583417209" lon="11.974990424621396"><ele>472.0</ele><time>2026-03-29T09:31:26.999Z</time></trkpt><trkpt lat="43.41155050535328" lon="11.97506204131796"><ele>472.0</ele><time>2026-03-29T09:31:27.999Z</time></trkpt><trkpt lat="43.411637676216706" lon="11.975136937742832"><ele>470.40000000000003</ele><time>2026-03-29T09:31:28.999Z</time></trkpt><trkpt lat="43.411708659386655" lon="11.975224805018248"><ele>468.80000000000007</ele><time>2026-03-29T09:31:29.999Z</time></trkpt><trkpt lat="43.411789018546344" lon="11.975321014772252"><ele>467.2</ele><time>2026-03-29T09:31:30.999Z</time></trkpt><trkpt lat="43.41185299006136" lon="11.975431229961352"><ele>465.6</ele><time>2026-03-29T09:31:31.999Z</time></trkpt><trkpt lat="43.41191144029525" lon="11.975559349856807"><ele>464.0</ele><time>2026-03-29T09:31:32.998Z</time></trkpt><trkpt lat="43.411950175236306" lon="11.975690135787252"><ele>464.0</ele><time>2026-03-29T09:31:33.998Z</time></trkpt><trkpt lat="43.41199220866322" lon="11.975811277716224"><ele>464.0</ele><time>2026-03-29T09:31:34.998Z</time></trkpt><trkpt lat="43.41203487607091" lon="11.975929164578494"><ele>464.0</ele><time>2026-03-29T09:31:35.998Z</time></trkpt><trkpt lat="43.41206672652115" lon="11.976049971000167"><ele>464.0</ele><time>2026-03-29T09:31:36.998Z</time></trkpt><trkpt lat="43.41210033043396" lon="11.976174806325218"><ele>464.0</ele><time>2026-03-29T09:31:37.998Z</time></trkpt><trkpt lat="43.41212308116896" lon="11.97629273592032"><ele>464.66666666666663</ele><time>2026-03-29T09:31:38.998Z</time></trkpt><trkpt lat="43.412135828898286" lon="11.976416282872686"><ele>465.3333333333333</ele><time>2026-03-29T09:31:39.998Z</time></trkpt><trkpt lat="43.41210700972262" lon="11.976526971021666"><ele>466.0</ele><time>2026-03-29T09:31:40.998Z</time></trkpt><trkpt lat="43.4120713200815" lon="11.976630309820772"><ele>466.66666666666663</ele><time>2026-03-29T09:31:41.998Z</time></trkpt><trkpt lat="43.41205255246132" lon="11.976723179232842"><ele>467.3333333333333</ele><time>2026-03-29T09:31:42.998Z</time></trkpt><trkpt lat="43.41205700091484" lon="11.976820375735208"><ele>468.0</ele><time>2026-03-29T09:31:43.998Z</time></trkpt><trkpt lat="43.412086991319796" lon="11.976916179965526"><ele>468.1666666666667</ele><time>2026-03-29T09:31:44.998Z</time></trkpt><trkpt lat="43.41214960020466" lon="11.97699435348564"><ele>468.33333333333337</ele><time>2026-03-29T09:31:45.998Z</time></trkpt><trkpt lat="43.41222148164875" lon="11.977050507387832"><ele>468.5</ele><time>2026-03-29T09:31:46.998Z</time></trkpt><trkpt lat="43.41229156799628" lon="11.97712358472929"><ele>468.6666666666667</ele><time>2026-03-29T09:31:47.998Z</time></trkpt><trkpt lat="43.41234921036019" lon="11.977228268454494"><ele>468.83333333333337</ele><time>2026-03-29T09:31:48.998Z</time></trkpt><trkpt lat="43.412372651665656" lon="11.97733900977797"><ele>469.0</ele><time>2026-03-29T09:31:49.998Z</time></trkpt><trkpt lat="43.41237878391425" lon="11.977479051159765"><ele>457.75</ele><time>2026-03-29T09:31:50.998Z</time></trkpt><trkpt lat="43.41237478786455" lon="11.977631735285755"><ele>446.5</ele><time>2026-03-29T09:31:51.998Z</time></trkpt><trkpt lat="43.41236519800563" lon="11.977805939855946"><ele>435.25</ele><time>2026-03-29T09:31:52.998Z</time></trkpt><trkpt lat="43.412348703629675" lon="11.977981626591127"><ele>424.0</ele><time>2026-03-29T09:31:53.998Z</time></trkpt><trkpt lat="43.412330853291536" lon="11.97813912450018"><ele>424.0</ele><time>2026-03-29T09:31:55Z</time></trkpt><trkpt lat="43.4123213964545" lon="11.978287993589795"><ele>424.0</ele><time>2026-03-29T09:31:56Z</time></trkpt><trkpt lat="43.41231230422442" lon="11.978446605416801"><ele>424.0</ele><time>2026-03-29T09:31:57Z</time></trkpt><trkpt lat="43.412291838356445" lon="11.978616504032237"><ele>424.0</ele><time>2026-03-29T09:31:58Z</time></trkpt><trkpt lat="43.41227282278929" lon="11.97878056701134"><ele>422.25</ele><time>2026-03-29T09:31:59Z</time></trkpt><trkpt lat="43.41225143550843" lon="11.978938512057535"><ele>420.5</ele><time>2026-03-29T09:32:00Z</time></trkpt><trkpt lat="43.41223052655329" lon="11.979104727875177"><ele>418.75</ele><time>2026-03-29T09:32:01Z</time></trkpt><trkpt lat="43.41220444894873" lon="11.97925732530664"><ele>417.0</ele><time>2026-03-29T09:32:02Z</time></trkpt><trkpt lat="43.41217908521603" lon="11.979400399780038"><ele>417.40000000000003</ele><time>2026-03-29T09:32:03Z</time></trkpt><trkpt lat="43.41215285255113" lon="11.979540658036484"><ele>417.8</ele><time>2026-03-29T09:32:04Z</time></trkpt><trkpt lat="43.41212912309745" lon="11.97967625820859"><ele>418.2</ele><time>2026-03-29T09:32:05Z</time></trkpt><trkpt lat="43.412107233739725" lon="11.979807293418858"><ele>418.6</ele><time>2026-03-29T09:32:06Z</time></trkpt><trkpt lat="43.41208963954051" lon="11.979924799739573"><ele>419.0</ele><time>2026-03-29T09:32:07Z</time></trkpt><trkpt lat="43.41207916938413" lon="11.980047410529238"><ele>417.79999999999995</ele><time>2026-03-29T09:32:08Z</time></trkpt><trkpt lat="43.41208734189508" lon="11.98016830411925"><ele>416.59999999999997</ele><time>2026-03-29T09:32:09Z</time></trkpt><trkpt lat="43.412130041622355" lon="11.980287706779771"><ele>415.4</ele><time>2026-03-29T09:32:10Z</time></trkpt><trkpt lat="43.41219909370433" lon="11.980389272277641"><ele>414.2</ele><time>2026-03-29T09:32:11Z</time></trkpt><trkpt lat="43.41229305876479" lon="11.98046454750925"><ele>413.0</ele><time>2026-03-29T09:32:12Z</time></trkpt><trkpt lat="43.41239359812931" lon="11.980514218379412"><ele>413.0</ele><time>2026-03-29T09:32:13Z</time></trkpt><trkpt lat="43.41248625858745" lon="11.980562208700691"><ele>413.0</ele><time>2026-03-29T09:32:14Z</time></trkpt><trkpt lat="43.41256115138369" lon="11.980644449729382"><ele>413.0</ele><time>2026-03-29T09:32:15Z</time></trkpt><trkpt lat="43.412618317065075" lon="11.98077217988317"><ele>413.0</ele><time>2026-03-29T09:32:16Z</time></trkpt><trkpt lat="43.412658985151594" lon="11.980921880902843"><ele>413.0</ele><time>2026-03-29T09:32:17Z</time></trkpt><trkpt lat="43.41268389191684" lon="11.981081030330145"><ele>413.79999999999995</ele><time>2026-03-29T09:32:18Z</time></trkpt><trkpt lat="43.41271621175919" lon="11.981234499420008"><ele>414.6</ele><time>2026-03-29T09:32:19Z</time></trkpt><trkpt lat="43.41275098608181" lon="11.981385166596821"><ele>415.4</ele><time>2026-03-29T09:32:20Z</time></trkpt><trkpt lat="43.41278136822156" lon="11.981520004416685"><ele>416.20000000000005</ele><time>2026-03-29T09:32:21Z</time></trkpt><trkpt lat="43.41280777010862" lon="11.981629721885453"><ele>417.0</ele><time>2026-03-29T09:32:22Z</time></trkpt><trkpt lat="43.4128332128174" lon="11.981727892640956"><ele>417.6666666666667</ele><time>2026-03-29T09:32:23Z</time></trkpt><trkpt lat="43.4128538867233" lon="11.981813524711258"><ele>418.33333333333337</ele><time>2026-03-29T09:32:24Z</time></trkpt><trkpt lat="43.41289754096428" lon="11.981927942596986"><ele>419.0</ele><time>2026-03-29T09:32:26Z</time></trkpt><trkpt lat="43.413006051719115" lon="11.981956342483151"><ele>419.6666666666667</ele><time>2026-03-29T09:32:28Z</time></trkpt><trkpt lat="43.413084197089184" lon="11.981922650171354"><ele>420.33333333333337</ele><time>2026-03-29T09:32:29Z</time></trkpt><trkpt lat="43.41314807973632" lon="11.981860991391041"><ele>421.0</ele><time>2026-03-29T09:32:30Z</time></trkpt><trkpt lat="43.4132320417445" lon="11.98178422004908"><ele>421.0</ele><time>2026-03-29T09:32:32Z</time></trkpt><trkpt lat="43.41329631820546" lon="11.981751774953418"><ele>421.0</ele><time>2026-03-29T09:32:33Z</time></trkpt><trkpt lat="43.41337863840106" lon="11.981688220754553"><ele>421.0</ele><time>2026-03-29T09:32:34Z</time></trkpt><trkpt lat="43.41346980783876" lon="11.981610024568141"><ele>421.0</ele><time>2026-03-29T09:32:35Z</time></trkpt><trkpt lat="43.41356565254087" lon="11.981532775563526"><ele>421.0</ele><time>2026-03-29T09:32:36Z</time></trkpt><trkpt lat="43.413667864256695" lon="11.981459767194025"><ele>421.5</ele><time>2026-03-29T09:32:37Z</time></trkpt><trkpt lat="43.413766167031774" lon="11.981389632612899"><ele>422.0</ele><time>2026-03-29T09:32:37.999Z</time></trkpt><trkpt lat="43.41386228862828" lon="11.981316685791223"><ele>422.5</ele><time>2026-03-29T09:32:38.999Z</time></trkpt><trkpt lat="43.41396220717194" lon="11.981235891761246"><ele>423.0</ele><time>2026-03-29T09:32:39.999Z</time></trkpt><trkpt lat="43.41406147132963" lon="11.981148204552378"><ele>423.0</ele><time>2026-03-29T09:32:40.999Z</time></trkpt><trkpt lat="43.414162086022706" lon="11.981060062225422"><ele>423.0</ele><time>2026-03-29T09:32:41.999Z</time></trkpt><trkpt lat="43.41426173393668" lon="11.980969382301906"><ele>423.0</ele><time>2026-03-29T09:32:42.999Z</time></trkpt><trkpt lat="43.41435675655455" lon="11.980881318358048"><ele>423.0</ele><time>2026-03-29T09:32:43.999Z</time></trkpt><trkpt lat="43.41445899254084" lon="11.980788654156026"><ele>423.0</ele><time>2026-03-29T09:32:44.999Z</time></trkpt><trkpt lat="43.41455920117289" lon="11.980690391748952"><ele>423.0</ele><time>2026-03-29T09:32:45.999Z</time></trkpt><trkpt lat="43.414650010619894" lon="11.980583960409362"><ele>423.0</ele><time>2026-03-29T09:32:46.999Z</time></trkpt><trkpt lat="43.414746918517245" lon="11.98048380359911"><ele>423.0</ele><time>2026-03-29T09:32:47.999Z</time></trkpt><trkpt lat="43.414849776323756" lon="11.980373750724391"><ele>423.0</ele><time>2026-03-29T09:32:48.999Z</time></trkpt><trkpt lat="43.414947634770144" lon="11.98026924507394"><ele>423.0</ele><time>2026-03-29T09:32:49.999Z</time></trkpt><trkpt lat="43.41504615734649" lon="11.980168359507706"><ele>423.0</ele><time>2026-03-29T09:32:50.999Z</time></trkpt><trkpt lat="43.41514125231805" lon="11.980064233992861"><ele>423.0</ele><time>2026-03-29T09:32:51.999Z</time></trkpt><trkpt lat="43.4152430571473" lon="11.979951559568116"><ele>422.25</ele><time>2026-03-29T09:32:52.999Z</time></trkpt><trkpt lat="43.41534734038776" lon="11.979840390195186"><ele>421.5</ele><time>2026-03-29T09:32:53.999Z</time></trkpt><trkpt lat="43.415450790051274" lon="11.97972788516744"><ele>420.75</ele><time>2026-03-29T09:32:54.999Z</time></trkpt><trkpt lat="43.41555427093398" lon="11.979617546919346"><ele>420.0</ele><time>2026-03-29T09:32:55.999Z</time></trkpt><trkpt lat="43.41565507186518" lon="11.979508478729286"><ele>420.0</ele><time>2026-03-29T09:32:56.999Z</time></trkpt><trkpt lat="43.41575500089675" lon="11.979402512295637"><ele>420.0</ele><time>2026-03-29T09:32:57.999Z</time></trkpt><trkpt lat="43.4158556076866" lon="11.979297277839937"><ele>420.0</ele><time>2026-03-29T09:32:58.999Z</time></trkpt><trkpt lat="43.415954989623025" lon="11.979194365727805"><ele>420.0</ele><time>2026-03-29T09:32:59.999Z</time></trkpt><trkpt lat="43.416061523664396" lon="11.9791022488593"><ele>419.75</ele><time>2026-03-29T09:33:00.999Z</time></trkpt><trkpt lat="43.416177774251615" lon="11.979018908521935"><ele>419.5</ele><time>2026-03-29T09:33:01.999Z</time></trkpt><trkpt lat="43.41629873419991" lon="11.978949844796135"><ele>419.25</ele><time>2026-03-29T09:33:02.999Z</time></trkpt><trkpt lat="43.416423816135556" lon="11.978882638655389"><ele>419.0</ele><time>2026-03-29T09:33:03.999Z</time></trkpt><trkpt lat="43.41655179863783" lon="11.97881833038797"><ele>419.0</ele><time>2026-03-29T09:33:04.999Z</time></trkpt><trkpt lat="43.41668112162729" lon="11.978758576722532"><ele>419.0</ele><time>2026-03-29T09:33:05.999Z</time></trkpt><trkpt lat="43.416814627268266" lon="11.978687882805136"><ele>419.0</ele><time>2026-03-29T09:33:06.999Z</time></trkpt><trkpt lat="43.41695186037877" lon="11.97861199079702"><ele>419.0</ele><time>2026-03-29T09:33:07.999Z</time></trkpt><trkpt lat="43.417095063808596" lon="11.97853689603737"><ele>420.0</ele><time>2026-03-29T09:33:08.999Z</time></trkpt><trkpt lat="43.417242185127925" lon="11.97846050812495"><ele>421.0</ele><time>2026-03-29T09:33:09.999Z</time></trkpt><trkpt lat="43.41739022957249" lon="11.978386818682004"><ele>422.0</ele><time>2026-03-29T09:33:10.999Z</time></trkpt><trkpt lat="43.41752964293135" lon="11.978314552864399"><ele>421.0</ele><time>2026-03-29T09:33:11.999Z</time></trkpt><trkpt lat="43.41765830539535" lon="11.978244932983719"><ele>420.0</ele><time>2026-03-29T09:33:12.999Z</time></trkpt><trkpt lat="43.41778190097522" lon="11.97817752884825"><ele>419.0</ele><time>2026-03-29T09:33:13.999Z</time></trkpt><trkpt lat="43.41790968018942" lon="11.978107720110803"><ele>418.0</ele><time>2026-03-29T09:33:14.999Z</time></trkpt><trkpt lat="43.418045594999" lon="11.978031766052027"><ele>418.0</ele><time>2026-03-29T09:33:15.999Z</time></trkpt><trkpt lat="43.41817158902447" lon="11.977977495375608"><ele>418.0</ele><time>2026-03-29T09:33:16.999Z</time></trkpt><trkpt lat="43.41829734624843" lon="11.977932404680459"><ele>418.0</ele><time>2026-03-29T09:33:17.999Z</time></trkpt><trkpt lat="43.41843176205714" lon="11.977929099231048"><ele>418.0</ele><time>2026-03-29T09:33:18.999Z</time></trkpt><trkpt lat="43.418572620433494" lon="11.97793381172634"><ele>418.0</ele><time>2026-03-29T09:33:19.999Z</time></trkpt><trkpt lat="43.418721376181765" lon="11.977944840739987"><ele>418.0</ele><time>2026-03-29T09:33:20.999Z</time></trkpt><trkpt lat="43.418865314317" lon="11.977943624926924"><ele>418.0</ele><time>2026-03-29T09:33:21.999Z</time></trkpt><trkpt lat="43.419020410195145" lon="11.977974786559084"><ele>415.6666666666667</ele><time>2026-03-29T09:33:22.999Z</time></trkpt><trkpt lat="43.41916969800483" lon="11.977983953034007"><ele>413.33333333333337</ele><time>2026-03-29T09:33:23.999Z</time></trkpt><trkpt lat="43.419319354103" lon="11.977994421982025"><ele>411.0</ele><time>2026-03-29T09:33:24.999Z</time></trkpt><trkpt lat="43.4194808166292" lon="11.978009827154903"><ele>411.0</ele><time>2026-03-29T09:33:25.999Z</time></trkpt><trkpt lat="43.41963938725043" lon="11.978036173465991"><ele>411.0</ele><time>2026-03-29T09:33:26.999Z</time></trkpt><trkpt lat="43.41979932277347" lon="11.978057939787046"><ele>411.0</ele><time>2026-03-29T09:33:27.999Z</time></trkpt><trkpt lat="43.41995780402189" lon="11.978078646265079"><ele>409.66666666666663</ele><time>2026-03-29T09:33:28.999Z</time></trkpt><trkpt lat="43.42010776256965" lon="11.978099398607347"><ele>408.3333333333333</ele><time>2026-03-29T09:33:29.999Z</time></trkpt><trkpt lat="43.42026530826859" lon="11.978120704781285"><ele>407.0</ele><time>2026-03-29T09:33:30.999Z</time></trkpt><trkpt lat="43.42042415872428" lon="11.978142480842719"><ele>407.3333333333333</ele><time>2026-03-29T09:33:31.999Z</time></trkpt><trkpt lat="43.42057870453891" lon="11.978159326523308"><ele>407.66666666666663</ele><time>2026-03-29T09:33:32.999Z</time></trkpt><trkpt lat="43.42073319596645" lon="11.978177473395046"><ele>408.0</ele><time>2026-03-29T09:33:33.999Z</time></trkpt><trkpt lat="43.42088891562441" lon="11.978196482837571"><ele>408.0</ele><time>2026-03-29T09:33:34.999Z</time></trkpt><trkpt lat="43.42104275645614" lon="11.978215050069021"><ele>408.0</ele><time>2026-03-29T09:33:35.999Z</time></trkpt><trkpt lat="43.42118615110452" lon="11.978233693093685"><ele>408.0</ele><time>2026-03-29T09:33:36.999Z</time></trkpt><trkpt lat="43.421320985794466" lon="11.978251797411522"><ele>408.0</ele><time>2026-03-29T09:33:37.999Z</time></trkpt><trkpt lat="43.42144304596331" lon="11.97826814080696"><ele>408.2</ele><time>2026-03-29T09:33:38.998Z</time></trkpt><trkpt lat="43.421556632825855" lon="11.978281121317208"><ele>408.4</ele><time>2026-03-29T09:33:39.998Z</time></trkpt><trkpt lat="43.42165194335127" lon="11.97824666926918"><ele>408.59999999999997</ele><time>2026-03-29T09:33:40.998Z</time></trkpt><trkpt lat="43.421734805183014" lon="11.978164982391545"><ele>408.79999999999995</ele><time>2026-03-29T09:33:41.998Z</time></trkpt><trkpt lat="43.42179705037333" lon="11.978057097408364"><ele>409.0</ele><time>2026-03-29T09:33:42.998Z</time></trkpt><trkpt lat="43.42184783710294" lon="11.977909360809331"><ele>409.0</ele><time>2026-03-29T09:33:43.998Z</time></trkpt><trkpt lat="43.421889359982494" lon="11.977747978627207"><ele>409.0</ele><time>2026-03-29T09:33:44.998Z</time></trkpt><trkpt lat="43.421940217218534" lon="11.977584940837371"><ele>409.0</ele><time>2026-03-29T09:33:45.998Z</time></trkpt><trkpt lat="43.421993012776056" lon="11.977423470460181"><ele>409.0</ele><time>2026-03-29T09:33:46.998Z</time></trkpt><trkpt lat="43.42204153693774" lon="11.977273566071334"><ele>408.33333333333337</ele><time>2026-03-29T09:33:47.998Z</time></trkpt><trkpt lat="43.422081046488586" lon="11.977141273141267"><ele>407.6666666666667</ele><time>2026-03-29T09:33:48.998Z</time></trkpt><trkpt lat="43.42211922305951" lon="11.97702354082569"><ele>407.0</ele><time>2026-03-29T09:33:49.998Z</time></trkpt><trkpt lat="43.42215618072275" lon="11.976915588189955"><ele>406.33333333333337</ele><time>2026-03-29T09:33:50.998Z</time></trkpt><trkpt lat="43.42218397133151" lon="11.976823150120357"><ele>405.6666666666667</ele><time>2026-03-29T09:33:51.998Z</time></trkpt><trkpt lat="43.422213380412586" lon="11.976722219806417"><ele>405.0</ele><time>2026-03-29T09:33:53.998Z</time></trkpt><trkpt lat="43.42222587183405" lon="11.976573366252884"><ele>405.0</ele><time>2026-03-29T09:33:55.998Z</time></trkpt><trkpt lat="43.42221504617681" lon="11.9764615331034"><ele>405.0</ele><time>2026-03-29T09:33:56.998Z</time></trkpt><trkpt lat="43.422184560652575" lon="11.976335093156022"><ele>405.0</ele><time>2026-03-29T09:33:57.998Z</time></trkpt><trkpt lat="43.42214686150411" lon="11.976211553388469"><ele>405.0</ele><time>2026-03-29T09:33:58.998Z</time></trkpt><trkpt lat="43.42211329606216" lon="11.976079738653423"><ele>405.0</ele><time>2026-03-29T09:33:59.998Z</time></trkpt><trkpt lat="43.42208626219391" lon="11.975962370473152"><ele>404.6666666666667</ele><time>2026-03-29T09:34:01Z</time></trkpt><trkpt lat="43.42206558777025" lon="11.975861697414745"><ele>404.33333333333337</ele><time>2026-03-29T09:34:02Z</time></trkpt><trkpt lat="43.422045036255724" lon="11.975768354740548"><ele>404.0</ele><time>2026-03-29T09:34:03Z</time></trkpt><trkpt lat="43.42201336212518" lon="11.975618116559453"><ele>403.6666666666667</ele><time>2026-03-29T09:34:05Z</time></trkpt><trkpt lat="43.421996255675026" lon="11.975534696534917"><ele>403.33333333333337</ele><time>2026-03-29T09:34:06Z</time></trkpt><trkpt lat="43.421966997165825" lon="11.975384007797548"><ele>403.0</ele><time>2026-03-29T09:34:08Z</time></trkpt><trkpt lat="43.42194610008486" lon="11.975286745057803"><ele>402.83333333333337</ele><time>2026-03-29T09:34:09Z</time></trkpt><trkpt lat="43.42192269702222" lon="11.975186947314937"><ele>402.6666666666667</ele><time>2026-03-29T09:34:10Z</time></trkpt><trkpt lat="43.42190080010119" lon="11.975094310158761"><ele>402.5</ele><time>2026-03-29T09:34:11Z</time></trkpt><trkpt lat="43.421863527634116" lon="11.974942211972365"><ele>402.33333333333337</ele><time>2026-03-29T09:34:13Z</time></trkpt><trkpt lat="43.42183563580135" lon="11.974832039051778"><ele>402.1666666666667</ele><time>2026-03-29T09:34:15Z</time></trkpt><trkpt lat="43.421822435484636" lon="11.974724652912647"><ele>402.0</ele><time>2026-03-29T09:34:19Z</time></trkpt><trkpt lat="43.42185748013582" lon="11.97464588798021"><ele>402.3333333333333</ele><time>2026-03-29T09:34:22Z</time></trkpt><trkpt lat="43.421951569846925" lon="11.974636095865195"><ele>402.66666666666663</ele><time>2026-03-29T09:34:24Z</time></trkpt><trkpt lat="43.42203129472111" lon="11.974603108326042"><ele>403.0</ele><time>2026-03-29T09:34:26Z</time></trkpt><trkpt lat="43.42209419458054" lon="11.974580977889499"><ele>403.3333333333333</ele><time>2026-03-29T09:34:29Z</time></trkpt><trkpt lat="43.42199987034545" lon="11.974560703827414"><ele>403.66666666666663</ele><time>2026-03-29T09:34:32Z</time></trkpt><trkpt lat="43.421916379704875" lon="11.97459108205669"><ele>404.0</ele><time>2026-03-29T09:34:34Z</time></trkpt><trkpt lat="43.42187695860164" lon="11.97468723666924"><ele>403.99999999999994</ele><time>2026-03-29T09:51:12Z</time></trkpt><trkpt lat="43.42180988181842" lon="11.974686444102234"><ele>404.0</ele><time>2026-03-29T09:51:20Z</time></trkpt><trkpt lat="43.42176443050661" lon="11.97458482513802"><ele>404.0</ele><time>2026-03-29T09:51:22Z</time></trkpt><trkpt lat="43.421747220634565" lon="11.974475499245933"><ele>404.0</ele><time>2026-03-29T09:51:23Z</time></trkpt><trkpt lat="43.42172130073381" lon="11.974362908884853"><ele>403.99999999999994</ele><time>2026-03-29T09:51:24Z</time></trkpt><trkpt lat="43.42169907976814" lon="11.974232458517037"><ele>404.0</ele><time>2026-03-29T09:51:25Z</time></trkpt><trkpt lat="43.42166996817616" lon="11.974096874561914"><ele>404.4</ele><time>2026-03-29T09:51:26Z</time></trkpt><trkpt lat="43.421648245428734" lon="11.97394970354875"><ele>404.79999999999995</ele><time>2026-03-29T09:51:27Z</time></trkpt><trkpt lat="43.42162679797943" lon="11.973795485927475"><ele>405.20000000000005</ele><time>2026-03-29T09:51:28Z</time></trkpt><trkpt lat="43.42161141020569" lon="11.973640917689515"><ele>405.6</ele><time>2026-03-29T09:51:29Z</time></trkpt><trkpt lat="43.42160508787689" lon="11.97350764991022"><ele>406.0</ele><time>2026-03-29T09:51:30Z</time></trkpt><trkpt lat="43.421595186907794" lon="11.973372335273947"><ele>406.4</ele><time>2026-03-29T09:51:31Z</time></trkpt><trkpt lat="43.42158591694451" lon="11.973226629197173"><ele>406.8</ele><time>2026-03-29T09:51:31.999Z</time></trkpt><trkpt lat="43.4215777799866" lon="11.973065033062456"><ele>407.2</ele><time>2026-03-29T09:51:32.999Z</time></trkpt><trkpt lat="43.42157068725637" lon="11.972911184507424"><ele>407.59999999999997</ele><time>2026-03-29T09:51:33.999Z</time></trkpt><trkpt lat="43.42156279000638" lon="11.9727793010929"><ele>408.0</ele><time>2026-03-29T09:51:34.999Z</time></trkpt><trkpt lat="43.42156048055154" lon="11.972679117228456"><ele>408.0</ele><time>2026-03-29T09:51:35.999Z</time></trkpt><trkpt lat="43.42164654020324" lon="11.9725726132968"><ele>408.0</ele><time>2026-03-29T09:51:37.999Z</time></trkpt><trkpt lat="43.421718068814364" lon="11.97255019544256"><ele>408.0</ele><time>2026-03-29T09:51:38.999Z</time></trkpt><trkpt lat="43.42179658465931" lon="11.972525812154498"><ele>408.0</ele><time>2026-03-29T09:51:39.999Z</time></trkpt><trkpt lat="43.421885335614526" lon="11.97249946936392"><ele>408.0</ele><time>2026-03-29T09:51:40.999Z</time></trkpt><trkpt lat="43.42198125932641" lon="11.972472090779883"><ele>407.79999999999995</ele><time>2026-03-29T09:51:41.999Z</time></trkpt><trkpt lat="43.42209037078045" lon="11.972435400851715"><ele>407.6</ele><time>2026-03-29T09:51:42.999Z</time></trkpt><trkpt lat="43.422202297392914" lon="11.97240075900757"><ele>407.4</ele><time>2026-03-29T09:51:43.999Z</time></trkpt><trkpt lat="43.42229677912663" lon="11.972374140394779"><ele>407.20000000000005</ele><time>2026-03-29T09:51:44.999Z</time></trkpt><trkpt lat="43.422370221381314" lon="11.972351876287492"><ele>407.0</ele><time>2026-03-29T09:51:45.999Z</time></trkpt><trkpt lat="43.42243361594511" lon="11.972317456726143"><ele>406.8</ele><time>2026-03-29T09:51:46.999Z</time></trkpt><trkpt lat="43.422478247367195" lon="11.972249491611935"><ele>406.6</ele><time>2026-03-29T09:51:47.999Z</time></trkpt><trkpt lat="43.42250670477938" lon="11.97212025767364"><ele>406.40000000000003</ele><time>2026-03-29T09:51:48.999Z</time></trkpt><trkpt lat="43.42251437741807" lon="11.971975981104364"><ele>406.20000000000005</ele><time>2026-03-29T09:51:49.999Z</time></trkpt><trkpt lat="43.422522556146625" lon="11.971821191662526"><ele>406.0</ele><time>2026-03-29T09:51:50.999Z</time></trkpt><trkpt lat="43.42254331168695" lon="11.971651919273826"><ele>406.0</ele><time>2026-03-29T09:51:51.999Z</time></trkpt><trkpt lat="43.422572858916624" lon="11.97147036406834"><ele>406.0</ele><time>2026-03-29T09:51:52.999Z</time></trkpt><trkpt lat="43.42261001040983" lon="11.971273453986095"><ele>406.0</ele><time>2026-03-29T09:51:53.999Z</time></trkpt><trkpt lat="43.42264821632663" lon="11.971067726413715"><ele>406.0</ele><time>2026-03-29T09:51:54.999Z</time></trkpt><trkpt lat="43.42268230090947" lon="11.970903839405645"><ele>405.8</ele><time>2026-03-29T09:51:55.999Z</time></trkpt><trkpt lat="43.42272982613593" lon="11.970749120209144"><ele>405.6</ele><time>2026-03-29T09:51:56.999Z</time></trkpt><trkpt lat="43.422796387907056" lon="11.970605165436307"><ele>405.4</ele><time>2026-03-29T09:51:57.999Z</time></trkpt><trkpt lat="43.4228725158644" lon="11.970500845075694"><ele>405.2</ele><time>2026-03-29T09:51:58.999Z</time></trkpt><trkpt lat="43.4229546007519" lon="11.970437801651961"><ele>405.0</ele><time>2026-03-29T09:51:59.999Z</time></trkpt><trkpt lat="43.423052961985874" lon="11.970395247605547"><ele>406.0</ele><time>2026-03-29T09:52:00.999Z</time></trkpt><trkpt lat="43.423134348839646" lon="11.970381160417316"><ele>407.0</ele><time>2026-03-29T09:52:01.999Z</time></trkpt><trkpt lat="43.42321292920126" lon="11.970379161460382"><ele>408.0</ele><time>2026-03-29T09:52:02.999Z</time></trkpt><trkpt lat="43.42328334762355" lon="11.970432127160002"><ele>409.0</ele><time>2026-03-29T09:52:03.999Z</time></trkpt><trkpt lat="43.423348639010165" lon="11.970495774408006"><ele>410.0</ele><time>2026-03-29T09:52:04.999Z</time></trkpt><trkpt lat="43.423374593585216" lon="11.970604581647317"><ele>411.0</ele><time>2026-03-29T09:52:05.999Z</time></trkpt><trkpt lat="43.423397349095495" lon="11.970741696968167"><ele>411.4</ele><time>2026-03-29T09:52:06.999Z</time></trkpt><trkpt lat="43.42341338141593" lon="11.970906037875446"><ele>411.8</ele><time>2026-03-29T09:52:07.999Z</time></trkpt><trkpt lat="43.423427114512286" lon="11.971076819218295"><ele>412.2</ele><time>2026-03-29T09:52:08.999Z</time></trkpt><trkpt lat="43.42344788186324" lon="11.971225878014426"><ele>412.59999999999997</ele><time>2026-03-29T09:52:09.999Z</time></trkpt><trkpt lat="43.423478238724655" lon="11.971318420043882"><ele>413.0</ele><time>2026-03-29T09:52:10.999Z</time></trkpt><trkpt lat="43.42358576714817" lon="11.971369552068554"><ele>412.99999999999994</ele><time>2026-03-29T09:52:12.999Z</time></trkpt><trkpt lat="43.423650912994255" lon="11.971349402285648"><ele>413.0</ele><time>2026-03-29T09:52:13.999Z</time></trkpt><trkpt lat="43.42370477884794" lon="11.971289033108379"><ele>413.0</ele><time>2026-03-29T09:52:14.999Z</time></trkpt><trkpt lat="43.423748880864856" lon="11.971189990562001"><ele>413.0</ele><time>2026-03-29T09:52:15.999Z</time></trkpt><trkpt lat="43.423796020205806" lon="11.971085540838734"><ele>412.99999999999994</ele><time>2026-03-29T09:52:16.999Z</time></trkpt><trkpt lat="43.423852660201824" lon="11.970972786179606"><ele>413.0</ele><time>2026-03-29T09:52:17.999Z</time></trkpt><trkpt lat="43.42391493267405" lon="11.970885231457304"><ele>416.25</ele><time>2026-03-29T09:52:18.999Z</time></trkpt><trkpt lat="43.423995876279406" lon="11.970835948707078"><ele>419.5</ele><time>2026-03-29T09:52:19.999Z</time></trkpt><trkpt lat="43.424079953425974" lon="11.970824866181367"><ele>422.75</ele><time>2026-03-29T09:52:20.999Z</time></trkpt><trkpt lat="43.42427157509388" lon="11.97087368099139"><ele>426.0</ele><time>2026-03-29T09:52:22.999Z</time></trkpt><trkpt lat="43.42436616640952" lon="11.97091261876108"><ele>426.0</ele><time>2026-03-29T09:52:23.999Z</time></trkpt><trkpt lat="43.42446398666719" lon="11.970933868508581"><ele>426.0</ele><time>2026-03-29T09:52:24.999Z</time></trkpt><trkpt lat="43.424558645723" lon="11.970916103874297"><ele>426.0</ele><time>2026-03-29T09:52:25.999Z</time></trkpt><trkpt lat="43.42463156562749" lon="11.970855605528152"><ele>426.0</ele><time>2026-03-29T09:52:26.999Z</time></trkpt><trkpt lat="43.424691191238516" lon="11.970775136913922"><ele>426.0</ele><time>2026-03-29T09:52:27.999Z</time></trkpt><trkpt lat="43.42482104234506" lon="11.97081433519059"><ele>428.8333333333333</ele><time>2026-03-29T09:52:29.999Z</time></trkpt><trkpt lat="43.42488472177039" lon="11.97086079864572"><ele>431.66666666666663</ele><time>2026-03-29T09:52:30.999Z</time></trkpt><trkpt lat="43.42495596397168" lon="11.970843674478306"><ele>434.5</ele><time>2026-03-29T09:52:31.999Z</time></trkpt><trkpt lat="43.42499171616695" lon="11.970703610825776"><ele>437.3333333333333</ele><time>2026-03-29T09:52:33.998Z</time></trkpt><trkpt lat="43.425024925350414" lon="11.970617869069734"><ele>440.16666666666663</ele><time>2026-03-29T09:52:34.998Z</time></trkpt><trkpt lat="43.42509059383536" lon="11.970580215366711"><ele>443.0</ele><time>2026-03-29T09:52:35.998Z</time></trkpt><trkpt lat="43.425180331027256" lon="11.970682026014607"><ele>442.99999999999994</ele><time>2026-03-29T09:52:37.998Z</time></trkpt><trkpt lat="43.42521243911454" lon="11.970852231513048"><ele>443.0</ele><time>2026-03-29T09:52:39.998Z</time></trkpt><trkpt lat="43.42525561815382" lon="11.97092135222365"><ele>443.0</ele><time>2026-03-29T09:52:40.998Z</time></trkpt><trkpt lat="43.425315215378596" lon="11.97098410040564"><ele>443.0</ele><time>2026-03-29T09:52:42.998Z</time></trkpt><trkpt lat="43.425377105298715" lon="11.971023357476616"><ele>442.99999999999994</ele><time>2026-03-29T09:52:45.998Z</time></trkpt><trkpt lat="43.4254729344983" lon="11.971082233091296"><ele>443.0</ele><time>2026-03-29T09:52:55Z</time></trkpt><trkpt lat="43.42553992156974" lon="11.971116610306224"><ele>447.0</ele><time>2026-03-29T09:52:56Z</time></trkpt><trkpt lat="43.42561500590763" lon="11.971164934216382"><ele>450.99999999999994</ele><time>2026-03-29T09:52:57Z</time></trkpt><trkpt lat="43.42569344106053" lon="11.971223887173318"><ele>454.99999999999994</ele><time>2026-03-29T09:52:58Z</time></trkpt><trkpt lat="43.42578110555746" lon="11.971291074218415"><ele>459.0</ele><time>2026-03-29T09:52:59Z</time></trkpt><trkpt lat="43.425873633993255" lon="11.971365009943607"><ele>463.0</ele><time>2026-03-29T09:53:00Z</time></trkpt><trkpt lat="43.425957937176065" lon="11.97145776152"><ele>463.0</ele><time>2026-03-29T09:53:01Z</time></trkpt><trkpt lat="43.42603661631544" lon="11.971574025720313"><ele>463.0</ele><time>2026-03-29T09:53:02Z</time></trkpt><trkpt lat="43.426130428139984" lon="11.97166291192859"><ele>463.0</ele><time>2026-03-29T09:53:03Z</time></trkpt><trkpt lat="43.426241020414416" lon="11.971722549886282"><ele>463.0</ele><time>2026-03-29T09:53:04Z</time></trkpt><trkpt lat="43.42636066633133" lon="11.97177400177512"><ele>468.5</ele><time>2026-03-29T09:53:05Z</time></trkpt><trkpt lat="43.42649025694387" lon="11.97182766387261"><ele>474.0</ele><time>2026-03-29T09:53:06Z</time></trkpt><trkpt lat="43.42662370012058" lon="11.971886799155758"><ele>479.5</ele><time>2026-03-29T09:53:07Z</time></trkpt><trkpt lat="43.42673897284159" lon="11.97197312183678"><ele>485.0</ele><time>2026-03-29T09:53:08Z</time></trkpt><trkpt lat="43.42684309804327" lon="11.97207056743788"><ele>485.0</ele><time>2026-03-29T09:53:09Z</time></trkpt><trkpt lat="43.42693772284816" lon="11.972100181518474"><ele>485.0</ele><time>2026-03-29T09:53:10Z</time></trkpt><trkpt lat="43.427044260467525" lon="11.972088890708633"><ele>485.0</ele><time>2026-03-29T09:53:11Z</time></trkpt><trkpt lat="43.42718446015587" lon="11.972059375058665"><ele>485.0</ele><time>2026-03-29T09:53:12Z</time></trkpt><trkpt lat="43.42735002459062" lon="11.972015666108177"><ele>486.75</ele><time>2026-03-29T09:53:13Z</time></trkpt><trkpt lat="43.427508373475895" lon="11.97198403174495"><ele>488.5</ele><time>2026-03-29T09:53:14Z</time></trkpt><trkpt lat="43.427651214103356" lon="11.971952399006739"><ele>490.25</ele><time>2026-03-29T09:53:15Z</time></trkpt><trkpt lat="43.42777767310634" lon="11.971890581467308"><ele>492.0</ele><time>2026-03-29T09:53:16Z</time></trkpt><trkpt lat="43.427899623558" lon="11.971832842687034"><ele>491.75</ele><time>2026-03-29T09:53:17Z</time></trkpt><trkpt lat="43.42803105321287" lon="11.971808463701324"><ele>491.5</ele><time>2026-03-29T09:53:18Z</time></trkpt><trkpt lat="43.4281847366916" lon="11.971814254445775"><ele>491.25</ele><time>2026-03-29T09:53:19Z</time></trkpt><trkpt lat="43.4283308797119" lon="11.971836624878733"><ele>491.0</ele><time>2026-03-29T09:53:20Z</time></trkpt><trkpt lat="43.42846355615444" lon="11.971834735793585"><ele>491.0</ele><time>2026-03-29T09:53:21Z</time></trkpt><trkpt lat="43.42857470166058" lon="11.971815922339037"><ele>491.0</ele><time>2026-03-29T09:53:22Z</time></trkpt><trkpt lat="43.42869283443344" lon="11.971735513393375"><ele>491.0</ele><time>2026-03-29T09:53:23Z</time></trkpt><trkpt lat="43.42883330996934" lon="11.971620647703588"><ele>491.0</ele><time>2026-03-29T09:53:24Z</time></trkpt><trkpt lat="43.428980156292795" lon="11.97152427408153"><ele>487.3333333333333</ele><time>2026-03-29T09:53:25Z</time></trkpt><trkpt lat="43.42914240849058" lon="11.971439597392475"><ele>483.66666666666663</ele><time>2026-03-29T09:53:26Z</time></trkpt><trkpt lat="43.42931393093223" lon="11.971356765142163"><ele>480.0</ele><time>2026-03-29T09:53:27Z</time></trkpt><trkpt lat="43.4295152343321" lon="11.971268260169277"><ele>479.0</ele><time>2026-03-29T09:53:28Z</time></trkpt><trkpt lat="43.4297169277238" lon="11.971173651250666"><ele>478.0</ele><time>2026-03-29T09:53:29Z</time></trkpt><trkpt lat="43.42990950664305" lon="11.971059183578632"><ele>477.0</ele><time>2026-03-29T09:53:30Z</time></trkpt><trkpt lat="43.43005853313541" lon="11.970968334995275"><ele>477.0</ele><time>2026-03-29T09:53:31Z</time></trkpt><trkpt lat="43.430193392191995" lon="11.970901939380248"><ele>477.0</ele><time>2026-03-29T09:53:32Z</time></trkpt><trkpt lat="43.43030275651363" lon="11.970875370829788"><ele>477.0</ele><time>2026-03-29T09:53:33Z</time></trkpt><trkpt lat="43.430399948552925" lon="11.970887415539103"><ele>477.0</ele><time>2026-03-29T09:53:34Z</time></trkpt><trkpt lat="43.43048975709772" lon="11.970947260856445"><ele>478.0</ele><time>2026-03-29T09:53:35Z</time></trkpt><trkpt lat="43.430567060261836" lon="11.971032998913621"><ele>479.0</ele><time>2026-03-29T09:53:36Z</time></trkpt><trkpt lat="43.430634739007765" lon="11.971081390794206"><ele>480.0</ele><time>2026-03-29T09:53:37Z</time></trkpt><trkpt lat="43.43070802769382" lon="11.971065022035312"><ele>481.0</ele><time>2026-03-29T09:53:38Z</time></trkpt><trkpt lat="43.43075385804544" lon="11.970987018154613"><ele>482.0</ele><time>2026-03-29T09:53:39Z</time></trkpt><trkpt lat="43.43078021292051" lon="11.97087833377021"><ele>483.0</ele><time>2026-03-29T09:53:40Z</time></trkpt><trkpt lat="43.43081111179558" lon="11.970772280707633"><ele>485.2</ele><time>2026-03-29T09:53:41Z</time></trkpt><trkpt lat="43.43086752247506" lon="11.970702257636022"><ele>487.4</ele><time>2026-03-29T09:53:42Z</time></trkpt><trkpt lat="43.43094918552759" lon="11.970687804371856"><ele>489.59999999999997</ele><time>2026-03-29T09:53:42.999Z</time></trkpt><trkpt lat="43.43106067959591" lon="11.970657658929616"><ele>491.79999999999995</ele><time>2026-03-29T09:53:43.999Z</time></trkpt><trkpt lat="43.43116994073289" lon="11.970580620508109"><ele>494.0</ele><time>2026-03-29T09:53:44.999Z</time></trkpt><trkpt lat="43.43126791646735" lon="11.970467391815447"><ele>497.66666666666663</ele><time>2026-03-29T09:53:45.999Z</time></trkpt><trkpt lat="43.43138733476424" lon="11.97034884484962"><ele>501.33333333333337</ele><time>2026-03-29T09:53:46.999Z</time></trkpt><trkpt lat="43.431523635747226" lon="11.970228788782903"><ele>505.0</ele><time>2026-03-29T09:53:47.999Z</time></trkpt><trkpt lat="43.431671679487245" lon="11.970113368511305"><ele>505.25</ele><time>2026-03-29T09:53:48.999Z</time></trkpt><trkpt lat="43.4318324706292" lon="11.969990132417621"><ele>505.5</ele><time>2026-03-29T09:53:49.999Z</time></trkpt><trkpt lat="43.43195669342005" lon="11.969881554233442"><ele>505.75</ele><time>2026-03-29T09:53:50.999Z</time></trkpt><trkpt lat="43.43205247572952" lon="11.969797642787139"><ele>506.0</ele><time>2026-03-29T09:53:51.999Z</time></trkpt><trkpt lat="43.4321375869242" lon="11.969714390798053"><ele>508.0</ele><time>2026-03-29T09:53:52.999Z</time></trkpt><trkpt lat="43.43221495650596" lon="11.969607604722338"><ele>510.0</ele><time>2026-03-29T09:53:53.999Z</time></trkpt><trkpt lat="43.43227032599763" lon="11.969477835982643"><ele>512.0</ele><time>2026-03-29T09:53:54.999Z</time></trkpt><trkpt lat="43.43231637142546" lon="11.969354089436532"><ele>514.0</ele><time>2026-03-29T09:53:55.999Z</time></trkpt><trkpt lat="43.43236663346212" lon="11.9692114028677"><ele>516.0</ele><time>2026-03-29T09:53:56.999Z</time></trkpt><trkpt lat="43.43241593499432" lon="11.969071729865089"><ele>516.0</ele><time>2026-03-29T09:53:57.999Z</time></trkpt><trkpt lat="43.432452855476" lon="11.968934051482824"><ele>516.0</ele><time>2026-03-29T09:53:58.999Z</time></trkpt><trkpt lat="43.43247809129504" lon="11.968823416623888"><ele>516.0</ele><time>2026-03-29T09:53:59.999Z</time></trkpt><trkpt lat="43.43249751885509" lon="11.968736202338851"><ele>516.0</ele><time>2026-03-29T09:54:00.999Z</time></trkpt><trkpt lat="43.43255726184646" lon="11.968615486193185"><ele>516.0</ele><time>2026-03-29T09:54:02.999Z</time></trkpt><trkpt lat="43.432685806327314" lon="11.968606512458456"><ele>516.0</ele><time>2026-03-29T09:54:04.999Z</time></trkpt><trkpt lat="43.43277077523967" lon="11.968624332036528"><ele>516.0</ele><time>2026-03-29T09:54:05.999Z</time></trkpt><trkpt lat="43.432859972486696" lon="11.96863080372966"><ele>516.0</ele><time>2026-03-29T09:54:06.999Z</time></trkpt><trkpt lat="43.432958140374645" lon="11.968631951121681"><ele>516.0</ele><time>2026-03-29T09:54:07.999Z</time></trkpt><trkpt lat="43.43306009873302" lon="11.968630948718532"><ele>516.0</ele><time>2026-03-29T09:54:08.999Z</time></trkpt><trkpt lat="43.43317026271831" lon="11.968643265414961"><ele>516.75</ele><time>2026-03-29T09:54:09.999Z</time></trkpt><trkpt lat="43.433292656298335" lon="11.96865569373404"><ele>517.5</ele><time>2026-03-29T09:54:10.999Z</time></trkpt><trkpt lat="43.4334122829694" lon="11.968658161174554"><ele>518.25</ele><time>2026-03-29T09:54:11.999Z</time></trkpt><trkpt lat="43.43351617455022" lon="11.968645998491004"><ele>519.0</ele><time>2026-03-29T09:54:12.999Z</time></trkpt><trkpt lat="43.433624025081265" lon="11.968629416695299"><ele>519.0</ele><time>2026-03-29T09:54:13.999Z</time></trkpt><trkpt lat="43.43370657605626" lon="11.968593653000418"><ele>519.0</ele><time>2026-03-29T09:54:14.999Z</time></trkpt><trkpt lat="43.43382694761071" lon="11.968558898467613"><ele>519.0</ele><time>2026-03-29T09:54:16.999Z</time></trkpt><trkpt lat="43.43390170074105" lon="11.968568223673605"><ele>519.0</ele><time>2026-03-29T09:54:18.999Z</time></trkpt><trkpt lat="43.43392878557186" lon="11.968472677577088"><ele>519.0</ele><time>2026-03-29T09:54:21.999Z</time></trkpt><trkpt lat="43.43389665518595" lon="11.968328325854893"><ele>520.0</ele><time>2026-03-29T09:54:23.999Z</time></trkpt><trkpt lat="43.433898349083705" lon="11.96822112722332"><ele>521.0</ele><time>2026-03-29T09:54:24.999Z</time></trkpt><trkpt lat="43.43391164087436" lon="11.968097997179116"><ele>522.0</ele><time>2026-03-29T09:54:25.999Z</time></trkpt><trkpt lat="43.43393887220086" lon="11.96795875684931"><ele>523.0</ele><time>2026-03-29T09:54:26.999Z</time></trkpt><trkpt lat="43.43396052930122" lon="11.967819837180487"><ele>524.0</ele><time>2026-03-29T09:54:27.999Z</time></trkpt><trkpt lat="43.43399299073643" lon="11.967696402805883"><ele>524.0</ele><time>2026-03-29T09:54:28.999Z</time></trkpt><trkpt lat="43.434006519804825" lon="11.967547344845531"><ele>524.0</ele><time>2026-03-29T09:54:30.999Z</time></trkpt><trkpt lat="43.43398659674108" lon="11.96744184250466"><ele>524.0</ele><time>2026-03-29T09:54:31.999Z</time></trkpt><trkpt lat="43.43396554835698" lon="11.967309461668238"><ele>524.0</ele><time>2026-03-29T09:54:32.999Z</time></trkpt><trkpt lat="43.4339390454001" lon="11.967168073170642"><ele>524.0</ele><time>2026-03-29T09:54:33.999Z</time></trkpt><trkpt lat="43.433928944568585" lon="11.967021466224956"><ele>524.0</ele><time>2026-03-29T09:54:34.999Z</time></trkpt><trkpt lat="43.43392334539932" lon="11.96690581625803"><ele>524.0</ele><time>2026-03-29T09:54:35.999Z</time></trkpt><trkpt lat="43.43389935614765" lon="11.966794394431531"><ele>524.0</ele><time>2026-03-29T09:54:36.999Z</time></trkpt><trkpt lat="43.43383892510674" lon="11.966687058022785"><ele>524.0</ele><time>2026-03-29T09:54:37.999Z</time></trkpt><trkpt lat="43.433780553838496" lon="11.966600612074858"><ele>524.0</ele><time>2026-03-29T09:54:38.999Z</time></trkpt><trkpt lat="43.43370065348098" lon="11.966512012773673"><ele>529.4</ele><time>2026-03-29T09:54:39.999Z</time></trkpt><trkpt lat="43.43362643047568" lon="11.966417813985373"><ele>534.8</ele><time>2026-03-29T09:54:40.999Z</time></trkpt><trkpt lat="43.43357556546516" lon="11.966342757833793"><ele>540.2</ele><time>2026-03-29T09:54:41.999Z</time></trkpt><trkpt lat="43.43348356709966" lon="11.966286184327965"><ele>545.6</ele><time>2026-03-29T09:54:43.999Z</time></trkpt><trkpt lat="43.43338286609493" lon="11.966202248647443"><ele>551.0</ele><time>2026-03-29T09:54:45.998Z</time></trkpt><trkpt lat="43.433340297448886" lon="11.96609822250098"><ele>551.0</ele><time>2026-03-29T09:54:46.998Z</time></trkpt><trkpt lat="43.43328684825367" lon="11.966008538799288"><ele>551.0</ele><time>2026-03-29T09:54:47.998Z</time></trkpt><trkpt lat="43.43330013059938" lon="11.965829368351514"><ele>551.0</ele><time>2026-03-29T09:54:49.998Z</time></trkpt><trkpt lat="43.43334489704989" lon="11.965731848761102"><ele>551.0</ele><time>2026-03-29T09:54:50.998Z</time></trkpt><trkpt lat="43.43339491165724" lon="11.965645970073078"><ele>551.0</ele><time>2026-03-29T09:54:51.998Z</time></trkpt><trkpt lat="43.433414682571936" lon="11.965546053787861"><ele>550.6666666666666</ele><time>2026-03-29T09:54:52.998Z</time></trkpt><trkpt lat="43.43333603475248" lon="11.965426846435863"><ele>550.3333333333333</ele><time>2026-03-29T09:54:54.998Z</time></trkpt><trkpt lat="43.43327002778115" lon="11.965397142151676"><ele>550.0</ele><time>2026-03-29T09:54:55.998Z</time></trkpt><trkpt lat="43.43319587897993" lon="11.96532635263108"><ele>549.6666666666666</ele><time>2026-03-29T09:54:56.998Z</time></trkpt><trkpt lat="43.43313258297174" lon="11.965257413168192"><ele>549.3333333333334</ele><time>2026-03-29T09:54:57.998Z</time></trkpt><trkpt lat="43.43304377196504" lon="11.965233731784924"><ele>549.0</ele><time>2026-03-29T09:54:58.998Z</time></trkpt><trkpt lat="43.43295322232544" lon="11.965224827211504"><ele>549.0</ele><time>2026-03-29T09:54:59.998Z</time></trkpt><trkpt lat="43.432900669884425" lon="11.965173959312569"><ele>549.0</ele><time>2026-03-29T09:55:01Z</time></trkpt><trkpt lat="43.432894271198066" lon="11.965071067033866"><ele>549.0</ele><time>2026-03-29T09:55:02Z</time></trkpt><trkpt lat="43.43290138102988" lon="11.964934541185212"><ele>549.0</ele><time>2026-03-29T09:55:03Z</time></trkpt><trkpt lat="43.43289547239188" lon="11.96481178355652"><ele>549.0</ele><time>2026-03-29T09:55:04Z</time></trkpt><trkpt lat="43.432823965219725" lon="11.964655920712783"><ele>547.3333333333334</ele><time>2026-03-29T09:55:06Z</time></trkpt><trkpt lat="43.43275689807735" lon="11.964635038765248"><ele>545.6666666666666</ele><time>2026-03-29T09:55:07Z</time></trkpt><trkpt lat="43.43269513263521" lon="11.964609394591633"><ele>544.0</ele><time>2026-03-29T09:55:08Z</time></trkpt><trkpt lat="43.43267549621422" lon="11.964458364838913"><ele>542.3333333333333</ele><time>2026-03-29T09:55:10Z</time></trkpt><trkpt lat="43.43266664660256" lon="11.964352863369577"><ele>540.6666666666666</ele><time>2026-03-29T09:55:11Z</time></trkpt><trkpt lat="43.43263497614029" lon="11.96426232371896"><ele>539.0</ele><time>2026-03-29T09:55:12Z</time></trkpt><trkpt lat="43.432617252872625" lon="11.964149758236713"><ele>538.4</ele><time>2026-03-29T09:55:13Z</time></trkpt><trkpt lat="43.432638841820875" lon="11.964040063175629"><ele>537.8</ele><time>2026-03-29T09:55:14Z</time></trkpt><trkpt lat="43.432681244289654" lon="11.963916150733107"><ele>537.2</ele><time>2026-03-29T09:55:15Z</time></trkpt><trkpt lat="43.43272618108288" lon="11.963795300900749"><ele>536.6</ele><time>2026-03-29T09:55:16Z</time></trkpt><trkpt lat="43.43276491805532" lon="11.963666902577069"><ele>536.0</ele><time>2026-03-29T09:55:17Z</time></trkpt><trkpt lat="43.4328001208732" lon="11.963583965920321"><ele>536.0</ele><time>2026-03-29T09:55:18Z</time></trkpt><trkpt lat="43.43288374921507" lon="11.963527218102433"><ele>536.0</ele><time>2026-03-29T09:55:20Z</time></trkpt><trkpt lat="43.432932401750605" lon="11.963422154077378"><ele>536.0</ele><time>2026-03-29T09:55:22Z</time></trkpt><trkpt lat="43.43293068902146" lon="11.963330009506846"><ele>536.0</ele><time>2026-03-29T09:55:23Z</time></trkpt><trkpt lat="43.43291989780225" lon="11.96323878367934"><ele>536.0</ele><time>2026-03-29T09:55:24Z</time></trkpt><trkpt lat="43.43293282257719" lon="11.963091772186043"><ele>536.0</ele><time>2026-03-29T09:55:26Z</time></trkpt><trkpt lat="43.43296072457122" lon="11.963008046851987"><ele>538.4</ele><time>2026-03-29T09:55:27Z</time></trkpt><trkpt lat="43.43303476016199" lon="11.962859361830004"><ele>540.8</ele><time>2026-03-29T09:55:29Z</time></trkpt><trkpt lat="43.43308425289512" lon="11.96275739512578"><ele>543.1999999999999</ele><time>2026-03-29T09:55:30Z</time></trkpt><trkpt lat="43.43314489373665" lon="11.962647893722112"><ele>545.6</ele><time>2026-03-29T09:55:31Z</time></trkpt><trkpt lat="43.433196946380306" lon="11.962552307106378"><ele>548.0</ele><time>2026-03-29T09:55:32Z</time></trkpt><trkpt lat="43.43321821651093" lon="11.962453194794037"><ele>550.3333333333333</ele><time>2026-03-29T09:55:33Z</time></trkpt><trkpt lat="43.43325364151374" lon="11.962362202585899"><ele>552.6666666666666</ele><time>2026-03-29T09:55:34Z</time></trkpt><trkpt lat="43.433316449876685" lon="11.962306871920804"><ele>555.0</ele><time>2026-03-29T09:55:35Z</time></trkpt><trkpt lat="43.43341930796885" lon="11.962226912616604"><ele>557.3333333333334</ele><time>2026-03-29T09:55:37Z</time></trkpt><trkpt lat="43.433497265224766" lon="11.962155136658328"><ele>559.6666666666667</ele><time>2026-03-29T09:55:38Z</time></trkpt><trkpt lat="43.43355961319913" lon="11.962086392930027"><ele>562.0</ele><time>2026-03-29T09:55:39Z</time></trkpt><trkpt lat="43.433582086030405" lon="11.961991865043345"><ele>562.0</ele><time>2026-03-29T09:55:40Z</time></trkpt><trkpt lat="43.433569482163385" lon="11.961889898081512"><ele>562.0</ele><time>2026-03-29T09:55:41Z</time></trkpt><trkpt lat="43.43358102966343" lon="11.961746168779618"><ele>562.0</ele><time>2026-03-29T09:55:42Z</time></trkpt><trkpt lat="43.43357639001423" lon="11.961626680613358"><ele>562.0</ele><time>2026-03-29T09:55:43Z</time></trkpt><trkpt lat="43.43350073698552" lon="11.961471832617569"><ele>562.0</ele><time>2026-03-29T09:55:45Z</time></trkpt><trkpt lat="43.433499177246105" lon="11.961358470970431"><ele>560.8333333333334</ele><time>2026-03-29T09:55:46Z</time></trkpt><trkpt lat="43.43352953289163" lon="11.961272797121975"><ele>559.6666666666667</ele><time>2026-03-29T09:55:47Z</time></trkpt><trkpt lat="43.43359494982119" lon="11.961232098225166"><ele>558.5</ele><time>2026-03-29T09:55:48Z</time></trkpt><trkpt lat="43.43366630288428" lon="11.9611921015646"><ele>557.3333333333334</ele><time>2026-03-29T09:55:49Z</time></trkpt><trkpt lat="43.43371774832551" lon="11.961140772547296"><ele>556.1666666666666</ele><time>2026-03-29T09:55:49.999Z</time></trkpt><trkpt lat="43.433783623443624" lon="11.961091735000116"><ele>555.0</ele><time>2026-03-29T09:55:50.999Z</time></trkpt><trkpt lat="43.433892421776285" lon="11.960985756469757"><ele>555.0</ele><time>2026-03-29T09:55:52.999Z</time></trkpt><trkpt lat="43.43393987790308" lon="11.96088648449581"><ele>555.0</ele><time>2026-03-29T09:55:53.999Z</time></trkpt><trkpt lat="43.433993623259916" lon="11.960787556097289"><ele>555.0</ele><time>2026-03-29T09:55:54.999Z</time></trkpt><trkpt lat="43.43402299499734" lon="11.96067943111374"><ele>555.0</ele><time>2026-03-29T09:55:55.999Z</time></trkpt><trkpt lat="43.43403501996454" lon="11.960557618252972"><ele>555.0</ele><time>2026-03-29T09:55:56.999Z</time></trkpt><trkpt lat="43.43402925358785" lon="11.96042563292683"><ele>555.0</ele><time>2026-03-29T09:55:58.999Z</time></trkpt><trkpt lat="43.43407374035773" lon="11.960342772146658"><ele>558.4</ele><time>2026-03-29T09:56:00.999Z</time></trkpt><trkpt lat="43.43415239404166" lon="11.960220087240977"><ele>561.8</ele><time>2026-03-29T09:56:02.999Z</time></trkpt><trkpt lat="43.43420769050379" lon="11.960111462771367"><ele>565.2</ele><time>2026-03-29T09:56:03.999Z</time></trkpt><trkpt lat="43.43424495591685" lon="11.959977679550061"><ele>568.6</ele><time>2026-03-29T09:56:04.999Z</time></trkpt><trkpt lat="43.434272841575705" lon="11.959836785640427"><ele>572.0</ele><time>2026-03-29T09:56:05.999Z</time></trkpt><trkpt lat="43.434306517417674" lon="11.95971107041811"><ele>574.0</ele><time>2026-03-29T09:56:06.999Z</time></trkpt><trkpt lat="43.43433357685844" lon="11.959617639357527"><ele>576.0</ele><time>2026-03-29T09:56:07.999Z</time></trkpt><trkpt lat="43.43435701422866" lon="11.959523550956877"><ele>578.0</ele><time>2026-03-29T09:56:08.999Z</time></trkpt><trkpt lat="43.43440265967081" lon="11.959426936649717"><ele>580.0</ele><time>2026-03-29T09:56:09.999Z</time></trkpt><trkpt lat="43.43443072918691" lon="11.959334737466087"><ele>582.0</ele><time>2026-03-29T09:56:10.999Z</time></trkpt><trkpt lat="43.434501327115804" lon="11.95927833746583"><ele>584.0</ele><time>2026-03-29T09:56:12.999Z</time></trkpt><trkpt lat="43.434571948042304" lon="11.959262427230245"><ele>585.3333333333333</ele><time>2026-03-29T09:56:21.999Z</time></trkpt><trkpt lat="43.43465762751904" lon="11.959248241165042"><ele>586.6666666666666</ele><time>2026-03-29T09:56:23.999Z</time></trkpt><trkpt lat="43.434732544933794" lon="11.959226509453531"><ele>588.0</ele><time>2026-03-29T09:56:24.999Z</time></trkpt><trkpt lat="43.43481344403017" lon="11.95921428617996"><ele>589.3333333333334</ele><time>2026-03-29T09:56:25.999Z</time></trkpt><trkpt lat="43.434915044592685" lon="11.959198821881921"><ele>590.6666666666667</ele><time>2026-03-29T09:56:26.999Z</time></trkpt><trkpt lat="43.435013322347096" lon="11.959195277827737"><ele>592.0</ele><time>2026-03-29T09:56:27.999Z</time></trkpt><trkpt lat="43.43510670998062" lon="11.959202572682223"><ele>589.2</ele><time>2026-03-29T09:56:28.999Z</time></trkpt><trkpt lat="43.4352314799782" lon="11.959229668140143"><ele>586.4000000000001</ele><time>2026-03-29T09:56:29.999Z</time></trkpt><trkpt lat="43.43531764262801" lon="11.959253282211662"><ele>583.5999999999999</ele><time>2026-03-29T09:56:30.999Z</time></trkpt><trkpt lat="43.43539842514355" lon="11.959284140737108"><ele>580.8</ele><time>2026-03-29T09:56:31.999Z</time></trkpt><trkpt lat="43.43545996068438" lon="11.959315744553736"><ele>578.0</ele><time>2026-03-29T09:56:32.999Z</time></trkpt><trkpt lat="43.435546499901704" lon="11.959389905064127"><ele>578.0</ele><time>2026-03-29T09:56:34.999Z</time></trkpt><trkpt lat="43.4356404735044" lon="11.9593404952736"><ele>578.0</ele><time>2026-03-29T09:56:36.999Z</time></trkpt><trkpt lat="43.43572101860497" lon="11.959278987731464"><ele>578.0</ele><time>2026-03-29T09:56:38.999Z</time></trkpt><trkpt lat="43.435700845856736" lon="11.959131266535808"><ele>578.0</ele><time>2026-03-29T09:56:40.999Z</time></trkpt><trkpt lat="43.43567765415701" lon="11.959004737476429"><ele>578.0</ele><time>2026-03-29T09:56:41.999Z</time></trkpt><trkpt lat="43.43566749397446" lon="11.95889320023375"><ele>580.1666666666666</ele><time>2026-03-29T09:56:42.999Z</time></trkpt><trkpt lat="43.43566035841679" lon="11.958735982102779"><ele>582.3333333333333</ele><time>2026-03-29T09:56:44.999Z</time></trkpt><trkpt lat="43.43566395577911" lon="11.958646644080979"><ele>584.5</ele><time>2026-03-29T09:56:45.999Z</time></trkpt><trkpt lat="43.43566074089626" lon="11.958544911159096"><ele>586.6666666666666</ele><time>2026-03-29T09:56:46.999Z</time></trkpt><trkpt lat="43.435676045272096" lon="11.958432531695218"><ele>588.8333333333334</ele><time>2026-03-29T09:56:47.999Z</time></trkpt><trkpt lat="43.43565526497141" lon="11.958344025372677"><ele>591.0</ele><time>2026-03-29T09:56:48.999Z</time></trkpt><trkpt lat="43.43556383787589" lon="11.958375242952783"><ele>591.0</ele><time>2026-03-29T09:56:50.999Z</time></trkpt><trkpt lat="43.43551903854142" lon="11.958450035784592"><ele>591.0</ele><time>2026-03-29T09:56:51.998Z</time></trkpt><trkpt lat="43.435465124077965" lon="11.958517902787506"><ele>591.0</ele><time>2026-03-29T09:56:52.998Z</time></trkpt><trkpt lat="43.43538035187055" lon="11.958416602975893"><ele>591.0</ele><time>2026-03-29T09:56:54.998Z</time></trkpt><trkpt lat="43.43531892976578" lon="11.95833822856015"><ele>591.0</ele><time>2026-03-29T09:56:55.998Z</time></trkpt><trkpt lat="43.4352625128941" lon="11.958243063762241"><ele>591.0</ele><time>2026-03-29T09:56:56.998Z</time></trkpt><trkpt lat="43.43520236373432" lon="11.958149201459248"><ele>594.6666666666666</ele><time>2026-03-29T09:56:57.998Z</time></trkpt><trkpt lat="43.435139754456365" lon="11.958106964911048"><ele>598.3333333333334</ele><time>2026-03-29T09:56:58.998Z</time></trkpt><trkpt lat="43.43506895613537" lon="11.958062933067719"><ele>602.0</ele><time>2026-03-29T09:56:59.998Z</time></trkpt><trkpt lat="43.434973592089314" lon="11.958014004142479"><ele>605.6666666666667</ele><time>2026-03-29T09:57:00.998Z</time></trkpt><trkpt lat="43.43488801901477" lon="11.957984886133465"><ele>609.3333333333334</ele><time>2026-03-29T09:57:01.998Z</time></trkpt><trkpt lat="43.43482419702797" lon="11.957979593618248"><ele>613.0</ele><time>2026-03-29T09:57:02.998Z</time></trkpt><trkpt lat="43.4347283339982" lon="11.957981784740607"><ele>613.6</ele><time>2026-03-29T09:57:04.998Z</time></trkpt><trkpt lat="43.43461564804513" lon="11.957936557439872"><ele>614.1999999999999</ele><time>2026-03-29T09:57:07Z</time></trkpt><trkpt lat="43.434509592178586" lon="11.957890091417125"><ele>614.8</ele><time>2026-03-29T09:57:09Z</time></trkpt><trkpt lat="43.43445939408555" lon="11.957785401648813"><ele>615.4</ele><time>2026-03-29T09:57:11Z</time></trkpt><trkpt lat="43.43436720149414" lon="11.957662474786554"><ele>616.0</ele><time>2026-03-29T09:57:13Z</time></trkpt><trkpt lat="43.434316725179166" lon="11.957587687174048"><ele>618.4</ele><time>2026-03-29T09:57:14Z</time></trkpt><trkpt lat="43.434250542059544" lon="11.957492510554879"><ele>620.8</ele><time>2026-03-29T09:57:15Z</time></trkpt><trkpt lat="43.434179358204545" lon="11.957382696598925"><ele>623.1999999999999</ele><time>2026-03-29T09:57:16Z</time></trkpt><trkpt lat="43.434111317635804" lon="11.957277822950564"><ele>625.6</ele><time>2026-03-29T09:57:17Z</time></trkpt><trkpt lat="43.43405212032755" lon="11.957166220142982"><ele>628.0</ele><time>2026-03-29T09:57:19Z</time></trkpt><trkpt lat="43.43402346854201" lon="11.95708692050779"><ele>628.0</ele><time>2026-03-29T09:57:20Z</time></trkpt><trkpt lat="43.4339952590717" lon="11.956988049227776"><ele>628.0</ele><time>2026-03-29T09:57:21Z</time></trkpt><trkpt lat="43.43393118339227" lon="11.956869370396905"><ele>628.0</ele><time>2026-03-29T09:57:22Z</time></trkpt><trkpt lat="43.43388011336015" lon="11.956758678486201"><ele>628.0</ele><time>2026-03-29T09:57:23Z</time></trkpt><trkpt lat="43.43385776364123" lon="11.95664935961678"><ele>628.0</ele><time>2026-03-29T09:57:24Z</time></trkpt><trkpt lat="43.433851373041804" lon="11.95654351770204"><ele>628.0</ele><time>2026-03-29T09:57:25Z</time></trkpt><trkpt lat="43.4338389828195" lon="11.956437548616472"><ele>630.3333333333334</ele><time>2026-03-29T09:57:26Z</time></trkpt><trkpt lat="43.43383238695054" lon="11.95633527959087"><ele>632.6666666666667</ele><time>2026-03-29T09:57:27Z</time></trkpt><trkpt lat="43.43383105657977" lon="11.956227981302726"><ele>635.0</ele><time>2026-03-29T09:57:28Z</time></trkpt><trkpt lat="43.43384036864365" lon="11.956128264411799"><ele>637.3333333333334</ele><time>2026-03-29T09:57:29Z</time></trkpt><trkpt lat="43.4338454207896" lon="11.956038498018495"><ele>639.6666666666666</ele><time>2026-03-29T09:57:30Z</time></trkpt><trkpt lat="43.433849681277295" lon="11.955936172801739"><ele>642.0</ele><time>2026-03-29T09:57:31Z</time></trkpt><trkpt lat="43.43385636188196" lon="11.955814217611216"><ele>644.0</ele><time>2026-03-29T09:57:32Z</time></trkpt><trkpt lat="43.43385540897352" lon="11.955682854951155"><ele>646.0</ele><time>2026-03-29T09:57:33Z</time></trkpt><trkpt lat="43.433847807811524" lon="11.95557405559481"><ele>648.0</ele><time>2026-03-29T09:57:34Z</time></trkpt><trkpt lat="43.43384980614115" lon="11.955464310833767"><ele>650.0</ele><time>2026-03-29T09:57:35Z</time></trkpt><trkpt lat="43.433852016820026" lon="11.955375707595934"><ele>652.0</ele><time>2026-03-29T09:57:36Z</time></trkpt><trkpt lat="43.433861400598346" lon="11.955272477213379"><ele>654.0</ele><time>2026-03-29T09:57:38Z</time></trkpt><trkpt lat="43.43389208506932" lon="11.955150973448387"><ele>655.1666666666666</ele><time>2026-03-29T09:57:42Z</time></trkpt><trkpt lat="43.43388307174123" lon="11.955021752646802"><ele>656.3333333333334</ele><time>2026-03-29T09:57:46Z</time></trkpt><trkpt lat="43.43386037399018" lon="11.95491073364722"><ele>657.5</ele><time>2026-03-29T09:57:49Z</time></trkpt><trkpt lat="43.4338450392611" lon="11.954824902722649"><ele>658.6666666666667</ele><time>2026-03-29T09:57:50Z</time></trkpt><trkpt lat="43.433835467829155" lon="11.954739216535152"><ele>659.8333333333334</ele><time>2026-03-29T09:57:50.999Z</time></trkpt><trkpt lat="43.433823278304345" lon="11.954620247348801"><ele>661.0</ele><time>2026-03-29T09:57:51.999Z</time></trkpt><trkpt lat="43.433799775951655" lon="11.95452459362577"><ele>658.5</ele><time>2026-03-29T09:57:52.999Z</time></trkpt><trkpt lat="43.43376666138014" lon="11.954359883924775"><ele>656.0</ele><time>2026-03-29T09:57:54.999Z</time></trkpt><trkpt lat="43.433747087989325" lon="11.95427280523853"><ele>653.5</ele><time>2026-03-29T09:57:55.999Z</time></trkpt><trkpt lat="43.43374538674828" lon="11.95417852256211"><ele>651.0</ele><time>2026-03-29T09:57:56.999Z</time></trkpt><trkpt lat="43.43374590991429" lon="11.954080338494228"><ele>648.5</ele><time>2026-03-29T09:57:57.999Z</time></trkpt><trkpt lat="43.43374842132291" lon="11.953975112647965"><ele>646.0</ele><time>2026-03-29T09:57:58.999Z</time></trkpt><trkpt lat="43.433758108298875" lon="11.953863482831077"><ele>646.0</ele><time>2026-03-29T09:57:59.999Z</time></trkpt><trkpt lat="43.43377885575249" lon="11.95375650127011"><ele>646.0</ele><time>2026-03-29T09:58:00.999Z</time></trkpt><trkpt lat="43.43380705977218" lon="11.95364691009107"><ele>646.0</ele><time>2026-03-29T09:58:01.999Z</time></trkpt><trkpt lat="43.43382196757615" lon="11.953556333869257"><ele>646.0</ele><time>2026-03-29T09:58:02.999Z</time></trkpt><trkpt lat="43.433893169567874" lon="11.95345958319056"><ele>646.0</ele><time>2026-03-29T09:58:04.999Z</time></trkpt><trkpt lat="43.43401236160962" lon="11.953419528937873"><ele>648.0</ele><time>2026-03-29T09:58:06.999Z</time></trkpt><trkpt lat="43.43410283407474" lon="11.953368573538713"><ele>650.0</ele><time>2026-03-29T09:58:07.999Z</time></trkpt><trkpt lat="43.43416758670981" lon="11.953276978248415"><ele>652.0</ele><time>2026-03-29T09:58:08.999Z</time></trkpt><trkpt lat="43.43422530588089" lon="11.953188563013201"><ele>654.0</ele><time>2026-03-29T09:58:09.999Z</time></trkpt><trkpt lat="43.43427906875645" lon="11.953105993610583"><ele>656.0</ele><time>2026-03-29T09:58:10.999Z</time></trkpt><trkpt lat="43.43434055835993" lon="11.953011632026328"><ele>658.0</ele><time>2026-03-29T09:58:11.999Z</time></trkpt><trkpt lat="43.43441406302965" lon="11.952955337573899"><ele>658.0</ele><time>2026-03-29T09:58:12.999Z</time></trkpt><trkpt lat="43.43448898787253" lon="11.952881357654524"><ele>658.0</ele><time>2026-03-29T09:58:13.999Z</time></trkpt><trkpt lat="43.43457689940149" lon="11.952823944118862"><ele>658.0</ele><time>2026-03-29T09:58:14.999Z</time></trkpt><trkpt lat="43.43465555638777" lon="11.952781471744174"><ele>658.0</ele><time>2026-03-29T09:58:15.999Z</time></trkpt><trkpt lat="43.434715762807855" lon="11.952744314666187"><ele>658.0</ele><time>2026-03-29T09:58:16.999Z</time></trkpt><trkpt lat="43.434797179347434" lon="11.95266626096322"><ele>658.0</ele><time>2026-03-29T09:58:18.999Z</time></trkpt><trkpt lat="43.43481231759998" lon="11.952574933899102"><ele>659.4</ele><time>2026-03-29T09:58:19.999Z</time></trkpt><trkpt lat="43.43481257948647" lon="11.952459866793529"><ele>660.8</ele><time>2026-03-29T09:58:20.999Z</time></trkpt><trkpt lat="43.43479960894325" lon="11.952319885193424"><ele>662.2</ele><time>2026-03-29T09:58:21.999Z</time></trkpt><trkpt lat="43.434814555554965" lon="11.952202673153085"><ele>663.6</ele><time>2026-03-29T09:58:22.999Z</time></trkpt><trkpt lat="43.43480950542722" lon="11.952076736889103"><ele>665.0</ele><time>2026-03-29T09:58:23.999Z</time></trkpt><trkpt lat="43.4348070460169" lon="11.95194711363612"><ele>665.0</ele><time>2026-03-29T09:58:24.999Z</time></trkpt><trkpt lat="43.43481281191101" lon="11.951857295039433"><ele>665.0</ele><time>2026-03-29T09:58:25.999Z</time></trkpt><trkpt lat="43.43483915404894" lon="11.951712613139579"><ele>665.0</ele><time>2026-03-29T09:58:26.999Z</time></trkpt><trkpt lat="43.43483645968065" lon="11.95155369668398"><ele>665.0</ele><time>2026-03-29T09:58:27.999Z</time></trkpt><trkpt lat="43.43481422736442" lon="11.951427441167851"><ele>665.0</ele><time>2026-03-29T09:58:28.999Z</time></trkpt><trkpt lat="43.43483507100436" lon="11.951306661632188"><ele>664.3333333333333</ele><time>2026-03-29T09:58:29.999Z</time></trkpt><trkpt lat="43.43484159778377" lon="11.951210014922948"><ele>663.6666666666666</ele><time>2026-03-29T09:58:30.999Z</time></trkpt><trkpt lat="43.4349157720703" lon="11.951039544868944"><ele>663.0</ele><time>2026-03-29T09:58:32.999Z</time></trkpt><trkpt lat="43.43494146234683" lon="11.950948973557518"><ele>662.3333333333334</ele><time>2026-03-29T09:58:33.999Z</time></trkpt><trkpt lat="43.435004120344615" lon="11.950887368595552"><ele>661.6666666666667</ele><time>2026-03-29T09:58:34.999Z</time></trkpt><trkpt lat="43.43507544252075" lon="11.950866407388366"><ele>661.0</ele><time>2026-03-29T09:58:35.999Z</time></trkpt><trkpt lat="43.435174176588454" lon="11.950844626855577"><ele>659.4</ele><time>2026-03-29T09:58:36.999Z</time></trkpt><trkpt lat="43.43525587041396" lon="11.950802095936464"><ele>657.8</ele><time>2026-03-29T09:58:37.999Z</time></trkpt><trkpt lat="43.43529530274796" lon="11.9506703226419"><ele>656.1999999999999</ele><time>2026-03-29T09:58:39.999Z</time></trkpt><trkpt lat="43.43533070721204" lon="11.950514731388676"><ele>654.5999999999999</ele><time>2026-03-29T09:58:41.999Z</time></trkpt><trkpt lat="43.4353740949501" lon="11.950393661688755"><ele>653.0</ele><time>2026-03-29T09:58:42.999Z</time></trkpt><trkpt lat="43.435411598489125" lon="11.950229571991093"><ele>653.0</ele><time>2026-03-29T09:58:43.999Z</time></trkpt><trkpt lat="43.4354665027229" lon="11.950083276939734"><ele>653.0</ele><time>2026-03-29T09:58:44.999Z</time></trkpt><trkpt lat="43.43548725293531" lon="11.949900682307566"><ele>653.0</ele><time>2026-03-29T09:58:45.999Z</time></trkpt><trkpt lat="43.435512526793104" lon="11.949697733665893"><ele>653.0</ele><time>2026-03-29T09:58:46.999Z</time></trkpt><trkpt lat="43.43551659929269" lon="11.949508995558435"><ele>653.75</ele><time>2026-03-29T09:58:47.999Z</time></trkpt><trkpt lat="43.43553040199929" lon="11.949318635210455"><ele>654.5</ele><time>2026-03-29T09:58:48.999Z</time></trkpt><trkpt lat="43.435541955945254" lon="11.94914392939816"><ele>655.25</ele><time>2026-03-29T09:58:49.999Z</time></trkpt><trkpt lat="43.43554612448533" lon="11.948997670530282"><ele>656.0</ele><time>2026-03-29T09:58:50.998Z</time></trkpt><trkpt lat="43.43552260912699" lon="11.94883115250317"><ele>656.0</ele><time>2026-03-29T09:58:51.998Z</time></trkpt><trkpt lat="43.43550075759156" lon="11.948669879110929"><ele>656.0</ele><time>2026-03-29T09:58:52.998Z</time></trkpt><trkpt lat="43.435484224444416" lon="11.948563302762961"><ele>656.0</ele><time>2026-03-29T09:58:53.998Z</time></trkpt><trkpt lat="43.43548260124126" lon="11.948448095396833"><ele>656.0</ele><time>2026-03-29T09:58:54.998Z</time></trkpt><trkpt lat="43.43547608554526" lon="11.948310273780988"><ele>656.0</ele><time>2026-03-29T09:58:55.998Z</time></trkpt><trkpt lat="43.4354888290143" lon="11.948147095645357"><ele>656.1999999999999</ele><time>2026-03-29T09:58:56.998Z</time></trkpt><trkpt lat="43.43547795501188" lon="11.948001674484082"><ele>656.4</ele><time>2026-03-29T09:58:57.998Z</time></trkpt><trkpt lat="43.43544110963423" lon="11.94787135671681"><ele>656.6</ele><time>2026-03-29T09:58:58.998Z</time></trkpt><trkpt lat="43.4354194038542" lon="11.947784113642994"><ele>656.8</ele><time>2026-03-29T09:58:59.998Z</time></trkpt><trkpt lat="43.435423237798005" lon="11.94763507817411"><ele>657.0</ele><time>2026-03-29T09:59:01.998Z</time></trkpt><trkpt lat="43.435436041972345" lon="11.947497586747456"><ele>658.0</ele><time>2026-03-29T09:59:02.998Z</time></trkpt><trkpt lat="43.435444529513404" lon="11.947329485389096"><ele>659.0</ele><time>2026-03-29T09:59:03.998Z</time></trkpt><trkpt lat="43.43543582629017" lon="11.947165198004848"><ele>660.0</ele><time>2026-03-29T09:59:04.998Z</time></trkpt><trkpt lat="43.43544413531054" lon="11.947025289379559"><ele>661.0</ele><time>2026-03-29T09:59:05.998Z</time></trkpt><trkpt lat="43.43548371301488" lon="11.94688872760078"><ele>661.0</ele><time>2026-03-29T09:59:06.998Z</time></trkpt><trkpt lat="43.43552635150272" lon="11.946733896327036"><ele>661.0</ele><time>2026-03-29T09:59:07.998Z</time></trkpt><trkpt lat="43.43554232672384" lon="11.946564363855463"><ele>661.0</ele><time>2026-03-29T09:59:08.998Z</time></trkpt><trkpt lat="43.43553687059591" lon="11.946416133324139"><ele>661.0</ele><time>2026-03-29T09:59:09.998Z</time></trkpt><trkpt lat="43.43555099705538" lon="11.946287809702213"><ele>661.0</ele><time>2026-03-29T09:59:10.998Z</time></trkpt><trkpt lat="43.435567175941" lon="11.946129581917772"><ele>661.0</ele><time>2026-03-29T09:59:11.998Z</time></trkpt><trkpt lat="43.435569867164446" lon="11.945963819664058"><ele>661.0</ele><time>2026-03-29T09:59:13Z</time></trkpt><trkpt lat="43.43555442484386" lon="11.945822178579279"><ele>661.0</ele><time>2026-03-29T09:59:14Z</time></trkpt><trkpt lat="43.435550890073" lon="11.94570166765478"><ele>661.0</ele><time>2026-03-29T09:59:15Z</time></trkpt><trkpt lat="43.43554833289311" lon="11.945576610971605"><ele>661.0</ele><time>2026-03-29T09:59:16Z</time></trkpt><trkpt lat="43.43553915765456" lon="11.945427693938102"><ele>660.1666666666667</ele><time>2026-03-29T09:59:17Z</time></trkpt><trkpt lat="43.435512197543545" lon="11.945287479452288"><ele>659.3333333333334</ele><time>2026-03-29T09:59:18Z</time></trkpt><trkpt lat="43.43546368299987" lon="11.945189569553174"><ele>658.5</ele><time>2026-03-29T09:59:19Z</time></trkpt><trkpt lat="43.435410409197466" lon="11.945131919439834"><ele>657.6666666666666</ele><time>2026-03-29T09:59:20Z</time></trkpt><trkpt lat="43.43536254419355" lon="11.945070353406495"><ele>656.8333333333333</ele><time>2026-03-29T09:59:22Z</time></trkpt><trkpt lat="43.43530026328814" lon="11.94505643761521"><ele>656.0</ele><time>2026-03-29T09:59:24Z</time></trkpt><trkpt lat="43.435234409902385" lon="11.945016248459176"><ele>653.4</ele><time>2026-03-29T09:59:27Z</time></trkpt><trkpt lat="43.4351622688706" lon="11.944965072706992"><ele>650.8</ele><time>2026-03-29T09:59:31Z</time></trkpt><trkpt lat="43.43510191976739" lon="11.944873489799505"><ele>648.1999999999999</ele><time>2026-03-29T09:59:54Z</time></trkpt><trkpt lat="43.435022832980735" lon="11.944796304151717"><ele>645.5999999999999</ele><time>2026-03-29T09:59:56Z</time></trkpt><trkpt lat="43.43496876932061" lon="11.944646881448511"><ele>643.0</ele><time>2026-03-29T09:59:57.999Z</time></trkpt><trkpt lat="43.43497470335057" lon="11.94454948144385"><ele>643.0</ele><time>2026-03-29T09:59:58.999Z</time></trkpt><trkpt lat="43.434992236754404" lon="11.944460242964997"><ele>643.0</ele><time>2026-03-29T09:59:59.999Z</time></trkpt><trkpt lat="43.43500951595435" lon="11.944357873972251"><ele>643.0</ele><time>2026-03-29T10:00:00.999Z</time></trkpt><trkpt lat="43.435023139415414" lon="11.944251860984071"><ele>643.0</ele><time>2026-03-29T10:00:01.999Z</time></trkpt><trkpt lat="43.43504082653839" lon="11.944128525192093"><ele>643.0</ele><time>2026-03-29T10:00:02.999Z</time></trkpt><trkpt lat="43.4350780515153" lon="11.944003993125023"><ele>643.0</ele><time>2026-03-29T10:00:03.999Z</time></trkpt><trkpt lat="43.43508666919948" lon="11.943884775745445"><ele>642.8</ele><time>2026-03-29T10:00:04.999Z</time></trkpt><trkpt lat="43.435085161378026" lon="11.943732341836892"><ele>642.5999999999999</ele><time>2026-03-29T10:00:05.999Z</time></trkpt><trkpt lat="43.435087101886154" lon="11.943620221205235"><ele>642.4000000000001</ele><time>2026-03-29T10:00:06.999Z</time></trkpt><trkpt lat="43.43510174418342" lon="11.943520635869113"><ele>642.2</ele><time>2026-03-29T10:00:08.999Z</time></trkpt><trkpt lat="43.43510741783971" lon="11.943357737685128"><ele>642.0</ele><time>2026-03-29T10:00:13.999Z</time></trkpt><trkpt lat="43.43508605530256" lon="11.94327203632224"><ele>640.8333333333334</ele><time>2026-03-29T10:00:14.999Z</time></trkpt><trkpt lat="43.43505901531258" lon="11.943175388355765"><ele>639.6666666666666</ele><time>2026-03-29T10:00:15.999Z</time></trkpt><trkpt lat="43.435035164497776" lon="11.943072318976988"><ele>638.5</ele><time>2026-03-29T10:00:16.999Z</time></trkpt><trkpt lat="43.43503357478788" lon="11.94297806177042"><ele>637.3333333333333</ele><time>2026-03-29T10:00:17.999Z</time></trkpt><trkpt lat="43.435037461923606" lon="11.94287494804543"><ele>636.1666666666666</ele><time>2026-03-29T10:00:18.999Z</time></trkpt><trkpt lat="43.43503353068636" lon="11.942743327507277"><ele>635.0</ele><time>2026-03-29T10:00:19.999Z</time></trkpt><trkpt lat="43.43501148193839" lon="11.942598479967206"><ele>633.6</ele><time>2026-03-29T10:00:20.999Z</time></trkpt><trkpt lat="43.434969955644476" lon="11.942452176949164"><ele>632.2</ele><time>2026-03-29T10:00:21.999Z</time></trkpt><trkpt lat="43.43491817373314" lon="11.94232981679005"><ele>630.8</ele><time>2026-03-29T10:00:22.999Z</time></trkpt><trkpt lat="43.43487100850918" lon="11.942211242323744"><ele>629.4</ele><time>2026-03-29T10:00:23.999Z</time></trkpt><trkpt lat="43.43481003551439" lon="11.942123629942786"><ele>628.0</ele><time>2026-03-29T10:00:24.999Z</time></trkpt><trkpt lat="43.43473783801725" lon="11.9420522045344"><ele>628.0</ele><time>2026-03-29T10:00:25.999Z</time></trkpt><trkpt lat="43.43464483923931" lon="11.942005207466591"><ele>628.0</ele><time>2026-03-29T10:00:26.999Z</time></trkpt><trkpt lat="43.43455884587998" lon="11.941961025586183"><ele>628.0</ele><time>2026-03-29T10:00:27.999Z</time></trkpt><trkpt lat="43.434467517415" lon="11.94195835188586"><ele>628.0</ele><time>2026-03-29T10:00:28.999Z</time></trkpt><trkpt lat="43.43437088934219" lon="11.941945493844155"><ele>628.0</ele><time>2026-03-29T10:00:29.999Z</time></trkpt><trkpt lat="43.43426806694496" lon="11.941904906697268"><ele>627.0</ele><time>2026-03-29T10:00:30.999Z</time></trkpt><trkpt lat="43.43416358278596" lon="11.94184517034895"><ele>626.0</ele><time>2026-03-29T10:00:31.999Z</time></trkpt><trkpt lat="43.43406796132765" lon="11.94176796623596"><ele>625.0</ele><time>2026-03-29T10:00:32.999Z</time></trkpt><trkpt lat="43.43399468498012" lon="11.941671223127488"><ele>624.0</ele><time>2026-03-29T10:00:33.999Z</time></trkpt><trkpt lat="43.433922114186835" lon="11.94154731140245"><ele>623.0</ele><time>2026-03-29T10:00:34.999Z</time></trkpt><trkpt lat="43.43387994536225" lon="11.941419234082852"><ele>623.0</ele><time>2026-03-29T10:00:35.999Z</time></trkpt><trkpt lat="43.43388283797386" lon="11.941308749163257"><ele>623.0</ele><time>2026-03-29T10:00:36.999Z</time></trkpt><trkpt lat="43.43393701340467" lon="11.941214122203837"><ele>623.0</ele><time>2026-03-29T10:00:37.999Z</time></trkpt><trkpt lat="43.434028396743315" lon="11.941143702180582"><ele>623.0</ele><time>2026-03-29T10:00:38.999Z</time></trkpt><trkpt lat="43.434139085551884" lon="11.94112386219594"><ele>623.0</ele><time>2026-03-29T10:00:39.999Z</time></trkpt><trkpt lat="43.434253380996076" lon="11.94112671632816"><ele>623.0</ele><time>2026-03-29T10:00:40.999Z</time></trkpt><trkpt lat="43.43435194346807" lon="11.941110622286187"><ele>623.0</ele><time>2026-03-29T10:00:41.999Z</time></trkpt><trkpt lat="43.434448370381595" lon="11.941086057677802"><ele>623.0</ele><time>2026-03-29T10:00:42.999Z</time></trkpt><trkpt lat="43.43453999086158" lon="11.941075271931402"><ele>623.0</ele><time>2026-03-29T10:00:43.999Z</time></trkpt><trkpt lat="43.4346318000795" lon="11.941056839637595"><ele>623.0</ele><time>2026-03-29T10:00:44.999Z</time></trkpt><trkpt lat="43.43471535953399" lon="11.941061317924067"><ele>622.5</ele><time>2026-03-29T10:00:45.999Z</time></trkpt><trkpt lat="43.434788103650796" lon="11.941053671472737"><ele>622.0</ele><time>2026-03-29T10:00:46.999Z</time></trkpt><trkpt lat="43.434841786383046" lon="11.940999759837517"><ele>621.5</ele><time>2026-03-29T10:00:47.999Z</time></trkpt><trkpt lat="43.434864950227826" lon="11.940883481766303"><ele>621.0</ele><time>2026-03-29T10:00:48.999Z</time></trkpt><trkpt lat="43.434847830799896" lon="11.940749781137995"><ele>620.5</ele><time>2026-03-29T10:00:49.999Z</time></trkpt><trkpt lat="43.43482253438514" lon="11.940594959830683"><ele>620.0</ele><time>2026-03-29T10:00:50.999Z</time></trkpt><trkpt lat="43.4348278936879" lon="11.940463738686056"><ele>618.1666666666666</ele><time>2026-03-29T10:00:51.999Z</time></trkpt><trkpt lat="43.43487220438797" lon="11.940354541741518"><ele>616.3333333333333</ele><time>2026-03-29T10:00:52.999Z</time></trkpt><trkpt lat="43.434932921834665" lon="11.940249577939854"><ele>614.5</ele><time>2026-03-29T10:00:53.999Z</time></trkpt><trkpt lat="43.434971932380726" lon="11.94016560724276"><ele>612.6666666666666</ele><time>2026-03-29T10:00:54.999Z</time></trkpt><trkpt lat="43.43500553539244" lon="11.940044012175328"><ele>610.8333333333334</ele><time>2026-03-29T10:00:56.999Z</time></trkpt><trkpt lat="43.43504166643575" lon="11.939948684559601"><ele>609.0</ele><time>2026-03-29T10:00:58.998Z</time></trkpt><trkpt lat="43.43513959674494" lon="11.939916029068524"><ele>607.8</ele><time>2026-03-29T10:01:00.998Z</time></trkpt><trkpt lat="43.43525491817315" lon="11.93990686214292"><ele>606.5999999999999</ele><time>2026-03-29T10:01:02.998Z</time></trkpt><trkpt lat="43.43535827089949" lon="11.93985138694146"><ele>605.4</ele><time>2026-03-29T10:01:03.998Z</time></trkpt><trkpt lat="43.43542548973732" lon="11.939773516490293"><ele>604.1999999999999</ele><time>2026-03-29T10:01:04.998Z</time></trkpt><trkpt lat="43.43548328290902" lon="11.939699640814942"><ele>603.0</ele><time>2026-03-29T10:01:05.998Z</time></trkpt><trkpt lat="43.435525932117706" lon="11.939623540016324"><ele>601.8333333333334</ele><time>2026-03-29T10:01:06.998Z</time></trkpt><trkpt lat="43.435585771845446" lon="11.939565727221632"><ele>600.6666666666666</ele><time>2026-03-29T10:01:07.998Z</time></trkpt><trkpt lat="43.43566336778572" lon="11.939506720871254"><ele>599.5</ele><time>2026-03-29T10:01:08.998Z</time></trkpt><trkpt lat="43.4357179878622" lon="11.939415148731348"><ele>598.3333333333333</ele><time>2026-03-29T10:01:09.998Z</time></trkpt><trkpt lat="43.43573270158983" lon="11.939315519055944"><ele>597.1666666666666</ele><time>2026-03-29T10:01:10.998Z</time></trkpt><trkpt lat="43.43572447277919" lon="11.939205786988126"><ele>596.0</ele><time>2026-03-29T10:01:11.998Z</time></trkpt><trkpt lat="43.43575243650037" lon="11.93912011603412"><ele>596.0</ele><time>2026-03-29T10:01:12.998Z</time></trkpt><trkpt lat="43.43579833725711" lon="11.939046164579592"><ele>596.0</ele><time>2026-03-29T10:01:13.998Z</time></trkpt><trkpt lat="43.43586694168564" lon="11.93897459941411"><ele>596.0</ele><time>2026-03-29T10:01:14.998Z</time></trkpt><trkpt lat="43.43592730229075" lon="11.938892242039714"><ele>596.0</ele><time>2026-03-29T10:01:15.998Z</time></trkpt><trkpt lat="43.436013103873876" lon="11.938831918092328"><ele>596.0</ele><time>2026-03-29T10:01:16.998Z</time></trkpt><trkpt lat="43.43608735538192" lon="11.938812146440172"><ele>596.0</ele><time>2026-03-29T10:01:17.998Z</time></trkpt><trkpt lat="43.43615888635794" lon="11.9387338488325"><ele>596.0</ele><time>2026-03-29T10:01:19Z</time></trkpt><trkpt lat="43.43623307001099" lon="11.93863202188662"><ele>596.0</ele><time>2026-03-29T10:01:20Z</time></trkpt><trkpt lat="43.436285438995164" lon="11.938542429858884"><ele>596.0</ele><time>2026-03-29T10:01:21Z</time></trkpt><trkpt lat="43.43629552889091" lon="11.938434825481066"><ele>596.0</ele><time>2026-03-29T10:01:22Z</time></trkpt><trkpt lat="43.43632460008533" lon="11.938310107656434"><ele>596.0</ele><time>2026-03-29T10:01:23Z</time></trkpt><trkpt lat="43.43635684152943" lon="11.938190175149213"><ele>590.5</ele><time>2026-03-29T10:01:24Z</time></trkpt><trkpt lat="43.43638096337242" lon="11.938049798661245"><ele>585.0</ele><time>2026-03-29T10:01:25Z</time></trkpt><trkpt lat="43.4363761814577" lon="11.937888944235306"><ele>579.5</ele><time>2026-03-29T10:01:26Z</time></trkpt><trkpt lat="43.4363916965714" lon="11.937697987441267"><ele>574.0</ele><time>2026-03-29T10:01:27Z</time></trkpt><trkpt lat="43.43641555624888" lon="11.937565844572166"><ele>575.0</ele><time>2026-03-29T10:01:28Z</time></trkpt><trkpt lat="43.43643136094349" lon="11.93742402837126"><ele>576.0</ele><time>2026-03-29T10:01:29Z</time></trkpt><trkpt lat="43.43641732620668" lon="11.937305802220616"><ele>577.0</ele><time>2026-03-29T10:01:30Z</time></trkpt><trkpt lat="43.436434740624875" lon="11.937188189508605"><ele>578.0</ele><time>2026-03-29T10:01:31Z</time></trkpt><trkpt lat="43.43643398885504" lon="11.93709896731609"><ele>579.0</ele><time>2026-03-29T10:01:32Z</time></trkpt><trkpt lat="43.43639482875046" lon="11.937024615198231"><ele>580.0</ele><time>2026-03-29T10:01:34Z</time></trkpt><trkpt lat="43.43637672992407" lon="11.936884154844144"><ele>580.0</ele><time>2026-03-29T10:01:36Z</time></trkpt><trkpt lat="43.43639397367048" lon="11.936796780952536"><ele>580.0</ele><time>2026-03-29T10:01:37Z</time></trkpt><trkpt lat="43.43642937746119" lon="11.936690187129594"><ele>580.0</ele><time>2026-03-29T10:01:38Z</time></trkpt><trkpt lat="43.43647661049151" lon="11.93660382633056"><ele>580.0</ele><time>2026-03-29T10:01:39Z</time></trkpt><trkpt lat="43.43647712463619" lon="11.936460160164565"><ele>580.0</ele><time>2026-03-29T10:01:41Z</time></trkpt><trkpt lat="43.43645115662334" lon="11.936335037698617"><ele>580.0</ele><time>2026-03-29T10:01:43Z</time></trkpt><trkpt lat="43.43648374817048" lon="11.936220086235762"><ele>579.4</ele><time>2026-03-29T10:01:44Z</time></trkpt><trkpt lat="43.43652706560371" lon="11.936105919080457"><ele>578.8</ele><time>2026-03-29T10:01:45Z</time></trkpt><trkpt lat="43.43657407771364" lon="11.935982646288418"><ele>578.2</ele><time>2026-03-29T10:01:46Z</time></trkpt><trkpt lat="43.436619423263046" lon="11.935870762767816"><ele>577.6</ele><time>2026-03-29T10:01:47Z</time></trkpt><trkpt lat="43.4366603151559" lon="11.935746979724899"><ele>577.0</ele><time>2026-03-29T10:01:48Z</time></trkpt><trkpt lat="43.43668749977444" lon="11.935616662765394"><ele>575.3333333333334</ele><time>2026-03-29T10:01:49Z</time></trkpt><trkpt lat="43.436697390315324" lon="11.935492126458533"><ele>573.6666666666667</ele><time>2026-03-29T10:01:50Z</time></trkpt><trkpt lat="43.43670513498056" lon="11.93536511007733"><ele>572.0</ele><time>2026-03-29T10:01:51Z</time></trkpt><trkpt lat="43.43669857977351" lon="11.935255639873006"><ele>570.3333333333334</ele><time>2026-03-29T10:01:52Z</time></trkpt><trkpt lat="43.43667942037537" lon="11.935154764355499"><ele>568.6666666666666</ele><time>2026-03-29T10:01:53Z</time></trkpt><trkpt lat="43.43665071408092" lon="11.935055307266145"><ele>567.0</ele><time>2026-03-29T10:01:54Z</time></trkpt><trkpt lat="43.43662202339828" lon="11.934968476844304"><ele>565.1666666666666</ele><time>2026-03-29T10:01:55Z</time></trkpt><trkpt lat="43.43659349104476" lon="11.934864480743714"><ele>563.3333333333334</ele><time>2026-03-29T10:01:56Z</time></trkpt><trkpt lat="43.436558668471015" lon="11.934771025246715"><ele>561.5</ele><time>2026-03-29T10:01:57Z</time></trkpt><trkpt lat="43.43653759805877" lon="11.93465561611584"><ele>559.6666666666667</ele><time>2026-03-29T10:01:58Z</time></trkpt><trkpt lat="43.43654173600802" lon="11.934546351722446"><ele>557.8333333333334</ele><time>2026-03-29T10:01:59Z</time></trkpt><trkpt lat="43.436553230234814" lon="11.934452347709747"><ele>556.0</ele><time>2026-03-29T10:02:00Z</time></trkpt><trkpt lat="43.436588129622784" lon="11.9343564829942"><ele>556.0</ele><time>2026-03-29T10:02:01.999Z</time></trkpt><trkpt lat="43.43672389596758" lon="11.934291758975096"><ele>556.0</ele><time>2026-03-29T10:02:03.999Z</time></trkpt><trkpt lat="43.436801211958866" lon="11.934234340071942"><ele>556.0</ele><time>2026-03-29T10:02:04.999Z</time></trkpt><trkpt lat="43.43684082402904" lon="11.93415305545757"><ele>556.0</ele><time>2026-03-29T10:02:05.999Z</time></trkpt><trkpt lat="43.436850368835096" lon="11.934036993656827"><ele>556.0</ele><time>2026-03-29T10:02:06.999Z</time></trkpt><trkpt lat="43.43684771350992" lon="11.933902258067725"><ele>553.8</ele><time>2026-03-29T10:02:07.999Z</time></trkpt><trkpt lat="43.43686003127056" lon="11.933757846401292"><ele>551.6</ele><time>2026-03-29T10:02:08.999Z</time></trkpt><trkpt lat="43.43687425614916" lon="11.933620968594079"><ele>549.4</ele><time>2026-03-29T10:02:09.999Z</time></trkpt><trkpt lat="43.436902321969" lon="11.933477831104375"><ele>547.2</ele><time>2026-03-29T10:02:10.999Z</time></trkpt><trkpt lat="43.43694115896696" lon="11.933369170490458"><ele>545.0</ele><time>2026-03-29T10:02:11.999Z</time></trkpt><trkpt lat="43.43699157114816" lon="11.933262599426378"><ele>542.4</ele><time>2026-03-29T10:02:12.999Z</time></trkpt><trkpt lat="43.43702516374432" lon="11.933139365570266"><ele>539.8</ele><time>2026-03-29T10:02:13.999Z</time></trkpt><trkpt lat="43.43707168566433" lon="11.933017257013365"><ele>537.2</ele><time>2026-03-29T10:02:14.999Z</time></trkpt><trkpt lat="43.43712111057478" lon="11.932891381298736"><ele>534.6</ele><time>2026-03-29T10:02:15.999Z</time></trkpt><trkpt lat="43.43717090866691" lon="11.932764994157301"><ele>532.0</ele><time>2026-03-29T10:02:16.999Z</time></trkpt><trkpt lat="43.437222090488724" lon="11.93263440196074"><ele>529.6666666666667</ele><time>2026-03-29T10:02:17.999Z</time></trkpt><trkpt lat="43.43726328722957" lon="11.932507709443543"><ele>527.3333333333334</ele><time>2026-03-29T10:02:18.999Z</time></trkpt><trkpt lat="43.43729504619341" lon="11.93238935576579"><ele>525.0</ele><time>2026-03-29T10:02:19.999Z</time></trkpt><trkpt lat="43.43731126492756" lon="11.932272228617267"><ele>522.6666666666666</ele><time>2026-03-29T10:02:20.999Z</time></trkpt><trkpt lat="43.437324714829714" lon="11.932170398642738"><ele>520.3333333333333</ele><time>2026-03-29T10:02:21.999Z</time></trkpt><trkpt lat="43.43733715866034" lon="11.932072481802553"><ele>518.0</ele><time>2026-03-29T10:02:22.999Z</time></trkpt><trkpt lat="43.4373702058672" lon="11.93191473097173"><ele>518.0</ele><time>2026-03-29T10:02:24.999Z</time></trkpt><trkpt lat="43.43738514955029" lon="11.931794584584294"><ele>518.0</ele><time>2026-03-29T10:02:27.999Z</time></trkpt><trkpt lat="43.43742974781455" lon="11.931726223790692"><ele>518.0</ele><time>2026-03-29T10:02:30.999Z</time></trkpt><trkpt lat="43.437453554120005" lon="11.931623345917679"><ele>518.0</ele><time>2026-03-29T10:02:33.999Z</time></trkpt><trkpt lat="43.43740494583546" lon="11.93171048207839"><ele>518.0</ele><time>2026-03-29T10:02:40.999Z</time></trkpt><trkpt lat="43.437398916831114" lon="11.93179762808072"><ele>518.0</ele><time>2026-03-29T10:02:41.999Z</time></trkpt><trkpt lat="43.437376522297114" lon="11.931899086410782"><ele>518.0</ele><time>2026-03-29T10:02:42.999Z</time></trkpt><trkpt lat="43.437351758259936" lon="11.932012919137016"><ele>518.0</ele><time>2026-03-29T10:02:43.999Z</time></trkpt><trkpt lat="43.43733300283021" lon="11.932132558070212"><ele>518.0</ele><time>2026-03-29T10:02:44.999Z</time></trkpt><trkpt lat="43.437305972716516" lon="11.93227601784486"><ele>518.0</ele><time>2026-03-29T10:02:45.999Z</time></trkpt><trkpt lat="43.437278469966486" lon="11.93240796269852"><ele>518.0</ele><time>2026-03-29T10:02:46.999Z</time></trkpt><trkpt lat="43.43725290038022" lon="11.93252554283352"><ele>519.6666666666666</ele><time>2026-03-29T10:02:47.999Z</time></trkpt><trkpt lat="43.43722552573587" lon="11.932639446436076"><ele>521.3333333333333</ele><time>2026-03-29T10:02:48.999Z</time></trkpt><trkpt lat="43.43719481803255" lon="11.932750876648186"><ele>523.0</ele><time>2026-03-29T10:02:49.999Z</time></trkpt><trkpt lat="43.43721847342109" lon="11.932859983983711"><ele>524.6666666666666</ele><time>2026-03-29T10:02:51.999Z</time></trkpt><trkpt lat="43.43728790961383" lon="11.932921482462973"><ele>526.3333333333334</ele><time>2026-03-29T10:02:52.999Z</time></trkpt><trkpt lat="43.437361429905884" lon="11.932997626261002"><ele>528.0</ele><time>2026-03-29T10:02:53.999Z</time></trkpt><trkpt lat="43.43745405548826" lon="11.933117074594307"><ele>528.0</ele><time>2026-03-29T10:02:55.999Z</time></trkpt><trkpt lat="43.437480646794064" lon="11.93322518682915"><ele>528.0</ele><time>2026-03-29T10:02:56.999Z</time></trkpt><trkpt lat="43.43754169560366" lon="11.933468422471128"><ele>528.0</ele><time>2026-03-29T10:02:58.999Z</time></trkpt><trkpt lat="43.43757835415886" lon="11.933586710175623"><ele>528.0</ele><time>2026-03-29T10:02:59.999Z</time></trkpt><trkpt lat="43.43761695301503" lon="11.93370910222725"><ele>529.8</ele><time>2026-03-29T10:03:00.998Z</time></trkpt><trkpt lat="43.43764398538568" lon="11.93382819440754"><ele>531.5999999999999</ele><time>2026-03-29T10:03:01.998Z</time></trkpt><trkpt lat="43.437672631962386" lon="11.933970192243889"><ele>533.4000000000001</ele><time>2026-03-29T10:03:02.998Z</time></trkpt><trkpt lat="43.437695532530135" lon="11.934094844008637"><ele>535.2</ele><time>2026-03-29T10:03:03.998Z</time></trkpt><trkpt lat="43.437719767195404" lon="11.934213987282675"><ele>537.0</ele><time>2026-03-29T10:03:04.998Z</time></trkpt><trkpt lat="43.437731918516036" lon="11.934317423961838"><ele>539.0</ele><time>2026-03-29T10:03:05.998Z</time></trkpt><trkpt lat="43.43773793687574" lon="11.934443449881908"><ele>541.0</ele><time>2026-03-29T10:03:06.998Z</time></trkpt><trkpt lat="43.43774006397722" lon="11.934581668136794"><ele>543.0</ele><time>2026-03-29T10:03:07.998Z</time></trkpt><trkpt lat="43.43775889727984" lon="11.934700797471953"><ele>545.0</ele><time>2026-03-29T10:03:08.998Z</time></trkpt><trkpt lat="43.43778565080596" lon="11.934819543996696"><ele>547.0</ele><time>2026-03-29T10:03:09.998Z</time></trkpt><trkpt lat="43.4378115110102" lon="11.934952903754535"><ele>546.1666666666667</ele><time>2026-03-29T10:03:10.998Z</time></trkpt><trkpt lat="43.437834696614836" lon="11.935075017449684"><ele>545.3333333333334</ele><time>2026-03-29T10:03:11.998Z</time></trkpt><trkpt lat="43.43785458104887" lon="11.93518616202153"><ele>544.5</ele><time>2026-03-29T10:03:12.998Z</time></trkpt><trkpt lat="43.43787717135476" lon="11.935270868476982"><ele>543.6666666666666</ele><time>2026-03-29T10:03:13.998Z</time></trkpt><trkpt lat="43.43792793345403" lon="11.935366572685293"><ele>542.8333333333333</ele><time>2026-03-29T10:03:14.998Z</time></trkpt><trkpt lat="43.43799172899766" lon="11.935401115061593"><ele>542.0</ele><time>2026-03-29T10:03:15.998Z</time></trkpt><trkpt lat="43.43806560755597" lon="11.935384838336033"><ele>542.0</ele><time>2026-03-29T10:03:16.998Z</time></trkpt><trkpt lat="43.43815794572136" lon="11.935364518505589"><ele>542.0</ele><time>2026-03-29T10:03:17.998Z</time></trkpt><trkpt lat="43.43824794441476" lon="11.935330401087798"><ele>542.0</ele><time>2026-03-29T10:03:18.998Z</time></trkpt><trkpt lat="43.438324858442925" lon="11.935282185909376"><ele>542.0</ele><time>2026-03-29T10:03:19.998Z</time></trkpt><trkpt lat="43.43841637227204" lon="11.935246918452918"><ele>542.0</ele><time>2026-03-29T10:03:20.998Z</time></trkpt><trkpt lat="43.438487425753344" lon="11.935261467474806"><ele>542.0</ele><time>2026-03-29T10:03:21.998Z</time></trkpt><trkpt lat="43.43855649858189" lon="11.935301905343907"><ele>542.0</ele><time>2026-03-29T10:03:22.998Z</time></trkpt><trkpt lat="43.438646804155795" lon="11.935335648749977"><ele>542.0</ele><time>2026-03-29T10:03:25Z</time></trkpt><trkpt lat="43.43871248532088" lon="11.935305103034207"><ele>542.0</ele><time>2026-03-29T10:03:27Z</time></trkpt><trkpt lat="43.43877042447692" lon="11.93523062459761"><ele>542.0</ele><time>2026-03-29T10:03:29Z</time></trkpt><trkpt lat="43.438827170634035" lon="11.935161227314047"><ele>542.0</ele><time>2026-03-29T10:03:31Z</time></trkpt><trkpt lat="43.43891872080536" lon="11.935120645446705"><ele>542.0</ele><time>2026-03-29T10:03:33Z</time></trkpt><trkpt lat="43.43900243789448" lon="11.93508974081758"><ele>539.0</ele><time>2026-03-29T10:03:35Z</time></trkpt><trkpt lat="43.43907546669406" lon="11.935019364528321"><ele>536.0</ele><time>2026-03-29T10:03:37Z</time></trkpt><trkpt lat="43.43914303003676" lon="11.934937486121594"><ele>533.0</ele><time>2026-03-29T10:03:39Z</time></trkpt><trkpt lat="43.43923294554185" lon="11.934900126717036"><ele>530.0</ele><time>2026-03-29T10:03:41Z</time></trkpt><trkpt lat="43.439291887851226" lon="11.93480098638164"><ele>527.0</ele><time>2026-03-29T10:03:43Z</time></trkpt><trkpt lat="43.439299660105206" lon="11.93464072362571"><ele>527.0</ele><time>2026-03-29T10:03:45Z</time></trkpt><trkpt lat="43.43925756602329" lon="11.934526846135185"><ele>527.0</ele><time>2026-03-29T10:03:47Z</time></trkpt><trkpt lat="43.43932066440806" lon="11.934434889079055"><ele>527.0</ele><time>2026-03-29T10:03:49Z</time></trkpt><trkpt lat="43.439366741573316" lon="11.934357579972875"><ele>527.0</ele><time>2026-03-29T10:03:50Z</time></trkpt><trkpt lat="43.439408839821205" lon="11.934238539008001"><ele>527.0</ele><time>2026-03-29T10:03:52Z</time></trkpt><trkpt lat="43.439448633468686" lon="11.934109205364711"><ele>525.2</ele><time>2026-03-29T10:03:54Z</time></trkpt><trkpt lat="43.43950569454075" lon="11.934022665361965"><ele>523.4000000000001</ele><time>2026-03-29T10:03:56Z</time></trkpt><trkpt lat="43.43961883938095" lon="11.934046053270468"><ele>521.5999999999999</ele><time>2026-03-29T10:03:58Z</time></trkpt><trkpt lat="43.43972086039727" lon="11.934073241973136"><ele>519.8</ele><time>2026-03-29T10:04:00Z</time></trkpt><trkpt lat="43.43982315456157" lon="11.934106090584205"><ele>518.0</ele><time>2026-03-29T10:04:02Z</time></trkpt><trkpt lat="43.43989459006017" lon="11.934146255397097"><ele>516.0</ele><time>2026-03-29T10:04:03Z</time></trkpt><trkpt lat="43.440010730088346" lon="11.934138589175914"><ele>514.0</ele><time>2026-03-29T10:04:05Z</time></trkpt><trkpt lat="43.44009727863152" lon="11.934181343972469"><ele>512.0</ele><time>2026-03-29T10:04:07Z</time></trkpt><trkpt lat="43.44022515501605" lon="11.934103868880673"><ele>510.0</ele><time>2026-03-29T10:04:09Z</time></trkpt><trkpt lat="43.44032337532883" lon="11.934054739586232"><ele>510.0</ele><time>2026-03-29T10:04:10.999Z</time></trkpt><trkpt lat="43.44043669103092" lon="11.934074656821506"><ele>510.0</ele><time>2026-03-29T10:04:12.999Z</time></trkpt><trkpt lat="43.44049280587237" lon="11.934119768067456"><ele>510.0</ele><time>2026-03-29T10:04:13.999Z</time></trkpt><trkpt lat="43.44057080882439" lon="11.934166035625989"><ele>510.0</ele><time>2026-03-29T10:04:15.999Z</time></trkpt><trkpt lat="43.440717346805904" lon="11.934169290774733"><ele>510.0</ele><time>2026-03-29T10:04:17.999Z</time></trkpt><trkpt lat="43.44084078777531" lon="11.934131032982794"><ele>506.8</ele><time>2026-03-29T10:04:19.999Z</time></trkpt><trkpt lat="43.44089628460176" lon="11.93408858826111"><ele>503.6</ele><time>2026-03-29T10:04:20.999Z</time></trkpt><trkpt lat="43.44097399856717" lon="11.93396598426715"><ele>500.4</ele><time>2026-03-29T10:04:22.999Z</time></trkpt><trkpt lat="43.44101239229155" lon="11.933891838004303"><ele>497.2</ele><time>2026-03-29T10:04:23.999Z</time></trkpt><trkpt lat="43.44107534187238" lon="11.933759790949702"><ele>494.0</ele><time>2026-03-29T10:04:25.999Z</time></trkpt><trkpt lat="43.441139649820784" lon="11.933637329671262"><ele>493.99999999999994</ele><time>2026-03-29T10:04:27.999Z</time></trkpt><trkpt lat="43.4411861157445" lon="11.933527612369097"><ele>494.0</ele><time>2026-03-29T10:04:29.999Z</time></trkpt><trkpt lat="43.441209110635725" lon="11.933426138200842"><ele>494.0</ele><time>2026-03-29T10:04:31.999Z</time></trkpt><trkpt lat="43.44125432470434" lon="11.933347704724644"><ele>494.0</ele><time>2026-03-29T10:04:32.999Z</time></trkpt><trkpt lat="43.4413026538498" lon="11.9332628940334"><ele>493.99999999999994</ele><time>2026-03-29T10:04:34.999Z</time></trkpt><trkpt lat="43.441352588600466" lon="11.933145173316028"><ele>494.0</ele><time>2026-03-29T10:04:40.999Z</time></trkpt><trkpt lat="43.441380113183804" lon="11.933050123302188"><ele>490.0</ele><time>2026-03-29T10:04:41.999Z</time></trkpt><trkpt lat="43.44141717355926" lon="11.932904303381735"><ele>486.0</ele><time>2026-03-29T10:04:43.999Z</time></trkpt><trkpt lat="43.441493287927734" lon="11.932807462258735"><ele>482.0</ele><time>2026-03-29T10:04:45.999Z</time></trkpt><trkpt lat="43.441572220123405" lon="11.932678268750255"><ele>478.0</ele><time>2026-03-29T10:04:47.999Z</time></trkpt><trkpt lat="43.44164144953189" lon="11.932550732098559"><ele>478.0</ele><time>2026-03-29T10:04:49.999Z</time></trkpt><trkpt lat="43.441709458760286" lon="11.93243123305042"><ele>477.99999999999994</ele><time>2026-03-29T10:04:51.999Z</time></trkpt><trkpt lat="43.44176694639818" lon="11.932321397211476"><ele>477.99999999999994</ele><time>2026-03-29T10:04:53.999Z</time></trkpt><trkpt lat="43.441820089524256" lon="11.932150260592296"><ele>478.0</ele><time>2026-03-29T10:04:55.999Z</time></trkpt><trkpt lat="43.44180463113428" lon="11.932046450276541"><ele>478.0</ele><time>2026-03-29T10:04:56.999Z</time></trkpt><trkpt lat="43.44177993973185" lon="11.93195061726328"><ele>478.0</ele><time>2026-03-29T10:04:57.999Z</time></trkpt><trkpt lat="43.44178600012546" lon="11.931819977698336"><ele>477.99999999999994</ele><time>2026-03-29T10:04:58.999Z</time></trkpt><trkpt lat="43.44183080806802" lon="11.931679975884409"><ele>477.99999999999994</ele><time>2026-03-29T10:04:59.999Z</time></trkpt><trkpt lat="43.441901613531506" lon="11.93156844053872"><ele>478.0</ele><time>2026-03-29T10:05:00.999Z</time></trkpt><trkpt lat="43.44196544035712" lon="11.93147060707075"><ele>478.0</ele><time>2026-03-29T10:05:01.999Z</time></trkpt><trkpt lat="43.4420172417851" lon="11.931372416640627"><ele>477.00000000000006</ele><time>2026-03-29T10:05:02.999Z</time></trkpt><trkpt lat="43.442061846958396" lon="11.93127600133438"><ele>476.0</ele><time>2026-03-29T10:05:03.999Z</time></trkpt><trkpt lat="43.4421085401497" lon="11.931175393875021"><ele>475.0</ele><time>2026-03-29T10:05:04.999Z</time></trkpt><trkpt lat="43.442151052049375" lon="11.93109055149222"><ele>474.0</ele><time>2026-03-29T10:05:05.999Z</time></trkpt><trkpt lat="43.442195971694176" lon="11.93099638970815"><ele>473.00000000000006</ele><time>2026-03-29T10:05:06.999Z</time></trkpt><trkpt lat="43.44224099863266" lon="11.930896060120265"><ele>472.0</ele><time>2026-03-29T10:05:07.999Z</time></trkpt><trkpt lat="43.442291902573565" lon="11.930788770613391"><ele>469.0</ele><time>2026-03-29T10:05:08.999Z</time></trkpt><trkpt lat="43.44234133870677" lon="11.930677612798002"><ele>466.00000000000006</ele><time>2026-03-29T10:05:09.998Z</time></trkpt><trkpt lat="43.44238581881684" lon="11.930564417158886"><ele>463.00000000000006</ele><time>2026-03-29T10:05:10.998Z</time></trkpt><trkpt lat="43.44242850271249" lon="11.930457336279296"><ele>460.0</ele><time>2026-03-29T10:05:11.998Z</time></trkpt><trkpt lat="43.442477687637094" lon="11.930350236116883"><ele>457.0</ele><time>2026-03-29T10:05:12.998Z</time></trkpt><trkpt lat="43.44254044171066" lon="11.930237013095745"><ele>457.0</ele><time>2026-03-29T10:05:13.998Z</time></trkpt><trkpt lat="43.4426098407176" lon="11.930133694338243"><ele>457.00000000000006</ele><time>2026-03-29T10:05:14.998Z</time></trkpt><trkpt lat="43.442670975984385" lon="11.930044607996114"><ele>457.00000000000006</ele><time>2026-03-29T10:05:15.998Z</time></trkpt><trkpt lat="43.44272931120626" lon="11.929947779399859"><ele>457.0</ele><time>2026-03-29T10:05:16.998Z</time></trkpt><trkpt lat="43.44278151531833" lon="11.929849750719706"><ele>457.0</ele><time>2026-03-29T10:05:17.998Z</time></trkpt><trkpt lat="43.44283805210767" lon="11.929757170787571"><ele>455.40000000000003</ele><time>2026-03-29T10:05:18.998Z</time></trkpt><trkpt lat="43.44289701844634" lon="11.929666324633775"><ele>453.80000000000007</ele><time>2026-03-29T10:05:19.998Z</time></trkpt><trkpt lat="43.44295745501024" lon="11.92957164954923"><ele>452.2</ele><time>2026-03-29T10:05:20.998Z</time></trkpt><trkpt lat="43.44301614161372" lon="11.92949316407864"><ele>450.6</ele><time>2026-03-29T10:05:21.998Z</time></trkpt><trkpt lat="43.443085223588334" lon="11.929418125789105"><ele>449.0</ele><time>2026-03-29T10:05:22.998Z</time></trkpt><trkpt lat="43.44317154271564" lon="11.929348095633761"><ele>447.99999999999994</ele><time>2026-03-29T10:05:23.998Z</time></trkpt><trkpt lat="43.44326134335352" lon="11.929296688220353"><ele>447.0</ele><time>2026-03-29T10:05:24.998Z</time></trkpt><trkpt lat="43.44334433968457" lon="11.929266533499494"><ele>446.0</ele><time>2026-03-29T10:05:25.998Z</time></trkpt><trkpt lat="43.44344177842435" lon="11.929254590734935"><ele>445.0</ele><time>2026-03-29T10:05:26.998Z</time></trkpt><trkpt lat="43.443526446694136" lon="11.929257346963514"><ele>443.99999999999994</ele><time>2026-03-29T10:05:27.998Z</time></trkpt><trkpt lat="43.44359253087785" lon="11.929245802754922"><ele>443.0</ele><time>2026-03-29T10:05:28.998Z</time></trkpt><trkpt lat="43.443660646031304" lon="11.929080108350954"><ele>441.0</ele><time>2026-03-29T10:05:31Z</time></trkpt><trkpt lat="43.44364497892176" lon="11.928931618587908"><ele>439.0</ele><time>2026-03-29T10:05:32Z</time></trkpt><trkpt lat="43.44359806376988" lon="11.928781032474681"><ele>437.0</ele><time>2026-03-29T10:05:33Z</time></trkpt><trkpt lat="43.44353631696925" lon="11.928640233435722"><ele>435.0</ele><time>2026-03-29T10:05:34Z</time></trkpt><trkpt lat="43.4434771630251" lon="11.928523547302285"><ele>435.0</ele><time>2026-03-29T10:05:35Z</time></trkpt><trkpt lat="43.44342498694155" lon="11.928433484278987"><ele>435.0</ele><time>2026-03-29T10:05:36Z</time></trkpt><trkpt lat="43.44337880853169" lon="11.928370915505752"><ele>435.0</ele><time>2026-03-29T10:05:37Z</time></trkpt><trkpt lat="43.443328513527334" lon="11.928314502978662"><ele>435.0</ele><time>2026-03-29T10:05:38Z</time></trkpt><trkpt lat="43.44329512728869" lon="11.92818835134799"><ele>435.0</ele><time>2026-03-29T10:05:40Z</time></trkpt><trkpt lat="43.44340099598813" lon="11.928164816694437"><ele>435.0</ele><time>2026-03-29T10:05:42Z</time></trkpt><trkpt lat="43.443473042714935" lon="11.92822589018285"><ele>433.28571428571433</ele><time>2026-03-29T10:05:43Z</time></trkpt><trkpt lat="43.4435491873515" lon="11.928296953118814"><ele>431.57142857142856</ele><time>2026-03-29T10:05:44Z</time></trkpt><trkpt lat="43.44362111736971" lon="11.928338283183972"><ele>429.8571428571429</ele><time>2026-03-29T10:05:45Z</time></trkpt><trkpt lat="43.44368700431985" lon="11.928330660234764"><ele>428.14285714285717</ele><time>2026-03-29T10:05:46Z</time></trkpt><trkpt lat="43.44372856268849" lon="11.928259496870993"><ele>426.42857142857144</ele><time>2026-03-29T10:05:47Z</time></trkpt><trkpt lat="43.44372508217542" lon="11.92816907077865"><ele>424.7142857142857</ele><time>2026-03-29T10:05:48Z</time></trkpt><trkpt lat="43.4436812338948" lon="11.92807641194719"><ele>423.0</ele><time>2026-03-29T10:05:49Z</time></trkpt><trkpt lat="43.443612588764516" lon="11.928008432867914"><ele>423.0</ele><time>2026-03-29T10:05:50Z</time></trkpt><trkpt lat="43.44354830608136" lon="11.92794245640974"><ele>423.0</ele><time>2026-03-29T10:05:51Z</time></trkpt><trkpt lat="43.44348817471857" lon="11.927882138040795"><ele>423.0</ele><time>2026-03-29T10:05:52Z</time></trkpt><trkpt lat="43.4434291693699" lon="11.92783400581652"><ele>423.0</ele><time>2026-03-29T10:05:53Z</time></trkpt><trkpt lat="43.4433701941958" lon="11.927797871061433"><ele>423.0</ele><time>2026-03-29T10:05:54Z</time></trkpt><trkpt lat="43.4433023433072" lon="11.927675226589757"><ele>423.0</ele><time>2026-03-29T10:05:56Z</time></trkpt><trkpt lat="43.44332589123852" lon="11.927586388409125"><ele>419.4</ele><time>2026-03-29T10:05:57Z</time></trkpt><trkpt lat="43.44338455381193" lon="11.927499373510463"><ele>415.79999999999995</ele><time>2026-03-29T10:05:58Z</time></trkpt><trkpt lat="43.44346642348823" lon="11.927430189118915"><ele>412.2</ele><time>2026-03-29T10:05:59Z</time></trkpt><trkpt lat="43.44356691470008" lon="11.927399139555174"><ele>408.6</ele><time>2026-03-29T10:06:00Z</time></trkpt><trkpt lat="43.443664038510505" lon="11.927423728181681"><ele>405.0</ele><time>2026-03-29T10:06:01Z</time></trkpt><trkpt lat="43.4437449631431" lon="11.927473224384176"><ele>405.5</ele><time>2026-03-29T10:06:02Z</time></trkpt><trkpt lat="43.44381480738565" lon="11.927533777469788"><ele>406.0</ele><time>2026-03-29T10:06:03Z</time></trkpt><trkpt lat="43.443884535674215" lon="11.92759677910422"><ele>406.5</ele><time>2026-03-29T10:06:04Z</time></trkpt><trkpt lat="43.44395020354643" lon="11.927635259893423"><ele>407.0</ele><time>2026-03-29T10:06:05Z</time></trkpt><trkpt lat="43.44402589166049" lon="11.92763580893631"><ele>407.5</ele><time>2026-03-29T10:06:06Z</time></trkpt><trkpt lat="43.44409288537145" lon="11.927579762780306"><ele>408.0</ele><time>2026-03-29T10:06:07Z</time></trkpt><trkpt lat="43.44415878747805" lon="11.927524984002815"><ele>408.0</ele><time>2026-03-29T10:06:08Z</time></trkpt><trkpt lat="43.44423096726046" lon="11.927547936024109"><ele>408.0</ele><time>2026-03-29T10:06:09Z</time></trkpt><trkpt lat="43.444289380801436" lon="11.927635283603486"><ele>408.0</ele><time>2026-03-29T10:06:10Z</time></trkpt><trkpt lat="43.4443178437683" lon="11.927741133242483"><ele>408.0</ele><time>2026-03-29T10:06:11Z</time></trkpt><trkpt lat="43.44433175723174" lon="11.927828280411164"><ele>408.0</ele><time>2026-03-29T10:06:12Z</time></trkpt><trkpt lat="43.444395949502464" lon="11.927941739122955"><ele>408.0</ele><time>2026-03-29T10:06:14Z</time></trkpt><trkpt lat="43.44450475953546" lon="11.927921723021107"><ele>408.0</ele><time>2026-03-29T10:06:16Z</time></trkpt><trkpt lat="43.44455170437158" lon="11.927843387365257"><ele>408.0</ele><time>2026-03-29T10:06:16.999Z</time></trkpt><trkpt lat="43.44455800289484" lon="11.927718301403669"><ele>408.0</ele><time>2026-03-29T10:06:17.999Z</time></trkpt><trkpt lat="43.44452116473602" lon="11.927594959241079"><ele>408.0</ele><time>2026-03-29T10:06:18.999Z</time></trkpt><trkpt lat="43.4444758727652" lon="11.927492880547039"><ele>408.0</ele><time>2026-03-29T10:06:19.999Z</time></trkpt><trkpt lat="43.44444288141151" lon="11.927400164291933"><ele>408.0</ele><time>2026-03-29T10:06:20.999Z</time></trkpt><trkpt lat="43.44442574848186" lon="11.927307939358613"><ele>406.1666666666667</ele><time>2026-03-29T10:06:21.999Z</time></trkpt><trkpt lat="43.444403498786535" lon="11.927208368584218"><ele>404.33333333333337</ele><time>2026-03-29T10:06:22.999Z</time></trkpt><trkpt lat="43.444386614406056" lon="11.927111668950312"><ele>402.5</ele><time>2026-03-29T10:06:23.999Z</time></trkpt><trkpt lat="43.44438512841973" lon="11.926999042284475"><ele>400.6666666666667</ele><time>2026-03-29T10:06:24.999Z</time></trkpt><trkpt lat="43.4443891601088" lon="11.92688283958772"><ele>398.83333333333337</ele><time>2026-03-29T10:06:25.999Z</time></trkpt><trkpt lat="43.44438605184876" lon="11.92676728320514"><ele>397.0</ele><time>2026-03-29T10:06:26.999Z</time></trkpt><trkpt lat="43.444360537586874" lon="11.926647645793949"><ele>393.8</ele><time>2026-03-29T10:06:27.999Z</time></trkpt><trkpt lat="43.44430878057114" lon="11.926530343060525"><ele>390.6</ele><time>2026-03-29T10:06:28.999Z</time></trkpt><trkpt lat="43.44423806421417" lon="11.926424410552706"><ele>387.40000000000003</ele><time>2026-03-29T10:06:29.999Z</time></trkpt><trkpt lat="43.44414795201758" lon="11.92633216200393"><ele>384.20000000000005</ele><time>2026-03-29T10:06:30.999Z</time></trkpt><trkpt lat="43.44405666603621" lon="11.926278250887288"><ele>381.0</ele><time>2026-03-29T10:06:31.999Z</time></trkpt><trkpt lat="43.443964056962045" lon="11.926242352205415"><ele>381.0</ele><time>2026-03-29T10:06:32.999Z</time></trkpt><trkpt lat="43.44387228885286" lon="11.92621635871397"><ele>381.0</ele><time>2026-03-29T10:06:33.999Z</time></trkpt><trkpt lat="43.443779473838966" lon="11.926199070334834"><ele>381.0</ele><time>2026-03-29T10:06:34.999Z</time></trkpt><trkpt lat="43.44369207817158" lon="11.926181211753429"><ele>381.0</ele><time>2026-03-29T10:06:35.999Z</time></trkpt><trkpt lat="43.44361010563526" lon="11.92616214136578"><ele>381.0</ele><time>2026-03-29T10:06:36.999Z</time></trkpt><trkpt lat="43.44353428571368" lon="11.926118530872994"><ele>381.0</ele><time>2026-03-29T10:06:37.999Z</time></trkpt><trkpt lat="43.443470243500634" lon="11.926039652730552"><ele>381.3333333333333</ele><time>2026-03-29T10:06:38.999Z</time></trkpt><trkpt lat="43.44340799135685" lon="11.925955833560996"><ele>381.6666666666667</ele><time>2026-03-29T10:06:39.999Z</time></trkpt><trkpt lat="43.44334350914504" lon="11.92588745055974"><ele>382.0</ele><time>2026-03-29T10:06:40.999Z</time></trkpt><trkpt lat="43.443291399246505" lon="11.925822834545555"><ele>382.33333333333337</ele><time>2026-03-29T10:06:41.999Z</time></trkpt><trkpt lat="43.443214105114954" lon="11.925729644045017"><ele>382.6666666666667</ele><time>2026-03-29T10:06:43.999Z</time></trkpt><trkpt lat="43.4431923305069" lon="11.925634033010741"><ele>383.0</ele><time>2026-03-29T10:06:46.999Z</time></trkpt><trkpt lat="43.44331801121563" lon="11.925534790428138"><ele>379.0</ele><time>2026-03-29T10:06:48.999Z</time></trkpt><trkpt lat="43.443411245904656" lon="11.92548654389834"><ele>375.0</ele><time>2026-03-29T10:06:49.999Z</time></trkpt><trkpt lat="43.44349368456763" lon="11.925416920009543"><ele>371.0</ele><time>2026-03-29T10:06:50.999Z</time></trkpt><trkpt lat="43.44357628057888" lon="11.925340091022012"><ele>367.0</ele><time>2026-03-29T10:06:51.999Z</time></trkpt><trkpt lat="43.44363816558115" lon="11.925241715781393"><ele>363.0</ele><time>2026-03-29T10:06:52.999Z</time></trkpt><trkpt lat="43.443676413411985" lon="11.92511299780481"><ele>360.0</ele><time>2026-03-29T10:06:53.999Z</time></trkpt><trkpt lat="43.44368214716758" lon="11.924948040520793"><ele>357.0</ele><time>2026-03-29T10:06:54.999Z</time></trkpt><trkpt lat="43.44367383023083" lon="11.924769839574095"><ele>354.0</ele><time>2026-03-29T10:06:55.999Z</time></trkpt><trkpt lat="43.4436881270269" lon="11.924594230660285"><ele>351.0</ele><time>2026-03-29T10:06:56.999Z</time></trkpt><trkpt lat="43.443726724249714" lon="11.924429437927813"><ele>351.0</ele><time>2026-03-29T10:06:57.999Z</time></trkpt><trkpt lat="43.4437907623761" lon="11.924269568076971"><ele>351.0</ele><time>2026-03-29T10:06:58.999Z</time></trkpt><trkpt lat="43.44386433199902" lon="11.924129581908014"><ele>351.0</ele><time>2026-03-29T10:06:59.999Z</time></trkpt><trkpt lat="43.443930930590604" lon="11.923998120885297"><ele>351.0</ele><time>2026-03-29T10:07:00.999Z</time></trkpt><trkpt lat="43.443990189075464" lon="11.923867585791026"><ele>352.5</ele><time>2026-03-29T10:07:01.999Z</time></trkpt><trkpt lat="43.44405716084226" lon="11.923751362764314"><ele>354.0</ele><time>2026-03-29T10:07:02.999Z</time></trkpt><trkpt lat="43.4441492921596" lon="11.92367132128007"><ele>355.5</ele><time>2026-03-29T10:07:03.999Z</time></trkpt><trkpt lat="43.444258201453735" lon="11.923614919284"><ele>357.0</ele><time>2026-03-29T10:07:04.999Z</time></trkpt><trkpt lat="43.44437134822163" lon="11.923561400609362"><ele>357.0</ele><time>2026-03-29T10:07:05.999Z</time></trkpt><trkpt lat="43.444473701116195" lon="11.923510630018852"><ele>357.0</ele><time>2026-03-29T10:07:06.999Z</time></trkpt><trkpt lat="43.44456140045636" lon="11.923439863404807"><ele>357.0</ele><time>2026-03-29T10:07:07.999Z</time></trkpt><trkpt lat="43.44461704953501" lon="11.923318978412642"><ele>357.0</ele><time>2026-03-29T10:07:08.999Z</time></trkpt><trkpt lat="43.44463664654666" lon="11.923162827500734"><ele>357.0</ele><time>2026-03-29T10:07:09.999Z</time></trkpt><trkpt lat="43.44462387410996" lon="11.922989441103065"><ele>351.25</ele><time>2026-03-29T10:07:10.999Z</time></trkpt><trkpt lat="43.444583698686266" lon="11.922815565695668"><ele>345.5</ele><time>2026-03-29T10:07:11.999Z</time></trkpt><trkpt lat="43.44453168357212" lon="11.922638495718395"><ele>339.75</ele><time>2026-03-29T10:07:12.999Z</time></trkpt><trkpt lat="43.44448781597254" lon="11.92246787126195"><ele>334.0</ele><time>2026-03-29T10:07:13.999Z</time></trkpt><trkpt lat="43.444453826351086" lon="11.92231192633924"><ele>332.2</ele><time>2026-03-29T10:07:14.999Z</time></trkpt><trkpt lat="43.44442876462199" lon="11.922161162060952"><ele>330.4</ele><time>2026-03-29T10:07:15.999Z</time></trkpt><trkpt lat="43.44441322742004" lon="11.922017228195456"><ele>328.6</ele><time>2026-03-29T10:07:16.999Z</time></trkpt><trkpt lat="43.44439749148374" lon="11.921873724868133"><ele>326.8</ele><time>2026-03-29T10:07:17.998Z</time></trkpt><trkpt lat="43.44437617674008" lon="11.921738991252791"><ele>325.0</ele><time>2026-03-29T10:07:18.998Z</time></trkpt><trkpt lat="43.44435989429225" lon="11.921605526847058"><ele>324.4</ele><time>2026-03-29T10:07:19.998Z</time></trkpt><trkpt lat="43.44436144405301" lon="11.921476461958479"><ele>323.8</ele><time>2026-03-29T10:07:20.998Z</time></trkpt><trkpt lat="43.4443879334823" lon="11.921351225602141"><ele>323.20000000000005</ele><time>2026-03-29T10:07:21.998Z</time></trkpt><trkpt lat="43.44442809672667" lon="11.921215339107803"><ele>322.6</ele><time>2026-03-29T10:07:22.998Z</time></trkpt><trkpt lat="43.44446128266331" lon="11.921066680849217"><ele>322.0</ele><time>2026-03-29T10:07:23.998Z</time></trkpt><trkpt lat="43.44449621504938" lon="11.920929646921104"><ele>323.25</ele><time>2026-03-29T10:07:24.998Z</time></trkpt><trkpt lat="43.444540632258736" lon="11.92077550058229"><ele>324.5</ele><time>2026-03-29T10:07:25.998Z</time></trkpt><trkpt lat="43.44458657456774" lon="11.920636933816693"><ele>325.75</ele><time>2026-03-29T10:07:26.998Z</time></trkpt><trkpt lat="43.44465755133094" lon="11.920503433924154"><ele>327.0</ele><time>2026-03-29T10:07:27.998Z</time></trkpt><trkpt lat="43.44476353582219" lon="11.920392853236416"><ele>327.0</ele><time>2026-03-29T10:07:28.998Z</time></trkpt><trkpt lat="43.44488373679648" lon="11.920310003018407"><ele>327.0</ele><time>2026-03-29T10:07:29.998Z</time></trkpt><trkpt lat="43.44501607979582" lon="11.920254450301506"><ele>327.0</ele><time>2026-03-29T10:07:30.998Z</time></trkpt><trkpt lat="43.44515441178233" lon="11.920237385763338"><ele>327.0</ele><time>2026-03-29T10:07:31.998Z</time></trkpt><trkpt lat="43.44530336628667" lon="11.92026435619242"><ele>322.0</ele><time>2026-03-29T10:07:32.998Z</time></trkpt><trkpt lat="43.44546305103458" lon="11.920323480567635"><ele>317.0</ele><time>2026-03-29T10:07:33.998Z</time></trkpt><trkpt lat="43.44560612907811" lon="11.920396497135895"><ele>312.0</ele><time>2026-03-29T10:07:34.998Z</time></trkpt><trkpt lat="43.44573185891082" lon="11.920511916529081"><ele>312.0</ele><time>2026-03-29T10:07:35.998Z</time></trkpt><trkpt lat="43.44581956242064" lon="11.920657238388998"><ele>312.0</ele><time>2026-03-29T10:07:37Z</time></trkpt><trkpt lat="43.44589723479562" lon="11.920817027301315"><ele>312.0</ele><time>2026-03-29T10:07:38Z</time></trkpt><trkpt lat="43.44597724342761" lon="11.920973220877356"><ele>312.0</ele><time>2026-03-29T10:07:39Z</time></trkpt><trkpt lat="43.44606857805097" lon="11.92112364187739"><ele>313.75</ele><time>2026-03-29T10:07:40Z</time></trkpt><trkpt lat="43.44615225172923" lon="11.921268004180428"><ele>315.5</ele><time>2026-03-29T10:07:41Z</time></trkpt><trkpt lat="43.44623158935343" lon="11.921411348105485"><ele>317.25</ele><time>2026-03-29T10:07:42Z</time></trkpt><trkpt lat="43.44631150942938" lon="11.921549399835607"><ele>319.0</ele><time>2026-03-29T10:07:43Z</time></trkpt><trkpt lat="43.44639264293928" lon="11.921670753806325"><ele>318.0</ele><time>2026-03-29T10:07:44Z</time></trkpt><trkpt lat="43.44648518393002" lon="11.921768706836657"><ele>317.0</ele><time>2026-03-29T10:07:45Z</time></trkpt><trkpt lat="43.446603554810544" lon="11.921832802501065"><ele>316.0</ele><time>2026-03-29T10:07:46Z</time></trkpt><trkpt lat="43.446734922688584" lon="11.921866217048718"><ele>315.0</ele><time>2026-03-29T10:07:47Z</time></trkpt><trkpt lat="43.44686894174074" lon="11.921894523773966"><ele>315.0</ele><time>2026-03-29T10:07:48Z</time></trkpt><trkpt lat="43.44700427316543" lon="11.921933430480568"><ele>315.0</ele><time>2026-03-29T10:07:49Z</time></trkpt><trkpt lat="43.44714047330653" lon="11.921968012913112"><ele>315.0</ele><time>2026-03-29T10:07:50Z</time></trkpt><trkpt lat="43.447278298418425" lon="11.921975979959434"><ele>315.0</ele><time>2026-03-29T10:07:51Z</time></trkpt><trkpt lat="43.44742027462405" lon="11.921957184973383"><ele>310.0</ele><time>2026-03-29T10:07:52Z</time></trkpt><trkpt lat="43.44756328317774" lon="11.921912744876051"><ele>305.0</ele><time>2026-03-29T10:07:53Z</time></trkpt><trkpt lat="43.44770313486005" lon="11.921852573181344"><ele>300.0</ele><time>2026-03-29T10:07:54Z</time></trkpt><trkpt lat="43.44783004728445" lon="11.921780650413194"><ele>295.0</ele><time>2026-03-29T10:07:55Z</time></trkpt><trkpt lat="43.4479438886167" lon="11.921709983856536"><ele>294.75</ele><time>2026-03-29T10:07:56Z</time></trkpt><trkpt lat="43.44804950839087" lon="11.921638771442025"><ele>294.5</ele><time>2026-03-29T10:07:57Z</time></trkpt><trkpt lat="43.44814840983417" lon="11.921559411003892"><ele>294.25</ele><time>2026-03-29T10:07:58Z</time></trkpt><trkpt lat="43.448237921470756" lon="11.921454222490194"><ele>294.0</ele><time>2026-03-29T10:07:59Z</time></trkpt><trkpt lat="43.44831581064208" lon="11.921331218887419"><ele>294.0</ele><time>2026-03-29T10:08:00Z</time></trkpt><trkpt lat="43.4483808320826" lon="11.92120207553187"><ele>294.0</ele><time>2026-03-29T10:08:01Z</time></trkpt><trkpt lat="43.44843390465379" lon="11.92106723377422"><ele>294.0</ele><time>2026-03-29T10:08:02Z</time></trkpt><trkpt lat="43.448480574591066" lon="11.920909346955083"><ele>294.0</ele><time>2026-03-29T10:08:03Z</time></trkpt><trkpt lat="43.4485211828796" lon="11.920748750125172"><ele>294.0</ele><time>2026-03-29T10:08:04Z</time></trkpt><trkpt lat="43.44855894584218" lon="11.920595435682955"><ele>294.0</ele><time>2026-03-29T10:08:05Z</time></trkpt><trkpt lat="43.448600608645194" lon="11.92044231796849"><ele>294.0</ele><time>2026-03-29T10:08:06Z</time></trkpt><trkpt lat="43.44864350746245" lon="11.920280403843748"><ele>294.0</ele><time>2026-03-29T10:08:07Z</time></trkpt><trkpt lat="43.44868704047609" lon="11.920109114290124"><ele>293.25</ele><time>2026-03-29T10:08:08Z</time></trkpt><trkpt lat="43.4487307052644" lon="11.919943591058942"><ele>292.5</ele><time>2026-03-29T10:08:09Z</time></trkpt><trkpt lat="43.448763954622436" lon="11.919783724076934"><ele>291.75</ele><time>2026-03-29T10:08:10Z</time></trkpt><trkpt lat="43.4487988614203" lon="11.919628381540262"><ele>291.0</ele><time>2026-03-29T10:08:11Z</time></trkpt><trkpt lat="43.44883516843255" lon="11.91947574840253"><ele>290.5</ele><time>2026-03-29T10:08:12Z</time></trkpt><trkpt lat="43.44888501023751" lon="11.919323205964936"><ele>290.0</ele><time>2026-03-29T10:08:13Z</time></trkpt><trkpt lat="43.448940997773335" lon="11.919160897815145"><ele>289.5</ele><time>2026-03-29T10:08:14Z</time></trkpt><trkpt lat="43.44899507838407" lon="11.91899093013203"><ele>289.0</ele><time>2026-03-29T10:08:15Z</time></trkpt><trkpt lat="43.44904238972282" lon="11.91880764941063"><ele>288.75</ele><time>2026-03-29T10:08:16Z</time></trkpt><trkpt lat="43.449090838869026" lon="11.918631692041368"><ele>288.5</ele><time>2026-03-29T10:08:17Z</time></trkpt><trkpt lat="43.449139062762676" lon="11.91845281753061"><ele>288.25</ele><time>2026-03-29T10:08:18Z</time></trkpt><trkpt lat="43.44918567613277" lon="11.918269152785124"><ele>288.0</ele><time>2026-03-29T10:08:19Z</time></trkpt><trkpt lat="43.449235809953876" lon="11.918082907029644"><ele>288.0</ele><time>2026-03-29T10:08:20Z</time></trkpt><trkpt lat="43.44928192223359" lon="11.917906276350829"><ele>288.0</ele><time>2026-03-29T10:08:21Z</time></trkpt><trkpt lat="43.44932598826638" lon="11.917742989035187"><ele>288.0</ele><time>2026-03-29T10:08:22Z</time></trkpt><trkpt lat="43.44936688840843" lon="11.917586370376"><ele>288.0</ele><time>2026-03-29T10:08:22.999Z</time></trkpt><trkpt lat="43.449411547611774" lon="11.917424576664237"><ele>287.75</ele><time>2026-03-29T10:08:23.999Z</time></trkpt><trkpt lat="43.44945779066617" lon="11.9172531224746"><ele>287.5</ele><time>2026-03-29T10:08:24.999Z</time></trkpt><trkpt lat="43.44950382386816" lon="11.917078421607117"><ele>287.25</ele><time>2026-03-29T10:08:25.999Z</time></trkpt><trkpt lat="43.44955302013017" lon="11.916898662528844"><ele>287.0</ele><time>2026-03-29T10:08:26.999Z</time></trkpt><trkpt lat="43.449602111884886" lon="11.916725312545298"><ele>286.25</ele><time>2026-03-29T10:08:27.999Z</time></trkpt><trkpt lat="43.449649274781734" lon="11.916548847792484"><ele>285.5</ele><time>2026-03-29T10:08:28.999Z</time></trkpt><trkpt lat="43.44969838807998" lon="11.916375899939"><ele>284.75</ele><time>2026-03-29T10:08:29.999Z</time></trkpt><trkpt lat="43.44974844323981" lon="11.916202985207418"><ele>284.0</ele><time>2026-03-29T10:08:30.999Z</time></trkpt><trkpt lat="43.44979545292461" lon="11.91603571313373"><ele>283.25</ele><time>2026-03-29T10:08:31.999Z</time></trkpt><trkpt lat="43.44984057744138" lon="11.915867172274158"><ele>282.5</ele><time>2026-03-29T10:08:32.999Z</time></trkpt><trkpt lat="43.44988550403435" lon="11.915702152158353"><ele>281.75</ele><time>2026-03-29T10:08:33.999Z</time></trkpt><trkpt lat="43.44992822450937" lon="11.915536964681966"><ele>281.0</ele><time>2026-03-29T10:08:34.999Z</time></trkpt><trkpt lat="43.449970437552565" lon="11.915369884033355"><ele>281.0</ele><time>2026-03-29T10:08:35.999Z</time></trkpt><trkpt lat="43.450014593870215" lon="11.915204905330057"><ele>281.0</ele><time>2026-03-29T10:08:36.999Z</time></trkpt><trkpt lat="43.45005798754644" lon="11.915040756819813"><ele>281.0</ele><time>2026-03-29T10:08:37.999Z</time></trkpt><trkpt lat="43.4501018641306" lon="11.914877615696685"><ele>281.0</ele><time>2026-03-29T10:08:38.999Z</time></trkpt><trkpt lat="43.45014788555553" lon="11.914713609851018"><ele>281.25</ele><time>2026-03-29T10:08:39.999Z</time></trkpt><trkpt lat="43.450191953461356" lon="11.914544913454366"><ele>281.5</ele><time>2026-03-29T10:08:40.999Z</time></trkpt><trkpt lat="43.450234985551354" lon="11.914386483542236"><ele>281.75</ele><time>2026-03-29T10:08:41.999Z</time></trkpt><trkpt lat="43.45027653089381" lon="11.914234132116883"><ele>282.0</ele><time>2026-03-29T10:08:42.999Z</time></trkpt><trkpt lat="43.4503200743725" lon="11.914091503763443"><ele>282.0</ele><time>2026-03-29T10:08:43.999Z</time></trkpt><trkpt lat="43.4503694809101" lon="11.91394872122926"><ele>282.0</ele><time>2026-03-29T10:08:44.999Z</time></trkpt><trkpt lat="43.450431118601145" lon="11.913801726819344"><ele>282.0</ele><time>2026-03-29T10:08:45.999Z</time></trkpt><trkpt lat="43.45052188967716" lon="11.913661192144637"><ele>282.0</ele><time>2026-03-29T10:08:46.999Z</time></trkpt><trkpt lat="43.45062853168634" lon="11.913535213473065"><ele>281.5</ele><time>2026-03-29T10:08:47.999Z</time></trkpt><trkpt lat="43.45073021510204" lon="11.913401975875452"><ele>281.0</ele><time>2026-03-29T10:08:48.999Z</time></trkpt><trkpt lat="43.4508143793834" lon="11.913239367322067"><ele>280.5</ele><time>2026-03-29T10:08:49.999Z</time></trkpt><trkpt lat="43.4508876702317" lon="11.91305978039479"><ele>280.0</ele><time>2026-03-29T10:08:50.999Z</time></trkpt><trkpt lat="43.45096515760481" lon="11.91288292988568"><ele>280.0</ele><time>2026-03-29T10:08:51.999Z</time></trkpt><trkpt lat="43.45104653227186" lon="11.91271181493283"><ele>280.0</ele><time>2026-03-29T10:08:52.999Z</time></trkpt><trkpt lat="43.451126061820254" lon="11.912546322328152"><ele>280.0</ele><time>2026-03-29T10:08:53.999Z</time></trkpt><trkpt lat="43.45120258153848" lon="11.912382544783267"><ele>280.0</ele><time>2026-03-29T10:08:54.999Z</time></trkpt><trkpt lat="43.451284237844604" lon="11.912202029936813"><ele>279.66666666666663</ele><time>2026-03-29T10:08:55.999Z</time></trkpt><trkpt lat="43.45136521838938" lon="11.912021824138037"><ele>279.3333333333333</ele><time>2026-03-29T10:08:56.999Z</time></trkpt><trkpt lat="43.45144990368149" lon="11.911845317128282"><ele>279.0</ele><time>2026-03-29T10:08:57.999Z</time></trkpt><trkpt lat="43.451531823626546" lon="11.911677879410526"><ele>279.0</ele><time>2026-03-29T10:08:58.999Z</time></trkpt><trkpt lat="43.4516137728147" lon="11.911526272961302"><ele>279.0</ele><time>2026-03-29T10:08:59.999Z</time></trkpt><trkpt lat="43.45169631543301" lon="11.911374495453796"><ele>279.0</ele><time>2026-03-29T10:09:00.999Z</time></trkpt><trkpt lat="43.45178872136118" lon="11.911235973481515"><ele>279.0</ele><time>2026-03-29T10:09:01.999Z</time></trkpt><trkpt lat="43.451880819187316" lon="11.91109371212355"><ele>279.0</ele><time>2026-03-29T10:09:02.999Z</time></trkpt><trkpt lat="43.45196605919457" lon="11.910947154616949"><ele>279.0</ele><time>2026-03-29T10:09:03.999Z</time></trkpt><trkpt lat="43.452051277840674" lon="11.910803810171961"><ele>279.0</ele><time>2026-03-29T10:09:04.999Z</time></trkpt><trkpt lat="43.45213535283206" lon="11.91066555835597"><ele>279.0</ele><time>2026-03-29T10:09:05.999Z</time></trkpt><trkpt lat="43.452213974334065" lon="11.910537819101945"><ele>278.25</ele><time>2026-03-29T10:09:06.999Z</time></trkpt><trkpt lat="43.452292344105885" lon="11.910402843204839"><ele>277.5</ele><time>2026-03-29T10:09:07.999Z</time></trkpt><trkpt lat="43.45236696738994" lon="11.91026499331883"><ele>276.75</ele><time>2026-03-29T10:09:08.999Z</time></trkpt><trkpt lat="43.4524491700445" lon="11.910126494655719"><ele>276.0</ele><time>2026-03-29T10:09:09.999Z</time></trkpt><trkpt lat="43.45253616253771" lon="11.909985840007305"><ele>276.0</ele><time>2026-03-29T10:09:10.999Z</time></trkpt><trkpt lat="43.452619245447245" lon="11.909834801862353"><ele>276.0</ele><time>2026-03-29T10:09:11.999Z</time></trkpt><trkpt lat="43.4527017922955" lon="11.909676535315876"><ele>276.0</ele><time>2026-03-29T10:09:12.999Z</time></trkpt><trkpt lat="43.45278589730938" lon="11.909516999409385"><ele>276.0</ele><time>2026-03-29T10:09:13.999Z</time></trkpt><trkpt lat="43.45287185642044" lon="11.909352454957695"><ele>275.75</ele><time>2026-03-29T10:09:14.999Z</time></trkpt><trkpt lat="43.452957036319226" lon="11.90918401931104"><ele>275.5</ele><time>2026-03-29T10:09:15.999Z</time></trkpt><trkpt lat="43.45304329970692" lon="11.909018650600784"><ele>275.25</ele><time>2026-03-29T10:09:16.999Z</time></trkpt><trkpt lat="43.453135162096835" lon="11.908850854809494"><ele>275.0</ele><time>2026-03-29T10:09:17.999Z</time></trkpt><trkpt lat="43.45322401033857" lon="11.90868287763095"><ele>275.0</ele><time>2026-03-29T10:09:18.999Z</time></trkpt><trkpt lat="43.45331505295656" lon="11.908511426587042"><ele>275.0</ele><time>2026-03-29T10:09:19.999Z</time></trkpt><trkpt lat="43.45340889123605" lon="11.908343398249453"><ele>275.0</ele><time>2026-03-29T10:09:20.999Z</time></trkpt><trkpt lat="43.453508808188346" lon="11.908162316391262"><ele>274.6666666666667</ele><time>2026-03-29T10:09:21.999Z</time></trkpt><trkpt lat="43.45360188571314" lon="11.907984454194882"><ele>274.3333333333333</ele><time>2026-03-29T10:09:22.998Z</time></trkpt><trkpt lat="43.45369557477402" lon="11.907818400206402"><ele>274.0</ele><time>2026-03-29T10:09:23.998Z</time></trkpt><trkpt lat="43.45379030315822" lon="11.907643322225649"><ele>273.66666666666663</ele><time>2026-03-29T10:09:24.998Z</time></trkpt><trkpt lat="43.453888102066905" lon="11.907470659214908"><ele>273.3333333333333</ele><time>2026-03-29T10:09:25.998Z</time></trkpt><trkpt lat="43.45398399923111" lon="11.907294661488262"><ele>273.0</ele><time>2026-03-29T10:09:26.998Z</time></trkpt><trkpt lat="43.454075405982245" lon="11.90712508109659"><ele>273.0</ele><time>2026-03-29T10:09:27.998Z</time></trkpt><trkpt lat="43.45417524865556" lon="11.906950561923882"><ele>273.0</ele><time>2026-03-29T10:09:28.998Z</time></trkpt><trkpt lat="43.45427365424464" lon="11.906775529302196"><ele>273.0</ele><time>2026-03-29T10:09:29.998Z</time></trkpt><trkpt lat="43.454371282957716" lon="11.906598450590966"><ele>273.0</ele><time>2026-03-29T10:09:30.998Z</time></trkpt><trkpt lat="43.45447461879343" lon="11.906431974777433"><ele>273.0</ele><time>2026-03-29T10:09:31.998Z</time></trkpt><trkpt lat="43.4545788706144" lon="11.906269315031432"><ele>273.0</ele><time>2026-03-29T10:09:32.998Z</time></trkpt><trkpt lat="43.45467605103595" lon="11.906108945630953"><ele>273.0</ele><time>2026-03-29T10:09:33.998Z</time></trkpt><trkpt lat="43.45477039262144" lon="11.905946826343321"><ele>273.0</ele><time>2026-03-29T10:09:34.998Z</time></trkpt><trkpt lat="43.45486266783676" lon="11.905786833666403"><ele>273.0</ele><time>2026-03-29T10:09:35.998Z</time></trkpt><trkpt lat="43.45495092126855" lon="11.905620590308208"><ele>273.0</ele><time>2026-03-29T10:09:36.998Z</time></trkpt><trkpt lat="43.455027045184636" lon="11.905445270879504"><ele>273.0</ele><time>2026-03-29T10:09:37.998Z</time></trkpt><trkpt lat="43.45510144999531" lon="11.905264993883959"><ele>273.0</ele><time>2026-03-29T10:09:38.998Z</time></trkpt><trkpt lat="43.455166745107995" lon="11.905070651428177"><ele>273.0</ele><time>2026-03-29T10:09:39.998Z</time></trkpt><trkpt lat="43.45521345508152" lon="11.904872886152503"><ele>273.25</ele><time>2026-03-29T10:09:40.998Z</time></trkpt><trkpt lat="43.4552524757414" lon="11.904668070816783"><ele>273.5</ele><time>2026-03-29T10:09:41.998Z</time></trkpt><trkpt lat="43.45528817813515" lon="11.90446532563695"><ele>273.75</ele><time>2026-03-29T10:09:43Z</time></trkpt><trkpt lat="43.45532819057618" lon="11.904281580995834"><ele>274.0</ele><time>2026-03-29T10:09:44Z</time></trkpt><trkpt lat="43.45536464201773" lon="11.904112996604821"><ele>273.5</ele><time>2026-03-29T10:09:45Z</time></trkpt><trkpt lat="43.455409526126374" lon="11.903959044250302"><ele>273.0</ele><time>2026-03-29T10:09:46Z</time></trkpt><trkpt lat="43.45545977948459" lon="11.903819767885178"><ele>272.5</ele><time>2026-03-29T10:09:47Z</time></trkpt><trkpt lat="43.455535955206244" lon="11.903694773562416"><ele>272.0</ele><time>2026-03-29T10:09:48Z</time></trkpt><trkpt lat="43.45563011102727" lon="11.903592933842845"><ele>271.0</ele><time>2026-03-29T10:09:49Z</time></trkpt><trkpt lat="43.45573976012019" lon="11.903523722987327"><ele>270.0</ele><time>2026-03-29T10:09:50Z</time></trkpt><trkpt lat="43.45586443302318" lon="11.903501446406912"><ele>269.0</ele><time>2026-03-29T10:09:51Z</time></trkpt><trkpt lat="43.45599802547428" lon="11.903507236786183"><ele>268.0</ele><time>2026-03-29T10:09:52Z</time></trkpt><trkpt lat="43.45613132036134" lon="11.903528217269916"><ele>268.0</ele><time>2026-03-29T10:09:53Z</time></trkpt><trkpt lat="43.456246953284264" lon="11.903548875643292"><ele>268.0</ele><time>2026-03-29T10:09:54Z</time></trkpt><trkpt lat="43.45635715121647" lon="11.903560460010814"><ele>268.0</ele><time>2026-03-29T10:09:55Z</time></trkpt><trkpt lat="43.45645797081929" lon="11.903568727302128"><ele>268.0</ele><time>2026-03-29T10:09:56Z</time></trkpt><trkpt lat="43.456539666089085" lon="11.903581827326539"><ele>268.0</ele><time>2026-03-29T10:09:57Z</time></trkpt><trkpt lat="43.45660712465981" lon="11.903588977878767"><ele>268.16666666666663</ele><time>2026-03-29T10:09:58Z</time></trkpt><trkpt lat="43.45666947978842" lon="11.903606562542187"><ele>268.3333333333333</ele><time>2026-03-29T10:09:59Z</time></trkpt><trkpt lat="43.45673162136026" lon="11.90365001305196"><ele>268.5</ele><time>2026-03-29T10:10:00Z</time></trkpt><trkpt lat="43.45679726801703" lon="11.903716603945359"><ele>268.6666666666667</ele><time>2026-03-29T10:10:01Z</time></trkpt><trkpt lat="43.45687487073963" lon="11.903747934856804"><ele>268.83333333333337</ele><time>2026-03-29T10:10:02Z</time></trkpt><trkpt lat="43.456958051465854" lon="11.903721786478718"><ele>269.0</ele><time>2026-03-29T10:10:03Z</time></trkpt><trkpt lat="43.45704101934868" lon="11.903659525691321"><ele>269.59999999999997</ele><time>2026-03-29T10:10:04Z</time></trkpt><trkpt lat="43.457130292488884" lon="11.903610862505964"><ele>270.2</ele><time>2026-03-29T10:10:05Z</time></trkpt><trkpt lat="43.45722834548595" lon="11.90361104421669"><ele>270.79999999999995</ele><time>2026-03-29T10:10:06Z</time></trkpt><trkpt lat="43.45733139526921" lon="11.90364422800144"><ele>271.4</ele><time>2026-03-29T10:10:07Z</time></trkpt><trkpt lat="43.45743647204955" lon="11.903658295226807"><ele>272.0</ele><time>2026-03-29T10:10:08Z</time></trkpt><trkpt lat="43.4575323171021" lon="11.90365769185142"><ele>272.0</ele><time>2026-03-29T10:10:09Z</time></trkpt><trkpt lat="43.45761580982348" lon="11.903630577471112"><ele>272.0</ele><time>2026-03-29T10:10:10Z</time></trkpt><trkpt lat="43.457691035895905" lon="11.903553406334341"><ele>272.0</ele><time>2026-03-29T10:10:11Z</time></trkpt><trkpt lat="43.457754327496" lon="11.903430144558646"><ele>272.0</ele><time>2026-03-29T10:10:12Z</time></trkpt><trkpt lat="43.457806652545614" lon="11.903276602130589"><ele>272.0</ele><time>2026-03-29T10:10:13Z</time></trkpt><trkpt lat="43.45785277844531" lon="11.903106037104765"><ele>272.0</ele><time>2026-03-29T10:10:14Z</time></trkpt><trkpt lat="43.45790024210235" lon="11.90292711955994"><ele>272.0</ele><time>2026-03-29T10:10:15Z</time></trkpt><trkpt lat="43.45794179594177" lon="11.902768587917794"><ele>272.0</ele><time>2026-03-29T10:10:16Z</time></trkpt><trkpt lat="43.45798891285395" lon="11.90261696403055"><ele>272.0</ele><time>2026-03-29T10:10:17Z</time></trkpt><trkpt lat="43.45803131255468" lon="11.902461495188088"><ele>271.75</ele><time>2026-03-29T10:10:18Z</time></trkpt><trkpt lat="43.458072522616895" lon="11.902312219315437"><ele>271.5</ele><time>2026-03-29T10:10:19Z</time></trkpt><trkpt lat="43.45811478467185" lon="11.902164652890656"><ele>271.25</ele><time>2026-03-29T10:10:20Z</time></trkpt><trkpt lat="43.458155356833345" lon="11.902019883683902"><ele>271.0</ele><time>2026-03-29T10:10:21Z</time></trkpt><trkpt lat="43.45819622244612" lon="11.90187762277661"><ele>270.5</ele><time>2026-03-29T10:10:22Z</time></trkpt><trkpt lat="43.45824015186548" lon="11.901731106837012"><ele>270.0</ele><time>2026-03-29T10:10:23Z</time></trkpt><trkpt lat="43.45828247139426" lon="11.901582389779637"><ele>269.5</ele><time>2026-03-29T10:10:24Z</time></trkpt><trkpt lat="43.45832308376925" lon="11.901430381598455"><ele>269.0</ele><time>2026-03-29T10:10:25Z</time></trkpt><trkpt lat="43.4583656495589" lon="11.901283487518414"><ele>269.0</ele><time>2026-03-29T10:10:26Z</time></trkpt><trkpt lat="43.458407258472576" lon="11.901149517473305"><ele>269.0</ele><time>2026-03-29T10:10:27Z</time></trkpt><trkpt lat="43.45844234657579" lon="11.901026186508208"><ele>269.0</ele><time>2026-03-29T10:10:27.999Z</time></trkpt><trkpt lat="43.45847901665198" lon="11.90088905378112"><ele>269.0</ele><time>2026-03-29T10:10:28.999Z</time></trkpt><trkpt lat="43.4585243501078" lon="11.900744263787994"><ele>269.0</ele><time>2026-03-29T10:10:29.999Z</time></trkpt><trkpt lat="43.458577992369364" lon="11.90059762366672"><ele>268.75</ele><time>2026-03-29T10:10:30.999Z</time></trkpt><trkpt lat="43.45863243517717" lon="11.900444982733116"><ele>268.5</ele><time>2026-03-29T10:10:31.999Z</time></trkpt><trkpt lat="43.458681089476315" lon="11.900279680483004"><ele>268.25</ele><time>2026-03-29T10:10:32.999Z</time></trkpt><trkpt lat="43.45872660296231" lon="11.900109204380893"><ele>268.0</ele><time>2026-03-29T10:10:33.999Z</time></trkpt><trkpt lat="43.45877592746354" lon="11.899951779027282"><ele>267.6</ele><time>2026-03-29T10:10:34.999Z</time></trkpt><trkpt lat="43.458821440642076" lon="11.899803251118287"><ele>267.20000000000005</ele><time>2026-03-29T10:10:35.999Z</time></trkpt><trkpt lat="43.458861976159" lon="11.899659476390392"><ele>266.8</ele><time>2026-03-29T10:10:36.999Z</time></trkpt><trkpt lat="43.45889774617436" lon="11.899525400353468"><ele>266.40000000000003</ele><time>2026-03-29T10:10:37.999Z</time></trkpt><trkpt lat="43.458930478358035" lon="11.899409160042795"><ele>266.0</ele><time>2026-03-29T10:10:38.999Z</time></trkpt><trkpt lat="43.45896079583282" lon="11.899312936936663"><ele>266.2</ele><time>2026-03-29T10:10:39.999Z</time></trkpt><trkpt lat="43.45899154716687" lon="11.899176732216771"><ele>266.40000000000003</ele><time>2026-03-29T10:10:41.999Z</time></trkpt><trkpt lat="43.45901289968746" lon="11.899090226599542"><ele>266.6</ele><time>2026-03-29T10:11:09.999Z</time></trkpt><trkpt lat="43.45905630334686" lon="11.898935842241464"><ele>266.8</ele><time>2026-03-29T10:11:11.999Z</time></trkpt><trkpt lat="43.459085051216604" lon="11.898820444538375"><ele>267.0</ele><time>2026-03-29T10:11:12.999Z</time></trkpt><trkpt lat="43.45911996311483" lon="11.89869647549577"><ele>267.0</ele><time>2026-03-29T10:11:13.999Z</time></trkpt><trkpt lat="43.459163595588976" lon="11.898551467126032"><ele>267.0</ele><time>2026-03-29T10:11:14.999Z</time></trkpt><trkpt lat="43.45921221875175" lon="11.898391479476782"><ele>267.0</ele><time>2026-03-29T10:11:15.999Z</time></trkpt><trkpt lat="43.45926275596362" lon="11.898224845959424"><ele>267.0</ele><time>2026-03-29T10:11:16.999Z</time></trkpt><trkpt lat="43.45931836138238" lon="11.898048206890035"><ele>267.0</ele><time>2026-03-29T10:11:17.999Z</time></trkpt><trkpt lat="43.45937123696353" lon="11.897861404221615"><ele>267.0</ele><time>2026-03-29T10:11:18.999Z</time></trkpt><trkpt lat="43.459423240236255" lon="11.897677419344985"><ele>267.0</ele><time>2026-03-29T10:11:19.999Z</time></trkpt><trkpt lat="43.45947750581896" lon="11.897495907181867"><ele>267.0</ele><time>2026-03-29T10:11:20.999Z</time></trkpt><trkpt lat="43.4595325234931" lon="11.897304491146134"><ele>267.0</ele><time>2026-03-29T10:11:21.999Z</time></trkpt><trkpt lat="43.459588459407776" lon="11.897106641323788"><ele>267.0</ele><time>2026-03-29T10:11:22.999Z</time></trkpt><trkpt lat="43.45964346500326" lon="11.896914154604454"><ele>267.0</ele><time>2026-03-29T10:11:23.999Z</time></trkpt><trkpt lat="43.45970088855411" lon="11.896721132780213"><ele>267.0</ele><time>2026-03-29T10:11:24.999Z</time></trkpt><trkpt lat="43.45975761160875" lon="11.89651738605944"><ele>267.0</ele><time>2026-03-29T10:11:25.999Z</time></trkpt><trkpt lat="43.45981722632639" lon="11.896315543362038"><ele>267.0</ele><time>2026-03-29T10:11:26.999Z</time></trkpt><trkpt lat="43.45987320555699" lon="11.896119586425907"><ele>267.0</ele><time>2026-03-29T10:11:27.998Z</time></trkpt><trkpt lat="43.459931652132965" lon="11.895924109347211"><ele>267.0</ele><time>2026-03-29T10:11:28.998Z</time></trkpt><trkpt lat="43.45998815297508" lon="11.895726439433394"><ele>267.0</ele><time>2026-03-29T10:11:29.998Z</time></trkpt><trkpt lat="43.460043380473564" lon="11.895544840531214"><ele>267.0</ele><time>2026-03-29T10:11:30.998Z</time></trkpt><trkpt lat="43.46010340150542" lon="11.89536310914624"><ele>267.0</ele><time>2026-03-29T10:11:31.998Z</time></trkpt><trkpt lat="43.46017488839248" lon="11.895197501249928"><ele>267.0</ele><time>2026-03-29T10:11:32.998Z</time></trkpt><trkpt lat="43.46025507853238" lon="11.895048555328684"><ele>267.0</ele><time>2026-03-29T10:11:33.998Z</time></trkpt><trkpt lat="43.460320581656255" lon="11.894880466388237"><ele>267.0</ele><time>2026-03-29T10:11:34.998Z</time></trkpt><trkpt lat="43.46036932710681" lon="11.894696119405069"><ele>267.0</ele><time>2026-03-29T10:11:35.998Z</time></trkpt><trkpt lat="43.46040180455581" lon="11.894510706411149"><ele>267.0</ele><time>2026-03-29T10:11:36.998Z</time></trkpt><trkpt lat="43.460424915762026" lon="11.89432339779026"><ele>267.0</ele><time>2026-03-29T10:11:37.998Z</time></trkpt><trkpt lat="43.46045240750818" lon="11.894138491459978"><ele>266.5</ele><time>2026-03-29T10:11:38.998Z</time></trkpt><trkpt lat="43.460484699333385" lon="11.893954326696827"><ele>266.0</ele><time>2026-03-29T10:11:39.998Z</time></trkpt><trkpt lat="43.460510428382285" lon="11.893759459879773"><ele>265.5</ele><time>2026-03-29T10:11:40.998Z</time></trkpt><trkpt lat="43.460545286423276" lon="11.89356411655382"><ele>265.0</ele><time>2026-03-29T10:11:41.998Z</time></trkpt><trkpt lat="43.46057527877001" lon="11.893382843709574"><ele>265.0</ele><time>2026-03-29T10:11:42.998Z</time></trkpt><trkpt lat="43.46060705993996" lon="11.893196373811005"><ele>265.0</ele><time>2026-03-29T10:11:43.998Z</time></trkpt><trkpt lat="43.46063915771038" lon="11.893005657805904"><ele>265.0</ele><time>2026-03-29T10:11:44.998Z</time></trkpt><trkpt lat="43.460671844829676" lon="11.892819061769714"><ele>265.0</ele><time>2026-03-29T10:11:45.998Z</time></trkpt><trkpt lat="43.46070469394724" lon="11.892622836518344"><ele>265.25</ele><time>2026-03-29T10:11:46.998Z</time></trkpt><trkpt lat="43.46073909271166" lon="11.892429332561585"><ele>265.5</ele><time>2026-03-29T10:11:47.998Z</time></trkpt><trkpt lat="43.46077145344277" lon="11.892233548310415"><ele>265.75</ele><time>2026-03-29T10:11:49Z</time></trkpt><trkpt lat="43.460800436973905" lon="11.892033926037389"><ele>266.0</ele><time>2026-03-29T10:11:50Z</time></trkpt><trkpt lat="43.46083412782155" lon="11.891843317475473"><ele>266.0</ele><time>2026-03-29T10:11:51Z</time></trkpt><trkpt lat="43.460870049968825" lon="11.891641509890501"><ele>266.0</ele><time>2026-03-29T10:11:52Z</time></trkpt><trkpt lat="43.460904668283796" lon="11.891439202786254"><ele>266.0</ele><time>2026-03-29T10:11:53Z</time></trkpt><trkpt lat="43.46093957522827" lon="11.891231820215978"><ele>266.0</ele><time>2026-03-29T10:11:54Z</time></trkpt><trkpt lat="43.46097364077966" lon="11.891026170061554"><ele>266.0</ele><time>2026-03-29T10:11:55Z</time></trkpt><trkpt lat="43.46101096438461" lon="11.890821697801423"><ele>266.0</ele><time>2026-03-29T10:11:56Z</time></trkpt><trkpt lat="43.46104601756026" lon="11.890622614839561"><ele>265.75</ele><time>2026-03-29T10:11:57Z</time></trkpt><trkpt lat="43.46107929985652" lon="11.890427581589742"><ele>265.5</ele><time>2026-03-29T10:11:58Z</time></trkpt><trkpt lat="43.461111207846535" lon="11.890244456225766"><ele>265.25</ele><time>2026-03-29T10:11:59Z</time></trkpt><trkpt lat="43.46113920626428" lon="11.890073028531754"><ele>265.0</ele><time>2026-03-29T10:12:00Z</time></trkpt><trkpt lat="43.46116485189017" lon="11.889923128356276"><ele>264.8</ele><time>2026-03-29T10:12:01Z</time></trkpt><trkpt lat="43.46118639296747" lon="11.889784653071667"><ele>264.6</ele><time>2026-03-29T10:12:02Z</time></trkpt><trkpt lat="43.46121260412847" lon="11.889651041365683"><ele>264.4</ele><time>2026-03-29T10:12:03Z</time></trkpt><trkpt lat="43.461241421380684" lon="11.889504101270282"><ele>264.2</ele><time>2026-03-29T10:12:04Z</time></trkpt><trkpt lat="43.461267414646535" lon="11.889348304782395"><ele>264.0</ele><time>2026-03-29T10:12:05Z</time></trkpt><trkpt lat="43.46129146666861" lon="11.889207557816885"><ele>264.5</ele><time>2026-03-29T10:12:06Z</time></trkpt><trkpt lat="43.461311883905175" lon="11.889092317046568"><ele>265.0</ele><time>2026-03-29T10:12:07Z</time></trkpt><trkpt lat="43.46132578060151" lon="11.88899258555667"><ele>265.5</ele><time>2026-03-29T10:12:08Z</time></trkpt><trkpt lat="43.46139284287641" lon="11.88887436801989"><ele>266.0</ele><time>2026-03-29T10:12:10Z</time></trkpt><trkpt lat="43.461457081481086" lon="11.88889203096149"><ele>266.5</ele><time>2026-03-29T10:12:11Z</time></trkpt><trkpt lat="43.461529637549084" lon="11.888936823162465"><ele>267.0</ele><time>2026-03-29T10:12:12Z</time></trkpt><trkpt lat="43.46161940563259" lon="11.888957958362042"><ele>267.0</ele><time>2026-03-29T10:12:13Z</time></trkpt><trkpt lat="43.46171587158339" lon="11.888947446421898"><ele>267.0</ele><time>2026-03-29T10:12:14Z</time></trkpt><trkpt lat="43.46183470012651" lon="11.888933979347344"><ele>267.0</ele><time>2026-03-29T10:12:15Z</time></trkpt><trkpt lat="43.46194770167302" lon="11.888930967573419"><ele>267.0</ele><time>2026-03-29T10:12:16Z</time></trkpt><trkpt lat="43.46206974122501" lon="11.888935370447888"><ele>268.2</ele><time>2026-03-29T10:12:17Z</time></trkpt><trkpt lat="43.462193908022186" lon="11.888942944945555"><ele>269.4</ele><time>2026-03-29T10:12:18Z</time></trkpt><trkpt lat="43.46230398163589" lon="11.88893618231004"><ele>270.6</ele><time>2026-03-29T10:12:19Z</time></trkpt><trkpt lat="43.462382198897245" lon="11.888937396509478"><ele>271.8</ele><time>2026-03-29T10:12:20Z</time></trkpt><trkpt lat="43.462491474567614" lon="11.888975214874534"><ele>273.0</ele><time>2026-03-29T10:12:22Z</time></trkpt><trkpt lat="43.46253919995549" lon="11.889061936415105"><ele>273.0</ele><time>2026-03-29T10:12:23Z</time></trkpt><trkpt lat="43.462590814836055" lon="11.889163746536294"><ele>273.0</ele><time>2026-03-29T10:12:24Z</time></trkpt><trkpt lat="43.46264929887787" lon="11.889264559522465"><ele>273.0</ele><time>2026-03-29T10:12:25Z</time></trkpt><trkpt lat="43.46272841733388" lon="11.889351392750086"><ele>273.0</ele><time>2026-03-29T10:12:26Z</time></trkpt><trkpt lat="43.46282212420657" lon="11.88942687565058"><ele>273.0</ele><time>2026-03-29T10:12:27Z</time></trkpt><trkpt lat="43.46292123460517" lon="11.889495008393999"><ele>274.0</ele><time>2026-03-29T10:12:27.999Z</time></trkpt><trkpt lat="43.46302920151565" lon="11.88953701246583"><ele>275.0</ele><time>2026-03-29T10:12:28.999Z</time></trkpt><trkpt lat="43.463145007719355" lon="11.889540867295123"><ele>276.0</ele><time>2026-03-29T10:12:29.999Z</time></trkpt><trkpt lat="43.46325826977355" lon="11.889514228774525"><ele>277.0</ele><time>2026-03-29T10:12:30.999Z</time></trkpt><trkpt lat="43.463367683257694" lon="11.889470032417083"><ele>277.0</ele><time>2026-03-29T10:12:31.999Z</time></trkpt><trkpt lat="43.46347858704079" lon="11.889429389760837"><ele>277.0</ele><time>2026-03-29T10:12:32.999Z</time></trkpt><trkpt lat="43.46359281093834" lon="11.88942396046168"><ele>277.0</ele><time>2026-03-29T10:12:33.999Z</time></trkpt><trkpt lat="43.46370207004558" lon="11.889457687159325"><ele>277.0</ele><time>2026-03-29T10:12:34.999Z</time></trkpt><trkpt lat="43.46380776969756" lon="11.889524957906843"><ele>279.25</ele><time>2026-03-29T10:12:35.999Z</time></trkpt><trkpt lat="43.4639131927192" lon="11.889598714831052"><ele>281.5</ele><time>2026-03-29T10:12:36.999Z</time></trkpt><trkpt lat="43.464021458838204" lon="11.889665458062312"><ele>283.75</ele><time>2026-03-29T10:12:37.999Z</time></trkpt><trkpt lat="43.464134491612995" lon="11.889725201396212"><ele>286.0</ele><time>2026-03-29T10:12:38.999Z</time></trkpt><trkpt lat="43.46424677757272" lon="11.889780693648566"><ele>286.0</ele><time>2026-03-29T10:12:39.999Z</time></trkpt><trkpt lat="43.46434702007903" lon="11.889835443789222"><ele>286.0</ele><time>2026-03-29T10:12:40.999Z</time></trkpt><trkpt lat="43.464449543737565" lon="11.889889305621931"><ele>286.0</ele><time>2026-03-29T10:12:41.999Z</time></trkpt><trkpt lat="43.46455404882039" lon="11.889948011492514"><ele>286.0</ele><time>2026-03-29T10:12:42.999Z</time></trkpt><trkpt lat="43.46465961756292" lon="11.89000564806286"><ele>286.0</ele><time>2026-03-29T10:12:43.999Z</time></trkpt><trkpt lat="43.46476075757439" lon="11.89007216440823"><ele>286.0</ele><time>2026-03-29T10:12:44.999Z</time></trkpt><trkpt lat="43.46484466674266" lon="11.89016194405067"><ele>286.0</ele><time>2026-03-29T10:12:45.999Z</time></trkpt><trkpt lat="43.464936406889954" lon="11.890258167849654"><ele>286.0</ele><time>2026-03-29T10:12:46.999Z</time></trkpt><trkpt lat="43.46503651571626" lon="11.89035869201701"><ele>286.0</ele><time>2026-03-29T10:12:47.999Z</time></trkpt><trkpt lat="43.465137281915666" lon="11.890461803231736"><ele>286.0</ele><time>2026-03-29T10:12:48.999Z</time></trkpt><trkpt lat="43.46524072657645" lon="11.890562929789782"><ele>286.0</ele><time>2026-03-29T10:12:49.999Z</time></trkpt><trkpt lat="43.46534823892715" lon="11.890642782101677"><ele>286.0</ele><time>2026-03-29T10:12:50.999Z</time></trkpt><trkpt lat="43.46545977263277" lon="11.890687400085783"><ele>286.0</ele><time>2026-03-29T10:12:51.999Z</time></trkpt><trkpt lat="43.465566897704214" lon="11.89070850738774"><ele>285.40000000000003</ele><time>2026-03-29T10:12:52.999Z</time></trkpt><trkpt lat="43.46567775381482" lon="11.89070256396973"><ele>284.8</ele><time>2026-03-29T10:12:53.999Z</time></trkpt><trkpt lat="43.46576665119619" lon="11.89070966964898"><ele>284.20000000000005</ele><time>2026-03-29T10:12:54.999Z</time></trkpt><trkpt lat="43.46584208490498" lon="11.890721973348365"><ele>283.6</ele><time>2026-03-29T10:12:55.999Z</time></trkpt><trkpt lat="43.46594331231868" lon="11.890751307293092"><ele>283.0</ele><time>2026-03-29T10:12:57.999Z</time></trkpt><trkpt lat="43.46606251595338" lon="11.890822723202106"><ele>283.0</ele><time>2026-03-29T10:12:59.999Z</time></trkpt><trkpt lat="43.46615123869218" lon="11.890880737114935"><ele>283.0</ele><time>2026-03-29T10:13:00.999Z</time></trkpt><trkpt lat="43.46623382601376" lon="11.89097932882782"><ele>283.0</ele><time>2026-03-29T10:13:01.999Z</time></trkpt><trkpt lat="43.466323655104794" lon="11.891096013622196"><ele>283.0</ele><time>2026-03-29T10:13:02.999Z</time></trkpt><trkpt lat="43.46640260771053" lon="11.891204298849985"><ele>283.0</ele><time>2026-03-29T10:13:03.999Z</time></trkpt><trkpt lat="43.46647874390344" lon="11.891301907172785"><ele>281.25</ele><time>2026-03-29T10:13:04.999Z</time></trkpt><trkpt lat="43.46655421554866" lon="11.891414114690528"><ele>279.5</ele><time>2026-03-29T10:13:05.999Z</time></trkpt><trkpt lat="43.46663624457238" lon="11.891530650648008"><ele>277.75</ele><time>2026-03-29T10:13:06.999Z</time></trkpt><trkpt lat="43.46672167247116" lon="11.891650655195537"><ele>276.0</ele><time>2026-03-29T10:13:07.999Z</time></trkpt><trkpt lat="43.466799126152864" lon="11.89176148599276"><ele>275.25</ele><time>2026-03-29T10:13:08.999Z</time></trkpt><trkpt lat="43.46687721197562" lon="11.891874961019644"><ele>274.5</ele><time>2026-03-29T10:13:09.999Z</time></trkpt><trkpt lat="43.46695845073669" lon="11.891987578184718"><ele>273.75</ele><time>2026-03-29T10:13:10.999Z</time></trkpt><trkpt lat="43.4670421260677" lon="11.892097702758752"><ele>273.0</ele><time>2026-03-29T10:13:11.999Z</time></trkpt><trkpt lat="43.46713217229706" lon="11.892200173036851"><ele>273.0</ele><time>2026-03-29T10:13:12.999Z</time></trkpt><trkpt lat="43.46722968416977" lon="11.89229532494455"><ele>273.0</ele><time>2026-03-29T10:13:13.999Z</time></trkpt><trkpt lat="43.46734066342342" lon="11.892362137807337"><ele>273.0</ele><time>2026-03-29T10:13:14.999Z</time></trkpt><trkpt lat="43.46746622877981" lon="11.892376215953243"><ele>273.0</ele><time>2026-03-29T10:13:15.999Z</time></trkpt><trkpt lat="43.46759305691267" lon="11.892369186010747"><ele>273.0</ele><time>2026-03-29T10:13:16.999Z</time></trkpt><trkpt lat="43.46771785085023" lon="11.892372709048882"><ele>273.0</ele><time>2026-03-29T10:13:17.999Z</time></trkpt><trkpt lat="43.46783600119429" lon="11.892381728712119"><ele>273.0</ele><time>2026-03-29T10:13:18.999Z</time></trkpt><trkpt lat="43.467958754459076" lon="11.892392257214652"><ele>273.0</ele><time>2026-03-29T10:13:19.999Z</time></trkpt><trkpt lat="43.46808041306439" lon="11.892389238418831"><ele>272.2</ele><time>2026-03-29T10:13:20.999Z</time></trkpt><trkpt lat="43.46818863935283" lon="11.892344883189176"><ele>271.4</ele><time>2026-03-29T10:13:21.999Z</time></trkpt><trkpt lat="43.468272856178274" lon="11.892274425049187"><ele>270.59999999999997</ele><time>2026-03-29T10:13:22.999Z</time></trkpt><trkpt lat="43.4683450255582" lon="11.892171219820211"><ele>269.8</ele><time>2026-03-29T10:13:23.999Z</time></trkpt><trkpt lat="43.46841240733171" lon="11.892036364771077"><ele>269.0</ele><time>2026-03-29T10:13:24.999Z</time></trkpt><trkpt lat="43.46846588873216" lon="11.89187887587103"><ele>270.0</ele><time>2026-03-29T10:13:25.999Z</time></trkpt><trkpt lat="43.46851159655563" lon="11.891725841793658"><ele>271.0</ele><time>2026-03-29T10:13:26.998Z</time></trkpt><trkpt lat="43.46855682946668" lon="11.891577213539277"><ele>272.0</ele><time>2026-03-29T10:13:27.998Z</time></trkpt><trkpt lat="43.46860762021198" lon="11.891414340164907"><ele>273.0</ele><time>2026-03-29T10:13:28.998Z</time></trkpt><trkpt lat="43.46866054437157" lon="11.891239473814958"><ele>273.0</ele><time>2026-03-29T10:13:29.998Z</time></trkpt><trkpt lat="43.46871752978193" lon="11.8910514678568"><ele>273.0</ele><time>2026-03-29T10:13:30.998Z</time></trkpt><trkpt lat="43.46877613580517" lon="11.89085613167509"><ele>273.0</ele><time>2026-03-29T10:13:31.998Z</time></trkpt><trkpt lat="43.46882902832174" lon="11.89067654266996"><ele>273.0</ele><time>2026-03-29T10:13:32.998Z</time></trkpt><trkpt lat="43.468878033788314" lon="11.890509801961873"><ele>270.5</ele><time>2026-03-29T10:13:33.998Z</time></trkpt><trkpt lat="43.46893151980808" lon="11.890334999710669"><ele>268.0</ele><time>2026-03-29T10:13:34.998Z</time></trkpt><trkpt lat="43.468988202811005" lon="11.890155582992792"><ele>265.5</ele><time>2026-03-29T10:13:35.998Z</time></trkpt><trkpt lat="43.46904237890752" lon="11.88996760513476"><ele>263.0</ele><time>2026-03-29T10:13:36.998Z</time></trkpt><trkpt lat="43.46908863620951" lon="11.889797999068461"><ele>263.0</ele><time>2026-03-29T10:13:37.998Z</time></trkpt><trkpt lat="43.4691329546614" lon="11.889638256070539"><ele>263.0</ele><time>2026-03-29T10:13:38.998Z</time></trkpt><trkpt lat="43.46917807002181" lon="11.88947592332747"><ele>263.0</ele><time>2026-03-29T10:13:39.998Z</time></trkpt><trkpt lat="43.469226861443126" lon="11.889308037686543"><ele>263.0</ele><time>2026-03-29T10:13:40.998Z</time></trkpt><trkpt lat="43.46927661342716" lon="11.889139116101994"><ele>263.0</ele><time>2026-03-29T10:13:41.998Z</time></trkpt><trkpt lat="43.46932756619823" lon="11.88897834459861"><ele>263.0</ele><time>2026-03-29T10:13:42.998Z</time></trkpt><trkpt lat="43.469380469828785" lon="11.888818522761033"><ele>263.0</ele><time>2026-03-29T10:13:43.998Z</time></trkpt><trkpt lat="43.4694314091426" lon="11.888656729760203"><ele>263.0</ele><time>2026-03-29T10:13:44.998Z</time></trkpt><trkpt lat="43.469479535421414" lon="11.888506719703917"><ele>263.0</ele><time>2026-03-29T10:13:45.998Z</time></trkpt><trkpt lat="43.46952162364556" lon="11.888372408072275"><ele>263.0</ele><time>2026-03-29T10:13:46.998Z</time></trkpt><trkpt lat="43.46956033989349" lon="11.888254032635455"><ele>263.0</ele><time>2026-03-29T10:13:47.998Z</time></trkpt><trkpt lat="43.46959518118251" lon="11.888139037204821"><ele>263.0</ele><time>2026-03-29T10:13:48.998Z</time></trkpt><trkpt lat="43.46962619609714" lon="11.888037379866976"><ele>263.0</ele><time>2026-03-29T10:13:49.998Z</time></trkpt><trkpt lat="43.46965698602001" lon="11.887936441862436"><ele>263.0</ele><time>2026-03-29T10:13:50.998Z</time></trkpt><trkpt lat="43.46968669953701" lon="11.88782833493354"><ele>263.0</ele><time>2026-03-29T10:13:51.998Z</time></trkpt><trkpt lat="43.469723337008205" lon="11.887710275795971"><ele>263.0</ele><time>2026-03-29T10:13:52.998Z</time></trkpt><trkpt lat="43.46976047739216" lon="11.887578099468708"><ele>263.0</ele><time>2026-03-29T10:13:53.998Z</time></trkpt><trkpt lat="43.46980198548481" lon="11.88744319207757"><ele>263.0</ele><time>2026-03-29T10:13:55Z</time></trkpt><trkpt lat="43.46984418482712" lon="11.887309829991873"><ele>262.5</ele><time>2026-03-29T10:13:56Z</time></trkpt><trkpt lat="43.46988067345638" lon="11.887198357826621"><ele>262.0</ele><time>2026-03-29T10:13:57Z</time></trkpt><trkpt lat="43.469908427526974" lon="11.887111453871944"><ele>261.5</ele><time>2026-03-29T10:13:58Z</time></trkpt><trkpt lat="43.469953551120966" lon="11.886989266274075"><ele>261.0</ele><time>2026-03-29T10:14:00Z</time></trkpt><trkpt lat="43.469996685712964" lon="11.886859007687812"><ele>260.5</ele><time>2026-03-29T10:14:02Z</time></trkpt><trkpt lat="43.470017432802315" lon="11.886776661426278"><ele>260.0</ele><time>2026-03-29T10:14:03Z</time></trkpt><trkpt lat="43.470043577067344" lon="11.886687695715384"><ele>259.6666666666667</ele><time>2026-03-29T10:14:04Z</time></trkpt><trkpt lat="43.470073088075296" lon="11.886595670436796"><ele>259.33333333333337</ele><time>2026-03-29T10:14:05Z</time></trkpt><trkpt lat="43.47009894866576" lon="11.886490151742853"><ele>259.0</ele><time>2026-03-29T10:14:06Z</time></trkpt><trkpt lat="43.470125569194025" lon="11.886405029766491"><ele>258.6666666666667</ele><time>2026-03-29T10:14:07Z</time></trkpt><trkpt lat="43.47014734709494" lon="11.886288168093907"><ele>258.3333333333333</ele><time>2026-03-29T10:14:09Z</time></trkpt><trkpt lat="43.4701691539382" lon="11.886181096886318"><ele>258.0</ele><time>2026-03-29T10:14:11Z</time></trkpt><trkpt lat="43.470199944630004" lon="11.886060015308232"><ele>258.2</ele><time>2026-03-29T10:14:13Z</time></trkpt><trkpt lat="43.47024059267882" lon="11.885899070387406"><ele>258.4</ele><time>2026-03-29T10:14:15Z</time></trkpt><trkpt lat="43.47026875027471" lon="11.885802234754253"><ele>258.59999999999997</ele><time>2026-03-29T10:14:16Z</time></trkpt><trkpt lat="43.470302049783434" lon="11.885706665839159"><ele>258.8</ele><time>2026-03-29T10:14:17Z</time></trkpt><trkpt lat="43.4703335719937" lon="11.885597010632996"><ele>259.0</ele><time>2026-03-29T10:14:18Z</time></trkpt><trkpt lat="43.47036382741442" lon="11.885483650940616"><ele>259.0</ele><time>2026-03-29T10:14:19Z</time></trkpt><trkpt lat="43.470405000435626" lon="11.885366950838577"><ele>259.0</ele><time>2026-03-29T10:14:20Z</time></trkpt><trkpt lat="43.470443341336015" lon="11.88525776881563"><ele>259.0</ele><time>2026-03-29T10:14:21Z</time></trkpt><trkpt lat="43.47047619269724" lon="11.885144796346617"><ele>259.0</ele><time>2026-03-29T10:14:22Z</time></trkpt><trkpt lat="43.470512413158694" lon="11.885030409927426"><ele>259.0</ele><time>2026-03-29T10:14:23Z</time></trkpt><trkpt lat="43.470554542541656" lon="11.884917082973349"><ele>259.0</ele><time>2026-03-29T10:14:24Z</time></trkpt><trkpt lat="43.47059619241903" lon="11.884790848642798"><ele>259.0</ele><time>2026-03-29T10:14:25Z</time></trkpt><trkpt lat="43.47063392946059" lon="11.884653622468583"><ele>259.0</ele><time>2026-03-29T10:14:26Z</time></trkpt><trkpt lat="43.47067328791108" lon="11.884515579505187"><ele>259.0</ele><time>2026-03-29T10:14:27Z</time></trkpt><trkpt lat="43.47071623613021" lon="11.884373483992187"><ele>259.0</ele><time>2026-03-29T10:14:28Z</time></trkpt><trkpt lat="43.47075475405156" lon="11.884236204610948"><ele>259.0</ele><time>2026-03-29T10:14:29Z</time></trkpt><trkpt lat="43.47079438764463" lon="11.884103648046342"><ele>259.0</ele><time>2026-03-29T10:14:30Z</time></trkpt><trkpt lat="43.47083153352562" lon="11.883972553645002"><ele>259.0</ele><time>2026-03-29T10:14:31Z</time></trkpt><trkpt lat="43.47087019577758" lon="11.883852291962157"><ele>259.0</ele><time>2026-03-29T10:14:32Z</time></trkpt><trkpt lat="43.47090414985133" lon="11.883742346450596"><ele>259.0</ele><time>2026-03-29T10:14:33Z</time></trkpt><trkpt lat="43.47094037103792" lon="11.883641098826002"><ele>259.0</ele><time>2026-03-29T10:14:34Z</time></trkpt><trkpt lat="43.47098793815464" lon="11.88353647529575"><ele>259.0</ele><time>2026-03-29T10:14:35Z</time></trkpt><trkpt lat="43.47103330442617" lon="11.88346015594195"><ele>259.0</ele><time>2026-03-29T10:14:36Z</time></trkpt><trkpt lat="43.47109650684383" lon="11.883374176687559"><ele>259.0</ele><time>2026-03-29T10:14:38Z</time></trkpt><trkpt lat="43.471154375804595" lon="11.883333645276034"><ele>259.0</ele><time>2026-03-29T10:14:41.999Z</time></trkpt><trkpt lat="43.471213442544325" lon="11.883296445519287"><ele>259.0</ele><time>2026-03-29T10:14:43.999Z</time></trkpt><trkpt lat="43.47127808117653" lon="11.883274635775416"><ele>259.0</ele><time>2026-03-29T10:14:44.999Z</time></trkpt><trkpt lat="43.47136007249797" lon="11.883294260583549"><ele>258.2857142857143</ele><time>2026-03-29T10:14:45.999Z</time></trkpt><trkpt lat="43.47144009209531" lon="11.883311389949744"><ele>257.57142857142856</ele><time>2026-03-29T10:14:46.999Z</time></trkpt><trkpt lat="43.47150613393477" lon="11.88329029102905"><ele>256.8571428571429</ele><time>2026-03-29T10:14:47.999Z</time></trkpt><trkpt lat="43.471560411806166" lon="11.883231874307446"><ele>256.1428571428571</ele><time>2026-03-29T10:14:48.999Z</time></trkpt><trkpt lat="43.47159227116104" lon="11.88314369793446"><ele>255.42857142857142</ele><time>2026-03-29T10:14:49.999Z</time></trkpt><trkpt lat="43.471598754344384" lon="11.883036027248046"><ele>254.71428571428572</ele><time>2026-03-29T10:14:50.999Z</time></trkpt><trkpt lat="43.47157124965968" lon="11.882933818975602"><ele>254.0</ele><time>2026-03-29T10:14:51.999Z</time></trkpt><trkpt lat="43.471524675400765" lon="11.882843299537162"><ele>254.00000000000003</ele><time>2026-03-29T10:14:52.999Z</time></trkpt><trkpt lat="43.471498640096684" lon="11.882739981808232"><ele>254.0</ele><time>2026-03-29T10:14:53.999Z</time></trkpt><trkpt lat="43.471505236472765" lon="11.882625544424691"><ele>254.0</ele><time>2026-03-29T10:14:54.999Z</time></trkpt><trkpt lat="43.471533288496076" lon="11.882519612920913"><ele>254.0</ele><time>2026-03-29T10:14:55.999Z</time></trkpt><trkpt lat="43.471565029254045" lon="11.882412015056088"><ele>254.00000000000003</ele><time>2026-03-29T10:14:56.999Z</time></trkpt><trkpt lat="43.471594565564715" lon="11.882296633969124"><ele>254.0</ele><time>2026-03-29T10:14:57.999Z</time></trkpt><trkpt lat="43.471629075238944" lon="11.882173338502959"><ele>254.2</ele><time>2026-03-29T10:14:58.999Z</time></trkpt><trkpt lat="43.47166678686147" lon="11.882048026083652"><ele>254.39999999999998</ele><time>2026-03-29T10:14:59.999Z</time></trkpt><trkpt lat="43.47169817390343" lon="11.881926403103177"><ele>254.6</ele><time>2026-03-29T10:15:00.999Z</time></trkpt><trkpt lat="43.471725104835585" lon="11.881812324491706"><ele>254.8</ele><time>2026-03-29T10:15:01.999Z</time></trkpt><trkpt lat="43.471751730886844" lon="11.881697147577825"><ele>255.0</ele><time>2026-03-29T10:15:02.999Z</time></trkpt><trkpt lat="43.471778935097234" lon="11.881576250977657"><ele>255.6</ele><time>2026-03-29T10:15:03.999Z</time></trkpt><trkpt lat="43.47180465142986" lon="11.881451761456322"><ele>256.2</ele><time>2026-03-29T10:15:04.999Z</time></trkpt><trkpt lat="43.47182702044153" lon="11.881324817110277"><ele>256.8</ele><time>2026-03-29T10:15:05.999Z</time></trkpt><trkpt lat="43.471845659662065" lon="11.88119428475848"><ele>257.4</ele><time>2026-03-29T10:15:06.999Z</time></trkpt><trkpt lat="43.47186404781505" lon="11.881061990975518"><ele>258.0</ele><time>2026-03-29T10:15:07.999Z</time></trkpt><trkpt lat="43.471886359501696" lon="11.880930092638733"><ele>258.1666666666667</ele><time>2026-03-29T10:15:08.999Z</time></trkpt><trkpt lat="43.471915439963965" lon="11.88080304155927"><ele>258.3333333333333</ele><time>2026-03-29T10:15:09.999Z</time></trkpt><trkpt lat="43.47193876207799" lon="11.8806848197275"><ele>258.5</ele><time>2026-03-29T10:15:10.999Z</time></trkpt><trkpt lat="43.47195456854121" lon="11.880571334469918"><ele>258.66666666666663</ele><time>2026-03-29T10:15:11.999Z</time></trkpt><trkpt lat="43.47197396544437" lon="11.88046238285694"><ele>258.8333333333333</ele><time>2026-03-29T10:15:12.999Z</time></trkpt><trkpt lat="43.47199035387013" lon="11.880343755789218"><ele>259.0</ele><time>2026-03-29T10:15:13.999Z</time></trkpt><trkpt lat="43.472004024334396" lon="11.88021970016406"><ele>259.0</ele><time>2026-03-29T10:15:14.999Z</time></trkpt><trkpt lat="43.47202032391042" lon="11.880095270381304"><ele>259.0</ele><time>2026-03-29T10:15:15.999Z</time></trkpt><trkpt lat="43.47203591739005" lon="11.879969280886852"><ele>259.0</ele><time>2026-03-29T10:15:16.999Z</time></trkpt><trkpt lat="43.47205339689667" lon="11.87985431771742"><ele>259.0</ele><time>2026-03-29T10:15:17.999Z</time></trkpt><trkpt lat="43.47207643951546" lon="11.87975201817715"><ele>259.0</ele><time>2026-03-29T10:15:18.999Z</time></trkpt><trkpt lat="43.47211310251847" lon="11.879649668773023"><ele>259.0</ele><time>2026-03-29T10:15:19.999Z</time></trkpt><trkpt lat="43.47216145847895" lon="11.879569923057185"><ele>258.16666666666663</ele><time>2026-03-29T10:15:20.999Z</time></trkpt><trkpt lat="43.472234910628686" lon="11.87950205544119"><ele>257.3333333333333</ele><time>2026-03-29T10:15:21.999Z</time></trkpt><trkpt lat="43.47228478576023" lon="11.879413213343106"><ele>256.5</ele><time>2026-03-29T10:15:22.999Z</time></trkpt><trkpt lat="43.472293651723206" lon="11.879316441768566"><ele>255.66666666666669</ele><time>2026-03-29T10:15:23.999Z</time></trkpt><trkpt lat="43.472276014710786" lon="11.879202705768307"><ele>254.83333333333334</ele><time>2026-03-29T10:15:24.999Z</time></trkpt><trkpt lat="43.472263346223876" lon="11.879071922747924"><ele>254.0</ele><time>2026-03-29T10:15:25.999Z</time></trkpt><trkpt lat="43.47228666088669" lon="11.878932410166893"><ele>254.0</ele><time>2026-03-29T10:15:26.999Z</time></trkpt><trkpt lat="43.472341867135555" lon="11.878801580660593"><ele>253.99999999999997</ele><time>2026-03-29T10:15:27.999Z</time></trkpt><trkpt lat="43.47238423409536" lon="11.87865922053708"><ele>253.99999999999997</ele><time>2026-03-29T10:15:28.999Z</time></trkpt><trkpt lat="43.47241288992474" lon="11.878508161639726"><ele>254.0</ele><time>2026-03-29T10:15:29.999Z</time></trkpt><trkpt lat="43.472459945394604" lon="11.878372118773772"><ele>254.0</ele><time>2026-03-29T10:15:30.999Z</time></trkpt><trkpt lat="43.47251690985728" lon="11.878240743971286"><ele>254.39999999999998</ele><time>2026-03-29T10:15:31.999Z</time></trkpt><trkpt lat="43.472577969119186" lon="11.878116875238417"><ele>254.79999999999998</ele><time>2026-03-29T10:15:32.999Z</time></trkpt><trkpt lat="43.47264444233626" lon="11.878003123417583"><ele>255.20000000000002</ele><time>2026-03-29T10:15:33.999Z</time></trkpt><trkpt lat="43.472709292982806" lon="11.877885565036888"><ele>255.60000000000002</ele><time>2026-03-29T10:15:34.999Z</time></trkpt><trkpt lat="43.47277936003946" lon="11.877761200812948"><ele>256.0</ele><time>2026-03-29T10:15:35.999Z</time></trkpt><trkpt lat="43.4728536542888" lon="11.877638867114033"><ele>256.0</ele><time>2026-03-29T10:15:36.999Z</time></trkpt><trkpt lat="43.47292618605887" lon="11.87751477635995"><ele>256.0</ele><time>2026-03-29T10:15:37.999Z</time></trkpt><trkpt lat="43.47299766274339" lon="11.877385893234433"><ele>256.0</ele><time>2026-03-29T10:15:38.999Z</time></trkpt><trkpt lat="43.47306200578666" lon="11.87727762715237"><ele>256.0</ele><time>2026-03-29T10:15:39.999Z</time></trkpt><trkpt lat="43.47311865548383" lon="11.877171440254472"><ele>256.0</ele><time>2026-03-29T10:15:40.998Z</time></trkpt><trkpt lat="43.473173006980815" lon="11.877066926802742"><ele>256.0</ele><time>2026-03-29T10:15:41.998Z</time></trkpt><trkpt lat="43.473232351473364" lon="11.876953889159227"><ele>256.0</ele><time>2026-03-29T10:15:42.998Z</time></trkpt><trkpt lat="43.47329119356326" lon="11.876832918175214"><ele>256.0</ele><time>2026-03-29T10:15:43.998Z</time></trkpt><trkpt lat="43.473354656675184" lon="11.8767050069317"><ele>256.0</ele><time>2026-03-29T10:15:44.998Z</time></trkpt><trkpt lat="43.473419999891725" lon="11.87658142279224"><ele>256.0</ele><time>2026-03-29T10:15:45.998Z</time></trkpt><trkpt lat="43.47348122193832" lon="11.87646194474072"><ele>255.66666666666666</ele><time>2026-03-29T10:15:46.998Z</time></trkpt><trkpt lat="43.473537863709694" lon="11.87635251177462"><ele>255.33333333333331</ele><time>2026-03-29T10:15:47.998Z</time></trkpt><trkpt lat="43.47359210835071" lon="11.876257542030999"><ele>255.0</ele><time>2026-03-29T10:15:48.998Z</time></trkpt><trkpt lat="43.47363841476842" lon="11.876161942530908"><ele>254.66666666666669</ele><time>2026-03-29T10:15:49.998Z</time></trkpt><trkpt lat="43.473684992427906" lon="11.876060063919827"><ele>254.33333333333334</ele><time>2026-03-29T10:15:50.998Z</time></trkpt><trkpt lat="43.47373380234861" lon="11.875974627932296"><ele>254.0</ele><time>2026-03-29T10:15:51.998Z</time></trkpt><trkpt lat="43.47377510753237" lon="11.875893606718135"><ele>253.6</ele><time>2026-03-29T10:15:52.998Z</time></trkpt><trkpt lat="43.47382366093262" lon="11.875797636354019"><ele>253.2</ele><time>2026-03-29T10:15:53.998Z</time></trkpt><trkpt lat="43.47387944637748" lon="11.87568756410556"><ele>252.79999999999998</ele><time>2026-03-29T10:15:54.998Z</time></trkpt><trkpt lat="43.47393530893936" lon="11.875576151412016"><ele>252.39999999999998</ele><time>2026-03-29T10:15:55.998Z</time></trkpt><trkpt lat="43.47399538090267" lon="11.875456881456012"><ele>252.0</ele><time>2026-03-29T10:15:56.998Z</time></trkpt><trkpt lat="43.474058059483106" lon="11.875333352940972"><ele>252.0</ele><time>2026-03-29T10:15:57.998Z</time></trkpt><trkpt lat="43.47412092930127" lon="11.875210096752424"><ele>252.0</ele><time>2026-03-29T10:15:58.998Z</time></trkpt><trkpt lat="43.4741854649052" lon="11.875084319338404"><ele>252.0</ele><time>2026-03-29T10:15:59.998Z</time></trkpt><trkpt lat="43.47424618482446" lon="11.874971529406295"><ele>252.0</ele><time>2026-03-29T10:16:01Z</time></trkpt><trkpt lat="43.47430839083496" lon="11.874860240617869"><ele>252.0</ele><time>2026-03-29T10:16:02Z</time></trkpt><trkpt lat="43.47436527252954" lon="11.874743444286425"><ele>252.0</ele><time>2026-03-29T10:16:03Z</time></trkpt><trkpt lat="43.4744218571321" lon="11.874629626196683"><ele>252.0</ele><time>2026-03-29T10:16:04Z</time></trkpt><trkpt lat="43.474479262670165" lon="11.874515515115347"><ele>252.0</ele><time>2026-03-29T10:16:05Z</time></trkpt><trkpt lat="43.474534130390644" lon="11.874398724887842"><ele>252.0</ele><time>2026-03-29T10:16:06Z</time></trkpt><trkpt lat="43.47459710422041" lon="11.874278031457315"><ele>252.0</ele><time>2026-03-29T10:16:07Z</time></trkpt><trkpt lat="43.47466510288306" lon="11.874158374553016"><ele>251.6</ele><time>2026-03-29T10:16:08Z</time></trkpt><trkpt lat="43.474731781402035" lon="11.874033946992759"><ele>251.2</ele><time>2026-03-29T10:16:09Z</time></trkpt><trkpt lat="43.474792856911165" lon="11.873913944924995"><ele>250.8</ele><time>2026-03-29T10:16:10Z</time></trkpt><trkpt lat="43.47484960197294" lon="11.873808068199708"><ele>250.4</ele><time>2026-03-29T10:16:11Z</time></trkpt><trkpt lat="43.47490492423813" lon="11.873698426916775"><ele>250.0</ele><time>2026-03-29T10:16:12Z</time></trkpt><trkpt lat="43.474962602386476" lon="11.873583688818991"><ele>249.99999999999997</ele><time>2026-03-29T10:16:13Z</time></trkpt><trkpt lat="43.47501359059383" lon="11.873481697842047"><ele>250.0</ele><time>2026-03-29T10:16:14Z</time></trkpt><trkpt lat="43.47506235308554" lon="11.873370856796198"><ele>250.0</ele><time>2026-03-29T10:16:15Z</time></trkpt><trkpt lat="43.47511499229991" lon="11.873269870775784"><ele>250.0</ele><time>2026-03-29T10:16:16Z</time></trkpt><trkpt lat="43.47516952994975" lon="11.873175172626556"><ele>249.99999999999997</ele><time>2026-03-29T10:16:17Z</time></trkpt><trkpt lat="43.47522234715367" lon="11.873080374886381"><ele>250.0</ele><time>2026-03-29T10:16:18Z</time></trkpt><trkpt lat="43.475268565634" lon="11.872998104916064"><ele>250.0</ele><time>2026-03-29T10:16:19Z</time></trkpt><trkpt lat="43.47530769789163" lon="11.87292846419534"><ele>250.0</ele><time>2026-03-29T10:16:20Z</time></trkpt><trkpt lat="43.4753459765517" lon="11.872854005884863"><ele>250.0</ele><time>2026-03-29T10:16:21Z</time></trkpt><trkpt lat="43.475367660293166" lon="11.872771009907831"><ele>250.0</ele><time>2026-03-29T10:16:22Z</time></trkpt><trkpt lat="43.47538609729758" lon="11.872681507003364"><ele>250.0</ele><time>2026-03-29T10:16:23Z</time></trkpt><trkpt lat="43.47542006431558" lon="11.872600347296435"><ele>250.0</ele><time>2026-03-29T10:16:24Z</time></trkpt><trkpt lat="43.475468479470464" lon="11.872514037821315"><ele>250.0</ele><time>2026-03-29T10:16:25Z</time></trkpt><trkpt lat="43.475515965571475" lon="11.872407040741116"><ele>249.75</ele><time>2026-03-29T10:16:26Z</time></trkpt><trkpt lat="43.47557620357009" lon="11.872303248873955"><ele>249.5</ele><time>2026-03-29T10:16:27Z</time></trkpt><trkpt lat="43.47564397521603" lon="11.872181563735039"><ele>249.25</ele><time>2026-03-29T10:16:28Z</time></trkpt><trkpt lat="43.4757118812356" lon="11.872037183113758"><ele>249.0</ele><time>2026-03-29T10:16:29Z</time></trkpt><trkpt lat="43.47578158381715" lon="11.871880241953349"><ele>249.0</ele><time>2026-03-29T10:16:30Z</time></trkpt><trkpt lat="43.47585026625608" lon="11.871755611816534"><ele>248.99999999999997</ele><time>2026-03-29T10:16:31Z</time></trkpt><trkpt lat="43.47590206674085" lon="11.871651652409774"><ele>248.99999999999997</ele><time>2026-03-29T10:16:32Z</time></trkpt><trkpt lat="43.475963599618304" lon="11.871549374276785"><ele>249.0</ele><time>2026-03-29T10:16:33Z</time></trkpt><trkpt lat="43.476025448089686" lon="11.87143034456463"><ele>249.0</ele><time>2026-03-29T10:16:34Z</time></trkpt><trkpt lat="43.4760903750703" lon="11.871301539494564"><ele>249.0</ele><time>2026-03-29T10:16:35Z</time></trkpt><trkpt lat="43.4761570876383" lon="11.871165916473634"><ele>249.0</ele><time>2026-03-29T10:16:36Z</time></trkpt><trkpt lat="43.47622872132273" lon="11.871026065154144"><ele>249.0</ele><time>2026-03-29T10:16:37Z</time></trkpt><trkpt lat="43.476299183791525" lon="11.870889147942098"><ele>249.0</ele><time>2026-03-29T10:16:38Z</time></trkpt><trkpt lat="43.47638154061779" lon="11.87074094510509"><ele>249.0</ele><time>2026-03-29T10:16:39Z</time></trkpt><trkpt lat="43.476463933586714" lon="11.870577117133692"><ele>249.0</ele><time>2026-03-29T10:16:40Z</time></trkpt><trkpt lat="43.476546571046185" lon="11.870415139777654"><ele>249.0</ele><time>2026-03-29T10:16:41Z</time></trkpt><trkpt lat="43.47662502716018" lon="11.870268815728497"><ele>249.0</ele><time>2026-03-29T10:16:42Z</time></trkpt><trkpt lat="43.476696967260764" lon="11.870130846085225"><ele>249.0</ele><time>2026-03-29T10:16:43Z</time></trkpt><trkpt lat="43.47677111892358" lon="11.869990770852674"><ele>249.0</ele><time>2026-03-29T10:16:43.999Z</time></trkpt><trkpt lat="43.476841473717236" lon="11.869855085136725"><ele>249.0</ele><time>2026-03-29T10:16:44.999Z</time></trkpt><trkpt lat="43.476911341733675" lon="11.869721284585053"><ele>249.0</ele><time>2026-03-29T10:16:45.999Z</time></trkpt><trkpt lat="43.476979694882175" lon="11.86959285069054"><ele>249.0</ele><time>2026-03-29T10:16:46.999Z</time></trkpt><trkpt lat="43.4770405408954" lon="11.869472484094876"><ele>248.99999999999997</ele><time>2026-03-29T10:16:47.999Z</time></trkpt><trkpt lat="43.477095852041145" lon="11.869367201172414"><ele>248.99999999999997</ele><time>2026-03-29T10:16:48.999Z</time></trkpt><trkpt lat="43.47715020500818" lon="11.869268569287357"><ele>249.0</ele><time>2026-03-29T10:16:49.999Z</time></trkpt><trkpt lat="43.47720164246462" lon="11.869154651265474"><ele>249.0</ele><time>2026-03-29T10:16:50.999Z</time></trkpt><trkpt lat="43.47725371656454" lon="11.869036440453606"><ele>248.83333333333334</ele><time>2026-03-29T10:16:51.999Z</time></trkpt><trkpt lat="43.47730244768113" lon="11.868935802191597"><ele>248.66666666666669</ele><time>2026-03-29T10:16:52.999Z</time></trkpt><trkpt lat="43.47735007593019" lon="11.868842307176333"><ele>248.5</ele><time>2026-03-29T10:16:53.999Z</time></trkpt><trkpt lat="43.47739609302052" lon="11.86875642672224"><ele>248.33333333333334</ele><time>2026-03-29T10:16:54.999Z</time></trkpt><trkpt lat="43.477434163511134" lon="11.868683317136368"><ele>248.16666666666669</ele><time>2026-03-29T10:16:55.999Z</time></trkpt><trkpt lat="43.47749725897909" lon="11.868552453354372"><ele>248.0</ele><time>2026-03-29T10:16:57.999Z</time></trkpt><trkpt lat="43.477449765048156" lon="11.868412427983522"><ele>248.0</ele><time>2026-03-29T10:16:59.999Z</time></trkpt><trkpt lat="43.47737936013206" lon="11.868375394253603"><ele>248.0</ele><time>2026-03-29T10:17:00.999Z</time></trkpt><trkpt lat="43.47728686725006" lon="11.868370286215763"><ele>248.0</ele><time>2026-03-29T10:17:01.999Z</time></trkpt><trkpt lat="43.47718435771659" lon="11.868400444503287"><ele>248.0</ele><time>2026-03-29T10:17:02.999Z</time></trkpt><trkpt lat="43.47709516353063" lon="11.868431367662135"><ele>248.0</ele><time>2026-03-29T10:17:03.999Z</time></trkpt><trkpt lat="43.47701101212509" lon="11.868452813089206"><ele>248.00000000000003</ele><time>2026-03-29T10:17:04.999Z</time></trkpt><trkpt lat="43.47694094417778" lon="11.86850647478309"><ele>248.0</ele><time>2026-03-29T10:17:05.999Z</time></trkpt><trkpt lat="43.47690119353558" lon="11.868587026655131"><ele>248.0</ele><time>2026-03-29T10:17:06.999Z</time></trkpt><trkpt lat="43.476857698558526" lon="11.868728011530186"><ele>248.0</ele><time>2026-03-29T10:17:08.999Z</time></trkpt><trkpt lat="43.47681064933653" lon="11.868799697151216"><ele>248.00000000000003</ele><time>2026-03-29T10:17:10.999Z</time></trkpt><trkpt lat="43.47690040219967" lon="11.868778008144655"><ele>248.0</ele><time>2026-03-29T10:17:58.998Z</time></trkpt><trkpt lat="43.476839080720964" lon="11.868802357708377"><ele>248.0</ele><time>2026-03-29T10:18:29Z</time></trkpt><trkpt lat="43.47689706996822" lon="11.868765012565019"><ele>248.00000000000003</ele><time>2026-03-29T10:27:14Z</time></trkpt><trkpt lat="43.47696306742051" lon="11.868804364190503"><ele>248.0</ele><time>2026-03-29T10:29:31.999Z</time></trkpt><trkpt lat="43.47697640798395" lon="11.868903778851564"><ele>248.0</ele><time>2026-03-29T10:29:33.999Z</time></trkpt><trkpt lat="43.47703437598003" lon="11.869014293388636"><ele>248.00000000000003</ele><time>2026-03-29T10:29:35.999Z</time></trkpt><trkpt lat="43.47710470387806" lon="11.8690386959914"><ele>248.0</ele><time>2026-03-29T10:29:37.999Z</time></trkpt><trkpt lat="43.477170643877436" lon="11.869012922169995"><ele>248.0</ele><time>2026-03-29T10:29:39.999Z</time></trkpt><trkpt lat="43.47720863951385" lon="11.868929226936139"><ele>248.0</ele><time>2026-03-29T10:29:41.999Z</time></trkpt><trkpt lat="43.47723830938126" lon="11.869013789771767"><ele>248.0</ele><time>2026-03-29T10:29:47.999Z</time></trkpt><trkpt lat="43.477169265564974" lon="11.869180150140885"><ele>248.0</ele><time>2026-03-29T10:29:49.999Z</time></trkpt><trkpt lat="43.47711266469114" lon="11.869281350875188"><ele>248.0</ele><time>2026-03-29T10:29:50.999Z</time></trkpt><trkpt lat="43.47705927626351" lon="11.86937114007089"><ele>248.0</ele><time>2026-03-29T10:29:51.999Z</time></trkpt><trkpt lat="43.477001236684245" lon="11.869476108367882"><ele>248.2</ele><time>2026-03-29T10:29:52.999Z</time></trkpt><trkpt lat="43.47694134095496" lon="11.869586048471708"><ele>248.4</ele><time>2026-03-29T10:29:53.999Z</time></trkpt><trkpt lat="43.476879174214844" lon="11.869706153977122"><ele>248.59999999999997</ele><time>2026-03-29T10:29:54.999Z</time></trkpt><trkpt lat="43.476819193289685" lon="11.869822965616436"><ele>248.79999999999998</ele><time>2026-03-29T10:29:55.999Z</time></trkpt><trkpt lat="43.476755273516545" lon="11.869945564922343"><ele>249.0</ele><time>2026-03-29T10:29:56.999Z</time></trkpt><trkpt lat="43.4766923529365" lon="11.870060884958166"><ele>249.0</ele><time>2026-03-29T10:29:57.999Z</time></trkpt><trkpt lat="43.47662777469061" lon="11.870177052846396"><ele>249.0</ele><time>2026-03-29T10:29:58.999Z</time></trkpt><trkpt lat="43.47655807059608" lon="11.870324485308348"><ele>249.0</ele><time>2026-03-29T10:29:59.999Z</time></trkpt><trkpt lat="43.47650150306457" lon="11.87044668839515"><ele>249.0</ele><time>2026-03-29T10:30:00.999Z</time></trkpt><trkpt lat="43.47644360675731" lon="11.87057744651218"><ele>249.0</ele><time>2026-03-29T10:30:01.999Z</time></trkpt><trkpt lat="43.476382571888436" lon="11.870692183740884"><ele>248.99999999999997</ele><time>2026-03-29T10:30:02.999Z</time></trkpt><trkpt lat="43.47632097683718" lon="11.870822653565861"><ele>248.99999999999997</ele><time>2026-03-29T10:30:03.999Z</time></trkpt><trkpt lat="43.47625707017489" lon="11.870942776324796"><ele>249.0</ele><time>2026-03-29T10:30:04.999Z</time></trkpt><trkpt lat="43.476196400537546" lon="11.871062172306882"><ele>249.0</ele><time>2026-03-29T10:30:05.999Z</time></trkpt><trkpt lat="43.47613576698397" lon="11.871185474445571"><ele>249.0</ele><time>2026-03-29T10:30:06.999Z</time></trkpt><trkpt lat="43.476084461947174" lon="11.871296477295957"><ele>248.99999999999997</ele><time>2026-03-29T10:30:07.999Z</time></trkpt><trkpt lat="43.47603166345735" lon="11.871386451127117"><ele>248.99999999999997</ele><time>2026-03-29T10:30:08.999Z</time></trkpt><trkpt lat="43.47597205551712" lon="11.871499387149901"><ele>249.0</ele><time>2026-03-29T10:30:09.999Z</time></trkpt><trkpt lat="43.47590690228941" lon="11.871627492459053"><ele>249.0</ele><time>2026-03-29T10:30:10.999Z</time></trkpt><trkpt lat="43.475841495013384" lon="11.871751433297126"><ele>249.0</ele><time>2026-03-29T10:30:11.999Z</time></trkpt><trkpt lat="43.47578022235188" lon="11.871872426202602"><ele>248.99999999999997</ele><time>2026-03-29T10:30:12.999Z</time></trkpt><trkpt lat="43.47572425950355" lon="11.87199210046176"><ele>248.99999999999997</ele><time>2026-03-29T10:30:13.999Z</time></trkpt><trkpt lat="43.475661771916414" lon="11.872097244845252"><ele>249.0</ele><time>2026-03-29T10:30:14.999Z</time></trkpt><trkpt lat="43.47560606174521" lon="11.872214109201886"><ele>249.0</ele><time>2026-03-29T10:30:15.999Z</time></trkpt><trkpt lat="43.475546346013715" lon="11.872339068512371"><ele>249.0</ele><time>2026-03-29T10:30:16.998Z</time></trkpt><trkpt lat="43.47548441574072" lon="11.872459012164194"><ele>249.0</ele><time>2026-03-29T10:30:17.998Z</time></trkpt><trkpt lat="43.475417814174655" lon="11.872599338766733"><ele>249.0</ele><time>2026-03-29T10:30:18.998Z</time></trkpt><trkpt lat="43.475351581369004" lon="11.87274584420116"><ele>249.0</ele><time>2026-03-29T10:30:19.998Z</time></trkpt><trkpt lat="43.4752830061366" lon="11.872889074786608"><ele>249.25</ele><time>2026-03-29T10:30:20.998Z</time></trkpt><trkpt lat="43.47520639915185" lon="11.873035858567588"><ele>249.5</ele><time>2026-03-29T10:30:21.998Z</time></trkpt><trkpt lat="43.47513208071563" lon="11.873170775198256"><ele>249.75</ele><time>2026-03-29T10:30:22.998Z</time></trkpt><trkpt lat="43.475059390910666" lon="11.873308874587574"><ele>250.0</ele><time>2026-03-29T10:30:23.998Z</time></trkpt><trkpt lat="43.474982062712726" lon="11.873457177367174"><ele>250.0</ele><time>2026-03-29T10:30:24.998Z</time></trkpt><trkpt lat="43.47490254260972" lon="11.873613291721558"><ele>250.0</ele><time>2026-03-29T10:30:25.998Z</time></trkpt><trkpt lat="43.4748262318212" lon="11.87376609995953"><ele>250.0</ele><time>2026-03-29T10:30:26.998Z</time></trkpt><trkpt lat="43.47475349814496" lon="11.873912386408227"><ele>250.0</ele><time>2026-03-29T10:30:27.998Z</time></trkpt><trkpt lat="43.47468183958281" lon="11.874057334754452"><ele>250.0</ele><time>2026-03-29T10:30:28.998Z</time></trkpt><trkpt lat="43.47461160164502" lon="11.874200500613087"><ele>250.0</ele><time>2026-03-29T10:30:29.998Z</time></trkpt><trkpt lat="43.47453922476147" lon="11.87434132347611"><ele>250.0</ele><time>2026-03-29T10:30:30.998Z</time></trkpt><trkpt lat="43.47446447187457" lon="11.874477731816745"><ele>250.0</ele><time>2026-03-29T10:30:31.998Z</time></trkpt><trkpt lat="43.4743938755429" lon="11.874618101883575"><ele>250.5</ele><time>2026-03-29T10:30:32.998Z</time></trkpt><trkpt lat="43.47432331926441" lon="11.874758971492618"><ele>251.0</ele><time>2026-03-29T10:30:33.998Z</time></trkpt><trkpt lat="43.47425475701833" lon="11.874897654309613"><ele>251.5</ele><time>2026-03-29T10:30:34.998Z</time></trkpt><trkpt lat="43.47418481177922" lon="11.875030636258648"><ele>252.0</ele><time>2026-03-29T10:30:35.998Z</time></trkpt><trkpt lat="43.47410938505685" lon="11.875170790389465"><ele>252.0</ele><time>2026-03-29T10:30:36.998Z</time></trkpt><trkpt lat="43.47403681135432" lon="11.875322049561149"><ele>252.0</ele><time>2026-03-29T10:30:37.998Z</time></trkpt><trkpt lat="43.47396377913959" lon="11.875471513868394"><ele>252.0</ele><time>2026-03-29T10:30:38.998Z</time></trkpt><trkpt lat="43.473887231038766" lon="11.875622235826121"><ele>252.0</ele><time>2026-03-29T10:30:39.998Z</time></trkpt><trkpt lat="43.47381540793185" lon="11.875770511521397"><ele>252.25</ele><time>2026-03-29T10:30:40.998Z</time></trkpt><trkpt lat="43.473743457050745" lon="11.875917204694604"><ele>252.5</ele><time>2026-03-29T10:30:41.998Z</time></trkpt><trkpt lat="43.4736696744315" lon="11.876060633786215"><ele>252.75</ele><time>2026-03-29T10:30:43Z</time></trkpt><trkpt lat="43.47359749099961" lon="11.876202842007906"><ele>253.0</ele><time>2026-03-29T10:30:44Z</time></trkpt><trkpt lat="43.473526531457864" lon="11.876338472965537"><ele>253.25</ele><time>2026-03-29T10:30:45Z</time></trkpt><trkpt lat="43.473450308026834" lon="11.876478906979568"><ele>253.5</ele><time>2026-03-29T10:30:46Z</time></trkpt><trkpt lat="43.473378634557506" lon="11.876625837092506"><ele>253.75</ele><time>2026-03-29T10:30:47Z</time></trkpt><trkpt lat="43.473303577788656" lon="11.876773806541465"><ele>254.0</ele><time>2026-03-29T10:30:48Z</time></trkpt><trkpt lat="43.47323054607919" lon="11.87692337210274"><ele>253.79999999999998</ele><time>2026-03-29T10:30:49Z</time></trkpt><trkpt lat="43.47315908226201" lon="11.8770669882056"><ele>253.59999999999997</ele><time>2026-03-29T10:30:50Z</time></trkpt><trkpt lat="43.47309045730769" lon="11.877188776502981"><ele>253.4</ele><time>2026-03-29T10:30:51Z</time></trkpt><trkpt lat="43.47302690087887" lon="11.877298034524687"><ele>253.2</ele><time>2026-03-29T10:30:52Z</time></trkpt><trkpt lat="43.47295536423447" lon="11.877405520077687"><ele>253.0</ele><time>2026-03-29T10:30:53Z</time></trkpt><trkpt lat="43.47286477713833" lon="11.877495544581887"><ele>253.0</ele><time>2026-03-29T10:30:54Z</time></trkpt><trkpt lat="43.4727644655707" lon="11.877567010012179"><ele>253.0</ele><time>2026-03-29T10:30:55Z</time></trkpt><trkpt lat="43.47264938162782" lon="11.87758506434699"><ele>253.0</ele><time>2026-03-29T10:30:56Z</time></trkpt><trkpt lat="43.472539533481914" lon="11.877593866514287"><ele>253.0</ele><time>2026-03-29T10:30:57Z</time></trkpt><trkpt lat="43.47244705898876" lon="11.877627636191672"><ele>253.0</ele><time>2026-03-29T10:30:58Z</time></trkpt><trkpt lat="43.472354110797355" lon="11.877687695411922"><ele>253.49999999999997</ele><time>2026-03-29T10:30:59Z</time></trkpt><trkpt lat="43.47227952160583" lon="11.877775219141856"><ele>254.0</ele><time>2026-03-29T10:31:00Z</time></trkpt><trkpt lat="43.47223334531481" lon="11.877883958257296"><ele>254.5</ele><time>2026-03-29T10:31:01Z</time></trkpt><trkpt lat="43.47220668371713" lon="11.87799693970859"><ele>255.0</ele><time>2026-03-29T10:31:02Z</time></trkpt><trkpt lat="43.47220502566129" lon="11.878114707296534"><ele>255.49999999999997</ele><time>2026-03-29T10:31:03Z</time></trkpt><trkpt lat="43.47222262093503" lon="11.878227557430854"><ele>256.0</ele><time>2026-03-29T10:31:04Z</time></trkpt><trkpt lat="43.47225823274803" lon="11.878336703078366"><ele>255.99999999999997</ele><time>2026-03-29T10:31:05Z</time></trkpt><trkpt lat="43.4722899323211" lon="11.87843426081564"><ele>256.0</ele><time>2026-03-29T10:31:06Z</time></trkpt><trkpt lat="43.47231340518726" lon="11.878532827767073"><ele>256.0</ele><time>2026-03-29T10:31:07Z</time></trkpt><trkpt lat="43.47232315365366" lon="11.878642730147977"><ele>256.0</ele><time>2026-03-29T10:31:08Z</time></trkpt><trkpt lat="43.472316791351474" lon="11.878753997014988"><ele>255.99999999999997</ele><time>2026-03-29T10:31:09Z</time></trkpt><trkpt lat="43.47230826387678" lon="11.87886942371744"><ele>256.0</ele><time>2026-03-29T10:31:10Z</time></trkpt><trkpt lat="43.47228219697216" lon="11.87898715567326"><ele>255.60000000000002</ele><time>2026-03-29T10:31:11Z</time></trkpt><trkpt lat="43.47224025380744" lon="11.879114126626813"><ele>255.20000000000002</ele><time>2026-03-29T10:31:12Z</time></trkpt><trkpt lat="43.47219444443404" lon="11.879205668062575"><ele>254.79999999999998</ele><time>2026-03-29T10:31:13Z</time></trkpt><trkpt lat="43.472146512142274" lon="11.87931333903225"><ele>254.39999999999998</ele><time>2026-03-29T10:31:14Z</time></trkpt><trkpt lat="43.47210963664753" lon="11.879449423670923"><ele>254.0</ele><time>2026-03-29T10:31:15Z</time></trkpt><trkpt lat="43.472090471590285" lon="11.879599823538403"><ele>255.25</ele><time>2026-03-29T10:31:16Z</time></trkpt><trkpt lat="43.47205653550973" lon="11.879751277734517"><ele>256.5</ele><time>2026-03-29T10:31:17Z</time></trkpt><trkpt lat="43.47203158680012" lon="11.87992170311482"><ele>257.75</ele><time>2026-03-29T10:31:18Z</time></trkpt><trkpt lat="43.472015758714164" lon="11.880115432836613"><ele>259.0</ele><time>2026-03-29T10:31:19Z</time></trkpt><trkpt lat="43.472001233275044" lon="11.880308371749216"><ele>259.0</ele><time>2026-03-29T10:31:20Z</time></trkpt><trkpt lat="43.47197772504475" lon="11.88050839624928"><ele>259.0</ele><time>2026-03-29T10:31:21Z</time></trkpt><trkpt lat="43.471939480900225" lon="11.880705641641347"><ele>259.0</ele><time>2026-03-29T10:31:22Z</time></trkpt><trkpt lat="43.47189666033282" lon="11.880898106648651"><ele>259.0</ele><time>2026-03-29T10:31:23Z</time></trkpt><trkpt lat="43.4718610172284" lon="11.881096802715792"><ele>258.75</ele><time>2026-03-29T10:31:24Z</time></trkpt><trkpt lat="43.47183056565849" lon="11.881281667575708"><ele>258.5</ele><time>2026-03-29T10:31:25Z</time></trkpt><trkpt lat="43.47180116089533" lon="11.881446514796194"><ele>258.25</ele><time>2026-03-29T10:31:25.999Z</time></trkpt><trkpt lat="43.471769378057324" lon="11.881611391012203"><ele>258.0</ele><time>2026-03-29T10:31:26.999Z</time></trkpt><trkpt lat="43.47173222064819" lon="11.881783443865931"><ele>257.25</ele><time>2026-03-29T10:31:27.999Z</time></trkpt><trkpt lat="43.47168617841373" lon="11.881951100478581"><ele>256.5</ele><time>2026-03-29T10:31:28.999Z</time></trkpt><trkpt lat="43.47164135857996" lon="11.882116713106528"><ele>255.75</ele><time>2026-03-29T10:31:29.999Z</time></trkpt><trkpt lat="43.471593809019126" lon="11.882287737140622"><ele>255.0</ele><time>2026-03-29T10:31:30.999Z</time></trkpt><trkpt lat="43.471549176245894" lon="11.882453903978336"><ele>254.75</ele><time>2026-03-29T10:31:31.999Z</time></trkpt><trkpt lat="43.471505920514396" lon="11.88259793557318"><ele>254.5</ele><time>2026-03-29T10:31:32.999Z</time></trkpt><trkpt lat="43.47146065951385" lon="11.882724801327788"><ele>254.25</ele><time>2026-03-29T10:31:33.999Z</time></trkpt><trkpt lat="43.471396297307116" lon="11.882855145814725"><ele>254.0</ele><time>2026-03-29T10:31:34.999Z</time></trkpt><trkpt lat="43.471325148188974" lon="11.882991590541765"><ele>255.0</ele><time>2026-03-29T10:31:35.999Z</time></trkpt><trkpt lat="43.4712473240081" lon="11.883139718551059"><ele>256.0</ele><time>2026-03-29T10:31:36.999Z</time></trkpt><trkpt lat="43.471148294156826" lon="11.883280862979236"><ele>257.0</ele><time>2026-03-29T10:31:37.999Z</time></trkpt><trkpt lat="43.47104077901424" lon="11.883412579662256"><ele>258.0</ele><time>2026-03-29T10:31:38.999Z</time></trkpt><trkpt lat="43.47095687685664" lon="11.883556858210099"><ele>258.25</ele><time>2026-03-29T10:31:39.999Z</time></trkpt><trkpt lat="43.470892583513276" lon="11.883727642057323"><ele>258.5</ele><time>2026-03-29T10:31:40.999Z</time></trkpt><trkpt lat="43.470840165591156" lon="11.88390985215716"><ele>258.75</ele><time>2026-03-29T10:31:41.999Z</time></trkpt><trkpt lat="43.47079394481129" lon="11.884080208177412"><ele>259.0</ele><time>2026-03-29T10:31:42.999Z</time></trkpt><trkpt lat="43.47074417126009" lon="11.884254862547825"><ele>258.75</ele><time>2026-03-29T10:31:43.999Z</time></trkpt><trkpt lat="43.47069676564297" lon="11.884423198856283"><ele>258.5</ele><time>2026-03-29T10:31:44.999Z</time></trkpt><trkpt lat="43.470648097276005" lon="11.88459338831445"><ele>258.25</ele><time>2026-03-29T10:31:45.999Z</time></trkpt><trkpt lat="43.47059917983474" lon="11.884765301941817"><ele>258.0</ele><time>2026-03-29T10:31:46.999Z</time></trkpt><trkpt lat="43.47054671629125" lon="11.884941324188452"><ele>258.0</ele><time>2026-03-29T10:31:47.999Z</time></trkpt><trkpt lat="43.4704935290424" lon="11.885118417319985"><ele>258.0</ele><time>2026-03-29T10:31:48.999Z</time></trkpt><trkpt lat="43.47044345978101" lon="11.885292124799095"><ele>258.0</ele><time>2026-03-29T10:31:49.999Z</time></trkpt><trkpt lat="43.47038973625504" lon="11.885465419480129"><ele>258.0</ele><time>2026-03-29T10:31:50.999Z</time></trkpt><trkpt lat="43.470336228048616" lon="11.885640857170571"><ele>258.0</ele><time>2026-03-29T10:31:51.999Z</time></trkpt><trkpt lat="43.47028165179899" lon="11.885819853219187"><ele>258.0</ele><time>2026-03-29T10:31:52.999Z</time></trkpt><trkpt lat="43.470229531824025" lon="11.886002093527425"><ele>258.0</ele><time>2026-03-29T10:31:53.999Z</time></trkpt><trkpt lat="43.470175472373235" lon="11.88617884420743"><ele>258.0</ele><time>2026-03-29T10:31:54.999Z</time></trkpt><trkpt lat="43.47012453122637" lon="11.886354233238063"><ele>258.0</ele><time>2026-03-29T10:31:55.999Z</time></trkpt><trkpt lat="43.470075313716066" lon="11.886528169486523"><ele>258.0</ele><time>2026-03-29T10:31:56.999Z</time></trkpt><trkpt lat="43.470025611730705" lon="11.88670137270683"><ele>258.0</ele><time>2026-03-29T10:31:57.999Z</time></trkpt><trkpt lat="43.46997629182184" lon="11.886871276150217"><ele>258.0</ele><time>2026-03-29T10:31:58.999Z</time></trkpt><trkpt lat="43.469930397435476" lon="11.887037723621527"><ele>258.5</ele><time>2026-03-29T10:31:59.999Z</time></trkpt><trkpt lat="43.469876601338996" lon="11.88720177170301"><ele>259.0</ele><time>2026-03-29T10:32:00.999Z</time></trkpt><trkpt lat="43.469823400780335" lon="11.887366610423305"><ele>259.5</ele><time>2026-03-29T10:32:01.999Z</time></trkpt><trkpt lat="43.46976865724323" lon="11.887532066677046"><ele>260.0</ele><time>2026-03-29T10:32:02.999Z</time></trkpt><trkpt lat="43.469715686396775" lon="11.887699258801486"><ele>260.75</ele><time>2026-03-29T10:32:03.999Z</time></trkpt><trkpt lat="43.46966608606389" lon="11.887866754296155"><ele>261.5</ele><time>2026-03-29T10:32:04.999Z</time></trkpt><trkpt lat="43.46961407210304" lon="11.888032464314565"><ele>262.25</ele><time>2026-03-29T10:32:05.999Z</time></trkpt><trkpt lat="43.46956264289174" lon="11.888197808740852"><ele>263.0</ele><time>2026-03-29T10:32:06.999Z</time></trkpt><trkpt lat="43.469514052520786" lon="11.888360904701813"><ele>263.0</ele><time>2026-03-29T10:32:07.999Z</time></trkpt><trkpt lat="43.4694642590766" lon="11.888521313925423"><ele>263.0</ele><time>2026-03-29T10:32:08.999Z</time></trkpt><trkpt lat="43.46941726034245" lon="11.88868865205307"><ele>263.0</ele><time>2026-03-29T10:32:09.999Z</time></trkpt><trkpt lat="43.469370394939304" lon="11.888854671226468"><ele>263.0</ele><time>2026-03-29T10:32:10.999Z</time></trkpt><trkpt lat="43.46931880821249" lon="11.889023633883017"><ele>263.0</ele><time>2026-03-29T10:32:11.999Z</time></trkpt><trkpt lat="43.469262901968996" lon="11.889190793385914"><ele>263.0</ele><time>2026-03-29T10:32:12.999Z</time></trkpt><trkpt lat="43.46920790329902" lon="11.889359439550676"><ele>263.0</ele><time>2026-03-29T10:32:13.999Z</time></trkpt><trkpt lat="43.469155670498225" lon="11.88953046734026"><ele>263.0</ele><time>2026-03-29T10:32:14.999Z</time></trkpt><trkpt lat="43.46910026002501" lon="11.889704395391112"><ele>263.0</ele><time>2026-03-29T10:32:15.999Z</time></trkpt><trkpt lat="43.46904565690921" lon="11.889879813895883"><ele>263.0</ele><time>2026-03-29T10:32:16.999Z</time></trkpt><trkpt lat="43.468989571281924" lon="11.890057986491193"><ele>263.0</ele><time>2026-03-29T10:32:17.999Z</time></trkpt><trkpt lat="43.46893621364566" lon="11.890233195528994"><ele>263.0</ele><time>2026-03-29T10:32:18.999Z</time></trkpt><trkpt lat="43.46888288680468" lon="11.890406626217354"><ele>263.0</ele><time>2026-03-29T10:32:19.999Z</time></trkpt><trkpt lat="43.468828512020295" lon="11.89057744701218"><ele>263.0</ele><time>2026-03-29T10:32:20.999Z</time></trkpt><trkpt lat="43.468776656198216" lon="11.890750538568755"><ele>263.0</ele><time>2026-03-29T10:32:21.999Z</time></trkpt><trkpt lat="43.46872691106004" lon="11.890922310204358"><ele>263.0</ele><time>2026-03-29T10:32:22.999Z</time></trkpt><trkpt lat="43.468676635986405" lon="11.891093318135887"><ele>265.5</ele><time>2026-03-29T10:32:23.999Z</time></trkpt><trkpt lat="43.46862561681298" lon="11.891259327108127"><ele>268.0</ele><time>2026-03-29T10:32:24.998Z</time></trkpt><trkpt lat="43.46857528545689" lon="11.89142190259327"><ele>270.5</ele><time>2026-03-29T10:32:25.998Z</time></trkpt><trkpt lat="43.46852700255109" lon="11.891580899909053"><ele>273.0</ele><time>2026-03-29T10:32:26.998Z</time></trkpt><trkpt lat="43.46847808863754" lon="11.891738718106692"><ele>272.2</ele><time>2026-03-29T10:32:27.998Z</time></trkpt><trkpt lat="43.46842253966685" lon="11.891886399703132"><ele>271.4</ele><time>2026-03-29T10:32:28.998Z</time></trkpt><trkpt lat="43.46836296255792" lon="11.892017751652121"><ele>270.59999999999997</ele><time>2026-03-29T10:32:29.998Z</time></trkpt><trkpt lat="43.468302277306776" lon="11.892122534541109"><ele>269.8</ele><time>2026-03-29T10:32:30.998Z</time></trkpt><trkpt lat="43.46824298479944" lon="11.89220526284976"><ele>269.0</ele><time>2026-03-29T10:32:31.998Z</time></trkpt><trkpt lat="43.468181054988" lon="11.892260826564353"><ele>269.0</ele><time>2026-03-29T10:32:32.998Z</time></trkpt><trkpt lat="43.46811469881686" lon="11.892295878883866"><ele>269.0</ele><time>2026-03-29T10:32:33.998Z</time></trkpt><trkpt lat="43.46803111725219" lon="11.892317527214143"><ele>269.0</ele><time>2026-03-29T10:32:34.998Z</time></trkpt><trkpt lat="43.467944728513864" lon="11.89233394992799"><ele>269.0</ele><time>2026-03-29T10:32:35.998Z</time></trkpt><trkpt lat="43.467848038332406" lon="11.892341854113178"><ele>269.0</ele><time>2026-03-29T10:32:36.998Z</time></trkpt><trkpt lat="43.46774417408291" lon="11.892341471227907"><ele>269.0</ele><time>2026-03-29T10:32:37.998Z</time></trkpt><trkpt lat="43.467638570493335" lon="11.892342694744793"><ele>269.6666666666667</ele><time>2026-03-29T10:32:38.998Z</time></trkpt><trkpt lat="43.46753818199245" lon="11.892339358768576"><ele>270.33333333333337</ele><time>2026-03-29T10:32:39.998Z</time></trkpt><trkpt lat="43.46744962080718" lon="11.892333556782248"><ele>271.0</ele><time>2026-03-29T10:32:40.998Z</time></trkpt><trkpt lat="43.4673762439718" lon="11.892324840100843"><ele>271.6666666666667</ele><time>2026-03-29T10:32:41.998Z</time></trkpt><trkpt lat="43.46730894423771" lon="11.892310155195673"><ele>272.3333333333333</ele><time>2026-03-29T10:32:42.998Z</time></trkpt><trkpt lat="43.467248224210714" lon="11.892272158065921"><ele>273.0</ele><time>2026-03-29T10:32:43.998Z</time></trkpt><trkpt lat="43.46718668647466" lon="11.892221363291146"><ele>273.0</ele><time>2026-03-29T10:32:44.998Z</time></trkpt><trkpt lat="43.467123614947404" lon="11.892154233418397"><ele>273.0</ele><time>2026-03-29T10:32:45.998Z</time></trkpt><trkpt lat="43.467056943660324" lon="11.892080897448007"><ele>273.0</ele><time>2026-03-29T10:32:46.998Z</time></trkpt><trkpt lat="43.46699105043286" lon="11.891995189754311"><ele>273.0</ele><time>2026-03-29T10:32:47.998Z</time></trkpt><trkpt lat="43.46692396700691" lon="11.89190495302285"><ele>273.0</ele><time>2026-03-29T10:32:49Z</time></trkpt><trkpt lat="43.46685450231847" lon="11.891808758589429"><ele>273.0</ele><time>2026-03-29T10:32:50Z</time></trkpt><trkpt lat="43.466789346324575" lon="11.891706417318678"><ele>273.6</ele><time>2026-03-29T10:32:51Z</time></trkpt><trkpt lat="43.46672022553434" lon="11.891602615524906"><ele>274.20000000000005</ele><time>2026-03-29T10:32:52Z</time></trkpt><trkpt lat="43.466644354147725" lon="11.891494792401849"><ele>274.8</ele><time>2026-03-29T10:32:53Z</time></trkpt><trkpt lat="43.46657103252148" lon="11.891390248811675"><ele>275.40000000000003</ele><time>2026-03-29T10:32:54Z</time></trkpt><trkpt lat="43.46649206154003" lon="11.891281762835039"><ele>276.0</ele><time>2026-03-29T10:32:55Z</time></trkpt><trkpt lat="43.466410678919004" lon="11.891175838663221"><ele>276.0</ele><time>2026-03-29T10:32:56Z</time></trkpt><trkpt lat="43.46633279284604" lon="11.891075983435556"><ele>276.0</ele><time>2026-03-29T10:32:57Z</time></trkpt><trkpt lat="43.46625710071332" lon="11.890979946439575"><ele>276.0</ele><time>2026-03-29T10:32:58Z</time></trkpt><trkpt lat="43.46618497099772" lon="11.890887160482709"><ele>276.0</ele><time>2026-03-29T10:32:59Z</time></trkpt><trkpt lat="43.46610795297696" lon="11.890813111307962"><ele>276.0</ele><time>2026-03-29T10:33:00Z</time></trkpt><trkpt lat="43.46601318547209" lon="11.890761675690422"><ele>277.75</ele><time>2026-03-29T10:33:01Z</time></trkpt><trkpt lat="43.465898262566604" lon="11.890717904841388"><ele>279.5</ele><time>2026-03-29T10:33:02Z</time></trkpt><trkpt lat="43.46575690472287" lon="11.890689265518871"><ele>281.25</ele><time>2026-03-29T10:33:03Z</time></trkpt><trkpt lat="43.46564190701405" lon="11.890650874174609"><ele>283.0</ele><time>2026-03-29T10:33:04Z</time></trkpt><trkpt lat="43.4655273093881" lon="11.890637554135763"><ele>283.6</ele><time>2026-03-29T10:33:05Z</time></trkpt><trkpt lat="43.46542326321362" lon="11.89062085055427"><ele>284.20000000000005</ele><time>2026-03-29T10:33:06Z</time></trkpt><trkpt lat="43.465333005640154" lon="11.89058778450149"><ele>284.8</ele><time>2026-03-29T10:33:07Z</time></trkpt><trkpt lat="43.465242737070426" lon="11.890530036800818"><ele>285.40000000000003</ele><time>2026-03-29T10:33:08Z</time></trkpt><trkpt lat="43.465163991002605" lon="11.890455318970384"><ele>286.0</ele><time>2026-03-29T10:33:09Z</time></trkpt><trkpt lat="43.46510079372371" lon="11.890399522427733"><ele>285.99999999999994</ele><time>2026-03-29T10:33:10Z</time></trkpt><trkpt lat="43.465040882692975" lon="11.890339060415187"><ele>286.0</ele><time>2026-03-29T10:33:11Z</time></trkpt><trkpt lat="43.46498028388831" lon="11.890283109220526"><ele>286.0</ele><time>2026-03-29T10:33:12Z</time></trkpt><trkpt lat="43.46492222960784" lon="11.890237164470928"><ele>286.0</ele><time>2026-03-29T10:33:13Z</time></trkpt><trkpt lat="43.46486574771975" lon="11.89017437483168"><ele>286.0</ele><time>2026-03-29T10:33:15Z</time></trkpt><trkpt lat="43.464803430437016" lon="11.890105287345147"><ele>285.99999999999994</ele><time>2026-03-29T10:33:17Z</time></trkpt><trkpt lat="43.46474250855076" lon="11.89005136801223"><ele>286.0</ele><time>2026-03-29T10:33:18Z</time></trkpt><trkpt lat="43.464647536383985" lon="11.88999574206434"><ele>286.0</ele><time>2026-03-29T10:33:19Z</time></trkpt><trkpt lat="43.46454041441151" lon="11.889924891154305"><ele>286.0</ele><time>2026-03-29T10:33:20Z</time></trkpt><trkpt lat="43.464424566074285" lon="11.889847319617896"><ele>286.0</ele><time>2026-03-29T10:33:21Z</time></trkpt><trkpt lat="43.464289273696075" lon="11.889767022691252"><ele>286.0</ele><time>2026-03-29T10:33:22Z</time></trkpt><trkpt lat="43.46414851639969" lon="11.889688892445424"><ele>286.0</ele><time>2026-03-29T10:33:23Z</time></trkpt><trkpt lat="43.46403501175145" lon="11.889624593081889"><ele>286.0</ele><time>2026-03-29T10:33:24Z</time></trkpt><trkpt lat="43.46393194205223" lon="11.889570312016545"><ele>286.0</ele><time>2026-03-29T10:33:25Z</time></trkpt><trkpt lat="43.4638267344325" lon="11.889506759912013"><ele>286.0</ele><time>2026-03-29T10:33:26Z</time></trkpt><trkpt lat="43.46373165168058" lon="11.88945394240351"><ele>284.2</ele><time>2026-03-29T10:33:27Z</time></trkpt><trkpt lat="43.46364850441308" lon="11.889394818252306"><ele>282.40000000000003</ele><time>2026-03-29T10:33:28Z</time></trkpt><trkpt lat="43.4635615298947" lon="11.889349915560429"><ele>280.6</ele><time>2026-03-29T10:33:28.999Z</time></trkpt><trkpt lat="43.46347489604912" lon="11.889326766763833"><ele>278.8</ele><time>2026-03-29T10:33:29.999Z</time></trkpt><trkpt lat="43.46337079270392" lon="11.889366461081574"><ele>277.0</ele><time>2026-03-29T10:33:30.999Z</time></trkpt><trkpt lat="43.46326806964846" lon="11.88942888652118"><ele>277.0</ele><time>2026-03-29T10:33:31.999Z</time></trkpt><trkpt lat="43.46317803427754" lon="11.889479971117686"><ele>277.0</ele><time>2026-03-29T10:33:32.999Z</time></trkpt><trkpt lat="43.46309385883291" lon="11.889482066499594"><ele>277.0</ele><time>2026-03-29T10:33:33.999Z</time></trkpt><trkpt lat="43.46300747775029" lon="11.88946948981818"><ele>277.0</ele><time>2026-03-29T10:33:34.999Z</time></trkpt><trkpt lat="43.46291546959116" lon="11.889429784211059"><ele>277.0</ele><time>2026-03-29T10:33:35.999Z</time></trkpt><trkpt lat="43.462820955908334" lon="11.889373772186142"><ele>276.2</ele><time>2026-03-29T10:33:36.999Z</time></trkpt><trkpt lat="43.46273323635823" lon="11.88929793450661"><ele>275.4</ele><time>2026-03-29T10:33:37.999Z</time></trkpt><trkpt lat="43.46265922541278" lon="11.889221389381243"><ele>274.6</ele><time>2026-03-29T10:33:38.999Z</time></trkpt><trkpt lat="43.46259196116777" lon="11.889127828282186"><ele>273.8</ele><time>2026-03-29T10:33:39.999Z</time></trkpt><trkpt lat="43.462533037176335" lon="11.889030785924826"><ele>273.0</ele><time>2026-03-29T10:33:40.999Z</time></trkpt><trkpt lat="43.4624867647907" lon="11.888936938354487"><ele>273.0</ele><time>2026-03-29T10:33:41.999Z</time></trkpt><trkpt lat="43.46244152726424" lon="11.88882596129148"><ele>273.0</ele><time>2026-03-29T10:33:42.999Z</time></trkpt><trkpt lat="43.46240070569596" lon="11.88870166364867"><ele>273.0</ele><time>2026-03-29T10:33:43.999Z</time></trkpt><trkpt lat="43.4623832279467" lon="11.888585370710988"><ele>273.0</ele><time>2026-03-29T10:33:44.999Z</time></trkpt><trkpt lat="43.462367100283515" lon="11.88847438761897"><ele>273.0</ele><time>2026-03-29T10:33:45.999Z</time></trkpt><trkpt lat="43.4623459461958" lon="11.888352834252363"><ele>273.5</ele><time>2026-03-29T10:33:46.999Z</time></trkpt><trkpt lat="43.46231934467173" lon="11.888238199809614"><ele>274.0</ele><time>2026-03-29T10:33:47.999Z</time></trkpt><trkpt lat="43.462300625497456" lon="11.88812904819415"><ele>274.5</ele><time>2026-03-29T10:33:48.999Z</time></trkpt><trkpt lat="43.46226734869957" lon="11.888024864141173"><ele>275.0</ele><time>2026-03-29T10:33:49.999Z</time></trkpt><trkpt lat="43.46223709085161" lon="11.887918711235356"><ele>275.5</ele><time>2026-03-29T10:33:50.999Z</time></trkpt><trkpt lat="43.46220504868151" lon="11.88781925657953"><ele>276.0</ele><time>2026-03-29T10:33:51.999Z</time></trkpt><trkpt lat="43.462173477996906" lon="11.887724205452267"><ele>276.0</ele><time>2026-03-29T10:33:52.999Z</time></trkpt><trkpt lat="43.46213261440493" lon="11.887630230818964"><ele>276.0</ele><time>2026-03-29T10:33:53.999Z</time></trkpt><trkpt lat="43.46209029972396" lon="11.887555838525067"><ele>276.0</ele><time>2026-03-29T10:33:54.999Z</time></trkpt><trkpt lat="43.462043022607936" lon="11.887484680739478"><ele>276.0</ele><time>2026-03-29T10:33:55.999Z</time></trkpt><trkpt lat="43.46199980235932" lon="11.887419084544861"><ele>276.0</ele><time>2026-03-29T10:33:56.999Z</time></trkpt><trkpt lat="43.46192330873732" lon="11.887317929403293"><ele>276.0</ele><time>2026-03-29T10:33:58.999Z</time></trkpt><trkpt lat="43.461873033064606" lon="11.887251924312444"><ele>274.2</ele><time>2026-03-29T10:34:00.999Z</time></trkpt><trkpt lat="43.461787498028514" lon="11.887144454548784"><ele>272.40000000000003</ele><time>2026-03-29T10:34:02.999Z</time></trkpt><trkpt lat="43.46171666793017" lon="11.887069504964822"><ele>270.6</ele><time>2026-03-29T10:34:03.999Z</time></trkpt><trkpt lat="43.46163434127914" lon="11.887017764172013"><ele>268.8</ele><time>2026-03-29T10:34:04.999Z</time></trkpt><trkpt lat="43.4615414859085" lon="11.88698117512704"><ele>267.0</ele><time>2026-03-29T10:34:05.999Z</time></trkpt><trkpt lat="43.46145294098188" lon="11.886989842601942"><ele>267.0</ele><time>2026-03-29T10:34:06.999Z</time></trkpt><trkpt lat="43.4613403240989" lon="11.886987499755692"><ele>267.0</ele><time>2026-03-29T10:34:07.999Z</time></trkpt><trkpt lat="43.46121765062726" lon="11.886984226228103"><ele>267.0</ele><time>2026-03-29T10:34:08.999Z</time></trkpt><trkpt lat="43.46110162115682" lon="11.886985225396497"><ele>267.0</ele><time>2026-03-29T10:34:09.999Z</time></trkpt><trkpt lat="43.46097958961252" lon="11.886980666342275"><ele>266.6</ele><time>2026-03-29T10:34:10.999Z</time></trkpt><trkpt lat="43.46086596414253" lon="11.886988742706958"><ele>266.2</ele><time>2026-03-29T10:34:11.999Z</time></trkpt><trkpt lat="43.460757173131086" lon="11.886983634293783"><ele>265.8</ele><time>2026-03-29T10:34:12.999Z</time></trkpt><trkpt lat="43.460658750982546" lon="11.886951906308687"><ele>265.4</ele><time>2026-03-29T10:34:13.999Z</time></trkpt><trkpt lat="43.460552720039914" lon="11.886880203449458"><ele>265.0</ele><time>2026-03-29T10:34:14.999Z</time></trkpt><trkpt lat="43.46045453717185" lon="11.886803734627417"><ele>264.66666666666663</ele><time>2026-03-29T10:34:15.999Z</time></trkpt><trkpt lat="43.46037862242745" lon="11.886737599153642"><ele>264.3333333333333</ele><time>2026-03-29T10:34:16.999Z</time></trkpt><trkpt lat="43.46032320121427" lon="11.886676666529228"><ele>264.0</ele><time>2026-03-29T10:34:17.999Z</time></trkpt><trkpt lat="43.4602832479941" lon="11.886597914241916"><ele>263.6666666666667</ele><time>2026-03-29T10:34:19.999Z</time></trkpt><trkpt lat="43.46026449696392" lon="11.886510000797012"><ele>263.33333333333337</ele><time>2026-03-29T10:34:22.999Z</time></trkpt><trkpt lat="43.46017818511415" lon="11.886446678881722"><ele>263.0</ele><time>2026-03-29T10:34:24.999Z</time></trkpt><trkpt lat="43.460092129085545" lon="11.886462561873063"><ele>263.0</ele><time>2026-03-29T10:34:25.999Z</time></trkpt><trkpt lat="43.46001477147077" lon="11.886452848116567"><ele>263.0</ele><time>2026-03-29T10:34:26.999Z</time></trkpt><trkpt lat="43.459926874877034" lon="11.886451870401082"><ele>263.0</ele><time>2026-03-29T10:34:27.998Z</time></trkpt><trkpt lat="43.45983023433544" lon="11.886456100337945"><ele>263.0</ele><time>2026-03-29T10:34:28.998Z</time></trkpt><trkpt lat="43.45972894182789" lon="11.88647682717375"><ele>263.0</ele><time>2026-03-29T10:34:29.998Z</time></trkpt><trkpt lat="43.45963260826373" lon="11.886533274060906"><ele>263.25</ele><time>2026-03-29T10:34:30.998Z</time></trkpt><trkpt lat="43.4595425124925" lon="11.886631410823309"><ele>263.5</ele><time>2026-03-29T10:34:31.998Z</time></trkpt><trkpt lat="43.45945846365183" lon="11.886760690186998"><ele>263.75</ele><time>2026-03-29T10:34:32.998Z</time></trkpt><trkpt lat="43.459380864601535" lon="11.886897422397526"><ele>264.0</ele><time>2026-03-29T10:34:33.998Z</time></trkpt><trkpt lat="43.45930780629985" lon="11.887035063201184"><ele>264.25</ele><time>2026-03-29T10:34:34.998Z</time></trkpt><trkpt lat="43.45923669614572" lon="11.887167581759893"><ele>264.5</ele><time>2026-03-29T10:34:35.998Z</time></trkpt><trkpt lat="43.45916634618057" lon="11.887299891519605"><ele>264.75</ele><time>2026-03-29T10:34:36.998Z</time></trkpt><trkpt lat="43.459081086949205" lon="11.887428731769058"><ele>265.0</ele><time>2026-03-29T10:34:37.998Z</time></trkpt><trkpt lat="43.458998311077295" lon="11.887565670573007"><ele>265.0</ele><time>2026-03-29T10:34:38.998Z</time></trkpt><trkpt lat="43.45891732034973" lon="11.887701584019439"><ele>265.0</ele><time>2026-03-29T10:34:39.998Z</time></trkpt><trkpt lat="43.45884203827807" lon="11.887839939513164"><ele>265.0</ele><time>2026-03-29T10:34:40.998Z</time></trkpt><trkpt lat="43.45874861855149" lon="11.887990089134629"><ele>265.0</ele><time>2026-03-29T10:34:41.998Z</time></trkpt><trkpt lat="43.4586539659213" lon="11.88813765609923"><ele>264.75</ele><time>2026-03-29T10:34:42.998Z</time></trkpt><trkpt lat="43.45857948358005" lon="11.888285608830703"><ele>264.5</ele><time>2026-03-29T10:34:43.998Z</time></trkpt><trkpt lat="43.45848196713957" lon="11.888414631948036"><ele>264.25</ele><time>2026-03-29T10:34:44.998Z</time></trkpt><trkpt lat="43.45839674670728" lon="11.88854256033285"><ele>264.0</ele><time>2026-03-29T10:34:45.998Z</time></trkpt><trkpt lat="43.45830245720367" lon="11.888695687160585"><ele>263.3333333333333</ele><time>2026-03-29T10:34:46.998Z</time></trkpt><trkpt lat="43.45820956073394" lon="11.888862403752748"><ele>262.66666666666663</ele><time>2026-03-29T10:34:47.998Z</time></trkpt><trkpt lat="43.458105475091585" lon="11.889005592391234"><ele>262.0</ele><time>2026-03-29T10:34:48.998Z</time></trkpt><trkpt lat="43.4579961290283" lon="11.889153877989047"><ele>262.25</ele><time>2026-03-29T10:34:49.998Z</time></trkpt><trkpt lat="43.45789783330666" lon="11.889328458025606"><ele>262.5</ele><time>2026-03-29T10:34:50.998Z</time></trkpt><trkpt lat="43.45779789958026" lon="11.889461175648208"><ele>262.75</ele><time>2026-03-29T10:34:51.998Z</time></trkpt><trkpt lat="43.45769476348352" lon="11.88957525581822"><ele>263.0</ele><time>2026-03-29T10:34:52.998Z</time></trkpt><trkpt lat="43.45761330183965" lon="11.88967689262214"><ele>263.0</ele><time>2026-03-29T10:34:53.998Z</time></trkpt><trkpt lat="43.45755109122771" lon="11.889784093209052"><ele>263.0</ele><time>2026-03-29T10:34:55Z</time></trkpt><trkpt lat="43.45750688392542" lon="11.889917051390174"><ele>263.0</ele><time>2026-03-29T10:34:56Z</time></trkpt><trkpt lat="43.45744564380563" lon="11.890014247734394"><ele>263.0</ele><time>2026-03-29T10:34:57Z</time></trkpt><trkpt lat="43.457361675991784" lon="11.890098551938111"><ele>263.0</ele><time>2026-03-29T10:34:58Z</time></trkpt><trkpt lat="43.457292074391475" lon="11.89017228362982"><ele>263.0</ele><time>2026-03-29T10:34:59Z</time></trkpt><trkpt lat="43.45723375416411" lon="11.89024140541901"><ele>263.0</ele><time>2026-03-29T10:35:00Z</time></trkpt><trkpt lat="43.4571597199979" lon="11.890272774134555"><ele>263.0</ele><time>2026-03-29T10:35:01Z</time></trkpt><trkpt lat="43.45706948466633" lon="11.890252798482495"><ele>263.0</ele><time>2026-03-29T10:35:02Z</time></trkpt><trkpt lat="43.45699044050181" lon="11.890177934753753"><ele>263.0</ele><time>2026-03-29T10:35:03Z</time></trkpt><trkpt lat="43.456905753250034" lon="11.890060433569023"><ele>264.5</ele><time>2026-03-29T10:35:04Z</time></trkpt><trkpt lat="43.45680280696918" lon="11.889928498955447"><ele>266.0</ele><time>2026-03-29T10:35:05Z</time></trkpt><trkpt lat="43.45670485949529" lon="11.889795309864422"><ele>267.5</ele><time>2026-03-29T10:35:06Z</time></trkpt><trkpt lat="43.45660997097474" lon="11.889677402540423"><ele>269.0</ele><time>2026-03-29T10:35:07Z</time></trkpt><trkpt lat="43.456528080935016" lon="11.889557797634101"><ele>269.0</ele><time>2026-03-29T10:35:08Z</time></trkpt><trkpt lat="43.456448654228524" lon="11.88945660754105"><ele>269.0</ele><time>2026-03-29T10:35:09Z</time></trkpt><trkpt lat="43.456380152859666" lon="11.889362857329587"><ele>269.0</ele><time>2026-03-29T10:35:10Z</time></trkpt><trkpt lat="43.45631995407314" lon="11.889278300029169"><ele>269.0</ele><time>2026-03-29T10:35:11Z</time></trkpt><trkpt lat="43.456277601876316" lon="11.889179835909502"><ele>269.0</ele><time>2026-03-29T10:35:13Z</time></trkpt><trkpt lat="43.45622361081742" lon="11.88911096364724"><ele>269.0</ele><time>2026-03-29T10:35:18Z</time></trkpt><trkpt lat="43.456093760552506" lon="11.889101094710314"><ele>267.75</ele><time>2026-03-29T10:35:20Z</time></trkpt><trkpt lat="43.45601443888279" lon="11.889142785816246"><ele>266.5</ele><time>2026-03-29T10:35:21Z</time></trkpt><trkpt lat="43.45591776484333" lon="11.889191716694818"><ele>265.25</ele><time>2026-03-29T10:35:22Z</time></trkpt><trkpt lat="43.45579297032371" lon="11.889230190096608"><ele>264.0</ele><time>2026-03-29T10:35:23Z</time></trkpt><trkpt lat="43.45565668565316" lon="11.889271355954962"><ele>264.0</ele><time>2026-03-29T10:35:24Z</time></trkpt><trkpt lat="43.45551598813283" lon="11.88929499792898"><ele>264.0</ele><time>2026-03-29T10:35:25Z</time></trkpt><trkpt lat="43.45538436471519" lon="11.88932852079579"><ele>264.0</ele><time>2026-03-29T10:35:26Z</time></trkpt><trkpt lat="43.45526937460429" lon="11.889356723770232"><ele>264.0</ele><time>2026-03-29T10:35:27Z</time></trkpt><trkpt lat="43.455162081160424" lon="11.889378089009327"><ele>263.75</ele><time>2026-03-29T10:35:28Z</time></trkpt><trkpt lat="43.455068175084364" lon="11.889405850946495"><ele>263.5</ele><time>2026-03-29T10:35:29Z</time></trkpt><trkpt lat="43.45495260810908" lon="11.889438644175753"><ele>263.25</ele><time>2026-03-29T10:35:30Z</time></trkpt><trkpt lat="43.454833889184265" lon="11.889472564819163"><ele>263.0</ele><time>2026-03-29T10:35:31Z</time></trkpt><trkpt lat="43.454711064476214" lon="11.889503914677272"><ele>262.6</ele><time>2026-03-29T10:35:32Z</time></trkpt><trkpt lat="43.4546000995784" lon="11.889528910154802"><ele>262.20000000000005</ele><time>2026-03-29T10:35:33Z</time></trkpt><trkpt lat="43.45452156198887" lon="11.889535579230987"><ele>261.8</ele><time>2026-03-29T10:35:34Z</time></trkpt><trkpt lat="43.4544268187441" lon="11.88952683845029"><ele>261.40000000000003</ele><time>2026-03-29T10:35:36Z</time></trkpt><trkpt lat="43.454344843752374" lon="11.889493870809849"><ele>261.0</ele><time>2026-03-29T10:35:38Z</time></trkpt><trkpt lat="43.45425848938663" lon="11.889457004644516"><ele>261.0</ele><time>2026-03-29T10:35:39Z</time></trkpt><trkpt lat="43.454158235293846" lon="11.889465447766637"><ele>261.0</ele><time>2026-03-29T10:35:40Z</time></trkpt><trkpt lat="43.45406970645375" lon="11.88952633627629"><ele>261.0</ele><time>2026-03-29T10:35:40.999Z</time></trkpt><trkpt lat="43.45400742715498" lon="11.889606188620743"><ele>261.0</ele><time>2026-03-29T10:35:41.999Z</time></trkpt><trkpt lat="43.45394280843284" lon="11.889678425071503"><ele>261.0</ele><time>2026-03-29T10:35:42.999Z</time></trkpt><trkpt lat="43.45385826065334" lon="11.889717492169972"><ele>261.2</ele><time>2026-03-29T10:35:43.999Z</time></trkpt><trkpt lat="43.45375565224212" lon="11.88974326483242"><ele>261.40000000000003</ele><time>2026-03-29T10:35:44.999Z</time></trkpt><trkpt lat="43.45365168128779" lon="11.889765500229716"><ele>261.6</ele><time>2026-03-29T10:35:45.999Z</time></trkpt><trkpt lat="43.453542682277366" lon="11.88978907520103"><ele>261.8</ele><time>2026-03-29T10:35:46.999Z</time></trkpt><trkpt lat="43.45342284018392" lon="11.889820189653777"><ele>262.0</ele><time>2026-03-29T10:35:47.999Z</time></trkpt><trkpt lat="43.45330790984798" lon="11.88984764646749"><ele>262.0</ele><time>2026-03-29T10:35:48.999Z</time></trkpt><trkpt lat="43.453184975527485" lon="11.889879214961516"><ele>262.0</ele><time>2026-03-29T10:35:49.999Z</time></trkpt><trkpt lat="43.453074592845816" lon="11.88990806254231"><ele>262.0</ele><time>2026-03-29T10:35:50.999Z</time></trkpt><trkpt lat="43.45296105834672" lon="11.889938651409016"><ele>262.0</ele><time>2026-03-29T10:35:51.999Z</time></trkpt><trkpt lat="43.452843861382235" lon="11.889980240559357"><ele>262.3333333333333</ele><time>2026-03-29T10:35:52.999Z</time></trkpt><trkpt lat="43.45272327105111" lon="11.890023959192318"><ele>262.6666666666667</ele><time>2026-03-29T10:35:53.999Z</time></trkpt><trkpt lat="43.45259241390011" lon="11.890060542803644"><ele>263.0</ele><time>2026-03-29T10:35:54.999Z</time></trkpt><trkpt lat="43.45226221879654" lon="11.890148142762401"><ele>262.33333333333337</ele><time>2026-03-29T10:35:56.999Z</time></trkpt><trkpt lat="43.4520967628196" lon="11.890197503097873"><ele>261.6666666666667</ele><time>2026-03-29T10:35:57.999Z</time></trkpt><trkpt lat="43.45193392481425" lon="11.890247770554144"><ele>261.0</ele><time>2026-03-29T10:35:58.999Z</time></trkpt><trkpt lat="43.45176740516914" lon="11.8902930302577"><ele>261.0</ele><time>2026-03-29T10:35:59.999Z</time></trkpt><trkpt lat="43.45160561131081" lon="11.890339496921005"><ele>261.0</ele><time>2026-03-29T10:36:00.999Z</time></trkpt><trkpt lat="43.45145071005705" lon="11.890388147865089"><ele>261.0</ele><time>2026-03-29T10:36:01.999Z</time></trkpt><trkpt lat="43.45128475924576" lon="11.8904482404098"><ele>262.6666666666667</ele><time>2026-03-29T10:36:02.999Z</time></trkpt><trkpt lat="43.451116069662866" lon="11.890505606343627"><ele>264.33333333333337</ele><time>2026-03-29T10:36:03.999Z</time></trkpt><trkpt lat="43.45095352367724" lon="11.890556818260503"><ele>266.0</ele><time>2026-03-29T10:36:04.999Z</time></trkpt><trkpt lat="43.45079750056289" lon="11.890597399600175"><ele>266.0</ele><time>2026-03-29T10:36:05.999Z</time></trkpt><trkpt lat="43.45062863655338" lon="11.890646825304614"><ele>266.0</ele><time>2026-03-29T10:36:06.999Z</time></trkpt><trkpt lat="43.45044175894337" lon="11.890706317662154"><ele>266.0</ele><time>2026-03-29T10:36:07.999Z</time></trkpt><trkpt lat="43.45025411524543" lon="11.890758107760542"><ele>267.0</ele><time>2026-03-29T10:36:08.999Z</time></trkpt><trkpt lat="43.45006747842398" lon="11.890801921051398"><ele>268.0</ele><time>2026-03-29T10:36:09.999Z</time></trkpt><trkpt lat="43.44987587386646" lon="11.89084379211523"><ele>269.0</ele><time>2026-03-29T10:36:10.999Z</time></trkpt><trkpt lat="43.449686584879515" lon="11.890883850372061"><ele>267.6666666666667</ele><time>2026-03-29T10:36:11.999Z</time></trkpt><trkpt lat="43.44949888005521" lon="11.890925957179313"><ele>266.3333333333333</ele><time>2026-03-29T10:36:12.999Z</time></trkpt><trkpt lat="43.449316413399565" lon="11.890970484240592"><ele>265.0</ele><time>2026-03-29T10:36:13.999Z</time></trkpt><trkpt lat="43.449134523810336" lon="11.89101997529924"><ele>265.0</ele><time>2026-03-29T10:36:14.999Z</time></trkpt><trkpt lat="43.44896041280695" lon="11.891064060016653"><ele>265.0</ele><time>2026-03-29T10:36:15.999Z</time></trkpt><trkpt lat="43.44878175701847" lon="11.891112058979251"><ele>265.0</ele><time>2026-03-29T10:36:16.999Z</time></trkpt><trkpt lat="43.44860672675545" lon="11.89115507574953"><ele>265.3333333333333</ele><time>2026-03-29T10:36:17.999Z</time></trkpt><trkpt lat="43.44843161844052" lon="11.891198544382581"><ele>265.6666666666667</ele><time>2026-03-29T10:36:18.999Z</time></trkpt><trkpt lat="43.44826134367172" lon="11.891245993718059"><ele>266.0</ele><time>2026-03-29T10:36:19.999Z</time></trkpt><trkpt lat="43.448085489187385" lon="11.891297010653712"><ele>267.6666666666667</ele><time>2026-03-29T10:36:20.999Z</time></trkpt><trkpt lat="43.44790270638647" lon="11.89135406841831"><ele>269.3333333333333</ele><time>2026-03-29T10:36:21.999Z</time></trkpt><trkpt lat="43.44771171542414" lon="11.891403366319588"><ele>271.0</ele><time>2026-03-29T10:36:22.999Z</time></trkpt><trkpt lat="43.44750841613062" lon="11.891450650573443"><ele>271.0</ele><time>2026-03-29T10:36:23.999Z</time></trkpt><trkpt lat="43.44730528500547" lon="11.891490581228602"><ele>271.0</ele><time>2026-03-29T10:36:24.999Z</time></trkpt><trkpt lat="43.44710585306851" lon="11.891533158148155"><ele>271.0</ele><time>2026-03-29T10:36:25.999Z</time></trkpt><trkpt lat="43.44690528831892" lon="11.89158669151218"><ele>272.66666666666663</ele><time>2026-03-29T10:36:26.999Z</time></trkpt><trkpt lat="43.44671356917493" lon="11.891633927324852"><ele>274.3333333333333</ele><time>2026-03-29T10:36:27.999Z</time></trkpt><trkpt lat="43.44652006992519" lon="11.891686415945275"><ele>276.0</ele><time>2026-03-29T10:36:28.999Z</time></trkpt><trkpt lat="43.446323786946444" lon="11.891742862419333"><ele>278.3333333333333</ele><time>2026-03-29T10:36:29.999Z</time></trkpt><trkpt lat="43.446132430614036" lon="11.891802645389314"><ele>280.66666666666663</ele><time>2026-03-29T10:36:30.999Z</time></trkpt><trkpt lat="43.44594365536158" lon="11.891863022758741"><ele>283.0</ele><time>2026-03-29T10:36:31.999Z</time></trkpt><trkpt lat="43.44574976724378" lon="11.891916179475999"><ele>283.0</ele><time>2026-03-29T10:36:32.999Z</time></trkpt><trkpt lat="43.44556149795479" lon="11.891971558807695"><ele>283.0</ele><time>2026-03-29T10:36:33.999Z</time></trkpt><trkpt lat="43.44539995409251" lon="11.892018747904155"><ele>283.0</ele><time>2026-03-29T10:36:34.999Z</time></trkpt><trkpt lat="43.445251171245694" lon="11.892060667808142"><ele>283.5</ele><time>2026-03-29T10:36:35.999Z</time></trkpt><trkpt lat="43.4451030490244" lon="11.892102103820534"><ele>284.0</ele><time>2026-03-29T10:36:36.999Z</time></trkpt><trkpt lat="43.44496235792686" lon="11.892141909668782"><ele>284.5</ele><time>2026-03-29T10:36:37.999Z</time></trkpt><trkpt lat="43.444833472726174" lon="11.892179106659052"><ele>285.0</ele><time>2026-03-29T10:36:38.999Z</time></trkpt><trkpt lat="43.44470460142805" lon="11.89222365697725"><ele>285.0</ele><time>2026-03-29T10:36:39.998Z</time></trkpt><trkpt lat="43.44458046290029" lon="11.892252241286268"><ele>285.0</ele><time>2026-03-29T10:36:40.998Z</time></trkpt><trkpt lat="43.44445992463092" lon="11.892281990826794"><ele>285.0</ele><time>2026-03-29T10:36:41.998Z</time></trkpt><trkpt lat="43.44433719939943" lon="11.892310666670081"><ele>285.0</ele><time>2026-03-29T10:36:42.998Z</time></trkpt><trkpt lat="43.44422270194726" lon="11.892340767926449"><ele>285.0</ele><time>2026-03-29T10:36:43.998Z</time></trkpt><trkpt lat="43.444092863510356" lon="11.892373697915115"><ele>285.0</ele><time>2026-03-29T10:36:44.998Z</time></trkpt><trkpt lat="43.44395057540435" lon="11.892435487588028"><ele>285.0</ele><time>2026-03-29T10:36:45.998Z</time></trkpt><trkpt lat="43.443782136449876" lon="11.892489883150992"><ele>285.3333333333333</ele><time>2026-03-29T10:36:46.998Z</time></trkpt><trkpt lat="43.44360321459615" lon="11.892527160315415"><ele>285.66666666666663</ele><time>2026-03-29T10:36:47.998Z</time></trkpt><trkpt lat="43.44342981985575" lon="11.89255586945683"><ele>286.0</ele><time>2026-03-29T10:36:48.998Z</time></trkpt><trkpt lat="43.443262529200666" lon="11.892598844367676"><ele>286.75</ele><time>2026-03-29T10:36:49.998Z</time></trkpt><trkpt lat="43.44310252552914" lon="11.892647876714642"><ele>287.5</ele><time>2026-03-29T10:36:50.998Z</time></trkpt><trkpt lat="43.4429606858133" lon="11.892699148735613"><ele>288.25</ele><time>2026-03-29T10:36:51.998Z</time></trkpt><trkpt lat="43.44283298857476" lon="11.892760008129219"><ele>289.0</ele><time>2026-03-29T10:36:52.998Z</time></trkpt><trkpt lat="43.442720952531225" lon="11.892831240869453"><ele>289.0</ele><time>2026-03-29T10:36:53.998Z</time></trkpt><trkpt lat="43.442617182729784" lon="11.892901242098988"><ele>289.0</ele><time>2026-03-29T10:36:54.998Z</time></trkpt><trkpt lat="43.44250691833152" lon="11.892974927656391"><ele>289.0</ele><time>2026-03-29T10:36:55.998Z</time></trkpt><trkpt lat="43.44238920883068" lon="11.893040300459171"><ele>289.0</ele><time>2026-03-29T10:36:56.998Z</time></trkpt><trkpt lat="43.44226543156794" lon="11.89309867841381"><ele>289.0</ele><time>2026-03-29T10:36:57.998Z</time></trkpt><trkpt lat="43.442132645453796" lon="11.893147410588803"><ele>289.0</ele><time>2026-03-29T10:36:58.998Z</time></trkpt><trkpt lat="43.441999559988176" lon="11.893187870691216"><ele>289.0</ele><time>2026-03-29T10:36:59.998Z</time></trkpt><trkpt lat="43.44187328828574" lon="11.89322270735215"><ele>289.0</ele><time>2026-03-29T10:37:01Z</time></trkpt><trkpt lat="43.4417441529739" lon="11.893250834780439"><ele>288.59999999999997</ele><time>2026-03-29T10:37:02Z</time></trkpt><trkpt lat="43.441645776980955" lon="11.89326549527601"><ele>288.2</ele><time>2026-03-29T10:37:03Z</time></trkpt><trkpt lat="43.441544515837286" lon="11.89328352305916"><ele>287.79999999999995</ele><time>2026-03-29T10:37:04Z</time></trkpt><trkpt lat="43.44142638306872" lon="11.89329278618303"><ele>287.4</ele><time>2026-03-29T10:37:05Z</time></trkpt><trkpt lat="43.44130851154579" lon="11.893287242964659"><ele>287.0</ele><time>2026-03-29T10:37:06Z</time></trkpt><trkpt lat="43.44120246233613" lon="11.893275278959797"><ele>285.8</ele><time>2026-03-29T10:37:07Z</time></trkpt><trkpt lat="43.441089706312184" lon="11.893262425845156"><ele>284.6</ele><time>2026-03-29T10:37:08Z</time></trkpt><trkpt lat="43.44099578023302" lon="11.893253760588278"><ele>283.40000000000003</ele><time>2026-03-29T10:37:09Z</time></trkpt><trkpt lat="43.440891409143234" lon="11.893251691278836"><ele>282.2</ele><time>2026-03-29T10:37:10Z</time></trkpt><trkpt lat="43.44078631699988" lon="11.893252715539306"><ele>281.0</ele><time>2026-03-29T10:37:11Z</time></trkpt><trkpt lat="43.440685324656656" lon="11.893255499522917"><ele>281.0</ele><time>2026-03-29T10:37:12Z</time></trkpt><trkpt lat="43.44058835255753" lon="11.893267259077943"><ele>281.0</ele><time>2026-03-29T10:37:13Z</time></trkpt><trkpt lat="43.44047938348858" lon="11.893282262637811"><ele>281.0</ele><time>2026-03-29T10:37:14Z</time></trkpt><trkpt lat="43.440349254735" lon="11.893297904587765"><ele>281.0</ele><time>2026-03-29T10:37:15Z</time></trkpt><trkpt lat="43.4401895877836" lon="11.89331615931434"><ele>279.0</ele><time>2026-03-29T10:37:16Z</time></trkpt><trkpt lat="43.44001120970514" lon="11.893334407363017"><ele>277.0</ele><time>2026-03-29T10:37:17Z</time></trkpt><trkpt lat="43.43983071383423" lon="11.893364604899833"><ele>275.0</ele><time>2026-03-29T10:37:18Z</time></trkpt><trkpt lat="43.43964367139725" lon="11.893404912364584"><ele>275.6666666666667</ele><time>2026-03-29T10:37:19Z</time></trkpt><trkpt lat="43.439442458012934" lon="11.893457253000754"><ele>276.3333333333333</ele><time>2026-03-29T10:37:20Z</time></trkpt><trkpt lat="43.43924450089041" lon="11.893509322477364"><ele>277.0</ele><time>2026-03-29T10:37:21Z</time></trkpt><trkpt lat="43.43907359026556" lon="11.893530044039622"><ele>277.0</ele><time>2026-03-29T10:37:22Z</time></trkpt><trkpt lat="43.43890189823607" lon="11.89352931932628"><ele>277.0</ele><time>2026-03-29T10:37:23Z</time></trkpt><trkpt lat="43.43872808057767" lon="11.893537677837697"><ele>277.0</ele><time>2026-03-29T10:37:24Z</time></trkpt><trkpt lat="43.438552455047834" lon="11.893562486184909"><ele>276.66666666666663</ele><time>2026-03-29T10:37:25Z</time></trkpt><trkpt lat="43.43837995557158" lon="11.893594188883034"><ele>276.3333333333333</ele><time>2026-03-29T10:37:26Z</time></trkpt><trkpt lat="43.438195301397464" lon="11.893618798882573"><ele>276.0</ele><time>2026-03-29T10:37:27Z</time></trkpt><trkpt lat="43.437997356042274" lon="11.893605978465564"><ele>275.0</ele><time>2026-03-29T10:37:28Z</time></trkpt><trkpt lat="43.437790558195864" lon="11.893553329189043"><ele>274.0</ele><time>2026-03-29T10:37:29Z</time></trkpt><trkpt lat="43.43761483700371" lon="11.893467332960117"><ele>273.0</ele><time>2026-03-29T10:37:30Z</time></trkpt><trkpt lat="43.437457204347425" lon="11.893382216797336"><ele>273.0</ele><time>2026-03-29T10:37:31Z</time></trkpt><trkpt lat="43.437302496246204" lon="11.893332174565689"><ele>273.0</ele><time>2026-03-29T10:37:32Z</time></trkpt><trkpt lat="43.4371592997207" lon="11.893290500166694"><ele>273.0</ele><time>2026-03-29T10:37:33Z</time></trkpt><trkpt lat="43.43700489000224" lon="11.893249023879202"><ele>273.6666666666667</ele><time>2026-03-29T10:37:34Z</time></trkpt><trkpt lat="43.43682802380545" lon="11.893225262786785"><ele>274.33333333333337</ele><time>2026-03-29T10:37:35Z</time></trkpt><trkpt lat="43.43663623419818" lon="11.8932132310784"><ele>275.0</ele><time>2026-03-29T10:37:36Z</time></trkpt><trkpt lat="43.43644505836022" lon="11.893177739932398"><ele>274.6666666666667</ele><time>2026-03-29T10:37:37Z</time></trkpt><trkpt lat="43.43626247256487" lon="11.893111677511165"><ele>274.3333333333333</ele><time>2026-03-29T10:37:38Z</time></trkpt><trkpt lat="43.43609219418654" lon="11.893037735259586"><ele>274.0</ele><time>2026-03-29T10:37:39Z</time></trkpt><trkpt lat="43.43594669538891" lon="11.892983749226415"><ele>274.0</ele><time>2026-03-29T10:37:40Z</time></trkpt><trkpt lat="43.435809507038165" lon="11.89292520407806"><ele>274.0</ele><time>2026-03-29T10:37:41Z</time></trkpt><trkpt lat="43.43566813427936" lon="11.892870988003232"><ele>274.0</ele><time>2026-03-29T10:37:41.999Z</time></trkpt><trkpt lat="43.43554169050726" lon="11.892833613707618"><ele>274.0</ele><time>2026-03-29T10:37:42.999Z</time></trkpt><trkpt lat="43.43542952616947" lon="11.892796088328078"><ele>274.16666666666663</ele><time>2026-03-29T10:37:43.999Z</time></trkpt><trkpt lat="43.435329771944446" lon="11.892765199270498"><ele>274.3333333333333</ele><time>2026-03-29T10:37:44.999Z</time></trkpt><trkpt lat="43.43523921573849" lon="11.892733695956176"><ele>274.5</ele><time>2026-03-29T10:37:45.999Z</time></trkpt><trkpt lat="43.43516292516933" lon="11.892707875479127"><ele>274.6666666666667</ele><time>2026-03-29T10:37:46.999Z</time></trkpt><trkpt lat="43.43508121291867" lon="11.892666503844298"><ele>274.83333333333337</ele><time>2026-03-29T10:37:48.999Z</time></trkpt><trkpt lat="43.43500408691127" lon="11.892642158646504"><ele>275.0</ele><time>2026-03-29T10:37:51.999Z</time></trkpt><trkpt lat="43.43493722729104" lon="11.892673488381044"><ele>275.0</ele><time>2026-03-29T10:37:54.999Z</time></trkpt><trkpt lat="43.434913632975686" lon="11.892768441135514"><ele>275.0</ele><time>2026-03-29T10:37:59.999Z</time></trkpt><trkpt lat="43.43489261741124" lon="11.892861574069975"><ele>275.0</ele><time>2026-03-29T10:38:04.999Z</time></trkpt><trkpt lat="43.43488574771377" lon="11.892984714255924"><ele>275.0</ele><time>2026-03-29T10:38:08.999Z</time></trkpt><trkpt lat="43.434867778481824" lon="11.893084729527923"><ele>275.0</ele><time>2026-03-29T10:38:10.999Z</time></trkpt><trkpt lat="43.43485820742661" lon="11.893173128899917"><ele>275.0</ele><time>2026-03-29T10:38:11.999Z</time></trkpt><trkpt lat="43.43485030675774" lon="11.893268985133467"><ele>275.0</ele><time>2026-03-29T10:38:12.999Z</time></trkpt><trkpt lat="43.43483577133659" lon="11.89335716790492"><ele>274.6666666666667</ele><time>2026-03-29T10:38:13.999Z</time></trkpt><trkpt lat="43.43480246611846" lon="11.89345002800031"><ele>274.33333333333337</ele><time>2026-03-29T10:38:14.999Z</time></trkpt><trkpt lat="43.43474637837357" lon="11.893510856448076"><ele>274.0</ele><time>2026-03-29T10:38:15.999Z</time></trkpt><trkpt lat="43.43465785692088" lon="11.89356195409668"><ele>273.6666666666667</ele><time>2026-03-29T10:38:16.999Z</time></trkpt><trkpt lat="43.43456708542157" lon="11.893579087869096"><ele>273.3333333333333</ele><time>2026-03-29T10:38:17.999Z</time></trkpt><trkpt lat="43.43449596470117" lon="11.893565229726688"><ele>273.0</ele><time>2026-03-29T10:38:18.999Z</time></trkpt><trkpt lat="43.43440149345219" lon="11.893559325163045"><ele>273.6666666666667</ele><time>2026-03-29T10:38:20.999Z</time></trkpt><trkpt lat="43.43434794573131" lon="11.893632296531827"><ele>274.3333333333333</ele><time>2026-03-29T10:38:39.998Z</time></trkpt><trkpt lat="43.43437048495864" lon="11.89372697851256"><ele>275.0</ele><time>2026-03-29T10:39:14Z</time></trkpt><trkpt lat="43.434324517880874" lon="11.893658073349803"><ele>275.66666666666663</ele><time>2026-03-29T10:39:20Z</time></trkpt><trkpt lat="43.43423845611161" lon="11.893652357476892"><ele>276.3333333333333</ele><time>2026-03-29T10:39:25Z</time></trkpt><trkpt lat="43.434183453621436" lon="11.893603063162136"><ele>277.0</ele><time>2026-03-29T10:39:29Z</time></trkpt><trkpt lat="43.43431115059177" lon="11.89370754343146"><ele>277.0</ele><time>2026-03-29T10:39:49.014Z</time></trkpt><trkpt lat="43.43436308050143" lon="11.89360049284464"><ele>277.0</ele><time>2026-03-29T10:40:54.998Z</time></trkpt><trkpt lat="43.4343272555808" lon="11.893701730300199"><ele>277.0</ele><time>2026-03-29T10:41:06.998Z</time></trkpt><trkpt lat="43.4343159949435" lon="11.893798268560092"><ele>277.0</ele><time>2026-03-29T10:41:13Z</time></trkpt><trkpt lat="43.434306663057384" lon="11.893697777130148"><ele>277.0</ele><time>2026-03-29T10:42:04.999Z</time></trkpt><trkpt lat="43.43432314122201" lon="11.89360167577056"><ele>277.0</ele><time>2026-03-29T10:42:08.999Z</time></trkpt><trkpt lat="43.434368333190484" lon="11.893680585793158"><ele>277.0</ele><time>2026-03-29T10:42:27.999Z</time></trkpt><trkpt lat="43.434317084160604" lon="11.893759056425148"><ele>277.0</ele><time>2026-03-29T10:42:59.998Z</time></trkpt><trkpt lat="43.434373078845525" lon="11.893707702563644"><ele>277.0</ele><time>2026-03-29T10:43:10.998Z</time></trkpt><trkpt lat="43.43442477101941" lon="11.893654447923439"><ele>277.0</ele><time>2026-03-29T10:43:17.998Z</time></trkpt></trkseg></trk></gpx>